<?xml version="1.0" encoding="UTF-8" standalone="no" ?>
<gpx xmlns="http://www.topografix.com/GPX/1/1" xmlns:xsi="http://www.w3.org/2001/XMLSchema-instance" xsi:schemaLocation="http://www.topografix.com/GPX/1/1 http://www.topografix.com/GPX/1/1/gpx.xsd" version="1.1" creator="VisuGPX - https://www.visugpx.com">
  <metadata>
    <name>Loeuilly </name>
    <desc><![CDATA[51 pax, cœur et santé, la coulée verte, ancienne voie ferroviaire]]></desc>
  </metadata>
  <trk>
    <name><![CDATA[Loeuilly _1]]></name>
    <trkseg>
      <trkpt lat="49.77221" lon="2.16899">
        <ele>49.5</ele>
        <time>2023-02-08T13:04:27Z</time>
      </trkpt>
      <trkpt lat="49.77222" lon="2.16896">
        <ele>49.5</ele>
        <time>2023-02-08T13:04:28Z</time>
      </trkpt>
      <trkpt lat="49.77222" lon="2.16894">
        <ele>49.5</ele>
        <time>2023-02-08T13:04:29Z</time>
      </trkpt>
      <trkpt lat="49.77222" lon="2.16893">
        <ele>49.5</ele>
        <time>2023-02-08T13:04:30Z</time>
      </trkpt>
      <trkpt lat="49.77222" lon="2.16892">
        <ele>49.5</ele>
        <time>2023-02-08T13:04:31Z</time>
      </trkpt>
      <trkpt lat="49.77222" lon="2.1689">
        <ele>49.5</ele>
        <time>2023-02-08T13:04:33Z</time>
      </trkpt>
      <trkpt lat="49.77222" lon="2.16888">
        <ele>49.5</ele>
        <time>2023-02-08T13:04:34Z</time>
      </trkpt>
      <trkpt lat="49.77222" lon="2.16885">
        <ele>49.6</ele>
        <time>2023-02-08T13:04:36Z</time>
      </trkpt>
      <trkpt lat="49.77222" lon="2.1688">
        <ele>49.6</ele>
        <time>2023-02-08T13:04:37Z</time>
      </trkpt>
      <trkpt lat="49.77222" lon="2.16879">
        <ele>49.6</ele>
        <time>2023-02-08T13:04:38Z</time>
      </trkpt>
      <trkpt lat="49.77223" lon="2.16877">
        <ele>49.6</ele>
        <time>2023-02-08T13:04:40Z</time>
      </trkpt>
      <trkpt lat="49.77224" lon="2.16875">
        <ele>49.6</ele>
        <time>2023-02-08T13:04:41Z</time>
      </trkpt>
      <trkpt lat="49.77223" lon="2.16875">
        <ele>49.6</ele>
        <time>2023-02-08T13:04:43Z</time>
      </trkpt>
      <trkpt lat="49.77223" lon="2.16873">
        <ele>49.6</ele>
        <time>2023-02-08T13:04:44Z</time>
      </trkpt>
      <trkpt lat="49.77223" lon="2.16871">
        <ele>49.6</ele>
        <time>2023-02-08T13:04:45Z</time>
      </trkpt>
      <trkpt lat="49.77222" lon="2.1687">
        <ele>49.6</ele>
        <time>2023-02-08T13:04:46Z</time>
      </trkpt>
      <trkpt lat="49.77222" lon="2.16868">
        <ele>49.6</ele>
        <time>2023-02-08T13:04:48Z</time>
      </trkpt>
      <trkpt lat="49.77221" lon="2.16866">
        <ele>49.6</ele>
        <time>2023-02-08T13:04:49Z</time>
      </trkpt>
      <trkpt lat="49.77221" lon="2.16865">
        <ele>49.6</ele>
        <time>2023-02-08T13:04:50Z</time>
      </trkpt>
      <trkpt lat="49.7722" lon="2.16863">
        <ele>49.7</ele>
        <time>2023-02-08T13:04:52Z</time>
      </trkpt>
      <trkpt lat="49.7722" lon="2.16862">
        <ele>49.7</ele>
        <time>2023-02-08T13:04:53Z</time>
      </trkpt>
      <trkpt lat="49.77219" lon="2.16861">
        <ele>49.7</ele>
        <time>2023-02-08T13:04:54Z</time>
      </trkpt>
      <trkpt lat="49.77219" lon="2.16859">
        <ele>49.7</ele>
        <time>2023-02-08T13:04:55Z</time>
      </trkpt>
      <trkpt lat="49.77219" lon="2.16857">
        <ele>49.7</ele>
        <time>2023-02-08T13:04:56Z</time>
      </trkpt>
      <trkpt lat="49.77219" lon="2.16855">
        <ele>49.7</ele>
        <time>2023-02-08T13:04:57Z</time>
      </trkpt>
      <trkpt lat="49.77219" lon="2.16853">
        <ele>49.7</ele>
        <time>2023-02-08T13:04:59Z</time>
      </trkpt>
      <trkpt lat="49.77219" lon="2.16851">
        <ele>49.7</ele>
        <time>2023-02-08T13:05:00Z</time>
      </trkpt>
      <trkpt lat="49.77219" lon="2.16849">
        <ele>49.7</ele>
        <time>2023-02-08T13:05:01Z</time>
      </trkpt>
      <trkpt lat="49.77219" lon="2.16847">
        <ele>49.7</ele>
        <time>2023-02-08T13:05:02Z</time>
      </trkpt>
      <trkpt lat="49.77219" lon="2.16845">
        <ele>49.7</ele>
        <time>2023-02-08T13:05:03Z</time>
      </trkpt>
      <trkpt lat="49.77219" lon="2.16842">
        <ele>49.7</ele>
        <time>2023-02-08T13:05:05Z</time>
      </trkpt>
      <trkpt lat="49.77219" lon="2.16838">
        <ele>49.7</ele>
        <time>2023-02-08T13:05:06Z</time>
      </trkpt>
      <trkpt lat="49.7722" lon="2.16837">
        <ele>49.7</ele>
        <time>2023-02-08T13:05:08Z</time>
      </trkpt>
      <trkpt lat="49.7722" lon="2.16835">
        <ele>49.7</ele>
        <time>2023-02-08T13:05:09Z</time>
      </trkpt>
      <trkpt lat="49.7722" lon="2.16834">
        <ele>49.7</ele>
        <time>2023-02-08T13:05:10Z</time>
      </trkpt>
      <trkpt lat="49.77221" lon="2.16832">
        <ele>49.7</ele>
        <time>2023-02-08T13:05:11Z</time>
      </trkpt>
      <trkpt lat="49.77221" lon="2.1683">
        <ele>49.7</ele>
        <time>2023-02-08T13:05:12Z</time>
      </trkpt>
      <trkpt lat="49.77222" lon="2.16828">
        <ele>49.7</ele>
        <time>2023-02-08T13:05:13Z</time>
      </trkpt>
      <trkpt lat="49.77223" lon="2.16827">
        <ele>49.7</ele>
        <time>2023-02-08T13:05:14Z</time>
      </trkpt>
      <trkpt lat="49.77225" lon="2.16826">
        <ele>49.7</ele>
        <time>2023-02-08T13:05:16Z</time>
      </trkpt>
      <trkpt lat="49.77227" lon="2.16824">
        <ele>49.7</ele>
        <time>2023-02-08T13:05:17Z</time>
      </trkpt>
      <trkpt lat="49.77228" lon="2.16823">
        <ele>49.7</ele>
        <time>2023-02-08T13:05:18Z</time>
      </trkpt>
      <trkpt lat="49.77229" lon="2.16822">
        <ele>49.7</ele>
        <time>2023-02-08T13:05:19Z</time>
      </trkpt>
      <trkpt lat="49.7723" lon="2.1682">
        <ele>49.7</ele>
        <time>2023-02-08T13:05:20Z</time>
      </trkpt>
      <trkpt lat="49.77231" lon="2.16819">
        <ele>49.7</ele>
        <time>2023-02-08T13:05:21Z</time>
      </trkpt>
      <trkpt lat="49.77232" lon="2.16818">
        <ele>49.7</ele>
        <time>2023-02-08T13:05:22Z</time>
      </trkpt>
      <trkpt lat="49.77233" lon="2.16817">
        <ele>49.7</ele>
        <time>2023-02-08T13:05:23Z</time>
      </trkpt>
      <trkpt lat="49.77235" lon="2.16816">
        <ele>49.7</ele>
        <time>2023-02-08T13:05:24Z</time>
      </trkpt>
      <trkpt lat="49.77236" lon="2.16815">
        <ele>49.7</ele>
        <time>2023-02-08T13:05:26Z</time>
      </trkpt>
      <trkpt lat="49.77237" lon="2.16815">
        <ele>49.7</ele>
        <time>2023-02-08T13:05:27Z</time>
      </trkpt>
      <trkpt lat="49.77237" lon="2.16814">
        <ele>49.7</ele>
        <time>2023-02-08T13:05:28Z</time>
      </trkpt>
      <trkpt lat="49.77238" lon="2.16813">
        <ele>49.7</ele>
        <time>2023-02-08T13:05:29Z</time>
      </trkpt>
      <trkpt lat="49.77239" lon="2.16812">
        <ele>49.7</ele>
        <time>2023-02-08T13:05:30Z</time>
      </trkpt>
      <trkpt lat="49.77241" lon="2.1681">
        <ele>49.8</ele>
        <time>2023-02-08T13:05:31Z</time>
      </trkpt>
      <trkpt lat="49.77242" lon="2.16809">
        <ele>49.8</ele>
        <time>2023-02-08T13:05:33Z</time>
      </trkpt>
      <trkpt lat="49.77243" lon="2.16808">
        <ele>49.8</ele>
        <time>2023-02-08T13:05:34Z</time>
      </trkpt>
      <trkpt lat="49.77243" lon="2.16807">
        <ele>49.8</ele>
        <time>2023-02-08T13:05:35Z</time>
      </trkpt>
      <trkpt lat="49.77244" lon="2.16806">
        <ele>49.8</ele>
        <time>2023-02-08T13:05:36Z</time>
      </trkpt>
      <trkpt lat="49.77245" lon="2.16805">
        <ele>49.8</ele>
        <time>2023-02-08T13:05:37Z</time>
      </trkpt>
      <trkpt lat="49.77246" lon="2.16804">
        <ele>49.8</ele>
        <time>2023-02-08T13:05:38Z</time>
      </trkpt>
      <trkpt lat="49.77246" lon="2.16803">
        <ele>49.8</ele>
        <time>2023-02-08T13:05:39Z</time>
      </trkpt>
      <trkpt lat="49.77247" lon="2.16802">
        <ele>49.8</ele>
        <time>2023-02-08T13:05:40Z</time>
      </trkpt>
      <trkpt lat="49.77247" lon="2.16801">
        <ele>49.8</ele>
        <time>2023-02-08T13:05:41Z</time>
      </trkpt>
      <trkpt lat="49.77248" lon="2.168">
        <ele>49.8</ele>
        <time>2023-02-08T13:05:43Z</time>
      </trkpt>
      <trkpt lat="49.77249" lon="2.16799">
        <ele>49.8</ele>
        <time>2023-02-08T13:05:44Z</time>
      </trkpt>
      <trkpt lat="49.7725" lon="2.16798">
        <ele>49.8</ele>
        <time>2023-02-08T13:05:45Z</time>
      </trkpt>
      <trkpt lat="49.7725" lon="2.16796">
        <ele>49.8</ele>
        <time>2023-02-08T13:05:46Z</time>
      </trkpt>
      <trkpt lat="49.77252" lon="2.16795">
        <ele>49.8</ele>
        <time>2023-02-08T13:05:47Z</time>
      </trkpt>
      <trkpt lat="49.77253" lon="2.16793">
        <ele>49.8</ele>
        <time>2023-02-08T13:05:49Z</time>
      </trkpt>
      <trkpt lat="49.77254" lon="2.16793">
        <ele>49.8</ele>
        <time>2023-02-08T13:05:50Z</time>
      </trkpt>
      <trkpt lat="49.77255" lon="2.16792">
        <ele>49.8</ele>
        <time>2023-02-08T13:05:51Z</time>
      </trkpt>
      <trkpt lat="49.77257" lon="2.16791">
        <ele>49.8</ele>
        <time>2023-02-08T13:05:53Z</time>
      </trkpt>
      <trkpt lat="49.77258" lon="2.1679">
        <ele>49.8</ele>
        <time>2023-02-08T13:05:54Z</time>
      </trkpt>
      <trkpt lat="49.77259" lon="2.1679">
        <ele>49.8</ele>
        <time>2023-02-08T13:05:55Z</time>
      </trkpt>
      <trkpt lat="49.7726" lon="2.16789">
        <ele>49.8</ele>
        <time>2023-02-08T13:05:56Z</time>
      </trkpt>
      <trkpt lat="49.77261" lon="2.16788">
        <ele>49.8</ele>
        <time>2023-02-08T13:05:57Z</time>
      </trkpt>
      <trkpt lat="49.77262" lon="2.16787">
        <ele>49.8</ele>
        <time>2023-02-08T13:05:58Z</time>
      </trkpt>
      <trkpt lat="49.77264" lon="2.16786">
        <ele>49.8</ele>
        <time>2023-02-08T13:05:59Z</time>
      </trkpt>
      <trkpt lat="49.77265" lon="2.16785">
        <ele>49.8</ele>
        <time>2023-02-08T13:06:01Z</time>
      </trkpt>
      <trkpt lat="49.77267" lon="2.16783">
        <ele>49.8</ele>
        <time>2023-02-08T13:06:02Z</time>
      </trkpt>
      <trkpt lat="49.77268" lon="2.16783">
        <ele>49.8</ele>
        <time>2023-02-08T13:06:03Z</time>
      </trkpt>
      <trkpt lat="49.77268" lon="2.16782">
        <ele>49.8</ele>
        <time>2023-02-08T13:06:04Z</time>
      </trkpt>
      <trkpt lat="49.7727" lon="2.16779">
        <ele>49.9</ele>
        <time>2023-02-08T13:06:05Z</time>
      </trkpt>
      <trkpt lat="49.77271" lon="2.16777">
        <ele>49.9</ele>
        <time>2023-02-08T13:06:07Z</time>
      </trkpt>
      <trkpt lat="49.77272" lon="2.16776">
        <ele>49.9</ele>
        <time>2023-02-08T13:06:09Z</time>
      </trkpt>
      <trkpt lat="49.77273" lon="2.16774">
        <ele>49.9</ele>
        <time>2023-02-08T13:06:10Z</time>
      </trkpt>
      <trkpt lat="49.77274" lon="2.16772">
        <ele>49.9</ele>
        <time>2023-02-08T13:06:11Z</time>
      </trkpt>
      <trkpt lat="49.77274" lon="2.16771">
        <ele>49.9</ele>
        <time>2023-02-08T13:06:12Z</time>
      </trkpt>
      <trkpt lat="49.77274" lon="2.16769">
        <ele>49.9</ele>
        <time>2023-02-08T13:06:13Z</time>
      </trkpt>
      <trkpt lat="49.77275" lon="2.16767">
        <ele>49.9</ele>
        <time>2023-02-08T13:06:14Z</time>
      </trkpt>
      <trkpt lat="49.77275" lon="2.16766">
        <ele>49.9</ele>
        <time>2023-02-08T13:06:15Z</time>
      </trkpt>
      <trkpt lat="49.77276" lon="2.16762">
        <ele>49.9</ele>
        <time>2023-02-08T13:06:17Z</time>
      </trkpt>
      <trkpt lat="49.77276" lon="2.16761">
        <ele>49.9</ele>
        <time>2023-02-08T13:06:18Z</time>
      </trkpt>
      <trkpt lat="49.77276" lon="2.1676">
        <ele>49.9</ele>
        <time>2023-02-08T13:06:20Z</time>
      </trkpt>
      <trkpt lat="49.77276" lon="2.16759">
        <ele>49.9</ele>
        <time>2023-02-08T13:06:21Z</time>
      </trkpt>
      <trkpt lat="49.77275" lon="2.16759">
        <ele>49.9</ele>
        <time>2023-02-08T13:06:22Z</time>
      </trkpt>
      <trkpt lat="49.77275" lon="2.16758">
        <ele>49.9</ele>
        <time>2023-02-08T13:06:23Z</time>
      </trkpt>
      <trkpt lat="49.77275" lon="2.16757">
        <ele>49.9</ele>
        <time>2023-02-08T13:06:24Z</time>
      </trkpt>
      <trkpt lat="49.77275" lon="2.16755">
        <ele>49.9</ele>
        <time>2023-02-08T13:06:25Z</time>
      </trkpt>
      <trkpt lat="49.77274" lon="2.16754">
        <ele>49.9</ele>
        <time>2023-02-08T13:06:26Z</time>
      </trkpt>
      <trkpt lat="49.77274" lon="2.16752">
        <ele>49.9</ele>
        <time>2023-02-08T13:06:27Z</time>
      </trkpt>
      <trkpt lat="49.77274" lon="2.16751">
        <ele>49.9</ele>
        <time>2023-02-08T13:06:28Z</time>
      </trkpt>
      <trkpt lat="49.77274" lon="2.1675">
        <ele>49.9</ele>
        <time>2023-02-08T13:06:29Z</time>
      </trkpt>
      <trkpt lat="49.77274" lon="2.16748">
        <ele>49.9</ele>
        <time>2023-02-08T13:06:31Z</time>
      </trkpt>
      <trkpt lat="49.77274" lon="2.16746">
        <ele>49.9</ele>
        <time>2023-02-08T13:06:32Z</time>
      </trkpt>
      <trkpt lat="49.77274" lon="2.16744">
        <ele>49.9</ele>
        <time>2023-02-08T13:06:33Z</time>
      </trkpt>
      <trkpt lat="49.77274" lon="2.16742">
        <ele>49.9</ele>
        <time>2023-02-08T13:06:34Z</time>
      </trkpt>
      <trkpt lat="49.77273" lon="2.1674">
        <ele>49.9</ele>
        <time>2023-02-08T13:06:35Z</time>
      </trkpt>
      <trkpt lat="49.77273" lon="2.16739">
        <ele>49.9</ele>
        <time>2023-02-08T13:06:36Z</time>
      </trkpt>
      <trkpt lat="49.77273" lon="2.16737">
        <ele>49.9</ele>
        <time>2023-02-08T13:06:37Z</time>
      </trkpt>
      <trkpt lat="49.77273" lon="2.16735">
        <ele>49.9</ele>
        <time>2023-02-08T13:06:38Z</time>
      </trkpt>
      <trkpt lat="49.77273" lon="2.16733">
        <ele>49.9</ele>
        <time>2023-02-08T13:06:39Z</time>
      </trkpt>
      <trkpt lat="49.77273" lon="2.16731">
        <ele>49.9</ele>
        <time>2023-02-08T13:06:40Z</time>
      </trkpt>
      <trkpt lat="49.77273" lon="2.16728">
        <ele>49.9</ele>
        <time>2023-02-08T13:06:42Z</time>
      </trkpt>
      <trkpt lat="49.77273" lon="2.16727">
        <ele>49.9</ele>
        <time>2023-02-08T13:06:43Z</time>
      </trkpt>
      <trkpt lat="49.77273" lon="2.16726">
        <ele>49.9</ele>
        <time>2023-02-08T13:06:44Z</time>
      </trkpt>
      <trkpt lat="49.77273" lon="2.16724">
        <ele>49.9</ele>
        <time>2023-02-08T13:06:45Z</time>
      </trkpt>
      <trkpt lat="49.77273" lon="2.16722">
        <ele>49.9</ele>
        <time>2023-02-08T13:06:46Z</time>
      </trkpt>
      <trkpt lat="49.77273" lon="2.16721">
        <ele>49.9</ele>
        <time>2023-02-08T13:06:47Z</time>
      </trkpt>
      <trkpt lat="49.77273" lon="2.16718">
        <ele>49.9</ele>
        <time>2023-02-08T13:06:49Z</time>
      </trkpt>
      <trkpt lat="49.77273" lon="2.16717">
        <ele>49.9</ele>
        <time>2023-02-08T13:06:51Z</time>
      </trkpt>
      <trkpt lat="49.77274" lon="2.16716">
        <ele>49.9</ele>
        <time>2023-02-08T13:06:52Z</time>
      </trkpt>
      <trkpt lat="49.77274" lon="2.16715">
        <ele>49.9</ele>
        <time>2023-02-08T13:06:53Z</time>
      </trkpt>
      <trkpt lat="49.77274" lon="2.16714">
        <ele>49.9</ele>
        <time>2023-02-08T13:06:54Z</time>
      </trkpt>
      <trkpt lat="49.77274" lon="2.16712">
        <ele>49.9</ele>
        <time>2023-02-08T13:06:55Z</time>
      </trkpt>
      <trkpt lat="49.77274" lon="2.16711">
        <ele>49.9</ele>
        <time>2023-02-08T13:06:56Z</time>
      </trkpt>
      <trkpt lat="49.77275" lon="2.16709">
        <ele>49.9</ele>
        <time>2023-02-08T13:06:58Z</time>
      </trkpt>
      <trkpt lat="49.77275" lon="2.16707">
        <ele>49.9</ele>
        <time>2023-02-08T13:06:59Z</time>
      </trkpt>
      <trkpt lat="49.77275" lon="2.16705">
        <ele>49.9</ele>
        <time>2023-02-08T13:07:00Z</time>
      </trkpt>
      <trkpt lat="49.77276" lon="2.16703">
        <ele>49.9</ele>
        <time>2023-02-08T13:07:01Z</time>
      </trkpt>
      <trkpt lat="49.77276" lon="2.16701">
        <ele>49.8</ele>
        <time>2023-02-08T13:07:02Z</time>
      </trkpt>
      <trkpt lat="49.77277" lon="2.167">
        <ele>49.8</ele>
        <time>2023-02-08T13:07:04Z</time>
      </trkpt>
      <trkpt lat="49.77277" lon="2.16698">
        <ele>49.8</ele>
        <time>2023-02-08T13:07:05Z</time>
      </trkpt>
      <trkpt lat="49.77277" lon="2.16698">
        <ele>49.8</ele>
        <time>2023-02-08T13:07:06Z</time>
      </trkpt>
      <trkpt lat="49.77278" lon="2.16696">
        <ele>49.8</ele>
        <time>2023-02-08T13:07:07Z</time>
      </trkpt>
      <trkpt lat="49.77278" lon="2.16695">
        <ele>49.8</ele>
        <time>2023-02-08T13:07:08Z</time>
      </trkpt>
      <trkpt lat="49.7728" lon="2.16691">
        <ele>49.7</ele>
        <time>2023-02-08T13:07:09Z</time>
      </trkpt>
      <trkpt lat="49.7728" lon="2.1669">
        <ele>49.7</ele>
        <time>2023-02-08T13:07:10Z</time>
      </trkpt>
      <trkpt lat="49.77282" lon="2.16686">
        <ele>49.7</ele>
        <time>2023-02-08T13:07:11Z</time>
      </trkpt>
      <trkpt lat="49.77282" lon="2.16685">
        <ele>49.7</ele>
        <time>2023-02-08T13:07:12Z</time>
      </trkpt>
      <trkpt lat="49.77283" lon="2.16684">
        <ele>49.6</ele>
        <time>2023-02-08T13:07:13Z</time>
      </trkpt>
      <trkpt lat="49.77285" lon="2.16682">
        <ele>49.6</ele>
        <time>2023-02-08T13:07:15Z</time>
      </trkpt>
      <trkpt lat="49.77285" lon="2.1668">
        <ele>49.6</ele>
        <time>2023-02-08T13:07:16Z</time>
      </trkpt>
      <trkpt lat="49.77286" lon="2.16679">
        <ele>49.6</ele>
        <time>2023-02-08T13:07:17Z</time>
      </trkpt>
      <trkpt lat="49.77287" lon="2.16678">
        <ele>49.6</ele>
        <time>2023-02-08T13:07:18Z</time>
      </trkpt>
      <trkpt lat="49.77288" lon="2.16676">
        <ele>49.5</ele>
        <time>2023-02-08T13:07:19Z</time>
      </trkpt>
      <trkpt lat="49.77289" lon="2.16675">
        <ele>49.5</ele>
        <time>2023-02-08T13:07:20Z</time>
      </trkpt>
      <trkpt lat="49.7729" lon="2.16674">
        <ele>49.5</ele>
        <time>2023-02-08T13:07:21Z</time>
      </trkpt>
      <trkpt lat="49.7729" lon="2.16673">
        <ele>49.5</ele>
        <time>2023-02-08T13:07:22Z</time>
      </trkpt>
      <trkpt lat="49.77291" lon="2.16671">
        <ele>49.5</ele>
        <time>2023-02-08T13:07:23Z</time>
      </trkpt>
      <trkpt lat="49.77292" lon="2.16669">
        <ele>49.5</ele>
        <time>2023-02-08T13:07:24Z</time>
      </trkpt>
      <trkpt lat="49.77293" lon="2.16667">
        <ele>49.4</ele>
        <time>2023-02-08T13:07:25Z</time>
      </trkpt>
      <trkpt lat="49.77295" lon="2.16663">
        <ele>49.4</ele>
        <time>2023-02-08T13:07:26Z</time>
      </trkpt>
      <trkpt lat="49.77296" lon="2.16662">
        <ele>49.4</ele>
        <time>2023-02-08T13:07:27Z</time>
      </trkpt>
      <trkpt lat="49.77298" lon="2.16657">
        <ele>49.4</ele>
        <time>2023-02-08T13:07:29Z</time>
      </trkpt>
      <trkpt lat="49.77298" lon="2.16656">
        <ele>49.4</ele>
        <time>2023-02-08T13:07:30Z</time>
      </trkpt>
      <trkpt lat="49.773" lon="2.16651">
        <ele>49.4</ele>
        <time>2023-02-08T13:07:31Z</time>
      </trkpt>
      <trkpt lat="49.77301" lon="2.1665">
        <ele>49.4</ele>
        <time>2023-02-08T13:07:32Z</time>
      </trkpt>
      <trkpt lat="49.77301" lon="2.16649">
        <ele>49.4</ele>
        <time>2023-02-08T13:07:33Z</time>
      </trkpt>
      <trkpt lat="49.77302" lon="2.16647">
        <ele>49.3</ele>
        <time>2023-02-08T13:07:34Z</time>
      </trkpt>
      <trkpt lat="49.77303" lon="2.16645">
        <ele>49.3</ele>
        <time>2023-02-08T13:07:36Z</time>
      </trkpt>
      <trkpt lat="49.77303" lon="2.16644">
        <ele>49.3</ele>
        <time>2023-02-08T13:07:37Z</time>
      </trkpt>
      <trkpt lat="49.77304" lon="2.16642">
        <ele>49.3</ele>
        <time>2023-02-08T13:07:38Z</time>
      </trkpt>
      <trkpt lat="49.77306" lon="2.16638">
        <ele>49.3</ele>
        <time>2023-02-08T13:07:39Z</time>
      </trkpt>
      <trkpt lat="49.77307" lon="2.16637">
        <ele>49.3</ele>
        <time>2023-02-08T13:07:40Z</time>
      </trkpt>
      <trkpt lat="49.77307" lon="2.16636">
        <ele>49.3</ele>
        <time>2023-02-08T13:07:41Z</time>
      </trkpt>
      <trkpt lat="49.77308" lon="2.16634">
        <ele>49.3</ele>
        <time>2023-02-08T13:07:42Z</time>
      </trkpt>
      <trkpt lat="49.77309" lon="2.16632">
        <ele>49.3</ele>
        <time>2023-02-08T13:07:44Z</time>
      </trkpt>
      <trkpt lat="49.7731" lon="2.16629">
        <ele>49.3</ele>
        <time>2023-02-08T13:07:45Z</time>
      </trkpt>
      <trkpt lat="49.77311" lon="2.16628">
        <ele>49.3</ele>
        <time>2023-02-08T13:07:46Z</time>
      </trkpt>
      <trkpt lat="49.77311" lon="2.16627">
        <ele>49.3</ele>
        <time>2023-02-08T13:07:47Z</time>
      </trkpt>
      <trkpt lat="49.77312" lon="2.16625">
        <ele>49.3</ele>
        <time>2023-02-08T13:07:48Z</time>
      </trkpt>
      <trkpt lat="49.77313" lon="2.16624">
        <ele>49.3</ele>
        <time>2023-02-08T13:07:49Z</time>
      </trkpt>
      <trkpt lat="49.77314" lon="2.16621">
        <ele>49.3</ele>
        <time>2023-02-08T13:07:50Z</time>
      </trkpt>
      <trkpt lat="49.77315" lon="2.1662">
        <ele>49.3</ele>
        <time>2023-02-08T13:07:51Z</time>
      </trkpt>
      <trkpt lat="49.77316" lon="2.16619">
        <ele>49.3</ele>
        <time>2023-02-08T13:07:53Z</time>
      </trkpt>
      <trkpt lat="49.77316" lon="2.16618">
        <ele>49.3</ele>
        <time>2023-02-08T13:07:54Z</time>
      </trkpt>
      <trkpt lat="49.77317" lon="2.16617">
        <ele>49.3</ele>
        <time>2023-02-08T13:07:55Z</time>
      </trkpt>
      <trkpt lat="49.77318" lon="2.16616">
        <ele>49.4</ele>
        <time>2023-02-08T13:07:56Z</time>
      </trkpt>
      <trkpt lat="49.77318" lon="2.16615">
        <ele>49.4</ele>
        <time>2023-02-08T13:07:57Z</time>
      </trkpt>
      <trkpt lat="49.77319" lon="2.16614">
        <ele>49.4</ele>
        <time>2023-02-08T13:07:58Z</time>
      </trkpt>
      <trkpt lat="49.7732" lon="2.16612">
        <ele>49.4</ele>
        <time>2023-02-08T13:07:59Z</time>
      </trkpt>
      <trkpt lat="49.77321" lon="2.1661">
        <ele>49.4</ele>
        <time>2023-02-08T13:08:00Z</time>
      </trkpt>
      <trkpt lat="49.77321" lon="2.16609">
        <ele>49.4</ele>
        <time>2023-02-08T13:08:02Z</time>
      </trkpt>
      <trkpt lat="49.77322" lon="2.16607">
        <ele>49.4</ele>
        <time>2023-02-08T13:08:03Z</time>
      </trkpt>
      <trkpt lat="49.77323" lon="2.16605">
        <ele>49.4</ele>
        <time>2023-02-08T13:08:04Z</time>
      </trkpt>
      <trkpt lat="49.77323" lon="2.16604">
        <ele>49.4</ele>
        <time>2023-02-08T13:08:05Z</time>
      </trkpt>
      <trkpt lat="49.77324" lon="2.16602">
        <ele>49.4</ele>
        <time>2023-02-08T13:08:06Z</time>
      </trkpt>
      <trkpt lat="49.77324" lon="2.16601">
        <ele>49.4</ele>
        <time>2023-02-08T13:08:07Z</time>
      </trkpt>
      <trkpt lat="49.77326" lon="2.16597">
        <ele>49.4</ele>
        <time>2023-02-08T13:08:08Z</time>
      </trkpt>
      <trkpt lat="49.77326" lon="2.16596">
        <ele>49.4</ele>
        <time>2023-02-08T13:08:09Z</time>
      </trkpt>
      <trkpt lat="49.77327" lon="2.16594">
        <ele>49.4</ele>
        <time>2023-02-08T13:08:10Z</time>
      </trkpt>
      <trkpt lat="49.77327" lon="2.16593">
        <ele>49.4</ele>
        <time>2023-02-08T13:08:11Z</time>
      </trkpt>
      <trkpt lat="49.77328" lon="2.16592">
        <ele>49.4</ele>
        <time>2023-02-08T13:08:13Z</time>
      </trkpt>
      <trkpt lat="49.77328" lon="2.1659">
        <ele>49.4</ele>
        <time>2023-02-08T13:08:14Z</time>
      </trkpt>
      <trkpt lat="49.77329" lon="2.16588">
        <ele>49.4</ele>
        <time>2023-02-08T13:08:15Z</time>
      </trkpt>
      <trkpt lat="49.7733" lon="2.16586">
        <ele>49.5</ele>
        <time>2023-02-08T13:08:16Z</time>
      </trkpt>
      <trkpt lat="49.77332" lon="2.16584">
        <ele>49.5</ele>
        <time>2023-02-08T13:08:17Z</time>
      </trkpt>
      <trkpt lat="49.77333" lon="2.16583">
        <ele>49.5</ele>
        <time>2023-02-08T13:08:18Z</time>
      </trkpt>
      <trkpt lat="49.77334" lon="2.16582">
        <ele>49.5</ele>
        <time>2023-02-08T13:08:20Z</time>
      </trkpt>
      <trkpt lat="49.77334" lon="2.1658">
        <ele>49.5</ele>
        <time>2023-02-08T13:08:21Z</time>
      </trkpt>
      <trkpt lat="49.77335" lon="2.16579">
        <ele>49.5</ele>
        <time>2023-02-08T13:08:22Z</time>
      </trkpt>
      <trkpt lat="49.77336" lon="2.16578">
        <ele>49.5</ele>
        <time>2023-02-08T13:08:23Z</time>
      </trkpt>
      <trkpt lat="49.77337" lon="2.16576">
        <ele>49.5</ele>
        <time>2023-02-08T13:08:24Z</time>
      </trkpt>
      <trkpt lat="49.77338" lon="2.16575">
        <ele>49.5</ele>
        <time>2023-02-08T13:08:25Z</time>
      </trkpt>
      <trkpt lat="49.77338" lon="2.16573">
        <ele>49.5</ele>
        <time>2023-02-08T13:08:26Z</time>
      </trkpt>
      <trkpt lat="49.7734" lon="2.1657">
        <ele>49.5</ele>
        <time>2023-02-08T13:08:28Z</time>
      </trkpt>
      <trkpt lat="49.77341" lon="2.16569">
        <ele>49.5</ele>
        <time>2023-02-08T13:08:30Z</time>
      </trkpt>
      <trkpt lat="49.77342" lon="2.16567">
        <ele>49.5</ele>
        <time>2023-02-08T13:08:31Z</time>
      </trkpt>
      <trkpt lat="49.77344" lon="2.16565">
        <ele>49.5</ele>
        <time>2023-02-08T13:08:32Z</time>
      </trkpt>
      <trkpt lat="49.77345" lon="2.16564">
        <ele>49.5</ele>
        <time>2023-02-08T13:08:33Z</time>
      </trkpt>
      <trkpt lat="49.77345" lon="2.16563">
        <ele>49.5</ele>
        <time>2023-02-08T13:08:34Z</time>
      </trkpt>
      <trkpt lat="49.77347" lon="2.16562">
        <ele>49.5</ele>
        <time>2023-02-08T13:08:36Z</time>
      </trkpt>
      <trkpt lat="49.77347" lon="2.16561">
        <ele>49.5</ele>
        <time>2023-02-08T13:08:37Z</time>
      </trkpt>
      <trkpt lat="49.77348" lon="2.16561">
        <ele>49.5</ele>
        <time>2023-02-08T13:08:38Z</time>
      </trkpt>
      <trkpt lat="49.7735" lon="2.16559">
        <ele>49.5</ele>
        <time>2023-02-08T13:08:39Z</time>
      </trkpt>
      <trkpt lat="49.77351" lon="2.16558">
        <ele>49.5</ele>
        <time>2023-02-08T13:08:40Z</time>
      </trkpt>
      <trkpt lat="49.77351" lon="2.16557">
        <ele>49.5</ele>
        <time>2023-02-08T13:08:41Z</time>
      </trkpt>
      <trkpt lat="49.77352" lon="2.16556">
        <ele>49.5</ele>
        <time>2023-02-08T13:08:42Z</time>
      </trkpt>
      <trkpt lat="49.77353" lon="2.16555">
        <ele>49.5</ele>
        <time>2023-02-08T13:08:43Z</time>
      </trkpt>
      <trkpt lat="49.77354" lon="2.16554">
        <ele>49.4</ele>
        <time>2023-02-08T13:08:44Z</time>
      </trkpt>
      <trkpt lat="49.77356" lon="2.16555">
        <ele>49.4</ele>
        <time>2023-02-08T13:08:46Z</time>
      </trkpt>
      <trkpt lat="49.77357" lon="2.16555">
        <ele>49.4</ele>
        <time>2023-02-08T13:08:47Z</time>
      </trkpt>
      <trkpt lat="49.77358" lon="2.16555">
        <ele>49.4</ele>
        <time>2023-02-08T13:08:48Z</time>
      </trkpt>
      <trkpt lat="49.77359" lon="2.16556">
        <ele>49.4</ele>
        <time>2023-02-08T13:08:49Z</time>
      </trkpt>
      <trkpt lat="49.7736" lon="2.16557">
        <ele>49.4</ele>
        <time>2023-02-08T13:08:50Z</time>
      </trkpt>
      <trkpt lat="49.77361" lon="2.16558">
        <ele>49.4</ele>
        <time>2023-02-08T13:08:51Z</time>
      </trkpt>
      <trkpt lat="49.77362" lon="2.16558">
        <ele>49.4</ele>
        <time>2023-02-08T13:08:52Z</time>
      </trkpt>
      <trkpt lat="49.77363" lon="2.16559">
        <ele>49.4</ele>
        <time>2023-02-08T13:08:53Z</time>
      </trkpt>
      <trkpt lat="49.77364" lon="2.16559">
        <ele>49.4</ele>
        <time>2023-02-08T13:08:54Z</time>
      </trkpt>
      <trkpt lat="49.77366" lon="2.1656">
        <ele>49.4</ele>
        <time>2023-02-08T13:08:55Z</time>
      </trkpt>
      <trkpt lat="49.77367" lon="2.1656">
        <ele>49.4</ele>
        <time>2023-02-08T13:08:57Z</time>
      </trkpt>
      <trkpt lat="49.77367" lon="2.16561">
        <ele>49.4</ele>
        <time>2023-02-08T13:08:58Z</time>
      </trkpt>
      <trkpt lat="49.77368" lon="2.16561">
        <ele>49.4</ele>
        <time>2023-02-08T13:08:59Z</time>
      </trkpt>
      <trkpt lat="49.77369" lon="2.16561">
        <ele>49.4</ele>
        <time>2023-02-08T13:09:00Z</time>
      </trkpt>
      <trkpt lat="49.77369" lon="2.16562">
        <ele>49.4</ele>
        <time>2023-02-08T13:09:01Z</time>
      </trkpt>
      <trkpt lat="49.7737" lon="2.16562">
        <ele>49.4</ele>
        <time>2023-02-08T13:09:02Z</time>
      </trkpt>
      <trkpt lat="49.77371" lon="2.16563">
        <ele>49.4</ele>
        <time>2023-02-08T13:09:03Z</time>
      </trkpt>
      <trkpt lat="49.77372" lon="2.16563">
        <ele>49.4</ele>
        <time>2023-02-08T13:09:04Z</time>
      </trkpt>
      <trkpt lat="49.77373" lon="2.16563">
        <ele>49.4</ele>
        <time>2023-02-08T13:09:05Z</time>
      </trkpt>
      <trkpt lat="49.77374" lon="2.16563">
        <ele>49.4</ele>
        <time>2023-02-08T13:09:07Z</time>
      </trkpt>
      <trkpt lat="49.77374" lon="2.16564">
        <ele>49.4</ele>
        <time>2023-02-08T13:09:08Z</time>
      </trkpt>
      <trkpt lat="49.77376" lon="2.16564">
        <ele>49.4</ele>
        <time>2023-02-08T13:09:09Z</time>
      </trkpt>
      <trkpt lat="49.77377" lon="2.16564">
        <ele>49.4</ele>
        <time>2023-02-08T13:09:10Z</time>
      </trkpt>
      <trkpt lat="49.77378" lon="2.16564">
        <ele>49.4</ele>
        <time>2023-02-08T13:09:11Z</time>
      </trkpt>
      <trkpt lat="49.77379" lon="2.16565">
        <ele>49.4</ele>
        <time>2023-02-08T13:09:13Z</time>
      </trkpt>
      <trkpt lat="49.7738" lon="2.16565">
        <ele>49.4</ele>
        <time>2023-02-08T13:09:14Z</time>
      </trkpt>
      <trkpt lat="49.77381" lon="2.16565">
        <ele>49.4</ele>
        <time>2023-02-08T13:09:15Z</time>
      </trkpt>
      <trkpt lat="49.77383" lon="2.16566">
        <ele>49.4</ele>
        <time>2023-02-08T13:09:16Z</time>
      </trkpt>
      <trkpt lat="49.77385" lon="2.16567">
        <ele>49.4</ele>
        <time>2023-02-08T13:09:17Z</time>
      </trkpt>
      <trkpt lat="49.77386" lon="2.16567">
        <ele>49.3</ele>
        <time>2023-02-08T13:09:18Z</time>
      </trkpt>
      <trkpt lat="49.77386" lon="2.16568">
        <ele>49.3</ele>
        <time>2023-02-08T13:09:19Z</time>
      </trkpt>
      <trkpt lat="49.77388" lon="2.16569">
        <ele>49.3</ele>
        <time>2023-02-08T13:09:20Z</time>
      </trkpt>
      <trkpt lat="49.77389" lon="2.16569">
        <ele>49.3</ele>
        <time>2023-02-08T13:09:21Z</time>
      </trkpt>
      <trkpt lat="49.7739" lon="2.1657">
        <ele>49.3</ele>
        <time>2023-02-08T13:09:22Z</time>
      </trkpt>
      <trkpt lat="49.77392" lon="2.16571">
        <ele>49.3</ele>
        <time>2023-02-08T13:09:23Z</time>
      </trkpt>
      <trkpt lat="49.77393" lon="2.16572">
        <ele>49.3</ele>
        <time>2023-02-08T13:09:24Z</time>
      </trkpt>
      <trkpt lat="49.77397" lon="2.16573">
        <ele>49.3</ele>
        <time>2023-02-08T13:09:26Z</time>
      </trkpt>
      <trkpt lat="49.77398" lon="2.16573">
        <ele>49.3</ele>
        <time>2023-02-08T13:09:27Z</time>
      </trkpt>
      <trkpt lat="49.77399" lon="2.16573">
        <ele>49.3</ele>
        <time>2023-02-08T13:09:28Z</time>
      </trkpt>
      <trkpt lat="49.77401" lon="2.16574">
        <ele>49.3</ele>
        <time>2023-02-08T13:09:29Z</time>
      </trkpt>
      <trkpt lat="49.77404" lon="2.16575">
        <ele>49.3</ele>
        <time>2023-02-08T13:09:31Z</time>
      </trkpt>
      <trkpt lat="49.77405" lon="2.16575">
        <ele>49.3</ele>
        <time>2023-02-08T13:09:32Z</time>
      </trkpt>
      <trkpt lat="49.77406" lon="2.16577">
        <ele>49.3</ele>
        <time>2023-02-08T13:09:33Z</time>
      </trkpt>
      <trkpt lat="49.77407" lon="2.16577">
        <ele>49.3</ele>
        <time>2023-02-08T13:09:34Z</time>
      </trkpt>
      <trkpt lat="49.77408" lon="2.16578">
        <ele>49.3</ele>
        <time>2023-02-08T13:09:35Z</time>
      </trkpt>
      <trkpt lat="49.77409" lon="2.16578">
        <ele>49.3</ele>
        <time>2023-02-08T13:09:36Z</time>
      </trkpt>
      <trkpt lat="49.77411" lon="2.16579">
        <ele>49.2</ele>
        <time>2023-02-08T13:09:37Z</time>
      </trkpt>
      <trkpt lat="49.77413" lon="2.16579">
        <ele>49.2</ele>
        <time>2023-02-08T13:09:38Z</time>
      </trkpt>
      <trkpt lat="49.77414" lon="2.1658">
        <ele>49.2</ele>
        <time>2023-02-08T13:09:39Z</time>
      </trkpt>
      <trkpt lat="49.77415" lon="2.1658">
        <ele>49.2</ele>
        <time>2023-02-08T13:09:40Z</time>
      </trkpt>
      <trkpt lat="49.77416" lon="2.1658">
        <ele>49.2</ele>
        <time>2023-02-08T13:09:41Z</time>
      </trkpt>
      <trkpt lat="49.77417" lon="2.16581">
        <ele>49.2</ele>
        <time>2023-02-08T13:09:42Z</time>
      </trkpt>
      <trkpt lat="49.77418" lon="2.16581">
        <ele>49.2</ele>
        <time>2023-02-08T13:09:44Z</time>
      </trkpt>
      <trkpt lat="49.77419" lon="2.16581">
        <ele>49.2</ele>
        <time>2023-02-08T13:09:45Z</time>
      </trkpt>
      <trkpt lat="49.7742" lon="2.16582">
        <ele>49.2</ele>
        <time>2023-02-08T13:09:46Z</time>
      </trkpt>
      <trkpt lat="49.77422" lon="2.16582">
        <ele>49.2</ele>
        <time>2023-02-08T13:09:47Z</time>
      </trkpt>
      <trkpt lat="49.77423" lon="2.16583">
        <ele>49.2</ele>
        <time>2023-02-08T13:09:48Z</time>
      </trkpt>
      <trkpt lat="49.77424" lon="2.16583">
        <ele>49.2</ele>
        <time>2023-02-08T13:09:49Z</time>
      </trkpt>
      <trkpt lat="49.77425" lon="2.16583">
        <ele>49.2</ele>
        <time>2023-02-08T13:09:50Z</time>
      </trkpt>
      <trkpt lat="49.77426" lon="2.16583">
        <ele>49.1</ele>
        <time>2023-02-08T13:09:52Z</time>
      </trkpt>
      <trkpt lat="49.77427" lon="2.16583">
        <ele>49.1</ele>
        <time>2023-02-08T13:09:53Z</time>
      </trkpt>
      <trkpt lat="49.77428" lon="2.16584">
        <ele>49.1</ele>
        <time>2023-02-08T13:09:54Z</time>
      </trkpt>
      <trkpt lat="49.77429" lon="2.16584">
        <ele>49.1</ele>
        <time>2023-02-08T13:09:55Z</time>
      </trkpt>
      <trkpt lat="49.77431" lon="2.16584">
        <ele>49.1</ele>
        <time>2023-02-08T13:09:56Z</time>
      </trkpt>
      <trkpt lat="49.77432" lon="2.16585">
        <ele>49.1</ele>
        <time>2023-02-08T13:09:57Z</time>
      </trkpt>
      <trkpt lat="49.77433" lon="2.16586">
        <ele>49.1</ele>
        <time>2023-02-08T13:09:58Z</time>
      </trkpt>
      <trkpt lat="49.77434" lon="2.16587">
        <ele>49.1</ele>
        <time>2023-02-08T13:09:59Z</time>
      </trkpt>
      <trkpt lat="49.77435" lon="2.16588">
        <ele>49.1</ele>
        <time>2023-02-08T13:10:01Z</time>
      </trkpt>
      <trkpt lat="49.77436" lon="2.16589">
        <ele>49.1</ele>
        <time>2023-02-08T13:10:02Z</time>
      </trkpt>
      <trkpt lat="49.77437" lon="2.1659">
        <ele>49.1</ele>
        <time>2023-02-08T13:10:03Z</time>
      </trkpt>
      <trkpt lat="49.77438" lon="2.1659">
        <ele>49.1</ele>
        <time>2023-02-08T13:10:04Z</time>
      </trkpt>
      <trkpt lat="49.7744" lon="2.16591">
        <ele>49</ele>
        <time>2023-02-08T13:10:05Z</time>
      </trkpt>
      <trkpt lat="49.77441" lon="2.16591">
        <ele>49</ele>
        <time>2023-02-08T13:10:06Z</time>
      </trkpt>
      <trkpt lat="49.77442" lon="2.16592">
        <ele>49</ele>
        <time>2023-02-08T13:10:07Z</time>
      </trkpt>
      <trkpt lat="49.77443" lon="2.16592">
        <ele>49</ele>
        <time>2023-02-08T13:10:08Z</time>
      </trkpt>
      <trkpt lat="49.77444" lon="2.16592">
        <ele>49</ele>
        <time>2023-02-08T13:10:10Z</time>
      </trkpt>
      <trkpt lat="49.77445" lon="2.16592">
        <ele>49</ele>
        <time>2023-02-08T13:10:11Z</time>
      </trkpt>
      <trkpt lat="49.77446" lon="2.16592">
        <ele>49</ele>
        <time>2023-02-08T13:10:12Z</time>
      </trkpt>
      <trkpt lat="49.77447" lon="2.16593">
        <ele>49</ele>
        <time>2023-02-08T13:10:13Z</time>
      </trkpt>
      <trkpt lat="49.77448" lon="2.16593">
        <ele>49</ele>
        <time>2023-02-08T13:10:14Z</time>
      </trkpt>
      <trkpt lat="49.77449" lon="2.16594">
        <ele>49</ele>
        <time>2023-02-08T13:10:15Z</time>
      </trkpt>
      <trkpt lat="49.7745" lon="2.16594">
        <ele>49</ele>
        <time>2023-02-08T13:10:16Z</time>
      </trkpt>
      <trkpt lat="49.77451" lon="2.16593">
        <ele>49</ele>
        <time>2023-02-08T13:10:18Z</time>
      </trkpt>
      <trkpt lat="49.77452" lon="2.16593">
        <ele>49</ele>
        <time>2023-02-08T13:10:19Z</time>
      </trkpt>
      <trkpt lat="49.77453" lon="2.16593">
        <ele>49</ele>
        <time>2023-02-08T13:10:20Z</time>
      </trkpt>
      <trkpt lat="49.77454" lon="2.16593">
        <ele>49</ele>
        <time>2023-02-08T13:10:21Z</time>
      </trkpt>
      <trkpt lat="49.77456" lon="2.16593">
        <ele>49</ele>
        <time>2023-02-08T13:10:22Z</time>
      </trkpt>
      <trkpt lat="49.77457" lon="2.16593">
        <ele>49</ele>
        <time>2023-02-08T13:10:23Z</time>
      </trkpt>
      <trkpt lat="49.77457" lon="2.16593">
        <ele>49</ele>
        <time>2023-02-08T13:10:24Z</time>
      </trkpt>
      <trkpt lat="49.77458" lon="2.16594">
        <ele>49</ele>
        <time>2023-02-08T13:10:25Z</time>
      </trkpt>
      <trkpt lat="49.77459" lon="2.16594">
        <ele>49</ele>
        <time>2023-02-08T13:10:26Z</time>
      </trkpt>
      <trkpt lat="49.7746" lon="2.16594">
        <ele>49</ele>
        <time>2023-02-08T13:10:28Z</time>
      </trkpt>
      <trkpt lat="49.77459" lon="2.16594">
        <ele>49</ele>
        <time>2023-02-08T13:10:29Z</time>
      </trkpt>
      <trkpt lat="49.7746" lon="2.16594">
        <ele>49</ele>
        <time>2023-02-08T13:10:30Z</time>
      </trkpt>
      <trkpt lat="49.77461" lon="2.16593">
        <ele>49</ele>
        <time>2023-02-08T13:10:31Z</time>
      </trkpt>
      <trkpt lat="49.77462" lon="2.16593">
        <ele>49</ele>
        <time>2023-02-08T13:10:32Z</time>
      </trkpt>
      <trkpt lat="49.77462" lon="2.16593">
        <ele>49</ele>
        <time>2023-02-08T13:10:33Z</time>
      </trkpt>
      <trkpt lat="49.77463" lon="2.16592">
        <ele>49</ele>
        <time>2023-02-08T13:10:34Z</time>
      </trkpt>
      <trkpt lat="49.77463" lon="2.16592">
        <ele>49</ele>
        <time>2023-02-08T13:10:36Z</time>
      </trkpt>
      <trkpt lat="49.77464" lon="2.16592">
        <ele>49</ele>
        <time>2023-02-08T13:10:37Z</time>
      </trkpt>
      <trkpt lat="49.77466" lon="2.16592">
        <ele>49</ele>
        <time>2023-02-08T13:10:38Z</time>
      </trkpt>
      <trkpt lat="49.77467" lon="2.16592">
        <ele>49</ele>
        <time>2023-02-08T13:10:39Z</time>
      </trkpt>
      <trkpt lat="49.77468" lon="2.16593">
        <ele>49</ele>
        <time>2023-02-08T13:10:40Z</time>
      </trkpt>
      <trkpt lat="49.7747" lon="2.16594">
        <ele>49</ele>
        <time>2023-02-08T13:10:42Z</time>
      </trkpt>
      <trkpt lat="49.77473" lon="2.16595">
        <ele>49</ele>
        <time>2023-02-08T13:10:43Z</time>
      </trkpt>
      <trkpt lat="49.77474" lon="2.16596">
        <ele>49</ele>
        <time>2023-02-08T13:10:44Z</time>
      </trkpt>
      <trkpt lat="49.77477" lon="2.16597">
        <ele>49</ele>
        <time>2023-02-08T13:10:45Z</time>
      </trkpt>
      <trkpt lat="49.7748" lon="2.16598">
        <ele>49</ele>
        <time>2023-02-08T13:10:46Z</time>
      </trkpt>
      <trkpt lat="49.77481" lon="2.16599">
        <ele>49</ele>
        <time>2023-02-08T13:10:47Z</time>
      </trkpt>
      <trkpt lat="49.77484" lon="2.16599">
        <ele>49</ele>
        <time>2023-02-08T13:10:48Z</time>
      </trkpt>
      <trkpt lat="49.77484" lon="2.16599">
        <ele>49</ele>
        <time>2023-02-08T13:10:49Z</time>
      </trkpt>
      <trkpt lat="49.77485" lon="2.16599">
        <ele>49</ele>
        <time>2023-02-08T13:10:50Z</time>
      </trkpt>
      <trkpt lat="49.77488" lon="2.16599">
        <ele>49</ele>
        <time>2023-02-08T13:10:51Z</time>
      </trkpt>
      <trkpt lat="49.77489" lon="2.166">
        <ele>49</ele>
        <time>2023-02-08T13:10:53Z</time>
      </trkpt>
      <trkpt lat="49.7749" lon="2.166">
        <ele>49</ele>
        <time>2023-02-08T13:10:54Z</time>
      </trkpt>
      <trkpt lat="49.77491" lon="2.16601">
        <ele>49</ele>
        <time>2023-02-08T13:10:55Z</time>
      </trkpt>
      <trkpt lat="49.77493" lon="2.16601">
        <ele>49</ele>
        <time>2023-02-08T13:10:56Z</time>
      </trkpt>
      <trkpt lat="49.77495" lon="2.16602">
        <ele>49</ele>
        <time>2023-02-08T13:10:57Z</time>
      </trkpt>
      <trkpt lat="49.77496" lon="2.16602">
        <ele>48.9</ele>
        <time>2023-02-08T13:10:58Z</time>
      </trkpt>
      <trkpt lat="49.77497" lon="2.16602">
        <ele>48.9</ele>
        <time>2023-02-08T13:10:59Z</time>
      </trkpt>
      <trkpt lat="49.77498" lon="2.16603">
        <ele>48.9</ele>
        <time>2023-02-08T13:11:00Z</time>
      </trkpt>
      <trkpt lat="49.77499" lon="2.16604">
        <ele>48.9</ele>
        <time>2023-02-08T13:11:02Z</time>
      </trkpt>
      <trkpt lat="49.77501" lon="2.16605">
        <ele>48.9</ele>
        <time>2023-02-08T13:11:03Z</time>
      </trkpt>
      <trkpt lat="49.77502" lon="2.16605">
        <ele>48.9</ele>
        <time>2023-02-08T13:11:04Z</time>
      </trkpt>
      <trkpt lat="49.77503" lon="2.16606">
        <ele>48.9</ele>
        <time>2023-02-08T13:11:05Z</time>
      </trkpt>
      <trkpt lat="49.77504" lon="2.16606">
        <ele>48.9</ele>
        <time>2023-02-08T13:11:06Z</time>
      </trkpt>
      <trkpt lat="49.77505" lon="2.16607">
        <ele>48.9</ele>
        <time>2023-02-08T13:11:07Z</time>
      </trkpt>
      <trkpt lat="49.77508" lon="2.16608">
        <ele>48.9</ele>
        <time>2023-02-08T13:11:08Z</time>
      </trkpt>
      <trkpt lat="49.77509" lon="2.16608">
        <ele>48.9</ele>
        <time>2023-02-08T13:11:09Z</time>
      </trkpt>
      <trkpt lat="49.7751" lon="2.16609">
        <ele>48.9</ele>
        <time>2023-02-08T13:11:10Z</time>
      </trkpt>
      <trkpt lat="49.77513" lon="2.1661">
        <ele>48.9</ele>
        <time>2023-02-08T13:11:11Z</time>
      </trkpt>
      <trkpt lat="49.77514" lon="2.1661">
        <ele>48.9</ele>
        <time>2023-02-08T13:11:12Z</time>
      </trkpt>
      <trkpt lat="49.77515" lon="2.16611">
        <ele>48.9</ele>
        <time>2023-02-08T13:11:13Z</time>
      </trkpt>
      <trkpt lat="49.77517" lon="2.16611">
        <ele>48.9</ele>
        <time>2023-02-08T13:11:14Z</time>
      </trkpt>
      <trkpt lat="49.77518" lon="2.16612">
        <ele>48.9</ele>
        <time>2023-02-08T13:11:16Z</time>
      </trkpt>
      <trkpt lat="49.77521" lon="2.16613">
        <ele>48.9</ele>
        <time>2023-02-08T13:11:17Z</time>
      </trkpt>
      <trkpt lat="49.77522" lon="2.16613">
        <ele>48.9</ele>
        <time>2023-02-08T13:11:18Z</time>
      </trkpt>
      <trkpt lat="49.77523" lon="2.16614">
        <ele>48.9</ele>
        <time>2023-02-08T13:11:19Z</time>
      </trkpt>
      <trkpt lat="49.77525" lon="2.16614">
        <ele>48.9</ele>
        <time>2023-02-08T13:11:20Z</time>
      </trkpt>
      <trkpt lat="49.77527" lon="2.16615">
        <ele>48.9</ele>
        <time>2023-02-08T13:11:21Z</time>
      </trkpt>
      <trkpt lat="49.77529" lon="2.16615">
        <ele>48.9</ele>
        <time>2023-02-08T13:11:23Z</time>
      </trkpt>
      <trkpt lat="49.77532" lon="2.16616">
        <ele>48.9</ele>
        <time>2023-02-08T13:11:24Z</time>
      </trkpt>
      <trkpt lat="49.77533" lon="2.16616">
        <ele>48.9</ele>
        <time>2023-02-08T13:11:25Z</time>
      </trkpt>
      <trkpt lat="49.77534" lon="2.16616">
        <ele>48.9</ele>
        <time>2023-02-08T13:11:26Z</time>
      </trkpt>
      <trkpt lat="49.77535" lon="2.16616">
        <ele>48.8</ele>
        <time>2023-02-08T13:11:27Z</time>
      </trkpt>
      <trkpt lat="49.77537" lon="2.16617">
        <ele>48.8</ele>
        <time>2023-02-08T13:11:28Z</time>
      </trkpt>
      <trkpt lat="49.77538" lon="2.16617">
        <ele>48.8</ele>
        <time>2023-02-08T13:11:29Z</time>
      </trkpt>
      <trkpt lat="49.7754" lon="2.16618">
        <ele>48.8</ele>
        <time>2023-02-08T13:11:30Z</time>
      </trkpt>
      <trkpt lat="49.77542" lon="2.16619">
        <ele>48.8</ele>
        <time>2023-02-08T13:11:31Z</time>
      </trkpt>
      <trkpt lat="49.77543" lon="2.1662">
        <ele>48.8</ele>
        <time>2023-02-08T13:11:32Z</time>
      </trkpt>
      <trkpt lat="49.77544" lon="2.1662">
        <ele>48.8</ele>
        <time>2023-02-08T13:11:34Z</time>
      </trkpt>
      <trkpt lat="49.77546" lon="2.16621">
        <ele>48.8</ele>
        <time>2023-02-08T13:11:35Z</time>
      </trkpt>
      <trkpt lat="49.77547" lon="2.16621">
        <ele>48.8</ele>
        <time>2023-02-08T13:11:36Z</time>
      </trkpt>
      <trkpt lat="49.77548" lon="2.16622">
        <ele>48.8</ele>
        <time>2023-02-08T13:11:37Z</time>
      </trkpt>
      <trkpt lat="49.7755" lon="2.16622">
        <ele>48.7</ele>
        <time>2023-02-08T13:11:38Z</time>
      </trkpt>
      <trkpt lat="49.77551" lon="2.16622">
        <ele>48.7</ele>
        <time>2023-02-08T13:11:39Z</time>
      </trkpt>
      <trkpt lat="49.77552" lon="2.16623">
        <ele>48.7</ele>
        <time>2023-02-08T13:11:40Z</time>
      </trkpt>
      <trkpt lat="49.77553" lon="2.16623">
        <ele>48.7</ele>
        <time>2023-02-08T13:11:41Z</time>
      </trkpt>
      <trkpt lat="49.77554" lon="2.16623">
        <ele>48.7</ele>
        <time>2023-02-08T13:11:42Z</time>
      </trkpt>
      <trkpt lat="49.77556" lon="2.16624">
        <ele>48.7</ele>
        <time>2023-02-08T13:11:43Z</time>
      </trkpt>
      <trkpt lat="49.77557" lon="2.16624">
        <ele>48.7</ele>
        <time>2023-02-08T13:11:45Z</time>
      </trkpt>
      <trkpt lat="49.77558" lon="2.16624">
        <ele>48.7</ele>
        <time>2023-02-08T13:11:46Z</time>
      </trkpt>
      <trkpt lat="49.77559" lon="2.16625">
        <ele>48.6</ele>
        <time>2023-02-08T13:11:47Z</time>
      </trkpt>
      <trkpt lat="49.7756" lon="2.16625">
        <ele>48.6</ele>
        <time>2023-02-08T13:11:48Z</time>
      </trkpt>
      <trkpt lat="49.77561" lon="2.16625">
        <ele>48.6</ele>
        <time>2023-02-08T13:11:49Z</time>
      </trkpt>
      <trkpt lat="49.77562" lon="2.16625">
        <ele>48.6</ele>
        <time>2023-02-08T13:11:50Z</time>
      </trkpt>
      <trkpt lat="49.77563" lon="2.16626">
        <ele>48.6</ele>
        <time>2023-02-08T13:11:51Z</time>
      </trkpt>
      <trkpt lat="49.77563" lon="2.16626">
        <ele>48.6</ele>
        <time>2023-02-08T13:11:52Z</time>
      </trkpt>
      <trkpt lat="49.77565" lon="2.16626">
        <ele>48.6</ele>
        <time>2023-02-08T13:11:53Z</time>
      </trkpt>
      <trkpt lat="49.77566" lon="2.16627">
        <ele>48.6</ele>
        <time>2023-02-08T13:11:55Z</time>
      </trkpt>
      <trkpt lat="49.77566" lon="2.16627">
        <ele>48.6</ele>
        <time>2023-02-08T13:11:56Z</time>
      </trkpt>
      <trkpt lat="49.77568" lon="2.16627">
        <ele>48.6</ele>
        <time>2023-02-08T13:11:57Z</time>
      </trkpt>
      <trkpt lat="49.77569" lon="2.16627">
        <ele>48.6</ele>
        <time>2023-02-08T13:11:58Z</time>
      </trkpt>
      <trkpt lat="49.77569" lon="2.16627">
        <ele>48.5</ele>
        <time>2023-02-08T13:12:00Z</time>
      </trkpt>
      <trkpt lat="49.7757" lon="2.16627">
        <ele>48.5</ele>
        <time>2023-02-08T13:12:01Z</time>
      </trkpt>
      <trkpt lat="49.77572" lon="2.16627">
        <ele>48.5</ele>
        <time>2023-02-08T13:12:02Z</time>
      </trkpt>
      <trkpt lat="49.77573" lon="2.16627">
        <ele>48.5</ele>
        <time>2023-02-08T13:12:03Z</time>
      </trkpt>
      <trkpt lat="49.77574" lon="2.16627">
        <ele>48.5</ele>
        <time>2023-02-08T13:12:04Z</time>
      </trkpt>
      <trkpt lat="49.77575" lon="2.16627">
        <ele>48.5</ele>
        <time>2023-02-08T13:12:05Z</time>
      </trkpt>
      <trkpt lat="49.77576" lon="2.16627">
        <ele>48.5</ele>
        <time>2023-02-08T13:12:06Z</time>
      </trkpt>
      <trkpt lat="49.77577" lon="2.16628">
        <ele>48.5</ele>
        <time>2023-02-08T13:12:07Z</time>
      </trkpt>
      <trkpt lat="49.77577" lon="2.16628">
        <ele>48.5</ele>
        <time>2023-02-08T13:12:08Z</time>
      </trkpt>
      <trkpt lat="49.77579" lon="2.16629">
        <ele>48.5</ele>
        <time>2023-02-08T13:12:09Z</time>
      </trkpt>
      <trkpt lat="49.7758" lon="2.16629">
        <ele>48.5</ele>
        <time>2023-02-08T13:12:10Z</time>
      </trkpt>
      <trkpt lat="49.77581" lon="2.1663">
        <ele>48.5</ele>
        <time>2023-02-08T13:12:12Z</time>
      </trkpt>
      <trkpt lat="49.77583" lon="2.1663">
        <ele>48.5</ele>
        <time>2023-02-08T13:12:13Z</time>
      </trkpt>
      <trkpt lat="49.77584" lon="2.1663">
        <ele>48.5</ele>
        <time>2023-02-08T13:12:14Z</time>
      </trkpt>
      <trkpt lat="49.77585" lon="2.16631">
        <ele>48.5</ele>
        <time>2023-02-08T13:12:15Z</time>
      </trkpt>
      <trkpt lat="49.77586" lon="2.16631">
        <ele>48.5</ele>
        <time>2023-02-08T13:12:16Z</time>
      </trkpt>
      <trkpt lat="49.77587" lon="2.16631">
        <ele>48.5</ele>
        <time>2023-02-08T13:12:18Z</time>
      </trkpt>
      <trkpt lat="49.77588" lon="2.16632">
        <ele>48.5</ele>
        <time>2023-02-08T13:12:19Z</time>
      </trkpt>
      <trkpt lat="49.77589" lon="2.16632">
        <ele>48.5</ele>
        <time>2023-02-08T13:12:20Z</time>
      </trkpt>
      <trkpt lat="49.7759" lon="2.16633">
        <ele>48.5</ele>
        <time>2023-02-08T13:12:21Z</time>
      </trkpt>
      <trkpt lat="49.77592" lon="2.16633">
        <ele>48.5</ele>
        <time>2023-02-08T13:12:22Z</time>
      </trkpt>
      <trkpt lat="49.77593" lon="2.16633">
        <ele>48.5</ele>
        <time>2023-02-08T13:12:23Z</time>
      </trkpt>
      <trkpt lat="49.77594" lon="2.16634">
        <ele>48.5</ele>
        <time>2023-02-08T13:12:24Z</time>
      </trkpt>
      <trkpt lat="49.77595" lon="2.16634">
        <ele>48.5</ele>
        <time>2023-02-08T13:12:25Z</time>
      </trkpt>
      <trkpt lat="49.77597" lon="2.16635">
        <ele>48.5</ele>
        <time>2023-02-08T13:12:27Z</time>
      </trkpt>
      <trkpt lat="49.77598" lon="2.16635">
        <ele>48.5</ele>
        <time>2023-02-08T13:12:28Z</time>
      </trkpt>
      <trkpt lat="49.77599" lon="2.16635">
        <ele>48.5</ele>
        <time>2023-02-08T13:12:30Z</time>
      </trkpt>
      <trkpt lat="49.776" lon="2.16636">
        <ele>48.5</ele>
        <time>2023-02-08T13:12:31Z</time>
      </trkpt>
      <trkpt lat="49.77601" lon="2.16636">
        <ele>48.5</ele>
        <time>2023-02-08T13:12:32Z</time>
      </trkpt>
      <trkpt lat="49.77602" lon="2.16636">
        <ele>48.5</ele>
        <time>2023-02-08T13:12:33Z</time>
      </trkpt>
      <trkpt lat="49.77603" lon="2.16637">
        <ele>48.5</ele>
        <time>2023-02-08T13:12:34Z</time>
      </trkpt>
      <trkpt lat="49.77604" lon="2.16637">
        <ele>48.4</ele>
        <time>2023-02-08T13:12:35Z</time>
      </trkpt>
      <trkpt lat="49.77607" lon="2.16638">
        <ele>48.4</ele>
        <time>2023-02-08T13:12:37Z</time>
      </trkpt>
      <trkpt lat="49.77608" lon="2.16639">
        <ele>48.4</ele>
        <time>2023-02-08T13:12:38Z</time>
      </trkpt>
      <trkpt lat="49.77611" lon="2.1664">
        <ele>48.4</ele>
        <time>2023-02-08T13:12:39Z</time>
      </trkpt>
      <trkpt lat="49.77612" lon="2.1664">
        <ele>48.4</ele>
        <time>2023-02-08T13:12:41Z</time>
      </trkpt>
      <trkpt lat="49.77613" lon="2.16641">
        <ele>48.4</ele>
        <time>2023-02-08T13:12:42Z</time>
      </trkpt>
      <trkpt lat="49.77614" lon="2.16641">
        <ele>48.4</ele>
        <time>2023-02-08T13:12:43Z</time>
      </trkpt>
      <trkpt lat="49.77617" lon="2.16642">
        <ele>48.4</ele>
        <time>2023-02-08T13:12:44Z</time>
      </trkpt>
      <trkpt lat="49.77619" lon="2.16642">
        <ele>48.4</ele>
        <time>2023-02-08T13:12:46Z</time>
      </trkpt>
      <trkpt lat="49.7762" lon="2.16643">
        <ele>48.4</ele>
        <time>2023-02-08T13:12:47Z</time>
      </trkpt>
      <trkpt lat="49.77621" lon="2.16643">
        <ele>48.3</ele>
        <time>2023-02-08T13:12:48Z</time>
      </trkpt>
      <trkpt lat="49.77623" lon="2.16644">
        <ele>48.3</ele>
        <time>2023-02-08T13:12:49Z</time>
      </trkpt>
      <trkpt lat="49.77624" lon="2.16644">
        <ele>48.3</ele>
        <time>2023-02-08T13:12:50Z</time>
      </trkpt>
      <trkpt lat="49.77625" lon="2.16644">
        <ele>48.3</ele>
        <time>2023-02-08T13:12:52Z</time>
      </trkpt>
      <trkpt lat="49.77627" lon="2.16645">
        <ele>48.3</ele>
        <time>2023-02-08T13:12:53Z</time>
      </trkpt>
      <trkpt lat="49.77628" lon="2.16645">
        <ele>48.3</ele>
        <time>2023-02-08T13:12:54Z</time>
      </trkpt>
      <trkpt lat="49.7763" lon="2.16646">
        <ele>48.3</ele>
        <time>2023-02-08T13:12:55Z</time>
      </trkpt>
      <trkpt lat="49.77631" lon="2.16647">
        <ele>48.3</ele>
        <time>2023-02-08T13:12:56Z</time>
      </trkpt>
      <trkpt lat="49.77632" lon="2.16647">
        <ele>48.3</ele>
        <time>2023-02-08T13:12:57Z</time>
      </trkpt>
      <trkpt lat="49.77634" lon="2.16648">
        <ele>48.3</ele>
        <time>2023-02-08T13:12:58Z</time>
      </trkpt>
      <trkpt lat="49.77635" lon="2.16648">
        <ele>48.2</ele>
        <time>2023-02-08T13:12:59Z</time>
      </trkpt>
      <trkpt lat="49.77637" lon="2.16649">
        <ele>48.2</ele>
        <time>2023-02-08T13:13:00Z</time>
      </trkpt>
      <trkpt lat="49.77638" lon="2.16649">
        <ele>48.2</ele>
        <time>2023-02-08T13:13:01Z</time>
      </trkpt>
      <trkpt lat="49.77639" lon="2.1665">
        <ele>48.2</ele>
        <time>2023-02-08T13:13:02Z</time>
      </trkpt>
      <trkpt lat="49.7764" lon="2.1665">
        <ele>48.2</ele>
        <time>2023-02-08T13:13:04Z</time>
      </trkpt>
      <trkpt lat="49.77641" lon="2.1665">
        <ele>48.2</ele>
        <time>2023-02-08T13:13:05Z</time>
      </trkpt>
      <trkpt lat="49.77642" lon="2.16651">
        <ele>48.2</ele>
        <time>2023-02-08T13:13:06Z</time>
      </trkpt>
      <trkpt lat="49.77643" lon="2.16652">
        <ele>48.2</ele>
        <time>2023-02-08T13:13:07Z</time>
      </trkpt>
      <trkpt lat="49.77645" lon="2.16652">
        <ele>48.2</ele>
        <time>2023-02-08T13:13:08Z</time>
      </trkpt>
      <trkpt lat="49.77646" lon="2.16653">
        <ele>48.2</ele>
        <time>2023-02-08T13:13:10Z</time>
      </trkpt>
      <trkpt lat="49.77647" lon="2.16653">
        <ele>48.2</ele>
        <time>2023-02-08T13:13:11Z</time>
      </trkpt>
      <trkpt lat="49.77648" lon="2.16654">
        <ele>48.2</ele>
        <time>2023-02-08T13:13:12Z</time>
      </trkpt>
      <trkpt lat="49.7765" lon="2.16655">
        <ele>48.2</ele>
        <time>2023-02-08T13:13:13Z</time>
      </trkpt>
      <trkpt lat="49.7765" lon="2.16656">
        <ele>48.2</ele>
        <time>2023-02-08T13:13:14Z</time>
      </trkpt>
      <trkpt lat="49.77651" lon="2.16656">
        <ele>48.2</ele>
        <time>2023-02-08T13:13:15Z</time>
      </trkpt>
      <trkpt lat="49.77652" lon="2.16657">
        <ele>48.1</ele>
        <time>2023-02-08T13:13:16Z</time>
      </trkpt>
      <trkpt lat="49.77653" lon="2.16657">
        <ele>48.1</ele>
        <time>2023-02-08T13:13:18Z</time>
      </trkpt>
      <trkpt lat="49.77655" lon="2.16658">
        <ele>48.1</ele>
        <time>2023-02-08T13:13:19Z</time>
      </trkpt>
      <trkpt lat="49.77655" lon="2.16659">
        <ele>48.1</ele>
        <time>2023-02-08T13:13:20Z</time>
      </trkpt>
      <trkpt lat="49.77656" lon="2.16659">
        <ele>48.1</ele>
        <time>2023-02-08T13:13:21Z</time>
      </trkpt>
      <trkpt lat="49.77657" lon="2.1666">
        <ele>48.1</ele>
        <time>2023-02-08T13:13:22Z</time>
      </trkpt>
      <trkpt lat="49.77659" lon="2.16661">
        <ele>48.1</ele>
        <time>2023-02-08T13:13:24Z</time>
      </trkpt>
      <trkpt lat="49.7766" lon="2.16662">
        <ele>48.1</ele>
        <time>2023-02-08T13:13:25Z</time>
      </trkpt>
      <trkpt lat="49.77661" lon="2.16664">
        <ele>48.1</ele>
        <time>2023-02-08T13:13:26Z</time>
      </trkpt>
      <trkpt lat="49.77662" lon="2.16665">
        <ele>48.1</ele>
        <time>2023-02-08T13:13:27Z</time>
      </trkpt>
      <trkpt lat="49.77663" lon="2.16665">
        <ele>48.1</ele>
        <time>2023-02-08T13:13:28Z</time>
      </trkpt>
      <trkpt lat="49.77665" lon="2.16666">
        <ele>48.1</ele>
        <time>2023-02-08T13:13:29Z</time>
      </trkpt>
      <trkpt lat="49.77665" lon="2.16667">
        <ele>48.1</ele>
        <time>2023-02-08T13:13:31Z</time>
      </trkpt>
      <trkpt lat="49.77666" lon="2.16667">
        <ele>48.1</ele>
        <time>2023-02-08T13:13:32Z</time>
      </trkpt>
      <trkpt lat="49.77666" lon="2.16667">
        <ele>48.1</ele>
        <time>2023-02-08T13:13:33Z</time>
      </trkpt>
      <trkpt lat="49.77667" lon="2.16668">
        <ele>48.1</ele>
        <time>2023-02-08T13:13:34Z</time>
      </trkpt>
      <trkpt lat="49.77668" lon="2.16668">
        <ele>48.1</ele>
        <time>2023-02-08T13:13:35Z</time>
      </trkpt>
      <trkpt lat="49.77669" lon="2.16668">
        <ele>48.1</ele>
        <time>2023-02-08T13:13:36Z</time>
      </trkpt>
      <trkpt lat="49.7767" lon="2.16669">
        <ele>48.1</ele>
        <time>2023-02-08T13:13:38Z</time>
      </trkpt>
      <trkpt lat="49.77672" lon="2.1667">
        <ele>48</ele>
        <time>2023-02-08T13:13:39Z</time>
      </trkpt>
      <trkpt lat="49.77673" lon="2.1667">
        <ele>48</ele>
        <time>2023-02-08T13:13:40Z</time>
      </trkpt>
      <trkpt lat="49.77674" lon="2.16671">
        <ele>48</ele>
        <time>2023-02-08T13:13:41Z</time>
      </trkpt>
      <trkpt lat="49.77676" lon="2.16671">
        <ele>48</ele>
        <time>2023-02-08T13:13:42Z</time>
      </trkpt>
      <trkpt lat="49.77678" lon="2.16671">
        <ele>48</ele>
        <time>2023-02-08T13:13:43Z</time>
      </trkpt>
      <trkpt lat="49.77679" lon="2.16671">
        <ele>48</ele>
        <time>2023-02-08T13:13:45Z</time>
      </trkpt>
      <trkpt lat="49.7768" lon="2.16672">
        <ele>48</ele>
        <time>2023-02-08T13:13:46Z</time>
      </trkpt>
      <trkpt lat="49.77682" lon="2.16672">
        <ele>48</ele>
        <time>2023-02-08T13:13:47Z</time>
      </trkpt>
      <trkpt lat="49.77684" lon="2.16673">
        <ele>48</ele>
        <time>2023-02-08T13:13:48Z</time>
      </trkpt>
      <trkpt lat="49.77685" lon="2.16673">
        <ele>48</ele>
        <time>2023-02-08T13:13:49Z</time>
      </trkpt>
      <trkpt lat="49.77686" lon="2.16674">
        <ele>48</ele>
        <time>2023-02-08T13:13:50Z</time>
      </trkpt>
      <trkpt lat="49.77687" lon="2.16674">
        <ele>48</ele>
        <time>2023-02-08T13:13:52Z</time>
      </trkpt>
      <trkpt lat="49.77688" lon="2.16674">
        <ele>48</ele>
        <time>2023-02-08T13:13:53Z</time>
      </trkpt>
      <trkpt lat="49.77689" lon="2.16674">
        <ele>48</ele>
        <time>2023-02-08T13:13:54Z</time>
      </trkpt>
      <trkpt lat="49.7769" lon="2.16674">
        <ele>48</ele>
        <time>2023-02-08T13:13:55Z</time>
      </trkpt>
      <trkpt lat="49.77691" lon="2.16674">
        <ele>48</ele>
        <time>2023-02-08T13:13:56Z</time>
      </trkpt>
      <trkpt lat="49.77692" lon="2.16675">
        <ele>48</ele>
        <time>2023-02-08T13:13:57Z</time>
      </trkpt>
      <trkpt lat="49.77693" lon="2.16676">
        <ele>48</ele>
        <time>2023-02-08T13:13:58Z</time>
      </trkpt>
      <trkpt lat="49.77694" lon="2.16676">
        <ele>48</ele>
        <time>2023-02-08T13:13:59Z</time>
      </trkpt>
      <trkpt lat="49.77695" lon="2.16677">
        <ele>48</ele>
        <time>2023-02-08T13:14:00Z</time>
      </trkpt>
      <trkpt lat="49.77697" lon="2.16677">
        <ele>48</ele>
        <time>2023-02-08T13:14:01Z</time>
      </trkpt>
      <trkpt lat="49.77698" lon="2.16678">
        <ele>48</ele>
        <time>2023-02-08T13:14:03Z</time>
      </trkpt>
      <trkpt lat="49.777" lon="2.16679">
        <ele>48</ele>
        <time>2023-02-08T13:14:04Z</time>
      </trkpt>
      <trkpt lat="49.777" lon="2.16679">
        <ele>48</ele>
        <time>2023-02-08T13:14:05Z</time>
      </trkpt>
      <trkpt lat="49.77701" lon="2.1668">
        <ele>48</ele>
        <time>2023-02-08T13:14:06Z</time>
      </trkpt>
      <trkpt lat="49.77702" lon="2.1668">
        <ele>48</ele>
        <time>2023-02-08T13:14:07Z</time>
      </trkpt>
      <trkpt lat="49.77704" lon="2.16683">
        <ele>48</ele>
        <time>2023-02-08T13:14:08Z</time>
      </trkpt>
      <trkpt lat="49.77704" lon="2.16683">
        <ele>48</ele>
        <time>2023-02-08T13:14:09Z</time>
      </trkpt>
      <trkpt lat="49.77705" lon="2.16684">
        <ele>48</ele>
        <time>2023-02-08T13:14:10Z</time>
      </trkpt>
      <trkpt lat="49.77707" lon="2.16685">
        <ele>48</ele>
        <time>2023-02-08T13:14:11Z</time>
      </trkpt>
      <trkpt lat="49.77709" lon="2.16687">
        <ele>48</ele>
        <time>2023-02-08T13:14:12Z</time>
      </trkpt>
      <trkpt lat="49.7771" lon="2.16688">
        <ele>47.9</ele>
        <time>2023-02-08T13:14:14Z</time>
      </trkpt>
      <trkpt lat="49.77711" lon="2.16688">
        <ele>47.9</ele>
        <time>2023-02-08T13:14:15Z</time>
      </trkpt>
      <trkpt lat="49.77712" lon="2.16689">
        <ele>47.9</ele>
        <time>2023-02-08T13:14:16Z</time>
      </trkpt>
      <trkpt lat="49.77713" lon="2.1669">
        <ele>47.9</ele>
        <time>2023-02-08T13:14:17Z</time>
      </trkpt>
      <trkpt lat="49.77715" lon="2.16692">
        <ele>47.9</ele>
        <time>2023-02-08T13:14:18Z</time>
      </trkpt>
      <trkpt lat="49.77715" lon="2.16692">
        <ele>47.9</ele>
        <time>2023-02-08T13:14:19Z</time>
      </trkpt>
      <trkpt lat="49.77717" lon="2.16693">
        <ele>47.9</ele>
        <time>2023-02-08T13:14:20Z</time>
      </trkpt>
      <trkpt lat="49.77718" lon="2.16693">
        <ele>47.9</ele>
        <time>2023-02-08T13:14:21Z</time>
      </trkpt>
      <trkpt lat="49.77719" lon="2.16694">
        <ele>47.9</ele>
        <time>2023-02-08T13:14:22Z</time>
      </trkpt>
      <trkpt lat="49.77721" lon="2.16696">
        <ele>47.9</ele>
        <time>2023-02-08T13:14:24Z</time>
      </trkpt>
      <trkpt lat="49.77722" lon="2.16697">
        <ele>47.9</ele>
        <time>2023-02-08T13:14:25Z</time>
      </trkpt>
      <trkpt lat="49.77723" lon="2.16698">
        <ele>47.9</ele>
        <time>2023-02-08T13:14:26Z</time>
      </trkpt>
      <trkpt lat="49.77724" lon="2.167">
        <ele>47.9</ele>
        <time>2023-02-08T13:14:27Z</time>
      </trkpt>
      <trkpt lat="49.77725" lon="2.16701">
        <ele>47.9</ele>
        <time>2023-02-08T13:14:28Z</time>
      </trkpt>
      <trkpt lat="49.77726" lon="2.16703">
        <ele>47.8</ele>
        <time>2023-02-08T13:14:29Z</time>
      </trkpt>
      <trkpt lat="49.77728" lon="2.16705">
        <ele>47.8</ele>
        <time>2023-02-08T13:14:30Z</time>
      </trkpt>
      <trkpt lat="49.77729" lon="2.16706">
        <ele>47.8</ele>
        <time>2023-02-08T13:14:31Z</time>
      </trkpt>
      <trkpt lat="49.77729" lon="2.16707">
        <ele>47.8</ele>
        <time>2023-02-08T13:14:32Z</time>
      </trkpt>
      <trkpt lat="49.77731" lon="2.16709">
        <ele>47.8</ele>
        <time>2023-02-08T13:14:34Z</time>
      </trkpt>
      <trkpt lat="49.77732" lon="2.1671">
        <ele>47.8</ele>
        <time>2023-02-08T13:14:35Z</time>
      </trkpt>
      <trkpt lat="49.77733" lon="2.16711">
        <ele>47.8</ele>
        <time>2023-02-08T13:14:36Z</time>
      </trkpt>
      <trkpt lat="49.77735" lon="2.16712">
        <ele>47.8</ele>
        <time>2023-02-08T13:14:37Z</time>
      </trkpt>
      <trkpt lat="49.77736" lon="2.16715">
        <ele>47.9</ele>
        <time>2023-02-08T13:14:38Z</time>
      </trkpt>
      <trkpt lat="49.77737" lon="2.16715">
        <ele>47.9</ele>
        <time>2023-02-08T13:14:39Z</time>
      </trkpt>
      <trkpt lat="49.77737" lon="2.16716">
        <ele>47.9</ele>
        <time>2023-02-08T13:14:41Z</time>
      </trkpt>
      <trkpt lat="49.77738" lon="2.16717">
        <ele>47.9</ele>
        <time>2023-02-08T13:14:42Z</time>
      </trkpt>
      <trkpt lat="49.77739" lon="2.16718">
        <ele>47.9</ele>
        <time>2023-02-08T13:14:43Z</time>
      </trkpt>
      <trkpt lat="49.77741" lon="2.16719">
        <ele>47.9</ele>
        <time>2023-02-08T13:14:44Z</time>
      </trkpt>
      <trkpt lat="49.77742" lon="2.1672">
        <ele>47.9</ele>
        <time>2023-02-08T13:14:45Z</time>
      </trkpt>
      <trkpt lat="49.77743" lon="2.16721">
        <ele>47.9</ele>
        <time>2023-02-08T13:14:46Z</time>
      </trkpt>
      <trkpt lat="49.77745" lon="2.16721">
        <ele>47.9</ele>
        <time>2023-02-08T13:14:47Z</time>
      </trkpt>
      <trkpt lat="49.77746" lon="2.16722">
        <ele>47.9</ele>
        <time>2023-02-08T13:14:48Z</time>
      </trkpt>
      <trkpt lat="49.77748" lon="2.16723">
        <ele>47.9</ele>
        <time>2023-02-08T13:14:49Z</time>
      </trkpt>
      <trkpt lat="49.77749" lon="2.16724">
        <ele>47.9</ele>
        <time>2023-02-08T13:14:50Z</time>
      </trkpt>
      <trkpt lat="49.7775" lon="2.16725">
        <ele>47.9</ele>
        <time>2023-02-08T13:14:51Z</time>
      </trkpt>
      <trkpt lat="49.77752" lon="2.16725">
        <ele>47.9</ele>
        <time>2023-02-08T13:14:53Z</time>
      </trkpt>
      <trkpt lat="49.77754" lon="2.16727">
        <ele>47.9</ele>
        <time>2023-02-08T13:14:54Z</time>
      </trkpt>
      <trkpt lat="49.77755" lon="2.16727">
        <ele>48</ele>
        <time>2023-02-08T13:14:55Z</time>
      </trkpt>
      <trkpt lat="49.77756" lon="2.16728">
        <ele>48</ele>
        <time>2023-02-08T13:14:56Z</time>
      </trkpt>
      <trkpt lat="49.77758" lon="2.1673">
        <ele>48</ele>
        <time>2023-02-08T13:14:57Z</time>
      </trkpt>
      <trkpt lat="49.77759" lon="2.16732">
        <ele>48</ele>
        <time>2023-02-08T13:14:58Z</time>
      </trkpt>
      <trkpt lat="49.7776" lon="2.16734">
        <ele>48</ele>
        <time>2023-02-08T13:14:59Z</time>
      </trkpt>
      <trkpt lat="49.77762" lon="2.16735">
        <ele>48</ele>
        <time>2023-02-08T13:15:00Z</time>
      </trkpt>
      <trkpt lat="49.77763" lon="2.16736">
        <ele>48</ele>
        <time>2023-02-08T13:15:02Z</time>
      </trkpt>
      <trkpt lat="49.77764" lon="2.16736">
        <ele>48</ele>
        <time>2023-02-08T13:15:03Z</time>
      </trkpt>
      <trkpt lat="49.77765" lon="2.16739">
        <ele>48</ele>
        <time>2023-02-08T13:15:04Z</time>
      </trkpt>
      <trkpt lat="49.77767" lon="2.1674">
        <ele>48.1</ele>
        <time>2023-02-08T13:15:06Z</time>
      </trkpt>
      <trkpt lat="49.77769" lon="2.16742">
        <ele>48.1</ele>
        <time>2023-02-08T13:15:07Z</time>
      </trkpt>
      <trkpt lat="49.77769" lon="2.16743">
        <ele>48.1</ele>
        <time>2023-02-08T13:15:08Z</time>
      </trkpt>
      <trkpt lat="49.7777" lon="2.16743">
        <ele>48.1</ele>
        <time>2023-02-08T13:15:09Z</time>
      </trkpt>
      <trkpt lat="49.77772" lon="2.16744">
        <ele>48.1</ele>
        <time>2023-02-08T13:15:10Z</time>
      </trkpt>
      <trkpt lat="49.77773" lon="2.16746">
        <ele>48.1</ele>
        <time>2023-02-08T13:15:11Z</time>
      </trkpt>
      <trkpt lat="49.77773" lon="2.16747">
        <ele>48.1</ele>
        <time>2023-02-08T13:15:12Z</time>
      </trkpt>
      <trkpt lat="49.77774" lon="2.16748">
        <ele>48.1</ele>
        <time>2023-02-08T13:15:13Z</time>
      </trkpt>
      <trkpt lat="49.77775" lon="2.1675">
        <ele>48.1</ele>
        <time>2023-02-08T13:15:15Z</time>
      </trkpt>
      <trkpt lat="49.77775" lon="2.16751">
        <ele>48.2</ele>
        <time>2023-02-08T13:15:16Z</time>
      </trkpt>
      <trkpt lat="49.77776" lon="2.16753">
        <ele>48.2</ele>
        <time>2023-02-08T13:15:17Z</time>
      </trkpt>
      <trkpt lat="49.77777" lon="2.16754">
        <ele>48.2</ele>
        <time>2023-02-08T13:15:18Z</time>
      </trkpt>
      <trkpt lat="49.77778" lon="2.16755">
        <ele>48.2</ele>
        <time>2023-02-08T13:15:20Z</time>
      </trkpt>
      <trkpt lat="49.77779" lon="2.16755">
        <ele>48.2</ele>
        <time>2023-02-08T13:15:21Z</time>
      </trkpt>
      <trkpt lat="49.77779" lon="2.16756">
        <ele>48.2</ele>
        <time>2023-02-08T13:15:22Z</time>
      </trkpt>
      <trkpt lat="49.77779" lon="2.16757">
        <ele>48.2</ele>
        <time>2023-02-08T13:15:23Z</time>
      </trkpt>
      <trkpt lat="49.77779" lon="2.16759">
        <ele>48.2</ele>
        <time>2023-02-08T13:15:24Z</time>
      </trkpt>
      <trkpt lat="49.7778" lon="2.1676">
        <ele>48.2</ele>
        <time>2023-02-08T13:15:26Z</time>
      </trkpt>
      <trkpt lat="49.7778" lon="2.1676">
        <ele>48.2</ele>
        <time>2023-02-08T13:15:27Z</time>
      </trkpt>
      <trkpt lat="49.77781" lon="2.16759">
        <ele>48.2</ele>
        <time>2023-02-08T13:15:28Z</time>
      </trkpt>
      <trkpt lat="49.7778" lon="2.16757">
        <ele>48.2</ele>
        <time>2023-02-08T13:15:29Z</time>
      </trkpt>
      <trkpt lat="49.7778" lon="2.16756">
        <ele>48.2</ele>
        <time>2023-02-08T13:15:30Z</time>
      </trkpt>
      <trkpt lat="49.77781" lon="2.16755">
        <ele>48.2</ele>
        <time>2023-02-08T13:15:32Z</time>
      </trkpt>
      <trkpt lat="49.77782" lon="2.16754">
        <ele>48.2</ele>
        <time>2023-02-08T13:15:33Z</time>
      </trkpt>
      <trkpt lat="49.77783" lon="2.16753">
        <ele>48.2</ele>
        <time>2023-02-08T13:15:35Z</time>
      </trkpt>
      <trkpt lat="49.77784" lon="2.16752">
        <ele>48.2</ele>
        <time>2023-02-08T13:15:36Z</time>
      </trkpt>
      <trkpt lat="49.77784" lon="2.16751">
        <ele>48.2</ele>
        <time>2023-02-08T13:15:37Z</time>
      </trkpt>
      <trkpt lat="49.77783" lon="2.1675">
        <ele>48.2</ele>
        <time>2023-02-08T13:15:38Z</time>
      </trkpt>
      <trkpt lat="49.77784" lon="2.16749">
        <ele>48.2</ele>
        <time>2023-02-08T13:15:40Z</time>
      </trkpt>
      <trkpt lat="49.77783" lon="2.16749">
        <ele>48.2</ele>
        <time>2023-02-08T13:15:41Z</time>
      </trkpt>
      <trkpt lat="49.77783" lon="2.16749">
        <ele>48.2</ele>
        <time>2023-02-08T13:15:43Z</time>
      </trkpt>
      <trkpt lat="49.77783" lon="2.16749">
        <ele>48.2</ele>
        <time>2023-02-08T13:15:44Z</time>
      </trkpt>
      <trkpt lat="49.77783" lon="2.16749">
        <ele>48.2</ele>
        <time>2023-02-08T13:15:46Z</time>
      </trkpt>
      <trkpt lat="49.77784" lon="2.16749">
        <ele>48.2</ele>
        <time>2023-02-08T13:15:47Z</time>
      </trkpt>
      <trkpt lat="49.77784" lon="2.16749">
        <ele>48.2</ele>
        <time>2023-02-08T13:15:48Z</time>
      </trkpt>
      <trkpt lat="49.77785" lon="2.1675">
        <ele>48.2</ele>
        <time>2023-02-08T13:15:49Z</time>
      </trkpt>
      <trkpt lat="49.77786" lon="2.1675">
        <ele>48.2</ele>
        <time>2023-02-08T13:15:50Z</time>
      </trkpt>
      <trkpt lat="49.77787" lon="2.1675">
        <ele>48.1</ele>
        <time>2023-02-08T13:15:51Z</time>
      </trkpt>
      <trkpt lat="49.77787" lon="2.1675">
        <ele>48.1</ele>
        <time>2023-02-08T13:15:52Z</time>
      </trkpt>
      <trkpt lat="49.77788" lon="2.16749">
        <ele>48.1</ele>
        <time>2023-02-08T13:15:54Z</time>
      </trkpt>
      <trkpt lat="49.77789" lon="2.16749">
        <ele>48.1</ele>
        <time>2023-02-08T13:15:55Z</time>
      </trkpt>
      <trkpt lat="49.77789" lon="2.16749">
        <ele>48.1</ele>
        <time>2023-02-08T13:15:56Z</time>
      </trkpt>
      <trkpt lat="49.7779" lon="2.16748">
        <ele>48.1</ele>
        <time>2023-02-08T13:15:57Z</time>
      </trkpt>
      <trkpt lat="49.77791" lon="2.16747">
        <ele>48.1</ele>
        <time>2023-02-08T13:15:58Z</time>
      </trkpt>
      <trkpt lat="49.77792" lon="2.16746">
        <ele>48.1</ele>
        <time>2023-02-08T13:15:59Z</time>
      </trkpt>
      <trkpt lat="49.77793" lon="2.16745">
        <ele>48.1</ele>
        <time>2023-02-08T13:16:01Z</time>
      </trkpt>
      <trkpt lat="49.77794" lon="2.16745">
        <ele>48.1</ele>
        <time>2023-02-08T13:16:02Z</time>
      </trkpt>
      <trkpt lat="49.77795" lon="2.16744">
        <ele>48.1</ele>
        <time>2023-02-08T13:16:03Z</time>
      </trkpt>
      <trkpt lat="49.77797" lon="2.16742">
        <ele>48.1</ele>
        <time>2023-02-08T13:16:04Z</time>
      </trkpt>
      <trkpt lat="49.77798" lon="2.16742">
        <ele>48.1</ele>
        <time>2023-02-08T13:16:05Z</time>
      </trkpt>
      <trkpt lat="49.778" lon="2.16741">
        <ele>48.1</ele>
        <time>2023-02-08T13:16:06Z</time>
      </trkpt>
      <trkpt lat="49.778" lon="2.1674">
        <ele>48.1</ele>
        <time>2023-02-08T13:16:07Z</time>
      </trkpt>
      <trkpt lat="49.77801" lon="2.1674">
        <ele>48.1</ele>
        <time>2023-02-08T13:16:08Z</time>
      </trkpt>
      <trkpt lat="49.77803" lon="2.16738">
        <ele>48.1</ele>
        <time>2023-02-08T13:16:09Z</time>
      </trkpt>
      <trkpt lat="49.77804" lon="2.16737">
        <ele>48.1</ele>
        <time>2023-02-08T13:16:11Z</time>
      </trkpt>
      <trkpt lat="49.77804" lon="2.16737">
        <ele>48.1</ele>
        <time>2023-02-08T13:16:12Z</time>
      </trkpt>
      <trkpt lat="49.77807" lon="2.16734">
        <ele>48.1</ele>
        <time>2023-02-08T13:16:13Z</time>
      </trkpt>
      <trkpt lat="49.77808" lon="2.16732">
        <ele>48.1</ele>
        <time>2023-02-08T13:16:14Z</time>
      </trkpt>
      <trkpt lat="49.77808" lon="2.16732">
        <ele>48.1</ele>
        <time>2023-02-08T13:16:15Z</time>
      </trkpt>
      <trkpt lat="49.77809" lon="2.1673">
        <ele>48.1</ele>
        <time>2023-02-08T13:16:17Z</time>
      </trkpt>
      <trkpt lat="49.7781" lon="2.16729">
        <ele>48.2</ele>
        <time>2023-02-08T13:16:18Z</time>
      </trkpt>
      <trkpt lat="49.77811" lon="2.16728">
        <ele>48.2</ele>
        <time>2023-02-08T13:16:19Z</time>
      </trkpt>
      <trkpt lat="49.77813" lon="2.16726">
        <ele>48.2</ele>
        <time>2023-02-08T13:16:20Z</time>
      </trkpt>
      <trkpt lat="49.77814" lon="2.16724">
        <ele>48.2</ele>
        <time>2023-02-08T13:16:21Z</time>
      </trkpt>
      <trkpt lat="49.77815" lon="2.16723">
        <ele>48.2</ele>
        <time>2023-02-08T13:16:22Z</time>
      </trkpt>
      <trkpt lat="49.77816" lon="2.16722">
        <ele>48.2</ele>
        <time>2023-02-08T13:16:23Z</time>
      </trkpt>
      <trkpt lat="49.77818" lon="2.16721">
        <ele>48.2</ele>
        <time>2023-02-08T13:16:24Z</time>
      </trkpt>
      <trkpt lat="49.77818" lon="2.1672">
        <ele>48.2</ele>
        <time>2023-02-08T13:16:26Z</time>
      </trkpt>
      <trkpt lat="49.77819" lon="2.16719">
        <ele>48.2</ele>
        <time>2023-02-08T13:16:27Z</time>
      </trkpt>
      <trkpt lat="49.77821" lon="2.16718">
        <ele>48.2</ele>
        <time>2023-02-08T13:16:28Z</time>
      </trkpt>
      <trkpt lat="49.77822" lon="2.16717">
        <ele>48.2</ele>
        <time>2023-02-08T13:16:29Z</time>
      </trkpt>
      <trkpt lat="49.77823" lon="2.16716">
        <ele>48.2</ele>
        <time>2023-02-08T13:16:30Z</time>
      </trkpt>
      <trkpt lat="49.77824" lon="2.16715">
        <ele>48.2</ele>
        <time>2023-02-08T13:16:32Z</time>
      </trkpt>
      <trkpt lat="49.77825" lon="2.16714">
        <ele>48.2</ele>
        <time>2023-02-08T13:16:33Z</time>
      </trkpt>
      <trkpt lat="49.77827" lon="2.16711">
        <ele>48.2</ele>
        <time>2023-02-08T13:16:34Z</time>
      </trkpt>
      <trkpt lat="49.77828" lon="2.1671">
        <ele>48.2</ele>
        <time>2023-02-08T13:16:35Z</time>
      </trkpt>
      <trkpt lat="49.77829" lon="2.16709">
        <ele>48.2</ele>
        <time>2023-02-08T13:16:36Z</time>
      </trkpt>
      <trkpt lat="49.7783" lon="2.16708">
        <ele>48.3</ele>
        <time>2023-02-08T13:16:37Z</time>
      </trkpt>
      <trkpt lat="49.77831" lon="2.16707">
        <ele>48.3</ele>
        <time>2023-02-08T13:16:38Z</time>
      </trkpt>
      <trkpt lat="49.77833" lon="2.16706">
        <ele>48.3</ele>
        <time>2023-02-08T13:16:39Z</time>
      </trkpt>
      <trkpt lat="49.77833" lon="2.16706">
        <ele>48.3</ele>
        <time>2023-02-08T13:16:40Z</time>
      </trkpt>
      <trkpt lat="49.77834" lon="2.16705">
        <ele>48.3</ele>
        <time>2023-02-08T13:16:42Z</time>
      </trkpt>
      <trkpt lat="49.77835" lon="2.16704">
        <ele>48.3</ele>
        <time>2023-02-08T13:16:43Z</time>
      </trkpt>
      <trkpt lat="49.77836" lon="2.16704">
        <ele>48.3</ele>
        <time>2023-02-08T13:16:44Z</time>
      </trkpt>
      <trkpt lat="49.77837" lon="2.16703">
        <ele>48.3</ele>
        <time>2023-02-08T13:16:45Z</time>
      </trkpt>
      <trkpt lat="49.77838" lon="2.16702">
        <ele>48.4</ele>
        <time>2023-02-08T13:16:46Z</time>
      </trkpt>
      <trkpt lat="49.77839" lon="2.16701">
        <ele>48.4</ele>
        <time>2023-02-08T13:16:47Z</time>
      </trkpt>
      <trkpt lat="49.7784" lon="2.167">
        <ele>48.4</ele>
        <time>2023-02-08T13:16:48Z</time>
      </trkpt>
      <trkpt lat="49.77842" lon="2.16698">
        <ele>48.4</ele>
        <time>2023-02-08T13:16:50Z</time>
      </trkpt>
      <trkpt lat="49.77843" lon="2.16698">
        <ele>48.4</ele>
        <time>2023-02-08T13:16:51Z</time>
      </trkpt>
      <trkpt lat="49.77844" lon="2.16697">
        <ele>48.5</ele>
        <time>2023-02-08T13:16:52Z</time>
      </trkpt>
      <trkpt lat="49.77846" lon="2.16696">
        <ele>48.5</ele>
        <time>2023-02-08T13:16:53Z</time>
      </trkpt>
      <trkpt lat="49.77848" lon="2.16695">
        <ele>48.5</ele>
        <time>2023-02-08T13:16:55Z</time>
      </trkpt>
      <trkpt lat="49.77849" lon="2.16694">
        <ele>48.5</ele>
        <time>2023-02-08T13:16:56Z</time>
      </trkpt>
      <trkpt lat="49.7785" lon="2.16693">
        <ele>48.6</ele>
        <time>2023-02-08T13:16:57Z</time>
      </trkpt>
      <trkpt lat="49.77852" lon="2.16692">
        <ele>48.6</ele>
        <time>2023-02-08T13:16:58Z</time>
      </trkpt>
      <trkpt lat="49.77853" lon="2.1669">
        <ele>48.6</ele>
        <time>2023-02-08T13:16:59Z</time>
      </trkpt>
      <trkpt lat="49.77855" lon="2.16689">
        <ele>48.6</ele>
        <time>2023-02-08T13:17:00Z</time>
      </trkpt>
      <trkpt lat="49.77856" lon="2.16688">
        <ele>48.7</ele>
        <time>2023-02-08T13:17:01Z</time>
      </trkpt>
      <trkpt lat="49.77857" lon="2.16687">
        <ele>48.7</ele>
        <time>2023-02-08T13:17:02Z</time>
      </trkpt>
      <trkpt lat="49.77858" lon="2.16686">
        <ele>48.7</ele>
        <time>2023-02-08T13:17:03Z</time>
      </trkpt>
      <trkpt lat="49.7786" lon="2.16682">
        <ele>48.7</ele>
        <time>2023-02-08T13:17:04Z</time>
      </trkpt>
      <trkpt lat="49.7786" lon="2.16681">
        <ele>48.7</ele>
        <time>2023-02-08T13:17:05Z</time>
      </trkpt>
      <trkpt lat="49.77861" lon="2.16681">
        <ele>48.7</ele>
        <time>2023-02-08T13:17:07Z</time>
      </trkpt>
      <trkpt lat="49.77862" lon="2.1668">
        <ele>48.7</ele>
        <time>2023-02-08T13:17:08Z</time>
      </trkpt>
      <trkpt lat="49.77862" lon="2.16679">
        <ele>48.7</ele>
        <time>2023-02-08T13:17:09Z</time>
      </trkpt>
      <trkpt lat="49.77863" lon="2.16678">
        <ele>48.7</ele>
        <time>2023-02-08T13:17:10Z</time>
      </trkpt>
      <trkpt lat="49.77865" lon="2.16677">
        <ele>48.7</ele>
        <time>2023-02-08T13:17:11Z</time>
      </trkpt>
      <trkpt lat="49.77865" lon="2.16676">
        <ele>48.7</ele>
        <time>2023-02-08T13:17:12Z</time>
      </trkpt>
      <trkpt lat="49.77866" lon="2.16675">
        <ele>48.7</ele>
        <time>2023-02-08T13:17:13Z</time>
      </trkpt>
      <trkpt lat="49.7787" lon="2.16675">
        <ele>48.8</ele>
        <time>2023-02-08T13:17:14Z</time>
      </trkpt>
      <trkpt lat="49.7787" lon="2.16676">
        <ele>48.8</ele>
        <time>2023-02-08T13:17:15Z</time>
      </trkpt>
      <trkpt lat="49.77871" lon="2.16675">
        <ele>48.8</ele>
        <time>2023-02-08T13:17:16Z</time>
      </trkpt>
      <trkpt lat="49.77873" lon="2.16674">
        <ele>48.8</ele>
        <time>2023-02-08T13:17:18Z</time>
      </trkpt>
      <trkpt lat="49.77874" lon="2.16673">
        <ele>48.8</ele>
        <time>2023-02-08T13:17:19Z</time>
      </trkpt>
      <trkpt lat="49.77875" lon="2.16672">
        <ele>48.8</ele>
        <time>2023-02-08T13:17:20Z</time>
      </trkpt>
      <trkpt lat="49.77876" lon="2.16671">
        <ele>48.8</ele>
        <time>2023-02-08T13:17:21Z</time>
      </trkpt>
      <trkpt lat="49.77877" lon="2.16671">
        <ele>48.7</ele>
        <time>2023-02-08T13:17:22Z</time>
      </trkpt>
      <trkpt lat="49.77878" lon="2.1667">
        <ele>48.7</ele>
        <time>2023-02-08T13:17:23Z</time>
      </trkpt>
      <trkpt lat="49.77879" lon="2.16669">
        <ele>48.7</ele>
        <time>2023-02-08T13:17:24Z</time>
      </trkpt>
      <trkpt lat="49.7788" lon="2.16669">
        <ele>48.7</ele>
        <time>2023-02-08T13:17:25Z</time>
      </trkpt>
      <trkpt lat="49.77882" lon="2.16668">
        <ele>48.7</ele>
        <time>2023-02-08T13:17:26Z</time>
      </trkpt>
      <trkpt lat="49.77884" lon="2.16667">
        <ele>48.6</ele>
        <time>2023-02-08T13:17:27Z</time>
      </trkpt>
      <trkpt lat="49.77885" lon="2.16666">
        <ele>48.6</ele>
        <time>2023-02-08T13:17:29Z</time>
      </trkpt>
      <trkpt lat="49.77886" lon="2.16666">
        <ele>48.6</ele>
        <time>2023-02-08T13:17:30Z</time>
      </trkpt>
      <trkpt lat="49.77887" lon="2.16665">
        <ele>48.6</ele>
        <time>2023-02-08T13:17:31Z</time>
      </trkpt>
      <trkpt lat="49.77888" lon="2.16665">
        <ele>48.6</ele>
        <time>2023-02-08T13:17:32Z</time>
      </trkpt>
      <trkpt lat="49.77889" lon="2.16666">
        <ele>48.6</ele>
        <time>2023-02-08T13:17:33Z</time>
      </trkpt>
      <trkpt lat="49.77891" lon="2.16668">
        <ele>48.5</ele>
        <time>2023-02-08T13:17:34Z</time>
      </trkpt>
      <trkpt lat="49.77892" lon="2.16668">
        <ele>48.5</ele>
        <time>2023-02-08T13:17:35Z</time>
      </trkpt>
      <trkpt lat="49.77893" lon="2.16669">
        <ele>48.5</ele>
        <time>2023-02-08T13:17:36Z</time>
      </trkpt>
      <trkpt lat="49.77894" lon="2.1667">
        <ele>48.5</ele>
        <time>2023-02-08T13:17:37Z</time>
      </trkpt>
      <trkpt lat="49.77895" lon="2.16671">
        <ele>48.5</ele>
        <time>2023-02-08T13:17:39Z</time>
      </trkpt>
      <trkpt lat="49.77897" lon="2.16672">
        <ele>48.5</ele>
        <time>2023-02-08T13:17:40Z</time>
      </trkpt>
      <trkpt lat="49.77899" lon="2.16673">
        <ele>48.5</ele>
        <time>2023-02-08T13:17:41Z</time>
      </trkpt>
      <trkpt lat="49.779" lon="2.16674">
        <ele>48.5</ele>
        <time>2023-02-08T13:17:42Z</time>
      </trkpt>
      <trkpt lat="49.77902" lon="2.16676">
        <ele>48.4</ele>
        <time>2023-02-08T13:17:43Z</time>
      </trkpt>
      <trkpt lat="49.77903" lon="2.16677">
        <ele>48.4</ele>
        <time>2023-02-08T13:17:44Z</time>
      </trkpt>
      <trkpt lat="49.77904" lon="2.16677">
        <ele>48.4</ele>
        <time>2023-02-08T13:17:46Z</time>
      </trkpt>
      <trkpt lat="49.77904" lon="2.16678">
        <ele>48.4</ele>
        <time>2023-02-08T13:17:47Z</time>
      </trkpt>
      <trkpt lat="49.77905" lon="2.16679">
        <ele>48.4</ele>
        <time>2023-02-08T13:17:48Z</time>
      </trkpt>
      <trkpt lat="49.77907" lon="2.1668">
        <ele>48.4</ele>
        <time>2023-02-08T13:17:49Z</time>
      </trkpt>
      <trkpt lat="49.7791" lon="2.16682">
        <ele>48.4</ele>
        <time>2023-02-08T13:17:50Z</time>
      </trkpt>
      <trkpt lat="49.77911" lon="2.16683">
        <ele>48.4</ele>
        <time>2023-02-08T13:17:51Z</time>
      </trkpt>
      <trkpt lat="49.77912" lon="2.16684">
        <ele>48.4</ele>
        <time>2023-02-08T13:17:53Z</time>
      </trkpt>
      <trkpt lat="49.77914" lon="2.16684">
        <ele>48.4</ele>
        <time>2023-02-08T13:17:54Z</time>
      </trkpt>
      <trkpt lat="49.77916" lon="2.16686">
        <ele>48.4</ele>
        <time>2023-02-08T13:17:56Z</time>
      </trkpt>
      <trkpt lat="49.77918" lon="2.16687">
        <ele>48.4</ele>
        <time>2023-02-08T13:17:57Z</time>
      </trkpt>
      <trkpt lat="49.77919" lon="2.16688">
        <ele>48.4</ele>
        <time>2023-02-08T13:17:58Z</time>
      </trkpt>
      <trkpt lat="49.7792" lon="2.16688">
        <ele>48.5</ele>
        <time>2023-02-08T13:17:59Z</time>
      </trkpt>
      <trkpt lat="49.77923" lon="2.1669">
        <ele>48.5</ele>
        <time>2023-02-08T13:18:00Z</time>
      </trkpt>
      <trkpt lat="49.77923" lon="2.1669">
        <ele>48.5</ele>
        <time>2023-02-08T13:18:01Z</time>
      </trkpt>
      <trkpt lat="49.77926" lon="2.16692">
        <ele>48.5</ele>
        <time>2023-02-08T13:18:02Z</time>
      </trkpt>
      <trkpt lat="49.77927" lon="2.16692">
        <ele>48.5</ele>
        <time>2023-02-08T13:18:03Z</time>
      </trkpt>
      <trkpt lat="49.77928" lon="2.16693">
        <ele>48.5</ele>
        <time>2023-02-08T13:18:04Z</time>
      </trkpt>
      <trkpt lat="49.77928" lon="2.16693">
        <ele>48.5</ele>
        <time>2023-02-08T13:18:06Z</time>
      </trkpt>
      <trkpt lat="49.77929" lon="2.16693">
        <ele>48.5</ele>
        <time>2023-02-08T13:18:07Z</time>
      </trkpt>
      <trkpt lat="49.7793" lon="2.16693">
        <ele>48.5</ele>
        <time>2023-02-08T13:18:08Z</time>
      </trkpt>
      <trkpt lat="49.77931" lon="2.16694">
        <ele>48.5</ele>
        <time>2023-02-08T13:18:09Z</time>
      </trkpt>
      <trkpt lat="49.77933" lon="2.16695">
        <ele>48.5</ele>
        <time>2023-02-08T13:18:10Z</time>
      </trkpt>
      <trkpt lat="49.77933" lon="2.16696">
        <ele>48.6</ele>
        <time>2023-02-08T13:18:11Z</time>
      </trkpt>
      <trkpt lat="49.77934" lon="2.16697">
        <ele>48.6</ele>
        <time>2023-02-08T13:18:12Z</time>
      </trkpt>
      <trkpt lat="49.77935" lon="2.16699">
        <ele>48.6</ele>
        <time>2023-02-08T13:18:14Z</time>
      </trkpt>
      <trkpt lat="49.77935" lon="2.16702">
        <ele>48.6</ele>
        <time>2023-02-08T13:18:15Z</time>
      </trkpt>
      <trkpt lat="49.77937" lon="2.16704">
        <ele>48.6</ele>
        <time>2023-02-08T13:18:16Z</time>
      </trkpt>
      <trkpt lat="49.77938" lon="2.16704">
        <ele>48.6</ele>
        <time>2023-02-08T13:18:17Z</time>
      </trkpt>
      <trkpt lat="49.77938" lon="2.16705">
        <ele>48.6</ele>
        <time>2023-02-08T13:18:18Z</time>
      </trkpt>
      <trkpt lat="49.7794" lon="2.16707">
        <ele>48.7</ele>
        <time>2023-02-08T13:18:20Z</time>
      </trkpt>
      <trkpt lat="49.7794" lon="2.16707">
        <ele>48.7</ele>
        <time>2023-02-08T13:18:21Z</time>
      </trkpt>
      <trkpt lat="49.77941" lon="2.16708">
        <ele>48.7</ele>
        <time>2023-02-08T13:18:22Z</time>
      </trkpt>
      <trkpt lat="49.77943" lon="2.1671">
        <ele>48.7</ele>
        <time>2023-02-08T13:18:23Z</time>
      </trkpt>
      <trkpt lat="49.77944" lon="2.1671">
        <ele>48.7</ele>
        <time>2023-02-08T13:18:24Z</time>
      </trkpt>
      <trkpt lat="49.77945" lon="2.16711">
        <ele>48.7</ele>
        <time>2023-02-08T13:18:25Z</time>
      </trkpt>
      <trkpt lat="49.77946" lon="2.16711">
        <ele>48.7</ele>
        <time>2023-02-08T13:18:26Z</time>
      </trkpt>
      <trkpt lat="49.77947" lon="2.16712">
        <ele>48.7</ele>
        <time>2023-02-08T13:18:28Z</time>
      </trkpt>
      <trkpt lat="49.77948" lon="2.16712">
        <ele>48.8</ele>
        <time>2023-02-08T13:18:29Z</time>
      </trkpt>
      <trkpt lat="49.77949" lon="2.16713">
        <ele>48.8</ele>
        <time>2023-02-08T13:18:30Z</time>
      </trkpt>
      <trkpt lat="49.7795" lon="2.16713">
        <ele>48.8</ele>
        <time>2023-02-08T13:18:31Z</time>
      </trkpt>
      <trkpt lat="49.77952" lon="2.16715">
        <ele>48.8</ele>
        <time>2023-02-08T13:18:32Z</time>
      </trkpt>
      <trkpt lat="49.77953" lon="2.16715">
        <ele>48.8</ele>
        <time>2023-02-08T13:18:33Z</time>
      </trkpt>
      <trkpt lat="49.77953" lon="2.16716">
        <ele>48.8</ele>
        <time>2023-02-08T13:18:34Z</time>
      </trkpt>
      <trkpt lat="49.77955" lon="2.16717">
        <ele>48.8</ele>
        <time>2023-02-08T13:18:35Z</time>
      </trkpt>
      <trkpt lat="49.77956" lon="2.16718">
        <ele>48.8</ele>
        <time>2023-02-08T13:18:36Z</time>
      </trkpt>
      <trkpt lat="49.77956" lon="2.16719">
        <ele>48.8</ele>
        <time>2023-02-08T13:18:37Z</time>
      </trkpt>
      <trkpt lat="49.77957" lon="2.1672">
        <ele>48.9</ele>
        <time>2023-02-08T13:18:38Z</time>
      </trkpt>
      <trkpt lat="49.77958" lon="2.16722">
        <ele>48.9</ele>
        <time>2023-02-08T13:18:40Z</time>
      </trkpt>
      <trkpt lat="49.77959" lon="2.16722">
        <ele>48.9</ele>
        <time>2023-02-08T13:18:41Z</time>
      </trkpt>
      <trkpt lat="49.7796" lon="2.16723">
        <ele>48.9</ele>
        <time>2023-02-08T13:18:42Z</time>
      </trkpt>
      <trkpt lat="49.7796" lon="2.16724">
        <ele>48.9</ele>
        <time>2023-02-08T13:18:43Z</time>
      </trkpt>
      <trkpt lat="49.77961" lon="2.16725">
        <ele>48.9</ele>
        <time>2023-02-08T13:18:44Z</time>
      </trkpt>
      <trkpt lat="49.77961" lon="2.16727">
        <ele>48.9</ele>
        <time>2023-02-08T13:18:46Z</time>
      </trkpt>
      <trkpt lat="49.77963" lon="2.16728">
        <ele>48.9</ele>
        <time>2023-02-08T13:18:47Z</time>
      </trkpt>
      <trkpt lat="49.77964" lon="2.16728">
        <ele>48.9</ele>
        <time>2023-02-08T13:18:48Z</time>
      </trkpt>
      <trkpt lat="49.77965" lon="2.16728">
        <ele>48.9</ele>
        <time>2023-02-08T13:18:49Z</time>
      </trkpt>
      <trkpt lat="49.77967" lon="2.16729">
        <ele>48.9</ele>
        <time>2023-02-08T13:18:50Z</time>
      </trkpt>
      <trkpt lat="49.77968" lon="2.16729">
        <ele>48.9</ele>
        <time>2023-02-08T13:18:51Z</time>
      </trkpt>
      <trkpt lat="49.77969" lon="2.1673">
        <ele>48.9</ele>
        <time>2023-02-08T13:18:52Z</time>
      </trkpt>
      <trkpt lat="49.7797" lon="2.16731">
        <ele>48.9</ele>
        <time>2023-02-08T13:18:53Z</time>
      </trkpt>
      <trkpt lat="49.7797" lon="2.16732">
        <ele>48.9</ele>
        <time>2023-02-08T13:18:54Z</time>
      </trkpt>
      <trkpt lat="49.77971" lon="2.16732">
        <ele>48.9</ele>
        <time>2023-02-08T13:18:55Z</time>
      </trkpt>
      <trkpt lat="49.77972" lon="2.16733">
        <ele>48.9</ele>
        <time>2023-02-08T13:18:56Z</time>
      </trkpt>
      <trkpt lat="49.77973" lon="2.16733">
        <ele>48.9</ele>
        <time>2023-02-08T13:18:57Z</time>
      </trkpt>
      <trkpt lat="49.77974" lon="2.16734">
        <ele>48.9</ele>
        <time>2023-02-08T13:18:58Z</time>
      </trkpt>
      <trkpt lat="49.77976" lon="2.16734">
        <ele>48.9</ele>
        <time>2023-02-08T13:18:59Z</time>
      </trkpt>
      <trkpt lat="49.77977" lon="2.16735">
        <ele>48.9</ele>
        <time>2023-02-08T13:19:01Z</time>
      </trkpt>
      <trkpt lat="49.77978" lon="2.16735">
        <ele>48.9</ele>
        <time>2023-02-08T13:19:02Z</time>
      </trkpt>
      <trkpt lat="49.77979" lon="2.16736">
        <ele>48.9</ele>
        <time>2023-02-08T13:19:03Z</time>
      </trkpt>
      <trkpt lat="49.7798" lon="2.16737">
        <ele>49</ele>
        <time>2023-02-08T13:19:04Z</time>
      </trkpt>
      <trkpt lat="49.77982" lon="2.16739">
        <ele>49</ele>
        <time>2023-02-08T13:19:05Z</time>
      </trkpt>
      <trkpt lat="49.77982" lon="2.1674">
        <ele>49</ele>
        <time>2023-02-08T13:19:06Z</time>
      </trkpt>
      <trkpt lat="49.77983" lon="2.1674">
        <ele>49</ele>
        <time>2023-02-08T13:19:07Z</time>
      </trkpt>
      <trkpt lat="49.77984" lon="2.16741">
        <ele>49</ele>
        <time>2023-02-08T13:19:08Z</time>
      </trkpt>
      <trkpt lat="49.77986" lon="2.16743">
        <ele>49</ele>
        <time>2023-02-08T13:19:10Z</time>
      </trkpt>
      <trkpt lat="49.77987" lon="2.16743">
        <ele>49</ele>
        <time>2023-02-08T13:19:12Z</time>
      </trkpt>
      <trkpt lat="49.77989" lon="2.16744">
        <ele>49</ele>
        <time>2023-02-08T13:19:13Z</time>
      </trkpt>
      <trkpt lat="49.77991" lon="2.16747">
        <ele>49.1</ele>
        <time>2023-02-08T13:19:14Z</time>
      </trkpt>
      <trkpt lat="49.77992" lon="2.16748">
        <ele>49.1</ele>
        <time>2023-02-08T13:19:15Z</time>
      </trkpt>
      <trkpt lat="49.77993" lon="2.16748">
        <ele>49.1</ele>
        <time>2023-02-08T13:19:16Z</time>
      </trkpt>
      <trkpt lat="49.77994" lon="2.16749">
        <ele>49.1</ele>
        <time>2023-02-08T13:19:17Z</time>
      </trkpt>
      <trkpt lat="49.77996" lon="2.1675">
        <ele>49.1</ele>
        <time>2023-02-08T13:19:18Z</time>
      </trkpt>
      <trkpt lat="49.77997" lon="2.16751">
        <ele>49.2</ele>
        <time>2023-02-08T13:19:19Z</time>
      </trkpt>
      <trkpt lat="49.77998" lon="2.16751">
        <ele>49.2</ele>
        <time>2023-02-08T13:19:20Z</time>
      </trkpt>
      <trkpt lat="49.77999" lon="2.16752">
        <ele>49.2</ele>
        <time>2023-02-08T13:19:22Z</time>
      </trkpt>
      <trkpt lat="49.78" lon="2.16753">
        <ele>49.2</ele>
        <time>2023-02-08T13:19:23Z</time>
      </trkpt>
      <trkpt lat="49.78001" lon="2.16754">
        <ele>49.2</ele>
        <time>2023-02-08T13:19:24Z</time>
      </trkpt>
      <trkpt lat="49.78002" lon="2.16755">
        <ele>49.3</ele>
        <time>2023-02-08T13:19:25Z</time>
      </trkpt>
      <trkpt lat="49.78003" lon="2.16758">
        <ele>49.3</ele>
        <time>2023-02-08T13:19:26Z</time>
      </trkpt>
      <trkpt lat="49.78004" lon="2.16759">
        <ele>49.3</ele>
        <time>2023-02-08T13:19:28Z</time>
      </trkpt>
      <trkpt lat="49.78005" lon="2.1676">
        <ele>49.4</ele>
        <time>2023-02-08T13:19:29Z</time>
      </trkpt>
      <trkpt lat="49.78006" lon="2.16761">
        <ele>49.4</ele>
        <time>2023-02-08T13:19:30Z</time>
      </trkpt>
      <trkpt lat="49.78007" lon="2.16762">
        <ele>49.4</ele>
        <time>2023-02-08T13:19:31Z</time>
      </trkpt>
      <trkpt lat="49.78008" lon="2.16763">
        <ele>49.4</ele>
        <time>2023-02-08T13:19:32Z</time>
      </trkpt>
      <trkpt lat="49.78008" lon="2.16764">
        <ele>49.5</ele>
        <time>2023-02-08T13:19:33Z</time>
      </trkpt>
      <trkpt lat="49.7801" lon="2.16764">
        <ele>49.5</ele>
        <time>2023-02-08T13:19:34Z</time>
      </trkpt>
      <trkpt lat="49.78011" lon="2.16765">
        <ele>49.5</ele>
        <time>2023-02-08T13:19:35Z</time>
      </trkpt>
      <trkpt lat="49.78012" lon="2.16766">
        <ele>49.6</ele>
        <time>2023-02-08T13:19:36Z</time>
      </trkpt>
      <trkpt lat="49.78013" lon="2.16767">
        <ele>49.6</ele>
        <time>2023-02-08T13:19:37Z</time>
      </trkpt>
      <trkpt lat="49.78014" lon="2.16768">
        <ele>49.6</ele>
        <time>2023-02-08T13:19:38Z</time>
      </trkpt>
      <trkpt lat="49.78015" lon="2.16769">
        <ele>49.7</ele>
        <time>2023-02-08T13:19:39Z</time>
      </trkpt>
      <trkpt lat="49.78016" lon="2.1677">
        <ele>49.7</ele>
        <time>2023-02-08T13:19:41Z</time>
      </trkpt>
      <trkpt lat="49.78017" lon="2.16771">
        <ele>49.8</ele>
        <time>2023-02-08T13:19:42Z</time>
      </trkpt>
      <trkpt lat="49.78018" lon="2.16772">
        <ele>49.8</ele>
        <time>2023-02-08T13:19:43Z</time>
      </trkpt>
      <trkpt lat="49.78019" lon="2.16773">
        <ele>49.8</ele>
        <time>2023-02-08T13:19:44Z</time>
      </trkpt>
      <trkpt lat="49.7802" lon="2.16773">
        <ele>49.9</ele>
        <time>2023-02-08T13:19:45Z</time>
      </trkpt>
      <trkpt lat="49.78021" lon="2.16774">
        <ele>49.9</ele>
        <time>2023-02-08T13:19:46Z</time>
      </trkpt>
      <trkpt lat="49.78022" lon="2.16775">
        <ele>49.9</ele>
        <time>2023-02-08T13:19:47Z</time>
      </trkpt>
      <trkpt lat="49.78024" lon="2.16776">
        <ele>50</ele>
        <time>2023-02-08T13:19:48Z</time>
      </trkpt>
      <trkpt lat="49.78025" lon="2.16777">
        <ele>50</ele>
        <time>2023-02-08T13:19:49Z</time>
      </trkpt>
      <trkpt lat="49.78026" lon="2.16777">
        <ele>50.1</ele>
        <time>2023-02-08T13:19:50Z</time>
      </trkpt>
      <trkpt lat="49.78027" lon="2.16778">
        <ele>50.1</ele>
        <time>2023-02-08T13:19:51Z</time>
      </trkpt>
      <trkpt lat="49.78028" lon="2.16778">
        <ele>50.1</ele>
        <time>2023-02-08T13:19:53Z</time>
      </trkpt>
      <trkpt lat="49.78028" lon="2.16779">
        <ele>50.2</ele>
        <time>2023-02-08T13:19:54Z</time>
      </trkpt>
      <trkpt lat="49.78029" lon="2.16779">
        <ele>50.2</ele>
        <time>2023-02-08T13:19:55Z</time>
      </trkpt>
      <trkpt lat="49.7803" lon="2.16779">
        <ele>50.2</ele>
        <time>2023-02-08T13:19:56Z</time>
      </trkpt>
      <trkpt lat="49.78032" lon="2.1678">
        <ele>50.3</ele>
        <time>2023-02-08T13:19:57Z</time>
      </trkpt>
      <trkpt lat="49.78033" lon="2.1678">
        <ele>50.3</ele>
        <time>2023-02-08T13:19:58Z</time>
      </trkpt>
      <trkpt lat="49.78034" lon="2.16781">
        <ele>50.4</ele>
        <time>2023-02-08T13:20:00Z</time>
      </trkpt>
      <trkpt lat="49.78036" lon="2.16782">
        <ele>50.4</ele>
        <time>2023-02-08T13:20:01Z</time>
      </trkpt>
      <trkpt lat="49.78037" lon="2.16783">
        <ele>50.5</ele>
        <time>2023-02-08T13:20:02Z</time>
      </trkpt>
      <trkpt lat="49.78038" lon="2.16783">
        <ele>50.5</ele>
        <time>2023-02-08T13:20:03Z</time>
      </trkpt>
      <trkpt lat="49.78039" lon="2.16784">
        <ele>50.6</ele>
        <time>2023-02-08T13:20:04Z</time>
      </trkpt>
      <trkpt lat="49.7804" lon="2.16785">
        <ele>50.6</ele>
        <time>2023-02-08T13:20:05Z</time>
      </trkpt>
      <trkpt lat="49.78041" lon="2.16787">
        <ele>50.6</ele>
        <time>2023-02-08T13:20:06Z</time>
      </trkpt>
      <trkpt lat="49.78041" lon="2.16788">
        <ele>50.7</ele>
        <time>2023-02-08T13:20:08Z</time>
      </trkpt>
      <trkpt lat="49.78041" lon="2.1679">
        <ele>50.7</ele>
        <time>2023-02-08T13:20:09Z</time>
      </trkpt>
      <trkpt lat="49.78042" lon="2.16792">
        <ele>50.8</ele>
        <time>2023-02-08T13:20:10Z</time>
      </trkpt>
      <trkpt lat="49.78042" lon="2.16793">
        <ele>50.8</ele>
        <time>2023-02-08T13:20:11Z</time>
      </trkpt>
      <trkpt lat="49.78043" lon="2.16794">
        <ele>50.8</ele>
        <time>2023-02-08T13:20:12Z</time>
      </trkpt>
      <trkpt lat="49.78044" lon="2.16794">
        <ele>50.9</ele>
        <time>2023-02-08T13:20:13Z</time>
      </trkpt>
      <trkpt lat="49.78045" lon="2.16795">
        <ele>50.9</ele>
        <time>2023-02-08T13:20:14Z</time>
      </trkpt>
      <trkpt lat="49.78046" lon="2.16797">
        <ele>50.9</ele>
        <time>2023-02-08T13:20:16Z</time>
      </trkpt>
      <trkpt lat="49.78046" lon="2.16798">
        <ele>50.9</ele>
        <time>2023-02-08T13:20:17Z</time>
      </trkpt>
      <trkpt lat="49.78047" lon="2.16799">
        <ele>50.9</ele>
        <time>2023-02-08T13:20:18Z</time>
      </trkpt>
      <trkpt lat="49.78049" lon="2.16802">
        <ele>50.9</ele>
        <time>2023-02-08T13:20:19Z</time>
      </trkpt>
      <trkpt lat="49.7805" lon="2.16803">
        <ele>50.9</ele>
        <time>2023-02-08T13:20:20Z</time>
      </trkpt>
      <trkpt lat="49.7805" lon="2.16804">
        <ele>50.9</ele>
        <time>2023-02-08T13:20:21Z</time>
      </trkpt>
      <trkpt lat="49.78052" lon="2.16807">
        <ele>50.8</ele>
        <time>2023-02-08T13:20:22Z</time>
      </trkpt>
      <trkpt lat="49.78052" lon="2.16808">
        <ele>50.8</ele>
        <time>2023-02-08T13:20:23Z</time>
      </trkpt>
      <trkpt lat="49.78053" lon="2.16809">
        <ele>50.8</ele>
        <time>2023-02-08T13:20:24Z</time>
      </trkpt>
      <trkpt lat="49.78054" lon="2.16811">
        <ele>50.8</ele>
        <time>2023-02-08T13:20:25Z</time>
      </trkpt>
      <trkpt lat="49.78055" lon="2.16813">
        <ele>50.8</ele>
        <time>2023-02-08T13:20:27Z</time>
      </trkpt>
      <trkpt lat="49.78056" lon="2.16815">
        <ele>50.8</ele>
        <time>2023-02-08T13:20:28Z</time>
      </trkpt>
      <trkpt lat="49.78057" lon="2.16817">
        <ele>50.8</ele>
        <time>2023-02-08T13:20:29Z</time>
      </trkpt>
      <trkpt lat="49.78058" lon="2.16818">
        <ele>50.7</ele>
        <time>2023-02-08T13:20:30Z</time>
      </trkpt>
      <trkpt lat="49.7806" lon="2.1682">
        <ele>50.7</ele>
        <time>2023-02-08T13:20:31Z</time>
      </trkpt>
      <trkpt lat="49.78061" lon="2.16822">
        <ele>50.7</ele>
        <time>2023-02-08T13:20:32Z</time>
      </trkpt>
      <trkpt lat="49.78061" lon="2.16823">
        <ele>50.7</ele>
        <time>2023-02-08T13:20:34Z</time>
      </trkpt>
      <trkpt lat="49.78062" lon="2.16824">
        <ele>50.7</ele>
        <time>2023-02-08T13:20:35Z</time>
      </trkpt>
      <trkpt lat="49.78062" lon="2.16826">
        <ele>50.7</ele>
        <time>2023-02-08T13:20:36Z</time>
      </trkpt>
      <trkpt lat="49.78062" lon="2.16828">
        <ele>50.7</ele>
        <time>2023-02-08T13:20:37Z</time>
      </trkpt>
      <trkpt lat="49.78062" lon="2.16829">
        <ele>50.7</ele>
        <time>2023-02-08T13:20:38Z</time>
      </trkpt>
      <trkpt lat="49.78063" lon="2.16832">
        <ele>50.6</ele>
        <time>2023-02-08T13:20:39Z</time>
      </trkpt>
      <trkpt lat="49.78063" lon="2.16834">
        <ele>50.6</ele>
        <time>2023-02-08T13:20:40Z</time>
      </trkpt>
      <trkpt lat="49.78063" lon="2.16835">
        <ele>50.6</ele>
        <time>2023-02-08T13:20:42Z</time>
      </trkpt>
      <trkpt lat="49.78064" lon="2.16836">
        <ele>50.6</ele>
        <time>2023-02-08T13:20:43Z</time>
      </trkpt>
      <trkpt lat="49.78064" lon="2.16837">
        <ele>50.6</ele>
        <time>2023-02-08T13:20:44Z</time>
      </trkpt>
      <trkpt lat="49.78064" lon="2.16839">
        <ele>50.6</ele>
        <time>2023-02-08T13:20:45Z</time>
      </trkpt>
      <trkpt lat="49.78064" lon="2.1684">
        <ele>50.6</ele>
        <time>2023-02-08T13:20:46Z</time>
      </trkpt>
      <trkpt lat="49.78064" lon="2.16841">
        <ele>50.6</ele>
        <time>2023-02-08T13:20:47Z</time>
      </trkpt>
      <trkpt lat="49.78065" lon="2.16842">
        <ele>50.6</ele>
        <time>2023-02-08T13:20:48Z</time>
      </trkpt>
      <trkpt lat="49.78065" lon="2.16844">
        <ele>50.5</ele>
        <time>2023-02-08T13:20:49Z</time>
      </trkpt>
      <trkpt lat="49.78065" lon="2.16845">
        <ele>50.5</ele>
        <time>2023-02-08T13:20:51Z</time>
      </trkpt>
      <trkpt lat="49.78065" lon="2.16846">
        <ele>50.5</ele>
        <time>2023-02-08T13:20:52Z</time>
      </trkpt>
      <trkpt lat="49.78066" lon="2.16848">
        <ele>50.5</ele>
        <time>2023-02-08T13:20:53Z</time>
      </trkpt>
      <trkpt lat="49.78066" lon="2.16849">
        <ele>50.5</ele>
        <time>2023-02-08T13:20:54Z</time>
      </trkpt>
      <trkpt lat="49.78066" lon="2.16853">
        <ele>50.5</ele>
        <time>2023-02-08T13:20:55Z</time>
      </trkpt>
      <trkpt lat="49.78066" lon="2.16854">
        <ele>50.5</ele>
        <time>2023-02-08T13:20:56Z</time>
      </trkpt>
      <trkpt lat="49.78066" lon="2.16855">
        <ele>50.5</ele>
        <time>2023-02-08T13:20:57Z</time>
      </trkpt>
      <trkpt lat="49.78066" lon="2.16858">
        <ele>50.4</ele>
        <time>2023-02-08T13:20:59Z</time>
      </trkpt>
      <trkpt lat="49.78066" lon="2.1686">
        <ele>50.4</ele>
        <time>2023-02-08T13:21:00Z</time>
      </trkpt>
      <trkpt lat="49.78066" lon="2.16861">
        <ele>50.4</ele>
        <time>2023-02-08T13:21:01Z</time>
      </trkpt>
      <trkpt lat="49.78066" lon="2.16863">
        <ele>50.4</ele>
        <time>2023-02-08T13:21:02Z</time>
      </trkpt>
      <trkpt lat="49.78066" lon="2.16866">
        <ele>50.4</ele>
        <time>2023-02-08T13:21:03Z</time>
      </trkpt>
      <trkpt lat="49.78066" lon="2.16868">
        <ele>50.4</ele>
        <time>2023-02-08T13:21:04Z</time>
      </trkpt>
      <trkpt lat="49.78066" lon="2.1687">
        <ele>50.3</ele>
        <time>2023-02-08T13:21:05Z</time>
      </trkpt>
      <trkpt lat="49.78066" lon="2.16874">
        <ele>50.3</ele>
        <time>2023-02-08T13:21:07Z</time>
      </trkpt>
      <trkpt lat="49.78066" lon="2.16876">
        <ele>50.3</ele>
        <time>2023-02-08T13:21:08Z</time>
      </trkpt>
      <trkpt lat="49.78067" lon="2.16878">
        <ele>50.3</ele>
        <time>2023-02-08T13:21:09Z</time>
      </trkpt>
      <trkpt lat="49.78067" lon="2.1688">
        <ele>50.2</ele>
        <time>2023-02-08T13:21:10Z</time>
      </trkpt>
      <trkpt lat="49.78067" lon="2.16882">
        <ele>50.2</ele>
        <time>2023-02-08T13:21:11Z</time>
      </trkpt>
      <trkpt lat="49.78068" lon="2.16884">
        <ele>50.2</ele>
        <time>2023-02-08T13:21:12Z</time>
      </trkpt>
      <trkpt lat="49.78069" lon="2.16887">
        <ele>50.2</ele>
        <time>2023-02-08T13:21:13Z</time>
      </trkpt>
      <trkpt lat="49.78069" lon="2.16888">
        <ele>50.2</ele>
        <time>2023-02-08T13:21:14Z</time>
      </trkpt>
      <trkpt lat="49.7807" lon="2.1689">
        <ele>50.1</ele>
        <time>2023-02-08T13:21:15Z</time>
      </trkpt>
      <trkpt lat="49.78071" lon="2.16892">
        <ele>50.1</ele>
        <time>2023-02-08T13:21:17Z</time>
      </trkpt>
      <trkpt lat="49.78072" lon="2.16893">
        <ele>50.1</ele>
        <time>2023-02-08T13:21:18Z</time>
      </trkpt>
      <trkpt lat="49.78072" lon="2.16894">
        <ele>50.1</ele>
        <time>2023-02-08T13:21:19Z</time>
      </trkpt>
      <trkpt lat="49.78073" lon="2.16897">
        <ele>50</ele>
        <time>2023-02-08T13:21:20Z</time>
      </trkpt>
      <trkpt lat="49.78074" lon="2.16898">
        <ele>50</ele>
        <time>2023-02-08T13:21:21Z</time>
      </trkpt>
      <trkpt lat="49.78074" lon="2.16899">
        <ele>50</ele>
        <time>2023-02-08T13:21:22Z</time>
      </trkpt>
      <trkpt lat="49.78075" lon="2.16901">
        <ele>50</ele>
        <time>2023-02-08T13:21:24Z</time>
      </trkpt>
      <trkpt lat="49.78075" lon="2.16902">
        <ele>50</ele>
        <time>2023-02-08T13:21:25Z</time>
      </trkpt>
      <trkpt lat="49.78076" lon="2.16904">
        <ele>49.9</ele>
        <time>2023-02-08T13:21:26Z</time>
      </trkpt>
      <trkpt lat="49.78077" lon="2.16906">
        <ele>49.9</ele>
        <time>2023-02-08T13:21:27Z</time>
      </trkpt>
      <trkpt lat="49.78078" lon="2.16907">
        <ele>49.9</ele>
        <time>2023-02-08T13:21:28Z</time>
      </trkpt>
      <trkpt lat="49.78078" lon="2.16908">
        <ele>49.9</ele>
        <time>2023-02-08T13:21:29Z</time>
      </trkpt>
      <trkpt lat="49.7808" lon="2.16911">
        <ele>49.8</ele>
        <time>2023-02-08T13:21:31Z</time>
      </trkpt>
      <trkpt lat="49.7808" lon="2.16912">
        <ele>49.8</ele>
        <time>2023-02-08T13:21:32Z</time>
      </trkpt>
      <trkpt lat="49.7808" lon="2.16913">
        <ele>49.8</ele>
        <time>2023-02-08T13:21:33Z</time>
      </trkpt>
      <trkpt lat="49.78081" lon="2.16914">
        <ele>49.8</ele>
        <time>2023-02-08T13:21:34Z</time>
      </trkpt>
      <trkpt lat="49.78081" lon="2.16915">
        <ele>49.8</ele>
        <time>2023-02-08T13:21:35Z</time>
      </trkpt>
      <trkpt lat="49.78082" lon="2.16917">
        <ele>49.7</ele>
        <time>2023-02-08T13:21:36Z</time>
      </trkpt>
      <trkpt lat="49.78083" lon="2.16918">
        <ele>49.7</ele>
        <time>2023-02-08T13:21:38Z</time>
      </trkpt>
      <trkpt lat="49.78083" lon="2.1692">
        <ele>49.7</ele>
        <time>2023-02-08T13:21:39Z</time>
      </trkpt>
      <trkpt lat="49.78083" lon="2.16922">
        <ele>49.7</ele>
        <time>2023-02-08T13:21:40Z</time>
      </trkpt>
      <trkpt lat="49.78084" lon="2.16925">
        <ele>49.6</ele>
        <time>2023-02-08T13:21:41Z</time>
      </trkpt>
      <trkpt lat="49.78084" lon="2.16927">
        <ele>49.6</ele>
        <time>2023-02-08T13:21:43Z</time>
      </trkpt>
      <trkpt lat="49.78084" lon="2.16929">
        <ele>49.6</ele>
        <time>2023-02-08T13:21:44Z</time>
      </trkpt>
      <trkpt lat="49.78085" lon="2.16931">
        <ele>49.6</ele>
        <time>2023-02-08T13:21:45Z</time>
      </trkpt>
      <trkpt lat="49.78086" lon="2.16934">
        <ele>49.6</ele>
        <time>2023-02-08T13:21:46Z</time>
      </trkpt>
      <trkpt lat="49.78086" lon="2.16936">
        <ele>49.5</ele>
        <time>2023-02-08T13:21:47Z</time>
      </trkpt>
      <trkpt lat="49.78087" lon="2.16939">
        <ele>49.5</ele>
        <time>2023-02-08T13:21:48Z</time>
      </trkpt>
      <trkpt lat="49.78087" lon="2.16941">
        <ele>49.5</ele>
        <time>2023-02-08T13:21:50Z</time>
      </trkpt>
      <trkpt lat="49.78087" lon="2.16942">
        <ele>49.5</ele>
        <time>2023-02-08T13:21:51Z</time>
      </trkpt>
      <trkpt lat="49.78088" lon="2.16944">
        <ele>49.5</ele>
        <time>2023-02-08T13:21:52Z</time>
      </trkpt>
      <trkpt lat="49.78088" lon="2.16946">
        <ele>49.5</ele>
        <time>2023-02-08T13:21:53Z</time>
      </trkpt>
      <trkpt lat="49.78089" lon="2.16949">
        <ele>49.5</ele>
        <time>2023-02-08T13:21:54Z</time>
      </trkpt>
      <trkpt lat="49.7809" lon="2.16952">
        <ele>49.4</ele>
        <time>2023-02-08T13:21:56Z</time>
      </trkpt>
      <trkpt lat="49.7809" lon="2.16954">
        <ele>49.4</ele>
        <time>2023-02-08T13:21:57Z</time>
      </trkpt>
      <trkpt lat="49.78091" lon="2.16956">
        <ele>49.4</ele>
        <time>2023-02-08T13:21:58Z</time>
      </trkpt>
      <trkpt lat="49.78091" lon="2.16958">
        <ele>49.4</ele>
        <time>2023-02-08T13:21:59Z</time>
      </trkpt>
      <trkpt lat="49.78092" lon="2.1696">
        <ele>49.4</ele>
        <time>2023-02-08T13:22:00Z</time>
      </trkpt>
      <trkpt lat="49.78093" lon="2.16962">
        <ele>49.4</ele>
        <time>2023-02-08T13:22:01Z</time>
      </trkpt>
      <trkpt lat="49.78093" lon="2.16964">
        <ele>49.4</ele>
        <time>2023-02-08T13:22:02Z</time>
      </trkpt>
      <trkpt lat="49.78094" lon="2.16967">
        <ele>49.3</ele>
        <time>2023-02-08T13:22:04Z</time>
      </trkpt>
      <trkpt lat="49.78094" lon="2.16969">
        <ele>49.3</ele>
        <time>2023-02-08T13:22:05Z</time>
      </trkpt>
      <trkpt lat="49.78095" lon="2.16971">
        <ele>49.3</ele>
        <time>2023-02-08T13:22:06Z</time>
      </trkpt>
      <trkpt lat="49.78095" lon="2.16972">
        <ele>49.3</ele>
        <time>2023-02-08T13:22:07Z</time>
      </trkpt>
      <trkpt lat="49.78095" lon="2.16974">
        <ele>49.3</ele>
        <time>2023-02-08T13:22:08Z</time>
      </trkpt>
      <trkpt lat="49.78096" lon="2.16976">
        <ele>49.3</ele>
        <time>2023-02-08T13:22:09Z</time>
      </trkpt>
      <trkpt lat="49.78097" lon="2.16978">
        <ele>49.3</ele>
        <time>2023-02-08T13:22:10Z</time>
      </trkpt>
      <trkpt lat="49.78097" lon="2.1698">
        <ele>49.3</ele>
        <time>2023-02-08T13:22:11Z</time>
      </trkpt>
      <trkpt lat="49.78098" lon="2.16981">
        <ele>49.3</ele>
        <time>2023-02-08T13:22:12Z</time>
      </trkpt>
      <trkpt lat="49.78098" lon="2.16983">
        <ele>49.3</ele>
        <time>2023-02-08T13:22:14Z</time>
      </trkpt>
      <trkpt lat="49.78099" lon="2.16985">
        <ele>49.3</ele>
        <time>2023-02-08T13:22:15Z</time>
      </trkpt>
      <trkpt lat="49.78099" lon="2.16987">
        <ele>49.2</ele>
        <time>2023-02-08T13:22:16Z</time>
      </trkpt>
      <trkpt lat="49.781" lon="2.16989">
        <ele>49.2</ele>
        <time>2023-02-08T13:22:18Z</time>
      </trkpt>
      <trkpt lat="49.78101" lon="2.16991">
        <ele>49.2</ele>
        <time>2023-02-08T13:22:19Z</time>
      </trkpt>
      <trkpt lat="49.78102" lon="2.16992">
        <ele>49.2</ele>
        <time>2023-02-08T13:22:20Z</time>
      </trkpt>
      <trkpt lat="49.78103" lon="2.16995">
        <ele>49.2</ele>
        <time>2023-02-08T13:22:21Z</time>
      </trkpt>
      <trkpt lat="49.78104" lon="2.16996">
        <ele>49.2</ele>
        <time>2023-02-08T13:22:22Z</time>
      </trkpt>
      <trkpt lat="49.78104" lon="2.16997">
        <ele>49.2</ele>
        <time>2023-02-08T13:22:24Z</time>
      </trkpt>
      <trkpt lat="49.78105" lon="2.16998">
        <ele>49.2</ele>
        <time>2023-02-08T13:22:25Z</time>
      </trkpt>
      <trkpt lat="49.78105" lon="2.16999">
        <ele>49.2</ele>
        <time>2023-02-08T13:22:26Z</time>
      </trkpt>
      <trkpt lat="49.78106" lon="2.17">
        <ele>49.2</ele>
        <time>2023-02-08T13:22:27Z</time>
      </trkpt>
      <trkpt lat="49.78107" lon="2.17002">
        <ele>49.2</ele>
        <time>2023-02-08T13:22:28Z</time>
      </trkpt>
      <trkpt lat="49.78107" lon="2.17003">
        <ele>49.1</ele>
        <time>2023-02-08T13:22:29Z</time>
      </trkpt>
      <trkpt lat="49.78108" lon="2.17005">
        <ele>49.1</ele>
        <time>2023-02-08T13:22:30Z</time>
      </trkpt>
      <trkpt lat="49.78109" lon="2.17008">
        <ele>49.1</ele>
        <time>2023-02-08T13:22:31Z</time>
      </trkpt>
      <trkpt lat="49.78109" lon="2.17009">
        <ele>49.1</ele>
        <time>2023-02-08T13:22:32Z</time>
      </trkpt>
      <trkpt lat="49.7811" lon="2.17011">
        <ele>49.1</ele>
        <time>2023-02-08T13:22:34Z</time>
      </trkpt>
      <trkpt lat="49.7811" lon="2.17012">
        <ele>49.1</ele>
        <time>2023-02-08T13:22:35Z</time>
      </trkpt>
      <trkpt lat="49.78111" lon="2.17013">
        <ele>49.1</ele>
        <time>2023-02-08T13:22:36Z</time>
      </trkpt>
      <trkpt lat="49.78111" lon="2.17015">
        <ele>49.1</ele>
        <time>2023-02-08T13:22:37Z</time>
      </trkpt>
      <trkpt lat="49.78112" lon="2.17018">
        <ele>49.1</ele>
        <time>2023-02-08T13:22:38Z</time>
      </trkpt>
      <trkpt lat="49.78113" lon="2.17019">
        <ele>49.1</ele>
        <time>2023-02-08T13:22:40Z</time>
      </trkpt>
      <trkpt lat="49.78113" lon="2.1702">
        <ele>49.1</ele>
        <time>2023-02-08T13:22:41Z</time>
      </trkpt>
      <trkpt lat="49.78114" lon="2.17022">
        <ele>49.1</ele>
        <time>2023-02-08T13:22:42Z</time>
      </trkpt>
      <trkpt lat="49.78115" lon="2.17024">
        <ele>49.2</ele>
        <time>2023-02-08T13:22:43Z</time>
      </trkpt>
      <trkpt lat="49.78117" lon="2.17026">
        <ele>49.2</ele>
        <time>2023-02-08T13:22:44Z</time>
      </trkpt>
      <trkpt lat="49.78117" lon="2.17027">
        <ele>49.2</ele>
        <time>2023-02-08T13:22:45Z</time>
      </trkpt>
      <trkpt lat="49.78118" lon="2.17028">
        <ele>49.2</ele>
        <time>2023-02-08T13:22:46Z</time>
      </trkpt>
      <trkpt lat="49.78119" lon="2.17029">
        <ele>49.2</ele>
        <time>2023-02-08T13:22:47Z</time>
      </trkpt>
      <trkpt lat="49.78119" lon="2.1703">
        <ele>49.2</ele>
        <time>2023-02-08T13:22:48Z</time>
      </trkpt>
      <trkpt lat="49.7812" lon="2.17032">
        <ele>49.3</ele>
        <time>2023-02-08T13:22:49Z</time>
      </trkpt>
      <trkpt lat="49.78121" lon="2.17033">
        <ele>49.3</ele>
        <time>2023-02-08T13:22:51Z</time>
      </trkpt>
      <trkpt lat="49.78121" lon="2.17035">
        <ele>49.3</ele>
        <time>2023-02-08T13:22:52Z</time>
      </trkpt>
      <trkpt lat="49.78122" lon="2.17036">
        <ele>49.3</ele>
        <time>2023-02-08T13:22:53Z</time>
      </trkpt>
      <trkpt lat="49.78123" lon="2.17039">
        <ele>49.4</ele>
        <time>2023-02-08T13:22:54Z</time>
      </trkpt>
      <trkpt lat="49.78123" lon="2.1704">
        <ele>49.4</ele>
        <time>2023-02-08T13:22:55Z</time>
      </trkpt>
      <trkpt lat="49.78124" lon="2.17041">
        <ele>49.4</ele>
        <time>2023-02-08T13:22:56Z</time>
      </trkpt>
      <trkpt lat="49.78124" lon="2.17042">
        <ele>49.5</ele>
        <time>2023-02-08T13:22:57Z</time>
      </trkpt>
      <trkpt lat="49.78124" lon="2.17044">
        <ele>49.5</ele>
        <time>2023-02-08T13:22:58Z</time>
      </trkpt>
      <trkpt lat="49.78125" lon="2.17045">
        <ele>49.5</ele>
        <time>2023-02-08T13:22:59Z</time>
      </trkpt>
      <trkpt lat="49.78126" lon="2.17046">
        <ele>49.6</ele>
        <time>2023-02-08T13:23:00Z</time>
      </trkpt>
      <trkpt lat="49.78127" lon="2.17048">
        <ele>49.6</ele>
        <time>2023-02-08T13:23:01Z</time>
      </trkpt>
      <trkpt lat="49.78127" lon="2.17049">
        <ele>49.7</ele>
        <time>2023-02-08T13:23:03Z</time>
      </trkpt>
      <trkpt lat="49.78128" lon="2.1705">
        <ele>49.7</ele>
        <time>2023-02-08T13:23:04Z</time>
      </trkpt>
      <trkpt lat="49.78129" lon="2.17052">
        <ele>49.8</ele>
        <time>2023-02-08T13:23:05Z</time>
      </trkpt>
      <trkpt lat="49.7813" lon="2.17053">
        <ele>49.8</ele>
        <time>2023-02-08T13:23:06Z</time>
      </trkpt>
      <trkpt lat="49.78131" lon="2.17054">
        <ele>49.9</ele>
        <time>2023-02-08T13:23:07Z</time>
      </trkpt>
      <trkpt lat="49.78132" lon="2.17055">
        <ele>49.9</ele>
        <time>2023-02-08T13:23:08Z</time>
      </trkpt>
      <trkpt lat="49.78132" lon="2.17056">
        <ele>50</ele>
        <time>2023-02-08T13:23:10Z</time>
      </trkpt>
      <trkpt lat="49.78133" lon="2.17057">
        <ele>50</ele>
        <time>2023-02-08T13:23:11Z</time>
      </trkpt>
      <trkpt lat="49.78135" lon="2.17058">
        <ele>50.1</ele>
        <time>2023-02-08T13:23:12Z</time>
      </trkpt>
      <trkpt lat="49.78136" lon="2.17058">
        <ele>50.2</ele>
        <time>2023-02-08T13:23:13Z</time>
      </trkpt>
      <trkpt lat="49.78137" lon="2.17059">
        <ele>50.2</ele>
        <time>2023-02-08T13:23:15Z</time>
      </trkpt>
      <trkpt lat="49.78137" lon="2.17059">
        <ele>50.3</ele>
        <time>2023-02-08T13:23:16Z</time>
      </trkpt>
      <trkpt lat="49.78139" lon="2.17058">
        <ele>50.3</ele>
        <time>2023-02-08T13:23:17Z</time>
      </trkpt>
      <trkpt lat="49.7814" lon="2.17058">
        <ele>50.4</ele>
        <time>2023-02-08T13:23:18Z</time>
      </trkpt>
      <trkpt lat="49.78141" lon="2.17058">
        <ele>50.4</ele>
        <time>2023-02-08T13:23:20Z</time>
      </trkpt>
      <trkpt lat="49.78142" lon="2.17058">
        <ele>50.5</ele>
        <time>2023-02-08T13:23:21Z</time>
      </trkpt>
      <trkpt lat="49.78143" lon="2.17058">
        <ele>50.6</ele>
        <time>2023-02-08T13:23:22Z</time>
      </trkpt>
      <trkpt lat="49.78143" lon="2.17058">
        <ele>50.6</ele>
        <time>2023-02-08T13:23:24Z</time>
      </trkpt>
      <trkpt lat="49.78144" lon="2.17057">
        <ele>50.6</ele>
        <time>2023-02-08T13:23:25Z</time>
      </trkpt>
      <trkpt lat="49.78144" lon="2.17058">
        <ele>50.7</ele>
        <time>2023-02-08T13:23:26Z</time>
      </trkpt>
      <trkpt lat="49.78145" lon="2.17058">
        <ele>50.7</ele>
        <time>2023-02-08T13:23:27Z</time>
      </trkpt>
      <trkpt lat="49.78146" lon="2.17058">
        <ele>50.7</ele>
        <time>2023-02-08T13:23:28Z</time>
      </trkpt>
      <trkpt lat="49.78146" lon="2.17058">
        <ele>50.8</ele>
        <time>2023-02-08T13:23:29Z</time>
      </trkpt>
      <trkpt lat="49.78147" lon="2.17058">
        <ele>50.8</ele>
        <time>2023-02-08T13:23:31Z</time>
      </trkpt>
      <trkpt lat="49.78147" lon="2.17058">
        <ele>50.9</ele>
        <time>2023-02-08T13:23:32Z</time>
      </trkpt>
      <trkpt lat="49.78148" lon="2.17058">
        <ele>50.9</ele>
        <time>2023-02-08T13:23:33Z</time>
      </trkpt>
      <trkpt lat="49.78149" lon="2.17059">
        <ele>50.9</ele>
        <time>2023-02-08T13:23:34Z</time>
      </trkpt>
      <trkpt lat="49.78149" lon="2.17059">
        <ele>51</ele>
        <time>2023-02-08T13:23:35Z</time>
      </trkpt>
      <trkpt lat="49.7815" lon="2.17059">
        <ele>51</ele>
        <time>2023-02-08T13:23:37Z</time>
      </trkpt>
      <trkpt lat="49.78151" lon="2.17059">
        <ele>51.1</ele>
        <time>2023-02-08T13:23:38Z</time>
      </trkpt>
      <trkpt lat="49.78151" lon="2.17059">
        <ele>51.1</ele>
        <time>2023-02-08T13:23:39Z</time>
      </trkpt>
      <trkpt lat="49.78152" lon="2.17059">
        <ele>51.1</ele>
        <time>2023-02-08T13:23:40Z</time>
      </trkpt>
      <trkpt lat="49.78152" lon="2.17059">
        <ele>51.2</ele>
        <time>2023-02-08T13:23:41Z</time>
      </trkpt>
      <trkpt lat="49.78153" lon="2.1706">
        <ele>51.2</ele>
        <time>2023-02-08T13:23:42Z</time>
      </trkpt>
      <trkpt lat="49.78155" lon="2.17061">
        <ele>51.3</ele>
        <time>2023-02-08T13:23:44Z</time>
      </trkpt>
      <trkpt lat="49.78156" lon="2.17061">
        <ele>51.4</ele>
        <time>2023-02-08T13:23:45Z</time>
      </trkpt>
      <trkpt lat="49.78157" lon="2.17063">
        <ele>51.5</ele>
        <time>2023-02-08T13:23:47Z</time>
      </trkpt>
      <trkpt lat="49.78157" lon="2.17064">
        <ele>51.5</ele>
        <time>2023-02-08T13:23:48Z</time>
      </trkpt>
      <trkpt lat="49.78158" lon="2.17065">
        <ele>51.6</ele>
        <time>2023-02-08T13:23:49Z</time>
      </trkpt>
      <trkpt lat="49.78159" lon="2.17067">
        <ele>51.6</ele>
        <time>2023-02-08T13:23:50Z</time>
      </trkpt>
      <trkpt lat="49.7816" lon="2.17068">
        <ele>51.7</ele>
        <time>2023-02-08T13:23:51Z</time>
      </trkpt>
      <trkpt lat="49.78162" lon="2.1707">
        <ele>51.8</ele>
        <time>2023-02-08T13:23:52Z</time>
      </trkpt>
      <trkpt lat="49.78162" lon="2.17071">
        <ele>51.9</ele>
        <time>2023-02-08T13:23:53Z</time>
      </trkpt>
      <trkpt lat="49.78163" lon="2.17073">
        <ele>51.9</ele>
        <time>2023-02-08T13:23:55Z</time>
      </trkpt>
      <trkpt lat="49.78164" lon="2.17075">
        <ele>52</ele>
        <time>2023-02-08T13:23:56Z</time>
      </trkpt>
      <trkpt lat="49.78166" lon="2.17077">
        <ele>52.2</ele>
        <time>2023-02-08T13:23:57Z</time>
      </trkpt>
      <trkpt lat="49.78166" lon="2.17079">
        <ele>52.2</ele>
        <time>2023-02-08T13:23:58Z</time>
      </trkpt>
      <trkpt lat="49.78168" lon="2.17081">
        <ele>52.2</ele>
        <time>2023-02-08T13:23:59Z</time>
      </trkpt>
      <trkpt lat="49.78168" lon="2.17083">
        <ele>52.3</ele>
        <time>2023-02-08T13:24:00Z</time>
      </trkpt>
      <trkpt lat="49.78171" lon="2.17086">
        <ele>52.3</ele>
        <time>2023-02-08T13:24:01Z</time>
      </trkpt>
      <trkpt lat="49.78171" lon="2.17087">
        <ele>52.3</ele>
        <time>2023-02-08T13:24:03Z</time>
      </trkpt>
      <trkpt lat="49.78172" lon="2.17088">
        <ele>52.3</ele>
        <time>2023-02-08T13:24:04Z</time>
      </trkpt>
      <trkpt lat="49.78173" lon="2.17089">
        <ele>52.3</ele>
        <time>2023-02-08T13:24:05Z</time>
      </trkpt>
      <trkpt lat="49.78173" lon="2.1709">
        <ele>52.3</ele>
        <time>2023-02-08T13:24:06Z</time>
      </trkpt>
      <trkpt lat="49.78174" lon="2.17092">
        <ele>52.4</ele>
        <time>2023-02-08T13:24:07Z</time>
      </trkpt>
      <trkpt lat="49.78175" lon="2.17093">
        <ele>52.4</ele>
        <time>2023-02-08T13:24:08Z</time>
      </trkpt>
      <trkpt lat="49.78176" lon="2.17095">
        <ele>52.4</ele>
        <time>2023-02-08T13:24:09Z</time>
      </trkpt>
      <trkpt lat="49.78177" lon="2.17096">
        <ele>52.4</ele>
        <time>2023-02-08T13:24:10Z</time>
      </trkpt>
      <trkpt lat="49.78178" lon="2.17098">
        <ele>52.4</ele>
        <time>2023-02-08T13:24:12Z</time>
      </trkpt>
      <trkpt lat="49.78178" lon="2.17099">
        <ele>52.4</ele>
        <time>2023-02-08T13:24:13Z</time>
      </trkpt>
      <trkpt lat="49.78179" lon="2.17101">
        <ele>52.4</ele>
        <time>2023-02-08T13:24:14Z</time>
      </trkpt>
      <trkpt lat="49.7818" lon="2.17102">
        <ele>52.4</ele>
        <time>2023-02-08T13:24:15Z</time>
      </trkpt>
      <trkpt lat="49.78181" lon="2.17105">
        <ele>52.4</ele>
        <time>2023-02-08T13:24:16Z</time>
      </trkpt>
      <trkpt lat="49.78182" lon="2.17106">
        <ele>52.4</ele>
        <time>2023-02-08T13:24:18Z</time>
      </trkpt>
      <trkpt lat="49.78183" lon="2.17107">
        <ele>52.4</ele>
        <time>2023-02-08T13:24:19Z</time>
      </trkpt>
      <trkpt lat="49.78183" lon="2.17109">
        <ele>52.4</ele>
        <time>2023-02-08T13:24:20Z</time>
      </trkpt>
      <trkpt lat="49.78184" lon="2.1711">
        <ele>52.4</ele>
        <time>2023-02-08T13:24:21Z</time>
      </trkpt>
      <trkpt lat="49.78185" lon="2.17111">
        <ele>52.5</ele>
        <time>2023-02-08T13:24:22Z</time>
      </trkpt>
      <trkpt lat="49.78186" lon="2.17113">
        <ele>52.5</ele>
        <time>2023-02-08T13:24:23Z</time>
      </trkpt>
      <trkpt lat="49.78187" lon="2.17116">
        <ele>52.5</ele>
        <time>2023-02-08T13:24:25Z</time>
      </trkpt>
      <trkpt lat="49.78189" lon="2.17118">
        <ele>52.5</ele>
        <time>2023-02-08T13:24:26Z</time>
      </trkpt>
      <trkpt lat="49.78189" lon="2.17119">
        <ele>52.5</ele>
        <time>2023-02-08T13:24:27Z</time>
      </trkpt>
      <trkpt lat="49.7819" lon="2.1712">
        <ele>52.5</ele>
        <time>2023-02-08T13:24:28Z</time>
      </trkpt>
      <trkpt lat="49.7819" lon="2.17122">
        <ele>52.5</ele>
        <time>2023-02-08T13:24:30Z</time>
      </trkpt>
      <trkpt lat="49.78191" lon="2.17123">
        <ele>52.5</ele>
        <time>2023-02-08T13:24:31Z</time>
      </trkpt>
      <trkpt lat="49.78192" lon="2.17125">
        <ele>52.5</ele>
        <time>2023-02-08T13:24:32Z</time>
      </trkpt>
      <trkpt lat="49.78193" lon="2.17127">
        <ele>52.5</ele>
        <time>2023-02-08T13:24:33Z</time>
      </trkpt>
      <trkpt lat="49.78193" lon="2.17128">
        <ele>52.5</ele>
        <time>2023-02-08T13:24:34Z</time>
      </trkpt>
      <trkpt lat="49.78194" lon="2.17129">
        <ele>52.5</ele>
        <time>2023-02-08T13:24:36Z</time>
      </trkpt>
      <trkpt lat="49.78195" lon="2.17132">
        <ele>52.5</ele>
        <time>2023-02-08T13:24:37Z</time>
      </trkpt>
      <trkpt lat="49.78196" lon="2.17133">
        <ele>52.5</ele>
        <time>2023-02-08T13:24:38Z</time>
      </trkpt>
      <trkpt lat="49.78197" lon="2.17134">
        <ele>52.6</ele>
        <time>2023-02-08T13:24:39Z</time>
      </trkpt>
      <trkpt lat="49.78198" lon="2.17137">
        <ele>52.6</ele>
        <time>2023-02-08T13:24:41Z</time>
      </trkpt>
      <trkpt lat="49.78199" lon="2.17138">
        <ele>52.6</ele>
        <time>2023-02-08T13:24:42Z</time>
      </trkpt>
      <trkpt lat="49.78199" lon="2.17139">
        <ele>52.6</ele>
        <time>2023-02-08T13:24:43Z</time>
      </trkpt>
      <trkpt lat="49.782" lon="2.17141">
        <ele>52.6</ele>
        <time>2023-02-08T13:24:44Z</time>
      </trkpt>
      <trkpt lat="49.782" lon="2.17142">
        <ele>52.6</ele>
        <time>2023-02-08T13:24:46Z</time>
      </trkpt>
      <trkpt lat="49.78201" lon="2.17143">
        <ele>52.6</ele>
        <time>2023-02-08T13:24:47Z</time>
      </trkpt>
      <trkpt lat="49.78201" lon="2.17144">
        <ele>52.6</ele>
        <time>2023-02-08T13:24:48Z</time>
      </trkpt>
      <trkpt lat="49.78202" lon="2.17146">
        <ele>52.6</ele>
        <time>2023-02-08T13:24:49Z</time>
      </trkpt>
      <trkpt lat="49.78202" lon="2.17147">
        <ele>52.6</ele>
        <time>2023-02-08T13:24:50Z</time>
      </trkpt>
      <trkpt lat="49.78203" lon="2.17149">
        <ele>52.7</ele>
        <time>2023-02-08T13:24:51Z</time>
      </trkpt>
      <trkpt lat="49.78204" lon="2.17151">
        <ele>52.7</ele>
        <time>2023-02-08T13:24:52Z</time>
      </trkpt>
      <trkpt lat="49.78205" lon="2.17152">
        <ele>52.7</ele>
        <time>2023-02-08T13:24:53Z</time>
      </trkpt>
      <trkpt lat="49.78205" lon="2.17154">
        <ele>52.7</ele>
        <time>2023-02-08T13:24:54Z</time>
      </trkpt>
      <trkpt lat="49.78206" lon="2.17155">
        <ele>52.7</ele>
        <time>2023-02-08T13:24:55Z</time>
      </trkpt>
      <trkpt lat="49.78207" lon="2.17157">
        <ele>52.7</ele>
        <time>2023-02-08T13:24:56Z</time>
      </trkpt>
      <trkpt lat="49.78208" lon="2.17158">
        <ele>52.7</ele>
        <time>2023-02-08T13:24:57Z</time>
      </trkpt>
      <trkpt lat="49.78208" lon="2.1716">
        <ele>52.8</ele>
        <time>2023-02-08T13:24:58Z</time>
      </trkpt>
      <trkpt lat="49.78209" lon="2.17161">
        <ele>52.8</ele>
        <time>2023-02-08T13:25:00Z</time>
      </trkpt>
      <trkpt lat="49.78209" lon="2.17162">
        <ele>52.8</ele>
        <time>2023-02-08T13:25:01Z</time>
      </trkpt>
      <trkpt lat="49.7821" lon="2.17165">
        <ele>52.8</ele>
        <time>2023-02-08T13:25:02Z</time>
      </trkpt>
      <trkpt lat="49.78211" lon="2.17166">
        <ele>52.8</ele>
        <time>2023-02-08T13:25:03Z</time>
      </trkpt>
      <trkpt lat="49.78211" lon="2.17167">
        <ele>52.8</ele>
        <time>2023-02-08T13:25:04Z</time>
      </trkpt>
      <trkpt lat="49.78212" lon="2.1717">
        <ele>52.8</ele>
        <time>2023-02-08T13:25:05Z</time>
      </trkpt>
      <trkpt lat="49.78213" lon="2.17171">
        <ele>52.8</ele>
        <time>2023-02-08T13:25:06Z</time>
      </trkpt>
      <trkpt lat="49.78213" lon="2.17173">
        <ele>52.9</ele>
        <time>2023-02-08T13:25:07Z</time>
      </trkpt>
      <trkpt lat="49.78214" lon="2.17175">
        <ele>52.9</ele>
        <time>2023-02-08T13:25:09Z</time>
      </trkpt>
      <trkpt lat="49.78214" lon="2.17176">
        <ele>52.9</ele>
        <time>2023-02-08T13:25:10Z</time>
      </trkpt>
      <trkpt lat="49.78215" lon="2.17177">
        <ele>52.9</ele>
        <time>2023-02-08T13:25:11Z</time>
      </trkpt>
      <trkpt lat="49.78215" lon="2.17178">
        <ele>52.9</ele>
        <time>2023-02-08T13:25:12Z</time>
      </trkpt>
      <trkpt lat="49.78216" lon="2.1718">
        <ele>52.9</ele>
        <time>2023-02-08T13:25:13Z</time>
      </trkpt>
      <trkpt lat="49.78217" lon="2.17181">
        <ele>52.9</ele>
        <time>2023-02-08T13:25:14Z</time>
      </trkpt>
      <trkpt lat="49.78218" lon="2.17183">
        <ele>52.9</ele>
        <time>2023-02-08T13:25:15Z</time>
      </trkpt>
      <trkpt lat="49.78219" lon="2.17184">
        <ele>53</ele>
        <time>2023-02-08T13:25:16Z</time>
      </trkpt>
      <trkpt lat="49.7822" lon="2.17187">
        <ele>53</ele>
        <time>2023-02-08T13:25:17Z</time>
      </trkpt>
      <trkpt lat="49.78221" lon="2.17188">
        <ele>53</ele>
        <time>2023-02-08T13:25:18Z</time>
      </trkpt>
      <trkpt lat="49.78223" lon="2.1719">
        <ele>53</ele>
        <time>2023-02-08T13:25:20Z</time>
      </trkpt>
      <trkpt lat="49.78223" lon="2.17191">
        <ele>53</ele>
        <time>2023-02-08T13:25:21Z</time>
      </trkpt>
      <trkpt lat="49.78224" lon="2.17191">
        <ele>53</ele>
        <time>2023-02-08T13:25:22Z</time>
      </trkpt>
      <trkpt lat="49.78225" lon="2.17193">
        <ele>53.1</ele>
        <time>2023-02-08T13:25:23Z</time>
      </trkpt>
      <trkpt lat="49.78226" lon="2.17195">
        <ele>53.1</ele>
        <time>2023-02-08T13:25:24Z</time>
      </trkpt>
      <trkpt lat="49.78227" lon="2.17197">
        <ele>53.1</ele>
        <time>2023-02-08T13:25:25Z</time>
      </trkpt>
      <trkpt lat="49.78228" lon="2.17199">
        <ele>53.1</ele>
        <time>2023-02-08T13:25:26Z</time>
      </trkpt>
      <trkpt lat="49.78229" lon="2.172">
        <ele>53.1</ele>
        <time>2023-02-08T13:25:27Z</time>
      </trkpt>
      <trkpt lat="49.78229" lon="2.17201">
        <ele>53.2</ele>
        <time>2023-02-08T13:25:28Z</time>
      </trkpt>
      <trkpt lat="49.7823" lon="2.17202">
        <ele>53.2</ele>
        <time>2023-02-08T13:25:29Z</time>
      </trkpt>
      <trkpt lat="49.78231" lon="2.17204">
        <ele>53.2</ele>
        <time>2023-02-08T13:25:31Z</time>
      </trkpt>
      <trkpt lat="49.78231" lon="2.17205">
        <ele>53.2</ele>
        <time>2023-02-08T13:25:32Z</time>
      </trkpt>
      <trkpt lat="49.78232" lon="2.17207">
        <ele>53.2</ele>
        <time>2023-02-08T13:25:33Z</time>
      </trkpt>
      <trkpt lat="49.78232" lon="2.17208">
        <ele>53.2</ele>
        <time>2023-02-08T13:25:34Z</time>
      </trkpt>
      <trkpt lat="49.78233" lon="2.17212">
        <ele>53.2</ele>
        <time>2023-02-08T13:25:35Z</time>
      </trkpt>
      <trkpt lat="49.78233" lon="2.17213">
        <ele>53.2</ele>
        <time>2023-02-08T13:25:36Z</time>
      </trkpt>
      <trkpt lat="49.78234" lon="2.17215">
        <ele>53.2</ele>
        <time>2023-02-08T13:25:37Z</time>
      </trkpt>
      <trkpt lat="49.78234" lon="2.17217">
        <ele>53.2</ele>
        <time>2023-02-08T13:25:38Z</time>
      </trkpt>
      <trkpt lat="49.78234" lon="2.17219">
        <ele>53.3</ele>
        <time>2023-02-08T13:25:39Z</time>
      </trkpt>
      <trkpt lat="49.78234" lon="2.17221">
        <ele>53.3</ele>
        <time>2023-02-08T13:25:41Z</time>
      </trkpt>
      <trkpt lat="49.78235" lon="2.17223">
        <ele>53.3</ele>
        <time>2023-02-08T13:25:42Z</time>
      </trkpt>
      <trkpt lat="49.78235" lon="2.17225">
        <ele>53.3</ele>
        <time>2023-02-08T13:25:43Z</time>
      </trkpt>
      <trkpt lat="49.78236" lon="2.17227">
        <ele>53.3</ele>
        <time>2023-02-08T13:25:44Z</time>
      </trkpt>
      <trkpt lat="49.78236" lon="2.17229">
        <ele>53.3</ele>
        <time>2023-02-08T13:25:45Z</time>
      </trkpt>
      <trkpt lat="49.78237" lon="2.17231">
        <ele>53.3</ele>
        <time>2023-02-08T13:25:46Z</time>
      </trkpt>
      <trkpt lat="49.78238" lon="2.17233">
        <ele>53.3</ele>
        <time>2023-02-08T13:25:47Z</time>
      </trkpt>
      <trkpt lat="49.78238" lon="2.17234">
        <ele>53.3</ele>
        <time>2023-02-08T13:25:48Z</time>
      </trkpt>
      <trkpt lat="49.78238" lon="2.17236">
        <ele>53.3</ele>
        <time>2023-02-08T13:25:50Z</time>
      </trkpt>
      <trkpt lat="49.78239" lon="2.17237">
        <ele>53.3</ele>
        <time>2023-02-08T13:25:51Z</time>
      </trkpt>
      <trkpt lat="49.7824" lon="2.17239">
        <ele>53.3</ele>
        <time>2023-02-08T13:25:52Z</time>
      </trkpt>
      <trkpt lat="49.78241" lon="2.17241">
        <ele>53.2</ele>
        <time>2023-02-08T13:25:53Z</time>
      </trkpt>
      <trkpt lat="49.78242" lon="2.17244">
        <ele>53.2</ele>
        <time>2023-02-08T13:25:54Z</time>
      </trkpt>
      <trkpt lat="49.78242" lon="2.17245">
        <ele>53.2</ele>
        <time>2023-02-08T13:25:55Z</time>
      </trkpt>
      <trkpt lat="49.78242" lon="2.17246">
        <ele>53.2</ele>
        <time>2023-02-08T13:25:56Z</time>
      </trkpt>
      <trkpt lat="49.78243" lon="2.17249">
        <ele>53.2</ele>
        <time>2023-02-08T13:25:57Z</time>
      </trkpt>
      <trkpt lat="49.78243" lon="2.1725">
        <ele>53.2</ele>
        <time>2023-02-08T13:25:59Z</time>
      </trkpt>
      <trkpt lat="49.78243" lon="2.17252">
        <ele>53.2</ele>
        <time>2023-02-08T13:26:00Z</time>
      </trkpt>
      <trkpt lat="49.78244" lon="2.17254">
        <ele>53.2</ele>
        <time>2023-02-08T13:26:01Z</time>
      </trkpt>
      <trkpt lat="49.78244" lon="2.17256">
        <ele>53.2</ele>
        <time>2023-02-08T13:26:02Z</time>
      </trkpt>
      <trkpt lat="49.78244" lon="2.17257">
        <ele>53.2</ele>
        <time>2023-02-08T13:26:03Z</time>
      </trkpt>
      <trkpt lat="49.78244" lon="2.1726">
        <ele>53.2</ele>
        <time>2023-02-08T13:26:04Z</time>
      </trkpt>
      <trkpt lat="49.78245" lon="2.17262">
        <ele>53.2</ele>
        <time>2023-02-08T13:26:05Z</time>
      </trkpt>
      <trkpt lat="49.78245" lon="2.17263">
        <ele>53.2</ele>
        <time>2023-02-08T13:26:07Z</time>
      </trkpt>
      <trkpt lat="49.78245" lon="2.17265">
        <ele>53.2</ele>
        <time>2023-02-08T13:26:08Z</time>
      </trkpt>
      <trkpt lat="49.78245" lon="2.17266">
        <ele>53.2</ele>
        <time>2023-02-08T13:26:09Z</time>
      </trkpt>
      <trkpt lat="49.78246" lon="2.17267">
        <ele>53.2</ele>
        <time>2023-02-08T13:26:10Z</time>
      </trkpt>
      <trkpt lat="49.78247" lon="2.1727">
        <ele>53.2</ele>
        <time>2023-02-08T13:26:11Z</time>
      </trkpt>
      <trkpt lat="49.78247" lon="2.17272">
        <ele>53.2</ele>
        <time>2023-02-08T13:26:12Z</time>
      </trkpt>
      <trkpt lat="49.78248" lon="2.17273">
        <ele>53.2</ele>
        <time>2023-02-08T13:26:13Z</time>
      </trkpt>
      <trkpt lat="49.78249" lon="2.17274">
        <ele>53.2</ele>
        <time>2023-02-08T13:26:14Z</time>
      </trkpt>
      <trkpt lat="49.78249" lon="2.17276">
        <ele>53.2</ele>
        <time>2023-02-08T13:26:16Z</time>
      </trkpt>
      <trkpt lat="49.7825" lon="2.17277">
        <ele>53.2</ele>
        <time>2023-02-08T13:26:17Z</time>
      </trkpt>
      <trkpt lat="49.78251" lon="2.1728">
        <ele>53.2</ele>
        <time>2023-02-08T13:26:18Z</time>
      </trkpt>
      <trkpt lat="49.78252" lon="2.17281">
        <ele>53.2</ele>
        <time>2023-02-08T13:26:19Z</time>
      </trkpt>
      <trkpt lat="49.78252" lon="2.17281">
        <ele>53.2</ele>
        <time>2023-02-08T13:26:20Z</time>
      </trkpt>
      <trkpt lat="49.78253" lon="2.17283">
        <ele>53.2</ele>
        <time>2023-02-08T13:26:21Z</time>
      </trkpt>
      <trkpt lat="49.78254" lon="2.17285">
        <ele>53.2</ele>
        <time>2023-02-08T13:26:22Z</time>
      </trkpt>
      <trkpt lat="49.78255" lon="2.17287">
        <ele>53.2</ele>
        <time>2023-02-08T13:26:23Z</time>
      </trkpt>
      <trkpt lat="49.78256" lon="2.17288">
        <ele>53.2</ele>
        <time>2023-02-08T13:26:24Z</time>
      </trkpt>
      <trkpt lat="49.78257" lon="2.17291">
        <ele>53.2</ele>
        <time>2023-02-08T13:26:26Z</time>
      </trkpt>
      <trkpt lat="49.78258" lon="2.17292">
        <ele>53.2</ele>
        <time>2023-02-08T13:26:27Z</time>
      </trkpt>
      <trkpt lat="49.78258" lon="2.17293">
        <ele>53.2</ele>
        <time>2023-02-08T13:26:28Z</time>
      </trkpt>
      <trkpt lat="49.78259" lon="2.17296">
        <ele>53.2</ele>
        <time>2023-02-08T13:26:29Z</time>
      </trkpt>
      <trkpt lat="49.7826" lon="2.17297">
        <ele>53.2</ele>
        <time>2023-02-08T13:26:30Z</time>
      </trkpt>
      <trkpt lat="49.7826" lon="2.17298">
        <ele>53.2</ele>
        <time>2023-02-08T13:26:31Z</time>
      </trkpt>
      <trkpt lat="49.78261" lon="2.17301">
        <ele>53.2</ele>
        <time>2023-02-08T13:26:32Z</time>
      </trkpt>
      <trkpt lat="49.78262" lon="2.17303">
        <ele>53.2</ele>
        <time>2023-02-08T13:26:34Z</time>
      </trkpt>
      <trkpt lat="49.78262" lon="2.17305">
        <ele>53.2</ele>
        <time>2023-02-08T13:26:35Z</time>
      </trkpt>
      <trkpt lat="49.78263" lon="2.17306">
        <ele>53.2</ele>
        <time>2023-02-08T13:26:36Z</time>
      </trkpt>
      <trkpt lat="49.78263" lon="2.17308">
        <ele>53.2</ele>
        <time>2023-02-08T13:26:37Z</time>
      </trkpt>
      <trkpt lat="49.78264" lon="2.1731">
        <ele>53.2</ele>
        <time>2023-02-08T13:26:38Z</time>
      </trkpt>
      <trkpt lat="49.78265" lon="2.17312">
        <ele>53.2</ele>
        <time>2023-02-08T13:26:40Z</time>
      </trkpt>
      <trkpt lat="49.78266" lon="2.17314">
        <ele>53.2</ele>
        <time>2023-02-08T13:26:41Z</time>
      </trkpt>
      <trkpt lat="49.78267" lon="2.17316">
        <ele>53.2</ele>
        <time>2023-02-08T13:26:42Z</time>
      </trkpt>
      <trkpt lat="49.78268" lon="2.17319">
        <ele>53.2</ele>
        <time>2023-02-08T13:26:44Z</time>
      </trkpt>
      <trkpt lat="49.78269" lon="2.1732">
        <ele>53.2</ele>
        <time>2023-02-08T13:26:45Z</time>
      </trkpt>
      <trkpt lat="49.78269" lon="2.17321">
        <ele>53.2</ele>
        <time>2023-02-08T13:26:46Z</time>
      </trkpt>
      <trkpt lat="49.78271" lon="2.17324">
        <ele>53.3</ele>
        <time>2023-02-08T13:26:47Z</time>
      </trkpt>
      <trkpt lat="49.78272" lon="2.17325">
        <ele>53.3</ele>
        <time>2023-02-08T13:26:48Z</time>
      </trkpt>
      <trkpt lat="49.78272" lon="2.17326">
        <ele>53.3</ele>
        <time>2023-02-08T13:26:50Z</time>
      </trkpt>
      <trkpt lat="49.78273" lon="2.17328">
        <ele>53.3</ele>
        <time>2023-02-08T13:26:51Z</time>
      </trkpt>
      <trkpt lat="49.78274" lon="2.17329">
        <ele>53.3</ele>
        <time>2023-02-08T13:26:52Z</time>
      </trkpt>
      <trkpt lat="49.78275" lon="2.17332">
        <ele>53.3</ele>
        <time>2023-02-08T13:26:53Z</time>
      </trkpt>
      <trkpt lat="49.78276" lon="2.17333">
        <ele>53.3</ele>
        <time>2023-02-08T13:26:54Z</time>
      </trkpt>
      <trkpt lat="49.78276" lon="2.17333">
        <ele>53.3</ele>
        <time>2023-02-08T13:26:55Z</time>
      </trkpt>
      <trkpt lat="49.78277" lon="2.17335">
        <ele>53.3</ele>
        <time>2023-02-08T13:26:57Z</time>
      </trkpt>
      <trkpt lat="49.78278" lon="2.17337">
        <ele>53.2</ele>
        <time>2023-02-08T13:26:58Z</time>
      </trkpt>
      <trkpt lat="49.78279" lon="2.17338">
        <ele>53.2</ele>
        <time>2023-02-08T13:26:59Z</time>
      </trkpt>
      <trkpt lat="49.7828" lon="2.17339">
        <ele>53.2</ele>
        <time>2023-02-08T13:27:00Z</time>
      </trkpt>
      <trkpt lat="49.78281" lon="2.1734">
        <ele>53.2</ele>
        <time>2023-02-08T13:27:01Z</time>
      </trkpt>
      <trkpt lat="49.78281" lon="2.17342">
        <ele>53.2</ele>
        <time>2023-02-08T13:27:02Z</time>
      </trkpt>
      <trkpt lat="49.78282" lon="2.17343">
        <ele>53.2</ele>
        <time>2023-02-08T13:27:03Z</time>
      </trkpt>
      <trkpt lat="49.78282" lon="2.17344">
        <ele>53.2</ele>
        <time>2023-02-08T13:27:04Z</time>
      </trkpt>
      <trkpt lat="49.78284" lon="2.17347">
        <ele>53.2</ele>
        <time>2023-02-08T13:27:06Z</time>
      </trkpt>
      <trkpt lat="49.78284" lon="2.17348">
        <ele>53.3</ele>
        <time>2023-02-08T13:27:07Z</time>
      </trkpt>
      <trkpt lat="49.78285" lon="2.17349">
        <ele>53.3</ele>
        <time>2023-02-08T13:27:08Z</time>
      </trkpt>
      <trkpt lat="49.78285" lon="2.1735">
        <ele>53.3</ele>
        <time>2023-02-08T13:27:09Z</time>
      </trkpt>
      <trkpt lat="49.78286" lon="2.17351">
        <ele>53.3</ele>
        <time>2023-02-08T13:27:10Z</time>
      </trkpt>
      <trkpt lat="49.78287" lon="2.17352">
        <ele>53.3</ele>
        <time>2023-02-08T13:27:11Z</time>
      </trkpt>
      <trkpt lat="49.78287" lon="2.17353">
        <ele>53.3</ele>
        <time>2023-02-08T13:27:12Z</time>
      </trkpt>
      <trkpt lat="49.78289" lon="2.17355">
        <ele>53.3</ele>
        <time>2023-02-08T13:27:14Z</time>
      </trkpt>
      <trkpt lat="49.7829" lon="2.17356">
        <ele>53.3</ele>
        <time>2023-02-08T13:27:15Z</time>
      </trkpt>
      <trkpt lat="49.78291" lon="2.17358">
        <ele>53.3</ele>
        <time>2023-02-08T13:27:16Z</time>
      </trkpt>
      <trkpt lat="49.78292" lon="2.17359">
        <ele>53.3</ele>
        <time>2023-02-08T13:27:18Z</time>
      </trkpt>
      <trkpt lat="49.78294" lon="2.17362">
        <ele>53.3</ele>
        <time>2023-02-08T13:27:19Z</time>
      </trkpt>
      <trkpt lat="49.78295" lon="2.17363">
        <ele>53.4</ele>
        <time>2023-02-08T13:27:20Z</time>
      </trkpt>
      <trkpt lat="49.78296" lon="2.17364">
        <ele>53.4</ele>
        <time>2023-02-08T13:27:21Z</time>
      </trkpt>
      <trkpt lat="49.78297" lon="2.17365">
        <ele>53.4</ele>
        <time>2023-02-08T13:27:23Z</time>
      </trkpt>
      <trkpt lat="49.78298" lon="2.17366">
        <ele>53.4</ele>
        <time>2023-02-08T13:27:24Z</time>
      </trkpt>
      <trkpt lat="49.78299" lon="2.17367">
        <ele>53.4</ele>
        <time>2023-02-08T13:27:25Z</time>
      </trkpt>
      <trkpt lat="49.783" lon="2.17369">
        <ele>53.4</ele>
        <time>2023-02-08T13:27:26Z</time>
      </trkpt>
      <trkpt lat="49.78301" lon="2.1737">
        <ele>53.5</ele>
        <time>2023-02-08T13:27:27Z</time>
      </trkpt>
      <trkpt lat="49.78302" lon="2.17371">
        <ele>53.5</ele>
        <time>2023-02-08T13:27:28Z</time>
      </trkpt>
      <trkpt lat="49.78302" lon="2.17372">
        <ele>53.5</ele>
        <time>2023-02-08T13:27:29Z</time>
      </trkpt>
      <trkpt lat="49.78303" lon="2.17374">
        <ele>53.5</ele>
        <time>2023-02-08T13:27:30Z</time>
      </trkpt>
      <trkpt lat="49.78304" lon="2.17375">
        <ele>53.5</ele>
        <time>2023-02-08T13:27:31Z</time>
      </trkpt>
      <trkpt lat="49.78305" lon="2.17376">
        <ele>53.6</ele>
        <time>2023-02-08T13:27:33Z</time>
      </trkpt>
      <trkpt lat="49.78306" lon="2.17377">
        <ele>53.6</ele>
        <time>2023-02-08T13:27:34Z</time>
      </trkpt>
      <trkpt lat="49.78307" lon="2.17378">
        <ele>53.6</ele>
        <time>2023-02-08T13:27:35Z</time>
      </trkpt>
      <trkpt lat="49.78308" lon="2.1738">
        <ele>53.7</ele>
        <time>2023-02-08T13:27:36Z</time>
      </trkpt>
      <trkpt lat="49.78309" lon="2.17381">
        <ele>53.7</ele>
        <time>2023-02-08T13:27:37Z</time>
      </trkpt>
      <trkpt lat="49.7831" lon="2.17382">
        <ele>53.7</ele>
        <time>2023-02-08T13:27:38Z</time>
      </trkpt>
      <trkpt lat="49.78311" lon="2.17384">
        <ele>53.8</ele>
        <time>2023-02-08T13:27:39Z</time>
      </trkpt>
      <trkpt lat="49.78312" lon="2.17385">
        <ele>53.8</ele>
        <time>2023-02-08T13:27:40Z</time>
      </trkpt>
      <trkpt lat="49.78313" lon="2.17386">
        <ele>53.8</ele>
        <time>2023-02-08T13:27:41Z</time>
      </trkpt>
      <trkpt lat="49.78314" lon="2.17387">
        <ele>53.9</ele>
        <time>2023-02-08T13:27:43Z</time>
      </trkpt>
      <trkpt lat="49.78314" lon="2.17389">
        <ele>53.9</ele>
        <time>2023-02-08T13:27:44Z</time>
      </trkpt>
      <trkpt lat="49.78315" lon="2.1739">
        <ele>54</ele>
        <time>2023-02-08T13:27:45Z</time>
      </trkpt>
      <trkpt lat="49.78317" lon="2.17392">
        <ele>54</ele>
        <time>2023-02-08T13:27:46Z</time>
      </trkpt>
      <trkpt lat="49.78317" lon="2.17393">
        <ele>54.1</ele>
        <time>2023-02-08T13:27:47Z</time>
      </trkpt>
      <trkpt lat="49.78318" lon="2.17394">
        <ele>54.1</ele>
        <time>2023-02-08T13:27:48Z</time>
      </trkpt>
      <trkpt lat="49.78319" lon="2.17394">
        <ele>54.1</ele>
        <time>2023-02-08T13:27:50Z</time>
      </trkpt>
      <trkpt lat="49.78319" lon="2.17395">
        <ele>54.1</ele>
        <time>2023-02-08T13:27:51Z</time>
      </trkpt>
      <trkpt lat="49.7832" lon="2.17397">
        <ele>54.2</ele>
        <time>2023-02-08T13:27:52Z</time>
      </trkpt>
      <trkpt lat="49.7832" lon="2.17398">
        <ele>54.2</ele>
        <time>2023-02-08T13:27:53Z</time>
      </trkpt>
      <trkpt lat="49.78321" lon="2.17399">
        <ele>54.3</ele>
        <time>2023-02-08T13:27:54Z</time>
      </trkpt>
      <trkpt lat="49.78322" lon="2.174">
        <ele>54.3</ele>
        <time>2023-02-08T13:27:56Z</time>
      </trkpt>
      <trkpt lat="49.78323" lon="2.17401">
        <ele>54.3</ele>
        <time>2023-02-08T13:27:57Z</time>
      </trkpt>
      <trkpt lat="49.78323" lon="2.17401">
        <ele>54.3</ele>
        <time>2023-02-08T13:27:58Z</time>
      </trkpt>
      <trkpt lat="49.78324" lon="2.17402">
        <ele>54.4</ele>
        <time>2023-02-08T13:27:59Z</time>
      </trkpt>
      <trkpt lat="49.78325" lon="2.17403">
        <ele>54.4</ele>
        <time>2023-02-08T13:28:00Z</time>
      </trkpt>
      <trkpt lat="49.78326" lon="2.17404">
        <ele>54.4</ele>
        <time>2023-02-08T13:28:01Z</time>
      </trkpt>
      <trkpt lat="49.78327" lon="2.17405">
        <ele>54.5</ele>
        <time>2023-02-08T13:28:02Z</time>
      </trkpt>
      <trkpt lat="49.78328" lon="2.17406">
        <ele>54.5</ele>
        <time>2023-02-08T13:28:03Z</time>
      </trkpt>
      <trkpt lat="49.78328" lon="2.17407">
        <ele>54.5</ele>
        <time>2023-02-08T13:28:05Z</time>
      </trkpt>
      <trkpt lat="49.78329" lon="2.17408">
        <ele>54.5</ele>
        <time>2023-02-08T13:28:06Z</time>
      </trkpt>
      <trkpt lat="49.7833" lon="2.17409">
        <ele>54.6</ele>
        <time>2023-02-08T13:28:07Z</time>
      </trkpt>
      <trkpt lat="49.78331" lon="2.17411">
        <ele>54.6</ele>
        <time>2023-02-08T13:28:08Z</time>
      </trkpt>
      <trkpt lat="49.78332" lon="2.17412">
        <ele>54.7</ele>
        <time>2023-02-08T13:28:09Z</time>
      </trkpt>
      <trkpt lat="49.78333" lon="2.17413">
        <ele>54.7</ele>
        <time>2023-02-08T13:28:10Z</time>
      </trkpt>
      <trkpt lat="49.78334" lon="2.17414">
        <ele>54.7</ele>
        <time>2023-02-08T13:28:11Z</time>
      </trkpt>
      <trkpt lat="49.78334" lon="2.17414">
        <ele>54.7</ele>
        <time>2023-02-08T13:28:13Z</time>
      </trkpt>
      <trkpt lat="49.78336" lon="2.17415">
        <ele>54.8</ele>
        <time>2023-02-08T13:28:14Z</time>
      </trkpt>
      <trkpt lat="49.78337" lon="2.17417">
        <ele>54.8</ele>
        <time>2023-02-08T13:28:15Z</time>
      </trkpt>
      <trkpt lat="49.78338" lon="2.17418">
        <ele>54.8</ele>
        <time>2023-02-08T13:28:16Z</time>
      </trkpt>
      <trkpt lat="49.78339" lon="2.17419">
        <ele>54.8</ele>
        <time>2023-02-08T13:28:17Z</time>
      </trkpt>
      <trkpt lat="49.7834" lon="2.17421">
        <ele>54.8</ele>
        <time>2023-02-08T13:28:18Z</time>
      </trkpt>
      <trkpt lat="49.78341" lon="2.17422">
        <ele>54.9</ele>
        <time>2023-02-08T13:28:19Z</time>
      </trkpt>
      <trkpt lat="49.78341" lon="2.17423">
        <ele>54.9</ele>
        <time>2023-02-08T13:28:20Z</time>
      </trkpt>
      <trkpt lat="49.78342" lon="2.17424">
        <ele>54.9</ele>
        <time>2023-02-08T13:28:22Z</time>
      </trkpt>
      <trkpt lat="49.78342" lon="2.17425">
        <ele>54.9</ele>
        <time>2023-02-08T13:28:23Z</time>
      </trkpt>
      <trkpt lat="49.78343" lon="2.17426">
        <ele>54.9</ele>
        <time>2023-02-08T13:28:24Z</time>
      </trkpt>
      <trkpt lat="49.78344" lon="2.17427">
        <ele>54.9</ele>
        <time>2023-02-08T13:28:25Z</time>
      </trkpt>
      <trkpt lat="49.78345" lon="2.17428">
        <ele>54.9</ele>
        <time>2023-02-08T13:28:26Z</time>
      </trkpt>
      <trkpt lat="49.78345" lon="2.17428">
        <ele>54.9</ele>
        <time>2023-02-08T13:28:28Z</time>
      </trkpt>
      <trkpt lat="49.78346" lon="2.1743">
        <ele>54.9</ele>
        <time>2023-02-08T13:28:29Z</time>
      </trkpt>
      <trkpt lat="49.78346" lon="2.17431">
        <ele>54.9</ele>
        <time>2023-02-08T13:28:30Z</time>
      </trkpt>
      <trkpt lat="49.78346" lon="2.17432">
        <ele>54.9</ele>
        <time>2023-02-08T13:28:31Z</time>
      </trkpt>
      <trkpt lat="49.78347" lon="2.17433">
        <ele>54.9</ele>
        <time>2023-02-08T13:28:32Z</time>
      </trkpt>
      <trkpt lat="49.78347" lon="2.17434">
        <ele>54.9</ele>
        <time>2023-02-08T13:28:33Z</time>
      </trkpt>
      <trkpt lat="49.78348" lon="2.17436">
        <ele>54.8</ele>
        <time>2023-02-08T13:28:34Z</time>
      </trkpt>
      <trkpt lat="49.78349" lon="2.17438">
        <ele>54.8</ele>
        <time>2023-02-08T13:28:35Z</time>
      </trkpt>
      <trkpt lat="49.78349" lon="2.17439">
        <ele>54.8</ele>
        <time>2023-02-08T13:28:37Z</time>
      </trkpt>
      <trkpt lat="49.7835" lon="2.1744">
        <ele>54.8</ele>
        <time>2023-02-08T13:28:38Z</time>
      </trkpt>
      <trkpt lat="49.7835" lon="2.17442">
        <ele>54.8</ele>
        <time>2023-02-08T13:28:39Z</time>
      </trkpt>
      <trkpt lat="49.78351" lon="2.17443">
        <ele>54.8</ele>
        <time>2023-02-08T13:28:40Z</time>
      </trkpt>
      <trkpt lat="49.78352" lon="2.17444">
        <ele>54.8</ele>
        <time>2023-02-08T13:28:41Z</time>
      </trkpt>
      <trkpt lat="49.78353" lon="2.17445">
        <ele>54.8</ele>
        <time>2023-02-08T13:28:42Z</time>
      </trkpt>
      <trkpt lat="49.78354" lon="2.17446">
        <ele>54.7</ele>
        <time>2023-02-08T13:28:43Z</time>
      </trkpt>
      <trkpt lat="49.78355" lon="2.17448">
        <ele>54.7</ele>
        <time>2023-02-08T13:28:44Z</time>
      </trkpt>
      <trkpt lat="49.78357" lon="2.1745">
        <ele>54.7</ele>
        <time>2023-02-08T13:28:47Z</time>
      </trkpt>
      <trkpt lat="49.78357" lon="2.17451">
        <ele>54.7</ele>
        <time>2023-02-08T13:28:48Z</time>
      </trkpt>
      <trkpt lat="49.78358" lon="2.17453">
        <ele>54.7</ele>
        <time>2023-02-08T13:28:49Z</time>
      </trkpt>
      <trkpt lat="49.78359" lon="2.17455">
        <ele>54.7</ele>
        <time>2023-02-08T13:28:50Z</time>
      </trkpt>
      <trkpt lat="49.7836" lon="2.17456">
        <ele>54.7</ele>
        <time>2023-02-08T13:28:51Z</time>
      </trkpt>
      <trkpt lat="49.78361" lon="2.17457">
        <ele>54.6</ele>
        <time>2023-02-08T13:28:52Z</time>
      </trkpt>
      <trkpt lat="49.78362" lon="2.17459">
        <ele>54.6</ele>
        <time>2023-02-08T13:28:53Z</time>
      </trkpt>
      <trkpt lat="49.78363" lon="2.1746">
        <ele>54.6</ele>
        <time>2023-02-08T13:28:54Z</time>
      </trkpt>
      <trkpt lat="49.78364" lon="2.17462">
        <ele>54.6</ele>
        <time>2023-02-08T13:28:56Z</time>
      </trkpt>
      <trkpt lat="49.78365" lon="2.17463">
        <ele>54.6</ele>
        <time>2023-02-08T13:28:57Z</time>
      </trkpt>
      <trkpt lat="49.78366" lon="2.17464">
        <ele>54.6</ele>
        <time>2023-02-08T13:28:58Z</time>
      </trkpt>
      <trkpt lat="49.78367" lon="2.17465">
        <ele>54.6</ele>
        <time>2023-02-08T13:28:59Z</time>
      </trkpt>
      <trkpt lat="49.78368" lon="2.17467">
        <ele>54.5</ele>
        <time>2023-02-08T13:29:00Z</time>
      </trkpt>
      <trkpt lat="49.78369" lon="2.17468">
        <ele>54.5</ele>
        <time>2023-02-08T13:29:01Z</time>
      </trkpt>
      <trkpt lat="49.7837" lon="2.1747">
        <ele>54.5</ele>
        <time>2023-02-08T13:29:02Z</time>
      </trkpt>
      <trkpt lat="49.78371" lon="2.17471">
        <ele>54.5</ele>
        <time>2023-02-08T13:29:03Z</time>
      </trkpt>
      <trkpt lat="49.78373" lon="2.17473">
        <ele>54.5</ele>
        <time>2023-02-08T13:29:04Z</time>
      </trkpt>
      <trkpt lat="49.78374" lon="2.17476">
        <ele>54.5</ele>
        <time>2023-02-08T13:29:06Z</time>
      </trkpt>
      <trkpt lat="49.78375" lon="2.17477">
        <ele>54.5</ele>
        <time>2023-02-08T13:29:07Z</time>
      </trkpt>
      <trkpt lat="49.78376" lon="2.17477">
        <ele>54.5</ele>
        <time>2023-02-08T13:29:08Z</time>
      </trkpt>
      <trkpt lat="49.78377" lon="2.17479">
        <ele>54.5</ele>
        <time>2023-02-08T13:29:09Z</time>
      </trkpt>
      <trkpt lat="49.78378" lon="2.1748">
        <ele>54.4</ele>
        <time>2023-02-08T13:29:10Z</time>
      </trkpt>
      <trkpt lat="49.78379" lon="2.17482">
        <ele>54.4</ele>
        <time>2023-02-08T13:29:11Z</time>
      </trkpt>
      <trkpt lat="49.7838" lon="2.17482">
        <ele>54.4</ele>
        <time>2023-02-08T13:29:12Z</time>
      </trkpt>
      <trkpt lat="49.78381" lon="2.17484">
        <ele>54.4</ele>
        <time>2023-02-08T13:29:14Z</time>
      </trkpt>
      <trkpt lat="49.78382" lon="2.17484">
        <ele>54.4</ele>
        <time>2023-02-08T13:29:15Z</time>
      </trkpt>
      <trkpt lat="49.78383" lon="2.17485">
        <ele>54.4</ele>
        <time>2023-02-08T13:29:16Z</time>
      </trkpt>
      <trkpt lat="49.78384" lon="2.17486">
        <ele>54.4</ele>
        <time>2023-02-08T13:29:17Z</time>
      </trkpt>
      <trkpt lat="49.78385" lon="2.17488">
        <ele>54.4</ele>
        <time>2023-02-08T13:29:18Z</time>
      </trkpt>
      <trkpt lat="49.78386" lon="2.17489">
        <ele>54.4</ele>
        <time>2023-02-08T13:29:19Z</time>
      </trkpt>
      <trkpt lat="49.78387" lon="2.1749">
        <ele>54.4</ele>
        <time>2023-02-08T13:29:20Z</time>
      </trkpt>
      <trkpt lat="49.78388" lon="2.17491">
        <ele>54.4</ele>
        <time>2023-02-08T13:29:22Z</time>
      </trkpt>
      <trkpt lat="49.78389" lon="2.17492">
        <ele>54.4</ele>
        <time>2023-02-08T13:29:23Z</time>
      </trkpt>
      <trkpt lat="49.7839" lon="2.17493">
        <ele>54.4</ele>
        <time>2023-02-08T13:29:24Z</time>
      </trkpt>
      <trkpt lat="49.7839" lon="2.17494">
        <ele>54.4</ele>
        <time>2023-02-08T13:29:25Z</time>
      </trkpt>
      <trkpt lat="49.78391" lon="2.17495">
        <ele>54.4</ele>
        <time>2023-02-08T13:29:26Z</time>
      </trkpt>
      <trkpt lat="49.78391" lon="2.17497">
        <ele>54.4</ele>
        <time>2023-02-08T13:29:27Z</time>
      </trkpt>
      <trkpt lat="49.78392" lon="2.17498">
        <ele>54.4</ele>
        <time>2023-02-08T13:29:28Z</time>
      </trkpt>
      <trkpt lat="49.78393" lon="2.17499">
        <ele>54.4</ele>
        <time>2023-02-08T13:29:30Z</time>
      </trkpt>
      <trkpt lat="49.78393" lon="2.17499">
        <ele>54.4</ele>
        <time>2023-02-08T13:29:31Z</time>
      </trkpt>
      <trkpt lat="49.78394" lon="2.17501">
        <ele>54.4</ele>
        <time>2023-02-08T13:29:32Z</time>
      </trkpt>
      <trkpt lat="49.78395" lon="2.17502">
        <ele>54.4</ele>
        <time>2023-02-08T13:29:33Z</time>
      </trkpt>
      <trkpt lat="49.78397" lon="2.17503">
        <ele>54.4</ele>
        <time>2023-02-08T13:29:34Z</time>
      </trkpt>
      <trkpt lat="49.78398" lon="2.17505">
        <ele>54.4</ele>
        <time>2023-02-08T13:29:35Z</time>
      </trkpt>
      <trkpt lat="49.78399" lon="2.17506">
        <ele>54.4</ele>
        <time>2023-02-08T13:29:36Z</time>
      </trkpt>
      <trkpt lat="49.784" lon="2.17508">
        <ele>54.4</ele>
        <time>2023-02-08T13:29:37Z</time>
      </trkpt>
      <trkpt lat="49.78401" lon="2.1751">
        <ele>54.4</ele>
        <time>2023-02-08T13:29:38Z</time>
      </trkpt>
      <trkpt lat="49.78402" lon="2.17511">
        <ele>54.4</ele>
        <time>2023-02-08T13:29:40Z</time>
      </trkpt>
      <trkpt lat="49.78403" lon="2.17512">
        <ele>54.4</ele>
        <time>2023-02-08T13:29:41Z</time>
      </trkpt>
      <trkpt lat="49.78405" lon="2.17514">
        <ele>54.4</ele>
        <time>2023-02-08T13:29:42Z</time>
      </trkpt>
      <trkpt lat="49.78406" lon="2.17515">
        <ele>54.4</ele>
        <time>2023-02-08T13:29:43Z</time>
      </trkpt>
      <trkpt lat="49.78407" lon="2.17517">
        <ele>54.4</ele>
        <time>2023-02-08T13:29:44Z</time>
      </trkpt>
      <trkpt lat="49.78408" lon="2.17518">
        <ele>54.4</ele>
        <time>2023-02-08T13:29:46Z</time>
      </trkpt>
      <trkpt lat="49.7841" lon="2.17519">
        <ele>54.4</ele>
        <time>2023-02-08T13:29:47Z</time>
      </trkpt>
      <trkpt lat="49.78411" lon="2.1752">
        <ele>54.4</ele>
        <time>2023-02-08T13:29:48Z</time>
      </trkpt>
      <trkpt lat="49.78412" lon="2.17522">
        <ele>54.4</ele>
        <time>2023-02-08T13:29:49Z</time>
      </trkpt>
      <trkpt lat="49.78414" lon="2.17524">
        <ele>54.4</ele>
        <time>2023-02-08T13:29:51Z</time>
      </trkpt>
      <trkpt lat="49.78415" lon="2.17525">
        <ele>54.4</ele>
        <time>2023-02-08T13:29:52Z</time>
      </trkpt>
      <trkpt lat="49.78415" lon="2.17526">
        <ele>54.4</ele>
        <time>2023-02-08T13:29:53Z</time>
      </trkpt>
      <trkpt lat="49.78416" lon="2.17528">
        <ele>54.4</ele>
        <time>2023-02-08T13:29:54Z</time>
      </trkpt>
      <trkpt lat="49.78418" lon="2.17531">
        <ele>54.4</ele>
        <time>2023-02-08T13:29:55Z</time>
      </trkpt>
      <trkpt lat="49.78419" lon="2.17532">
        <ele>54.4</ele>
        <time>2023-02-08T13:29:56Z</time>
      </trkpt>
      <trkpt lat="49.78419" lon="2.17533">
        <ele>54.4</ele>
        <time>2023-02-08T13:29:57Z</time>
      </trkpt>
      <trkpt lat="49.7842" lon="2.17535">
        <ele>54.4</ele>
        <time>2023-02-08T13:29:58Z</time>
      </trkpt>
      <trkpt lat="49.78421" lon="2.17537">
        <ele>54.4</ele>
        <time>2023-02-08T13:29:59Z</time>
      </trkpt>
      <trkpt lat="49.78422" lon="2.17538">
        <ele>54.4</ele>
        <time>2023-02-08T13:30:00Z</time>
      </trkpt>
      <trkpt lat="49.78422" lon="2.17539">
        <ele>54.4</ele>
        <time>2023-02-08T13:30:02Z</time>
      </trkpt>
      <trkpt lat="49.78423" lon="2.1754">
        <ele>54.4</ele>
        <time>2023-02-08T13:30:03Z</time>
      </trkpt>
      <trkpt lat="49.78424" lon="2.17543">
        <ele>54.4</ele>
        <time>2023-02-08T13:30:04Z</time>
      </trkpt>
      <trkpt lat="49.78425" lon="2.17544">
        <ele>54.4</ele>
        <time>2023-02-08T13:30:05Z</time>
      </trkpt>
      <trkpt lat="49.78425" lon="2.17545">
        <ele>54.4</ele>
        <time>2023-02-08T13:30:06Z</time>
      </trkpt>
      <trkpt lat="49.78426" lon="2.17546">
        <ele>54.4</ele>
        <time>2023-02-08T13:30:07Z</time>
      </trkpt>
      <trkpt lat="49.78427" lon="2.17548">
        <ele>54.4</ele>
        <time>2023-02-08T13:30:08Z</time>
      </trkpt>
      <trkpt lat="49.78429" lon="2.17549">
        <ele>54.4</ele>
        <time>2023-02-08T13:30:09Z</time>
      </trkpt>
      <trkpt lat="49.7843" lon="2.1755">
        <ele>54.4</ele>
        <time>2023-02-08T13:30:10Z</time>
      </trkpt>
      <trkpt lat="49.78431" lon="2.17551">
        <ele>54.4</ele>
        <time>2023-02-08T13:30:11Z</time>
      </trkpt>
      <trkpt lat="49.78431" lon="2.17552">
        <ele>54.4</ele>
        <time>2023-02-08T13:30:13Z</time>
      </trkpt>
      <trkpt lat="49.78432" lon="2.17553">
        <ele>54.5</ele>
        <time>2023-02-08T13:30:14Z</time>
      </trkpt>
      <trkpt lat="49.78433" lon="2.17556">
        <ele>54.5</ele>
        <time>2023-02-08T13:30:15Z</time>
      </trkpt>
      <trkpt lat="49.78434" lon="2.17557">
        <ele>54.5</ele>
        <time>2023-02-08T13:30:16Z</time>
      </trkpt>
      <trkpt lat="49.78434" lon="2.17558">
        <ele>54.5</ele>
        <time>2023-02-08T13:30:17Z</time>
      </trkpt>
      <trkpt lat="49.78435" lon="2.17559">
        <ele>54.5</ele>
        <time>2023-02-08T13:30:18Z</time>
      </trkpt>
      <trkpt lat="49.78436" lon="2.17561">
        <ele>54.5</ele>
        <time>2023-02-08T13:30:19Z</time>
      </trkpt>
      <trkpt lat="49.78437" lon="2.17562">
        <ele>54.5</ele>
        <time>2023-02-08T13:30:20Z</time>
      </trkpt>
      <trkpt lat="49.78437" lon="2.17563">
        <ele>54.5</ele>
        <time>2023-02-08T13:30:22Z</time>
      </trkpt>
      <trkpt lat="49.78438" lon="2.17565">
        <ele>54.6</ele>
        <time>2023-02-08T13:30:23Z</time>
      </trkpt>
      <trkpt lat="49.78439" lon="2.17568">
        <ele>54.6</ele>
        <time>2023-02-08T13:30:24Z</time>
      </trkpt>
      <trkpt lat="49.7844" lon="2.17568">
        <ele>54.6</ele>
        <time>2023-02-08T13:30:25Z</time>
      </trkpt>
      <trkpt lat="49.7844" lon="2.17569">
        <ele>54.6</ele>
        <time>2023-02-08T13:30:26Z</time>
      </trkpt>
      <trkpt lat="49.78442" lon="2.17571">
        <ele>54.6</ele>
        <time>2023-02-08T13:30:27Z</time>
      </trkpt>
      <trkpt lat="49.78443" lon="2.17572">
        <ele>54.6</ele>
        <time>2023-02-08T13:30:28Z</time>
      </trkpt>
      <trkpt lat="49.78444" lon="2.17573">
        <ele>54.6</ele>
        <time>2023-02-08T13:30:29Z</time>
      </trkpt>
      <trkpt lat="49.78444" lon="2.17574">
        <ele>54.7</ele>
        <time>2023-02-08T13:30:30Z</time>
      </trkpt>
      <trkpt lat="49.78445" lon="2.17576">
        <ele>54.7</ele>
        <time>2023-02-08T13:30:32Z</time>
      </trkpt>
      <trkpt lat="49.78446" lon="2.17577">
        <ele>54.7</ele>
        <time>2023-02-08T13:30:33Z</time>
      </trkpt>
      <trkpt lat="49.78448" lon="2.17578">
        <ele>54.7</ele>
        <time>2023-02-08T13:30:34Z</time>
      </trkpt>
      <trkpt lat="49.78449" lon="2.17579">
        <ele>54.7</ele>
        <time>2023-02-08T13:30:35Z</time>
      </trkpt>
      <trkpt lat="49.78449" lon="2.1758">
        <ele>54.7</ele>
        <time>2023-02-08T13:30:36Z</time>
      </trkpt>
      <trkpt lat="49.78451" lon="2.17582">
        <ele>54.8</ele>
        <time>2023-02-08T13:30:38Z</time>
      </trkpt>
      <trkpt lat="49.78452" lon="2.17582">
        <ele>54.8</ele>
        <time>2023-02-08T13:30:39Z</time>
      </trkpt>
      <trkpt lat="49.78453" lon="2.17583">
        <ele>54.8</ele>
        <time>2023-02-08T13:30:40Z</time>
      </trkpt>
      <trkpt lat="49.78453" lon="2.17584">
        <ele>54.8</ele>
        <time>2023-02-08T13:30:41Z</time>
      </trkpt>
      <trkpt lat="49.78454" lon="2.17586">
        <ele>54.8</ele>
        <time>2023-02-08T13:30:42Z</time>
      </trkpt>
      <trkpt lat="49.78455" lon="2.17587">
        <ele>54.8</ele>
        <time>2023-02-08T13:30:43Z</time>
      </trkpt>
      <trkpt lat="49.78456" lon="2.17588">
        <ele>54.9</ele>
        <time>2023-02-08T13:30:44Z</time>
      </trkpt>
      <trkpt lat="49.78457" lon="2.17589">
        <ele>54.9</ele>
        <time>2023-02-08T13:30:46Z</time>
      </trkpt>
      <trkpt lat="49.78458" lon="2.1759">
        <ele>54.9</ele>
        <time>2023-02-08T13:30:47Z</time>
      </trkpt>
      <trkpt lat="49.78459" lon="2.17591">
        <ele>54.9</ele>
        <time>2023-02-08T13:30:48Z</time>
      </trkpt>
      <trkpt lat="49.7846" lon="2.17593">
        <ele>54.9</ele>
        <time>2023-02-08T13:30:49Z</time>
      </trkpt>
      <trkpt lat="49.78461" lon="2.17594">
        <ele>55</ele>
        <time>2023-02-08T13:30:50Z</time>
      </trkpt>
      <trkpt lat="49.78461" lon="2.17595">
        <ele>55</ele>
        <time>2023-02-08T13:30:51Z</time>
      </trkpt>
      <trkpt lat="49.78462" lon="2.17596">
        <ele>55</ele>
        <time>2023-02-08T13:30:52Z</time>
      </trkpt>
      <trkpt lat="49.78463" lon="2.17597">
        <ele>55</ele>
        <time>2023-02-08T13:30:53Z</time>
      </trkpt>
      <trkpt lat="49.78464" lon="2.17599">
        <ele>55</ele>
        <time>2023-02-08T13:30:54Z</time>
      </trkpt>
      <trkpt lat="49.78466" lon="2.17601">
        <ele>55</ele>
        <time>2023-02-08T13:30:56Z</time>
      </trkpt>
      <trkpt lat="49.78466" lon="2.17602">
        <ele>55.1</ele>
        <time>2023-02-08T13:30:57Z</time>
      </trkpt>
      <trkpt lat="49.78467" lon="2.17603">
        <ele>55.1</ele>
        <time>2023-02-08T13:30:58Z</time>
      </trkpt>
      <trkpt lat="49.78468" lon="2.17605">
        <ele>55.1</ele>
        <time>2023-02-08T13:30:59Z</time>
      </trkpt>
      <trkpt lat="49.78469" lon="2.17606">
        <ele>55.1</ele>
        <time>2023-02-08T13:31:00Z</time>
      </trkpt>
      <trkpt lat="49.78469" lon="2.17607">
        <ele>55.1</ele>
        <time>2023-02-08T13:31:01Z</time>
      </trkpt>
      <trkpt lat="49.7847" lon="2.17608">
        <ele>55.2</ele>
        <time>2023-02-08T13:31:02Z</time>
      </trkpt>
      <trkpt lat="49.78471" lon="2.17609">
        <ele>55.2</ele>
        <time>2023-02-08T13:31:04Z</time>
      </trkpt>
      <trkpt lat="49.78472" lon="2.17612">
        <ele>55.2</ele>
        <time>2023-02-08T13:31:05Z</time>
      </trkpt>
      <trkpt lat="49.78473" lon="2.17614">
        <ele>55.3</ele>
        <time>2023-02-08T13:31:07Z</time>
      </trkpt>
      <trkpt lat="49.78474" lon="2.17615">
        <ele>55.3</ele>
        <time>2023-02-08T13:31:08Z</time>
      </trkpt>
      <trkpt lat="49.78474" lon="2.17616">
        <ele>55.3</ele>
        <time>2023-02-08T13:31:09Z</time>
      </trkpt>
      <trkpt lat="49.78475" lon="2.17618">
        <ele>55.3</ele>
        <time>2023-02-08T13:31:10Z</time>
      </trkpt>
      <trkpt lat="49.78475" lon="2.17619">
        <ele>55.4</ele>
        <time>2023-02-08T13:31:11Z</time>
      </trkpt>
      <trkpt lat="49.78476" lon="2.17621">
        <ele>55.4</ele>
        <time>2023-02-08T13:31:12Z</time>
      </trkpt>
      <trkpt lat="49.78476" lon="2.17622">
        <ele>55.4</ele>
        <time>2023-02-08T13:31:13Z</time>
      </trkpt>
      <trkpt lat="49.78477" lon="2.17624">
        <ele>55.4</ele>
        <time>2023-02-08T13:31:15Z</time>
      </trkpt>
      <trkpt lat="49.78477" lon="2.17625">
        <ele>55.4</ele>
        <time>2023-02-08T13:31:16Z</time>
      </trkpt>
      <trkpt lat="49.78478" lon="2.17626">
        <ele>55.5</ele>
        <time>2023-02-08T13:31:17Z</time>
      </trkpt>
      <trkpt lat="49.78479" lon="2.17628">
        <ele>55.5</ele>
        <time>2023-02-08T13:31:18Z</time>
      </trkpt>
      <trkpt lat="49.7848" lon="2.1763">
        <ele>55.5</ele>
        <time>2023-02-08T13:31:19Z</time>
      </trkpt>
      <trkpt lat="49.78481" lon="2.17631">
        <ele>55.6</ele>
        <time>2023-02-08T13:31:21Z</time>
      </trkpt>
      <trkpt lat="49.78481" lon="2.17632">
        <ele>55.6</ele>
        <time>2023-02-08T13:31:22Z</time>
      </trkpt>
      <trkpt lat="49.78482" lon="2.17633">
        <ele>55.6</ele>
        <time>2023-02-08T13:31:23Z</time>
      </trkpt>
      <trkpt lat="49.78484" lon="2.17634">
        <ele>55.6</ele>
        <time>2023-02-08T13:31:24Z</time>
      </trkpt>
      <trkpt lat="49.78485" lon="2.17636">
        <ele>55.7</ele>
        <time>2023-02-08T13:31:25Z</time>
      </trkpt>
      <trkpt lat="49.78486" lon="2.17636">
        <ele>55.7</ele>
        <time>2023-02-08T13:31:26Z</time>
      </trkpt>
      <trkpt lat="49.78487" lon="2.17637">
        <ele>55.7</ele>
        <time>2023-02-08T13:31:27Z</time>
      </trkpt>
      <trkpt lat="49.78488" lon="2.17638">
        <ele>55.7</ele>
        <time>2023-02-08T13:31:29Z</time>
      </trkpt>
      <trkpt lat="49.78489" lon="2.1764">
        <ele>55.8</ele>
        <time>2023-02-08T13:31:30Z</time>
      </trkpt>
      <trkpt lat="49.78491" lon="2.17641">
        <ele>55.8</ele>
        <time>2023-02-08T13:31:31Z</time>
      </trkpt>
      <trkpt lat="49.78491" lon="2.17642">
        <ele>55.8</ele>
        <time>2023-02-08T13:31:32Z</time>
      </trkpt>
      <trkpt lat="49.78492" lon="2.17642">
        <ele>55.8</ele>
        <time>2023-02-08T13:31:33Z</time>
      </trkpt>
      <trkpt lat="49.78493" lon="2.17644">
        <ele>55.9</ele>
        <time>2023-02-08T13:31:34Z</time>
      </trkpt>
      <trkpt lat="49.78494" lon="2.17644">
        <ele>55.9</ele>
        <time>2023-02-08T13:31:36Z</time>
      </trkpt>
      <trkpt lat="49.78495" lon="2.17645">
        <ele>55.9</ele>
        <time>2023-02-08T13:31:37Z</time>
      </trkpt>
      <trkpt lat="49.78496" lon="2.17646">
        <ele>55.9</ele>
        <time>2023-02-08T13:31:38Z</time>
      </trkpt>
      <trkpt lat="49.78497" lon="2.17646">
        <ele>55.9</ele>
        <time>2023-02-08T13:31:39Z</time>
      </trkpt>
      <trkpt lat="49.78498" lon="2.17647">
        <ele>56</ele>
        <time>2023-02-08T13:31:40Z</time>
      </trkpt>
      <trkpt lat="49.78498" lon="2.17647">
        <ele>56</ele>
        <time>2023-02-08T13:31:42Z</time>
      </trkpt>
      <trkpt lat="49.78499" lon="2.17647">
        <ele>56</ele>
        <time>2023-02-08T13:31:43Z</time>
      </trkpt>
      <trkpt lat="49.78499" lon="2.17648">
        <ele>56</ele>
        <time>2023-02-08T13:31:44Z</time>
      </trkpt>
      <trkpt lat="49.785" lon="2.17648">
        <ele>56</ele>
        <time>2023-02-08T13:31:46Z</time>
      </trkpt>
      <trkpt lat="49.78501" lon="2.17649">
        <ele>56</ele>
        <time>2023-02-08T13:31:47Z</time>
      </trkpt>
      <trkpt lat="49.78501" lon="2.17649">
        <ele>56</ele>
        <time>2023-02-08T13:31:48Z</time>
      </trkpt>
      <trkpt lat="49.78502" lon="2.1765">
        <ele>56</ele>
        <time>2023-02-08T13:31:49Z</time>
      </trkpt>
      <trkpt lat="49.78503" lon="2.17651">
        <ele>56.1</ele>
        <time>2023-02-08T13:31:50Z</time>
      </trkpt>
      <trkpt lat="49.78503" lon="2.17651">
        <ele>56.1</ele>
        <time>2023-02-08T13:31:51Z</time>
      </trkpt>
      <trkpt lat="49.78504" lon="2.17651">
        <ele>56.1</ele>
        <time>2023-02-08T13:31:52Z</time>
      </trkpt>
      <trkpt lat="49.78505" lon="2.17652">
        <ele>56.1</ele>
        <time>2023-02-08T13:31:53Z</time>
      </trkpt>
      <trkpt lat="49.78506" lon="2.17652">
        <ele>56.1</ele>
        <time>2023-02-08T13:31:54Z</time>
      </trkpt>
      <trkpt lat="49.78507" lon="2.17652">
        <ele>56.1</ele>
        <time>2023-02-08T13:31:56Z</time>
      </trkpt>
      <trkpt lat="49.78507" lon="2.17653">
        <ele>56.1</ele>
        <time>2023-02-08T13:31:57Z</time>
      </trkpt>
      <trkpt lat="49.78508" lon="2.17653">
        <ele>56.1</ele>
        <time>2023-02-08T13:31:58Z</time>
      </trkpt>
      <trkpt lat="49.78509" lon="2.17654">
        <ele>56.1</ele>
        <time>2023-02-08T13:31:59Z</time>
      </trkpt>
      <trkpt lat="49.7851" lon="2.17655">
        <ele>56.1</ele>
        <time>2023-02-08T13:32:00Z</time>
      </trkpt>
      <trkpt lat="49.78511" lon="2.17655">
        <ele>56.1</ele>
        <time>2023-02-08T13:32:01Z</time>
      </trkpt>
      <trkpt lat="49.78512" lon="2.17656">
        <ele>56.1</ele>
        <time>2023-02-08T13:32:02Z</time>
      </trkpt>
      <trkpt lat="49.78512" lon="2.17657">
        <ele>56.2</ele>
        <time>2023-02-08T13:32:04Z</time>
      </trkpt>
      <trkpt lat="49.78513" lon="2.17659">
        <ele>56.2</ele>
        <time>2023-02-08T13:32:05Z</time>
      </trkpt>
      <trkpt lat="49.78514" lon="2.1766">
        <ele>56.2</ele>
        <time>2023-02-08T13:32:06Z</time>
      </trkpt>
      <trkpt lat="49.78516" lon="2.17662">
        <ele>56.2</ele>
        <time>2023-02-08T13:32:07Z</time>
      </trkpt>
      <trkpt lat="49.78517" lon="2.17662">
        <ele>56.2</ele>
        <time>2023-02-08T13:32:08Z</time>
      </trkpt>
      <trkpt lat="49.78518" lon="2.17663">
        <ele>56.2</ele>
        <time>2023-02-08T13:32:09Z</time>
      </trkpt>
      <trkpt lat="49.78519" lon="2.17664">
        <ele>56.2</ele>
        <time>2023-02-08T13:32:10Z</time>
      </trkpt>
      <trkpt lat="49.7852" lon="2.17665">
        <ele>56.2</ele>
        <time>2023-02-08T13:32:11Z</time>
      </trkpt>
      <trkpt lat="49.78521" lon="2.17665">
        <ele>56.2</ele>
        <time>2023-02-08T13:32:12Z</time>
      </trkpt>
      <trkpt lat="49.78522" lon="2.17666">
        <ele>56.2</ele>
        <time>2023-02-08T13:32:13Z</time>
      </trkpt>
      <trkpt lat="49.78522" lon="2.17667">
        <ele>56.1</ele>
        <time>2023-02-08T13:32:15Z</time>
      </trkpt>
      <trkpt lat="49.78523" lon="2.17667">
        <ele>56.1</ele>
        <time>2023-02-08T13:32:16Z</time>
      </trkpt>
      <trkpt lat="49.78524" lon="2.17668">
        <ele>56.1</ele>
        <time>2023-02-08T13:32:17Z</time>
      </trkpt>
      <trkpt lat="49.78524" lon="2.17668">
        <ele>56.1</ele>
        <time>2023-02-08T13:32:18Z</time>
      </trkpt>
      <trkpt lat="49.78525" lon="2.17669">
        <ele>56.1</ele>
        <time>2023-02-08T13:32:19Z</time>
      </trkpt>
      <trkpt lat="49.78526" lon="2.17669">
        <ele>56.1</ele>
        <time>2023-02-08T13:32:20Z</time>
      </trkpt>
      <trkpt lat="49.78526" lon="2.1767">
        <ele>56.1</ele>
        <time>2023-02-08T13:32:21Z</time>
      </trkpt>
      <trkpt lat="49.78527" lon="2.1767">
        <ele>56.1</ele>
        <time>2023-02-08T13:32:23Z</time>
      </trkpt>
      <trkpt lat="49.78527" lon="2.1767">
        <ele>56.1</ele>
        <time>2023-02-08T13:32:24Z</time>
      </trkpt>
      <trkpt lat="49.78528" lon="2.17671">
        <ele>56.1</ele>
        <time>2023-02-08T13:32:25Z</time>
      </trkpt>
      <trkpt lat="49.78529" lon="2.17671">
        <ele>56.1</ele>
        <time>2023-02-08T13:32:26Z</time>
      </trkpt>
      <trkpt lat="49.7853" lon="2.17671">
        <ele>56.1</ele>
        <time>2023-02-08T13:32:27Z</time>
      </trkpt>
      <trkpt lat="49.78531" lon="2.17673">
        <ele>56.1</ele>
        <time>2023-02-08T13:32:28Z</time>
      </trkpt>
      <trkpt lat="49.78532" lon="2.17673">
        <ele>56</ele>
        <time>2023-02-08T13:32:29Z</time>
      </trkpt>
      <trkpt lat="49.78533" lon="2.17674">
        <ele>56</ele>
        <time>2023-02-08T13:32:30Z</time>
      </trkpt>
      <trkpt lat="49.78535" lon="2.17676">
        <ele>56</ele>
        <time>2023-02-08T13:32:31Z</time>
      </trkpt>
      <trkpt lat="49.78536" lon="2.17676">
        <ele>56</ele>
        <time>2023-02-08T13:32:33Z</time>
      </trkpt>
      <trkpt lat="49.78536" lon="2.17677">
        <ele>56</ele>
        <time>2023-02-08T13:32:34Z</time>
      </trkpt>
      <trkpt lat="49.78538" lon="2.17679">
        <ele>56</ele>
        <time>2023-02-08T13:32:35Z</time>
      </trkpt>
      <trkpt lat="49.78539" lon="2.17679">
        <ele>56</ele>
        <time>2023-02-08T13:32:36Z</time>
      </trkpt>
      <trkpt lat="49.7854" lon="2.1768">
        <ele>55.9</ele>
        <time>2023-02-08T13:32:37Z</time>
      </trkpt>
      <trkpt lat="49.78541" lon="2.17681">
        <ele>55.9</ele>
        <time>2023-02-08T13:32:38Z</time>
      </trkpt>
      <trkpt lat="49.78542" lon="2.17682">
        <ele>55.9</ele>
        <time>2023-02-08T13:32:39Z</time>
      </trkpt>
      <trkpt lat="49.78544" lon="2.17683">
        <ele>55.9</ele>
        <time>2023-02-08T13:32:41Z</time>
      </trkpt>
      <trkpt lat="49.78545" lon="2.17685">
        <ele>55.9</ele>
        <time>2023-02-08T13:32:42Z</time>
      </trkpt>
      <trkpt lat="49.78546" lon="2.17686">
        <ele>55.9</ele>
        <time>2023-02-08T13:32:43Z</time>
      </trkpt>
      <trkpt lat="49.78548" lon="2.17687">
        <ele>55.8</ele>
        <time>2023-02-08T13:32:44Z</time>
      </trkpt>
      <trkpt lat="49.7855" lon="2.1769">
        <ele>55.8</ele>
        <time>2023-02-08T13:32:45Z</time>
      </trkpt>
      <trkpt lat="49.78551" lon="2.1769">
        <ele>55.8</ele>
        <time>2023-02-08T13:32:46Z</time>
      </trkpt>
      <trkpt lat="49.78552" lon="2.17691">
        <ele>55.8</ele>
        <time>2023-02-08T13:32:47Z</time>
      </trkpt>
      <trkpt lat="49.78553" lon="2.17693">
        <ele>55.8</ele>
        <time>2023-02-08T13:32:48Z</time>
      </trkpt>
      <trkpt lat="49.78554" lon="2.17694">
        <ele>55.8</ele>
        <time>2023-02-08T13:32:49Z</time>
      </trkpt>
      <trkpt lat="49.78556" lon="2.17695">
        <ele>55.8</ele>
        <time>2023-02-08T13:32:51Z</time>
      </trkpt>
      <trkpt lat="49.78556" lon="2.17696">
        <ele>55.8</ele>
        <time>2023-02-08T13:32:52Z</time>
      </trkpt>
      <trkpt lat="49.78557" lon="2.17697">
        <ele>55.8</ele>
        <time>2023-02-08T13:32:53Z</time>
      </trkpt>
      <trkpt lat="49.78558" lon="2.17698">
        <ele>55.8</ele>
        <time>2023-02-08T13:32:54Z</time>
      </trkpt>
      <trkpt lat="49.78559" lon="2.17699">
        <ele>55.7</ele>
        <time>2023-02-08T13:32:55Z</time>
      </trkpt>
      <trkpt lat="49.7856" lon="2.177">
        <ele>55.7</ele>
        <time>2023-02-08T13:32:56Z</time>
      </trkpt>
      <trkpt lat="49.78561" lon="2.17701">
        <ele>55.7</ele>
        <time>2023-02-08T13:32:57Z</time>
      </trkpt>
      <trkpt lat="49.78562" lon="2.17701">
        <ele>55.7</ele>
        <time>2023-02-08T13:32:58Z</time>
      </trkpt>
      <trkpt lat="49.78562" lon="2.17702">
        <ele>55.7</ele>
        <time>2023-02-08T13:33:00Z</time>
      </trkpt>
      <trkpt lat="49.78563" lon="2.17703">
        <ele>55.7</ele>
        <time>2023-02-08T13:33:01Z</time>
      </trkpt>
      <trkpt lat="49.78564" lon="2.17703">
        <ele>55.7</ele>
        <time>2023-02-08T13:33:02Z</time>
      </trkpt>
      <trkpt lat="49.78565" lon="2.17704">
        <ele>55.7</ele>
        <time>2023-02-08T13:33:03Z</time>
      </trkpt>
      <trkpt lat="49.78566" lon="2.17704">
        <ele>55.7</ele>
        <time>2023-02-08T13:33:04Z</time>
      </trkpt>
      <trkpt lat="49.78567" lon="2.17705">
        <ele>55.7</ele>
        <time>2023-02-08T13:33:05Z</time>
      </trkpt>
      <trkpt lat="49.78568" lon="2.17706">
        <ele>55.7</ele>
        <time>2023-02-08T13:33:06Z</time>
      </trkpt>
      <trkpt lat="49.78569" lon="2.17707">
        <ele>55.7</ele>
        <time>2023-02-08T13:33:07Z</time>
      </trkpt>
      <trkpt lat="49.7857" lon="2.17708">
        <ele>55.7</ele>
        <time>2023-02-08T13:33:09Z</time>
      </trkpt>
      <trkpt lat="49.78571" lon="2.17708">
        <ele>55.7</ele>
        <time>2023-02-08T13:33:10Z</time>
      </trkpt>
      <trkpt lat="49.78572" lon="2.17709">
        <ele>55.7</ele>
        <time>2023-02-08T13:33:11Z</time>
      </trkpt>
      <trkpt lat="49.78573" lon="2.1771">
        <ele>55.7</ele>
        <time>2023-02-08T13:33:13Z</time>
      </trkpt>
      <trkpt lat="49.78574" lon="2.17711">
        <ele>55.7</ele>
        <time>2023-02-08T13:33:14Z</time>
      </trkpt>
      <trkpt lat="49.78576" lon="2.17711">
        <ele>55.7</ele>
        <time>2023-02-08T13:33:15Z</time>
      </trkpt>
      <trkpt lat="49.78577" lon="2.17713">
        <ele>55.7</ele>
        <time>2023-02-08T13:33:16Z</time>
      </trkpt>
      <trkpt lat="49.78578" lon="2.17713">
        <ele>55.7</ele>
        <time>2023-02-08T13:33:17Z</time>
      </trkpt>
      <trkpt lat="49.7858" lon="2.17715">
        <ele>55.7</ele>
        <time>2023-02-08T13:33:18Z</time>
      </trkpt>
      <trkpt lat="49.78581" lon="2.17715">
        <ele>55.7</ele>
        <time>2023-02-08T13:33:19Z</time>
      </trkpt>
      <trkpt lat="49.78582" lon="2.17716">
        <ele>55.7</ele>
        <time>2023-02-08T13:33:20Z</time>
      </trkpt>
      <trkpt lat="49.78583" lon="2.17716">
        <ele>55.7</ele>
        <time>2023-02-08T13:33:21Z</time>
      </trkpt>
      <trkpt lat="49.78584" lon="2.17717">
        <ele>55.7</ele>
        <time>2023-02-08T13:33:22Z</time>
      </trkpt>
      <trkpt lat="49.78585" lon="2.17717">
        <ele>55.7</ele>
        <time>2023-02-08T13:33:23Z</time>
      </trkpt>
      <trkpt lat="49.78586" lon="2.17718">
        <ele>55.7</ele>
        <time>2023-02-08T13:33:25Z</time>
      </trkpt>
      <trkpt lat="49.78588" lon="2.1772">
        <ele>55.7</ele>
        <time>2023-02-08T13:33:26Z</time>
      </trkpt>
      <trkpt lat="49.7859" lon="2.17721">
        <ele>55.7</ele>
        <time>2023-02-08T13:33:27Z</time>
      </trkpt>
      <trkpt lat="49.78591" lon="2.17722">
        <ele>55.7</ele>
        <time>2023-02-08T13:33:29Z</time>
      </trkpt>
      <trkpt lat="49.78592" lon="2.17723">
        <ele>55.7</ele>
        <time>2023-02-08T13:33:30Z</time>
      </trkpt>
      <trkpt lat="49.78594" lon="2.17724">
        <ele>55.7</ele>
        <time>2023-02-08T13:33:31Z</time>
      </trkpt>
      <trkpt lat="49.78596" lon="2.17726">
        <ele>55.7</ele>
        <time>2023-02-08T13:33:33Z</time>
      </trkpt>
      <trkpt lat="49.78597" lon="2.17727">
        <ele>55.7</ele>
        <time>2023-02-08T13:33:34Z</time>
      </trkpt>
      <trkpt lat="49.78597" lon="2.17728">
        <ele>55.7</ele>
        <time>2023-02-08T13:33:35Z</time>
      </trkpt>
      <trkpt lat="49.78599" lon="2.17729">
        <ele>55.7</ele>
        <time>2023-02-08T13:33:36Z</time>
      </trkpt>
      <trkpt lat="49.786" lon="2.17731">
        <ele>55.6</ele>
        <time>2023-02-08T13:33:37Z</time>
      </trkpt>
      <trkpt lat="49.78602" lon="2.17732">
        <ele>55.6</ele>
        <time>2023-02-08T13:33:38Z</time>
      </trkpt>
      <trkpt lat="49.78603" lon="2.17733">
        <ele>55.6</ele>
        <time>2023-02-08T13:33:39Z</time>
      </trkpt>
      <trkpt lat="49.78604" lon="2.17735">
        <ele>55.6</ele>
        <time>2023-02-08T13:33:41Z</time>
      </trkpt>
      <trkpt lat="49.78605" lon="2.17736">
        <ele>55.6</ele>
        <time>2023-02-08T13:33:42Z</time>
      </trkpt>
      <trkpt lat="49.78606" lon="2.17738">
        <ele>55.6</ele>
        <time>2023-02-08T13:33:43Z</time>
      </trkpt>
      <trkpt lat="49.78608" lon="2.17739">
        <ele>55.6</ele>
        <time>2023-02-08T13:33:44Z</time>
      </trkpt>
      <trkpt lat="49.78609" lon="2.1774">
        <ele>55.6</ele>
        <time>2023-02-08T13:33:45Z</time>
      </trkpt>
      <trkpt lat="49.7861" lon="2.17741">
        <ele>55.6</ele>
        <time>2023-02-08T13:33:46Z</time>
      </trkpt>
      <trkpt lat="49.78612" lon="2.17743">
        <ele>55.6</ele>
        <time>2023-02-08T13:33:47Z</time>
      </trkpt>
      <trkpt lat="49.78613" lon="2.17744">
        <ele>55.6</ele>
        <time>2023-02-08T13:33:48Z</time>
      </trkpt>
      <trkpt lat="49.78614" lon="2.17745">
        <ele>55.6</ele>
        <time>2023-02-08T13:33:49Z</time>
      </trkpt>
      <trkpt lat="49.78615" lon="2.17746">
        <ele>55.6</ele>
        <time>2023-02-08T13:33:51Z</time>
      </trkpt>
      <trkpt lat="49.78616" lon="2.17747">
        <ele>55.6</ele>
        <time>2023-02-08T13:33:52Z</time>
      </trkpt>
      <trkpt lat="49.78617" lon="2.17747">
        <ele>55.6</ele>
        <time>2023-02-08T13:33:53Z</time>
      </trkpt>
      <trkpt lat="49.78618" lon="2.17748">
        <ele>55.6</ele>
        <time>2023-02-08T13:33:54Z</time>
      </trkpt>
      <trkpt lat="49.78619" lon="2.17749">
        <ele>55.6</ele>
        <time>2023-02-08T13:33:55Z</time>
      </trkpt>
      <trkpt lat="49.7862" lon="2.17749">
        <ele>55.6</ele>
        <time>2023-02-08T13:33:56Z</time>
      </trkpt>
      <trkpt lat="49.78621" lon="2.1775">
        <ele>55.6</ele>
        <time>2023-02-08T13:33:57Z</time>
      </trkpt>
      <trkpt lat="49.78622" lon="2.17751">
        <ele>55.6</ele>
        <time>2023-02-08T13:33:58Z</time>
      </trkpt>
      <trkpt lat="49.78623" lon="2.17752">
        <ele>55.6</ele>
        <time>2023-02-08T13:33:59Z</time>
      </trkpt>
      <trkpt lat="49.78624" lon="2.17753">
        <ele>55.6</ele>
        <time>2023-02-08T13:34:01Z</time>
      </trkpt>
      <trkpt lat="49.78624" lon="2.17753">
        <ele>55.6</ele>
        <time>2023-02-08T13:34:02Z</time>
      </trkpt>
      <trkpt lat="49.78625" lon="2.17753">
        <ele>55.6</ele>
        <time>2023-02-08T13:34:03Z</time>
      </trkpt>
      <trkpt lat="49.78626" lon="2.17753">
        <ele>55.6</ele>
        <time>2023-02-08T13:34:04Z</time>
      </trkpt>
      <trkpt lat="49.78626" lon="2.17754">
        <ele>55.6</ele>
        <time>2023-02-08T13:34:05Z</time>
      </trkpt>
      <trkpt lat="49.78627" lon="2.17754">
        <ele>55.6</ele>
        <time>2023-02-08T13:34:06Z</time>
      </trkpt>
      <trkpt lat="49.78628" lon="2.17754">
        <ele>55.6</ele>
        <time>2023-02-08T13:34:07Z</time>
      </trkpt>
      <trkpt lat="49.78629" lon="2.17755">
        <ele>55.6</ele>
        <time>2023-02-08T13:34:08Z</time>
      </trkpt>
      <trkpt lat="49.7863" lon="2.17755">
        <ele>55.6</ele>
        <time>2023-02-08T13:34:09Z</time>
      </trkpt>
      <trkpt lat="49.7863" lon="2.17756">
        <ele>55.6</ele>
        <time>2023-02-08T13:34:11Z</time>
      </trkpt>
      <trkpt lat="49.78631" lon="2.17756">
        <ele>55.6</ele>
        <time>2023-02-08T13:34:12Z</time>
      </trkpt>
      <trkpt lat="49.78632" lon="2.17757">
        <ele>55.6</ele>
        <time>2023-02-08T13:34:13Z</time>
      </trkpt>
      <trkpt lat="49.78633" lon="2.17757">
        <ele>55.6</ele>
        <time>2023-02-08T13:34:14Z</time>
      </trkpt>
      <trkpt lat="49.78634" lon="2.17758">
        <ele>55.6</ele>
        <time>2023-02-08T13:34:15Z</time>
      </trkpt>
      <trkpt lat="49.78635" lon="2.17759">
        <ele>55.6</ele>
        <time>2023-02-08T13:34:16Z</time>
      </trkpt>
      <trkpt lat="49.78636" lon="2.1776">
        <ele>55.6</ele>
        <time>2023-02-08T13:34:17Z</time>
      </trkpt>
      <trkpt lat="49.78637" lon="2.17762">
        <ele>55.6</ele>
        <time>2023-02-08T13:34:18Z</time>
      </trkpt>
      <trkpt lat="49.78639" lon="2.17763">
        <ele>55.6</ele>
        <time>2023-02-08T13:34:19Z</time>
      </trkpt>
      <trkpt lat="49.78641" lon="2.17765">
        <ele>55.6</ele>
        <time>2023-02-08T13:34:20Z</time>
      </trkpt>
      <trkpt lat="49.78642" lon="2.17766">
        <ele>55.6</ele>
        <time>2023-02-08T13:34:22Z</time>
      </trkpt>
      <trkpt lat="49.78643" lon="2.17766">
        <ele>55.5</ele>
        <time>2023-02-08T13:34:23Z</time>
      </trkpt>
      <trkpt lat="49.78644" lon="2.17767">
        <ele>55.5</ele>
        <time>2023-02-08T13:34:24Z</time>
      </trkpt>
      <trkpt lat="49.78645" lon="2.17768">
        <ele>55.5</ele>
        <time>2023-02-08T13:34:25Z</time>
      </trkpt>
      <trkpt lat="49.78646" lon="2.17769">
        <ele>55.5</ele>
        <time>2023-02-08T13:34:26Z</time>
      </trkpt>
      <trkpt lat="49.78647" lon="2.1777">
        <ele>55.5</ele>
        <time>2023-02-08T13:34:27Z</time>
      </trkpt>
      <trkpt lat="49.78648" lon="2.17771">
        <ele>55.5</ele>
        <time>2023-02-08T13:34:28Z</time>
      </trkpt>
      <trkpt lat="49.7865" lon="2.17772">
        <ele>55.5</ele>
        <time>2023-02-08T13:34:29Z</time>
      </trkpt>
      <trkpt lat="49.78651" lon="2.17773">
        <ele>55.5</ele>
        <time>2023-02-08T13:34:30Z</time>
      </trkpt>
      <trkpt lat="49.78652" lon="2.17774">
        <ele>55.4</ele>
        <time>2023-02-08T13:34:32Z</time>
      </trkpt>
      <trkpt lat="49.78653" lon="2.17775">
        <ele>55.4</ele>
        <time>2023-02-08T13:34:33Z</time>
      </trkpt>
      <trkpt lat="49.78655" lon="2.17776">
        <ele>55.4</ele>
        <time>2023-02-08T13:34:34Z</time>
      </trkpt>
      <trkpt lat="49.78655" lon="2.17777">
        <ele>55.4</ele>
        <time>2023-02-08T13:34:35Z</time>
      </trkpt>
      <trkpt lat="49.78657" lon="2.17779">
        <ele>55.4</ele>
        <time>2023-02-08T13:34:37Z</time>
      </trkpt>
      <trkpt lat="49.78658" lon="2.17779">
        <ele>55.3</ele>
        <time>2023-02-08T13:34:38Z</time>
      </trkpt>
      <trkpt lat="49.78659" lon="2.1778">
        <ele>55.3</ele>
        <time>2023-02-08T13:34:40Z</time>
      </trkpt>
      <trkpt lat="49.7866" lon="2.1778">
        <ele>55.3</ele>
        <time>2023-02-08T13:34:41Z</time>
      </trkpt>
      <trkpt lat="49.78661" lon="2.17781">
        <ele>55.3</ele>
        <time>2023-02-08T13:34:42Z</time>
      </trkpt>
      <trkpt lat="49.78662" lon="2.17782">
        <ele>55.3</ele>
        <time>2023-02-08T13:34:43Z</time>
      </trkpt>
      <trkpt lat="49.78663" lon="2.17783">
        <ele>55.2</ele>
        <time>2023-02-08T13:34:44Z</time>
      </trkpt>
      <trkpt lat="49.78663" lon="2.17784">
        <ele>55.2</ele>
        <time>2023-02-08T13:34:45Z</time>
      </trkpt>
      <trkpt lat="49.78665" lon="2.17786">
        <ele>55.2</ele>
        <time>2023-02-08T13:34:46Z</time>
      </trkpt>
      <trkpt lat="49.78666" lon="2.17787">
        <ele>55.2</ele>
        <time>2023-02-08T13:34:47Z</time>
      </trkpt>
      <trkpt lat="49.78668" lon="2.17788">
        <ele>55.1</ele>
        <time>2023-02-08T13:34:49Z</time>
      </trkpt>
      <trkpt lat="49.78668" lon="2.17789">
        <ele>55.1</ele>
        <time>2023-02-08T13:34:50Z</time>
      </trkpt>
      <trkpt lat="49.78669" lon="2.1779">
        <ele>55.1</ele>
        <time>2023-02-08T13:34:51Z</time>
      </trkpt>
      <trkpt lat="49.78671" lon="2.17791">
        <ele>55.1</ele>
        <time>2023-02-08T13:34:52Z</time>
      </trkpt>
      <trkpt lat="49.78672" lon="2.17792">
        <ele>55</ele>
        <time>2023-02-08T13:34:54Z</time>
      </trkpt>
      <trkpt lat="49.78673" lon="2.17793">
        <ele>55</ele>
        <time>2023-02-08T13:34:55Z</time>
      </trkpt>
      <trkpt lat="49.78674" lon="2.17795">
        <ele>55</ele>
        <time>2023-02-08T13:34:56Z</time>
      </trkpt>
      <trkpt lat="49.78675" lon="2.17796">
        <ele>55</ele>
        <time>2023-02-08T13:34:58Z</time>
      </trkpt>
      <trkpt lat="49.78676" lon="2.17798">
        <ele>54.9</ele>
        <time>2023-02-08T13:34:59Z</time>
      </trkpt>
      <trkpt lat="49.78677" lon="2.17799">
        <ele>54.9</ele>
        <time>2023-02-08T13:35:00Z</time>
      </trkpt>
      <trkpt lat="49.78678" lon="2.17801">
        <ele>54.8</ele>
        <time>2023-02-08T13:35:01Z</time>
      </trkpt>
      <trkpt lat="49.78679" lon="2.17803">
        <ele>54.8</ele>
        <time>2023-02-08T13:35:02Z</time>
      </trkpt>
      <trkpt lat="49.7868" lon="2.17805">
        <ele>54.8</ele>
        <time>2023-02-08T13:35:04Z</time>
      </trkpt>
      <trkpt lat="49.78681" lon="2.17806">
        <ele>54.7</ele>
        <time>2023-02-08T13:35:05Z</time>
      </trkpt>
      <trkpt lat="49.78682" lon="2.17808">
        <ele>54.7</ele>
        <time>2023-02-08T13:35:06Z</time>
      </trkpt>
      <trkpt lat="49.78683" lon="2.17809">
        <ele>54.6</ele>
        <time>2023-02-08T13:35:07Z</time>
      </trkpt>
      <trkpt lat="49.78684" lon="2.17811">
        <ele>54.6</ele>
        <time>2023-02-08T13:35:08Z</time>
      </trkpt>
      <trkpt lat="49.78685" lon="2.17813">
        <ele>54.5</ele>
        <time>2023-02-08T13:35:09Z</time>
      </trkpt>
      <trkpt lat="49.78686" lon="2.17814">
        <ele>54.5</ele>
        <time>2023-02-08T13:35:10Z</time>
      </trkpt>
      <trkpt lat="49.78687" lon="2.17816">
        <ele>54.4</ele>
        <time>2023-02-08T13:35:11Z</time>
      </trkpt>
      <trkpt lat="49.78688" lon="2.17818">
        <ele>54.4</ele>
        <time>2023-02-08T13:35:13Z</time>
      </trkpt>
      <trkpt lat="49.78689" lon="2.17819">
        <ele>54.3</ele>
        <time>2023-02-08T13:35:14Z</time>
      </trkpt>
      <trkpt lat="49.78691" lon="2.17821">
        <ele>54.3</ele>
        <time>2023-02-08T13:35:15Z</time>
      </trkpt>
      <trkpt lat="49.78693" lon="2.17822">
        <ele>54.2</ele>
        <time>2023-02-08T13:35:17Z</time>
      </trkpt>
      <trkpt lat="49.78694" lon="2.17824">
        <ele>54.2</ele>
        <time>2023-02-08T13:35:18Z</time>
      </trkpt>
      <trkpt lat="49.78695" lon="2.17825">
        <ele>54.1</ele>
        <time>2023-02-08T13:35:19Z</time>
      </trkpt>
      <trkpt lat="49.78697" lon="2.17827">
        <ele>54</ele>
        <time>2023-02-08T13:35:20Z</time>
      </trkpt>
      <trkpt lat="49.78697" lon="2.17827">
        <ele>54</ele>
        <time>2023-02-08T13:35:21Z</time>
      </trkpt>
      <trkpt lat="49.78698" lon="2.17828">
        <ele>54</ele>
        <time>2023-02-08T13:35:22Z</time>
      </trkpt>
      <trkpt lat="49.787" lon="2.17829">
        <ele>53.9</ele>
        <time>2023-02-08T13:35:24Z</time>
      </trkpt>
      <trkpt lat="49.78701" lon="2.1783">
        <ele>53.9</ele>
        <time>2023-02-08T13:35:25Z</time>
      </trkpt>
      <trkpt lat="49.78701" lon="2.17831">
        <ele>53.9</ele>
        <time>2023-02-08T13:35:26Z</time>
      </trkpt>
      <trkpt lat="49.78702" lon="2.17832">
        <ele>53.9</ele>
        <time>2023-02-08T13:35:28Z</time>
      </trkpt>
      <trkpt lat="49.78703" lon="2.17832">
        <ele>53.8</ele>
        <time>2023-02-08T13:35:29Z</time>
      </trkpt>
      <trkpt lat="49.78704" lon="2.17833">
        <ele>53.8</ele>
        <time>2023-02-08T13:35:30Z</time>
      </trkpt>
      <trkpt lat="49.78705" lon="2.17834">
        <ele>53.8</ele>
        <time>2023-02-08T13:35:31Z</time>
      </trkpt>
      <trkpt lat="49.78706" lon="2.17835">
        <ele>53.7</ele>
        <time>2023-02-08T13:35:32Z</time>
      </trkpt>
      <trkpt lat="49.78706" lon="2.17835">
        <ele>53.7</ele>
        <time>2023-02-08T13:35:33Z</time>
      </trkpt>
      <trkpt lat="49.78707" lon="2.17836">
        <ele>53.7</ele>
        <time>2023-02-08T13:35:34Z</time>
      </trkpt>
      <trkpt lat="49.78708" lon="2.17837">
        <ele>53.7</ele>
        <time>2023-02-08T13:35:35Z</time>
      </trkpt>
      <trkpt lat="49.78709" lon="2.17838">
        <ele>53.7</ele>
        <time>2023-02-08T13:35:37Z</time>
      </trkpt>
      <trkpt lat="49.78709" lon="2.17838">
        <ele>53.7</ele>
        <time>2023-02-08T13:35:38Z</time>
      </trkpt>
      <trkpt lat="49.78709" lon="2.17838">
        <ele>53.7</ele>
        <time>2023-02-08T13:35:39Z</time>
      </trkpt>
      <trkpt lat="49.7871" lon="2.17839">
        <ele>53.6</ele>
        <time>2023-02-08T13:35:40Z</time>
      </trkpt>
      <trkpt lat="49.78711" lon="2.17839">
        <ele>53.6</ele>
        <time>2023-02-08T13:35:41Z</time>
      </trkpt>
      <trkpt lat="49.78711" lon="2.1784">
        <ele>53.6</ele>
        <time>2023-02-08T13:35:42Z</time>
      </trkpt>
      <trkpt lat="49.78711" lon="2.1784">
        <ele>53.6</ele>
        <time>2023-02-08T13:35:43Z</time>
      </trkpt>
      <trkpt lat="49.78712" lon="2.17841">
        <ele>53.6</ele>
        <time>2023-02-08T13:35:44Z</time>
      </trkpt>
      <trkpt lat="49.78713" lon="2.17842">
        <ele>53.6</ele>
        <time>2023-02-08T13:35:45Z</time>
      </trkpt>
      <trkpt lat="49.78713" lon="2.17844">
        <ele>53.6</ele>
        <time>2023-02-08T13:35:46Z</time>
      </trkpt>
      <trkpt lat="49.78714" lon="2.17845">
        <ele>53.5</ele>
        <time>2023-02-08T13:35:48Z</time>
      </trkpt>
      <trkpt lat="49.78714" lon="2.17846">
        <ele>53.5</ele>
        <time>2023-02-08T13:35:49Z</time>
      </trkpt>
      <trkpt lat="49.78715" lon="2.17848">
        <ele>53.5</ele>
        <time>2023-02-08T13:35:50Z</time>
      </trkpt>
      <trkpt lat="49.78716" lon="2.1785">
        <ele>53.5</ele>
        <time>2023-02-08T13:35:51Z</time>
      </trkpt>
      <trkpt lat="49.78716" lon="2.17851">
        <ele>53.5</ele>
        <time>2023-02-08T13:35:52Z</time>
      </trkpt>
      <trkpt lat="49.78718" lon="2.17854">
        <ele>53.5</ele>
        <time>2023-02-08T13:35:53Z</time>
      </trkpt>
      <trkpt lat="49.78719" lon="2.17854">
        <ele>53.4</ele>
        <time>2023-02-08T13:35:54Z</time>
      </trkpt>
      <trkpt lat="49.7872" lon="2.17855">
        <ele>53.4</ele>
        <time>2023-02-08T13:35:55Z</time>
      </trkpt>
      <trkpt lat="49.78721" lon="2.17857">
        <ele>53.4</ele>
        <time>2023-02-08T13:35:56Z</time>
      </trkpt>
      <trkpt lat="49.78722" lon="2.17858">
        <ele>53.4</ele>
        <time>2023-02-08T13:35:57Z</time>
      </trkpt>
      <trkpt lat="49.78723" lon="2.17859">
        <ele>53.4</ele>
        <time>2023-02-08T13:35:59Z</time>
      </trkpt>
      <trkpt lat="49.78725" lon="2.1786">
        <ele>53.4</ele>
        <time>2023-02-08T13:36:00Z</time>
      </trkpt>
      <trkpt lat="49.78726" lon="2.17862">
        <ele>53.3</ele>
        <time>2023-02-08T13:36:01Z</time>
      </trkpt>
      <trkpt lat="49.78727" lon="2.17863">
        <ele>53.3</ele>
        <time>2023-02-08T13:36:02Z</time>
      </trkpt>
      <trkpt lat="49.78728" lon="2.17865">
        <ele>53.3</ele>
        <time>2023-02-08T13:36:03Z</time>
      </trkpt>
      <trkpt lat="49.7873" lon="2.17867">
        <ele>53.3</ele>
        <time>2023-02-08T13:36:04Z</time>
      </trkpt>
      <trkpt lat="49.78731" lon="2.17868">
        <ele>53.3</ele>
        <time>2023-02-08T13:36:05Z</time>
      </trkpt>
      <trkpt lat="49.78732" lon="2.1787">
        <ele>53.3</ele>
        <time>2023-02-08T13:36:06Z</time>
      </trkpt>
      <trkpt lat="49.78733" lon="2.17871">
        <ele>53.3</ele>
        <time>2023-02-08T13:36:07Z</time>
      </trkpt>
      <trkpt lat="49.78734" lon="2.17872">
        <ele>53.3</ele>
        <time>2023-02-08T13:36:09Z</time>
      </trkpt>
      <trkpt lat="49.78735" lon="2.17873">
        <ele>53.3</ele>
        <time>2023-02-08T13:36:10Z</time>
      </trkpt>
      <trkpt lat="49.78737" lon="2.17875">
        <ele>53.3</ele>
        <time>2023-02-08T13:36:11Z</time>
      </trkpt>
      <trkpt lat="49.78738" lon="2.17875">
        <ele>53.2</ele>
        <time>2023-02-08T13:36:12Z</time>
      </trkpt>
      <trkpt lat="49.78738" lon="2.17876">
        <ele>53.2</ele>
        <time>2023-02-08T13:36:13Z</time>
      </trkpt>
      <trkpt lat="49.7874" lon="2.17878">
        <ele>53.2</ele>
        <time>2023-02-08T13:36:14Z</time>
      </trkpt>
      <trkpt lat="49.78741" lon="2.17878">
        <ele>53.2</ele>
        <time>2023-02-08T13:36:16Z</time>
      </trkpt>
      <trkpt lat="49.78742" lon="2.17879">
        <ele>53.2</ele>
        <time>2023-02-08T13:36:17Z</time>
      </trkpt>
      <trkpt lat="49.78742" lon="2.1788">
        <ele>53.2</ele>
        <time>2023-02-08T13:36:18Z</time>
      </trkpt>
      <trkpt lat="49.78743" lon="2.17881">
        <ele>53.2</ele>
        <time>2023-02-08T13:36:19Z</time>
      </trkpt>
      <trkpt lat="49.78744" lon="2.17883">
        <ele>53.2</ele>
        <time>2023-02-08T13:36:20Z</time>
      </trkpt>
      <trkpt lat="49.78746" lon="2.17884">
        <ele>53.2</ele>
        <time>2023-02-08T13:36:21Z</time>
      </trkpt>
      <trkpt lat="49.78746" lon="2.17885">
        <ele>53.2</ele>
        <time>2023-02-08T13:36:22Z</time>
      </trkpt>
      <trkpt lat="49.78747" lon="2.17886">
        <ele>53.2</ele>
        <time>2023-02-08T13:36:23Z</time>
      </trkpt>
      <trkpt lat="49.78749" lon="2.17888">
        <ele>53.2</ele>
        <time>2023-02-08T13:36:25Z</time>
      </trkpt>
      <trkpt lat="49.78749" lon="2.17889">
        <ele>53.2</ele>
        <time>2023-02-08T13:36:26Z</time>
      </trkpt>
      <trkpt lat="49.7875" lon="2.1789">
        <ele>53.2</ele>
        <time>2023-02-08T13:36:27Z</time>
      </trkpt>
      <trkpt lat="49.78751" lon="2.17891">
        <ele>53.3</ele>
        <time>2023-02-08T13:36:28Z</time>
      </trkpt>
      <trkpt lat="49.78751" lon="2.17891">
        <ele>53.3</ele>
        <time>2023-02-08T13:36:29Z</time>
      </trkpt>
      <trkpt lat="49.78752" lon="2.17892">
        <ele>53.3</ele>
        <time>2023-02-08T13:36:30Z</time>
      </trkpt>
      <trkpt lat="49.78753" lon="2.17893">
        <ele>53.3</ele>
        <time>2023-02-08T13:36:32Z</time>
      </trkpt>
      <trkpt lat="49.78754" lon="2.17893">
        <ele>53.3</ele>
        <time>2023-02-08T13:36:33Z</time>
      </trkpt>
      <trkpt lat="49.78754" lon="2.17894">
        <ele>53.3</ele>
        <time>2023-02-08T13:36:34Z</time>
      </trkpt>
      <trkpt lat="49.78755" lon="2.17894">
        <ele>53.3</ele>
        <time>2023-02-08T13:36:35Z</time>
      </trkpt>
      <trkpt lat="49.78756" lon="2.17895">
        <ele>53.3</ele>
        <time>2023-02-08T13:36:36Z</time>
      </trkpt>
      <trkpt lat="49.78757" lon="2.17896">
        <ele>53.3</ele>
        <time>2023-02-08T13:36:37Z</time>
      </trkpt>
      <trkpt lat="49.78758" lon="2.17896">
        <ele>53.3</ele>
        <time>2023-02-08T13:36:38Z</time>
      </trkpt>
      <trkpt lat="49.78758" lon="2.17896">
        <ele>53.3</ele>
        <time>2023-02-08T13:36:40Z</time>
      </trkpt>
      <trkpt lat="49.78759" lon="2.17896">
        <ele>53.3</ele>
        <time>2023-02-08T13:36:41Z</time>
      </trkpt>
      <trkpt lat="49.7876" lon="2.17896">
        <ele>53.3</ele>
        <time>2023-02-08T13:36:42Z</time>
      </trkpt>
      <trkpt lat="49.78761" lon="2.17896">
        <ele>53.3</ele>
        <time>2023-02-08T13:36:43Z</time>
      </trkpt>
      <trkpt lat="49.78762" lon="2.17897">
        <ele>53.3</ele>
        <time>2023-02-08T13:36:44Z</time>
      </trkpt>
      <trkpt lat="49.78763" lon="2.17898">
        <ele>53.3</ele>
        <time>2023-02-08T13:36:45Z</time>
      </trkpt>
      <trkpt lat="49.78764" lon="2.17898">
        <ele>53.3</ele>
        <time>2023-02-08T13:36:46Z</time>
      </trkpt>
      <trkpt lat="49.78765" lon="2.17899">
        <ele>53.3</ele>
        <time>2023-02-08T13:36:47Z</time>
      </trkpt>
      <trkpt lat="49.78766" lon="2.179">
        <ele>53.3</ele>
        <time>2023-02-08T13:36:49Z</time>
      </trkpt>
      <trkpt lat="49.78767" lon="2.17901">
        <ele>53.3</ele>
        <time>2023-02-08T13:36:50Z</time>
      </trkpt>
      <trkpt lat="49.78767" lon="2.17901">
        <ele>53.4</ele>
        <time>2023-02-08T13:36:51Z</time>
      </trkpt>
      <trkpt lat="49.78768" lon="2.17902">
        <ele>53.4</ele>
        <time>2023-02-08T13:36:52Z</time>
      </trkpt>
      <trkpt lat="49.78769" lon="2.17903">
        <ele>53.4</ele>
        <time>2023-02-08T13:36:53Z</time>
      </trkpt>
      <trkpt lat="49.7877" lon="2.17904">
        <ele>53.4</ele>
        <time>2023-02-08T13:36:54Z</time>
      </trkpt>
      <trkpt lat="49.78771" lon="2.17905">
        <ele>53.4</ele>
        <time>2023-02-08T13:36:55Z</time>
      </trkpt>
      <trkpt lat="49.78772" lon="2.17906">
        <ele>53.4</ele>
        <time>2023-02-08T13:36:56Z</time>
      </trkpt>
      <trkpt lat="49.78772" lon="2.17906">
        <ele>53.4</ele>
        <time>2023-02-08T13:36:57Z</time>
      </trkpt>
      <trkpt lat="49.78773" lon="2.17907">
        <ele>53.4</ele>
        <time>2023-02-08T13:36:59Z</time>
      </trkpt>
      <trkpt lat="49.78774" lon="2.17908">
        <ele>53.4</ele>
        <time>2023-02-08T13:37:00Z</time>
      </trkpt>
      <trkpt lat="49.78775" lon="2.17909">
        <ele>53.4</ele>
        <time>2023-02-08T13:37:01Z</time>
      </trkpt>
      <trkpt lat="49.78776" lon="2.1791">
        <ele>53.4</ele>
        <time>2023-02-08T13:37:02Z</time>
      </trkpt>
      <trkpt lat="49.78776" lon="2.17911">
        <ele>53.4</ele>
        <time>2023-02-08T13:37:03Z</time>
      </trkpt>
      <trkpt lat="49.78778" lon="2.17913">
        <ele>53.5</ele>
        <time>2023-02-08T13:37:04Z</time>
      </trkpt>
      <trkpt lat="49.78778" lon="2.17914">
        <ele>53.5</ele>
        <time>2023-02-08T13:37:06Z</time>
      </trkpt>
      <trkpt lat="49.78779" lon="2.17915">
        <ele>53.5</ele>
        <time>2023-02-08T13:37:07Z</time>
      </trkpt>
      <trkpt lat="49.7878" lon="2.17916">
        <ele>53.5</ele>
        <time>2023-02-08T13:37:08Z</time>
      </trkpt>
      <trkpt lat="49.78781" lon="2.17917">
        <ele>53.5</ele>
        <time>2023-02-08T13:37:09Z</time>
      </trkpt>
      <trkpt lat="49.78782" lon="2.17918">
        <ele>53.5</ele>
        <time>2023-02-08T13:37:10Z</time>
      </trkpt>
      <trkpt lat="49.78783" lon="2.1792">
        <ele>53.6</ele>
        <time>2023-02-08T13:37:11Z</time>
      </trkpt>
      <trkpt lat="49.78784" lon="2.17922">
        <ele>53.6</ele>
        <time>2023-02-08T13:37:12Z</time>
      </trkpt>
      <trkpt lat="49.78785" lon="2.17923">
        <ele>53.6</ele>
        <time>2023-02-08T13:37:14Z</time>
      </trkpt>
      <trkpt lat="49.78786" lon="2.17925">
        <ele>53.6</ele>
        <time>2023-02-08T13:37:15Z</time>
      </trkpt>
      <trkpt lat="49.78787" lon="2.17927">
        <ele>53.6</ele>
        <time>2023-02-08T13:37:16Z</time>
      </trkpt>
      <trkpt lat="49.78788" lon="2.17928">
        <ele>53.7</ele>
        <time>2023-02-08T13:37:17Z</time>
      </trkpt>
      <trkpt lat="49.78789" lon="2.17929">
        <ele>53.7</ele>
        <time>2023-02-08T13:37:18Z</time>
      </trkpt>
      <trkpt lat="49.7879" lon="2.1793">
        <ele>53.7</ele>
        <time>2023-02-08T13:37:19Z</time>
      </trkpt>
      <trkpt lat="49.78791" lon="2.17932">
        <ele>53.7</ele>
        <time>2023-02-08T13:37:20Z</time>
      </trkpt>
      <trkpt lat="49.78792" lon="2.17933">
        <ele>53.8</ele>
        <time>2023-02-08T13:37:21Z</time>
      </trkpt>
      <trkpt lat="49.78793" lon="2.17934">
        <ele>53.8</ele>
        <time>2023-02-08T13:37:22Z</time>
      </trkpt>
      <trkpt lat="49.78795" lon="2.17936">
        <ele>53.9</ele>
        <time>2023-02-08T13:37:24Z</time>
      </trkpt>
      <trkpt lat="49.78795" lon="2.17937">
        <ele>53.9</ele>
        <time>2023-02-08T13:37:25Z</time>
      </trkpt>
      <trkpt lat="49.78796" lon="2.17938">
        <ele>53.9</ele>
        <time>2023-02-08T13:37:26Z</time>
      </trkpt>
      <trkpt lat="49.78798" lon="2.1794">
        <ele>53.9</ele>
        <time>2023-02-08T13:37:27Z</time>
      </trkpt>
      <trkpt lat="49.78799" lon="2.17941">
        <ele>54</ele>
        <time>2023-02-08T13:37:28Z</time>
      </trkpt>
      <trkpt lat="49.78801" lon="2.17943">
        <ele>54.1</ele>
        <time>2023-02-08T13:37:30Z</time>
      </trkpt>
      <trkpt lat="49.78802" lon="2.17944">
        <ele>54.1</ele>
        <time>2023-02-08T13:37:31Z</time>
      </trkpt>
      <trkpt lat="49.78804" lon="2.17946">
        <ele>54.2</ele>
        <time>2023-02-08T13:37:32Z</time>
      </trkpt>
      <trkpt lat="49.78805" lon="2.17946">
        <ele>54.2</ele>
        <time>2023-02-08T13:37:34Z</time>
      </trkpt>
      <trkpt lat="49.78806" lon="2.17947">
        <ele>54.2</ele>
        <time>2023-02-08T13:37:35Z</time>
      </trkpt>
      <trkpt lat="49.78807" lon="2.17948">
        <ele>54.3</ele>
        <time>2023-02-08T13:37:36Z</time>
      </trkpt>
      <trkpt lat="49.78808" lon="2.17949">
        <ele>54.3</ele>
        <time>2023-02-08T13:37:37Z</time>
      </trkpt>
      <trkpt lat="49.78809" lon="2.1795">
        <ele>54.3</ele>
        <time>2023-02-08T13:37:38Z</time>
      </trkpt>
      <trkpt lat="49.7881" lon="2.1795">
        <ele>54.4</ele>
        <time>2023-02-08T13:37:39Z</time>
      </trkpt>
      <trkpt lat="49.78811" lon="2.17951">
        <ele>54.4</ele>
        <time>2023-02-08T13:37:40Z</time>
      </trkpt>
      <trkpt lat="49.78813" lon="2.17953">
        <ele>54.5</ele>
        <time>2023-02-08T13:37:42Z</time>
      </trkpt>
      <trkpt lat="49.78813" lon="2.17954">
        <ele>54.5</ele>
        <time>2023-02-08T13:37:43Z</time>
      </trkpt>
      <trkpt lat="49.78815" lon="2.17955">
        <ele>54.6</ele>
        <time>2023-02-08T13:37:44Z</time>
      </trkpt>
      <trkpt lat="49.78816" lon="2.17956">
        <ele>54.6</ele>
        <time>2023-02-08T13:37:45Z</time>
      </trkpt>
      <trkpt lat="49.78817" lon="2.17957">
        <ele>54.7</ele>
        <time>2023-02-08T13:37:46Z</time>
      </trkpt>
      <trkpt lat="49.78818" lon="2.17958">
        <ele>54.8</ele>
        <time>2023-02-08T13:37:47Z</time>
      </trkpt>
      <trkpt lat="49.7882" lon="2.17959">
        <ele>54.8</ele>
        <time>2023-02-08T13:37:48Z</time>
      </trkpt>
      <trkpt lat="49.78821" lon="2.17961">
        <ele>54.9</ele>
        <time>2023-02-08T13:37:49Z</time>
      </trkpt>
      <trkpt lat="49.78822" lon="2.17962">
        <ele>54.9</ele>
        <time>2023-02-08T13:37:51Z</time>
      </trkpt>
      <trkpt lat="49.78824" lon="2.17964">
        <ele>55</ele>
        <time>2023-02-08T13:37:52Z</time>
      </trkpt>
      <trkpt lat="49.78825" lon="2.17965">
        <ele>55.1</ele>
        <time>2023-02-08T13:37:53Z</time>
      </trkpt>
      <trkpt lat="49.78826" lon="2.17966">
        <ele>55.1</ele>
        <time>2023-02-08T13:37:54Z</time>
      </trkpt>
      <trkpt lat="49.78827" lon="2.17967">
        <ele>55.2</ele>
        <time>2023-02-08T13:37:55Z</time>
      </trkpt>
      <trkpt lat="49.78828" lon="2.17968">
        <ele>55.2</ele>
        <time>2023-02-08T13:37:56Z</time>
      </trkpt>
      <trkpt lat="49.78829" lon="2.17969">
        <ele>55.3</ele>
        <time>2023-02-08T13:37:58Z</time>
      </trkpt>
      <trkpt lat="49.7883" lon="2.17971">
        <ele>55.3</ele>
        <time>2023-02-08T13:37:59Z</time>
      </trkpt>
      <trkpt lat="49.78831" lon="2.17972">
        <ele>55.4</ele>
        <time>2023-02-08T13:38:00Z</time>
      </trkpt>
      <trkpt lat="49.78832" lon="2.17973">
        <ele>55.4</ele>
        <time>2023-02-08T13:38:01Z</time>
      </trkpt>
      <trkpt lat="49.78833" lon="2.17974">
        <ele>55.5</ele>
        <time>2023-02-08T13:38:02Z</time>
      </trkpt>
      <trkpt lat="49.78834" lon="2.17976">
        <ele>55.5</ele>
        <time>2023-02-08T13:38:03Z</time>
      </trkpt>
      <trkpt lat="49.78835" lon="2.17977">
        <ele>55.5</ele>
        <time>2023-02-08T13:38:05Z</time>
      </trkpt>
      <trkpt lat="49.78836" lon="2.17978">
        <ele>55.6</ele>
        <time>2023-02-08T13:38:06Z</time>
      </trkpt>
      <trkpt lat="49.78837" lon="2.17978">
        <ele>55.6</ele>
        <time>2023-02-08T13:38:07Z</time>
      </trkpt>
      <trkpt lat="49.78837" lon="2.17979">
        <ele>55.6</ele>
        <time>2023-02-08T13:38:08Z</time>
      </trkpt>
      <trkpt lat="49.78838" lon="2.1798">
        <ele>55.7</ele>
        <time>2023-02-08T13:38:09Z</time>
      </trkpt>
      <trkpt lat="49.78839" lon="2.17981">
        <ele>55.7</ele>
        <time>2023-02-08T13:38:11Z</time>
      </trkpt>
      <trkpt lat="49.7884" lon="2.17982">
        <ele>55.7</ele>
        <time>2023-02-08T13:38:13Z</time>
      </trkpt>
      <trkpt lat="49.78841" lon="2.17982">
        <ele>55.7</ele>
        <time>2023-02-08T13:38:14Z</time>
      </trkpt>
      <trkpt lat="49.78842" lon="2.17983">
        <ele>55.8</ele>
        <time>2023-02-08T13:38:15Z</time>
      </trkpt>
      <trkpt lat="49.78842" lon="2.17983">
        <ele>55.8</ele>
        <time>2023-02-08T13:38:16Z</time>
      </trkpt>
      <trkpt lat="49.78843" lon="2.17984">
        <ele>55.8</ele>
        <time>2023-02-08T13:38:17Z</time>
      </trkpt>
      <trkpt lat="49.78844" lon="2.17984">
        <ele>55.8</ele>
        <time>2023-02-08T13:38:18Z</time>
      </trkpt>
      <trkpt lat="49.78844" lon="2.17984">
        <ele>55.8</ele>
        <time>2023-02-08T13:38:20Z</time>
      </trkpt>
      <trkpt lat="49.78844" lon="2.17984">
        <ele>55.8</ele>
        <time>2023-02-08T13:38:21Z</time>
      </trkpt>
      <trkpt lat="49.78845" lon="2.17984">
        <ele>55.8</ele>
        <time>2023-02-08T13:38:22Z</time>
      </trkpt>
      <trkpt lat="49.78845" lon="2.17984">
        <ele>55.8</ele>
        <time>2023-02-08T13:38:23Z</time>
      </trkpt>
      <trkpt lat="49.78845" lon="2.17984">
        <ele>55.9</ele>
        <time>2023-02-08T13:38:24Z</time>
      </trkpt>
      <trkpt lat="49.78846" lon="2.17985">
        <ele>55.9</ele>
        <time>2023-02-08T13:38:26Z</time>
      </trkpt>
      <trkpt lat="49.78847" lon="2.17986">
        <ele>55.9</ele>
        <time>2023-02-08T13:38:27Z</time>
      </trkpt>
      <trkpt lat="49.78848" lon="2.17986">
        <ele>55.9</ele>
        <time>2023-02-08T13:38:28Z</time>
      </trkpt>
      <trkpt lat="49.78848" lon="2.17988">
        <ele>55.9</ele>
        <time>2023-02-08T13:38:30Z</time>
      </trkpt>
      <trkpt lat="49.78848" lon="2.17989">
        <ele>56</ele>
        <time>2023-02-08T13:38:31Z</time>
      </trkpt>
      <trkpt lat="49.78849" lon="2.1799">
        <ele>56</ele>
        <time>2023-02-08T13:38:32Z</time>
      </trkpt>
      <trkpt lat="49.78849" lon="2.1799">
        <ele>56</ele>
        <time>2023-02-08T13:38:33Z</time>
      </trkpt>
      <trkpt lat="49.7885" lon="2.17991">
        <ele>56</ele>
        <time>2023-02-08T13:38:34Z</time>
      </trkpt>
      <trkpt lat="49.7885" lon="2.17992">
        <ele>56</ele>
        <time>2023-02-08T13:38:35Z</time>
      </trkpt>
      <trkpt lat="49.78851" lon="2.17993">
        <ele>56.1</ele>
        <time>2023-02-08T13:38:37Z</time>
      </trkpt>
      <trkpt lat="49.7885" lon="2.17994">
        <ele>56.1</ele>
        <time>2023-02-08T13:38:38Z</time>
      </trkpt>
      <trkpt lat="49.78851" lon="2.17995">
        <ele>56.1</ele>
        <time>2023-02-08T13:38:39Z</time>
      </trkpt>
      <trkpt lat="49.78851" lon="2.17996">
        <ele>56.1</ele>
        <time>2023-02-08T13:38:40Z</time>
      </trkpt>
      <trkpt lat="49.78852" lon="2.17996">
        <ele>56.1</ele>
        <time>2023-02-08T13:38:41Z</time>
      </trkpt>
      <trkpt lat="49.78853" lon="2.17997">
        <ele>56.1</ele>
        <time>2023-02-08T13:38:42Z</time>
      </trkpt>
      <trkpt lat="49.78853" lon="2.17997">
        <ele>56.2</ele>
        <time>2023-02-08T13:38:43Z</time>
      </trkpt>
      <trkpt lat="49.78854" lon="2.17998">
        <ele>56.2</ele>
        <time>2023-02-08T13:38:45Z</time>
      </trkpt>
      <trkpt lat="49.78855" lon="2.17999">
        <ele>56.2</ele>
        <time>2023-02-08T13:38:46Z</time>
      </trkpt>
      <trkpt lat="49.78856" lon="2.18001">
        <ele>56.2</ele>
        <time>2023-02-08T13:38:47Z</time>
      </trkpt>
      <trkpt lat="49.78858" lon="2.18003">
        <ele>56.3</ele>
        <time>2023-02-08T13:38:48Z</time>
      </trkpt>
      <trkpt lat="49.78858" lon="2.18004">
        <ele>56.3</ele>
        <time>2023-02-08T13:38:49Z</time>
      </trkpt>
      <trkpt lat="49.78859" lon="2.18005">
        <ele>56.3</ele>
        <time>2023-02-08T13:38:50Z</time>
      </trkpt>
      <trkpt lat="49.7886" lon="2.18007">
        <ele>56.4</ele>
        <time>2023-02-08T13:38:51Z</time>
      </trkpt>
      <trkpt lat="49.78861" lon="2.18009">
        <ele>56.4</ele>
        <time>2023-02-08T13:38:53Z</time>
      </trkpt>
      <trkpt lat="49.78863" lon="2.18011">
        <ele>56.5</ele>
        <time>2023-02-08T13:38:54Z</time>
      </trkpt>
      <trkpt lat="49.78864" lon="2.18013">
        <ele>56.5</ele>
        <time>2023-02-08T13:38:55Z</time>
      </trkpt>
      <trkpt lat="49.78866" lon="2.18016">
        <ele>56.6</ele>
        <time>2023-02-08T13:38:56Z</time>
      </trkpt>
      <trkpt lat="49.78867" lon="2.18017">
        <ele>56.6</ele>
        <time>2023-02-08T13:38:57Z</time>
      </trkpt>
      <trkpt lat="49.78868" lon="2.18019">
        <ele>56.6</ele>
        <time>2023-02-08T13:38:59Z</time>
      </trkpt>
      <trkpt lat="49.7887" lon="2.18021">
        <ele>56.7</ele>
        <time>2023-02-08T13:39:00Z</time>
      </trkpt>
      <trkpt lat="49.78872" lon="2.18023">
        <ele>56.7</ele>
        <time>2023-02-08T13:39:01Z</time>
      </trkpt>
      <trkpt lat="49.78873" lon="2.18024">
        <ele>56.7</ele>
        <time>2023-02-08T13:39:02Z</time>
      </trkpt>
      <trkpt lat="49.78876" lon="2.18027">
        <ele>56.8</ele>
        <time>2023-02-08T13:39:03Z</time>
      </trkpt>
      <trkpt lat="49.78877" lon="2.18028">
        <ele>56.8</ele>
        <time>2023-02-08T13:39:04Z</time>
      </trkpt>
      <trkpt lat="49.78878" lon="2.18029">
        <ele>56.8</ele>
        <time>2023-02-08T13:39:06Z</time>
      </trkpt>
      <trkpt lat="49.78879" lon="2.1803">
        <ele>56.9</ele>
        <time>2023-02-08T13:39:07Z</time>
      </trkpt>
      <trkpt lat="49.78882" lon="2.18033">
        <ele>56.9</ele>
        <time>2023-02-08T13:39:08Z</time>
      </trkpt>
      <trkpt lat="49.78882" lon="2.18034">
        <ele>56.9</ele>
        <time>2023-02-08T13:39:09Z</time>
      </trkpt>
      <trkpt lat="49.78884" lon="2.18036">
        <ele>57</ele>
        <time>2023-02-08T13:39:10Z</time>
      </trkpt>
      <trkpt lat="49.78885" lon="2.18038">
        <ele>57</ele>
        <time>2023-02-08T13:39:11Z</time>
      </trkpt>
      <trkpt lat="49.78886" lon="2.1804">
        <ele>57</ele>
        <time>2023-02-08T13:39:13Z</time>
      </trkpt>
      <trkpt lat="49.78887" lon="2.18041">
        <ele>57.1</ele>
        <time>2023-02-08T13:39:14Z</time>
      </trkpt>
      <trkpt lat="49.78888" lon="2.18043">
        <ele>57.1</ele>
        <time>2023-02-08T13:39:15Z</time>
      </trkpt>
      <trkpt lat="49.78889" lon="2.18044">
        <ele>57.1</ele>
        <time>2023-02-08T13:39:16Z</time>
      </trkpt>
      <trkpt lat="49.78891" lon="2.18046">
        <ele>57.1</ele>
        <time>2023-02-08T13:39:17Z</time>
      </trkpt>
      <trkpt lat="49.78892" lon="2.18048">
        <ele>57.2</ele>
        <time>2023-02-08T13:39:18Z</time>
      </trkpt>
      <trkpt lat="49.78893" lon="2.1805">
        <ele>57.2</ele>
        <time>2023-02-08T13:39:19Z</time>
      </trkpt>
      <trkpt lat="49.78894" lon="2.18052">
        <ele>57.2</ele>
        <time>2023-02-08T13:39:21Z</time>
      </trkpt>
      <trkpt lat="49.78895" lon="2.18053">
        <ele>57.2</ele>
        <time>2023-02-08T13:39:22Z</time>
      </trkpt>
      <trkpt lat="49.78897" lon="2.18055">
        <ele>57.3</ele>
        <time>2023-02-08T13:39:23Z</time>
      </trkpt>
      <trkpt lat="49.78898" lon="2.18056">
        <ele>57.3</ele>
        <time>2023-02-08T13:39:24Z</time>
      </trkpt>
      <trkpt lat="49.78899" lon="2.18057">
        <ele>57.3</ele>
        <time>2023-02-08T13:39:25Z</time>
      </trkpt>
      <trkpt lat="49.789" lon="2.18058">
        <ele>57.3</ele>
        <time>2023-02-08T13:39:26Z</time>
      </trkpt>
      <trkpt lat="49.78901" lon="2.1806">
        <ele>57.4</ele>
        <time>2023-02-08T13:39:27Z</time>
      </trkpt>
      <trkpt lat="49.78902" lon="2.1806">
        <ele>57.4</ele>
        <time>2023-02-08T13:39:29Z</time>
      </trkpt>
      <trkpt lat="49.78903" lon="2.18061">
        <ele>57.4</ele>
        <time>2023-02-08T13:39:30Z</time>
      </trkpt>
      <trkpt lat="49.78904" lon="2.18062">
        <ele>57.4</ele>
        <time>2023-02-08T13:39:31Z</time>
      </trkpt>
      <trkpt lat="49.78904" lon="2.18062">
        <ele>57.4</ele>
        <time>2023-02-08T13:39:32Z</time>
      </trkpt>
      <trkpt lat="49.78906" lon="2.18064">
        <ele>57.5</ele>
        <time>2023-02-08T13:39:33Z</time>
      </trkpt>
      <trkpt lat="49.78906" lon="2.18065">
        <ele>57.5</ele>
        <time>2023-02-08T13:39:34Z</time>
      </trkpt>
      <trkpt lat="49.78907" lon="2.18065">
        <ele>57.5</ele>
        <time>2023-02-08T13:39:35Z</time>
      </trkpt>
      <trkpt lat="49.78908" lon="2.18066">
        <ele>57.5</ele>
        <time>2023-02-08T13:39:37Z</time>
      </trkpt>
      <trkpt lat="49.78908" lon="2.18067">
        <ele>57.5</ele>
        <time>2023-02-08T13:39:38Z</time>
      </trkpt>
      <trkpt lat="49.78909" lon="2.18068">
        <ele>57.5</ele>
        <time>2023-02-08T13:39:39Z</time>
      </trkpt>
      <trkpt lat="49.78909" lon="2.18069">
        <ele>57.5</ele>
        <time>2023-02-08T13:39:40Z</time>
      </trkpt>
      <trkpt lat="49.7891" lon="2.1807">
        <ele>57.5</ele>
        <time>2023-02-08T13:39:41Z</time>
      </trkpt>
      <trkpt lat="49.78911" lon="2.18071">
        <ele>57.5</ele>
        <time>2023-02-08T13:39:42Z</time>
      </trkpt>
      <trkpt lat="49.78912" lon="2.18073">
        <ele>57.6</ele>
        <time>2023-02-08T13:39:43Z</time>
      </trkpt>
      <trkpt lat="49.78913" lon="2.18073">
        <ele>57.6</ele>
        <time>2023-02-08T13:39:44Z</time>
      </trkpt>
      <trkpt lat="49.78913" lon="2.18074">
        <ele>57.6</ele>
        <time>2023-02-08T13:39:46Z</time>
      </trkpt>
      <trkpt lat="49.78913" lon="2.18075">
        <ele>57.6</ele>
        <time>2023-02-08T13:39:47Z</time>
      </trkpt>
      <trkpt lat="49.78914" lon="2.18075">
        <ele>57.6</ele>
        <time>2023-02-08T13:39:48Z</time>
      </trkpt>
      <trkpt lat="49.78915" lon="2.18076">
        <ele>57.6</ele>
        <time>2023-02-08T13:39:49Z</time>
      </trkpt>
      <trkpt lat="49.78915" lon="2.18077">
        <ele>57.6</ele>
        <time>2023-02-08T13:39:50Z</time>
      </trkpt>
      <trkpt lat="49.78916" lon="2.18078">
        <ele>57.6</ele>
        <time>2023-02-08T13:39:51Z</time>
      </trkpt>
      <trkpt lat="49.78918" lon="2.18081">
        <ele>57.7</ele>
        <time>2023-02-08T13:39:52Z</time>
      </trkpt>
      <trkpt lat="49.78919" lon="2.18081">
        <ele>57.7</ele>
        <time>2023-02-08T13:39:53Z</time>
      </trkpt>
      <trkpt lat="49.7892" lon="2.18082">
        <ele>57.7</ele>
        <time>2023-02-08T13:39:55Z</time>
      </trkpt>
      <trkpt lat="49.7892" lon="2.18083">
        <ele>57.7</ele>
        <time>2023-02-08T13:39:56Z</time>
      </trkpt>
      <trkpt lat="49.78921" lon="2.18084">
        <ele>57.7</ele>
        <time>2023-02-08T13:39:57Z</time>
      </trkpt>
      <trkpt lat="49.78922" lon="2.18085">
        <ele>57.7</ele>
        <time>2023-02-08T13:39:58Z</time>
      </trkpt>
      <trkpt lat="49.78923" lon="2.18086">
        <ele>57.7</ele>
        <time>2023-02-08T13:39:59Z</time>
      </trkpt>
      <trkpt lat="49.78924" lon="2.18088">
        <ele>57.7</ele>
        <time>2023-02-08T13:40:00Z</time>
      </trkpt>
      <trkpt lat="49.78927" lon="2.1809">
        <ele>57.8</ele>
        <time>2023-02-08T13:40:01Z</time>
      </trkpt>
      <trkpt lat="49.78928" lon="2.18091">
        <ele>57.8</ele>
        <time>2023-02-08T13:40:02Z</time>
      </trkpt>
      <trkpt lat="49.7893" lon="2.18093">
        <ele>57.8</ele>
        <time>2023-02-08T13:40:03Z</time>
      </trkpt>
      <trkpt lat="49.78931" lon="2.18094">
        <ele>57.8</ele>
        <time>2023-02-08T13:40:05Z</time>
      </trkpt>
      <trkpt lat="49.78932" lon="2.18095">
        <ele>57.8</ele>
        <time>2023-02-08T13:40:06Z</time>
      </trkpt>
      <trkpt lat="49.78934" lon="2.18096">
        <ele>57.8</ele>
        <time>2023-02-08T13:40:07Z</time>
      </trkpt>
      <trkpt lat="49.78936" lon="2.18099">
        <ele>57.8</ele>
        <time>2023-02-08T13:40:08Z</time>
      </trkpt>
      <trkpt lat="49.78937" lon="2.181">
        <ele>57.8</ele>
        <time>2023-02-08T13:40:09Z</time>
      </trkpt>
      <trkpt lat="49.7894" lon="2.18103">
        <ele>57.8</ele>
        <time>2023-02-08T13:40:10Z</time>
      </trkpt>
      <trkpt lat="49.7894" lon="2.18104">
        <ele>57.8</ele>
        <time>2023-02-08T13:40:11Z</time>
      </trkpt>
      <trkpt lat="49.78943" lon="2.18107">
        <ele>57.9</ele>
        <time>2023-02-08T13:40:12Z</time>
      </trkpt>
      <trkpt lat="49.78944" lon="2.18107">
        <ele>57.9</ele>
        <time>2023-02-08T13:40:13Z</time>
      </trkpt>
      <trkpt lat="49.78945" lon="2.18109">
        <ele>57.9</ele>
        <time>2023-02-08T13:40:15Z</time>
      </trkpt>
      <trkpt lat="49.78946" lon="2.18111">
        <ele>57.9</ele>
        <time>2023-02-08T13:40:16Z</time>
      </trkpt>
      <trkpt lat="49.78949" lon="2.18113">
        <ele>57.9</ele>
        <time>2023-02-08T13:40:17Z</time>
      </trkpt>
      <trkpt lat="49.7895" lon="2.18114">
        <ele>57.9</ele>
        <time>2023-02-08T13:40:18Z</time>
      </trkpt>
      <trkpt lat="49.78951" lon="2.18115">
        <ele>57.9</ele>
        <time>2023-02-08T13:40:19Z</time>
      </trkpt>
      <trkpt lat="49.78952" lon="2.18117">
        <ele>57.9</ele>
        <time>2023-02-08T13:40:20Z</time>
      </trkpt>
      <trkpt lat="49.78953" lon="2.18118">
        <ele>57.9</ele>
        <time>2023-02-08T13:40:21Z</time>
      </trkpt>
      <trkpt lat="49.78955" lon="2.1812">
        <ele>57.9</ele>
        <time>2023-02-08T13:40:23Z</time>
      </trkpt>
      <trkpt lat="49.78955" lon="2.18121">
        <ele>57.9</ele>
        <time>2023-02-08T13:40:24Z</time>
      </trkpt>
      <trkpt lat="49.78956" lon="2.18122">
        <ele>57.9</ele>
        <time>2023-02-08T13:40:25Z</time>
      </trkpt>
      <trkpt lat="49.78957" lon="2.18123">
        <ele>58</ele>
        <time>2023-02-08T13:40:26Z</time>
      </trkpt>
      <trkpt lat="49.78959" lon="2.18125">
        <ele>58</ele>
        <time>2023-02-08T13:40:27Z</time>
      </trkpt>
      <trkpt lat="49.78959" lon="2.18126">
        <ele>58</ele>
        <time>2023-02-08T13:40:28Z</time>
      </trkpt>
      <trkpt lat="49.7896" lon="2.18126">
        <ele>58</ele>
        <time>2023-02-08T13:40:29Z</time>
      </trkpt>
      <trkpt lat="49.78961" lon="2.18127">
        <ele>58</ele>
        <time>2023-02-08T13:40:30Z</time>
      </trkpt>
      <trkpt lat="49.78962" lon="2.18128">
        <ele>58</ele>
        <time>2023-02-08T13:40:31Z</time>
      </trkpt>
      <trkpt lat="49.78963" lon="2.18129">
        <ele>58</ele>
        <time>2023-02-08T13:40:32Z</time>
      </trkpt>
      <trkpt lat="49.78964" lon="2.18129">
        <ele>58</ele>
        <time>2023-02-08T13:40:34Z</time>
      </trkpt>
      <trkpt lat="49.78964" lon="2.18129">
        <ele>58</ele>
        <time>2023-02-08T13:40:35Z</time>
      </trkpt>
      <trkpt lat="49.78964" lon="2.1813">
        <ele>58</ele>
        <time>2023-02-08T13:40:36Z</time>
      </trkpt>
      <trkpt lat="49.78965" lon="2.1813">
        <ele>58</ele>
        <time>2023-02-08T13:40:37Z</time>
      </trkpt>
      <trkpt lat="49.78966" lon="2.18131">
        <ele>58</ele>
        <time>2023-02-08T13:40:38Z</time>
      </trkpt>
      <trkpt lat="49.78968" lon="2.18132">
        <ele>58</ele>
        <time>2023-02-08T13:40:39Z</time>
      </trkpt>
      <trkpt lat="49.78968" lon="2.18132">
        <ele>58</ele>
        <time>2023-02-08T13:40:40Z</time>
      </trkpt>
      <trkpt lat="49.78969" lon="2.18133">
        <ele>58</ele>
        <time>2023-02-08T13:40:41Z</time>
      </trkpt>
      <trkpt lat="49.7897" lon="2.18133">
        <ele>58</ele>
        <time>2023-02-08T13:40:42Z</time>
      </trkpt>
      <trkpt lat="49.7897" lon="2.18134">
        <ele>58</ele>
        <time>2023-02-08T13:40:44Z</time>
      </trkpt>
      <trkpt lat="49.78971" lon="2.18135">
        <ele>58</ele>
        <time>2023-02-08T13:40:45Z</time>
      </trkpt>
      <trkpt lat="49.78971" lon="2.18136">
        <ele>58</ele>
        <time>2023-02-08T13:40:46Z</time>
      </trkpt>
      <trkpt lat="49.78972" lon="2.18137">
        <ele>58.1</ele>
        <time>2023-02-08T13:40:47Z</time>
      </trkpt>
      <trkpt lat="49.78973" lon="2.18139">
        <ele>58.1</ele>
        <time>2023-02-08T13:40:48Z</time>
      </trkpt>
      <trkpt lat="49.78974" lon="2.1814">
        <ele>58.1</ele>
        <time>2023-02-08T13:40:49Z</time>
      </trkpt>
      <trkpt lat="49.78976" lon="2.18142">
        <ele>58.1</ele>
        <time>2023-02-08T13:40:51Z</time>
      </trkpt>
      <trkpt lat="49.78976" lon="2.18143">
        <ele>58.1</ele>
        <time>2023-02-08T13:40:52Z</time>
      </trkpt>
      <trkpt lat="49.78977" lon="2.18144">
        <ele>58.1</ele>
        <time>2023-02-08T13:40:53Z</time>
      </trkpt>
      <trkpt lat="49.78979" lon="2.18145">
        <ele>58.1</ele>
        <time>2023-02-08T13:40:54Z</time>
      </trkpt>
      <trkpt lat="49.7898" lon="2.18146">
        <ele>58.1</ele>
        <time>2023-02-08T13:40:55Z</time>
      </trkpt>
      <trkpt lat="49.7898" lon="2.18147">
        <ele>58.1</ele>
        <time>2023-02-08T13:40:56Z</time>
      </trkpt>
      <trkpt lat="49.78982" lon="2.18148">
        <ele>58.1</ele>
        <time>2023-02-08T13:40:57Z</time>
      </trkpt>
      <trkpt lat="49.78983" lon="2.18149">
        <ele>58.1</ele>
        <time>2023-02-08T13:40:58Z</time>
      </trkpt>
      <trkpt lat="49.78984" lon="2.18151">
        <ele>58.1</ele>
        <time>2023-02-08T13:40:59Z</time>
      </trkpt>
      <trkpt lat="49.78985" lon="2.18152">
        <ele>58.1</ele>
        <time>2023-02-08T13:41:01Z</time>
      </trkpt>
      <trkpt lat="49.78986" lon="2.18154">
        <ele>58.1</ele>
        <time>2023-02-08T13:41:02Z</time>
      </trkpt>
      <trkpt lat="49.78988" lon="2.18156">
        <ele>58.1</ele>
        <time>2023-02-08T13:41:03Z</time>
      </trkpt>
      <trkpt lat="49.78989" lon="2.18157">
        <ele>58.1</ele>
        <time>2023-02-08T13:41:04Z</time>
      </trkpt>
      <trkpt lat="49.7899" lon="2.18157">
        <ele>58.1</ele>
        <time>2023-02-08T13:41:05Z</time>
      </trkpt>
      <trkpt lat="49.78991" lon="2.18158">
        <ele>58.1</ele>
        <time>2023-02-08T13:41:06Z</time>
      </trkpt>
      <trkpt lat="49.78992" lon="2.18159">
        <ele>58</ele>
        <time>2023-02-08T13:41:08Z</time>
      </trkpt>
      <trkpt lat="49.78992" lon="2.1816">
        <ele>58</ele>
        <time>2023-02-08T13:41:09Z</time>
      </trkpt>
      <trkpt lat="49.78993" lon="2.1816">
        <ele>58</ele>
        <time>2023-02-08T13:41:10Z</time>
      </trkpt>
      <trkpt lat="49.78994" lon="2.18161">
        <ele>58</ele>
        <time>2023-02-08T13:41:11Z</time>
      </trkpt>
      <trkpt lat="49.78995" lon="2.18162">
        <ele>58</ele>
        <time>2023-02-08T13:41:12Z</time>
      </trkpt>
      <trkpt lat="49.78996" lon="2.18163">
        <ele>58</ele>
        <time>2023-02-08T13:41:13Z</time>
      </trkpt>
      <trkpt lat="49.78997" lon="2.18164">
        <ele>58</ele>
        <time>2023-02-08T13:41:14Z</time>
      </trkpt>
      <trkpt lat="49.78998" lon="2.18165">
        <ele>58</ele>
        <time>2023-02-08T13:41:15Z</time>
      </trkpt>
      <trkpt lat="49.78999" lon="2.18166">
        <ele>58</ele>
        <time>2023-02-08T13:41:16Z</time>
      </trkpt>
      <trkpt lat="49.79" lon="2.18167">
        <ele>58</ele>
        <time>2023-02-08T13:41:17Z</time>
      </trkpt>
      <trkpt lat="49.79001" lon="2.18168">
        <ele>58</ele>
        <time>2023-02-08T13:41:18Z</time>
      </trkpt>
      <trkpt lat="49.79002" lon="2.18169">
        <ele>58</ele>
        <time>2023-02-08T13:41:20Z</time>
      </trkpt>
      <trkpt lat="49.79003" lon="2.1817">
        <ele>58</ele>
        <time>2023-02-08T13:41:21Z</time>
      </trkpt>
      <trkpt lat="49.79004" lon="2.18171">
        <ele>58</ele>
        <time>2023-02-08T13:41:22Z</time>
      </trkpt>
      <trkpt lat="49.79005" lon="2.18173">
        <ele>58</ele>
        <time>2023-02-08T13:41:23Z</time>
      </trkpt>
      <trkpt lat="49.79006" lon="2.18175">
        <ele>58</ele>
        <time>2023-02-08T13:41:24Z</time>
      </trkpt>
      <trkpt lat="49.79008" lon="2.18177">
        <ele>58</ele>
        <time>2023-02-08T13:41:25Z</time>
      </trkpt>
      <trkpt lat="49.79008" lon="2.18178">
        <ele>58</ele>
        <time>2023-02-08T13:41:27Z</time>
      </trkpt>
      <trkpt lat="49.79009" lon="2.18178">
        <ele>58</ele>
        <time>2023-02-08T13:41:28Z</time>
      </trkpt>
      <trkpt lat="49.79011" lon="2.1818">
        <ele>58</ele>
        <time>2023-02-08T13:41:29Z</time>
      </trkpt>
      <trkpt lat="49.79012" lon="2.18181">
        <ele>58</ele>
        <time>2023-02-08T13:41:30Z</time>
      </trkpt>
      <trkpt lat="49.79012" lon="2.18182">
        <ele>58</ele>
        <time>2023-02-08T13:41:31Z</time>
      </trkpt>
      <trkpt lat="49.79013" lon="2.18183">
        <ele>58</ele>
        <time>2023-02-08T13:41:32Z</time>
      </trkpt>
      <trkpt lat="49.79014" lon="2.18184">
        <ele>58</ele>
        <time>2023-02-08T13:41:33Z</time>
      </trkpt>
      <trkpt lat="49.79015" lon="2.18184">
        <ele>58</ele>
        <time>2023-02-08T13:41:34Z</time>
      </trkpt>
      <trkpt lat="49.79016" lon="2.18185">
        <ele>58</ele>
        <time>2023-02-08T13:41:35Z</time>
      </trkpt>
      <trkpt lat="49.79017" lon="2.18186">
        <ele>58</ele>
        <time>2023-02-08T13:41:37Z</time>
      </trkpt>
      <trkpt lat="49.79018" lon="2.18188">
        <ele>58</ele>
        <time>2023-02-08T13:41:38Z</time>
      </trkpt>
      <trkpt lat="49.79019" lon="2.18189">
        <ele>58</ele>
        <time>2023-02-08T13:41:39Z</time>
      </trkpt>
      <trkpt lat="49.7902" lon="2.1819">
        <ele>58</ele>
        <time>2023-02-08T13:41:40Z</time>
      </trkpt>
      <trkpt lat="49.79021" lon="2.1819">
        <ele>58</ele>
        <time>2023-02-08T13:41:41Z</time>
      </trkpt>
      <trkpt lat="49.79021" lon="2.18191">
        <ele>58</ele>
        <time>2023-02-08T13:41:43Z</time>
      </trkpt>
      <trkpt lat="49.79022" lon="2.18191">
        <ele>58</ele>
        <time>2023-02-08T13:41:44Z</time>
      </trkpt>
      <trkpt lat="49.79023" lon="2.18192">
        <ele>58</ele>
        <time>2023-02-08T13:41:45Z</time>
      </trkpt>
      <trkpt lat="49.79024" lon="2.18192">
        <ele>58</ele>
        <time>2023-02-08T13:41:46Z</time>
      </trkpt>
      <trkpt lat="49.79024" lon="2.18193">
        <ele>58</ele>
        <time>2023-02-08T13:41:47Z</time>
      </trkpt>
      <trkpt lat="49.79025" lon="2.18194">
        <ele>58</ele>
        <time>2023-02-08T13:41:48Z</time>
      </trkpt>
      <trkpt lat="49.79025" lon="2.18195">
        <ele>58</ele>
        <time>2023-02-08T13:41:50Z</time>
      </trkpt>
      <trkpt lat="49.79026" lon="2.18197">
        <ele>58</ele>
        <time>2023-02-08T13:41:51Z</time>
      </trkpt>
      <trkpt lat="49.79027" lon="2.18198">
        <ele>58</ele>
        <time>2023-02-08T13:41:52Z</time>
      </trkpt>
      <trkpt lat="49.79028" lon="2.182">
        <ele>58</ele>
        <time>2023-02-08T13:41:53Z</time>
      </trkpt>
      <trkpt lat="49.7903" lon="2.18202">
        <ele>58</ele>
        <time>2023-02-08T13:41:54Z</time>
      </trkpt>
      <trkpt lat="49.79031" lon="2.18203">
        <ele>58</ele>
        <time>2023-02-08T13:41:55Z</time>
      </trkpt>
      <trkpt lat="49.79031" lon="2.18204">
        <ele>58</ele>
        <time>2023-02-08T13:41:56Z</time>
      </trkpt>
      <trkpt lat="49.79033" lon="2.18205">
        <ele>58</ele>
        <time>2023-02-08T13:41:57Z</time>
      </trkpt>
      <trkpt lat="49.79034" lon="2.18207">
        <ele>57.9</ele>
        <time>2023-02-08T13:41:58Z</time>
      </trkpt>
      <trkpt lat="49.79035" lon="2.18208">
        <ele>57.9</ele>
        <time>2023-02-08T13:41:59Z</time>
      </trkpt>
      <trkpt lat="49.79036" lon="2.18211">
        <ele>57.9</ele>
        <time>2023-02-08T13:42:01Z</time>
      </trkpt>
      <trkpt lat="49.79039" lon="2.18214">
        <ele>57.9</ele>
        <time>2023-02-08T13:42:02Z</time>
      </trkpt>
      <trkpt lat="49.7904" lon="2.18215">
        <ele>57.9</ele>
        <time>2023-02-08T13:42:03Z</time>
      </trkpt>
      <trkpt lat="49.79041" lon="2.18217">
        <ele>57.8</ele>
        <time>2023-02-08T13:42:04Z</time>
      </trkpt>
      <trkpt lat="49.79042" lon="2.18218">
        <ele>57.8</ele>
        <time>2023-02-08T13:42:05Z</time>
      </trkpt>
      <trkpt lat="49.79043" lon="2.18219">
        <ele>57.8</ele>
        <time>2023-02-08T13:42:06Z</time>
      </trkpt>
      <trkpt lat="49.79044" lon="2.18221">
        <ele>57.7</ele>
        <time>2023-02-08T13:42:07Z</time>
      </trkpt>
      <trkpt lat="49.79045" lon="2.18222">
        <ele>57.7</ele>
        <time>2023-02-08T13:42:08Z</time>
      </trkpt>
      <trkpt lat="49.79048" lon="2.18225">
        <ele>57.6</ele>
        <time>2023-02-08T13:42:10Z</time>
      </trkpt>
      <trkpt lat="49.79049" lon="2.18225">
        <ele>57.6</ele>
        <time>2023-02-08T13:42:11Z</time>
      </trkpt>
      <trkpt lat="49.7905" lon="2.18226">
        <ele>57.5</ele>
        <time>2023-02-08T13:42:12Z</time>
      </trkpt>
      <trkpt lat="49.79052" lon="2.18227">
        <ele>57.4</ele>
        <time>2023-02-08T13:42:13Z</time>
      </trkpt>
      <trkpt lat="49.79053" lon="2.18227">
        <ele>57.4</ele>
        <time>2023-02-08T13:42:15Z</time>
      </trkpt>
      <trkpt lat="49.79054" lon="2.18228">
        <ele>57.3</ele>
        <time>2023-02-08T13:42:16Z</time>
      </trkpt>
      <trkpt lat="49.79055" lon="2.18228">
        <ele>57.3</ele>
        <time>2023-02-08T13:42:17Z</time>
      </trkpt>
      <trkpt lat="49.79057" lon="2.18229">
        <ele>57.2</ele>
        <time>2023-02-08T13:42:18Z</time>
      </trkpt>
      <trkpt lat="49.79058" lon="2.18229">
        <ele>57.1</ele>
        <time>2023-02-08T13:42:19Z</time>
      </trkpt>
      <trkpt lat="49.79059" lon="2.18229">
        <ele>57.1</ele>
        <time>2023-02-08T13:42:20Z</time>
      </trkpt>
      <trkpt lat="49.7906" lon="2.18229">
        <ele>57</ele>
        <time>2023-02-08T13:42:21Z</time>
      </trkpt>
      <trkpt lat="49.79061" lon="2.18229">
        <ele>57</ele>
        <time>2023-02-08T13:42:22Z</time>
      </trkpt>
      <trkpt lat="49.79062" lon="2.18228">
        <ele>56.9</ele>
        <time>2023-02-08T13:42:24Z</time>
      </trkpt>
      <trkpt lat="49.79064" lon="2.18228">
        <ele>56.8</ele>
        <time>2023-02-08T13:42:25Z</time>
      </trkpt>
      <trkpt lat="49.79065" lon="2.18228">
        <ele>56.7</ele>
        <time>2023-02-08T13:42:26Z</time>
      </trkpt>
      <trkpt lat="49.79066" lon="2.18227">
        <ele>56.7</ele>
        <time>2023-02-08T13:42:27Z</time>
      </trkpt>
      <trkpt lat="49.79067" lon="2.18227">
        <ele>56.6</ele>
        <time>2023-02-08T13:42:28Z</time>
      </trkpt>
      <trkpt lat="49.79067" lon="2.18227">
        <ele>56.6</ele>
        <time>2023-02-08T13:42:29Z</time>
      </trkpt>
      <trkpt lat="49.79069" lon="2.18227">
        <ele>56.5</ele>
        <time>2023-02-08T13:42:31Z</time>
      </trkpt>
      <trkpt lat="49.7907" lon="2.18227">
        <ele>56.4</ele>
        <time>2023-02-08T13:42:32Z</time>
      </trkpt>
      <trkpt lat="49.79071" lon="2.18227">
        <ele>56.3</ele>
        <time>2023-02-08T13:42:33Z</time>
      </trkpt>
      <trkpt lat="49.79072" lon="2.18227">
        <ele>56.3</ele>
        <time>2023-02-08T13:42:34Z</time>
      </trkpt>
      <trkpt lat="49.79073" lon="2.18227">
        <ele>56.2</ele>
        <time>2023-02-08T13:42:35Z</time>
      </trkpt>
      <trkpt lat="49.79074" lon="2.18227">
        <ele>56.2</ele>
        <time>2023-02-08T13:42:36Z</time>
      </trkpt>
      <trkpt lat="49.79075" lon="2.18227">
        <ele>56.1</ele>
        <time>2023-02-08T13:42:37Z</time>
      </trkpt>
      <trkpt lat="49.79076" lon="2.18227">
        <ele>56</ele>
        <time>2023-02-08T13:42:38Z</time>
      </trkpt>
      <trkpt lat="49.79077" lon="2.18227">
        <ele>55.9</ele>
        <time>2023-02-08T13:42:39Z</time>
      </trkpt>
      <trkpt lat="49.79078" lon="2.18227">
        <ele>55.9</ele>
        <time>2023-02-08T13:42:40Z</time>
      </trkpt>
      <trkpt lat="49.79079" lon="2.18227">
        <ele>55.9</ele>
        <time>2023-02-08T13:42:42Z</time>
      </trkpt>
      <trkpt lat="49.7908" lon="2.18227">
        <ele>55.8</ele>
        <time>2023-02-08T13:42:43Z</time>
      </trkpt>
      <trkpt lat="49.79081" lon="2.18227">
        <ele>55.7</ele>
        <time>2023-02-08T13:42:44Z</time>
      </trkpt>
      <trkpt lat="49.79082" lon="2.18227">
        <ele>55.6</ele>
        <time>2023-02-08T13:42:45Z</time>
      </trkpt>
      <trkpt lat="49.79083" lon="2.18227">
        <ele>55.6</ele>
        <time>2023-02-08T13:42:46Z</time>
      </trkpt>
      <trkpt lat="49.79084" lon="2.18228">
        <ele>55.5</ele>
        <time>2023-02-08T13:42:47Z</time>
      </trkpt>
      <trkpt lat="49.79088" lon="2.18229">
        <ele>55.3</ele>
        <time>2023-02-08T13:42:49Z</time>
      </trkpt>
      <trkpt lat="49.7909" lon="2.1823">
        <ele>55.1</ele>
        <time>2023-02-08T13:42:50Z</time>
      </trkpt>
      <trkpt lat="49.79094" lon="2.18231">
        <ele>54.9</ele>
        <time>2023-02-08T13:42:52Z</time>
      </trkpt>
      <trkpt lat="49.79097" lon="2.18232">
        <ele>54.7</ele>
        <time>2023-02-08T13:42:53Z</time>
      </trkpt>
      <trkpt lat="49.791" lon="2.18232">
        <ele>54.5</ele>
        <time>2023-02-08T13:42:54Z</time>
      </trkpt>
      <trkpt lat="49.79102" lon="2.18233">
        <ele>54.4</ele>
        <time>2023-02-08T13:42:55Z</time>
      </trkpt>
      <trkpt lat="49.79103" lon="2.18233">
        <ele>54.3</ele>
        <time>2023-02-08T13:42:56Z</time>
      </trkpt>
      <trkpt lat="49.79106" lon="2.18234">
        <ele>54.2</ele>
        <time>2023-02-08T13:42:57Z</time>
      </trkpt>
      <trkpt lat="49.79106" lon="2.18234">
        <ele>54.1</ele>
        <time>2023-02-08T13:42:59Z</time>
      </trkpt>
      <trkpt lat="49.79107" lon="2.18235">
        <ele>54.1</ele>
        <time>2023-02-08T13:43:00Z</time>
      </trkpt>
      <trkpt lat="49.79109" lon="2.18235">
        <ele>54</ele>
        <time>2023-02-08T13:43:01Z</time>
      </trkpt>
      <trkpt lat="49.7911" lon="2.18236">
        <ele>53.9</ele>
        <time>2023-02-08T13:43:02Z</time>
      </trkpt>
      <trkpt lat="49.79111" lon="2.18236">
        <ele>53.9</ele>
        <time>2023-02-08T13:43:03Z</time>
      </trkpt>
      <trkpt lat="49.79112" lon="2.18237">
        <ele>53.9</ele>
        <time>2023-02-08T13:43:04Z</time>
      </trkpt>
      <trkpt lat="49.79113" lon="2.18238">
        <ele>53.8</ele>
        <time>2023-02-08T13:43:05Z</time>
      </trkpt>
      <trkpt lat="49.79114" lon="2.18238">
        <ele>53.8</ele>
        <time>2023-02-08T13:43:07Z</time>
      </trkpt>
      <trkpt lat="49.79114" lon="2.18241">
        <ele>53.7</ele>
        <time>2023-02-08T13:43:08Z</time>
      </trkpt>
      <trkpt lat="49.79115" lon="2.18241">
        <ele>53.7</ele>
        <time>2023-02-08T13:43:10Z</time>
      </trkpt>
      <trkpt lat="49.79116" lon="2.18242">
        <ele>53.6</ele>
        <time>2023-02-08T13:43:11Z</time>
      </trkpt>
      <trkpt lat="49.79116" lon="2.18243">
        <ele>53.6</ele>
        <time>2023-02-08T13:43:12Z</time>
      </trkpt>
      <trkpt lat="49.79116" lon="2.18244">
        <ele>53.6</ele>
        <time>2023-02-08T13:43:13Z</time>
      </trkpt>
      <trkpt lat="49.79115" lon="2.18244">
        <ele>53.6</ele>
        <time>2023-02-08T13:43:15Z</time>
      </trkpt>
      <trkpt lat="49.79115" lon="2.18244">
        <ele>53.5</ele>
        <time>2023-02-08T13:43:16Z</time>
      </trkpt>
      <trkpt lat="49.79115" lon="2.18244">
        <ele>53.5</ele>
        <time>2023-02-08T13:43:17Z</time>
      </trkpt>
      <trkpt lat="49.79115" lon="2.18244">
        <ele>53.5</ele>
        <time>2023-02-08T13:43:19Z</time>
      </trkpt>
      <trkpt lat="49.79115" lon="2.18244">
        <ele>53.5</ele>
        <time>2023-02-08T13:43:20Z</time>
      </trkpt>
      <trkpt lat="49.79115" lon="2.18244">
        <ele>53.5</ele>
        <time>2023-02-08T13:43:22Z</time>
      </trkpt>
      <trkpt lat="49.79115" lon="2.18245">
        <ele>53.5</ele>
        <time>2023-02-08T13:43:23Z</time>
      </trkpt>
      <trkpt lat="49.79115" lon="2.18245">
        <ele>53.5</ele>
        <time>2023-02-08T13:43:25Z</time>
      </trkpt>
      <trkpt lat="49.79114" lon="2.18245">
        <ele>53.5</ele>
        <time>2023-02-08T13:43:26Z</time>
      </trkpt>
      <trkpt lat="49.79114" lon="2.18243">
        <ele>53.4</ele>
        <time>2023-02-08T13:43:27Z</time>
      </trkpt>
      <trkpt lat="49.79113" lon="2.18241">
        <ele>53.4</ele>
        <time>2023-02-08T13:43:28Z</time>
      </trkpt>
      <trkpt lat="49.79113" lon="2.18241">
        <ele>53.4</ele>
        <time>2023-02-08T13:43:29Z</time>
      </trkpt>
      <trkpt lat="49.79113" lon="2.18241">
        <ele>53.4</ele>
        <time>2023-02-08T13:43:30Z</time>
      </trkpt>
      <trkpt lat="49.79113" lon="2.18241">
        <ele>53.4</ele>
        <time>2023-02-08T13:43:31Z</time>
      </trkpt>
      <trkpt lat="49.79113" lon="2.18241">
        <ele>53.4</ele>
        <time>2023-02-08T13:43:32Z</time>
      </trkpt>
      <trkpt lat="49.79113" lon="2.18241">
        <ele>53.4</ele>
        <time>2023-02-08T13:43:33Z</time>
      </trkpt>
      <trkpt lat="49.79113" lon="2.18241">
        <ele>53.4</ele>
        <time>2023-02-08T13:43:34Z</time>
      </trkpt>
      <trkpt lat="49.79113" lon="2.18241">
        <ele>53.4</ele>
        <time>2023-02-08T13:43:35Z</time>
      </trkpt>
      <trkpt lat="49.79113" lon="2.18241">
        <ele>53.4</ele>
        <time>2023-02-08T13:43:36Z</time>
      </trkpt>
      <trkpt lat="49.79113" lon="2.18241">
        <ele>53.4</ele>
        <time>2023-02-08T13:43:37Z</time>
      </trkpt>
      <trkpt lat="49.79113" lon="2.18241">
        <ele>53.4</ele>
        <time>2023-02-08T13:43:38Z</time>
      </trkpt>
      <trkpt lat="49.79113" lon="2.18241">
        <ele>53.4</ele>
        <time>2023-02-08T13:43:39Z</time>
      </trkpt>
      <trkpt lat="49.79113" lon="2.18241">
        <ele>53.4</ele>
        <time>2023-02-08T13:43:40Z</time>
      </trkpt>
      <trkpt lat="49.79113" lon="2.18241">
        <ele>53.4</ele>
        <time>2023-02-08T13:43:41Z</time>
      </trkpt>
      <trkpt lat="49.79113" lon="2.18241">
        <ele>53.4</ele>
        <time>2023-02-08T13:43:42Z</time>
      </trkpt>
      <trkpt lat="49.79113" lon="2.18241">
        <ele>53.4</ele>
        <time>2023-02-08T13:43:43Z</time>
      </trkpt>
      <trkpt lat="49.79113" lon="2.18241">
        <ele>53.4</ele>
        <time>2023-02-08T13:43:44Z</time>
      </trkpt>
      <trkpt lat="49.79113" lon="2.18241">
        <ele>53.4</ele>
        <time>2023-02-08T13:43:45Z</time>
      </trkpt>
      <trkpt lat="49.79113" lon="2.18241">
        <ele>53.4</ele>
        <time>2023-02-08T13:43:46Z</time>
      </trkpt>
      <trkpt lat="49.79113" lon="2.18241">
        <ele>53.4</ele>
        <time>2023-02-08T13:43:47Z</time>
      </trkpt>
      <trkpt lat="49.79113" lon="2.18241">
        <ele>53.4</ele>
        <time>2023-02-08T13:43:48Z</time>
      </trkpt>
      <trkpt lat="49.79113" lon="2.18241">
        <ele>53.4</ele>
        <time>2023-02-08T13:43:49Z</time>
      </trkpt>
      <trkpt lat="49.79113" lon="2.18241">
        <ele>53.4</ele>
        <time>2023-02-08T13:43:50Z</time>
      </trkpt>
      <trkpt lat="49.79113" lon="2.18241">
        <ele>53.4</ele>
        <time>2023-02-08T13:43:51Z</time>
      </trkpt>
      <trkpt lat="49.79113" lon="2.18241">
        <ele>53.4</ele>
        <time>2023-02-08T13:43:52Z</time>
      </trkpt>
      <trkpt lat="49.79113" lon="2.18241">
        <ele>53.4</ele>
        <time>2023-02-08T13:43:53Z</time>
      </trkpt>
      <trkpt lat="49.79113" lon="2.18241">
        <ele>53.4</ele>
        <time>2023-02-08T13:43:54Z</time>
      </trkpt>
      <trkpt lat="49.79113" lon="2.18241">
        <ele>53.4</ele>
        <time>2023-02-08T13:43:55Z</time>
      </trkpt>
      <trkpt lat="49.79113" lon="2.18241">
        <ele>53.4</ele>
        <time>2023-02-08T13:43:56Z</time>
      </trkpt>
      <trkpt lat="49.79113" lon="2.18241">
        <ele>53.4</ele>
        <time>2023-02-08T13:43:57Z</time>
      </trkpt>
      <trkpt lat="49.79113" lon="2.18241">
        <ele>53.4</ele>
        <time>2023-02-08T13:43:58Z</time>
      </trkpt>
      <trkpt lat="49.79113" lon="2.18241">
        <ele>53.4</ele>
        <time>2023-02-08T13:43:59Z</time>
      </trkpt>
      <trkpt lat="49.79113" lon="2.18241">
        <ele>53.4</ele>
        <time>2023-02-08T13:44:00Z</time>
      </trkpt>
      <trkpt lat="49.79113" lon="2.18241">
        <ele>53.4</ele>
        <time>2023-02-08T13:44:01Z</time>
      </trkpt>
      <trkpt lat="49.79113" lon="2.18241">
        <ele>53.4</ele>
        <time>2023-02-08T13:44:02Z</time>
      </trkpt>
      <trkpt lat="49.79113" lon="2.18241">
        <ele>53.4</ele>
        <time>2023-02-08T13:44:03Z</time>
      </trkpt>
      <trkpt lat="49.79113" lon="2.18241">
        <ele>53.4</ele>
        <time>2023-02-08T13:44:04Z</time>
      </trkpt>
      <trkpt lat="49.79113" lon="2.18241">
        <ele>53.4</ele>
        <time>2023-02-08T13:44:05Z</time>
      </trkpt>
      <trkpt lat="49.79113" lon="2.18241">
        <ele>53.4</ele>
        <time>2023-02-08T13:44:06Z</time>
      </trkpt>
      <trkpt lat="49.79113" lon="2.18241">
        <ele>53.4</ele>
        <time>2023-02-08T13:44:07Z</time>
      </trkpt>
      <trkpt lat="49.79113" lon="2.18241">
        <ele>53.4</ele>
        <time>2023-02-08T13:44:08Z</time>
      </trkpt>
      <trkpt lat="49.79113" lon="2.18241">
        <ele>53.4</ele>
        <time>2023-02-08T13:44:09Z</time>
      </trkpt>
      <trkpt lat="49.79113" lon="2.18241">
        <ele>53.4</ele>
        <time>2023-02-08T13:44:10Z</time>
      </trkpt>
      <trkpt lat="49.79113" lon="2.18241">
        <ele>53.4</ele>
        <time>2023-02-08T13:44:11Z</time>
      </trkpt>
      <trkpt lat="49.79113" lon="2.18241">
        <ele>53.4</ele>
        <time>2023-02-08T13:44:12Z</time>
      </trkpt>
      <trkpt lat="49.79113" lon="2.18241">
        <ele>53.4</ele>
        <time>2023-02-08T13:44:13Z</time>
      </trkpt>
      <trkpt lat="49.79113" lon="2.18241">
        <ele>53.4</ele>
        <time>2023-02-08T13:44:14Z</time>
      </trkpt>
      <trkpt lat="49.79113" lon="2.18241">
        <ele>53.4</ele>
        <time>2023-02-08T13:44:15Z</time>
      </trkpt>
      <trkpt lat="49.79113" lon="2.18241">
        <ele>53.4</ele>
        <time>2023-02-08T13:44:16Z</time>
      </trkpt>
      <trkpt lat="49.79113" lon="2.18241">
        <ele>53.4</ele>
        <time>2023-02-08T13:44:17Z</time>
      </trkpt>
      <trkpt lat="49.79113" lon="2.18241">
        <ele>53.4</ele>
        <time>2023-02-08T13:44:18Z</time>
      </trkpt>
      <trkpt lat="49.79113" lon="2.18241">
        <ele>53.4</ele>
        <time>2023-02-08T13:44:19Z</time>
      </trkpt>
      <trkpt lat="49.79113" lon="2.18241">
        <ele>53.4</ele>
        <time>2023-02-08T13:44:20Z</time>
      </trkpt>
      <trkpt lat="49.79113" lon="2.18241">
        <ele>53.4</ele>
        <time>2023-02-08T13:44:21Z</time>
      </trkpt>
      <trkpt lat="49.79113" lon="2.18241">
        <ele>53.4</ele>
        <time>2023-02-08T13:44:22Z</time>
      </trkpt>
      <trkpt lat="49.79113" lon="2.18241">
        <ele>53.4</ele>
        <time>2023-02-08T13:44:23Z</time>
      </trkpt>
      <trkpt lat="49.79113" lon="2.18241">
        <ele>53.4</ele>
        <time>2023-02-08T13:44:24Z</time>
      </trkpt>
      <trkpt lat="49.79113" lon="2.18241">
        <ele>53.4</ele>
        <time>2023-02-08T13:44:25Z</time>
      </trkpt>
      <trkpt lat="49.79113" lon="2.18241">
        <ele>53.4</ele>
        <time>2023-02-08T13:44:26Z</time>
      </trkpt>
      <trkpt lat="49.79113" lon="2.18241">
        <ele>53.4</ele>
        <time>2023-02-08T13:44:27Z</time>
      </trkpt>
      <trkpt lat="49.79113" lon="2.18241">
        <ele>53.4</ele>
        <time>2023-02-08T13:44:28Z</time>
      </trkpt>
      <trkpt lat="49.79113" lon="2.18241">
        <ele>53.4</ele>
        <time>2023-02-08T13:44:29Z</time>
      </trkpt>
      <trkpt lat="49.79113" lon="2.18241">
        <ele>53.4</ele>
        <time>2023-02-08T13:44:30Z</time>
      </trkpt>
      <trkpt lat="49.79113" lon="2.18241">
        <ele>53.4</ele>
        <time>2023-02-08T13:44:31Z</time>
      </trkpt>
      <trkpt lat="49.79113" lon="2.18241">
        <ele>53.4</ele>
        <time>2023-02-08T13:44:32Z</time>
      </trkpt>
      <trkpt lat="49.79113" lon="2.18241">
        <ele>53.4</ele>
        <time>2023-02-08T13:44:33Z</time>
      </trkpt>
      <trkpt lat="49.79113" lon="2.18241">
        <ele>53.4</ele>
        <time>2023-02-08T13:44:34Z</time>
      </trkpt>
      <trkpt lat="49.79113" lon="2.18241">
        <ele>53.4</ele>
        <time>2023-02-08T13:44:35Z</time>
      </trkpt>
      <trkpt lat="49.79113" lon="2.18241">
        <ele>53.4</ele>
        <time>2023-02-08T13:44:36Z</time>
      </trkpt>
      <trkpt lat="49.79113" lon="2.18241">
        <ele>53.4</ele>
        <time>2023-02-08T13:44:37Z</time>
      </trkpt>
      <trkpt lat="49.79113" lon="2.18241">
        <ele>53.4</ele>
        <time>2023-02-08T13:44:38Z</time>
      </trkpt>
      <trkpt lat="49.79113" lon="2.18241">
        <ele>53.4</ele>
        <time>2023-02-08T13:44:39Z</time>
      </trkpt>
      <trkpt lat="49.79113" lon="2.18241">
        <ele>53.4</ele>
        <time>2023-02-08T13:44:40Z</time>
      </trkpt>
      <trkpt lat="49.79113" lon="2.18241">
        <ele>53.4</ele>
        <time>2023-02-08T13:44:41Z</time>
      </trkpt>
      <trkpt lat="49.79113" lon="2.18241">
        <ele>53.4</ele>
        <time>2023-02-08T13:44:42Z</time>
      </trkpt>
      <trkpt lat="49.79113" lon="2.18241">
        <ele>53.4</ele>
        <time>2023-02-08T13:44:43Z</time>
      </trkpt>
      <trkpt lat="49.79113" lon="2.18241">
        <ele>53.4</ele>
        <time>2023-02-08T13:44:44Z</time>
      </trkpt>
      <trkpt lat="49.79113" lon="2.18241">
        <ele>53.4</ele>
        <time>2023-02-08T13:44:45Z</time>
      </trkpt>
      <trkpt lat="49.79113" lon="2.18241">
        <ele>53.4</ele>
        <time>2023-02-08T13:44:46Z</time>
      </trkpt>
      <trkpt lat="49.79113" lon="2.18241">
        <ele>53.4</ele>
        <time>2023-02-08T13:44:47Z</time>
      </trkpt>
      <trkpt lat="49.79113" lon="2.18241">
        <ele>53.4</ele>
        <time>2023-02-08T13:44:48Z</time>
      </trkpt>
      <trkpt lat="49.79113" lon="2.18241">
        <ele>53.4</ele>
        <time>2023-02-08T13:44:49Z</time>
      </trkpt>
      <trkpt lat="49.79113" lon="2.18241">
        <ele>53.4</ele>
        <time>2023-02-08T13:44:50Z</time>
      </trkpt>
      <trkpt lat="49.79113" lon="2.18241">
        <ele>53.4</ele>
        <time>2023-02-08T13:44:51Z</time>
      </trkpt>
      <trkpt lat="49.79113" lon="2.18241">
        <ele>53.4</ele>
        <time>2023-02-08T13:44:52Z</time>
      </trkpt>
      <trkpt lat="49.79113" lon="2.18241">
        <ele>53.4</ele>
        <time>2023-02-08T13:44:53Z</time>
      </trkpt>
      <trkpt lat="49.79113" lon="2.18241">
        <ele>53.4</ele>
        <time>2023-02-08T13:44:54Z</time>
      </trkpt>
      <trkpt lat="49.79113" lon="2.18241">
        <ele>53.4</ele>
        <time>2023-02-08T13:44:55Z</time>
      </trkpt>
      <trkpt lat="49.79113" lon="2.18241">
        <ele>53.4</ele>
        <time>2023-02-08T13:44:56Z</time>
      </trkpt>
      <trkpt lat="49.79113" lon="2.18241">
        <ele>53.4</ele>
        <time>2023-02-08T13:44:57Z</time>
      </trkpt>
      <trkpt lat="49.79113" lon="2.18241">
        <ele>53.4</ele>
        <time>2023-02-08T13:44:59Z</time>
      </trkpt>
      <trkpt lat="49.79113" lon="2.18241">
        <ele>53.4</ele>
        <time>2023-02-08T13:45:00Z</time>
      </trkpt>
      <trkpt lat="49.79113" lon="2.18241">
        <ele>53.4</ele>
        <time>2023-02-08T13:45:01Z</time>
      </trkpt>
      <trkpt lat="49.79113" lon="2.18241">
        <ele>53.4</ele>
        <time>2023-02-08T13:45:02Z</time>
      </trkpt>
      <trkpt lat="49.79113" lon="2.18241">
        <ele>53.4</ele>
        <time>2023-02-08T13:45:03Z</time>
      </trkpt>
      <trkpt lat="49.79113" lon="2.18241">
        <ele>53.4</ele>
        <time>2023-02-08T13:45:04Z</time>
      </trkpt>
      <trkpt lat="49.79113" lon="2.18241">
        <ele>53.4</ele>
        <time>2023-02-08T13:45:05Z</time>
      </trkpt>
      <trkpt lat="49.79113" lon="2.18241">
        <ele>53.4</ele>
        <time>2023-02-08T13:45:06Z</time>
      </trkpt>
      <trkpt lat="49.79113" lon="2.18241">
        <ele>53.4</ele>
        <time>2023-02-08T13:45:07Z</time>
      </trkpt>
      <trkpt lat="49.79113" lon="2.18241">
        <ele>53.4</ele>
        <time>2023-02-08T13:45:08Z</time>
      </trkpt>
      <trkpt lat="49.79113" lon="2.18241">
        <ele>53.4</ele>
        <time>2023-02-08T13:45:09Z</time>
      </trkpt>
      <trkpt lat="49.79113" lon="2.18241">
        <ele>53.4</ele>
        <time>2023-02-08T13:45:10Z</time>
      </trkpt>
      <trkpt lat="49.79113" lon="2.18241">
        <ele>53.4</ele>
        <time>2023-02-08T13:45:11Z</time>
      </trkpt>
      <trkpt lat="49.79113" lon="2.18241">
        <ele>53.4</ele>
        <time>2023-02-08T13:45:12Z</time>
      </trkpt>
      <trkpt lat="49.79113" lon="2.18241">
        <ele>53.4</ele>
        <time>2023-02-08T13:45:13Z</time>
      </trkpt>
      <trkpt lat="49.79113" lon="2.18241">
        <ele>53.4</ele>
        <time>2023-02-08T13:45:14Z</time>
      </trkpt>
      <trkpt lat="49.79113" lon="2.18241">
        <ele>53.4</ele>
        <time>2023-02-08T13:45:15Z</time>
      </trkpt>
      <trkpt lat="49.79113" lon="2.18241">
        <ele>53.4</ele>
        <time>2023-02-08T13:45:17Z</time>
      </trkpt>
      <trkpt lat="49.79113" lon="2.18241">
        <ele>53.4</ele>
        <time>2023-02-08T13:45:18Z</time>
      </trkpt>
      <trkpt lat="49.79113" lon="2.18241">
        <ele>53.4</ele>
        <time>2023-02-08T13:45:20Z</time>
      </trkpt>
      <trkpt lat="49.79113" lon="2.18241">
        <ele>53.4</ele>
        <time>2023-02-08T13:45:21Z</time>
      </trkpt>
      <trkpt lat="49.79113" lon="2.18241">
        <ele>53.4</ele>
        <time>2023-02-08T13:45:22Z</time>
      </trkpt>
      <trkpt lat="49.79113" lon="2.18241">
        <ele>53.4</ele>
        <time>2023-02-08T13:45:23Z</time>
      </trkpt>
      <trkpt lat="49.79113" lon="2.18241">
        <ele>53.4</ele>
        <time>2023-02-08T13:45:24Z</time>
      </trkpt>
      <trkpt lat="49.79113" lon="2.18241">
        <ele>53.4</ele>
        <time>2023-02-08T13:45:25Z</time>
      </trkpt>
      <trkpt lat="49.79113" lon="2.18241">
        <ele>53.4</ele>
        <time>2023-02-08T13:45:26Z</time>
      </trkpt>
      <trkpt lat="49.79113" lon="2.18241">
        <ele>53.4</ele>
        <time>2023-02-08T13:45:27Z</time>
      </trkpt>
      <trkpt lat="49.79113" lon="2.18241">
        <ele>53.4</ele>
        <time>2023-02-08T13:45:28Z</time>
      </trkpt>
      <trkpt lat="49.79113" lon="2.18241">
        <ele>53.4</ele>
        <time>2023-02-08T13:45:29Z</time>
      </trkpt>
      <trkpt lat="49.79113" lon="2.18241">
        <ele>53.4</ele>
        <time>2023-02-08T13:45:30Z</time>
      </trkpt>
      <trkpt lat="49.79113" lon="2.18241">
        <ele>53.4</ele>
        <time>2023-02-08T13:45:31Z</time>
      </trkpt>
      <trkpt lat="49.79113" lon="2.18241">
        <ele>53.4</ele>
        <time>2023-02-08T13:45:32Z</time>
      </trkpt>
      <trkpt lat="49.79113" lon="2.18241">
        <ele>53.4</ele>
        <time>2023-02-08T13:45:33Z</time>
      </trkpt>
      <trkpt lat="49.79113" lon="2.18241">
        <ele>53.4</ele>
        <time>2023-02-08T13:45:34Z</time>
      </trkpt>
      <trkpt lat="49.79113" lon="2.18241">
        <ele>53.4</ele>
        <time>2023-02-08T13:45:35Z</time>
      </trkpt>
      <trkpt lat="49.79113" lon="2.18241">
        <ele>53.4</ele>
        <time>2023-02-08T13:45:36Z</time>
      </trkpt>
      <trkpt lat="49.79113" lon="2.18241">
        <ele>53.4</ele>
        <time>2023-02-08T13:45:37Z</time>
      </trkpt>
      <trkpt lat="49.79113" lon="2.18241">
        <ele>53.4</ele>
        <time>2023-02-08T13:45:38Z</time>
      </trkpt>
      <trkpt lat="49.7911" lon="2.1824">
        <ele>53.2</ele>
        <time>2023-02-08T13:45:39Z</time>
      </trkpt>
      <trkpt lat="49.79108" lon="2.1824">
        <ele>53.1</ele>
        <time>2023-02-08T13:45:40Z</time>
      </trkpt>
      <trkpt lat="49.79107" lon="2.1824">
        <ele>53.1</ele>
        <time>2023-02-08T13:45:41Z</time>
      </trkpt>
      <trkpt lat="49.79107" lon="2.1824">
        <ele>53.1</ele>
        <time>2023-02-08T13:45:42Z</time>
      </trkpt>
      <trkpt lat="49.79107" lon="2.18239">
        <ele>53.1</ele>
        <time>2023-02-08T13:45:43Z</time>
      </trkpt>
      <trkpt lat="49.79107" lon="2.18239">
        <ele>53.1</ele>
        <time>2023-02-08T13:45:44Z</time>
      </trkpt>
      <trkpt lat="49.79107" lon="2.18239">
        <ele>53.1</ele>
        <time>2023-02-08T13:45:45Z</time>
      </trkpt>
      <trkpt lat="49.79107" lon="2.18239">
        <ele>53</ele>
        <time>2023-02-08T13:45:46Z</time>
      </trkpt>
      <trkpt lat="49.79107" lon="2.18239">
        <ele>53</ele>
        <time>2023-02-08T13:45:47Z</time>
      </trkpt>
      <trkpt lat="49.79107" lon="2.18239">
        <ele>53</ele>
        <time>2023-02-08T13:45:48Z</time>
      </trkpt>
      <trkpt lat="49.79107" lon="2.18239">
        <ele>53</ele>
        <time>2023-02-08T13:45:49Z</time>
      </trkpt>
      <trkpt lat="49.79107" lon="2.18239">
        <ele>53</ele>
        <time>2023-02-08T13:45:50Z</time>
      </trkpt>
      <trkpt lat="49.79107" lon="2.18239">
        <ele>53</ele>
        <time>2023-02-08T13:45:51Z</time>
      </trkpt>
      <trkpt lat="49.79107" lon="2.18239">
        <ele>53</ele>
        <time>2023-02-08T13:45:52Z</time>
      </trkpt>
      <trkpt lat="49.79107" lon="2.18239">
        <ele>53</ele>
        <time>2023-02-08T13:45:53Z</time>
      </trkpt>
      <trkpt lat="49.79107" lon="2.18239">
        <ele>53</ele>
        <time>2023-02-08T13:45:54Z</time>
      </trkpt>
      <trkpt lat="49.79107" lon="2.18239">
        <ele>53</ele>
        <time>2023-02-08T13:45:55Z</time>
      </trkpt>
      <trkpt lat="49.79107" lon="2.18239">
        <ele>53</ele>
        <time>2023-02-08T13:45:56Z</time>
      </trkpt>
      <trkpt lat="49.79107" lon="2.18239">
        <ele>53</ele>
        <time>2023-02-08T13:45:57Z</time>
      </trkpt>
      <trkpt lat="49.79107" lon="2.18239">
        <ele>53</ele>
        <time>2023-02-08T13:45:58Z</time>
      </trkpt>
      <trkpt lat="49.79108" lon="2.1824">
        <ele>53</ele>
        <time>2023-02-08T13:46:00Z</time>
      </trkpt>
      <trkpt lat="49.79108" lon="2.1824">
        <ele>53</ele>
        <time>2023-02-08T13:46:01Z</time>
      </trkpt>
      <trkpt lat="49.79109" lon="2.18241">
        <ele>52.9</ele>
        <time>2023-02-08T13:46:02Z</time>
      </trkpt>
      <trkpt lat="49.7911" lon="2.18241">
        <ele>52.9</ele>
        <time>2023-02-08T13:46:04Z</time>
      </trkpt>
      <trkpt lat="49.79111" lon="2.18242">
        <ele>52.8</ele>
        <time>2023-02-08T13:46:05Z</time>
      </trkpt>
      <trkpt lat="49.79112" lon="2.18243">
        <ele>52.8</ele>
        <time>2023-02-08T13:46:06Z</time>
      </trkpt>
      <trkpt lat="49.79114" lon="2.18244">
        <ele>52.7</ele>
        <time>2023-02-08T13:46:07Z</time>
      </trkpt>
      <trkpt lat="49.79115" lon="2.18246">
        <ele>52.7</ele>
        <time>2023-02-08T13:46:08Z</time>
      </trkpt>
      <trkpt lat="49.79116" lon="2.18248">
        <ele>52.6</ele>
        <time>2023-02-08T13:46:10Z</time>
      </trkpt>
      <trkpt lat="49.79117" lon="2.1825">
        <ele>52.5</ele>
        <time>2023-02-08T13:46:11Z</time>
      </trkpt>
      <trkpt lat="49.79118" lon="2.18255">
        <ele>52.4</ele>
        <time>2023-02-08T13:46:13Z</time>
      </trkpt>
      <trkpt lat="49.79118" lon="2.18257">
        <ele>52.3</ele>
        <time>2023-02-08T13:46:14Z</time>
      </trkpt>
      <trkpt lat="49.79118" lon="2.1826">
        <ele>52.3</ele>
        <time>2023-02-08T13:46:15Z</time>
      </trkpt>
      <trkpt lat="49.79118" lon="2.18262">
        <ele>52.2</ele>
        <time>2023-02-08T13:46:16Z</time>
      </trkpt>
      <trkpt lat="49.79119" lon="2.18264">
        <ele>52.2</ele>
        <time>2023-02-08T13:46:17Z</time>
      </trkpt>
      <trkpt lat="49.79118" lon="2.18265">
        <ele>52.1</ele>
        <time>2023-02-08T13:46:19Z</time>
      </trkpt>
      <trkpt lat="49.79119" lon="2.18267">
        <ele>52.1</ele>
        <time>2023-02-08T13:46:20Z</time>
      </trkpt>
      <trkpt lat="49.79119" lon="2.18269">
        <ele>52.1</ele>
        <time>2023-02-08T13:46:21Z</time>
      </trkpt>
      <trkpt lat="49.7912" lon="2.1827">
        <ele>52</ele>
        <time>2023-02-08T13:46:22Z</time>
      </trkpt>
      <trkpt lat="49.7912" lon="2.18273">
        <ele>51.9</ele>
        <time>2023-02-08T13:46:24Z</time>
      </trkpt>
      <trkpt lat="49.7912" lon="2.18276">
        <ele>51.9</ele>
        <time>2023-02-08T13:46:25Z</time>
      </trkpt>
      <trkpt lat="49.79121" lon="2.18278">
        <ele>51.8</ele>
        <time>2023-02-08T13:46:26Z</time>
      </trkpt>
      <trkpt lat="49.79122" lon="2.1828">
        <ele>51.8</ele>
        <time>2023-02-08T13:46:27Z</time>
      </trkpt>
      <trkpt lat="49.79123" lon="2.18281">
        <ele>51.7</ele>
        <time>2023-02-08T13:46:28Z</time>
      </trkpt>
      <trkpt lat="49.79123" lon="2.18283">
        <ele>51.7</ele>
        <time>2023-02-08T13:46:30Z</time>
      </trkpt>
      <trkpt lat="49.79124" lon="2.18284">
        <ele>51.6</ele>
        <time>2023-02-08T13:46:31Z</time>
      </trkpt>
      <trkpt lat="49.79125" lon="2.18285">
        <ele>51.6</ele>
        <time>2023-02-08T13:46:32Z</time>
      </trkpt>
      <trkpt lat="49.79126" lon="2.18288">
        <ele>51.5</ele>
        <time>2023-02-08T13:46:33Z</time>
      </trkpt>
      <trkpt lat="49.79126" lon="2.1829">
        <ele>51.5</ele>
        <time>2023-02-08T13:46:34Z</time>
      </trkpt>
      <trkpt lat="49.79127" lon="2.18293">
        <ele>51.4</ele>
        <time>2023-02-08T13:46:35Z</time>
      </trkpt>
      <trkpt lat="49.79128" lon="2.18295">
        <ele>51.4</ele>
        <time>2023-02-08T13:46:37Z</time>
      </trkpt>
      <trkpt lat="49.79128" lon="2.18296">
        <ele>51.3</ele>
        <time>2023-02-08T13:46:38Z</time>
      </trkpt>
      <trkpt lat="49.79129" lon="2.18298">
        <ele>51.3</ele>
        <time>2023-02-08T13:46:39Z</time>
      </trkpt>
      <trkpt lat="49.79129" lon="2.18299">
        <ele>51.2</ele>
        <time>2023-02-08T13:46:41Z</time>
      </trkpt>
      <trkpt lat="49.7913" lon="2.183">
        <ele>51.2</ele>
        <time>2023-02-08T13:46:42Z</time>
      </trkpt>
      <trkpt lat="49.7913" lon="2.18302">
        <ele>51.2</ele>
        <time>2023-02-08T13:46:44Z</time>
      </trkpt>
      <trkpt lat="49.7913" lon="2.18302">
        <ele>51.1</ele>
        <time>2023-02-08T13:46:45Z</time>
      </trkpt>
      <trkpt lat="49.79131" lon="2.18303">
        <ele>51.1</ele>
        <time>2023-02-08T13:46:47Z</time>
      </trkpt>
      <trkpt lat="49.79131" lon="2.18304">
        <ele>51.1</ele>
        <time>2023-02-08T13:46:49Z</time>
      </trkpt>
      <trkpt lat="49.7913" lon="2.18305">
        <ele>51.1</ele>
        <time>2023-02-08T13:46:51Z</time>
      </trkpt>
      <trkpt lat="49.7913" lon="2.18304">
        <ele>51.1</ele>
        <time>2023-02-08T13:46:52Z</time>
      </trkpt>
      <trkpt lat="49.7913" lon="2.18305">
        <ele>51</ele>
        <time>2023-02-08T13:46:53Z</time>
      </trkpt>
      <trkpt lat="49.7913" lon="2.18305">
        <ele>51</ele>
        <time>2023-02-08T13:46:54Z</time>
      </trkpt>
      <trkpt lat="49.79131" lon="2.18305">
        <ele>51</ele>
        <time>2023-02-08T13:46:55Z</time>
      </trkpt>
      <trkpt lat="49.79131" lon="2.18306">
        <ele>51</ele>
        <time>2023-02-08T13:46:57Z</time>
      </trkpt>
      <trkpt lat="49.79132" lon="2.18306">
        <ele>51</ele>
        <time>2023-02-08T13:46:58Z</time>
      </trkpt>
      <trkpt lat="49.79132" lon="2.18308">
        <ele>50.9</ele>
        <time>2023-02-08T13:46:59Z</time>
      </trkpt>
      <trkpt lat="49.79133" lon="2.18309">
        <ele>50.9</ele>
        <time>2023-02-08T13:47:00Z</time>
      </trkpt>
      <trkpt lat="49.79134" lon="2.18309">
        <ele>50.9</ele>
        <time>2023-02-08T13:47:01Z</time>
      </trkpt>
      <trkpt lat="49.79135" lon="2.1831">
        <ele>50.9</ele>
        <time>2023-02-08T13:47:02Z</time>
      </trkpt>
      <trkpt lat="49.79135" lon="2.18312">
        <ele>50.9</ele>
        <time>2023-02-08T13:47:04Z</time>
      </trkpt>
      <trkpt lat="49.79135" lon="2.18312">
        <ele>50.9</ele>
        <time>2023-02-08T13:47:05Z</time>
      </trkpt>
      <trkpt lat="49.79135" lon="2.18314">
        <ele>50.9</ele>
        <time>2023-02-08T13:47:06Z</time>
      </trkpt>
      <trkpt lat="49.79135" lon="2.18316">
        <ele>50.9</ele>
        <time>2023-02-08T13:47:07Z</time>
      </trkpt>
      <trkpt lat="49.79131" lon="2.1832">
        <ele>50.9</ele>
        <time>2023-02-08T13:47:09Z</time>
      </trkpt>
      <trkpt lat="49.79129" lon="2.18322">
        <ele>50.8</ele>
        <time>2023-02-08T13:47:10Z</time>
      </trkpt>
      <trkpt lat="49.79128" lon="2.18322">
        <ele>50.8</ele>
        <time>2023-02-08T13:47:11Z</time>
      </trkpt>
      <trkpt lat="49.79127" lon="2.18323">
        <ele>50.7</ele>
        <time>2023-02-08T13:47:12Z</time>
      </trkpt>
      <trkpt lat="49.79123" lon="2.18321">
        <ele>50.4</ele>
        <time>2023-02-08T13:47:14Z</time>
      </trkpt>
      <trkpt lat="49.79122" lon="2.18322">
        <ele>50.3</ele>
        <time>2023-02-08T13:47:15Z</time>
      </trkpt>
      <trkpt lat="49.79121" lon="2.18322">
        <ele>50.2</ele>
        <time>2023-02-08T13:47:16Z</time>
      </trkpt>
      <trkpt lat="49.79121" lon="2.18323">
        <ele>50.2</ele>
        <time>2023-02-08T13:47:17Z</time>
      </trkpt>
      <trkpt lat="49.79119" lon="2.18323">
        <ele>50.1</ele>
        <time>2023-02-08T13:47:18Z</time>
      </trkpt>
      <trkpt lat="49.79118" lon="2.18323">
        <ele>50</ele>
        <time>2023-02-08T13:47:19Z</time>
      </trkpt>
      <trkpt lat="49.79116" lon="2.18323">
        <ele>49.9</ele>
        <time>2023-02-08T13:47:20Z</time>
      </trkpt>
      <trkpt lat="49.79115" lon="2.18323">
        <ele>49.8</ele>
        <time>2023-02-08T13:47:21Z</time>
      </trkpt>
      <trkpt lat="49.79114" lon="2.18323">
        <ele>49.7</ele>
        <time>2023-02-08T13:47:22Z</time>
      </trkpt>
      <trkpt lat="49.79112" lon="2.18323">
        <ele>49.5</ele>
        <time>2023-02-08T13:47:23Z</time>
      </trkpt>
      <trkpt lat="49.79111" lon="2.18324">
        <ele>49.5</ele>
        <time>2023-02-08T13:47:25Z</time>
      </trkpt>
      <trkpt lat="49.7911" lon="2.18324">
        <ele>49.4</ele>
        <time>2023-02-08T13:47:26Z</time>
      </trkpt>
      <trkpt lat="49.79109" lon="2.18323">
        <ele>49.3</ele>
        <time>2023-02-08T13:47:27Z</time>
      </trkpt>
      <trkpt lat="49.79108" lon="2.18325">
        <ele>49.2</ele>
        <time>2023-02-08T13:47:28Z</time>
      </trkpt>
      <trkpt lat="49.79107" lon="2.18326">
        <ele>49.1</ele>
        <time>2023-02-08T13:47:29Z</time>
      </trkpt>
      <trkpt lat="49.79106" lon="2.18326">
        <ele>49.1</ele>
        <time>2023-02-08T13:47:30Z</time>
      </trkpt>
      <trkpt lat="49.79105" lon="2.18326">
        <ele>49</ele>
        <time>2023-02-08T13:47:31Z</time>
      </trkpt>
      <trkpt lat="49.79104" lon="2.18327">
        <ele>48.9</ele>
        <time>2023-02-08T13:47:32Z</time>
      </trkpt>
      <trkpt lat="49.79103" lon="2.18327">
        <ele>48.9</ele>
        <time>2023-02-08T13:47:34Z</time>
      </trkpt>
      <trkpt lat="49.79102" lon="2.18327">
        <ele>48.8</ele>
        <time>2023-02-08T13:47:35Z</time>
      </trkpt>
      <trkpt lat="49.79101" lon="2.18327">
        <ele>48.8</ele>
        <time>2023-02-08T13:47:36Z</time>
      </trkpt>
      <trkpt lat="49.791" lon="2.18328">
        <ele>48.7</ele>
        <time>2023-02-08T13:47:37Z</time>
      </trkpt>
      <trkpt lat="49.79097" lon="2.18328">
        <ele>48.5</ele>
        <time>2023-02-08T13:47:38Z</time>
      </trkpt>
      <trkpt lat="49.79096" lon="2.18328">
        <ele>48.5</ele>
        <time>2023-02-08T13:47:39Z</time>
      </trkpt>
      <trkpt lat="49.79095" lon="2.18329">
        <ele>48.4</ele>
        <time>2023-02-08T13:47:40Z</time>
      </trkpt>
      <trkpt lat="49.79094" lon="2.18329">
        <ele>48.3</ele>
        <time>2023-02-08T13:47:41Z</time>
      </trkpt>
      <trkpt lat="49.79092" lon="2.18331">
        <ele>48.2</ele>
        <time>2023-02-08T13:47:42Z</time>
      </trkpt>
      <trkpt lat="49.79092" lon="2.18332">
        <ele>48.1</ele>
        <time>2023-02-08T13:47:44Z</time>
      </trkpt>
      <trkpt lat="49.79091" lon="2.18333">
        <ele>48.1</ele>
        <time>2023-02-08T13:47:45Z</time>
      </trkpt>
      <trkpt lat="49.7909" lon="2.18334">
        <ele>48</ele>
        <time>2023-02-08T13:47:46Z</time>
      </trkpt>
      <trkpt lat="49.79089" lon="2.18335">
        <ele>48</ele>
        <time>2023-02-08T13:47:47Z</time>
      </trkpt>
      <trkpt lat="49.79089" lon="2.18338">
        <ele>47.9</ele>
        <time>2023-02-08T13:47:48Z</time>
      </trkpt>
      <trkpt lat="49.79088" lon="2.18338">
        <ele>47.8</ele>
        <time>2023-02-08T13:47:49Z</time>
      </trkpt>
      <trkpt lat="49.79087" lon="2.18339">
        <ele>47.7</ele>
        <time>2023-02-08T13:47:50Z</time>
      </trkpt>
      <trkpt lat="49.79085" lon="2.18339">
        <ele>47.7</ele>
        <time>2023-02-08T13:47:51Z</time>
      </trkpt>
      <trkpt lat="49.79084" lon="2.18339">
        <ele>47.6</ele>
        <time>2023-02-08T13:47:52Z</time>
      </trkpt>
      <trkpt lat="49.79082" lon="2.1834">
        <ele>47.5</ele>
        <time>2023-02-08T13:47:53Z</time>
      </trkpt>
      <trkpt lat="49.79081" lon="2.18341">
        <ele>47.4</ele>
        <time>2023-02-08T13:47:55Z</time>
      </trkpt>
      <trkpt lat="49.7908" lon="2.18342">
        <ele>47.3</ele>
        <time>2023-02-08T13:47:56Z</time>
      </trkpt>
      <trkpt lat="49.79079" lon="2.18344">
        <ele>47.3</ele>
        <time>2023-02-08T13:47:57Z</time>
      </trkpt>
      <trkpt lat="49.79078" lon="2.18346">
        <ele>47.2</ele>
        <time>2023-02-08T13:47:58Z</time>
      </trkpt>
      <trkpt lat="49.79077" lon="2.18348">
        <ele>47.1</ele>
        <time>2023-02-08T13:47:59Z</time>
      </trkpt>
      <trkpt lat="49.79076" lon="2.18349">
        <ele>47.1</ele>
        <time>2023-02-08T13:48:00Z</time>
      </trkpt>
      <trkpt lat="49.79075" lon="2.1835">
        <ele>47</ele>
        <time>2023-02-08T13:48:01Z</time>
      </trkpt>
      <trkpt lat="49.79074" lon="2.18351">
        <ele>46.9</ele>
        <time>2023-02-08T13:48:02Z</time>
      </trkpt>
      <trkpt lat="49.79073" lon="2.18353">
        <ele>46.8</ele>
        <time>2023-02-08T13:48:03Z</time>
      </trkpt>
      <trkpt lat="49.79072" lon="2.18354">
        <ele>46.8</ele>
        <time>2023-02-08T13:48:04Z</time>
      </trkpt>
      <trkpt lat="49.7907" lon="2.18356">
        <ele>46.7</ele>
        <time>2023-02-08T13:48:06Z</time>
      </trkpt>
      <trkpt lat="49.7907" lon="2.18357">
        <ele>46.7</ele>
        <time>2023-02-08T13:48:07Z</time>
      </trkpt>
      <trkpt lat="49.79069" lon="2.18357">
        <ele>46.6</ele>
        <time>2023-02-08T13:48:08Z</time>
      </trkpt>
      <trkpt lat="49.79068" lon="2.18361">
        <ele>46.5</ele>
        <time>2023-02-08T13:48:09Z</time>
      </trkpt>
      <trkpt lat="49.79067" lon="2.18362">
        <ele>46.5</ele>
        <time>2023-02-08T13:48:10Z</time>
      </trkpt>
      <trkpt lat="49.79066" lon="2.18365">
        <ele>46.4</ele>
        <time>2023-02-08T13:48:12Z</time>
      </trkpt>
      <trkpt lat="49.79065" lon="2.18366">
        <ele>46.3</ele>
        <time>2023-02-08T13:48:13Z</time>
      </trkpt>
      <trkpt lat="49.79065" lon="2.18367">
        <ele>46.3</ele>
        <time>2023-02-08T13:48:14Z</time>
      </trkpt>
      <trkpt lat="49.79064" lon="2.1837">
        <ele>46.3</ele>
        <time>2023-02-08T13:48:15Z</time>
      </trkpt>
      <trkpt lat="49.79064" lon="2.18372">
        <ele>46.3</ele>
        <time>2023-02-08T13:48:16Z</time>
      </trkpt>
      <trkpt lat="49.79065" lon="2.18375">
        <ele>46.2</ele>
        <time>2023-02-08T13:48:17Z</time>
      </trkpt>
      <trkpt lat="49.79065" lon="2.18377">
        <ele>46.2</ele>
        <time>2023-02-08T13:48:18Z</time>
      </trkpt>
      <trkpt lat="49.79066" lon="2.18378">
        <ele>46.2</ele>
        <time>2023-02-08T13:48:19Z</time>
      </trkpt>
      <trkpt lat="49.79066" lon="2.1838">
        <ele>46.2</ele>
        <time>2023-02-08T13:48:20Z</time>
      </trkpt>
      <trkpt lat="49.79067" lon="2.18382">
        <ele>46.2</ele>
        <time>2023-02-08T13:48:21Z</time>
      </trkpt>
      <trkpt lat="49.79068" lon="2.18386">
        <ele>46.1</ele>
        <time>2023-02-08T13:48:23Z</time>
      </trkpt>
      <trkpt lat="49.79069" lon="2.18387">
        <ele>46.1</ele>
        <time>2023-02-08T13:48:24Z</time>
      </trkpt>
      <trkpt lat="49.7907" lon="2.1839">
        <ele>46.1</ele>
        <time>2023-02-08T13:48:25Z</time>
      </trkpt>
      <trkpt lat="49.79071" lon="2.18391">
        <ele>46</ele>
        <time>2023-02-08T13:48:26Z</time>
      </trkpt>
      <trkpt lat="49.79071" lon="2.18392">
        <ele>46</ele>
        <time>2023-02-08T13:48:27Z</time>
      </trkpt>
      <trkpt lat="49.79073" lon="2.18394">
        <ele>46</ele>
        <time>2023-02-08T13:48:28Z</time>
      </trkpt>
      <trkpt lat="49.79074" lon="2.18394">
        <ele>46</ele>
        <time>2023-02-08T13:48:29Z</time>
      </trkpt>
      <trkpt lat="49.79075" lon="2.18394">
        <ele>46</ele>
        <time>2023-02-08T13:48:31Z</time>
      </trkpt>
      <trkpt lat="49.79077" lon="2.18395">
        <ele>46</ele>
        <time>2023-02-08T13:48:32Z</time>
      </trkpt>
      <trkpt lat="49.79078" lon="2.18396">
        <ele>45.9</ele>
        <time>2023-02-08T13:48:33Z</time>
      </trkpt>
      <trkpt lat="49.79079" lon="2.18396">
        <ele>45.9</ele>
        <time>2023-02-08T13:48:34Z</time>
      </trkpt>
      <trkpt lat="49.7908" lon="2.18396">
        <ele>45.9</ele>
        <time>2023-02-08T13:48:35Z</time>
      </trkpt>
      <trkpt lat="49.79081" lon="2.18395">
        <ele>45.9</ele>
        <time>2023-02-08T13:48:36Z</time>
      </trkpt>
      <trkpt lat="49.79082" lon="2.18395">
        <ele>45.9</ele>
        <time>2023-02-08T13:48:37Z</time>
      </trkpt>
      <trkpt lat="49.79083" lon="2.18395">
        <ele>45.9</ele>
        <time>2023-02-08T13:48:39Z</time>
      </trkpt>
      <trkpt lat="49.79084" lon="2.18395">
        <ele>45.9</ele>
        <time>2023-02-08T13:48:40Z</time>
      </trkpt>
      <trkpt lat="49.79085" lon="2.18395">
        <ele>45.9</ele>
        <time>2023-02-08T13:48:41Z</time>
      </trkpt>
      <trkpt lat="49.79087" lon="2.18396">
        <ele>45.8</ele>
        <time>2023-02-08T13:48:42Z</time>
      </trkpt>
      <trkpt lat="49.79089" lon="2.18397">
        <ele>45.8</ele>
        <time>2023-02-08T13:48:43Z</time>
      </trkpt>
      <trkpt lat="49.7909" lon="2.18398">
        <ele>45.8</ele>
        <time>2023-02-08T13:48:44Z</time>
      </trkpt>
      <trkpt lat="49.79092" lon="2.18399">
        <ele>45.8</ele>
        <time>2023-02-08T13:48:45Z</time>
      </trkpt>
      <trkpt lat="49.79093" lon="2.18399">
        <ele>45.8</ele>
        <time>2023-02-08T13:48:46Z</time>
      </trkpt>
      <trkpt lat="49.79094" lon="2.184">
        <ele>45.8</ele>
        <time>2023-02-08T13:48:47Z</time>
      </trkpt>
      <trkpt lat="49.79095" lon="2.18402">
        <ele>45.7</ele>
        <time>2023-02-08T13:48:49Z</time>
      </trkpt>
      <trkpt lat="49.79096" lon="2.18403">
        <ele>45.7</ele>
        <time>2023-02-08T13:48:50Z</time>
      </trkpt>
      <trkpt lat="49.79096" lon="2.18404">
        <ele>45.7</ele>
        <time>2023-02-08T13:48:51Z</time>
      </trkpt>
      <trkpt lat="49.79098" lon="2.18406">
        <ele>45.7</ele>
        <time>2023-02-08T13:48:52Z</time>
      </trkpt>
      <trkpt lat="49.79099" lon="2.18408">
        <ele>45.7</ele>
        <time>2023-02-08T13:48:53Z</time>
      </trkpt>
      <trkpt lat="49.791" lon="2.18409">
        <ele>45.6</ele>
        <time>2023-02-08T13:48:54Z</time>
      </trkpt>
      <trkpt lat="49.791" lon="2.18411">
        <ele>45.6</ele>
        <time>2023-02-08T13:48:56Z</time>
      </trkpt>
      <trkpt lat="49.79101" lon="2.18414">
        <ele>45.6</ele>
        <time>2023-02-08T13:48:57Z</time>
      </trkpt>
      <trkpt lat="49.79101" lon="2.18418">
        <ele>45.5</ele>
        <time>2023-02-08T13:48:58Z</time>
      </trkpt>
      <trkpt lat="49.791" lon="2.18421">
        <ele>45.5</ele>
        <time>2023-02-08T13:48:59Z</time>
      </trkpt>
      <trkpt lat="49.791" lon="2.18423">
        <ele>45.5</ele>
        <time>2023-02-08T13:49:00Z</time>
      </trkpt>
      <trkpt lat="49.791" lon="2.18425">
        <ele>45.5</ele>
        <time>2023-02-08T13:49:01Z</time>
      </trkpt>
      <trkpt lat="49.791" lon="2.18427">
        <ele>45.5</ele>
        <time>2023-02-08T13:49:02Z</time>
      </trkpt>
      <trkpt lat="49.79098" lon="2.18432">
        <ele>45.4</ele>
        <time>2023-02-08T13:49:04Z</time>
      </trkpt>
      <trkpt lat="49.79097" lon="2.18435">
        <ele>45.4</ele>
        <time>2023-02-08T13:49:05Z</time>
      </trkpt>
      <trkpt lat="49.79097" lon="2.18436">
        <ele>45.4</ele>
        <time>2023-02-08T13:49:06Z</time>
      </trkpt>
      <trkpt lat="49.79097" lon="2.18437">
        <ele>45.4</ele>
        <time>2023-02-08T13:49:07Z</time>
      </trkpt>
      <trkpt lat="49.79095" lon="2.18441">
        <ele>45.3</ele>
        <time>2023-02-08T13:49:08Z</time>
      </trkpt>
      <trkpt lat="49.79095" lon="2.18443">
        <ele>45.3</ele>
        <time>2023-02-08T13:49:09Z</time>
      </trkpt>
      <trkpt lat="49.79093" lon="2.18445">
        <ele>45.3</ele>
        <time>2023-02-08T13:49:10Z</time>
      </trkpt>
      <trkpt lat="49.79092" lon="2.18446">
        <ele>45.3</ele>
        <time>2023-02-08T13:49:11Z</time>
      </trkpt>
      <trkpt lat="49.79092" lon="2.18447">
        <ele>45.3</ele>
        <time>2023-02-08T13:49:12Z</time>
      </trkpt>
      <trkpt lat="49.79089" lon="2.18451">
        <ele>45.2</ele>
        <time>2023-02-08T13:49:13Z</time>
      </trkpt>
      <trkpt lat="49.79089" lon="2.18452">
        <ele>45.2</ele>
        <time>2023-02-08T13:49:15Z</time>
      </trkpt>
      <trkpt lat="49.79089" lon="2.18453">
        <ele>45.2</ele>
        <time>2023-02-08T13:49:16Z</time>
      </trkpt>
      <trkpt lat="49.79088" lon="2.18454">
        <ele>45.2</ele>
        <time>2023-02-08T13:49:17Z</time>
      </trkpt>
      <trkpt lat="49.79088" lon="2.18456">
        <ele>45.2</ele>
        <time>2023-02-08T13:49:18Z</time>
      </trkpt>
      <trkpt lat="49.79086" lon="2.18457">
        <ele>45.2</ele>
        <time>2023-02-08T13:49:19Z</time>
      </trkpt>
      <trkpt lat="49.79085" lon="2.18459">
        <ele>45.2</ele>
        <time>2023-02-08T13:49:20Z</time>
      </trkpt>
      <trkpt lat="49.79084" lon="2.18461">
        <ele>45.2</ele>
        <time>2023-02-08T13:49:21Z</time>
      </trkpt>
      <trkpt lat="49.79084" lon="2.18463">
        <ele>45.1</ele>
        <time>2023-02-08T13:49:22Z</time>
      </trkpt>
      <trkpt lat="49.79082" lon="2.18465">
        <ele>45.1</ele>
        <time>2023-02-08T13:49:24Z</time>
      </trkpt>
      <trkpt lat="49.79081" lon="2.18466">
        <ele>45.1</ele>
        <time>2023-02-08T13:49:25Z</time>
      </trkpt>
      <trkpt lat="49.7908" lon="2.18468">
        <ele>45</ele>
        <time>2023-02-08T13:49:26Z</time>
      </trkpt>
      <trkpt lat="49.79079" lon="2.1847">
        <ele>45</ele>
        <time>2023-02-08T13:49:27Z</time>
      </trkpt>
      <trkpt lat="49.79079" lon="2.18475">
        <ele>45</ele>
        <time>2023-02-08T13:49:28Z</time>
      </trkpt>
      <trkpt lat="49.79079" lon="2.18477">
        <ele>44.9</ele>
        <time>2023-02-08T13:49:29Z</time>
      </trkpt>
      <trkpt lat="49.79078" lon="2.18478">
        <ele>44.9</ele>
        <time>2023-02-08T13:49:30Z</time>
      </trkpt>
      <trkpt lat="49.79078" lon="2.1848">
        <ele>44.9</ele>
        <time>2023-02-08T13:49:32Z</time>
      </trkpt>
      <trkpt lat="49.79078" lon="2.18482">
        <ele>44.9</ele>
        <time>2023-02-08T13:49:33Z</time>
      </trkpt>
      <trkpt lat="49.79078" lon="2.18484">
        <ele>44.9</ele>
        <time>2023-02-08T13:49:34Z</time>
      </trkpt>
      <trkpt lat="49.79077" lon="2.18486">
        <ele>44.8</ele>
        <time>2023-02-08T13:49:35Z</time>
      </trkpt>
      <trkpt lat="49.79076" lon="2.18488">
        <ele>44.8</ele>
        <time>2023-02-08T13:49:36Z</time>
      </trkpt>
      <trkpt lat="49.79075" lon="2.18492">
        <ele>44.8</ele>
        <time>2023-02-08T13:49:38Z</time>
      </trkpt>
      <trkpt lat="49.79074" lon="2.18493">
        <ele>44.8</ele>
        <time>2023-02-08T13:49:40Z</time>
      </trkpt>
      <trkpt lat="49.79074" lon="2.18495">
        <ele>44.8</ele>
        <time>2023-02-08T13:49:41Z</time>
      </trkpt>
      <trkpt lat="49.79073" lon="2.18497">
        <ele>44.8</ele>
        <time>2023-02-08T13:49:42Z</time>
      </trkpt>
      <trkpt lat="49.79073" lon="2.185">
        <ele>44.7</ele>
        <time>2023-02-08T13:49:43Z</time>
      </trkpt>
      <trkpt lat="49.79073" lon="2.18503">
        <ele>44.7</ele>
        <time>2023-02-08T13:49:44Z</time>
      </trkpt>
      <trkpt lat="49.79073" lon="2.18505">
        <ele>44.7</ele>
        <time>2023-02-08T13:49:45Z</time>
      </trkpt>
      <trkpt lat="49.79072" lon="2.18508">
        <ele>44.7</ele>
        <time>2023-02-08T13:49:47Z</time>
      </trkpt>
      <trkpt lat="49.79072" lon="2.18509">
        <ele>44.7</ele>
        <time>2023-02-08T13:49:48Z</time>
      </trkpt>
      <trkpt lat="49.79071" lon="2.1851">
        <ele>44.7</ele>
        <time>2023-02-08T13:49:49Z</time>
      </trkpt>
      <trkpt lat="49.79071" lon="2.18512">
        <ele>44.7</ele>
        <time>2023-02-08T13:49:50Z</time>
      </trkpt>
      <trkpt lat="49.7907" lon="2.18513">
        <ele>44.7</ele>
        <time>2023-02-08T13:49:51Z</time>
      </trkpt>
      <trkpt lat="49.7907" lon="2.18515">
        <ele>44.7</ele>
        <time>2023-02-08T13:49:52Z</time>
      </trkpt>
      <trkpt lat="49.79069" lon="2.18517">
        <ele>44.7</ele>
        <time>2023-02-08T13:49:53Z</time>
      </trkpt>
      <trkpt lat="49.79068" lon="2.18519">
        <ele>44.7</ele>
        <time>2023-02-08T13:49:55Z</time>
      </trkpt>
      <trkpt lat="49.79067" lon="2.1852">
        <ele>44.7</ele>
        <time>2023-02-08T13:49:56Z</time>
      </trkpt>
      <trkpt lat="49.79066" lon="2.18523">
        <ele>44.7</ele>
        <time>2023-02-08T13:49:57Z</time>
      </trkpt>
      <trkpt lat="49.79065" lon="2.18525">
        <ele>44.7</ele>
        <time>2023-02-08T13:49:58Z</time>
      </trkpt>
      <trkpt lat="49.79064" lon="2.18527">
        <ele>44.7</ele>
        <time>2023-02-08T13:49:59Z</time>
      </trkpt>
      <trkpt lat="49.79064" lon="2.18529">
        <ele>44.7</ele>
        <time>2023-02-08T13:50:01Z</time>
      </trkpt>
      <trkpt lat="49.79063" lon="2.1853">
        <ele>44.7</ele>
        <time>2023-02-08T13:50:02Z</time>
      </trkpt>
      <trkpt lat="49.79063" lon="2.18532">
        <ele>44.7</ele>
        <time>2023-02-08T13:50:03Z</time>
      </trkpt>
      <trkpt lat="49.79063" lon="2.18533">
        <ele>44.7</ele>
        <time>2023-02-08T13:50:04Z</time>
      </trkpt>
      <trkpt lat="49.79062" lon="2.18536">
        <ele>44.7</ele>
        <time>2023-02-08T13:50:05Z</time>
      </trkpt>
      <trkpt lat="49.79062" lon="2.18538">
        <ele>44.7</ele>
        <time>2023-02-08T13:50:06Z</time>
      </trkpt>
      <trkpt lat="49.79061" lon="2.1854">
        <ele>44.8</ele>
        <time>2023-02-08T13:50:08Z</time>
      </trkpt>
      <trkpt lat="49.79061" lon="2.18542">
        <ele>44.8</ele>
        <time>2023-02-08T13:50:09Z</time>
      </trkpt>
      <trkpt lat="49.79061" lon="2.18543">
        <ele>44.8</ele>
        <time>2023-02-08T13:50:10Z</time>
      </trkpt>
      <trkpt lat="49.7906" lon="2.18546">
        <ele>44.8</ele>
        <time>2023-02-08T13:50:11Z</time>
      </trkpt>
      <trkpt lat="49.7906" lon="2.18547">
        <ele>44.8</ele>
        <time>2023-02-08T13:50:12Z</time>
      </trkpt>
      <trkpt lat="49.79059" lon="2.18549">
        <ele>44.8</ele>
        <time>2023-02-08T13:50:14Z</time>
      </trkpt>
      <trkpt lat="49.79059" lon="2.1855">
        <ele>44.8</ele>
        <time>2023-02-08T13:50:15Z</time>
      </trkpt>
      <trkpt lat="49.79059" lon="2.18551">
        <ele>44.8</ele>
        <time>2023-02-08T13:50:16Z</time>
      </trkpt>
      <trkpt lat="49.79058" lon="2.18553">
        <ele>44.8</ele>
        <time>2023-02-08T13:50:17Z</time>
      </trkpt>
      <trkpt lat="49.79058" lon="2.18554">
        <ele>44.8</ele>
        <time>2023-02-08T13:50:18Z</time>
      </trkpt>
      <trkpt lat="49.79057" lon="2.18556">
        <ele>44.9</ele>
        <time>2023-02-08T13:50:19Z</time>
      </trkpt>
      <trkpt lat="49.79057" lon="2.18557">
        <ele>44.9</ele>
        <time>2023-02-08T13:50:20Z</time>
      </trkpt>
      <trkpt lat="49.79057" lon="2.18559">
        <ele>44.9</ele>
        <time>2023-02-08T13:50:21Z</time>
      </trkpt>
      <trkpt lat="49.79057" lon="2.18561">
        <ele>44.9</ele>
        <time>2023-02-08T13:50:23Z</time>
      </trkpt>
      <trkpt lat="49.79058" lon="2.18564">
        <ele>44.9</ele>
        <time>2023-02-08T13:50:24Z</time>
      </trkpt>
      <trkpt lat="49.79059" lon="2.18565">
        <ele>44.8</ele>
        <time>2023-02-08T13:50:25Z</time>
      </trkpt>
      <trkpt lat="49.79059" lon="2.18567">
        <ele>44.8</ele>
        <time>2023-02-08T13:50:26Z</time>
      </trkpt>
      <trkpt lat="49.7906" lon="2.18568">
        <ele>44.7</ele>
        <time>2023-02-08T13:50:27Z</time>
      </trkpt>
      <trkpt lat="49.79063" lon="2.18569">
        <ele>44.7</ele>
        <time>2023-02-08T13:50:29Z</time>
      </trkpt>
      <trkpt lat="49.79064" lon="2.18569">
        <ele>44.7</ele>
        <time>2023-02-08T13:50:31Z</time>
      </trkpt>
      <trkpt lat="49.79065" lon="2.18569">
        <ele>44.7</ele>
        <time>2023-02-08T13:50:33Z</time>
      </trkpt>
      <trkpt lat="49.79065" lon="2.18567">
        <ele>44.7</ele>
        <time>2023-02-08T13:50:34Z</time>
      </trkpt>
      <trkpt lat="49.79065" lon="2.18563">
        <ele>44.6</ele>
        <time>2023-02-08T13:50:36Z</time>
      </trkpt>
      <trkpt lat="49.79065" lon="2.18562">
        <ele>44.6</ele>
        <time>2023-02-08T13:50:37Z</time>
      </trkpt>
      <trkpt lat="49.79065" lon="2.18562">
        <ele>44.6</ele>
        <time>2023-02-08T13:50:38Z</time>
      </trkpt>
      <trkpt lat="49.79064" lon="2.18562">
        <ele>44.6</ele>
        <time>2023-02-08T13:50:39Z</time>
      </trkpt>
      <trkpt lat="49.79064" lon="2.18562">
        <ele>44.6</ele>
        <time>2023-02-08T13:50:41Z</time>
      </trkpt>
      <trkpt lat="49.79064" lon="2.18562">
        <ele>44.6</ele>
        <time>2023-02-08T13:50:42Z</time>
      </trkpt>
      <trkpt lat="49.79064" lon="2.18562">
        <ele>44.6</ele>
        <time>2023-02-08T13:50:44Z</time>
      </trkpt>
      <trkpt lat="49.79064" lon="2.18562">
        <ele>44.6</ele>
        <time>2023-02-08T13:50:45Z</time>
      </trkpt>
      <trkpt lat="49.79064" lon="2.18562">
        <ele>44.6</ele>
        <time>2023-02-08T13:50:47Z</time>
      </trkpt>
      <trkpt lat="49.79064" lon="2.18561">
        <ele>44.6</ele>
        <time>2023-02-08T13:50:48Z</time>
      </trkpt>
      <trkpt lat="49.79064" lon="2.18561">
        <ele>44.6</ele>
        <time>2023-02-08T13:50:49Z</time>
      </trkpt>
      <trkpt lat="49.79064" lon="2.18561">
        <ele>44.6</ele>
        <time>2023-02-08T13:50:50Z</time>
      </trkpt>
      <trkpt lat="49.79063" lon="2.18561">
        <ele>44.6</ele>
        <time>2023-02-08T13:50:51Z</time>
      </trkpt>
      <trkpt lat="49.79063" lon="2.18561">
        <ele>44.6</ele>
        <time>2023-02-08T13:50:52Z</time>
      </trkpt>
      <trkpt lat="49.79063" lon="2.18561">
        <ele>44.6</ele>
        <time>2023-02-08T13:50:53Z</time>
      </trkpt>
      <trkpt lat="49.79063" lon="2.18561">
        <ele>44.6</ele>
        <time>2023-02-08T13:50:54Z</time>
      </trkpt>
      <trkpt lat="49.79063" lon="2.18561">
        <ele>44.6</ele>
        <time>2023-02-08T13:50:55Z</time>
      </trkpt>
      <trkpt lat="49.79063" lon="2.18561">
        <ele>44.6</ele>
        <time>2023-02-08T13:50:56Z</time>
      </trkpt>
      <trkpt lat="49.79063" lon="2.18561">
        <ele>44.6</ele>
        <time>2023-02-08T13:50:57Z</time>
      </trkpt>
      <trkpt lat="49.79063" lon="2.18561">
        <ele>44.6</ele>
        <time>2023-02-08T13:50:58Z</time>
      </trkpt>
      <trkpt lat="49.79063" lon="2.1856">
        <ele>44.6</ele>
        <time>2023-02-08T13:50:59Z</time>
      </trkpt>
      <trkpt lat="49.79062" lon="2.1856">
        <ele>44.6</ele>
        <time>2023-02-08T13:51:00Z</time>
      </trkpt>
      <trkpt lat="49.79062" lon="2.1856">
        <ele>44.6</ele>
        <time>2023-02-08T13:51:01Z</time>
      </trkpt>
      <trkpt lat="49.79062" lon="2.1856">
        <ele>44.6</ele>
        <time>2023-02-08T13:51:02Z</time>
      </trkpt>
      <trkpt lat="49.79062" lon="2.1856">
        <ele>44.6</ele>
        <time>2023-02-08T13:51:03Z</time>
      </trkpt>
      <trkpt lat="49.79062" lon="2.1856">
        <ele>44.6</ele>
        <time>2023-02-08T13:51:04Z</time>
      </trkpt>
      <trkpt lat="49.79062" lon="2.1856">
        <ele>44.6</ele>
        <time>2023-02-08T13:51:05Z</time>
      </trkpt>
      <trkpt lat="49.79062" lon="2.1856">
        <ele>44.6</ele>
        <time>2023-02-08T13:51:06Z</time>
      </trkpt>
      <trkpt lat="49.79062" lon="2.1856">
        <ele>44.6</ele>
        <time>2023-02-08T13:51:07Z</time>
      </trkpt>
      <trkpt lat="49.79061" lon="2.18559">
        <ele>44.6</ele>
        <time>2023-02-08T13:51:08Z</time>
      </trkpt>
      <trkpt lat="49.79061" lon="2.18558">
        <ele>44.6</ele>
        <time>2023-02-08T13:51:09Z</time>
      </trkpt>
      <trkpt lat="49.7906" lon="2.18558">
        <ele>44.6</ele>
        <time>2023-02-08T13:51:10Z</time>
      </trkpt>
      <trkpt lat="49.7906" lon="2.18557">
        <ele>44.6</ele>
        <time>2023-02-08T13:51:11Z</time>
      </trkpt>
      <trkpt lat="49.7906" lon="2.18557">
        <ele>44.5</ele>
        <time>2023-02-08T13:51:12Z</time>
      </trkpt>
      <trkpt lat="49.7906" lon="2.18557">
        <ele>44.5</ele>
        <time>2023-02-08T13:51:13Z</time>
      </trkpt>
      <trkpt lat="49.7906" lon="2.18557">
        <ele>44.5</ele>
        <time>2023-02-08T13:51:14Z</time>
      </trkpt>
      <trkpt lat="49.7906" lon="2.18557">
        <ele>44.5</ele>
        <time>2023-02-08T13:51:15Z</time>
      </trkpt>
      <trkpt lat="49.7906" lon="2.18557">
        <ele>44.5</ele>
        <time>2023-02-08T13:51:16Z</time>
      </trkpt>
      <trkpt lat="49.7906" lon="2.18557">
        <ele>44.5</ele>
        <time>2023-02-08T13:51:17Z</time>
      </trkpt>
      <trkpt lat="49.7906" lon="2.18557">
        <ele>44.5</ele>
        <time>2023-02-08T13:51:18Z</time>
      </trkpt>
      <trkpt lat="49.7906" lon="2.18557">
        <ele>44.5</ele>
        <time>2023-02-08T13:51:19Z</time>
      </trkpt>
      <trkpt lat="49.7906" lon="2.18557">
        <ele>44.5</ele>
        <time>2023-02-08T13:51:20Z</time>
      </trkpt>
      <trkpt lat="49.7906" lon="2.18557">
        <ele>44.5</ele>
        <time>2023-02-08T13:51:21Z</time>
      </trkpt>
      <trkpt lat="49.7906" lon="2.18557">
        <ele>44.5</ele>
        <time>2023-02-08T13:51:22Z</time>
      </trkpt>
      <trkpt lat="49.7906" lon="2.18557">
        <ele>44.5</ele>
        <time>2023-02-08T13:51:23Z</time>
      </trkpt>
      <trkpt lat="49.7906" lon="2.18557">
        <ele>44.5</ele>
        <time>2023-02-08T13:51:24Z</time>
      </trkpt>
      <trkpt lat="49.7906" lon="2.18557">
        <ele>44.5</ele>
        <time>2023-02-08T13:51:25Z</time>
      </trkpt>
      <trkpt lat="49.7906" lon="2.18557">
        <ele>44.5</ele>
        <time>2023-02-08T13:51:26Z</time>
      </trkpt>
      <trkpt lat="49.79059" lon="2.18557">
        <ele>44.5</ele>
        <time>2023-02-08T13:51:27Z</time>
      </trkpt>
      <trkpt lat="49.79059" lon="2.18556">
        <ele>44.5</ele>
        <time>2023-02-08T13:51:28Z</time>
      </trkpt>
      <trkpt lat="49.79059" lon="2.18556">
        <ele>44.5</ele>
        <time>2023-02-08T13:51:29Z</time>
      </trkpt>
      <trkpt lat="49.79059" lon="2.18555">
        <ele>44.5</ele>
        <time>2023-02-08T13:51:30Z</time>
      </trkpt>
      <trkpt lat="49.79059" lon="2.18555">
        <ele>44.5</ele>
        <time>2023-02-08T13:51:31Z</time>
      </trkpt>
      <trkpt lat="49.79059" lon="2.18555">
        <ele>44.5</ele>
        <time>2023-02-08T13:51:32Z</time>
      </trkpt>
      <trkpt lat="49.79059" lon="2.18555">
        <ele>44.5</ele>
        <time>2023-02-08T13:51:33Z</time>
      </trkpt>
      <trkpt lat="49.79059" lon="2.18555">
        <ele>44.5</ele>
        <time>2023-02-08T13:51:34Z</time>
      </trkpt>
      <trkpt lat="49.79059" lon="2.18555">
        <ele>44.5</ele>
        <time>2023-02-08T13:51:35Z</time>
      </trkpt>
      <trkpt lat="49.79059" lon="2.18555">
        <ele>44.5</ele>
        <time>2023-02-08T13:51:36Z</time>
      </trkpt>
      <trkpt lat="49.79059" lon="2.18555">
        <ele>44.5</ele>
        <time>2023-02-08T13:51:37Z</time>
      </trkpt>
      <trkpt lat="49.79059" lon="2.18555">
        <ele>44.5</ele>
        <time>2023-02-08T13:51:38Z</time>
      </trkpt>
      <trkpt lat="49.79059" lon="2.18555">
        <ele>44.5</ele>
        <time>2023-02-08T13:51:39Z</time>
      </trkpt>
      <trkpt lat="49.79059" lon="2.18555">
        <ele>44.5</ele>
        <time>2023-02-08T13:51:40Z</time>
      </trkpt>
      <trkpt lat="49.79059" lon="2.18555">
        <ele>44.5</ele>
        <time>2023-02-08T13:51:41Z</time>
      </trkpt>
      <trkpt lat="49.79059" lon="2.18555">
        <ele>44.5</ele>
        <time>2023-02-08T13:51:42Z</time>
      </trkpt>
      <trkpt lat="49.79059" lon="2.18555">
        <ele>44.5</ele>
        <time>2023-02-08T13:51:43Z</time>
      </trkpt>
      <trkpt lat="49.79059" lon="2.18555">
        <ele>44.5</ele>
        <time>2023-02-08T13:51:44Z</time>
      </trkpt>
      <trkpt lat="49.79059" lon="2.18555">
        <ele>44.5</ele>
        <time>2023-02-08T13:51:45Z</time>
      </trkpt>
      <trkpt lat="49.79059" lon="2.18555">
        <ele>44.5</ele>
        <time>2023-02-08T13:51:46Z</time>
      </trkpt>
      <trkpt lat="49.79059" lon="2.18555">
        <ele>44.5</ele>
        <time>2023-02-08T13:51:47Z</time>
      </trkpt>
      <trkpt lat="49.79059" lon="2.18555">
        <ele>44.5</ele>
        <time>2023-02-08T13:51:48Z</time>
      </trkpt>
      <trkpt lat="49.79059" lon="2.18555">
        <ele>44.5</ele>
        <time>2023-02-08T13:51:49Z</time>
      </trkpt>
      <trkpt lat="49.79059" lon="2.18555">
        <ele>44.5</ele>
        <time>2023-02-08T13:51:50Z</time>
      </trkpt>
      <trkpt lat="49.79059" lon="2.18555">
        <ele>44.5</ele>
        <time>2023-02-08T13:51:51Z</time>
      </trkpt>
      <trkpt lat="49.79059" lon="2.18555">
        <ele>44.5</ele>
        <time>2023-02-08T13:51:52Z</time>
      </trkpt>
      <trkpt lat="49.79059" lon="2.18555">
        <ele>44.5</ele>
        <time>2023-02-08T13:51:53Z</time>
      </trkpt>
      <trkpt lat="49.79059" lon="2.18555">
        <ele>44.5</ele>
        <time>2023-02-08T13:51:54Z</time>
      </trkpt>
      <trkpt lat="49.79059" lon="2.18555">
        <ele>44.5</ele>
        <time>2023-02-08T13:51:55Z</time>
      </trkpt>
      <trkpt lat="49.79059" lon="2.18555">
        <ele>44.5</ele>
        <time>2023-02-08T13:51:56Z</time>
      </trkpt>
      <trkpt lat="49.79059" lon="2.18555">
        <ele>44.5</ele>
        <time>2023-02-08T13:51:57Z</time>
      </trkpt>
      <trkpt lat="49.79059" lon="2.18555">
        <ele>44.5</ele>
        <time>2023-02-08T13:51:58Z</time>
      </trkpt>
      <trkpt lat="49.79059" lon="2.18555">
        <ele>44.5</ele>
        <time>2023-02-08T13:51:59Z</time>
      </trkpt>
      <trkpt lat="49.79059" lon="2.18555">
        <ele>44.5</ele>
        <time>2023-02-08T13:52:00Z</time>
      </trkpt>
      <trkpt lat="49.79059" lon="2.18555">
        <ele>44.5</ele>
        <time>2023-02-08T13:52:01Z</time>
      </trkpt>
      <trkpt lat="49.79059" lon="2.18555">
        <ele>44.5</ele>
        <time>2023-02-08T13:52:02Z</time>
      </trkpt>
      <trkpt lat="49.79059" lon="2.18555">
        <ele>44.5</ele>
        <time>2023-02-08T13:52:03Z</time>
      </trkpt>
      <trkpt lat="49.79059" lon="2.18555">
        <ele>44.5</ele>
        <time>2023-02-08T13:52:04Z</time>
      </trkpt>
      <trkpt lat="49.79059" lon="2.18555">
        <ele>44.5</ele>
        <time>2023-02-08T13:52:05Z</time>
      </trkpt>
      <trkpt lat="49.79059" lon="2.18555">
        <ele>44.5</ele>
        <time>2023-02-08T13:52:06Z</time>
      </trkpt>
      <trkpt lat="49.79059" lon="2.18555">
        <ele>44.5</ele>
        <time>2023-02-08T13:52:07Z</time>
      </trkpt>
      <trkpt lat="49.79059" lon="2.18555">
        <ele>44.5</ele>
        <time>2023-02-08T13:52:08Z</time>
      </trkpt>
      <trkpt lat="49.79059" lon="2.18555">
        <ele>44.5</ele>
        <time>2023-02-08T13:52:09Z</time>
      </trkpt>
      <trkpt lat="49.79059" lon="2.18555">
        <ele>44.5</ele>
        <time>2023-02-08T13:52:10Z</time>
      </trkpt>
      <trkpt lat="49.79059" lon="2.18555">
        <ele>44.5</ele>
        <time>2023-02-08T13:52:11Z</time>
      </trkpt>
      <trkpt lat="49.79059" lon="2.18555">
        <ele>44.5</ele>
        <time>2023-02-08T13:52:12Z</time>
      </trkpt>
      <trkpt lat="49.79059" lon="2.18555">
        <ele>44.5</ele>
        <time>2023-02-08T13:52:13Z</time>
      </trkpt>
      <trkpt lat="49.79059" lon="2.18555">
        <ele>44.5</ele>
        <time>2023-02-08T13:52:14Z</time>
      </trkpt>
      <trkpt lat="49.7906" lon="2.18557">
        <ele>44.5</ele>
        <time>2023-02-08T13:52:15Z</time>
      </trkpt>
      <trkpt lat="49.7906" lon="2.18558">
        <ele>44.5</ele>
        <time>2023-02-08T13:52:16Z</time>
      </trkpt>
      <trkpt lat="49.79061" lon="2.18558">
        <ele>44.5</ele>
        <time>2023-02-08T13:52:17Z</time>
      </trkpt>
      <trkpt lat="49.79061" lon="2.18559">
        <ele>44.5</ele>
        <time>2023-02-08T13:52:18Z</time>
      </trkpt>
      <trkpt lat="49.79062" lon="2.18559">
        <ele>44.5</ele>
        <time>2023-02-08T13:52:19Z</time>
      </trkpt>
      <trkpt lat="49.79063" lon="2.1856">
        <ele>44.5</ele>
        <time>2023-02-08T13:52:20Z</time>
      </trkpt>
      <trkpt lat="49.79064" lon="2.1856">
        <ele>44.5</ele>
        <time>2023-02-08T13:52:21Z</time>
      </trkpt>
      <trkpt lat="49.79064" lon="2.18561">
        <ele>44.5</ele>
        <time>2023-02-08T13:52:22Z</time>
      </trkpt>
      <trkpt lat="49.79065" lon="2.18561">
        <ele>44.5</ele>
        <time>2023-02-08T13:52:23Z</time>
      </trkpt>
      <trkpt lat="49.79066" lon="2.18561">
        <ele>44.4</ele>
        <time>2023-02-08T13:52:24Z</time>
      </trkpt>
      <trkpt lat="49.79067" lon="2.18561">
        <ele>44.4</ele>
        <time>2023-02-08T13:52:25Z</time>
      </trkpt>
      <trkpt lat="49.79068" lon="2.18562">
        <ele>44.4</ele>
        <time>2023-02-08T13:52:26Z</time>
      </trkpt>
      <trkpt lat="49.79069" lon="2.18562">
        <ele>44.4</ele>
        <time>2023-02-08T13:52:28Z</time>
      </trkpt>
      <trkpt lat="49.79071" lon="2.18562">
        <ele>44.4</ele>
        <time>2023-02-08T13:52:29Z</time>
      </trkpt>
      <trkpt lat="49.79072" lon="2.18562">
        <ele>44.4</ele>
        <time>2023-02-08T13:52:30Z</time>
      </trkpt>
      <trkpt lat="49.79073" lon="2.18563">
        <ele>44.4</ele>
        <time>2023-02-08T13:52:31Z</time>
      </trkpt>
      <trkpt lat="49.79075" lon="2.18565">
        <ele>44.3</ele>
        <time>2023-02-08T13:52:33Z</time>
      </trkpt>
      <trkpt lat="49.79076" lon="2.18566">
        <ele>44.3</ele>
        <time>2023-02-08T13:52:34Z</time>
      </trkpt>
      <trkpt lat="49.79077" lon="2.18567">
        <ele>44.3</ele>
        <time>2023-02-08T13:52:36Z</time>
      </trkpt>
      <trkpt lat="49.79078" lon="2.18568">
        <ele>44.3</ele>
        <time>2023-02-08T13:52:37Z</time>
      </trkpt>
      <trkpt lat="49.79079" lon="2.18569">
        <ele>44.3</ele>
        <time>2023-02-08T13:52:38Z</time>
      </trkpt>
      <trkpt lat="49.7908" lon="2.18569">
        <ele>44.3</ele>
        <time>2023-02-08T13:52:39Z</time>
      </trkpt>
      <trkpt lat="49.79081" lon="2.1857">
        <ele>44.3</ele>
        <time>2023-02-08T13:52:40Z</time>
      </trkpt>
      <trkpt lat="49.79082" lon="2.1857">
        <ele>44.3</ele>
        <time>2023-02-08T13:52:41Z</time>
      </trkpt>
      <trkpt lat="49.79083" lon="2.18571">
        <ele>44.3</ele>
        <time>2023-02-08T13:52:42Z</time>
      </trkpt>
      <trkpt lat="49.79084" lon="2.18571">
        <ele>44.3</ele>
        <time>2023-02-08T13:52:43Z</time>
      </trkpt>
      <trkpt lat="49.79086" lon="2.18571">
        <ele>44.2</ele>
        <time>2023-02-08T13:52:45Z</time>
      </trkpt>
      <trkpt lat="49.79086" lon="2.18572">
        <ele>44.2</ele>
        <time>2023-02-08T13:52:46Z</time>
      </trkpt>
      <trkpt lat="49.79087" lon="2.18572">
        <ele>44.2</ele>
        <time>2023-02-08T13:52:47Z</time>
      </trkpt>
      <trkpt lat="49.79088" lon="2.18573">
        <ele>44.2</ele>
        <time>2023-02-08T13:52:48Z</time>
      </trkpt>
      <trkpt lat="49.79089" lon="2.18574">
        <ele>44.2</ele>
        <time>2023-02-08T13:52:49Z</time>
      </trkpt>
      <trkpt lat="49.7909" lon="2.18575">
        <ele>44.2</ele>
        <time>2023-02-08T13:52:50Z</time>
      </trkpt>
      <trkpt lat="49.79091" lon="2.18576">
        <ele>44.2</ele>
        <time>2023-02-08T13:52:51Z</time>
      </trkpt>
      <trkpt lat="49.79092" lon="2.18577">
        <ele>44.2</ele>
        <time>2023-02-08T13:52:53Z</time>
      </trkpt>
      <trkpt lat="49.79093" lon="2.18578">
        <ele>44.2</ele>
        <time>2023-02-08T13:52:54Z</time>
      </trkpt>
      <trkpt lat="49.79094" lon="2.18579">
        <ele>44.2</ele>
        <time>2023-02-08T13:52:55Z</time>
      </trkpt>
      <trkpt lat="49.79095" lon="2.18579">
        <ele>44.2</ele>
        <time>2023-02-08T13:52:56Z</time>
      </trkpt>
      <trkpt lat="49.79096" lon="2.1858">
        <ele>44.2</ele>
        <time>2023-02-08T13:52:57Z</time>
      </trkpt>
      <trkpt lat="49.79097" lon="2.18581">
        <ele>44.2</ele>
        <time>2023-02-08T13:52:58Z</time>
      </trkpt>
      <trkpt lat="49.79098" lon="2.18582">
        <ele>44.2</ele>
        <time>2023-02-08T13:52:59Z</time>
      </trkpt>
      <trkpt lat="49.79099" lon="2.18582">
        <ele>44.2</ele>
        <time>2023-02-08T13:53:01Z</time>
      </trkpt>
      <trkpt lat="49.791" lon="2.18583">
        <ele>44.2</ele>
        <time>2023-02-08T13:53:02Z</time>
      </trkpt>
      <trkpt lat="49.79101" lon="2.18583">
        <ele>44.2</ele>
        <time>2023-02-08T13:53:03Z</time>
      </trkpt>
      <trkpt lat="49.79101" lon="2.18584">
        <ele>44.2</ele>
        <time>2023-02-08T13:53:04Z</time>
      </trkpt>
      <trkpt lat="49.79104" lon="2.18585">
        <ele>44.2</ele>
        <time>2023-02-08T13:53:05Z</time>
      </trkpt>
      <trkpt lat="49.79104" lon="2.18585">
        <ele>44.2</ele>
        <time>2023-02-08T13:53:06Z</time>
      </trkpt>
      <trkpt lat="49.79105" lon="2.18585">
        <ele>44.2</ele>
        <time>2023-02-08T13:53:07Z</time>
      </trkpt>
      <trkpt lat="49.79106" lon="2.18585">
        <ele>44.2</ele>
        <time>2023-02-08T13:53:09Z</time>
      </trkpt>
      <trkpt lat="49.79107" lon="2.18586">
        <ele>44.2</ele>
        <time>2023-02-08T13:53:10Z</time>
      </trkpt>
      <trkpt lat="49.79108" lon="2.18586">
        <ele>44.2</ele>
        <time>2023-02-08T13:53:11Z</time>
      </trkpt>
      <trkpt lat="49.79109" lon="2.18587">
        <ele>44.2</ele>
        <time>2023-02-08T13:53:12Z</time>
      </trkpt>
      <trkpt lat="49.79109" lon="2.18587">
        <ele>44.2</ele>
        <time>2023-02-08T13:53:13Z</time>
      </trkpt>
      <trkpt lat="49.7911" lon="2.18588">
        <ele>44.2</ele>
        <time>2023-02-08T13:53:14Z</time>
      </trkpt>
      <trkpt lat="49.79111" lon="2.18588">
        <ele>44.2</ele>
        <time>2023-02-08T13:53:16Z</time>
      </trkpt>
      <trkpt lat="49.79112" lon="2.18589">
        <ele>44.2</ele>
        <time>2023-02-08T13:53:17Z</time>
      </trkpt>
      <trkpt lat="49.79113" lon="2.18589">
        <ele>44.2</ele>
        <time>2023-02-08T13:53:18Z</time>
      </trkpt>
      <trkpt lat="49.79114" lon="2.1859">
        <ele>44.2</ele>
        <time>2023-02-08T13:53:19Z</time>
      </trkpt>
      <trkpt lat="49.79115" lon="2.1859">
        <ele>44.2</ele>
        <time>2023-02-08T13:53:20Z</time>
      </trkpt>
      <trkpt lat="49.79116" lon="2.18591">
        <ele>44.2</ele>
        <time>2023-02-08T13:53:21Z</time>
      </trkpt>
      <trkpt lat="49.79117" lon="2.18592">
        <ele>44.2</ele>
        <time>2023-02-08T13:53:23Z</time>
      </trkpt>
      <trkpt lat="49.79118" lon="2.18593">
        <ele>44.2</ele>
        <time>2023-02-08T13:53:24Z</time>
      </trkpt>
      <trkpt lat="49.79119" lon="2.18594">
        <ele>44.2</ele>
        <time>2023-02-08T13:53:25Z</time>
      </trkpt>
      <trkpt lat="49.7912" lon="2.18595">
        <ele>44.2</ele>
        <time>2023-02-08T13:53:26Z</time>
      </trkpt>
      <trkpt lat="49.79121" lon="2.18596">
        <ele>44.2</ele>
        <time>2023-02-08T13:53:27Z</time>
      </trkpt>
      <trkpt lat="49.79122" lon="2.18597">
        <ele>44.2</ele>
        <time>2023-02-08T13:53:28Z</time>
      </trkpt>
      <trkpt lat="49.79123" lon="2.18598">
        <ele>44.2</ele>
        <time>2023-02-08T13:53:30Z</time>
      </trkpt>
      <trkpt lat="49.79124" lon="2.18599">
        <ele>44.2</ele>
        <time>2023-02-08T13:53:31Z</time>
      </trkpt>
      <trkpt lat="49.79125" lon="2.186">
        <ele>44.2</ele>
        <time>2023-02-08T13:53:32Z</time>
      </trkpt>
      <trkpt lat="49.79127" lon="2.18601">
        <ele>44.2</ele>
        <time>2023-02-08T13:53:33Z</time>
      </trkpt>
      <trkpt lat="49.79128" lon="2.18602">
        <ele>44.2</ele>
        <time>2023-02-08T13:53:34Z</time>
      </trkpt>
      <trkpt lat="49.79129" lon="2.18603">
        <ele>44.2</ele>
        <time>2023-02-08T13:53:35Z</time>
      </trkpt>
      <trkpt lat="49.79131" lon="2.18604">
        <ele>44.2</ele>
        <time>2023-02-08T13:53:37Z</time>
      </trkpt>
      <trkpt lat="49.79132" lon="2.18605">
        <ele>44.2</ele>
        <time>2023-02-08T13:53:38Z</time>
      </trkpt>
      <trkpt lat="49.79133" lon="2.18606">
        <ele>44.2</ele>
        <time>2023-02-08T13:53:39Z</time>
      </trkpt>
      <trkpt lat="49.79135" lon="2.18608">
        <ele>44.2</ele>
        <time>2023-02-08T13:53:40Z</time>
      </trkpt>
      <trkpt lat="49.79136" lon="2.18609">
        <ele>44.2</ele>
        <time>2023-02-08T13:53:41Z</time>
      </trkpt>
      <trkpt lat="49.79137" lon="2.1861">
        <ele>44.1</ele>
        <time>2023-02-08T13:53:42Z</time>
      </trkpt>
      <trkpt lat="49.79138" lon="2.1861">
        <ele>44.1</ele>
        <time>2023-02-08T13:53:43Z</time>
      </trkpt>
      <trkpt lat="49.7914" lon="2.18612">
        <ele>44.1</ele>
        <time>2023-02-08T13:53:45Z</time>
      </trkpt>
      <trkpt lat="49.79141" lon="2.18613">
        <ele>44.1</ele>
        <time>2023-02-08T13:53:46Z</time>
      </trkpt>
      <trkpt lat="49.79142" lon="2.18614">
        <ele>44.1</ele>
        <time>2023-02-08T13:53:47Z</time>
      </trkpt>
      <trkpt lat="49.79144" lon="2.18615">
        <ele>44.1</ele>
        <time>2023-02-08T13:53:48Z</time>
      </trkpt>
      <trkpt lat="49.79145" lon="2.18615">
        <ele>44.1</ele>
        <time>2023-02-08T13:53:49Z</time>
      </trkpt>
      <trkpt lat="49.79146" lon="2.18616">
        <ele>44.1</ele>
        <time>2023-02-08T13:53:50Z</time>
      </trkpt>
      <trkpt lat="49.79148" lon="2.18617">
        <ele>44.1</ele>
        <time>2023-02-08T13:53:52Z</time>
      </trkpt>
      <trkpt lat="49.79148" lon="2.18618">
        <ele>44.1</ele>
        <time>2023-02-08T13:53:53Z</time>
      </trkpt>
      <trkpt lat="49.79149" lon="2.18618">
        <ele>44.1</ele>
        <time>2023-02-08T13:53:54Z</time>
      </trkpt>
      <trkpt lat="49.7915" lon="2.18619">
        <ele>44.1</ele>
        <time>2023-02-08T13:53:55Z</time>
      </trkpt>
      <trkpt lat="49.79152" lon="2.18619">
        <ele>44.1</ele>
        <time>2023-02-08T13:53:56Z</time>
      </trkpt>
      <trkpt lat="49.79153" lon="2.1862">
        <ele>44.1</ele>
        <time>2023-02-08T13:53:57Z</time>
      </trkpt>
      <trkpt lat="49.79155" lon="2.18621">
        <ele>44.1</ele>
        <time>2023-02-08T13:53:59Z</time>
      </trkpt>
      <trkpt lat="49.79155" lon="2.18621">
        <ele>44.1</ele>
        <time>2023-02-08T13:54:00Z</time>
      </trkpt>
      <trkpt lat="49.79156" lon="2.18621">
        <ele>44.1</ele>
        <time>2023-02-08T13:54:01Z</time>
      </trkpt>
      <trkpt lat="49.79157" lon="2.18622">
        <ele>44.1</ele>
        <time>2023-02-08T13:54:02Z</time>
      </trkpt>
      <trkpt lat="49.79158" lon="2.18622">
        <ele>44.1</ele>
        <time>2023-02-08T13:54:03Z</time>
      </trkpt>
      <trkpt lat="49.79159" lon="2.18622">
        <ele>44.1</ele>
        <time>2023-02-08T13:54:05Z</time>
      </trkpt>
      <trkpt lat="49.7916" lon="2.18622">
        <ele>44.1</ele>
        <time>2023-02-08T13:54:06Z</time>
      </trkpt>
      <trkpt lat="49.79161" lon="2.18622">
        <ele>44.1</ele>
        <time>2023-02-08T13:54:07Z</time>
      </trkpt>
      <trkpt lat="49.79162" lon="2.18622">
        <ele>44.1</ele>
        <time>2023-02-08T13:54:08Z</time>
      </trkpt>
      <trkpt lat="49.79162" lon="2.18622">
        <ele>44.1</ele>
        <time>2023-02-08T13:54:09Z</time>
      </trkpt>
      <trkpt lat="49.79163" lon="2.18623">
        <ele>44.1</ele>
        <time>2023-02-08T13:54:10Z</time>
      </trkpt>
      <trkpt lat="49.79164" lon="2.18624">
        <ele>44.1</ele>
        <time>2023-02-08T13:54:12Z</time>
      </trkpt>
      <trkpt lat="49.79164" lon="2.18625">
        <ele>44.1</ele>
        <time>2023-02-08T13:54:13Z</time>
      </trkpt>
      <trkpt lat="49.79165" lon="2.18626">
        <ele>44.1</ele>
        <time>2023-02-08T13:54:14Z</time>
      </trkpt>
      <trkpt lat="49.79165" lon="2.18627">
        <ele>44.1</ele>
        <time>2023-02-08T13:54:15Z</time>
      </trkpt>
      <trkpt lat="49.79166" lon="2.18628">
        <ele>44.1</ele>
        <time>2023-02-08T13:54:16Z</time>
      </trkpt>
      <trkpt lat="49.79167" lon="2.18629">
        <ele>44.1</ele>
        <time>2023-02-08T13:54:17Z</time>
      </trkpt>
      <trkpt lat="49.79169" lon="2.1863">
        <ele>44.1</ele>
        <time>2023-02-08T13:54:18Z</time>
      </trkpt>
      <trkpt lat="49.7917" lon="2.18632">
        <ele>44.1</ele>
        <time>2023-02-08T13:54:20Z</time>
      </trkpt>
      <trkpt lat="49.79171" lon="2.18633">
        <ele>44.1</ele>
        <time>2023-02-08T13:54:21Z</time>
      </trkpt>
      <trkpt lat="49.79172" lon="2.18635">
        <ele>44.1</ele>
        <time>2023-02-08T13:54:22Z</time>
      </trkpt>
      <trkpt lat="49.79173" lon="2.18636">
        <ele>44.1</ele>
        <time>2023-02-08T13:54:23Z</time>
      </trkpt>
      <trkpt lat="49.79174" lon="2.18637">
        <ele>44.1</ele>
        <time>2023-02-08T13:54:24Z</time>
      </trkpt>
      <trkpt lat="49.79176" lon="2.18638">
        <ele>44.1</ele>
        <time>2023-02-08T13:54:25Z</time>
      </trkpt>
      <trkpt lat="49.79177" lon="2.18639">
        <ele>44.1</ele>
        <time>2023-02-08T13:54:26Z</time>
      </trkpt>
      <trkpt lat="49.79178" lon="2.1864">
        <ele>44.1</ele>
        <time>2023-02-08T13:54:28Z</time>
      </trkpt>
      <trkpt lat="49.7918" lon="2.18641">
        <ele>44.1</ele>
        <time>2023-02-08T13:54:29Z</time>
      </trkpt>
      <trkpt lat="49.79181" lon="2.18642">
        <ele>44.1</ele>
        <time>2023-02-08T13:54:30Z</time>
      </trkpt>
      <trkpt lat="49.79182" lon="2.18642">
        <ele>44.1</ele>
        <time>2023-02-08T13:54:31Z</time>
      </trkpt>
      <trkpt lat="49.79183" lon="2.18643">
        <ele>44.1</ele>
        <time>2023-02-08T13:54:32Z</time>
      </trkpt>
      <trkpt lat="49.79184" lon="2.18644">
        <ele>44.1</ele>
        <time>2023-02-08T13:54:33Z</time>
      </trkpt>
      <trkpt lat="49.79185" lon="2.18644">
        <ele>44.1</ele>
        <time>2023-02-08T13:54:34Z</time>
      </trkpt>
      <trkpt lat="49.79186" lon="2.18645">
        <ele>44.1</ele>
        <time>2023-02-08T13:54:35Z</time>
      </trkpt>
      <trkpt lat="49.79187" lon="2.18645">
        <ele>44.1</ele>
        <time>2023-02-08T13:54:37Z</time>
      </trkpt>
      <trkpt lat="49.79188" lon="2.18646">
        <ele>44.1</ele>
        <time>2023-02-08T13:54:38Z</time>
      </trkpt>
      <trkpt lat="49.79189" lon="2.18647">
        <ele>44.1</ele>
        <time>2023-02-08T13:54:39Z</time>
      </trkpt>
      <trkpt lat="49.7919" lon="2.18648">
        <ele>44.1</ele>
        <time>2023-02-08T13:54:40Z</time>
      </trkpt>
      <trkpt lat="49.7919" lon="2.18649">
        <ele>44.1</ele>
        <time>2023-02-08T13:54:41Z</time>
      </trkpt>
      <trkpt lat="49.79191" lon="2.18649">
        <ele>44.1</ele>
        <time>2023-02-08T13:54:42Z</time>
      </trkpt>
      <trkpt lat="49.79192" lon="2.1865">
        <ele>44.1</ele>
        <time>2023-02-08T13:54:43Z</time>
      </trkpt>
      <trkpt lat="49.79193" lon="2.18651">
        <ele>44.1</ele>
        <time>2023-02-08T13:54:44Z</time>
      </trkpt>
      <trkpt lat="49.79194" lon="2.18651">
        <ele>44.1</ele>
        <time>2023-02-08T13:54:46Z</time>
      </trkpt>
      <trkpt lat="49.79195" lon="2.18652">
        <ele>44.1</ele>
        <time>2023-02-08T13:54:47Z</time>
      </trkpt>
      <trkpt lat="49.79196" lon="2.18653">
        <ele>44.1</ele>
        <time>2023-02-08T13:54:48Z</time>
      </trkpt>
      <trkpt lat="49.79197" lon="2.18653">
        <ele>44.1</ele>
        <time>2023-02-08T13:54:49Z</time>
      </trkpt>
      <trkpt lat="49.79198" lon="2.18653">
        <ele>44.1</ele>
        <time>2023-02-08T13:54:50Z</time>
      </trkpt>
      <trkpt lat="49.79199" lon="2.18653">
        <ele>44.1</ele>
        <time>2023-02-08T13:54:51Z</time>
      </trkpt>
      <trkpt lat="49.792" lon="2.18654">
        <ele>44.1</ele>
        <time>2023-02-08T13:54:52Z</time>
      </trkpt>
      <trkpt lat="49.79201" lon="2.18654">
        <ele>44.1</ele>
        <time>2023-02-08T13:54:54Z</time>
      </trkpt>
      <trkpt lat="49.79202" lon="2.18655">
        <ele>44.1</ele>
        <time>2023-02-08T13:54:55Z</time>
      </trkpt>
      <trkpt lat="49.79203" lon="2.18655">
        <ele>44.1</ele>
        <time>2023-02-08T13:54:56Z</time>
      </trkpt>
      <trkpt lat="49.79204" lon="2.18656">
        <ele>44.1</ele>
        <time>2023-02-08T13:54:57Z</time>
      </trkpt>
      <trkpt lat="49.79205" lon="2.18656">
        <ele>44.1</ele>
        <time>2023-02-08T13:54:58Z</time>
      </trkpt>
      <trkpt lat="49.79206" lon="2.18657">
        <ele>44.1</ele>
        <time>2023-02-08T13:54:59Z</time>
      </trkpt>
      <trkpt lat="49.79207" lon="2.18658">
        <ele>44.1</ele>
        <time>2023-02-08T13:55:00Z</time>
      </trkpt>
      <trkpt lat="49.79208" lon="2.18658">
        <ele>44.1</ele>
        <time>2023-02-08T13:55:01Z</time>
      </trkpt>
      <trkpt lat="49.79209" lon="2.18659">
        <ele>44.1</ele>
        <time>2023-02-08T13:55:03Z</time>
      </trkpt>
      <trkpt lat="49.7921" lon="2.1866">
        <ele>44.1</ele>
        <time>2023-02-08T13:55:04Z</time>
      </trkpt>
      <trkpt lat="49.79211" lon="2.18661">
        <ele>44.1</ele>
        <time>2023-02-08T13:55:05Z</time>
      </trkpt>
      <trkpt lat="49.79212" lon="2.18662">
        <ele>44.1</ele>
        <time>2023-02-08T13:55:06Z</time>
      </trkpt>
      <trkpt lat="49.79213" lon="2.18662">
        <ele>44.1</ele>
        <time>2023-02-08T13:55:07Z</time>
      </trkpt>
      <trkpt lat="49.79215" lon="2.18663">
        <ele>44.1</ele>
        <time>2023-02-08T13:55:08Z</time>
      </trkpt>
      <trkpt lat="49.79216" lon="2.18664">
        <ele>44.1</ele>
        <time>2023-02-08T13:55:09Z</time>
      </trkpt>
      <trkpt lat="49.79216" lon="2.18664">
        <ele>44.1</ele>
        <time>2023-02-08T13:55:10Z</time>
      </trkpt>
      <trkpt lat="49.79217" lon="2.18665">
        <ele>44.1</ele>
        <time>2023-02-08T13:55:11Z</time>
      </trkpt>
      <trkpt lat="49.79218" lon="2.18665">
        <ele>44.1</ele>
        <time>2023-02-08T13:55:13Z</time>
      </trkpt>
      <trkpt lat="49.79219" lon="2.18666">
        <ele>44.1</ele>
        <time>2023-02-08T13:55:14Z</time>
      </trkpt>
      <trkpt lat="49.79221" lon="2.18666">
        <ele>44.1</ele>
        <time>2023-02-08T13:55:15Z</time>
      </trkpt>
      <trkpt lat="49.79222" lon="2.18667">
        <ele>44.1</ele>
        <time>2023-02-08T13:55:16Z</time>
      </trkpt>
      <trkpt lat="49.79223" lon="2.18668">
        <ele>44.1</ele>
        <time>2023-02-08T13:55:17Z</time>
      </trkpt>
      <trkpt lat="49.79224" lon="2.18669">
        <ele>44</ele>
        <time>2023-02-08T13:55:18Z</time>
      </trkpt>
      <trkpt lat="49.79226" lon="2.1867">
        <ele>44</ele>
        <time>2023-02-08T13:55:19Z</time>
      </trkpt>
      <trkpt lat="49.79228" lon="2.18671">
        <ele>44</ele>
        <time>2023-02-08T13:55:20Z</time>
      </trkpt>
      <trkpt lat="49.79229" lon="2.18672">
        <ele>44</ele>
        <time>2023-02-08T13:55:22Z</time>
      </trkpt>
      <trkpt lat="49.79229" lon="2.18673">
        <ele>44</ele>
        <time>2023-02-08T13:55:23Z</time>
      </trkpt>
      <trkpt lat="49.79232" lon="2.18674">
        <ele>44</ele>
        <time>2023-02-08T13:55:25Z</time>
      </trkpt>
      <trkpt lat="49.79234" lon="2.18675">
        <ele>44</ele>
        <time>2023-02-08T13:55:27Z</time>
      </trkpt>
      <trkpt lat="49.79235" lon="2.18676">
        <ele>44</ele>
        <time>2023-02-08T13:55:28Z</time>
      </trkpt>
      <trkpt lat="49.79236" lon="2.18676">
        <ele>44</ele>
        <time>2023-02-08T13:55:29Z</time>
      </trkpt>
      <trkpt lat="49.79237" lon="2.18677">
        <ele>44</ele>
        <time>2023-02-08T13:55:30Z</time>
      </trkpt>
      <trkpt lat="49.79238" lon="2.18678">
        <ele>44</ele>
        <time>2023-02-08T13:55:31Z</time>
      </trkpt>
      <trkpt lat="49.7924" lon="2.18679">
        <ele>44</ele>
        <time>2023-02-08T13:55:32Z</time>
      </trkpt>
      <trkpt lat="49.79241" lon="2.18681">
        <ele>44.1</ele>
        <time>2023-02-08T13:55:33Z</time>
      </trkpt>
      <trkpt lat="49.79242" lon="2.18682">
        <ele>44.1</ele>
        <time>2023-02-08T13:55:34Z</time>
      </trkpt>
      <trkpt lat="49.79243" lon="2.18682">
        <ele>44.1</ele>
        <time>2023-02-08T13:55:35Z</time>
      </trkpt>
      <trkpt lat="49.79244" lon="2.18684">
        <ele>44.1</ele>
        <time>2023-02-08T13:55:37Z</time>
      </trkpt>
      <trkpt lat="49.79245" lon="2.18685">
        <ele>44.1</ele>
        <time>2023-02-08T13:55:38Z</time>
      </trkpt>
      <trkpt lat="49.79246" lon="2.18686">
        <ele>44.1</ele>
        <time>2023-02-08T13:55:39Z</time>
      </trkpt>
      <trkpt lat="49.79247" lon="2.18687">
        <ele>44.1</ele>
        <time>2023-02-08T13:55:40Z</time>
      </trkpt>
      <trkpt lat="49.79248" lon="2.18688">
        <ele>44.1</ele>
        <time>2023-02-08T13:55:41Z</time>
      </trkpt>
      <trkpt lat="49.7925" lon="2.18689">
        <ele>44.1</ele>
        <time>2023-02-08T13:55:42Z</time>
      </trkpt>
      <trkpt lat="49.79251" lon="2.1869">
        <ele>44.1</ele>
        <time>2023-02-08T13:55:43Z</time>
      </trkpt>
      <trkpt lat="49.79255" lon="2.18691">
        <ele>44.2</ele>
        <time>2023-02-08T13:55:45Z</time>
      </trkpt>
      <trkpt lat="49.79255" lon="2.18691">
        <ele>44.2</ele>
        <time>2023-02-08T13:55:47Z</time>
      </trkpt>
      <trkpt lat="49.79256" lon="2.18692">
        <ele>44.2</ele>
        <time>2023-02-08T13:55:48Z</time>
      </trkpt>
      <trkpt lat="49.79257" lon="2.18692">
        <ele>44.2</ele>
        <time>2023-02-08T13:55:49Z</time>
      </trkpt>
      <trkpt lat="49.79258" lon="2.18693">
        <ele>44.2</ele>
        <time>2023-02-08T13:55:50Z</time>
      </trkpt>
      <trkpt lat="49.79259" lon="2.18693">
        <ele>44.2</ele>
        <time>2023-02-08T13:55:52Z</time>
      </trkpt>
      <trkpt lat="49.79261" lon="2.18694">
        <ele>44.2</ele>
        <time>2023-02-08T13:55:53Z</time>
      </trkpt>
      <trkpt lat="49.79262" lon="2.18695">
        <ele>44.2</ele>
        <time>2023-02-08T13:55:54Z</time>
      </trkpt>
      <trkpt lat="49.79263" lon="2.18695">
        <ele>44.2</ele>
        <time>2023-02-08T13:55:55Z</time>
      </trkpt>
      <trkpt lat="49.79264" lon="2.18696">
        <ele>44.2</ele>
        <time>2023-02-08T13:55:56Z</time>
      </trkpt>
      <trkpt lat="49.79265" lon="2.18696">
        <ele>44.2</ele>
        <time>2023-02-08T13:55:57Z</time>
      </trkpt>
      <trkpt lat="49.79266" lon="2.18697">
        <ele>44.3</ele>
        <time>2023-02-08T13:55:58Z</time>
      </trkpt>
      <trkpt lat="49.79267" lon="2.18697">
        <ele>44.3</ele>
        <time>2023-02-08T13:55:59Z</time>
      </trkpt>
      <trkpt lat="49.79269" lon="2.18698">
        <ele>44.3</ele>
        <time>2023-02-08T13:56:00Z</time>
      </trkpt>
      <trkpt lat="49.7927" lon="2.18699">
        <ele>44.3</ele>
        <time>2023-02-08T13:56:01Z</time>
      </trkpt>
      <trkpt lat="49.79271" lon="2.18699">
        <ele>44.3</ele>
        <time>2023-02-08T13:56:03Z</time>
      </trkpt>
      <trkpt lat="49.79272" lon="2.187">
        <ele>44.3</ele>
        <time>2023-02-08T13:56:04Z</time>
      </trkpt>
      <trkpt lat="49.79273" lon="2.187">
        <ele>44.3</ele>
        <time>2023-02-08T13:56:05Z</time>
      </trkpt>
      <trkpt lat="49.79274" lon="2.18701">
        <ele>44.3</ele>
        <time>2023-02-08T13:56:06Z</time>
      </trkpt>
      <trkpt lat="49.79275" lon="2.18702">
        <ele>44.3</ele>
        <time>2023-02-08T13:56:07Z</time>
      </trkpt>
      <trkpt lat="49.79276" lon="2.18703">
        <ele>44.3</ele>
        <time>2023-02-08T13:56:08Z</time>
      </trkpt>
      <trkpt lat="49.79278" lon="2.18704">
        <ele>44.3</ele>
        <time>2023-02-08T13:56:09Z</time>
      </trkpt>
      <trkpt lat="49.79279" lon="2.18704">
        <ele>44.3</ele>
        <time>2023-02-08T13:56:10Z</time>
      </trkpt>
      <trkpt lat="49.7928" lon="2.18705">
        <ele>44.3</ele>
        <time>2023-02-08T13:56:11Z</time>
      </trkpt>
      <trkpt lat="49.79282" lon="2.18706">
        <ele>44.3</ele>
        <time>2023-02-08T13:56:12Z</time>
      </trkpt>
      <trkpt lat="49.79283" lon="2.18707">
        <ele>44.3</ele>
        <time>2023-02-08T13:56:13Z</time>
      </trkpt>
      <trkpt lat="49.79283" lon="2.18707">
        <ele>44.3</ele>
        <time>2023-02-08T13:56:14Z</time>
      </trkpt>
      <trkpt lat="49.79285" lon="2.18708">
        <ele>44.3</ele>
        <time>2023-02-08T13:56:16Z</time>
      </trkpt>
      <trkpt lat="49.79286" lon="2.18709">
        <ele>44.3</ele>
        <time>2023-02-08T13:56:17Z</time>
      </trkpt>
      <trkpt lat="49.79287" lon="2.18709">
        <ele>44.3</ele>
        <time>2023-02-08T13:56:18Z</time>
      </trkpt>
      <trkpt lat="49.79288" lon="2.1871">
        <ele>44.3</ele>
        <time>2023-02-08T13:56:19Z</time>
      </trkpt>
      <trkpt lat="49.79289" lon="2.18711">
        <ele>44.3</ele>
        <time>2023-02-08T13:56:20Z</time>
      </trkpt>
      <trkpt lat="49.7929" lon="2.18712">
        <ele>44.3</ele>
        <time>2023-02-08T13:56:21Z</time>
      </trkpt>
      <trkpt lat="49.79291" lon="2.18712">
        <ele>44.3</ele>
        <time>2023-02-08T13:56:22Z</time>
      </trkpt>
      <trkpt lat="49.79292" lon="2.18713">
        <ele>44.3</ele>
        <time>2023-02-08T13:56:24Z</time>
      </trkpt>
      <trkpt lat="49.79292" lon="2.18713">
        <ele>44.3</ele>
        <time>2023-02-08T13:56:25Z</time>
      </trkpt>
      <trkpt lat="49.79293" lon="2.18713">
        <ele>44.3</ele>
        <time>2023-02-08T13:56:26Z</time>
      </trkpt>
      <trkpt lat="49.79294" lon="2.18714">
        <ele>44.3</ele>
        <time>2023-02-08T13:56:27Z</time>
      </trkpt>
      <trkpt lat="49.79295" lon="2.18714">
        <ele>44.3</ele>
        <time>2023-02-08T13:56:28Z</time>
      </trkpt>
      <trkpt lat="49.79296" lon="2.18714">
        <ele>44.3</ele>
        <time>2023-02-08T13:56:29Z</time>
      </trkpt>
      <trkpt lat="49.79298" lon="2.18715">
        <ele>44.3</ele>
        <time>2023-02-08T13:56:30Z</time>
      </trkpt>
      <trkpt lat="49.79299" lon="2.18715">
        <ele>44.3</ele>
        <time>2023-02-08T13:56:31Z</time>
      </trkpt>
      <trkpt lat="49.793" lon="2.18716">
        <ele>44.3</ele>
        <time>2023-02-08T13:56:33Z</time>
      </trkpt>
      <trkpt lat="49.79302" lon="2.18717">
        <ele>44.3</ele>
        <time>2023-02-08T13:56:34Z</time>
      </trkpt>
      <trkpt lat="49.79303" lon="2.18718">
        <ele>44.3</ele>
        <time>2023-02-08T13:56:35Z</time>
      </trkpt>
      <trkpt lat="49.79304" lon="2.18719">
        <ele>44.2</ele>
        <time>2023-02-08T13:56:36Z</time>
      </trkpt>
      <trkpt lat="49.79306" lon="2.1872">
        <ele>44.2</ele>
        <time>2023-02-08T13:56:37Z</time>
      </trkpt>
      <trkpt lat="49.79307" lon="2.18721">
        <ele>44.2</ele>
        <time>2023-02-08T13:56:38Z</time>
      </trkpt>
      <trkpt lat="49.79308" lon="2.18722">
        <ele>44.2</ele>
        <time>2023-02-08T13:56:39Z</time>
      </trkpt>
      <trkpt lat="49.7931" lon="2.18723">
        <ele>44.2</ele>
        <time>2023-02-08T13:56:40Z</time>
      </trkpt>
      <trkpt lat="49.79311" lon="2.18724">
        <ele>44.2</ele>
        <time>2023-02-08T13:56:41Z</time>
      </trkpt>
      <trkpt lat="49.79312" lon="2.18725">
        <ele>44.2</ele>
        <time>2023-02-08T13:56:43Z</time>
      </trkpt>
      <trkpt lat="49.79313" lon="2.18726">
        <ele>44.2</ele>
        <time>2023-02-08T13:56:44Z</time>
      </trkpt>
      <trkpt lat="49.79314" lon="2.18727">
        <ele>44.2</ele>
        <time>2023-02-08T13:56:45Z</time>
      </trkpt>
      <trkpt lat="49.79316" lon="2.18728">
        <ele>44.2</ele>
        <time>2023-02-08T13:56:46Z</time>
      </trkpt>
      <trkpt lat="49.79317" lon="2.18729">
        <ele>44.2</ele>
        <time>2023-02-08T13:56:47Z</time>
      </trkpt>
      <trkpt lat="49.79318" lon="2.1873">
        <ele>44.2</ele>
        <time>2023-02-08T13:56:48Z</time>
      </trkpt>
      <trkpt lat="49.79319" lon="2.18731">
        <ele>44.2</ele>
        <time>2023-02-08T13:56:49Z</time>
      </trkpt>
      <trkpt lat="49.7932" lon="2.18732">
        <ele>44.2</ele>
        <time>2023-02-08T13:56:50Z</time>
      </trkpt>
      <trkpt lat="49.79321" lon="2.18733">
        <ele>44.2</ele>
        <time>2023-02-08T13:56:51Z</time>
      </trkpt>
      <trkpt lat="49.79322" lon="2.18733">
        <ele>44.2</ele>
        <time>2023-02-08T13:56:52Z</time>
      </trkpt>
      <trkpt lat="49.79323" lon="2.18734">
        <ele>44.2</ele>
        <time>2023-02-08T13:56:53Z</time>
      </trkpt>
      <trkpt lat="49.79324" lon="2.18735">
        <ele>44.2</ele>
        <time>2023-02-08T13:56:54Z</time>
      </trkpt>
      <trkpt lat="49.79325" lon="2.18735">
        <ele>44.2</ele>
        <time>2023-02-08T13:56:55Z</time>
      </trkpt>
      <trkpt lat="49.79326" lon="2.18736">
        <ele>44.2</ele>
        <time>2023-02-08T13:56:57Z</time>
      </trkpt>
      <trkpt lat="49.79326" lon="2.18737">
        <ele>44.2</ele>
        <time>2023-02-08T13:56:58Z</time>
      </trkpt>
      <trkpt lat="49.79327" lon="2.18737">
        <ele>44.2</ele>
        <time>2023-02-08T13:56:59Z</time>
      </trkpt>
      <trkpt lat="49.79328" lon="2.18738">
        <ele>44.2</ele>
        <time>2023-02-08T13:57:00Z</time>
      </trkpt>
      <trkpt lat="49.79328" lon="2.18739">
        <ele>44.2</ele>
        <time>2023-02-08T13:57:01Z</time>
      </trkpt>
      <trkpt lat="49.79329" lon="2.18739">
        <ele>44.2</ele>
        <time>2023-02-08T13:57:02Z</time>
      </trkpt>
      <trkpt lat="49.79329" lon="2.18739">
        <ele>44.2</ele>
        <time>2023-02-08T13:57:04Z</time>
      </trkpt>
      <trkpt lat="49.7933" lon="2.18739">
        <ele>44.2</ele>
        <time>2023-02-08T13:57:05Z</time>
      </trkpt>
      <trkpt lat="49.7933" lon="2.18739">
        <ele>44.2</ele>
        <time>2023-02-08T13:57:06Z</time>
      </trkpt>
      <trkpt lat="49.79331" lon="2.1874">
        <ele>44.1</ele>
        <time>2023-02-08T13:57:07Z</time>
      </trkpt>
      <trkpt lat="49.79332" lon="2.1874">
        <ele>44.1</ele>
        <time>2023-02-08T13:57:08Z</time>
      </trkpt>
      <trkpt lat="49.79332" lon="2.18741">
        <ele>44.1</ele>
        <time>2023-02-08T13:57:09Z</time>
      </trkpt>
      <trkpt lat="49.79333" lon="2.18742">
        <ele>44.1</ele>
        <time>2023-02-08T13:57:10Z</time>
      </trkpt>
      <trkpt lat="49.79334" lon="2.18743">
        <ele>44.1</ele>
        <time>2023-02-08T13:57:11Z</time>
      </trkpt>
      <trkpt lat="49.79336" lon="2.18744">
        <ele>44.1</ele>
        <time>2023-02-08T13:57:12Z</time>
      </trkpt>
      <trkpt lat="49.79337" lon="2.18745">
        <ele>44.1</ele>
        <time>2023-02-08T13:57:13Z</time>
      </trkpt>
      <trkpt lat="49.7934" lon="2.18746">
        <ele>44.1</ele>
        <time>2023-02-08T13:57:15Z</time>
      </trkpt>
      <trkpt lat="49.79341" lon="2.18747">
        <ele>44.1</ele>
        <time>2023-02-08T13:57:16Z</time>
      </trkpt>
      <trkpt lat="49.79342" lon="2.18748">
        <ele>44.1</ele>
        <time>2023-02-08T13:57:17Z</time>
      </trkpt>
      <trkpt lat="49.79344" lon="2.18748">
        <ele>44.1</ele>
        <time>2023-02-08T13:57:18Z</time>
      </trkpt>
      <trkpt lat="49.79345" lon="2.18749">
        <ele>44.1</ele>
        <time>2023-02-08T13:57:19Z</time>
      </trkpt>
      <trkpt lat="49.79347" lon="2.1875">
        <ele>44.1</ele>
        <time>2023-02-08T13:57:21Z</time>
      </trkpt>
      <trkpt lat="49.79348" lon="2.18751">
        <ele>44.1</ele>
        <time>2023-02-08T13:57:22Z</time>
      </trkpt>
      <trkpt lat="49.7935" lon="2.18752">
        <ele>44.1</ele>
        <time>2023-02-08T13:57:23Z</time>
      </trkpt>
      <trkpt lat="49.79351" lon="2.18753">
        <ele>44.1</ele>
        <time>2023-02-08T13:57:24Z</time>
      </trkpt>
      <trkpt lat="49.79353" lon="2.18754">
        <ele>44.1</ele>
        <time>2023-02-08T13:57:25Z</time>
      </trkpt>
      <trkpt lat="49.79354" lon="2.18755">
        <ele>44</ele>
        <time>2023-02-08T13:57:26Z</time>
      </trkpt>
      <trkpt lat="49.79355" lon="2.18756">
        <ele>44</ele>
        <time>2023-02-08T13:57:27Z</time>
      </trkpt>
      <trkpt lat="49.79358" lon="2.18757">
        <ele>44</ele>
        <time>2023-02-08T13:57:28Z</time>
      </trkpt>
      <trkpt lat="49.79358" lon="2.18758">
        <ele>44</ele>
        <time>2023-02-08T13:57:29Z</time>
      </trkpt>
      <trkpt lat="49.79359" lon="2.18758">
        <ele>44</ele>
        <time>2023-02-08T13:57:30Z</time>
      </trkpt>
      <trkpt lat="49.79361" lon="2.18759">
        <ele>44</ele>
        <time>2023-02-08T13:57:31Z</time>
      </trkpt>
      <trkpt lat="49.79362" lon="2.1876">
        <ele>44</ele>
        <time>2023-02-08T13:57:32Z</time>
      </trkpt>
      <trkpt lat="49.79363" lon="2.18761">
        <ele>44</ele>
        <time>2023-02-08T13:57:34Z</time>
      </trkpt>
      <trkpt lat="49.79364" lon="2.18761">
        <ele>44</ele>
        <time>2023-02-08T13:57:35Z</time>
      </trkpt>
      <trkpt lat="49.79365" lon="2.18762">
        <ele>44</ele>
        <time>2023-02-08T13:57:36Z</time>
      </trkpt>
      <trkpt lat="49.79365" lon="2.18763">
        <ele>44</ele>
        <time>2023-02-08T13:57:37Z</time>
      </trkpt>
      <trkpt lat="49.79366" lon="2.18763">
        <ele>44</ele>
        <time>2023-02-08T13:57:38Z</time>
      </trkpt>
      <trkpt lat="49.79367" lon="2.18764">
        <ele>44</ele>
        <time>2023-02-08T13:57:39Z</time>
      </trkpt>
      <trkpt lat="49.79368" lon="2.18764">
        <ele>44</ele>
        <time>2023-02-08T13:57:40Z</time>
      </trkpt>
      <trkpt lat="49.79369" lon="2.18764">
        <ele>44</ele>
        <time>2023-02-08T13:57:41Z</time>
      </trkpt>
      <trkpt lat="49.7937" lon="2.18765">
        <ele>43.9</ele>
        <time>2023-02-08T13:57:43Z</time>
      </trkpt>
      <trkpt lat="49.79371" lon="2.18765">
        <ele>43.9</ele>
        <time>2023-02-08T13:57:44Z</time>
      </trkpt>
      <trkpt lat="49.79372" lon="2.18766">
        <ele>43.9</ele>
        <time>2023-02-08T13:57:45Z</time>
      </trkpt>
      <trkpt lat="49.79374" lon="2.18767">
        <ele>43.9</ele>
        <time>2023-02-08T13:57:46Z</time>
      </trkpt>
      <trkpt lat="49.79375" lon="2.18768">
        <ele>43.9</ele>
        <time>2023-02-08T13:57:47Z</time>
      </trkpt>
      <trkpt lat="49.79376" lon="2.18769">
        <ele>43.9</ele>
        <time>2023-02-08T13:57:49Z</time>
      </trkpt>
      <trkpt lat="49.79377" lon="2.1877">
        <ele>43.9</ele>
        <time>2023-02-08T13:57:50Z</time>
      </trkpt>
      <trkpt lat="49.79378" lon="2.18771">
        <ele>43.8</ele>
        <time>2023-02-08T13:57:51Z</time>
      </trkpt>
      <trkpt lat="49.7938" lon="2.18773">
        <ele>43.8</ele>
        <time>2023-02-08T13:57:52Z</time>
      </trkpt>
      <trkpt lat="49.79381" lon="2.18774">
        <ele>43.8</ele>
        <time>2023-02-08T13:57:53Z</time>
      </trkpt>
      <trkpt lat="49.79382" lon="2.18774">
        <ele>43.8</ele>
        <time>2023-02-08T13:57:54Z</time>
      </trkpt>
      <trkpt lat="49.79384" lon="2.18776">
        <ele>43.8</ele>
        <time>2023-02-08T13:57:55Z</time>
      </trkpt>
      <trkpt lat="49.79385" lon="2.18776">
        <ele>43.8</ele>
        <time>2023-02-08T13:57:56Z</time>
      </trkpt>
      <trkpt lat="49.79386" lon="2.18777">
        <ele>43.8</ele>
        <time>2023-02-08T13:57:58Z</time>
      </trkpt>
      <trkpt lat="49.79387" lon="2.18778">
        <ele>43.8</ele>
        <time>2023-02-08T13:57:59Z</time>
      </trkpt>
      <trkpt lat="49.79388" lon="2.18778">
        <ele>43.7</ele>
        <time>2023-02-08T13:58:00Z</time>
      </trkpt>
      <trkpt lat="49.79389" lon="2.18779">
        <ele>43.7</ele>
        <time>2023-02-08T13:58:01Z</time>
      </trkpt>
      <trkpt lat="49.7939" lon="2.1878">
        <ele>43.7</ele>
        <time>2023-02-08T13:58:02Z</time>
      </trkpt>
      <trkpt lat="49.79392" lon="2.18781">
        <ele>43.7</ele>
        <time>2023-02-08T13:58:04Z</time>
      </trkpt>
      <trkpt lat="49.79395" lon="2.18784">
        <ele>43.7</ele>
        <time>2023-02-08T13:58:05Z</time>
      </trkpt>
      <trkpt lat="49.79396" lon="2.18785">
        <ele>43.7</ele>
        <time>2023-02-08T13:58:06Z</time>
      </trkpt>
      <trkpt lat="49.79399" lon="2.18788">
        <ele>43.6</ele>
        <time>2023-02-08T13:58:07Z</time>
      </trkpt>
      <trkpt lat="49.79402" lon="2.18791">
        <ele>43.6</ele>
        <time>2023-02-08T13:58:08Z</time>
      </trkpt>
      <trkpt lat="49.79403" lon="2.18792">
        <ele>43.6</ele>
        <time>2023-02-08T13:58:09Z</time>
      </trkpt>
      <trkpt lat="49.79405" lon="2.18793">
        <ele>43.6</ele>
        <time>2023-02-08T13:58:10Z</time>
      </trkpt>
      <trkpt lat="49.79406" lon="2.18794">
        <ele>43.6</ele>
        <time>2023-02-08T13:58:11Z</time>
      </trkpt>
      <trkpt lat="49.79407" lon="2.18795">
        <ele>43.6</ele>
        <time>2023-02-08T13:58:12Z</time>
      </trkpt>
      <trkpt lat="49.79409" lon="2.18796">
        <ele>43.6</ele>
        <time>2023-02-08T13:58:13Z</time>
      </trkpt>
      <trkpt lat="49.7941" lon="2.18797">
        <ele>43.6</ele>
        <time>2023-02-08T13:58:14Z</time>
      </trkpt>
      <trkpt lat="49.79411" lon="2.18798">
        <ele>43.6</ele>
        <time>2023-02-08T13:58:15Z</time>
      </trkpt>
      <trkpt lat="49.79413" lon="2.18799">
        <ele>43.5</ele>
        <time>2023-02-08T13:58:16Z</time>
      </trkpt>
      <trkpt lat="49.79415" lon="2.188">
        <ele>43.5</ele>
        <time>2023-02-08T13:58:18Z</time>
      </trkpt>
      <trkpt lat="49.79416" lon="2.18801">
        <ele>43.5</ele>
        <time>2023-02-08T13:58:19Z</time>
      </trkpt>
      <trkpt lat="49.79418" lon="2.18802">
        <ele>43.5</ele>
        <time>2023-02-08T13:58:20Z</time>
      </trkpt>
      <trkpt lat="49.79419" lon="2.18802">
        <ele>43.5</ele>
        <time>2023-02-08T13:58:21Z</time>
      </trkpt>
      <trkpt lat="49.79421" lon="2.18804">
        <ele>43.5</ele>
        <time>2023-02-08T13:58:22Z</time>
      </trkpt>
      <trkpt lat="49.79422" lon="2.18804">
        <ele>43.5</ele>
        <time>2023-02-08T13:58:24Z</time>
      </trkpt>
      <trkpt lat="49.79423" lon="2.18805">
        <ele>43.5</ele>
        <time>2023-02-08T13:58:25Z</time>
      </trkpt>
      <trkpt lat="49.79425" lon="2.18806">
        <ele>43.5</ele>
        <time>2023-02-08T13:58:26Z</time>
      </trkpt>
      <trkpt lat="49.79425" lon="2.18807">
        <ele>43.5</ele>
        <time>2023-02-08T13:58:27Z</time>
      </trkpt>
      <trkpt lat="49.79426" lon="2.18808">
        <ele>43.5</ele>
        <time>2023-02-08T13:58:28Z</time>
      </trkpt>
      <trkpt lat="49.79428" lon="2.1881">
        <ele>43.5</ele>
        <time>2023-02-08T13:58:29Z</time>
      </trkpt>
      <trkpt lat="49.79428" lon="2.18811">
        <ele>43.5</ele>
        <time>2023-02-08T13:58:31Z</time>
      </trkpt>
      <trkpt lat="49.79429" lon="2.18811">
        <ele>43.5</ele>
        <time>2023-02-08T13:58:32Z</time>
      </trkpt>
      <trkpt lat="49.79431" lon="2.18813">
        <ele>43.4</ele>
        <time>2023-02-08T13:58:33Z</time>
      </trkpt>
      <trkpt lat="49.79432" lon="2.18813">
        <ele>43.4</ele>
        <time>2023-02-08T13:58:34Z</time>
      </trkpt>
      <trkpt lat="49.79433" lon="2.18814">
        <ele>43.4</ele>
        <time>2023-02-08T13:58:35Z</time>
      </trkpt>
      <trkpt lat="49.79434" lon="2.18815">
        <ele>43.4</ele>
        <time>2023-02-08T13:58:36Z</time>
      </trkpt>
      <trkpt lat="49.79435" lon="2.18816">
        <ele>43.4</ele>
        <time>2023-02-08T13:58:37Z</time>
      </trkpt>
      <trkpt lat="49.79436" lon="2.18817">
        <ele>43.4</ele>
        <time>2023-02-08T13:58:39Z</time>
      </trkpt>
      <trkpt lat="49.79438" lon="2.18819">
        <ele>43.4</ele>
        <time>2023-02-08T13:58:40Z</time>
      </trkpt>
      <trkpt lat="49.79439" lon="2.1882">
        <ele>43.4</ele>
        <time>2023-02-08T13:58:41Z</time>
      </trkpt>
      <trkpt lat="49.79439" lon="2.18821">
        <ele>43.4</ele>
        <time>2023-02-08T13:58:42Z</time>
      </trkpt>
      <trkpt lat="49.79441" lon="2.18822">
        <ele>43.4</ele>
        <time>2023-02-08T13:58:43Z</time>
      </trkpt>
      <trkpt lat="49.79442" lon="2.18823">
        <ele>43.4</ele>
        <time>2023-02-08T13:58:44Z</time>
      </trkpt>
      <trkpt lat="49.79443" lon="2.18824">
        <ele>43.4</ele>
        <time>2023-02-08T13:58:45Z</time>
      </trkpt>
      <trkpt lat="49.79444" lon="2.18825">
        <ele>43.4</ele>
        <time>2023-02-08T13:58:46Z</time>
      </trkpt>
      <trkpt lat="49.79445" lon="2.18826">
        <ele>43.4</ele>
        <time>2023-02-08T13:58:47Z</time>
      </trkpt>
      <trkpt lat="49.79447" lon="2.18827">
        <ele>43.4</ele>
        <time>2023-02-08T13:58:48Z</time>
      </trkpt>
      <trkpt lat="49.79448" lon="2.18827">
        <ele>43.3</ele>
        <time>2023-02-08T13:58:49Z</time>
      </trkpt>
      <trkpt lat="49.79449" lon="2.18828">
        <ele>43.3</ele>
        <time>2023-02-08T13:58:50Z</time>
      </trkpt>
      <trkpt lat="49.79451" lon="2.18828">
        <ele>43.3</ele>
        <time>2023-02-08T13:58:52Z</time>
      </trkpt>
      <trkpt lat="49.79452" lon="2.18829">
        <ele>43.3</ele>
        <time>2023-02-08T13:58:53Z</time>
      </trkpt>
      <trkpt lat="49.79453" lon="2.1883">
        <ele>43.3</ele>
        <time>2023-02-08T13:58:54Z</time>
      </trkpt>
      <trkpt lat="49.79454" lon="2.1883">
        <ele>43.3</ele>
        <time>2023-02-08T13:58:55Z</time>
      </trkpt>
      <trkpt lat="49.79455" lon="2.18831">
        <ele>43.3</ele>
        <time>2023-02-08T13:58:56Z</time>
      </trkpt>
      <trkpt lat="49.79457" lon="2.18832">
        <ele>43.3</ele>
        <time>2023-02-08T13:58:58Z</time>
      </trkpt>
      <trkpt lat="49.79458" lon="2.18833">
        <ele>43.3</ele>
        <time>2023-02-08T13:58:59Z</time>
      </trkpt>
      <trkpt lat="49.7946" lon="2.18834">
        <ele>43.3</ele>
        <time>2023-02-08T13:59:00Z</time>
      </trkpt>
      <trkpt lat="49.79461" lon="2.18834">
        <ele>43.3</ele>
        <time>2023-02-08T13:59:01Z</time>
      </trkpt>
      <trkpt lat="49.79462" lon="2.18834">
        <ele>43.3</ele>
        <time>2023-02-08T13:59:02Z</time>
      </trkpt>
      <trkpt lat="49.79465" lon="2.18836">
        <ele>43.3</ele>
        <time>2023-02-08T13:59:03Z</time>
      </trkpt>
      <trkpt lat="49.79466" lon="2.18837">
        <ele>43.3</ele>
        <time>2023-02-08T13:59:05Z</time>
      </trkpt>
      <trkpt lat="49.79467" lon="2.18837">
        <ele>43.3</ele>
        <time>2023-02-08T13:59:06Z</time>
      </trkpt>
      <trkpt lat="49.79468" lon="2.18838">
        <ele>43.2</ele>
        <time>2023-02-08T13:59:07Z</time>
      </trkpt>
      <trkpt lat="49.79469" lon="2.18839">
        <ele>43.2</ele>
        <time>2023-02-08T13:59:08Z</time>
      </trkpt>
      <trkpt lat="49.7947" lon="2.18839">
        <ele>43.2</ele>
        <time>2023-02-08T13:59:09Z</time>
      </trkpt>
      <trkpt lat="49.79471" lon="2.1884">
        <ele>43.2</ele>
        <time>2023-02-08T13:59:10Z</time>
      </trkpt>
      <trkpt lat="49.79473" lon="2.1884">
        <ele>43.2</ele>
        <time>2023-02-08T13:59:11Z</time>
      </trkpt>
      <trkpt lat="49.79474" lon="2.18841">
        <ele>43.2</ele>
        <time>2023-02-08T13:59:12Z</time>
      </trkpt>
      <trkpt lat="49.79476" lon="2.18842">
        <ele>43.2</ele>
        <time>2023-02-08T13:59:14Z</time>
      </trkpt>
      <trkpt lat="49.79477" lon="2.18842">
        <ele>43.2</ele>
        <time>2023-02-08T13:59:15Z</time>
      </trkpt>
      <trkpt lat="49.79479" lon="2.18843">
        <ele>43.2</ele>
        <time>2023-02-08T13:59:16Z</time>
      </trkpt>
      <trkpt lat="49.7948" lon="2.18844">
        <ele>43.2</ele>
        <time>2023-02-08T13:59:17Z</time>
      </trkpt>
      <trkpt lat="49.79483" lon="2.18845">
        <ele>43.2</ele>
        <time>2023-02-08T13:59:18Z</time>
      </trkpt>
      <trkpt lat="49.79484" lon="2.18846">
        <ele>43.2</ele>
        <time>2023-02-08T13:59:19Z</time>
      </trkpt>
      <trkpt lat="49.79485" lon="2.18847">
        <ele>43.2</ele>
        <time>2023-02-08T13:59:20Z</time>
      </trkpt>
      <trkpt lat="49.79487" lon="2.18847">
        <ele>43.2</ele>
        <time>2023-02-08T13:59:21Z</time>
      </trkpt>
      <trkpt lat="49.79489" lon="2.18848">
        <ele>43.2</ele>
        <time>2023-02-08T13:59:23Z</time>
      </trkpt>
      <trkpt lat="49.7949" lon="2.18849">
        <ele>43.2</ele>
        <time>2023-02-08T13:59:24Z</time>
      </trkpt>
      <trkpt lat="49.79491" lon="2.1885">
        <ele>43.2</ele>
        <time>2023-02-08T13:59:25Z</time>
      </trkpt>
      <trkpt lat="49.79493" lon="2.18851">
        <ele>43.2</ele>
        <time>2023-02-08T13:59:27Z</time>
      </trkpt>
      <trkpt lat="49.79495" lon="2.18852">
        <ele>43.2</ele>
        <time>2023-02-08T13:59:28Z</time>
      </trkpt>
      <trkpt lat="49.79496" lon="2.18853">
        <ele>43.2</ele>
        <time>2023-02-08T13:59:29Z</time>
      </trkpt>
      <trkpt lat="49.79497" lon="2.18854">
        <ele>43.1</ele>
        <time>2023-02-08T13:59:30Z</time>
      </trkpt>
      <trkpt lat="49.79499" lon="2.18855">
        <ele>43.1</ele>
        <time>2023-02-08T13:59:31Z</time>
      </trkpt>
      <trkpt lat="49.79501" lon="2.18856">
        <ele>43.1</ele>
        <time>2023-02-08T13:59:32Z</time>
      </trkpt>
      <trkpt lat="49.79501" lon="2.18857">
        <ele>43.1</ele>
        <time>2023-02-08T13:59:33Z</time>
      </trkpt>
      <trkpt lat="49.79502" lon="2.18857">
        <ele>43.1</ele>
        <time>2023-02-08T13:59:34Z</time>
      </trkpt>
      <trkpt lat="49.79503" lon="2.18859">
        <ele>43.1</ele>
        <time>2023-02-08T13:59:36Z</time>
      </trkpt>
      <trkpt lat="49.79503" lon="2.1886">
        <ele>43.1</ele>
        <time>2023-02-08T13:59:37Z</time>
      </trkpt>
      <trkpt lat="49.79504" lon="2.18861">
        <ele>43.2</ele>
        <time>2023-02-08T13:59:38Z</time>
      </trkpt>
      <trkpt lat="49.79505" lon="2.18862">
        <ele>43.2</ele>
        <time>2023-02-08T13:59:39Z</time>
      </trkpt>
      <trkpt lat="49.79506" lon="2.18863">
        <ele>43.2</ele>
        <time>2023-02-08T13:59:41Z</time>
      </trkpt>
      <trkpt lat="49.79508" lon="2.18864">
        <ele>43.2</ele>
        <time>2023-02-08T13:59:42Z</time>
      </trkpt>
      <trkpt lat="49.79509" lon="2.18865">
        <ele>43.2</ele>
        <time>2023-02-08T13:59:43Z</time>
      </trkpt>
      <trkpt lat="49.7951" lon="2.18866">
        <ele>43.2</ele>
        <time>2023-02-08T13:59:44Z</time>
      </trkpt>
      <trkpt lat="49.79511" lon="2.18866">
        <ele>43.2</ele>
        <time>2023-02-08T13:59:45Z</time>
      </trkpt>
      <trkpt lat="49.79512" lon="2.18867">
        <ele>43.2</ele>
        <time>2023-02-08T13:59:46Z</time>
      </trkpt>
      <trkpt lat="49.79513" lon="2.18868">
        <ele>43.2</ele>
        <time>2023-02-08T13:59:47Z</time>
      </trkpt>
      <trkpt lat="49.79513" lon="2.18869">
        <ele>43.2</ele>
        <time>2023-02-08T13:59:48Z</time>
      </trkpt>
      <trkpt lat="49.79515" lon="2.1887">
        <ele>43.2</ele>
        <time>2023-02-08T13:59:50Z</time>
      </trkpt>
      <trkpt lat="49.79516" lon="2.18871">
        <ele>43.2</ele>
        <time>2023-02-08T13:59:51Z</time>
      </trkpt>
      <trkpt lat="49.79517" lon="2.18872">
        <ele>43.2</ele>
        <time>2023-02-08T13:59:52Z</time>
      </trkpt>
      <trkpt lat="49.79518" lon="2.18872">
        <ele>43.2</ele>
        <time>2023-02-08T13:59:53Z</time>
      </trkpt>
      <trkpt lat="49.79519" lon="2.18873">
        <ele>43.2</ele>
        <time>2023-02-08T13:59:54Z</time>
      </trkpt>
      <trkpt lat="49.7952" lon="2.18874">
        <ele>43.2</ele>
        <time>2023-02-08T13:59:56Z</time>
      </trkpt>
      <trkpt lat="49.79521" lon="2.18875">
        <ele>43.2</ele>
        <time>2023-02-08T13:59:57Z</time>
      </trkpt>
      <trkpt lat="49.79522" lon="2.18876">
        <ele>43.2</ele>
        <time>2023-02-08T13:59:58Z</time>
      </trkpt>
      <trkpt lat="49.79523" lon="2.18877">
        <ele>43.2</ele>
        <time>2023-02-08T13:59:59Z</time>
      </trkpt>
      <trkpt lat="49.79525" lon="2.18878">
        <ele>43.2</ele>
        <time>2023-02-08T14:00:00Z</time>
      </trkpt>
      <trkpt lat="49.79526" lon="2.18879">
        <ele>43.2</ele>
        <time>2023-02-08T14:00:01Z</time>
      </trkpt>
      <trkpt lat="49.79526" lon="2.1888">
        <ele>43.2</ele>
        <time>2023-02-08T14:00:02Z</time>
      </trkpt>
      <trkpt lat="49.79528" lon="2.18881">
        <ele>43.2</ele>
        <time>2023-02-08T14:00:03Z</time>
      </trkpt>
      <trkpt lat="49.79529" lon="2.18881">
        <ele>43.2</ele>
        <time>2023-02-08T14:00:04Z</time>
      </trkpt>
      <trkpt lat="49.7953" lon="2.18882">
        <ele>43.2</ele>
        <time>2023-02-08T14:00:05Z</time>
      </trkpt>
      <trkpt lat="49.79531" lon="2.18883">
        <ele>43.2</ele>
        <time>2023-02-08T14:00:06Z</time>
      </trkpt>
      <trkpt lat="49.79533" lon="2.18884">
        <ele>43.2</ele>
        <time>2023-02-08T14:00:07Z</time>
      </trkpt>
      <trkpt lat="49.79534" lon="2.18884">
        <ele>43.2</ele>
        <time>2023-02-08T14:00:09Z</time>
      </trkpt>
      <trkpt lat="49.79535" lon="2.18885">
        <ele>43.2</ele>
        <time>2023-02-08T14:00:10Z</time>
      </trkpt>
      <trkpt lat="49.79536" lon="2.18886">
        <ele>43.2</ele>
        <time>2023-02-08T14:00:11Z</time>
      </trkpt>
      <trkpt lat="49.79538" lon="2.18887">
        <ele>43.3</ele>
        <time>2023-02-08T14:00:12Z</time>
      </trkpt>
      <trkpt lat="49.79539" lon="2.18887">
        <ele>43.3</ele>
        <time>2023-02-08T14:00:13Z</time>
      </trkpt>
      <trkpt lat="49.79541" lon="2.18888">
        <ele>43.3</ele>
        <time>2023-02-08T14:00:15Z</time>
      </trkpt>
      <trkpt lat="49.79541" lon="2.18888">
        <ele>43.3</ele>
        <time>2023-02-08T14:00:16Z</time>
      </trkpt>
      <trkpt lat="49.79542" lon="2.18889">
        <ele>43.3</ele>
        <time>2023-02-08T14:00:17Z</time>
      </trkpt>
      <trkpt lat="49.79543" lon="2.18889">
        <ele>43.3</ele>
        <time>2023-02-08T14:00:18Z</time>
      </trkpt>
      <trkpt lat="49.79544" lon="2.1889">
        <ele>43.3</ele>
        <time>2023-02-08T14:00:19Z</time>
      </trkpt>
      <trkpt lat="49.79546" lon="2.18891">
        <ele>43.3</ele>
        <time>2023-02-08T14:00:20Z</time>
      </trkpt>
      <trkpt lat="49.79547" lon="2.18892">
        <ele>43.3</ele>
        <time>2023-02-08T14:00:22Z</time>
      </trkpt>
      <trkpt lat="49.79548" lon="2.18893">
        <ele>43.3</ele>
        <time>2023-02-08T14:00:23Z</time>
      </trkpt>
      <trkpt lat="49.79549" lon="2.18894">
        <ele>43.3</ele>
        <time>2023-02-08T14:00:24Z</time>
      </trkpt>
      <trkpt lat="49.7955" lon="2.18894">
        <ele>43.3</ele>
        <time>2023-02-08T14:00:25Z</time>
      </trkpt>
      <trkpt lat="49.79551" lon="2.18895">
        <ele>43.3</ele>
        <time>2023-02-08T14:00:26Z</time>
      </trkpt>
      <trkpt lat="49.79552" lon="2.18895">
        <ele>43.4</ele>
        <time>2023-02-08T14:00:27Z</time>
      </trkpt>
      <trkpt lat="49.79553" lon="2.18895">
        <ele>43.4</ele>
        <time>2023-02-08T14:00:28Z</time>
      </trkpt>
      <trkpt lat="49.79554" lon="2.18895">
        <ele>43.4</ele>
        <time>2023-02-08T14:00:29Z</time>
      </trkpt>
      <trkpt lat="49.79554" lon="2.18895">
        <ele>43.4</ele>
        <time>2023-02-08T14:00:30Z</time>
      </trkpt>
      <trkpt lat="49.79555" lon="2.18895">
        <ele>43.4</ele>
        <time>2023-02-08T14:00:31Z</time>
      </trkpt>
      <trkpt lat="49.79556" lon="2.18895">
        <ele>43.4</ele>
        <time>2023-02-08T14:00:32Z</time>
      </trkpt>
      <trkpt lat="49.79557" lon="2.18895">
        <ele>43.4</ele>
        <time>2023-02-08T14:00:33Z</time>
      </trkpt>
      <trkpt lat="49.79558" lon="2.18895">
        <ele>43.4</ele>
        <time>2023-02-08T14:00:35Z</time>
      </trkpt>
      <trkpt lat="49.79558" lon="2.18896">
        <ele>43.4</ele>
        <time>2023-02-08T14:00:36Z</time>
      </trkpt>
      <trkpt lat="49.79559" lon="2.18896">
        <ele>43.4</ele>
        <time>2023-02-08T14:00:37Z</time>
      </trkpt>
      <trkpt lat="49.7956" lon="2.18897">
        <ele>43.4</ele>
        <time>2023-02-08T14:00:38Z</time>
      </trkpt>
      <trkpt lat="49.79561" lon="2.18898">
        <ele>43.4</ele>
        <time>2023-02-08T14:00:39Z</time>
      </trkpt>
      <trkpt lat="49.79562" lon="2.18898">
        <ele>43.5</ele>
        <time>2023-02-08T14:00:40Z</time>
      </trkpt>
      <trkpt lat="49.79563" lon="2.18899">
        <ele>43.5</ele>
        <time>2023-02-08T14:00:41Z</time>
      </trkpt>
      <trkpt lat="49.79564" lon="2.18899">
        <ele>43.5</ele>
        <time>2023-02-08T14:00:42Z</time>
      </trkpt>
      <trkpt lat="49.79565" lon="2.189">
        <ele>43.5</ele>
        <time>2023-02-08T14:00:43Z</time>
      </trkpt>
      <trkpt lat="49.79566" lon="2.18901">
        <ele>43.5</ele>
        <time>2023-02-08T14:00:44Z</time>
      </trkpt>
      <trkpt lat="49.79567" lon="2.18901">
        <ele>43.5</ele>
        <time>2023-02-08T14:00:45Z</time>
      </trkpt>
      <trkpt lat="49.79568" lon="2.18902">
        <ele>43.5</ele>
        <time>2023-02-08T14:00:47Z</time>
      </trkpt>
      <trkpt lat="49.7957" lon="2.18903">
        <ele>43.5</ele>
        <time>2023-02-08T14:00:48Z</time>
      </trkpt>
      <trkpt lat="49.79571" lon="2.18904">
        <ele>43.5</ele>
        <time>2023-02-08T14:00:49Z</time>
      </trkpt>
      <trkpt lat="49.79573" lon="2.18905">
        <ele>43.6</ele>
        <time>2023-02-08T14:00:50Z</time>
      </trkpt>
      <trkpt lat="49.79574" lon="2.18906">
        <ele>43.6</ele>
        <time>2023-02-08T14:00:51Z</time>
      </trkpt>
      <trkpt lat="49.79575" lon="2.18907">
        <ele>43.6</ele>
        <time>2023-02-08T14:00:52Z</time>
      </trkpt>
      <trkpt lat="49.79576" lon="2.18908">
        <ele>43.6</ele>
        <time>2023-02-08T14:00:54Z</time>
      </trkpt>
      <trkpt lat="49.79578" lon="2.18909">
        <ele>43.6</ele>
        <time>2023-02-08T14:00:55Z</time>
      </trkpt>
      <trkpt lat="49.79579" lon="2.1891">
        <ele>43.6</ele>
        <time>2023-02-08T14:00:56Z</time>
      </trkpt>
      <trkpt lat="49.79581" lon="2.18912">
        <ele>43.6</ele>
        <time>2023-02-08T14:00:57Z</time>
      </trkpt>
      <trkpt lat="49.79582" lon="2.18913">
        <ele>43.7</ele>
        <time>2023-02-08T14:00:58Z</time>
      </trkpt>
      <trkpt lat="49.79584" lon="2.18915">
        <ele>43.7</ele>
        <time>2023-02-08T14:01:00Z</time>
      </trkpt>
      <trkpt lat="49.79585" lon="2.18915">
        <ele>43.7</ele>
        <time>2023-02-08T14:01:01Z</time>
      </trkpt>
      <trkpt lat="49.79585" lon="2.18916">
        <ele>43.7</ele>
        <time>2023-02-08T14:01:02Z</time>
      </trkpt>
      <trkpt lat="49.79587" lon="2.18917">
        <ele>43.7</ele>
        <time>2023-02-08T14:01:03Z</time>
      </trkpt>
      <trkpt lat="49.79588" lon="2.18918">
        <ele>43.7</ele>
        <time>2023-02-08T14:01:04Z</time>
      </trkpt>
      <trkpt lat="49.79589" lon="2.18918">
        <ele>43.7</ele>
        <time>2023-02-08T14:01:05Z</time>
      </trkpt>
      <trkpt lat="49.79589" lon="2.18919">
        <ele>43.7</ele>
        <time>2023-02-08T14:01:06Z</time>
      </trkpt>
      <trkpt lat="49.79591" lon="2.1892">
        <ele>43.7</ele>
        <time>2023-02-08T14:01:07Z</time>
      </trkpt>
      <trkpt lat="49.79592" lon="2.1892">
        <ele>43.8</ele>
        <time>2023-02-08T14:01:08Z</time>
      </trkpt>
      <trkpt lat="49.79593" lon="2.18921">
        <ele>43.8</ele>
        <time>2023-02-08T14:01:09Z</time>
      </trkpt>
      <trkpt lat="49.79594" lon="2.18922">
        <ele>43.8</ele>
        <time>2023-02-08T14:01:10Z</time>
      </trkpt>
      <trkpt lat="49.79596" lon="2.18923">
        <ele>43.8</ele>
        <time>2023-02-08T14:01:12Z</time>
      </trkpt>
      <trkpt lat="49.79597" lon="2.18923">
        <ele>43.8</ele>
        <time>2023-02-08T14:01:13Z</time>
      </trkpt>
      <trkpt lat="49.79598" lon="2.18924">
        <ele>43.8</ele>
        <time>2023-02-08T14:01:14Z</time>
      </trkpt>
      <trkpt lat="49.796" lon="2.18925">
        <ele>43.8</ele>
        <time>2023-02-08T14:01:15Z</time>
      </trkpt>
      <trkpt lat="49.796" lon="2.18925">
        <ele>43.8</ele>
        <time>2023-02-08T14:01:16Z</time>
      </trkpt>
      <trkpt lat="49.79601" lon="2.18926">
        <ele>43.8</ele>
        <time>2023-02-08T14:01:17Z</time>
      </trkpt>
      <trkpt lat="49.79602" lon="2.18926">
        <ele>43.8</ele>
        <time>2023-02-08T14:01:18Z</time>
      </trkpt>
      <trkpt lat="49.79603" lon="2.18927">
        <ele>43.9</ele>
        <time>2023-02-08T14:01:19Z</time>
      </trkpt>
      <trkpt lat="49.79604" lon="2.18928">
        <ele>43.9</ele>
        <time>2023-02-08T14:01:20Z</time>
      </trkpt>
      <trkpt lat="49.79607" lon="2.18929">
        <ele>43.9</ele>
        <time>2023-02-08T14:01:21Z</time>
      </trkpt>
      <trkpt lat="49.79608" lon="2.1893">
        <ele>43.9</ele>
        <time>2023-02-08T14:01:23Z</time>
      </trkpt>
      <trkpt lat="49.79609" lon="2.1893">
        <ele>43.9</ele>
        <time>2023-02-08T14:01:24Z</time>
      </trkpt>
      <trkpt lat="49.7961" lon="2.18931">
        <ele>43.9</ele>
        <time>2023-02-08T14:01:25Z</time>
      </trkpt>
      <trkpt lat="49.79611" lon="2.18931">
        <ele>43.9</ele>
        <time>2023-02-08T14:01:26Z</time>
      </trkpt>
      <trkpt lat="49.79614" lon="2.18933">
        <ele>44</ele>
        <time>2023-02-08T14:01:27Z</time>
      </trkpt>
      <trkpt lat="49.79615" lon="2.18933">
        <ele>44</ele>
        <time>2023-02-08T14:01:29Z</time>
      </trkpt>
      <trkpt lat="49.79616" lon="2.18934">
        <ele>44</ele>
        <time>2023-02-08T14:01:30Z</time>
      </trkpt>
      <trkpt lat="49.79617" lon="2.18934">
        <ele>44</ele>
        <time>2023-02-08T14:01:31Z</time>
      </trkpt>
      <trkpt lat="49.79618" lon="2.18935">
        <ele>44</ele>
        <time>2023-02-08T14:01:32Z</time>
      </trkpt>
      <trkpt lat="49.7962" lon="2.18936">
        <ele>44</ele>
        <time>2023-02-08T14:01:33Z</time>
      </trkpt>
      <trkpt lat="49.79621" lon="2.18937">
        <ele>44</ele>
        <time>2023-02-08T14:01:34Z</time>
      </trkpt>
      <trkpt lat="49.79622" lon="2.18938">
        <ele>44.1</ele>
        <time>2023-02-08T14:01:35Z</time>
      </trkpt>
      <trkpt lat="49.79624" lon="2.18939">
        <ele>44.1</ele>
        <time>2023-02-08T14:01:36Z</time>
      </trkpt>
      <trkpt lat="49.79626" lon="2.1894">
        <ele>44.1</ele>
        <time>2023-02-08T14:01:37Z</time>
      </trkpt>
      <trkpt lat="49.79627" lon="2.18941">
        <ele>44.1</ele>
        <time>2023-02-08T14:01:38Z</time>
      </trkpt>
      <trkpt lat="49.79628" lon="2.18942">
        <ele>44.1</ele>
        <time>2023-02-08T14:01:40Z</time>
      </trkpt>
      <trkpt lat="49.79629" lon="2.18943">
        <ele>44.2</ele>
        <time>2023-02-08T14:01:41Z</time>
      </trkpt>
      <trkpt lat="49.79631" lon="2.18944">
        <ele>44.2</ele>
        <time>2023-02-08T14:01:42Z</time>
      </trkpt>
      <trkpt lat="49.79632" lon="2.18946">
        <ele>44.2</ele>
        <time>2023-02-08T14:01:43Z</time>
      </trkpt>
      <trkpt lat="49.79633" lon="2.18947">
        <ele>44.2</ele>
        <time>2023-02-08T14:01:44Z</time>
      </trkpt>
      <trkpt lat="49.79635" lon="2.18948">
        <ele>44.2</ele>
        <time>2023-02-08T14:01:45Z</time>
      </trkpt>
      <trkpt lat="49.79636" lon="2.18949">
        <ele>44.2</ele>
        <time>2023-02-08T14:01:46Z</time>
      </trkpt>
      <trkpt lat="49.79637" lon="2.1895">
        <ele>44.3</ele>
        <time>2023-02-08T14:01:47Z</time>
      </trkpt>
      <trkpt lat="49.79638" lon="2.18951">
        <ele>44.3</ele>
        <time>2023-02-08T14:01:49Z</time>
      </trkpt>
      <trkpt lat="49.79639" lon="2.18951">
        <ele>44.3</ele>
        <time>2023-02-08T14:01:50Z</time>
      </trkpt>
      <trkpt lat="49.79641" lon="2.18952">
        <ele>44.3</ele>
        <time>2023-02-08T14:01:51Z</time>
      </trkpt>
      <trkpt lat="49.79643" lon="2.18953">
        <ele>44.3</ele>
        <time>2023-02-08T14:01:52Z</time>
      </trkpt>
      <trkpt lat="49.79643" lon="2.18953">
        <ele>44.3</ele>
        <time>2023-02-08T14:01:53Z</time>
      </trkpt>
      <trkpt lat="49.79644" lon="2.18953">
        <ele>44.3</ele>
        <time>2023-02-08T14:01:54Z</time>
      </trkpt>
      <trkpt lat="49.79646" lon="2.18955">
        <ele>44.3</ele>
        <time>2023-02-08T14:01:55Z</time>
      </trkpt>
      <trkpt lat="49.79647" lon="2.18955">
        <ele>44.3</ele>
        <time>2023-02-08T14:01:57Z</time>
      </trkpt>
      <trkpt lat="49.79647" lon="2.18956">
        <ele>44.3</ele>
        <time>2023-02-08T14:01:58Z</time>
      </trkpt>
      <trkpt lat="49.79649" lon="2.18957">
        <ele>44.3</ele>
        <time>2023-02-08T14:01:59Z</time>
      </trkpt>
      <trkpt lat="49.7965" lon="2.18957">
        <ele>44.3</ele>
        <time>2023-02-08T14:02:00Z</time>
      </trkpt>
      <trkpt lat="49.79652" lon="2.18958">
        <ele>44.4</ele>
        <time>2023-02-08T14:02:01Z</time>
      </trkpt>
      <trkpt lat="49.79653" lon="2.18959">
        <ele>44.4</ele>
        <time>2023-02-08T14:02:02Z</time>
      </trkpt>
      <trkpt lat="49.79654" lon="2.18959">
        <ele>44.4</ele>
        <time>2023-02-08T14:02:04Z</time>
      </trkpt>
      <trkpt lat="49.79656" lon="2.1896">
        <ele>44.4</ele>
        <time>2023-02-08T14:02:05Z</time>
      </trkpt>
      <trkpt lat="49.79657" lon="2.1896">
        <ele>44.4</ele>
        <time>2023-02-08T14:02:06Z</time>
      </trkpt>
      <trkpt lat="49.79658" lon="2.18961">
        <ele>44.4</ele>
        <time>2023-02-08T14:02:07Z</time>
      </trkpt>
      <trkpt lat="49.7966" lon="2.18962">
        <ele>44.4</ele>
        <time>2023-02-08T14:02:08Z</time>
      </trkpt>
      <trkpt lat="49.79661" lon="2.18963">
        <ele>44.4</ele>
        <time>2023-02-08T14:02:09Z</time>
      </trkpt>
      <trkpt lat="49.79662" lon="2.18963">
        <ele>44.4</ele>
        <time>2023-02-08T14:02:10Z</time>
      </trkpt>
      <trkpt lat="49.79663" lon="2.18964">
        <ele>44.5</ele>
        <time>2023-02-08T14:02:11Z</time>
      </trkpt>
      <trkpt lat="49.79664" lon="2.18964">
        <ele>44.5</ele>
        <time>2023-02-08T14:02:12Z</time>
      </trkpt>
      <trkpt lat="49.79665" lon="2.18966">
        <ele>44.5</ele>
        <time>2023-02-08T14:02:14Z</time>
      </trkpt>
      <trkpt lat="49.79668" lon="2.18969">
        <ele>44.5</ele>
        <time>2023-02-08T14:02:15Z</time>
      </trkpt>
      <trkpt lat="49.79668" lon="2.18969">
        <ele>44.5</ele>
        <time>2023-02-08T14:02:16Z</time>
      </trkpt>
      <trkpt lat="49.79669" lon="2.18971">
        <ele>44.5</ele>
        <time>2023-02-08T14:02:17Z</time>
      </trkpt>
      <trkpt lat="49.79671" lon="2.18972">
        <ele>44.6</ele>
        <time>2023-02-08T14:02:18Z</time>
      </trkpt>
      <trkpt lat="49.79672" lon="2.18974">
        <ele>44.6</ele>
        <time>2023-02-08T14:02:19Z</time>
      </trkpt>
      <trkpt lat="49.79673" lon="2.18975">
        <ele>44.6</ele>
        <time>2023-02-08T14:02:20Z</time>
      </trkpt>
      <trkpt lat="49.79675" lon="2.18976">
        <ele>44.6</ele>
        <time>2023-02-08T14:02:21Z</time>
      </trkpt>
      <trkpt lat="49.79676" lon="2.18978">
        <ele>44.7</ele>
        <time>2023-02-08T14:02:22Z</time>
      </trkpt>
      <trkpt lat="49.79677" lon="2.18979">
        <ele>44.7</ele>
        <time>2023-02-08T14:02:23Z</time>
      </trkpt>
      <trkpt lat="49.79678" lon="2.1898">
        <ele>44.7</ele>
        <time>2023-02-08T14:02:25Z</time>
      </trkpt>
      <trkpt lat="49.79679" lon="2.18981">
        <ele>44.7</ele>
        <time>2023-02-08T14:02:26Z</time>
      </trkpt>
      <trkpt lat="49.79681" lon="2.18982">
        <ele>44.7</ele>
        <time>2023-02-08T14:02:27Z</time>
      </trkpt>
      <trkpt lat="49.79682" lon="2.18983">
        <ele>44.8</ele>
        <time>2023-02-08T14:02:28Z</time>
      </trkpt>
      <trkpt lat="49.79683" lon="2.18985">
        <ele>44.8</ele>
        <time>2023-02-08T14:02:29Z</time>
      </trkpt>
      <trkpt lat="49.79684" lon="2.18986">
        <ele>44.8</ele>
        <time>2023-02-08T14:02:30Z</time>
      </trkpt>
      <trkpt lat="49.79686" lon="2.18987">
        <ele>44.8</ele>
        <time>2023-02-08T14:02:31Z</time>
      </trkpt>
      <trkpt lat="49.79687" lon="2.18988">
        <ele>44.8</ele>
        <time>2023-02-08T14:02:32Z</time>
      </trkpt>
      <trkpt lat="49.79688" lon="2.18988">
        <ele>44.8</ele>
        <time>2023-02-08T14:02:33Z</time>
      </trkpt>
      <trkpt lat="49.79689" lon="2.18989">
        <ele>44.9</ele>
        <time>2023-02-08T14:02:35Z</time>
      </trkpt>
      <trkpt lat="49.79691" lon="2.18991">
        <ele>44.9</ele>
        <time>2023-02-08T14:02:36Z</time>
      </trkpt>
      <trkpt lat="49.79692" lon="2.18991">
        <ele>44.9</ele>
        <time>2023-02-08T14:02:37Z</time>
      </trkpt>
      <trkpt lat="49.79694" lon="2.18992">
        <ele>44.9</ele>
        <time>2023-02-08T14:02:38Z</time>
      </trkpt>
      <trkpt lat="49.79695" lon="2.18993">
        <ele>44.9</ele>
        <time>2023-02-08T14:02:39Z</time>
      </trkpt>
      <trkpt lat="49.79696" lon="2.18994">
        <ele>44.9</ele>
        <time>2023-02-08T14:02:41Z</time>
      </trkpt>
      <trkpt lat="49.79697" lon="2.18994">
        <ele>44.9</ele>
        <time>2023-02-08T14:02:42Z</time>
      </trkpt>
      <trkpt lat="49.79698" lon="2.18995">
        <ele>45</ele>
        <time>2023-02-08T14:02:43Z</time>
      </trkpt>
      <trkpt lat="49.797" lon="2.18996">
        <ele>45</ele>
        <time>2023-02-08T14:02:44Z</time>
      </trkpt>
      <trkpt lat="49.79701" lon="2.18997">
        <ele>45</ele>
        <time>2023-02-08T14:02:45Z</time>
      </trkpt>
      <trkpt lat="49.79702" lon="2.18997">
        <ele>45</ele>
        <time>2023-02-08T14:02:46Z</time>
      </trkpt>
      <trkpt lat="49.79703" lon="2.18998">
        <ele>45</ele>
        <time>2023-02-08T14:02:47Z</time>
      </trkpt>
      <trkpt lat="49.79705" lon="2.18999">
        <ele>45</ele>
        <time>2023-02-08T14:02:48Z</time>
      </trkpt>
      <trkpt lat="49.79707" lon="2.19">
        <ele>45</ele>
        <time>2023-02-08T14:02:49Z</time>
      </trkpt>
      <trkpt lat="49.79708" lon="2.19">
        <ele>45</ele>
        <time>2023-02-08T14:02:51Z</time>
      </trkpt>
      <trkpt lat="49.79709" lon="2.19001">
        <ele>45</ele>
        <time>2023-02-08T14:02:52Z</time>
      </trkpt>
      <trkpt lat="49.79711" lon="2.19003">
        <ele>45.1</ele>
        <time>2023-02-08T14:02:53Z</time>
      </trkpt>
      <trkpt lat="49.79711" lon="2.19003">
        <ele>45.1</ele>
        <time>2023-02-08T14:02:54Z</time>
      </trkpt>
      <trkpt lat="49.79712" lon="2.19004">
        <ele>45.1</ele>
        <time>2023-02-08T14:02:55Z</time>
      </trkpt>
      <trkpt lat="49.79714" lon="2.19006">
        <ele>45.1</ele>
        <time>2023-02-08T14:02:57Z</time>
      </trkpt>
      <trkpt lat="49.79715" lon="2.19006">
        <ele>45.1</ele>
        <time>2023-02-08T14:02:58Z</time>
      </trkpt>
      <trkpt lat="49.79715" lon="2.19007">
        <ele>45.1</ele>
        <time>2023-02-08T14:02:59Z</time>
      </trkpt>
      <trkpt lat="49.79717" lon="2.19008">
        <ele>45.1</ele>
        <time>2023-02-08T14:03:00Z</time>
      </trkpt>
      <trkpt lat="49.79718" lon="2.19009">
        <ele>45.1</ele>
        <time>2023-02-08T14:03:01Z</time>
      </trkpt>
      <trkpt lat="49.79719" lon="2.19009">
        <ele>45.1</ele>
        <time>2023-02-08T14:03:02Z</time>
      </trkpt>
      <trkpt lat="49.79721" lon="2.19011">
        <ele>45.2</ele>
        <time>2023-02-08T14:03:03Z</time>
      </trkpt>
      <trkpt lat="49.79722" lon="2.19011">
        <ele>45.2</ele>
        <time>2023-02-08T14:03:04Z</time>
      </trkpt>
      <trkpt lat="49.79722" lon="2.19012">
        <ele>45.2</ele>
        <time>2023-02-08T14:03:05Z</time>
      </trkpt>
      <trkpt lat="49.79724" lon="2.19013">
        <ele>45.2</ele>
        <time>2023-02-08T14:03:06Z</time>
      </trkpt>
      <trkpt lat="49.79725" lon="2.19014">
        <ele>45.2</ele>
        <time>2023-02-08T14:03:08Z</time>
      </trkpt>
      <trkpt lat="49.79726" lon="2.19016">
        <ele>45.2</ele>
        <time>2023-02-08T14:03:09Z</time>
      </trkpt>
      <trkpt lat="49.79728" lon="2.19017">
        <ele>45.2</ele>
        <time>2023-02-08T14:03:10Z</time>
      </trkpt>
      <trkpt lat="49.79729" lon="2.19019">
        <ele>45.3</ele>
        <time>2023-02-08T14:03:11Z</time>
      </trkpt>
      <trkpt lat="49.7973" lon="2.19021">
        <ele>45.3</ele>
        <time>2023-02-08T14:03:12Z</time>
      </trkpt>
      <trkpt lat="49.79731" lon="2.19023">
        <ele>45.3</ele>
        <time>2023-02-08T14:03:13Z</time>
      </trkpt>
      <trkpt lat="49.79732" lon="2.19024">
        <ele>45.3</ele>
        <time>2023-02-08T14:03:15Z</time>
      </trkpt>
      <trkpt lat="49.79733" lon="2.19025">
        <ele>45.3</ele>
        <time>2023-02-08T14:03:16Z</time>
      </trkpt>
      <trkpt lat="49.79734" lon="2.19027">
        <ele>45.3</ele>
        <time>2023-02-08T14:03:17Z</time>
      </trkpt>
      <trkpt lat="49.79735" lon="2.19028">
        <ele>45.3</ele>
        <time>2023-02-08T14:03:18Z</time>
      </trkpt>
      <trkpt lat="49.79736" lon="2.19028">
        <ele>45.3</ele>
        <time>2023-02-08T14:03:19Z</time>
      </trkpt>
      <trkpt lat="49.79736" lon="2.19029">
        <ele>45.3</ele>
        <time>2023-02-08T14:03:20Z</time>
      </trkpt>
      <trkpt lat="49.79737" lon="2.1903">
        <ele>45.4</ele>
        <time>2023-02-08T14:03:21Z</time>
      </trkpt>
      <trkpt lat="49.79738" lon="2.19032">
        <ele>45.4</ele>
        <time>2023-02-08T14:03:23Z</time>
      </trkpt>
      <trkpt lat="49.79738" lon="2.19033">
        <ele>45.4</ele>
        <time>2023-02-08T14:03:24Z</time>
      </trkpt>
      <trkpt lat="49.79739" lon="2.19034">
        <ele>45.4</ele>
        <time>2023-02-08T14:03:25Z</time>
      </trkpt>
      <trkpt lat="49.79739" lon="2.19035">
        <ele>45.4</ele>
        <time>2023-02-08T14:03:26Z</time>
      </trkpt>
      <trkpt lat="49.7974" lon="2.19036">
        <ele>45.4</ele>
        <time>2023-02-08T14:03:27Z</time>
      </trkpt>
      <trkpt lat="49.79741" lon="2.19037">
        <ele>45.4</ele>
        <time>2023-02-08T14:03:28Z</time>
      </trkpt>
      <trkpt lat="49.79742" lon="2.19038">
        <ele>45.4</ele>
        <time>2023-02-08T14:03:29Z</time>
      </trkpt>
      <trkpt lat="49.79743" lon="2.19038">
        <ele>45.4</ele>
        <time>2023-02-08T14:03:31Z</time>
      </trkpt>
      <trkpt lat="49.79744" lon="2.19039">
        <ele>45.4</ele>
        <time>2023-02-08T14:03:32Z</time>
      </trkpt>
      <trkpt lat="49.79745" lon="2.1904">
        <ele>45.5</ele>
        <time>2023-02-08T14:03:33Z</time>
      </trkpt>
      <trkpt lat="49.79746" lon="2.19041">
        <ele>45.5</ele>
        <time>2023-02-08T14:03:34Z</time>
      </trkpt>
      <trkpt lat="49.79747" lon="2.19041">
        <ele>45.5</ele>
        <time>2023-02-08T14:03:35Z</time>
      </trkpt>
      <trkpt lat="49.79748" lon="2.19042">
        <ele>45.5</ele>
        <time>2023-02-08T14:03:36Z</time>
      </trkpt>
      <trkpt lat="49.79748" lon="2.19042">
        <ele>45.5</ele>
        <time>2023-02-08T14:03:37Z</time>
      </trkpt>
      <trkpt lat="49.79749" lon="2.19043">
        <ele>45.5</ele>
        <time>2023-02-08T14:03:38Z</time>
      </trkpt>
      <trkpt lat="49.7975" lon="2.19043">
        <ele>45.5</ele>
        <time>2023-02-08T14:03:39Z</time>
      </trkpt>
      <trkpt lat="49.79751" lon="2.19044">
        <ele>45.5</ele>
        <time>2023-02-08T14:03:40Z</time>
      </trkpt>
      <trkpt lat="49.79752" lon="2.19045">
        <ele>45.6</ele>
        <time>2023-02-08T14:03:42Z</time>
      </trkpt>
      <trkpt lat="49.79753" lon="2.19046">
        <ele>45.6</ele>
        <time>2023-02-08T14:03:43Z</time>
      </trkpt>
      <trkpt lat="49.79754" lon="2.19048">
        <ele>45.6</ele>
        <time>2023-02-08T14:03:44Z</time>
      </trkpt>
      <trkpt lat="49.79756" lon="2.19049">
        <ele>45.6</ele>
        <time>2023-02-08T14:03:45Z</time>
      </trkpt>
      <trkpt lat="49.79756" lon="2.1905">
        <ele>45.6</ele>
        <time>2023-02-08T14:03:46Z</time>
      </trkpt>
      <trkpt lat="49.79757" lon="2.19051">
        <ele>45.6</ele>
        <time>2023-02-08T14:03:47Z</time>
      </trkpt>
      <trkpt lat="49.79758" lon="2.19052">
        <ele>45.7</ele>
        <time>2023-02-08T14:03:48Z</time>
      </trkpt>
      <trkpt lat="49.79759" lon="2.19053">
        <ele>45.7</ele>
        <time>2023-02-08T14:03:49Z</time>
      </trkpt>
      <trkpt lat="49.7976" lon="2.19054">
        <ele>45.7</ele>
        <time>2023-02-08T14:03:50Z</time>
      </trkpt>
      <trkpt lat="49.79761" lon="2.19055">
        <ele>45.7</ele>
        <time>2023-02-08T14:03:51Z</time>
      </trkpt>
      <trkpt lat="49.79761" lon="2.19056">
        <ele>45.7</ele>
        <time>2023-02-08T14:03:53Z</time>
      </trkpt>
      <trkpt lat="49.79762" lon="2.19057">
        <ele>45.7</ele>
        <time>2023-02-08T14:03:54Z</time>
      </trkpt>
      <trkpt lat="49.79763" lon="2.19058">
        <ele>45.7</ele>
        <time>2023-02-08T14:03:55Z</time>
      </trkpt>
      <trkpt lat="49.79763" lon="2.19058">
        <ele>45.7</ele>
        <time>2023-02-08T14:03:56Z</time>
      </trkpt>
      <trkpt lat="49.79764" lon="2.19059">
        <ele>45.8</ele>
        <time>2023-02-08T14:03:58Z</time>
      </trkpt>
      <trkpt lat="49.79765" lon="2.1906">
        <ele>45.8</ele>
        <time>2023-02-08T14:03:59Z</time>
      </trkpt>
      <trkpt lat="49.79766" lon="2.1906">
        <ele>45.8</ele>
        <time>2023-02-08T14:04:00Z</time>
      </trkpt>
      <trkpt lat="49.79767" lon="2.19061">
        <ele>45.8</ele>
        <time>2023-02-08T14:04:01Z</time>
      </trkpt>
      <trkpt lat="49.79768" lon="2.19062">
        <ele>45.8</ele>
        <time>2023-02-08T14:04:02Z</time>
      </trkpt>
      <trkpt lat="49.79769" lon="2.19063">
        <ele>45.8</ele>
        <time>2023-02-08T14:04:03Z</time>
      </trkpt>
      <trkpt lat="49.7977" lon="2.19064">
        <ele>45.9</ele>
        <time>2023-02-08T14:04:05Z</time>
      </trkpt>
      <trkpt lat="49.79771" lon="2.19065">
        <ele>45.9</ele>
        <time>2023-02-08T14:04:06Z</time>
      </trkpt>
      <trkpt lat="49.79773" lon="2.19066">
        <ele>45.9</ele>
        <time>2023-02-08T14:04:07Z</time>
      </trkpt>
      <trkpt lat="49.79774" lon="2.19067">
        <ele>45.9</ele>
        <time>2023-02-08T14:04:08Z</time>
      </trkpt>
      <trkpt lat="49.79775" lon="2.19067">
        <ele>45.9</ele>
        <time>2023-02-08T14:04:09Z</time>
      </trkpt>
      <trkpt lat="49.79775" lon="2.19068">
        <ele>45.9</ele>
        <time>2023-02-08T14:04:10Z</time>
      </trkpt>
      <trkpt lat="49.79776" lon="2.19069">
        <ele>45.9</ele>
        <time>2023-02-08T14:04:12Z</time>
      </trkpt>
      <trkpt lat="49.79777" lon="2.1907">
        <ele>46</ele>
        <time>2023-02-08T14:04:13Z</time>
      </trkpt>
      <trkpt lat="49.79778" lon="2.19071">
        <ele>46</ele>
        <time>2023-02-08T14:04:14Z</time>
      </trkpt>
      <trkpt lat="49.79779" lon="2.19071">
        <ele>46</ele>
        <time>2023-02-08T14:04:15Z</time>
      </trkpt>
      <trkpt lat="49.7978" lon="2.19072">
        <ele>46</ele>
        <time>2023-02-08T14:04:16Z</time>
      </trkpt>
      <trkpt lat="49.79781" lon="2.19071">
        <ele>46</ele>
        <time>2023-02-08T14:04:18Z</time>
      </trkpt>
      <trkpt lat="49.79781" lon="2.19071">
        <ele>47.8</ele>
        <time>2023-02-08T14:04:19Z</time>
      </trkpt>
      <trkpt lat="49.79781" lon="2.19069">
        <ele>47.8</ele>
        <time>2023-02-08T14:04:20Z</time>
      </trkpt>
      <trkpt lat="49.7978" lon="2.19068">
        <ele>47.8</ele>
        <time>2023-02-08T14:04:21Z</time>
      </trkpt>
      <trkpt lat="49.7978" lon="2.19066">
        <ele>47.8</ele>
        <time>2023-02-08T14:04:23Z</time>
      </trkpt>
      <trkpt lat="49.7978" lon="2.19065">
        <ele>47.7</ele>
        <time>2023-02-08T14:04:24Z</time>
      </trkpt>
      <trkpt lat="49.79781" lon="2.19065">
        <ele>47.7</ele>
        <time>2023-02-08T14:04:25Z</time>
      </trkpt>
      <trkpt lat="49.79782" lon="2.19064">
        <ele>47.7</ele>
        <time>2023-02-08T14:04:27Z</time>
      </trkpt>
      <trkpt lat="49.79782" lon="2.19063">
        <ele>47.7</ele>
        <time>2023-02-08T14:04:28Z</time>
      </trkpt>
      <trkpt lat="49.79783" lon="2.19062">
        <ele>47.7</ele>
        <time>2023-02-08T14:04:29Z</time>
      </trkpt>
      <trkpt lat="49.79783" lon="2.19061">
        <ele>47.7</ele>
        <time>2023-02-08T14:04:30Z</time>
      </trkpt>
      <trkpt lat="49.79783" lon="2.1906">
        <ele>47.7</ele>
        <time>2023-02-08T14:04:31Z</time>
      </trkpt>
      <trkpt lat="49.79783" lon="2.19058">
        <ele>47.7</ele>
        <time>2023-02-08T14:04:32Z</time>
      </trkpt>
      <trkpt lat="49.79783" lon="2.19058">
        <ele>47.7</ele>
        <time>2023-02-08T14:04:33Z</time>
      </trkpt>
      <trkpt lat="49.79784" lon="2.19056">
        <ele>47.7</ele>
        <time>2023-02-08T14:04:35Z</time>
      </trkpt>
      <trkpt lat="49.79784" lon="2.19056">
        <ele>47.7</ele>
        <time>2023-02-08T14:04:36Z</time>
      </trkpt>
      <trkpt lat="49.79785" lon="2.19056">
        <ele>47.8</ele>
        <time>2023-02-08T14:04:37Z</time>
      </trkpt>
      <trkpt lat="49.79786" lon="2.19056">
        <ele>47.8</ele>
        <time>2023-02-08T14:04:38Z</time>
      </trkpt>
      <trkpt lat="49.79786" lon="2.19057">
        <ele>47.8</ele>
        <time>2023-02-08T14:04:39Z</time>
      </trkpt>
      <trkpt lat="49.79787" lon="2.19058">
        <ele>47.8</ele>
        <time>2023-02-08T14:04:40Z</time>
      </trkpt>
      <trkpt lat="49.79787" lon="2.1906">
        <ele>47.8</ele>
        <time>2023-02-08T14:04:41Z</time>
      </trkpt>
      <trkpt lat="49.79787" lon="2.19062">
        <ele>47.8</ele>
        <time>2023-02-08T14:04:43Z</time>
      </trkpt>
      <trkpt lat="49.79788" lon="2.19064">
        <ele>47.9</ele>
        <time>2023-02-08T14:04:44Z</time>
      </trkpt>
      <trkpt lat="49.79788" lon="2.19066">
        <ele>47.9</ele>
        <time>2023-02-08T14:04:45Z</time>
      </trkpt>
      <trkpt lat="49.79788" lon="2.19068">
        <ele>47.9</ele>
        <time>2023-02-08T14:04:46Z</time>
      </trkpt>
      <trkpt lat="49.79788" lon="2.1907">
        <ele>47.9</ele>
        <time>2023-02-08T14:04:47Z</time>
      </trkpt>
      <trkpt lat="49.79788" lon="2.19072">
        <ele>47.9</ele>
        <time>2023-02-08T14:04:49Z</time>
      </trkpt>
      <trkpt lat="49.79789" lon="2.19074">
        <ele>47.9</ele>
        <time>2023-02-08T14:04:50Z</time>
      </trkpt>
      <trkpt lat="49.79789" lon="2.19075">
        <ele>48</ele>
        <time>2023-02-08T14:04:51Z</time>
      </trkpt>
      <trkpt lat="49.79789" lon="2.19076">
        <ele>48</ele>
        <time>2023-02-08T14:04:52Z</time>
      </trkpt>
      <trkpt lat="49.7979" lon="2.19077">
        <ele>48</ele>
        <time>2023-02-08T14:04:53Z</time>
      </trkpt>
      <trkpt lat="49.79791" lon="2.19078">
        <ele>48</ele>
        <time>2023-02-08T14:04:54Z</time>
      </trkpt>
      <trkpt lat="49.79792" lon="2.19078">
        <ele>48</ele>
        <time>2023-02-08T14:04:55Z</time>
      </trkpt>
      <trkpt lat="49.79793" lon="2.19079">
        <ele>48</ele>
        <time>2023-02-08T14:04:57Z</time>
      </trkpt>
      <trkpt lat="49.79794" lon="2.19079">
        <ele>48</ele>
        <time>2023-02-08T14:04:58Z</time>
      </trkpt>
      <trkpt lat="49.79795" lon="2.19081">
        <ele>48.1</ele>
        <time>2023-02-08T14:04:59Z</time>
      </trkpt>
      <trkpt lat="49.79796" lon="2.19081">
        <ele>48.1</ele>
        <time>2023-02-08T14:05:00Z</time>
      </trkpt>
      <trkpt lat="49.79797" lon="2.19082">
        <ele>48.1</ele>
        <time>2023-02-08T14:05:01Z</time>
      </trkpt>
      <trkpt lat="49.79798" lon="2.19082">
        <ele>48.1</ele>
        <time>2023-02-08T14:05:02Z</time>
      </trkpt>
      <trkpt lat="49.79799" lon="2.19083">
        <ele>48.1</ele>
        <time>2023-02-08T14:05:04Z</time>
      </trkpt>
      <trkpt lat="49.798" lon="2.19084">
        <ele>48.2</ele>
        <time>2023-02-08T14:05:05Z</time>
      </trkpt>
      <trkpt lat="49.79801" lon="2.19084">
        <ele>48.2</ele>
        <time>2023-02-08T14:05:06Z</time>
      </trkpt>
      <trkpt lat="49.79801" lon="2.19085">
        <ele>48.2</ele>
        <time>2023-02-08T14:05:07Z</time>
      </trkpt>
      <trkpt lat="49.79802" lon="2.19085">
        <ele>48.2</ele>
        <time>2023-02-08T14:05:08Z</time>
      </trkpt>
      <trkpt lat="49.79803" lon="2.19085">
        <ele>48.2</ele>
        <time>2023-02-08T14:05:09Z</time>
      </trkpt>
      <trkpt lat="49.79804" lon="2.19085">
        <ele>48.2</ele>
        <time>2023-02-08T14:05:10Z</time>
      </trkpt>
      <trkpt lat="49.79805" lon="2.19085">
        <ele>48.3</ele>
        <time>2023-02-08T14:05:12Z</time>
      </trkpt>
      <trkpt lat="49.79805" lon="2.19085">
        <ele>48.3</ele>
        <time>2023-02-08T14:05:13Z</time>
      </trkpt>
      <trkpt lat="49.79807" lon="2.19086">
        <ele>48.3</ele>
        <time>2023-02-08T14:05:14Z</time>
      </trkpt>
      <trkpt lat="49.79807" lon="2.19086">
        <ele>48.3</ele>
        <time>2023-02-08T14:05:15Z</time>
      </trkpt>
      <trkpt lat="49.79807" lon="2.19085">
        <ele>48.3</ele>
        <time>2023-02-08T14:05:16Z</time>
      </trkpt>
      <trkpt lat="49.79807" lon="2.19085">
        <ele>48.3</ele>
        <time>2023-02-08T14:05:17Z</time>
      </trkpt>
      <trkpt lat="49.79807" lon="2.19085">
        <ele>48.3</ele>
        <time>2023-02-08T14:05:18Z</time>
      </trkpt>
      <trkpt lat="49.79807" lon="2.19086">
        <ele>48.4</ele>
        <time>2023-02-08T14:05:20Z</time>
      </trkpt>
      <trkpt lat="49.79807" lon="2.19087">
        <ele>48.4</ele>
        <time>2023-02-08T14:05:21Z</time>
      </trkpt>
      <trkpt lat="49.79808" lon="2.19087">
        <ele>48.4</ele>
        <time>2023-02-08T14:05:22Z</time>
      </trkpt>
      <trkpt lat="49.79808" lon="2.19087">
        <ele>48.4</ele>
        <time>2023-02-08T14:05:23Z</time>
      </trkpt>
      <trkpt lat="49.79808" lon="2.19087">
        <ele>48.4</ele>
        <time>2023-02-08T14:05:24Z</time>
      </trkpt>
      <trkpt lat="49.79809" lon="2.19087">
        <ele>48.4</ele>
        <time>2023-02-08T14:05:25Z</time>
      </trkpt>
      <trkpt lat="49.79809" lon="2.19088">
        <ele>48.4</ele>
        <time>2023-02-08T14:05:26Z</time>
      </trkpt>
      <trkpt lat="49.79809" lon="2.19087">
        <ele>48.4</ele>
        <time>2023-02-08T14:05:28Z</time>
      </trkpt>
      <trkpt lat="49.79809" lon="2.19087">
        <ele>48.4</ele>
        <time>2023-02-08T14:05:29Z</time>
      </trkpt>
      <trkpt lat="49.79809" lon="2.19086">
        <ele>48.4</ele>
        <time>2023-02-08T14:05:30Z</time>
      </trkpt>
      <trkpt lat="49.79809" lon="2.19086">
        <ele>48.5</ele>
        <time>2023-02-08T14:05:31Z</time>
      </trkpt>
      <trkpt lat="49.79809" lon="2.19085">
        <ele>48.5</ele>
        <time>2023-02-08T14:05:32Z</time>
      </trkpt>
      <trkpt lat="49.79809" lon="2.19085">
        <ele>48.5</ele>
        <time>2023-02-08T14:05:33Z</time>
      </trkpt>
      <trkpt lat="49.7981" lon="2.19085">
        <ele>48.5</ele>
        <time>2023-02-08T14:05:35Z</time>
      </trkpt>
      <trkpt lat="49.79809" lon="2.19085">
        <ele>48.5</ele>
        <time>2023-02-08T14:05:36Z</time>
      </trkpt>
      <trkpt lat="49.79809" lon="2.19086">
        <ele>48.5</ele>
        <time>2023-02-08T14:05:37Z</time>
      </trkpt>
      <trkpt lat="49.79809" lon="2.19086">
        <ele>48.5</ele>
        <time>2023-02-08T14:05:38Z</time>
      </trkpt>
      <trkpt lat="49.79809" lon="2.19086">
        <ele>48.5</ele>
        <time>2023-02-08T14:05:39Z</time>
      </trkpt>
      <trkpt lat="49.79809" lon="2.19087">
        <ele>48.5</ele>
        <time>2023-02-08T14:05:40Z</time>
      </trkpt>
      <trkpt lat="49.79809" lon="2.19087">
        <ele>48.5</ele>
        <time>2023-02-08T14:05:41Z</time>
      </trkpt>
      <trkpt lat="49.79809" lon="2.19088">
        <ele>48.6</ele>
        <time>2023-02-08T14:05:43Z</time>
      </trkpt>
      <trkpt lat="49.79809" lon="2.19088">
        <ele>48.6</ele>
        <time>2023-02-08T14:05:44Z</time>
      </trkpt>
      <trkpt lat="49.79809" lon="2.19089">
        <ele>48.6</ele>
        <time>2023-02-08T14:05:45Z</time>
      </trkpt>
      <trkpt lat="49.7981" lon="2.19089">
        <ele>48.6</ele>
        <time>2023-02-08T14:05:46Z</time>
      </trkpt>
      <trkpt lat="49.7981" lon="2.19089">
        <ele>48.6</ele>
        <time>2023-02-08T14:05:47Z</time>
      </trkpt>
      <trkpt lat="49.7981" lon="2.19088">
        <ele>48.6</ele>
        <time>2023-02-08T14:05:48Z</time>
      </trkpt>
      <trkpt lat="49.79809" lon="2.19087">
        <ele>48.6</ele>
        <time>2023-02-08T14:05:49Z</time>
      </trkpt>
      <trkpt lat="49.7981" lon="2.19087">
        <ele>48.6</ele>
        <time>2023-02-08T14:05:50Z</time>
      </trkpt>
      <trkpt lat="49.7981" lon="2.19087">
        <ele>48.7</ele>
        <time>2023-02-08T14:05:52Z</time>
      </trkpt>
      <trkpt lat="49.79811" lon="2.19087">
        <ele>48.7</ele>
        <time>2023-02-08T14:05:53Z</time>
      </trkpt>
      <trkpt lat="49.79812" lon="2.19086">
        <ele>48.7</ele>
        <time>2023-02-08T14:05:54Z</time>
      </trkpt>
      <trkpt lat="49.79814" lon="2.19086">
        <ele>48.7</ele>
        <time>2023-02-08T14:05:55Z</time>
      </trkpt>
      <trkpt lat="49.79814" lon="2.19087">
        <ele>48.8</ele>
        <time>2023-02-08T14:05:56Z</time>
      </trkpt>
      <trkpt lat="49.79816" lon="2.19087">
        <ele>48.8</ele>
        <time>2023-02-08T14:05:57Z</time>
      </trkpt>
      <trkpt lat="49.79818" lon="2.19089">
        <ele>48.9</ele>
        <time>2023-02-08T14:05:58Z</time>
      </trkpt>
      <trkpt lat="49.7982" lon="2.1909">
        <ele>48.9</ele>
        <time>2023-02-08T14:05:59Z</time>
      </trkpt>
      <trkpt lat="49.79822" lon="2.19094">
        <ele>49</ele>
        <time>2023-02-08T14:06:01Z</time>
      </trkpt>
      <trkpt lat="49.79823" lon="2.19095">
        <ele>49</ele>
        <time>2023-02-08T14:06:02Z</time>
      </trkpt>
      <trkpt lat="49.79826" lon="2.19097">
        <ele>49.1</ele>
        <time>2023-02-08T14:06:03Z</time>
      </trkpt>
      <trkpt lat="49.79828" lon="2.19098">
        <ele>49.1</ele>
        <time>2023-02-08T14:06:04Z</time>
      </trkpt>
      <trkpt lat="49.79829" lon="2.191">
        <ele>49.2</ele>
        <time>2023-02-08T14:06:05Z</time>
      </trkpt>
      <trkpt lat="49.79831" lon="2.19101">
        <ele>49.2</ele>
        <time>2023-02-08T14:06:06Z</time>
      </trkpt>
      <trkpt lat="49.79832" lon="2.19102">
        <ele>49.3</ele>
        <time>2023-02-08T14:06:07Z</time>
      </trkpt>
      <trkpt lat="49.79834" lon="2.19104">
        <ele>49.3</ele>
        <time>2023-02-08T14:06:09Z</time>
      </trkpt>
      <trkpt lat="49.79835" lon="2.19106">
        <ele>49.3</ele>
        <time>2023-02-08T14:06:10Z</time>
      </trkpt>
      <trkpt lat="49.79836" lon="2.19108">
        <ele>49.4</ele>
        <time>2023-02-08T14:06:11Z</time>
      </trkpt>
      <trkpt lat="49.79838" lon="2.1911">
        <ele>49.5</ele>
        <time>2023-02-08T14:06:12Z</time>
      </trkpt>
      <trkpt lat="49.79839" lon="2.19111">
        <ele>49.5</ele>
        <time>2023-02-08T14:06:13Z</time>
      </trkpt>
      <trkpt lat="49.7984" lon="2.19112">
        <ele>49.5</ele>
        <time>2023-02-08T14:06:14Z</time>
      </trkpt>
      <trkpt lat="49.79842" lon="2.19113">
        <ele>49.6</ele>
        <time>2023-02-08T14:06:16Z</time>
      </trkpt>
      <trkpt lat="49.79843" lon="2.19114">
        <ele>49.6</ele>
        <time>2023-02-08T14:06:17Z</time>
      </trkpt>
      <trkpt lat="49.79843" lon="2.19115">
        <ele>49.6</ele>
        <time>2023-02-08T14:06:18Z</time>
      </trkpt>
      <trkpt lat="49.79845" lon="2.19116">
        <ele>49.7</ele>
        <time>2023-02-08T14:06:19Z</time>
      </trkpt>
      <trkpt lat="49.79846" lon="2.19117">
        <ele>49.7</ele>
        <time>2023-02-08T14:06:20Z</time>
      </trkpt>
      <trkpt lat="49.79847" lon="2.19118">
        <ele>49.8</ele>
        <time>2023-02-08T14:06:21Z</time>
      </trkpt>
      <trkpt lat="49.79848" lon="2.1912">
        <ele>49.9</ele>
        <time>2023-02-08T14:06:23Z</time>
      </trkpt>
      <trkpt lat="49.7985" lon="2.19121">
        <ele>49.9</ele>
        <time>2023-02-08T14:06:24Z</time>
      </trkpt>
      <trkpt lat="49.79851" lon="2.19122">
        <ele>50</ele>
        <time>2023-02-08T14:06:25Z</time>
      </trkpt>
      <trkpt lat="49.79852" lon="2.19123">
        <ele>50</ele>
        <time>2023-02-08T14:06:26Z</time>
      </trkpt>
      <trkpt lat="49.79853" lon="2.19124">
        <ele>50.1</ele>
        <time>2023-02-08T14:06:27Z</time>
      </trkpt>
      <trkpt lat="49.79854" lon="2.19125">
        <ele>50.1</ele>
        <time>2023-02-08T14:06:28Z</time>
      </trkpt>
      <trkpt lat="49.79856" lon="2.19126">
        <ele>50.2</ele>
        <time>2023-02-08T14:06:29Z</time>
      </trkpt>
      <trkpt lat="49.79857" lon="2.19127">
        <ele>50.2</ele>
        <time>2023-02-08T14:06:31Z</time>
      </trkpt>
      <trkpt lat="49.79858" lon="2.19129">
        <ele>50.3</ele>
        <time>2023-02-08T14:06:32Z</time>
      </trkpt>
      <trkpt lat="49.79859" lon="2.1913">
        <ele>50.3</ele>
        <time>2023-02-08T14:06:33Z</time>
      </trkpt>
      <trkpt lat="49.79861" lon="2.19131">
        <ele>50.4</ele>
        <time>2023-02-08T14:06:34Z</time>
      </trkpt>
      <trkpt lat="49.79862" lon="2.19132">
        <ele>50.5</ele>
        <time>2023-02-08T14:06:35Z</time>
      </trkpt>
      <trkpt lat="49.79864" lon="2.19134">
        <ele>50.6</ele>
        <time>2023-02-08T14:06:37Z</time>
      </trkpt>
      <trkpt lat="49.79865" lon="2.19134">
        <ele>50.6</ele>
        <time>2023-02-08T14:06:38Z</time>
      </trkpt>
      <trkpt lat="49.79866" lon="2.19135">
        <ele>50.6</ele>
        <time>2023-02-08T14:06:39Z</time>
      </trkpt>
      <trkpt lat="49.79868" lon="2.19137">
        <ele>50.7</ele>
        <time>2023-02-08T14:06:40Z</time>
      </trkpt>
      <trkpt lat="49.79869" lon="2.19138">
        <ele>50.8</ele>
        <time>2023-02-08T14:06:41Z</time>
      </trkpt>
      <trkpt lat="49.7987" lon="2.19139">
        <ele>50.8</ele>
        <time>2023-02-08T14:06:42Z</time>
      </trkpt>
      <trkpt lat="49.79872" lon="2.1914">
        <ele>50.9</ele>
        <time>2023-02-08T14:06:44Z</time>
      </trkpt>
      <trkpt lat="49.79874" lon="2.19141">
        <ele>51</ele>
        <time>2023-02-08T14:06:45Z</time>
      </trkpt>
      <trkpt lat="49.79875" lon="2.19142">
        <ele>51</ele>
        <time>2023-02-08T14:06:46Z</time>
      </trkpt>
      <trkpt lat="49.79876" lon="2.19143">
        <ele>51.1</ele>
        <time>2023-02-08T14:06:47Z</time>
      </trkpt>
      <trkpt lat="49.79877" lon="2.19144">
        <ele>51.2</ele>
        <time>2023-02-08T14:06:48Z</time>
      </trkpt>
      <trkpt lat="49.7988" lon="2.19146">
        <ele>51.3</ele>
        <time>2023-02-08T14:06:49Z</time>
      </trkpt>
      <trkpt lat="49.79881" lon="2.19147">
        <ele>51.4</ele>
        <time>2023-02-08T14:06:50Z</time>
      </trkpt>
      <trkpt lat="49.79882" lon="2.19148">
        <ele>51.4</ele>
        <time>2023-02-08T14:06:51Z</time>
      </trkpt>
      <trkpt lat="49.79883" lon="2.19149">
        <ele>51.5</ele>
        <time>2023-02-08T14:06:53Z</time>
      </trkpt>
      <trkpt lat="49.79884" lon="2.1915">
        <ele>51.6</ele>
        <time>2023-02-08T14:06:54Z</time>
      </trkpt>
      <trkpt lat="49.79886" lon="2.19151">
        <ele>51.6</ele>
        <time>2023-02-08T14:06:55Z</time>
      </trkpt>
      <trkpt lat="49.79887" lon="2.19153">
        <ele>51.7</ele>
        <time>2023-02-08T14:06:56Z</time>
      </trkpt>
      <trkpt lat="49.79888" lon="2.19154">
        <ele>51.8</ele>
        <time>2023-02-08T14:06:57Z</time>
      </trkpt>
      <trkpt lat="49.79889" lon="2.19155">
        <ele>51.8</ele>
        <time>2023-02-08T14:06:58Z</time>
      </trkpt>
      <trkpt lat="49.7989" lon="2.19156">
        <ele>51.9</ele>
        <time>2023-02-08T14:06:59Z</time>
      </trkpt>
      <trkpt lat="49.79891" lon="2.19157">
        <ele>51.9</ele>
        <time>2023-02-08T14:07:00Z</time>
      </trkpt>
      <trkpt lat="49.79892" lon="2.19158">
        <ele>52</ele>
        <time>2023-02-08T14:07:01Z</time>
      </trkpt>
      <trkpt lat="49.79892" lon="2.19159">
        <ele>52</ele>
        <time>2023-02-08T14:07:03Z</time>
      </trkpt>
      <trkpt lat="49.79893" lon="2.1916">
        <ele>52.1</ele>
        <time>2023-02-08T14:07:04Z</time>
      </trkpt>
      <trkpt lat="49.79895" lon="2.1916">
        <ele>52.1</ele>
        <time>2023-02-08T14:07:05Z</time>
      </trkpt>
      <trkpt lat="49.79896" lon="2.19162">
        <ele>52.2</ele>
        <time>2023-02-08T14:07:06Z</time>
      </trkpt>
      <trkpt lat="49.79898" lon="2.19162">
        <ele>52.3</ele>
        <time>2023-02-08T14:07:07Z</time>
      </trkpt>
      <trkpt lat="49.79899" lon="2.19163">
        <ele>52.3</ele>
        <time>2023-02-08T14:07:09Z</time>
      </trkpt>
      <trkpt lat="49.799" lon="2.19164">
        <ele>52.4</ele>
        <time>2023-02-08T14:07:11Z</time>
      </trkpt>
      <trkpt lat="49.79901" lon="2.19165">
        <ele>52.4</ele>
        <time>2023-02-08T14:07:12Z</time>
      </trkpt>
      <trkpt lat="49.79902" lon="2.19165">
        <ele>52.5</ele>
        <time>2023-02-08T14:07:13Z</time>
      </trkpt>
      <trkpt lat="49.79904" lon="2.19166">
        <ele>52.5</ele>
        <time>2023-02-08T14:07:14Z</time>
      </trkpt>
      <trkpt lat="49.79905" lon="2.19167">
        <ele>52.6</ele>
        <time>2023-02-08T14:07:16Z</time>
      </trkpt>
      <trkpt lat="49.79906" lon="2.19168">
        <ele>52.6</ele>
        <time>2023-02-08T14:07:17Z</time>
      </trkpt>
      <trkpt lat="49.79908" lon="2.19169">
        <ele>52.7</ele>
        <time>2023-02-08T14:07:18Z</time>
      </trkpt>
      <trkpt lat="49.79909" lon="2.19169">
        <ele>52.7</ele>
        <time>2023-02-08T14:07:19Z</time>
      </trkpt>
      <trkpt lat="49.7991" lon="2.19169">
        <ele>52.7</ele>
        <time>2023-02-08T14:07:20Z</time>
      </trkpt>
      <trkpt lat="49.79911" lon="2.1917">
        <ele>52.7</ele>
        <time>2023-02-08T14:07:21Z</time>
      </trkpt>
      <trkpt lat="49.79912" lon="2.1917">
        <ele>52.8</ele>
        <time>2023-02-08T14:07:22Z</time>
      </trkpt>
      <trkpt lat="49.79913" lon="2.19171">
        <ele>52.8</ele>
        <time>2023-02-08T14:07:23Z</time>
      </trkpt>
      <trkpt lat="49.79914" lon="2.19171">
        <ele>52.8</ele>
        <time>2023-02-08T14:07:24Z</time>
      </trkpt>
      <trkpt lat="49.79915" lon="2.19171">
        <ele>52.9</ele>
        <time>2023-02-08T14:07:25Z</time>
      </trkpt>
      <trkpt lat="49.79916" lon="2.19172">
        <ele>52.9</ele>
        <time>2023-02-08T14:07:26Z</time>
      </trkpt>
      <trkpt lat="49.79917" lon="2.19172">
        <ele>52.9</ele>
        <time>2023-02-08T14:07:28Z</time>
      </trkpt>
      <trkpt lat="49.79918" lon="2.19172">
        <ele>52.9</ele>
        <time>2023-02-08T14:07:29Z</time>
      </trkpt>
      <trkpt lat="49.79919" lon="2.19173">
        <ele>52.9</ele>
        <time>2023-02-08T14:07:30Z</time>
      </trkpt>
      <trkpt lat="49.79919" lon="2.19173">
        <ele>52.9</ele>
        <time>2023-02-08T14:07:31Z</time>
      </trkpt>
      <trkpt lat="49.7992" lon="2.19174">
        <ele>52.9</ele>
        <time>2023-02-08T14:07:32Z</time>
      </trkpt>
      <trkpt lat="49.79921" lon="2.19175">
        <ele>53</ele>
        <time>2023-02-08T14:07:33Z</time>
      </trkpt>
      <trkpt lat="49.79923" lon="2.19175">
        <ele>53</ele>
        <time>2023-02-08T14:07:34Z</time>
      </trkpt>
      <trkpt lat="49.79924" lon="2.19176">
        <ele>53</ele>
        <time>2023-02-08T14:07:35Z</time>
      </trkpt>
      <trkpt lat="49.79925" lon="2.19177">
        <ele>53</ele>
        <time>2023-02-08T14:07:37Z</time>
      </trkpt>
      <trkpt lat="49.79926" lon="2.19178">
        <ele>53</ele>
        <time>2023-02-08T14:07:38Z</time>
      </trkpt>
      <trkpt lat="49.79928" lon="2.19179">
        <ele>53</ele>
        <time>2023-02-08T14:07:39Z</time>
      </trkpt>
      <trkpt lat="49.7993" lon="2.1918">
        <ele>53.1</ele>
        <time>2023-02-08T14:07:40Z</time>
      </trkpt>
      <trkpt lat="49.79931" lon="2.1918">
        <ele>53.1</ele>
        <time>2023-02-08T14:07:41Z</time>
      </trkpt>
      <trkpt lat="49.79933" lon="2.19181">
        <ele>53.1</ele>
        <time>2023-02-08T14:07:42Z</time>
      </trkpt>
      <trkpt lat="49.79934" lon="2.19183">
        <ele>53.1</ele>
        <time>2023-02-08T14:07:43Z</time>
      </trkpt>
      <trkpt lat="49.79936" lon="2.19184">
        <ele>53.1</ele>
        <time>2023-02-08T14:07:44Z</time>
      </trkpt>
      <trkpt lat="49.79939" lon="2.19187">
        <ele>53.1</ele>
        <time>2023-02-08T14:07:46Z</time>
      </trkpt>
      <trkpt lat="49.79942" lon="2.19189">
        <ele>53.2</ele>
        <time>2023-02-08T14:07:47Z</time>
      </trkpt>
      <trkpt lat="49.79943" lon="2.1919">
        <ele>53.2</ele>
        <time>2023-02-08T14:07:48Z</time>
      </trkpt>
      <trkpt lat="49.79946" lon="2.19192">
        <ele>53.2</ele>
        <time>2023-02-08T14:07:49Z</time>
      </trkpt>
      <trkpt lat="49.79948" lon="2.19193">
        <ele>53.2</ele>
        <time>2023-02-08T14:07:50Z</time>
      </trkpt>
      <trkpt lat="49.79949" lon="2.19194">
        <ele>53.2</ele>
        <time>2023-02-08T14:07:51Z</time>
      </trkpt>
      <trkpt lat="49.79951" lon="2.19195">
        <ele>53.3</ele>
        <time>2023-02-08T14:07:52Z</time>
      </trkpt>
      <trkpt lat="49.79953" lon="2.19196">
        <ele>53.3</ele>
        <time>2023-02-08T14:07:53Z</time>
      </trkpt>
      <trkpt lat="49.79954" lon="2.19197">
        <ele>53.3</ele>
        <time>2023-02-08T14:07:55Z</time>
      </trkpt>
      <trkpt lat="49.79956" lon="2.19198">
        <ele>53.3</ele>
        <time>2023-02-08T14:07:56Z</time>
      </trkpt>
      <trkpt lat="49.79957" lon="2.19199">
        <ele>53.3</ele>
        <time>2023-02-08T14:07:57Z</time>
      </trkpt>
      <trkpt lat="49.79959" lon="2.19201">
        <ele>53.4</ele>
        <time>2023-02-08T14:07:58Z</time>
      </trkpt>
      <trkpt lat="49.7996" lon="2.19201">
        <ele>53.4</ele>
        <time>2023-02-08T14:07:59Z</time>
      </trkpt>
      <trkpt lat="49.79961" lon="2.19202">
        <ele>53.4</ele>
        <time>2023-02-08T14:08:00Z</time>
      </trkpt>
      <trkpt lat="49.79963" lon="2.19203">
        <ele>53.4</ele>
        <time>2023-02-08T14:08:01Z</time>
      </trkpt>
      <trkpt lat="49.79964" lon="2.19204">
        <ele>53.5</ele>
        <time>2023-02-08T14:08:02Z</time>
      </trkpt>
      <trkpt lat="49.79965" lon="2.19204">
        <ele>53.5</ele>
        <time>2023-02-08T14:08:03Z</time>
      </trkpt>
      <trkpt lat="49.79966" lon="2.19205">
        <ele>53.5</ele>
        <time>2023-02-08T14:08:05Z</time>
      </trkpt>
      <trkpt lat="49.79967" lon="2.19207">
        <ele>53.5</ele>
        <time>2023-02-08T14:08:06Z</time>
      </trkpt>
      <trkpt lat="49.79968" lon="2.19208">
        <ele>53.6</ele>
        <time>2023-02-08T14:08:07Z</time>
      </trkpt>
      <trkpt lat="49.79969" lon="2.19209">
        <ele>53.6</ele>
        <time>2023-02-08T14:08:08Z</time>
      </trkpt>
      <trkpt lat="49.79972" lon="2.19212">
        <ele>53.7</ele>
        <time>2023-02-08T14:08:09Z</time>
      </trkpt>
      <trkpt lat="49.79973" lon="2.19213">
        <ele>53.7</ele>
        <time>2023-02-08T14:08:10Z</time>
      </trkpt>
      <trkpt lat="49.79975" lon="2.19215">
        <ele>53.7</ele>
        <time>2023-02-08T14:08:11Z</time>
      </trkpt>
      <trkpt lat="49.79976" lon="2.19216">
        <ele>53.8</ele>
        <time>2023-02-08T14:08:12Z</time>
      </trkpt>
      <trkpt lat="49.79979" lon="2.19218">
        <ele>53.9</ele>
        <time>2023-02-08T14:08:14Z</time>
      </trkpt>
      <trkpt lat="49.7998" lon="2.19219">
        <ele>53.9</ele>
        <time>2023-02-08T14:08:15Z</time>
      </trkpt>
      <trkpt lat="49.79983" lon="2.19221">
        <ele>54</ele>
        <time>2023-02-08T14:08:16Z</time>
      </trkpt>
      <trkpt lat="49.79986" lon="2.19223">
        <ele>54.1</ele>
        <time>2023-02-08T14:08:17Z</time>
      </trkpt>
      <trkpt lat="49.79987" lon="2.19224">
        <ele>54.1</ele>
        <time>2023-02-08T14:08:18Z</time>
      </trkpt>
      <trkpt lat="49.7999" lon="2.19227">
        <ele>54.2</ele>
        <time>2023-02-08T14:08:19Z</time>
      </trkpt>
      <trkpt lat="49.79991" lon="2.19227">
        <ele>54.3</ele>
        <time>2023-02-08T14:08:20Z</time>
      </trkpt>
      <trkpt lat="49.79992" lon="2.19228">
        <ele>54.3</ele>
        <time>2023-02-08T14:08:21Z</time>
      </trkpt>
      <trkpt lat="49.79994" lon="2.19229">
        <ele>54.4</ele>
        <time>2023-02-08T14:08:22Z</time>
      </trkpt>
      <trkpt lat="49.79995" lon="2.1923">
        <ele>54.4</ele>
        <time>2023-02-08T14:08:24Z</time>
      </trkpt>
      <trkpt lat="49.79996" lon="2.19231">
        <ele>54.5</ele>
        <time>2023-02-08T14:08:25Z</time>
      </trkpt>
      <trkpt lat="49.79998" lon="2.19233">
        <ele>54.6</ele>
        <time>2023-02-08T14:08:26Z</time>
      </trkpt>
      <trkpt lat="49.79999" lon="2.19233">
        <ele>54.6</ele>
        <time>2023-02-08T14:08:27Z</time>
      </trkpt>
      <trkpt lat="49.80001" lon="2.19234">
        <ele>54.7</ele>
        <time>2023-02-08T14:08:28Z</time>
      </trkpt>
      <trkpt lat="49.80002" lon="2.19236">
        <ele>54.7</ele>
        <time>2023-02-08T14:08:29Z</time>
      </trkpt>
      <trkpt lat="49.80005" lon="2.19237">
        <ele>54.9</ele>
        <time>2023-02-08T14:08:30Z</time>
      </trkpt>
      <trkpt lat="49.80006" lon="2.19238">
        <ele>54.9</ele>
        <time>2023-02-08T14:08:32Z</time>
      </trkpt>
      <trkpt lat="49.80006" lon="2.19239">
        <ele>54.9</ele>
        <time>2023-02-08T14:08:33Z</time>
      </trkpt>
      <trkpt lat="49.80007" lon="2.19239">
        <ele>55</ele>
        <time>2023-02-08T14:08:34Z</time>
      </trkpt>
      <trkpt lat="49.80008" lon="2.1924">
        <ele>55</ele>
        <time>2023-02-08T14:08:35Z</time>
      </trkpt>
      <trkpt lat="49.80009" lon="2.19241">
        <ele>55.1</ele>
        <time>2023-02-08T14:08:36Z</time>
      </trkpt>
      <trkpt lat="49.8001" lon="2.19242">
        <ele>55.1</ele>
        <time>2023-02-08T14:08:37Z</time>
      </trkpt>
      <trkpt lat="49.80011" lon="2.19243">
        <ele>55.2</ele>
        <time>2023-02-08T14:08:38Z</time>
      </trkpt>
      <trkpt lat="49.80012" lon="2.19244">
        <ele>55.2</ele>
        <time>2023-02-08T14:08:40Z</time>
      </trkpt>
      <trkpt lat="49.80013" lon="2.19245">
        <ele>55.3</ele>
        <time>2023-02-08T14:08:41Z</time>
      </trkpt>
      <trkpt lat="49.80014" lon="2.19246">
        <ele>55.3</ele>
        <time>2023-02-08T14:08:42Z</time>
      </trkpt>
      <trkpt lat="49.80016" lon="2.19248">
        <ele>55.4</ele>
        <time>2023-02-08T14:08:43Z</time>
      </trkpt>
      <trkpt lat="49.80017" lon="2.19248">
        <ele>55.5</ele>
        <time>2023-02-08T14:08:44Z</time>
      </trkpt>
      <trkpt lat="49.80018" lon="2.19249">
        <ele>55.5</ele>
        <time>2023-02-08T14:08:45Z</time>
      </trkpt>
      <trkpt lat="49.80019" lon="2.1925">
        <ele>55.6</ele>
        <time>2023-02-08T14:08:46Z</time>
      </trkpt>
      <trkpt lat="49.8002" lon="2.19251">
        <ele>55.6</ele>
        <time>2023-02-08T14:08:48Z</time>
      </trkpt>
      <trkpt lat="49.80021" lon="2.19251">
        <ele>55.7</ele>
        <time>2023-02-08T14:08:49Z</time>
      </trkpt>
      <trkpt lat="49.80022" lon="2.19252">
        <ele>55.8</ele>
        <time>2023-02-08T14:08:50Z</time>
      </trkpt>
      <trkpt lat="49.80024" lon="2.19253">
        <ele>55.8</ele>
        <time>2023-02-08T14:08:51Z</time>
      </trkpt>
      <trkpt lat="49.80025" lon="2.19255">
        <ele>55.9</ele>
        <time>2023-02-08T14:08:52Z</time>
      </trkpt>
      <trkpt lat="49.80027" lon="2.19256">
        <ele>56</ele>
        <time>2023-02-08T14:08:53Z</time>
      </trkpt>
      <trkpt lat="49.8003" lon="2.19258">
        <ele>56.1</ele>
        <time>2023-02-08T14:08:56Z</time>
      </trkpt>
      <trkpt lat="49.80031" lon="2.19258">
        <ele>56.2</ele>
        <time>2023-02-08T14:08:57Z</time>
      </trkpt>
      <trkpt lat="49.80032" lon="2.19259">
        <ele>56.2</ele>
        <time>2023-02-08T14:08:58Z</time>
      </trkpt>
      <trkpt lat="49.80034" lon="2.19261">
        <ele>56.3</ele>
        <time>2023-02-08T14:08:59Z</time>
      </trkpt>
      <trkpt lat="49.80035" lon="2.19262">
        <ele>56.4</ele>
        <time>2023-02-08T14:09:00Z</time>
      </trkpt>
      <trkpt lat="49.80037" lon="2.19264">
        <ele>56.4</ele>
        <time>2023-02-08T14:09:02Z</time>
      </trkpt>
      <trkpt lat="49.80038" lon="2.19264">
        <ele>56.4</ele>
        <time>2023-02-08T14:09:03Z</time>
      </trkpt>
      <trkpt lat="49.80039" lon="2.19265">
        <ele>56.5</ele>
        <time>2023-02-08T14:09:04Z</time>
      </trkpt>
      <trkpt lat="49.8004" lon="2.19266">
        <ele>56.5</ele>
        <time>2023-02-08T14:09:05Z</time>
      </trkpt>
      <trkpt lat="49.80042" lon="2.19267">
        <ele>56.6</ele>
        <time>2023-02-08T14:09:06Z</time>
      </trkpt>
      <trkpt lat="49.80043" lon="2.19268">
        <ele>56.6</ele>
        <time>2023-02-08T14:09:07Z</time>
      </trkpt>
      <trkpt lat="49.80044" lon="2.19269">
        <ele>56.7</ele>
        <time>2023-02-08T14:09:08Z</time>
      </trkpt>
      <trkpt lat="49.80045" lon="2.1927">
        <ele>56.7</ele>
        <time>2023-02-08T14:09:09Z</time>
      </trkpt>
      <trkpt lat="49.80046" lon="2.19271">
        <ele>56.8</ele>
        <time>2023-02-08T14:09:10Z</time>
      </trkpt>
      <trkpt lat="49.80047" lon="2.19272">
        <ele>56.8</ele>
        <time>2023-02-08T14:09:11Z</time>
      </trkpt>
      <trkpt lat="49.80048" lon="2.19273">
        <ele>56.8</ele>
        <time>2023-02-08T14:09:13Z</time>
      </trkpt>
      <trkpt lat="49.80049" lon="2.19274">
        <ele>56.9</ele>
        <time>2023-02-08T14:09:14Z</time>
      </trkpt>
      <trkpt lat="49.8005" lon="2.19275">
        <ele>56.9</ele>
        <time>2023-02-08T14:09:15Z</time>
      </trkpt>
      <trkpt lat="49.80051" lon="2.19276">
        <ele>56.9</ele>
        <time>2023-02-08T14:09:16Z</time>
      </trkpt>
      <trkpt lat="49.80052" lon="2.19277">
        <ele>57</ele>
        <time>2023-02-08T14:09:17Z</time>
      </trkpt>
      <trkpt lat="49.80053" lon="2.19278">
        <ele>57</ele>
        <time>2023-02-08T14:09:18Z</time>
      </trkpt>
      <trkpt lat="49.80053" lon="2.19279">
        <ele>57</ele>
        <time>2023-02-08T14:09:20Z</time>
      </trkpt>
      <trkpt lat="49.80054" lon="2.1928">
        <ele>57.1</ele>
        <time>2023-02-08T14:09:21Z</time>
      </trkpt>
      <trkpt lat="49.80055" lon="2.19281">
        <ele>57.1</ele>
        <time>2023-02-08T14:09:22Z</time>
      </trkpt>
      <trkpt lat="49.80056" lon="2.19282">
        <ele>57.1</ele>
        <time>2023-02-08T14:09:23Z</time>
      </trkpt>
      <trkpt lat="49.80056" lon="2.19283">
        <ele>57.1</ele>
        <time>2023-02-08T14:09:24Z</time>
      </trkpt>
      <trkpt lat="49.80057" lon="2.19284">
        <ele>57.2</ele>
        <time>2023-02-08T14:09:25Z</time>
      </trkpt>
      <trkpt lat="49.80058" lon="2.19285">
        <ele>57.2</ele>
        <time>2023-02-08T14:09:27Z</time>
      </trkpt>
      <trkpt lat="49.80059" lon="2.19285">
        <ele>57.2</ele>
        <time>2023-02-08T14:09:28Z</time>
      </trkpt>
      <trkpt lat="49.8006" lon="2.19286">
        <ele>57.2</ele>
        <time>2023-02-08T14:09:29Z</time>
      </trkpt>
      <trkpt lat="49.80061" lon="2.19287">
        <ele>57.3</ele>
        <time>2023-02-08T14:09:30Z</time>
      </trkpt>
      <trkpt lat="49.80062" lon="2.19288">
        <ele>57.3</ele>
        <time>2023-02-08T14:09:31Z</time>
      </trkpt>
      <trkpt lat="49.80063" lon="2.19288">
        <ele>57.3</ele>
        <time>2023-02-08T14:09:32Z</time>
      </trkpt>
      <trkpt lat="49.80064" lon="2.19289">
        <ele>57.3</ele>
        <time>2023-02-08T14:09:33Z</time>
      </trkpt>
      <trkpt lat="49.80066" lon="2.1929">
        <ele>57.4</ele>
        <time>2023-02-08T14:09:34Z</time>
      </trkpt>
      <trkpt lat="49.80067" lon="2.19291">
        <ele>57.4</ele>
        <time>2023-02-08T14:09:35Z</time>
      </trkpt>
      <trkpt lat="49.80067" lon="2.19291">
        <ele>57.4</ele>
        <time>2023-02-08T14:09:36Z</time>
      </trkpt>
      <trkpt lat="49.80069" lon="2.19293">
        <ele>57.4</ele>
        <time>2023-02-08T14:09:38Z</time>
      </trkpt>
      <trkpt lat="49.8007" lon="2.19293">
        <ele>57.4</ele>
        <time>2023-02-08T14:09:39Z</time>
      </trkpt>
      <trkpt lat="49.80071" lon="2.19294">
        <ele>57.4</ele>
        <time>2023-02-08T14:09:40Z</time>
      </trkpt>
      <trkpt lat="49.80073" lon="2.19295">
        <ele>57.4</ele>
        <time>2023-02-08T14:09:41Z</time>
      </trkpt>
      <trkpt lat="49.80074" lon="2.19296">
        <ele>57.4</ele>
        <time>2023-02-08T14:09:42Z</time>
      </trkpt>
      <trkpt lat="49.80074" lon="2.19296">
        <ele>57.5</ele>
        <time>2023-02-08T14:09:43Z</time>
      </trkpt>
      <trkpt lat="49.80076" lon="2.19297">
        <ele>57.5</ele>
        <time>2023-02-08T14:09:44Z</time>
      </trkpt>
      <trkpt lat="49.80077" lon="2.19297">
        <ele>57.5</ele>
        <time>2023-02-08T14:09:45Z</time>
      </trkpt>
      <trkpt lat="49.80078" lon="2.19298">
        <ele>57.5</ele>
        <time>2023-02-08T14:09:47Z</time>
      </trkpt>
      <trkpt lat="49.80079" lon="2.19298">
        <ele>57.5</ele>
        <time>2023-02-08T14:09:48Z</time>
      </trkpt>
      <trkpt lat="49.8008" lon="2.19299">
        <ele>57.5</ele>
        <time>2023-02-08T14:09:49Z</time>
      </trkpt>
      <trkpt lat="49.80082" lon="2.193">
        <ele>57.5</ele>
        <time>2023-02-08T14:09:50Z</time>
      </trkpt>
      <trkpt lat="49.80083" lon="2.19301">
        <ele>57.5</ele>
        <time>2023-02-08T14:09:51Z</time>
      </trkpt>
      <trkpt lat="49.80084" lon="2.19301">
        <ele>57.5</ele>
        <time>2023-02-08T14:09:52Z</time>
      </trkpt>
      <trkpt lat="49.80086" lon="2.19303">
        <ele>57.5</ele>
        <time>2023-02-08T14:09:53Z</time>
      </trkpt>
      <trkpt lat="49.80086" lon="2.19304">
        <ele>57.5</ele>
        <time>2023-02-08T14:09:55Z</time>
      </trkpt>
      <trkpt lat="49.80087" lon="2.19305">
        <ele>57.5</ele>
        <time>2023-02-08T14:09:56Z</time>
      </trkpt>
      <trkpt lat="49.80088" lon="2.19307">
        <ele>57.5</ele>
        <time>2023-02-08T14:09:57Z</time>
      </trkpt>
      <trkpt lat="49.80089" lon="2.19308">
        <ele>57.6</ele>
        <time>2023-02-08T14:09:58Z</time>
      </trkpt>
      <trkpt lat="49.8009" lon="2.19309">
        <ele>57.6</ele>
        <time>2023-02-08T14:09:59Z</time>
      </trkpt>
      <trkpt lat="49.80091" lon="2.19309">
        <ele>57.6</ele>
        <time>2023-02-08T14:10:00Z</time>
      </trkpt>
      <trkpt lat="49.80093" lon="2.1931">
        <ele>57.6</ele>
        <time>2023-02-08T14:10:01Z</time>
      </trkpt>
      <trkpt lat="49.80094" lon="2.19311">
        <ele>57.6</ele>
        <time>2023-02-08T14:10:03Z</time>
      </trkpt>
      <trkpt lat="49.80094" lon="2.19311">
        <ele>57.6</ele>
        <time>2023-02-08T14:10:04Z</time>
      </trkpt>
      <trkpt lat="49.80095" lon="2.19312">
        <ele>57.6</ele>
        <time>2023-02-08T14:10:05Z</time>
      </trkpt>
      <trkpt lat="49.80098" lon="2.19313">
        <ele>57.6</ele>
        <time>2023-02-08T14:10:06Z</time>
      </trkpt>
      <trkpt lat="49.80098" lon="2.19313">
        <ele>57.6</ele>
        <time>2023-02-08T14:10:07Z</time>
      </trkpt>
      <trkpt lat="49.80099" lon="2.19314">
        <ele>57.6</ele>
        <time>2023-02-08T14:10:08Z</time>
      </trkpt>
      <trkpt lat="49.801" lon="2.19314">
        <ele>57.6</ele>
        <time>2023-02-08T14:10:09Z</time>
      </trkpt>
      <trkpt lat="49.80101" lon="2.19314">
        <ele>57.6</ele>
        <time>2023-02-08T14:10:10Z</time>
      </trkpt>
      <trkpt lat="49.80103" lon="2.19315">
        <ele>57.6</ele>
        <time>2023-02-08T14:10:12Z</time>
      </trkpt>
      <trkpt lat="49.80104" lon="2.19317">
        <ele>57.6</ele>
        <time>2023-02-08T14:10:13Z</time>
      </trkpt>
      <trkpt lat="49.80105" lon="2.19317">
        <ele>57.6</ele>
        <time>2023-02-08T14:10:14Z</time>
      </trkpt>
      <trkpt lat="49.80106" lon="2.19318">
        <ele>57.6</ele>
        <time>2023-02-08T14:10:15Z</time>
      </trkpt>
      <trkpt lat="49.80108" lon="2.19319">
        <ele>57.6</ele>
        <time>2023-02-08T14:10:16Z</time>
      </trkpt>
      <trkpt lat="49.80109" lon="2.1932">
        <ele>57.7</ele>
        <time>2023-02-08T14:10:17Z</time>
      </trkpt>
      <trkpt lat="49.80109" lon="2.19321">
        <ele>57.7</ele>
        <time>2023-02-08T14:10:18Z</time>
      </trkpt>
      <trkpt lat="49.8011" lon="2.19321">
        <ele>57.7</ele>
        <time>2023-02-08T14:10:19Z</time>
      </trkpt>
      <trkpt lat="49.80111" lon="2.19322">
        <ele>57.7</ele>
        <time>2023-02-08T14:10:21Z</time>
      </trkpt>
      <trkpt lat="49.80112" lon="2.19323">
        <ele>57.7</ele>
        <time>2023-02-08T14:10:22Z</time>
      </trkpt>
      <trkpt lat="49.80114" lon="2.19325">
        <ele>57.7</ele>
        <time>2023-02-08T14:10:23Z</time>
      </trkpt>
      <trkpt lat="49.80114" lon="2.19326">
        <ele>57.8</ele>
        <time>2023-02-08T14:10:24Z</time>
      </trkpt>
      <trkpt lat="49.80115" lon="2.19326">
        <ele>57.8</ele>
        <time>2023-02-08T14:10:25Z</time>
      </trkpt>
      <trkpt lat="49.80116" lon="2.19328">
        <ele>57.8</ele>
        <time>2023-02-08T14:10:26Z</time>
      </trkpt>
      <trkpt lat="49.80117" lon="2.19329">
        <ele>57.8</ele>
        <time>2023-02-08T14:10:27Z</time>
      </trkpt>
      <trkpt lat="49.80118" lon="2.1933">
        <ele>57.9</ele>
        <time>2023-02-08T14:10:28Z</time>
      </trkpt>
      <trkpt lat="49.80119" lon="2.1933">
        <ele>57.9</ele>
        <time>2023-02-08T14:10:30Z</time>
      </trkpt>
      <trkpt lat="49.8012" lon="2.19332">
        <ele>57.9</ele>
        <time>2023-02-08T14:10:31Z</time>
      </trkpt>
      <trkpt lat="49.80121" lon="2.19332">
        <ele>57.9</ele>
        <time>2023-02-08T14:10:32Z</time>
      </trkpt>
      <trkpt lat="49.80123" lon="2.19334">
        <ele>57.9</ele>
        <time>2023-02-08T14:10:33Z</time>
      </trkpt>
      <trkpt lat="49.80123" lon="2.19335">
        <ele>57.9</ele>
        <time>2023-02-08T14:10:34Z</time>
      </trkpt>
      <trkpt lat="49.80124" lon="2.19335">
        <ele>58</ele>
        <time>2023-02-08T14:10:35Z</time>
      </trkpt>
      <trkpt lat="49.80126" lon="2.19337">
        <ele>58</ele>
        <time>2023-02-08T14:10:36Z</time>
      </trkpt>
      <trkpt lat="49.80127" lon="2.19337">
        <ele>58.1</ele>
        <time>2023-02-08T14:10:37Z</time>
      </trkpt>
      <trkpt lat="49.80127" lon="2.19338">
        <ele>58.1</ele>
        <time>2023-02-08T14:10:38Z</time>
      </trkpt>
      <trkpt lat="49.80128" lon="2.19339">
        <ele>58.1</ele>
        <time>2023-02-08T14:10:40Z</time>
      </trkpt>
      <trkpt lat="49.80129" lon="2.1934">
        <ele>58.2</ele>
        <time>2023-02-08T14:10:41Z</time>
      </trkpt>
      <trkpt lat="49.8013" lon="2.19341">
        <ele>58.2</ele>
        <time>2023-02-08T14:10:42Z</time>
      </trkpt>
      <trkpt lat="49.80131" lon="2.19342">
        <ele>58.3</ele>
        <time>2023-02-08T14:10:43Z</time>
      </trkpt>
      <trkpt lat="49.80132" lon="2.19342">
        <ele>58.3</ele>
        <time>2023-02-08T14:10:44Z</time>
      </trkpt>
      <trkpt lat="49.80133" lon="2.19343">
        <ele>58.3</ele>
        <time>2023-02-08T14:10:45Z</time>
      </trkpt>
      <trkpt lat="49.80134" lon="2.19344">
        <ele>58.4</ele>
        <time>2023-02-08T14:10:46Z</time>
      </trkpt>
      <trkpt lat="49.80135" lon="2.19345">
        <ele>58.3</ele>
        <time>2023-02-08T14:10:47Z</time>
      </trkpt>
      <trkpt lat="49.80136" lon="2.19346">
        <ele>58.4</ele>
        <time>2023-02-08T14:10:49Z</time>
      </trkpt>
      <trkpt lat="49.80137" lon="2.19347">
        <ele>58.4</ele>
        <time>2023-02-08T14:10:50Z</time>
      </trkpt>
      <trkpt lat="49.80138" lon="2.19348">
        <ele>58.5</ele>
        <time>2023-02-08T14:10:51Z</time>
      </trkpt>
      <trkpt lat="49.80139" lon="2.19348">
        <ele>58.5</ele>
        <time>2023-02-08T14:10:52Z</time>
      </trkpt>
      <trkpt lat="49.8014" lon="2.19349">
        <ele>58.6</ele>
        <time>2023-02-08T14:10:53Z</time>
      </trkpt>
      <trkpt lat="49.80141" lon="2.19349">
        <ele>58.6</ele>
        <time>2023-02-08T14:10:54Z</time>
      </trkpt>
      <trkpt lat="49.80142" lon="2.1935">
        <ele>58.7</ele>
        <time>2023-02-08T14:10:55Z</time>
      </trkpt>
      <trkpt lat="49.80144" lon="2.19351">
        <ele>58.7</ele>
        <time>2023-02-08T14:10:56Z</time>
      </trkpt>
      <trkpt lat="49.80144" lon="2.19352">
        <ele>58.7</ele>
        <time>2023-02-08T14:10:58Z</time>
      </trkpt>
      <trkpt lat="49.80145" lon="2.19353">
        <ele>58.8</ele>
        <time>2023-02-08T14:10:59Z</time>
      </trkpt>
      <trkpt lat="49.80146" lon="2.19353">
        <ele>58.8</ele>
        <time>2023-02-08T14:11:00Z</time>
      </trkpt>
      <trkpt lat="49.80148" lon="2.19355">
        <ele>58.9</ele>
        <time>2023-02-08T14:11:01Z</time>
      </trkpt>
      <trkpt lat="49.80149" lon="2.19355">
        <ele>59</ele>
        <time>2023-02-08T14:11:02Z</time>
      </trkpt>
      <trkpt lat="49.8015" lon="2.19356">
        <ele>59</ele>
        <time>2023-02-08T14:11:03Z</time>
      </trkpt>
      <trkpt lat="49.80151" lon="2.19357">
        <ele>59.1</ele>
        <time>2023-02-08T14:11:04Z</time>
      </trkpt>
      <trkpt lat="49.80153" lon="2.19358">
        <ele>59.1</ele>
        <time>2023-02-08T14:11:06Z</time>
      </trkpt>
      <trkpt lat="49.80154" lon="2.19359">
        <ele>59.2</ele>
        <time>2023-02-08T14:11:07Z</time>
      </trkpt>
      <trkpt lat="49.80155" lon="2.19359">
        <ele>59.2</ele>
        <time>2023-02-08T14:11:08Z</time>
      </trkpt>
      <trkpt lat="49.80156" lon="2.1936">
        <ele>59.3</ele>
        <time>2023-02-08T14:11:09Z</time>
      </trkpt>
      <trkpt lat="49.80157" lon="2.1936">
        <ele>59.3</ele>
        <time>2023-02-08T14:11:10Z</time>
      </trkpt>
      <trkpt lat="49.80158" lon="2.19362">
        <ele>59.4</ele>
        <time>2023-02-08T14:11:11Z</time>
      </trkpt>
      <trkpt lat="49.80159" lon="2.19362">
        <ele>59.4</ele>
        <time>2023-02-08T14:11:12Z</time>
      </trkpt>
      <trkpt lat="49.80159" lon="2.19363">
        <ele>59.4</ele>
        <time>2023-02-08T14:11:14Z</time>
      </trkpt>
      <trkpt lat="49.8016" lon="2.19363">
        <ele>59.5</ele>
        <time>2023-02-08T14:11:15Z</time>
      </trkpt>
      <trkpt lat="49.80161" lon="2.19364">
        <ele>59.5</ele>
        <time>2023-02-08T14:11:16Z</time>
      </trkpt>
      <trkpt lat="49.80162" lon="2.19365">
        <ele>59.5</ele>
        <time>2023-02-08T14:11:17Z</time>
      </trkpt>
      <trkpt lat="49.80162" lon="2.19366">
        <ele>59.6</ele>
        <time>2023-02-08T14:11:18Z</time>
      </trkpt>
      <trkpt lat="49.80163" lon="2.19367">
        <ele>59.6</ele>
        <time>2023-02-08T14:11:19Z</time>
      </trkpt>
      <trkpt lat="49.80164" lon="2.19369">
        <ele>59.7</ele>
        <time>2023-02-08T14:11:20Z</time>
      </trkpt>
      <trkpt lat="49.80165" lon="2.1937">
        <ele>59.7</ele>
        <time>2023-02-08T14:11:22Z</time>
      </trkpt>
      <trkpt lat="49.80166" lon="2.19371">
        <ele>59.8</ele>
        <time>2023-02-08T14:11:23Z</time>
      </trkpt>
      <trkpt lat="49.80167" lon="2.19371">
        <ele>59.8</ele>
        <time>2023-02-08T14:11:24Z</time>
      </trkpt>
      <trkpt lat="49.80168" lon="2.19372">
        <ele>59.9</ele>
        <time>2023-02-08T14:11:25Z</time>
      </trkpt>
      <trkpt lat="49.8017" lon="2.19373">
        <ele>60</ele>
        <time>2023-02-08T14:11:26Z</time>
      </trkpt>
      <trkpt lat="49.80171" lon="2.19374">
        <ele>60</ele>
        <time>2023-02-08T14:11:27Z</time>
      </trkpt>
      <trkpt lat="49.80172" lon="2.19375">
        <ele>60.1</ele>
        <time>2023-02-08T14:11:28Z</time>
      </trkpt>
      <trkpt lat="49.80173" lon="2.19376">
        <ele>60.1</ele>
        <time>2023-02-08T14:11:30Z</time>
      </trkpt>
      <trkpt lat="49.80174" lon="2.19377">
        <ele>60.1</ele>
        <time>2023-02-08T14:11:31Z</time>
      </trkpt>
      <trkpt lat="49.80174" lon="2.19377">
        <ele>60.2</ele>
        <time>2023-02-08T14:11:32Z</time>
      </trkpt>
      <trkpt lat="49.80175" lon="2.19378">
        <ele>60.2</ele>
        <time>2023-02-08T14:11:33Z</time>
      </trkpt>
      <trkpt lat="49.80177" lon="2.1938">
        <ele>60.3</ele>
        <time>2023-02-08T14:11:34Z</time>
      </trkpt>
      <trkpt lat="49.80178" lon="2.19381">
        <ele>60.4</ele>
        <time>2023-02-08T14:11:35Z</time>
      </trkpt>
      <trkpt lat="49.80179" lon="2.19381">
        <ele>60.4</ele>
        <time>2023-02-08T14:11:36Z</time>
      </trkpt>
      <trkpt lat="49.8018" lon="2.19382">
        <ele>60.5</ele>
        <time>2023-02-08T14:11:38Z</time>
      </trkpt>
      <trkpt lat="49.80181" lon="2.19383">
        <ele>60.5</ele>
        <time>2023-02-08T14:11:39Z</time>
      </trkpt>
      <trkpt lat="49.80182" lon="2.19383">
        <ele>60.6</ele>
        <time>2023-02-08T14:11:40Z</time>
      </trkpt>
      <trkpt lat="49.80184" lon="2.19384">
        <ele>60.6</ele>
        <time>2023-02-08T14:11:41Z</time>
      </trkpt>
      <trkpt lat="49.80185" lon="2.19384">
        <ele>60.6</ele>
        <time>2023-02-08T14:11:42Z</time>
      </trkpt>
      <trkpt lat="49.80186" lon="2.19385">
        <ele>60.7</ele>
        <time>2023-02-08T14:11:43Z</time>
      </trkpt>
      <trkpt lat="49.80187" lon="2.19385">
        <ele>60.7</ele>
        <time>2023-02-08T14:11:45Z</time>
      </trkpt>
      <trkpt lat="49.80188" lon="2.19386">
        <ele>60.8</ele>
        <time>2023-02-08T14:11:46Z</time>
      </trkpt>
      <trkpt lat="49.8019" lon="2.19387">
        <ele>60.9</ele>
        <time>2023-02-08T14:11:47Z</time>
      </trkpt>
      <trkpt lat="49.80191" lon="2.19387">
        <ele>60.9</ele>
        <time>2023-02-08T14:11:48Z</time>
      </trkpt>
      <trkpt lat="49.80192" lon="2.19387">
        <ele>60.9</ele>
        <time>2023-02-08T14:11:49Z</time>
      </trkpt>
      <trkpt lat="49.80193" lon="2.19388">
        <ele>61</ele>
        <time>2023-02-08T14:11:50Z</time>
      </trkpt>
      <trkpt lat="49.80195" lon="2.19389">
        <ele>61.1</ele>
        <time>2023-02-08T14:11:51Z</time>
      </trkpt>
      <trkpt lat="49.80195" lon="2.1939">
        <ele>61.1</ele>
        <time>2023-02-08T14:11:52Z</time>
      </trkpt>
      <trkpt lat="49.80196" lon="2.19391">
        <ele>61.1</ele>
        <time>2023-02-08T14:11:54Z</time>
      </trkpt>
      <trkpt lat="49.80197" lon="2.19392">
        <ele>61.2</ele>
        <time>2023-02-08T14:11:55Z</time>
      </trkpt>
      <trkpt lat="49.80198" lon="2.19393">
        <ele>61.2</ele>
        <time>2023-02-08T14:11:56Z</time>
      </trkpt>
      <trkpt lat="49.802" lon="2.19394">
        <ele>61.2</ele>
        <time>2023-02-08T14:11:57Z</time>
      </trkpt>
      <trkpt lat="49.80201" lon="2.19395">
        <ele>61.2</ele>
        <time>2023-02-08T14:11:58Z</time>
      </trkpt>
      <trkpt lat="49.80202" lon="2.19396">
        <ele>61.3</ele>
        <time>2023-02-08T14:11:59Z</time>
      </trkpt>
      <trkpt lat="49.80203" lon="2.19397">
        <ele>61.3</ele>
        <time>2023-02-08T14:12:00Z</time>
      </trkpt>
      <trkpt lat="49.80204" lon="2.19398">
        <ele>61.4</ele>
        <time>2023-02-08T14:12:02Z</time>
      </trkpt>
      <trkpt lat="49.80204" lon="2.19398">
        <ele>61.4</ele>
        <time>2023-02-08T14:12:03Z</time>
      </trkpt>
      <trkpt lat="49.80205" lon="2.19399">
        <ele>61.4</ele>
        <time>2023-02-08T14:12:04Z</time>
      </trkpt>
      <trkpt lat="49.80207" lon="2.194">
        <ele>61.5</ele>
        <time>2023-02-08T14:12:05Z</time>
      </trkpt>
      <trkpt lat="49.80208" lon="2.19401">
        <ele>61.5</ele>
        <time>2023-02-08T14:12:06Z</time>
      </trkpt>
      <trkpt lat="49.80209" lon="2.19402">
        <ele>61.6</ele>
        <time>2023-02-08T14:12:07Z</time>
      </trkpt>
      <trkpt lat="49.8021" lon="2.19403">
        <ele>61.6</ele>
        <time>2023-02-08T14:12:08Z</time>
      </trkpt>
      <trkpt lat="49.80211" lon="2.19403">
        <ele>61.6</ele>
        <time>2023-02-08T14:12:09Z</time>
      </trkpt>
      <trkpt lat="49.80212" lon="2.19404">
        <ele>61.7</ele>
        <time>2023-02-08T14:12:10Z</time>
      </trkpt>
      <trkpt lat="49.80213" lon="2.19405">
        <ele>61.7</ele>
        <time>2023-02-08T14:12:12Z</time>
      </trkpt>
      <trkpt lat="49.80214" lon="2.19405">
        <ele>61.7</ele>
        <time>2023-02-08T14:12:13Z</time>
      </trkpt>
      <trkpt lat="49.80215" lon="2.19406">
        <ele>61.8</ele>
        <time>2023-02-08T14:12:14Z</time>
      </trkpt>
      <trkpt lat="49.80217" lon="2.19407">
        <ele>61.8</ele>
        <time>2023-02-08T14:12:15Z</time>
      </trkpt>
      <trkpt lat="49.80218" lon="2.19409">
        <ele>61.8</ele>
        <time>2023-02-08T14:12:16Z</time>
      </trkpt>
      <trkpt lat="49.8022" lon="2.19411">
        <ele>61.9</ele>
        <time>2023-02-08T14:12:17Z</time>
      </trkpt>
      <trkpt lat="49.8022" lon="2.19411">
        <ele>61.9</ele>
        <time>2023-02-08T14:12:18Z</time>
      </trkpt>
      <trkpt lat="49.80221" lon="2.19412">
        <ele>61.9</ele>
        <time>2023-02-08T14:12:19Z</time>
      </trkpt>
      <trkpt lat="49.80222" lon="2.19413">
        <ele>62</ele>
        <time>2023-02-08T14:12:21Z</time>
      </trkpt>
      <trkpt lat="49.80223" lon="2.19414">
        <ele>62</ele>
        <time>2023-02-08T14:12:22Z</time>
      </trkpt>
      <trkpt lat="49.80224" lon="2.19415">
        <ele>62</ele>
        <time>2023-02-08T14:12:23Z</time>
      </trkpt>
      <trkpt lat="49.80225" lon="2.19415">
        <ele>62.1</ele>
        <time>2023-02-08T14:12:24Z</time>
      </trkpt>
      <trkpt lat="49.80227" lon="2.19416">
        <ele>62.1</ele>
        <time>2023-02-08T14:12:25Z</time>
      </trkpt>
      <trkpt lat="49.80227" lon="2.19416">
        <ele>62.1</ele>
        <time>2023-02-08T14:12:26Z</time>
      </trkpt>
      <trkpt lat="49.80229" lon="2.19417">
        <ele>62.1</ele>
        <time>2023-02-08T14:12:27Z</time>
      </trkpt>
      <trkpt lat="49.8023" lon="2.19418">
        <ele>62.2</ele>
        <time>2023-02-08T14:12:28Z</time>
      </trkpt>
      <trkpt lat="49.80232" lon="2.1942">
        <ele>62.2</ele>
        <time>2023-02-08T14:12:29Z</time>
      </trkpt>
      <trkpt lat="49.80233" lon="2.1942">
        <ele>62.2</ele>
        <time>2023-02-08T14:12:31Z</time>
      </trkpt>
      <trkpt lat="49.80233" lon="2.19421">
        <ele>62.3</ele>
        <time>2023-02-08T14:12:32Z</time>
      </trkpt>
      <trkpt lat="49.80235" lon="2.19422">
        <ele>62.3</ele>
        <time>2023-02-08T14:12:33Z</time>
      </trkpt>
      <trkpt lat="49.80236" lon="2.19423">
        <ele>62.3</ele>
        <time>2023-02-08T14:12:34Z</time>
      </trkpt>
      <trkpt lat="49.80237" lon="2.19424">
        <ele>62.3</ele>
        <time>2023-02-08T14:12:35Z</time>
      </trkpt>
      <trkpt lat="49.80238" lon="2.19425">
        <ele>62.4</ele>
        <time>2023-02-08T14:12:36Z</time>
      </trkpt>
      <trkpt lat="49.80239" lon="2.19426">
        <ele>62.4</ele>
        <time>2023-02-08T14:12:37Z</time>
      </trkpt>
      <trkpt lat="49.80241" lon="2.19428">
        <ele>62.4</ele>
        <time>2023-02-08T14:12:38Z</time>
      </trkpt>
      <trkpt lat="49.80242" lon="2.19428">
        <ele>62.4</ele>
        <time>2023-02-08T14:12:39Z</time>
      </trkpt>
      <trkpt lat="49.80243" lon="2.19429">
        <ele>62.4</ele>
        <time>2023-02-08T14:12:41Z</time>
      </trkpt>
      <trkpt lat="49.80244" lon="2.1943">
        <ele>62.5</ele>
        <time>2023-02-08T14:12:42Z</time>
      </trkpt>
      <trkpt lat="49.80245" lon="2.1943">
        <ele>62.5</ele>
        <time>2023-02-08T14:12:43Z</time>
      </trkpt>
      <trkpt lat="49.80246" lon="2.19431">
        <ele>62.5</ele>
        <time>2023-02-08T14:12:44Z</time>
      </trkpt>
      <trkpt lat="49.80248" lon="2.19432">
        <ele>62.5</ele>
        <time>2023-02-08T14:12:45Z</time>
      </trkpt>
      <trkpt lat="49.80248" lon="2.19433">
        <ele>62.5</ele>
        <time>2023-02-08T14:12:46Z</time>
      </trkpt>
      <trkpt lat="49.80249" lon="2.19433">
        <ele>62.5</ele>
        <time>2023-02-08T14:12:47Z</time>
      </trkpt>
      <trkpt lat="49.80251" lon="2.19434">
        <ele>62.6</ele>
        <time>2023-02-08T14:12:48Z</time>
      </trkpt>
      <trkpt lat="49.80252" lon="2.19435">
        <ele>62.6</ele>
        <time>2023-02-08T14:12:49Z</time>
      </trkpt>
      <trkpt lat="49.80253" lon="2.19435">
        <ele>62.6</ele>
        <time>2023-02-08T14:12:51Z</time>
      </trkpt>
      <trkpt lat="49.80254" lon="2.19436">
        <ele>62.6</ele>
        <time>2023-02-08T14:12:52Z</time>
      </trkpt>
      <trkpt lat="49.80255" lon="2.19436">
        <ele>62.6</ele>
        <time>2023-02-08T14:12:53Z</time>
      </trkpt>
      <trkpt lat="49.80256" lon="2.19437">
        <ele>62.6</ele>
        <time>2023-02-08T14:12:54Z</time>
      </trkpt>
      <trkpt lat="49.80257" lon="2.19438">
        <ele>62.6</ele>
        <time>2023-02-08T14:12:55Z</time>
      </trkpt>
      <trkpt lat="49.80259" lon="2.19438">
        <ele>62.6</ele>
        <time>2023-02-08T14:12:56Z</time>
      </trkpt>
      <trkpt lat="49.8026" lon="2.19439">
        <ele>62.6</ele>
        <time>2023-02-08T14:12:57Z</time>
      </trkpt>
      <trkpt lat="49.80261" lon="2.1944">
        <ele>62.7</ele>
        <time>2023-02-08T14:12:58Z</time>
      </trkpt>
      <trkpt lat="49.80262" lon="2.19441">
        <ele>62.7</ele>
        <time>2023-02-08T14:12:59Z</time>
      </trkpt>
      <trkpt lat="49.80264" lon="2.19442">
        <ele>62.7</ele>
        <time>2023-02-08T14:13:00Z</time>
      </trkpt>
      <trkpt lat="49.80265" lon="2.19443">
        <ele>62.7</ele>
        <time>2023-02-08T14:13:02Z</time>
      </trkpt>
      <trkpt lat="49.80266" lon="2.19444">
        <ele>62.7</ele>
        <time>2023-02-08T14:13:03Z</time>
      </trkpt>
      <trkpt lat="49.80267" lon="2.19444">
        <ele>62.7</ele>
        <time>2023-02-08T14:13:04Z</time>
      </trkpt>
      <trkpt lat="49.80269" lon="2.19445">
        <ele>62.7</ele>
        <time>2023-02-08T14:13:05Z</time>
      </trkpt>
      <trkpt lat="49.8027" lon="2.19446">
        <ele>62.7</ele>
        <time>2023-02-08T14:13:06Z</time>
      </trkpt>
      <trkpt lat="49.80272" lon="2.19447">
        <ele>62.7</ele>
        <time>2023-02-08T14:13:08Z</time>
      </trkpt>
      <trkpt lat="49.80273" lon="2.19448">
        <ele>62.7</ele>
        <time>2023-02-08T14:13:09Z</time>
      </trkpt>
      <trkpt lat="49.80274" lon="2.19449">
        <ele>62.7</ele>
        <time>2023-02-08T14:13:10Z</time>
      </trkpt>
      <trkpt lat="49.80275" lon="2.1945">
        <ele>62.7</ele>
        <time>2023-02-08T14:13:11Z</time>
      </trkpt>
      <trkpt lat="49.80277" lon="2.19451">
        <ele>62.7</ele>
        <time>2023-02-08T14:13:12Z</time>
      </trkpt>
      <trkpt lat="49.80278" lon="2.19451">
        <ele>62.7</ele>
        <time>2023-02-08T14:13:13Z</time>
      </trkpt>
      <trkpt lat="49.80279" lon="2.19452">
        <ele>62.6</ele>
        <time>2023-02-08T14:13:14Z</time>
      </trkpt>
      <trkpt lat="49.8028" lon="2.19453">
        <ele>62.6</ele>
        <time>2023-02-08T14:13:15Z</time>
      </trkpt>
      <trkpt lat="49.80282" lon="2.19453">
        <ele>62.6</ele>
        <time>2023-02-08T14:13:17Z</time>
      </trkpt>
      <trkpt lat="49.80284" lon="2.19454">
        <ele>62.6</ele>
        <time>2023-02-08T14:13:18Z</time>
      </trkpt>
      <trkpt lat="49.80285" lon="2.19455">
        <ele>62.6</ele>
        <time>2023-02-08T14:13:19Z</time>
      </trkpt>
      <trkpt lat="49.80286" lon="2.19455">
        <ele>62.6</ele>
        <time>2023-02-08T14:13:20Z</time>
      </trkpt>
      <trkpt lat="49.80287" lon="2.19456">
        <ele>62.6</ele>
        <time>2023-02-08T14:13:21Z</time>
      </trkpt>
      <trkpt lat="49.80289" lon="2.19457">
        <ele>62.6</ele>
        <time>2023-02-08T14:13:23Z</time>
      </trkpt>
      <trkpt lat="49.8029" lon="2.19457">
        <ele>62.6</ele>
        <time>2023-02-08T14:13:24Z</time>
      </trkpt>
      <trkpt lat="49.80291" lon="2.19458">
        <ele>62.5</ele>
        <time>2023-02-08T14:13:25Z</time>
      </trkpt>
      <trkpt lat="49.80293" lon="2.1946">
        <ele>62.5</ele>
        <time>2023-02-08T14:13:26Z</time>
      </trkpt>
      <trkpt lat="49.80294" lon="2.19461">
        <ele>62.5</ele>
        <time>2023-02-08T14:13:28Z</time>
      </trkpt>
      <trkpt lat="49.80294" lon="2.19462">
        <ele>62.5</ele>
        <time>2023-02-08T14:13:29Z</time>
      </trkpt>
      <trkpt lat="49.80296" lon="2.19464">
        <ele>62.4</ele>
        <time>2023-02-08T14:13:30Z</time>
      </trkpt>
      <trkpt lat="49.80297" lon="2.19464">
        <ele>62.4</ele>
        <time>2023-02-08T14:13:31Z</time>
      </trkpt>
      <trkpt lat="49.80297" lon="2.19465">
        <ele>62.4</ele>
        <time>2023-02-08T14:13:32Z</time>
      </trkpt>
      <trkpt lat="49.80299" lon="2.19466">
        <ele>62.4</ele>
        <time>2023-02-08T14:13:33Z</time>
      </trkpt>
      <trkpt lat="49.803" lon="2.19467">
        <ele>62.3</ele>
        <time>2023-02-08T14:13:35Z</time>
      </trkpt>
      <trkpt lat="49.803" lon="2.19467">
        <ele>62.3</ele>
        <time>2023-02-08T14:13:36Z</time>
      </trkpt>
      <trkpt lat="49.80301" lon="2.19468">
        <ele>62.3</ele>
        <time>2023-02-08T14:13:37Z</time>
      </trkpt>
      <trkpt lat="49.80302" lon="2.19468">
        <ele>62.3</ele>
        <time>2023-02-08T14:13:38Z</time>
      </trkpt>
      <trkpt lat="49.80303" lon="2.19469">
        <ele>62.3</ele>
        <time>2023-02-08T14:13:39Z</time>
      </trkpt>
      <trkpt lat="49.80303" lon="2.1947">
        <ele>62.3</ele>
        <time>2023-02-08T14:13:40Z</time>
      </trkpt>
      <trkpt lat="49.80304" lon="2.19471">
        <ele>62.2</ele>
        <time>2023-02-08T14:13:42Z</time>
      </trkpt>
      <trkpt lat="49.80306" lon="2.19473">
        <ele>62.2</ele>
        <time>2023-02-08T14:13:43Z</time>
      </trkpt>
      <trkpt lat="49.80306" lon="2.19474">
        <ele>62.1</ele>
        <time>2023-02-08T14:13:44Z</time>
      </trkpt>
      <trkpt lat="49.80307" lon="2.19475">
        <ele>62.1</ele>
        <time>2023-02-08T14:13:45Z</time>
      </trkpt>
      <trkpt lat="49.80308" lon="2.19476">
        <ele>62.1</ele>
        <time>2023-02-08T14:13:46Z</time>
      </trkpt>
      <trkpt lat="49.8031" lon="2.19477">
        <ele>62</ele>
        <time>2023-02-08T14:13:47Z</time>
      </trkpt>
      <trkpt lat="49.8031" lon="2.19477">
        <ele>62</ele>
        <time>2023-02-08T14:13:48Z</time>
      </trkpt>
      <trkpt lat="49.80312" lon="2.19478">
        <ele>62</ele>
        <time>2023-02-08T14:13:50Z</time>
      </trkpt>
      <trkpt lat="49.80313" lon="2.19478">
        <ele>62</ele>
        <time>2023-02-08T14:13:51Z</time>
      </trkpt>
      <trkpt lat="49.80314" lon="2.19479">
        <ele>61.9</ele>
        <time>2023-02-08T14:13:52Z</time>
      </trkpt>
      <trkpt lat="49.80315" lon="2.19479">
        <ele>61.9</ele>
        <time>2023-02-08T14:13:53Z</time>
      </trkpt>
      <trkpt lat="49.80318" lon="2.1948">
        <ele>61.8</ele>
        <time>2023-02-08T14:13:54Z</time>
      </trkpt>
      <trkpt lat="49.80318" lon="2.1948">
        <ele>61.8</ele>
        <time>2023-02-08T14:13:55Z</time>
      </trkpt>
      <trkpt lat="49.80319" lon="2.19481">
        <ele>61.8</ele>
        <time>2023-02-08T14:13:56Z</time>
      </trkpt>
      <trkpt lat="49.80321" lon="2.19481">
        <ele>61.7</ele>
        <time>2023-02-08T14:13:57Z</time>
      </trkpt>
      <trkpt lat="49.80322" lon="2.19482">
        <ele>61.7</ele>
        <time>2023-02-08T14:13:58Z</time>
      </trkpt>
      <trkpt lat="49.80324" lon="2.19483">
        <ele>61.6</ele>
        <time>2023-02-08T14:14:00Z</time>
      </trkpt>
      <trkpt lat="49.80325" lon="2.19484">
        <ele>61.6</ele>
        <time>2023-02-08T14:14:01Z</time>
      </trkpt>
      <trkpt lat="49.80326" lon="2.19484">
        <ele>61.6</ele>
        <time>2023-02-08T14:14:02Z</time>
      </trkpt>
      <trkpt lat="49.80327" lon="2.19485">
        <ele>61.6</ele>
        <time>2023-02-08T14:14:03Z</time>
      </trkpt>
      <trkpt lat="49.80328" lon="2.19485">
        <ele>61.5</ele>
        <time>2023-02-08T14:14:04Z</time>
      </trkpt>
      <trkpt lat="49.80329" lon="2.19486">
        <ele>61.5</ele>
        <time>2023-02-08T14:14:05Z</time>
      </trkpt>
      <trkpt lat="49.80331" lon="2.19487">
        <ele>61.4</ele>
        <time>2023-02-08T14:14:06Z</time>
      </trkpt>
      <trkpt lat="49.80333" lon="2.19488">
        <ele>61.4</ele>
        <time>2023-02-08T14:14:07Z</time>
      </trkpt>
      <trkpt lat="49.80333" lon="2.19488">
        <ele>61.4</ele>
        <time>2023-02-08T14:14:09Z</time>
      </trkpt>
      <trkpt lat="49.80335" lon="2.19489">
        <ele>61.3</ele>
        <time>2023-02-08T14:14:10Z</time>
      </trkpt>
      <trkpt lat="49.80336" lon="2.1949">
        <ele>61.3</ele>
        <time>2023-02-08T14:14:11Z</time>
      </trkpt>
      <trkpt lat="49.80337" lon="2.1949">
        <ele>61.3</ele>
        <time>2023-02-08T14:14:12Z</time>
      </trkpt>
      <trkpt lat="49.80339" lon="2.19491">
        <ele>61.2</ele>
        <time>2023-02-08T14:14:13Z</time>
      </trkpt>
      <trkpt lat="49.80341" lon="2.19492">
        <ele>61.2</ele>
        <time>2023-02-08T14:14:14Z</time>
      </trkpt>
      <trkpt lat="49.80341" lon="2.19493">
        <ele>61.2</ele>
        <time>2023-02-08T14:14:15Z</time>
      </trkpt>
      <trkpt lat="49.80342" lon="2.19493">
        <ele>61.1</ele>
        <time>2023-02-08T14:14:16Z</time>
      </trkpt>
      <trkpt lat="49.80345" lon="2.19495">
        <ele>61.1</ele>
        <time>2023-02-08T14:14:17Z</time>
      </trkpt>
      <trkpt lat="49.80345" lon="2.19495">
        <ele>61.1</ele>
        <time>2023-02-08T14:14:18Z</time>
      </trkpt>
      <trkpt lat="49.80346" lon="2.19495">
        <ele>61</ele>
        <time>2023-02-08T14:14:19Z</time>
      </trkpt>
      <trkpt lat="49.80348" lon="2.19497">
        <ele>61</ele>
        <time>2023-02-08T14:14:21Z</time>
      </trkpt>
      <trkpt lat="49.80349" lon="2.19498">
        <ele>61</ele>
        <time>2023-02-08T14:14:22Z</time>
      </trkpt>
      <trkpt lat="49.8035" lon="2.19498">
        <ele>61</ele>
        <time>2023-02-08T14:14:23Z</time>
      </trkpt>
      <trkpt lat="49.80352" lon="2.195">
        <ele>60.9</ele>
        <time>2023-02-08T14:14:24Z</time>
      </trkpt>
      <trkpt lat="49.80353" lon="2.195">
        <ele>60.9</ele>
        <time>2023-02-08T14:14:25Z</time>
      </trkpt>
      <trkpt lat="49.80354" lon="2.19501">
        <ele>60.9</ele>
        <time>2023-02-08T14:14:27Z</time>
      </trkpt>
      <trkpt lat="49.80355" lon="2.19502">
        <ele>60.9</ele>
        <time>2023-02-08T14:14:28Z</time>
      </trkpt>
      <trkpt lat="49.80356" lon="2.19502">
        <ele>60.8</ele>
        <time>2023-02-08T14:14:29Z</time>
      </trkpt>
      <trkpt lat="49.80357" lon="2.19503">
        <ele>60.8</ele>
        <time>2023-02-08T14:14:30Z</time>
      </trkpt>
      <trkpt lat="49.80358" lon="2.19504">
        <ele>60.8</ele>
        <time>2023-02-08T14:14:31Z</time>
      </trkpt>
      <trkpt lat="49.8036" lon="2.19505">
        <ele>60.8</ele>
        <time>2023-02-08T14:14:32Z</time>
      </trkpt>
      <trkpt lat="49.80361" lon="2.19505">
        <ele>60.8</ele>
        <time>2023-02-08T14:14:33Z</time>
      </trkpt>
      <trkpt lat="49.80362" lon="2.19506">
        <ele>60.8</ele>
        <time>2023-02-08T14:14:34Z</time>
      </trkpt>
      <trkpt lat="49.80363" lon="2.19506">
        <ele>60.8</ele>
        <time>2023-02-08T14:14:35Z</time>
      </trkpt>
      <trkpt lat="49.80365" lon="2.19507">
        <ele>60.8</ele>
        <time>2023-02-08T14:14:36Z</time>
      </trkpt>
      <trkpt lat="49.80367" lon="2.19509">
        <ele>60.8</ele>
        <time>2023-02-08T14:14:37Z</time>
      </trkpt>
      <trkpt lat="49.80367" lon="2.19509">
        <ele>60.8</ele>
        <time>2023-02-08T14:14:39Z</time>
      </trkpt>
      <trkpt lat="49.80368" lon="2.1951">
        <ele>60.8</ele>
        <time>2023-02-08T14:14:40Z</time>
      </trkpt>
      <trkpt lat="49.80369" lon="2.19511">
        <ele>60.7</ele>
        <time>2023-02-08T14:14:41Z</time>
      </trkpt>
      <trkpt lat="49.8037" lon="2.19513">
        <ele>60.7</ele>
        <time>2023-02-08T14:14:42Z</time>
      </trkpt>
      <trkpt lat="49.80371" lon="2.19514">
        <ele>60.7</ele>
        <time>2023-02-08T14:14:43Z</time>
      </trkpt>
      <trkpt lat="49.80372" lon="2.19515">
        <ele>60.7</ele>
        <time>2023-02-08T14:14:44Z</time>
      </trkpt>
      <trkpt lat="49.80374" lon="2.19516">
        <ele>60.7</ele>
        <time>2023-02-08T14:14:45Z</time>
      </trkpt>
      <trkpt lat="49.80375" lon="2.19517">
        <ele>60.7</ele>
        <time>2023-02-08T14:14:47Z</time>
      </trkpt>
      <trkpt lat="49.80377" lon="2.19518">
        <ele>60.7</ele>
        <time>2023-02-08T14:14:48Z</time>
      </trkpt>
      <trkpt lat="49.80378" lon="2.19518">
        <ele>60.7</ele>
        <time>2023-02-08T14:14:49Z</time>
      </trkpt>
      <trkpt lat="49.80379" lon="2.1952">
        <ele>60.7</ele>
        <time>2023-02-08T14:14:50Z</time>
      </trkpt>
      <trkpt lat="49.8038" lon="2.19521">
        <ele>60.7</ele>
        <time>2023-02-08T14:14:51Z</time>
      </trkpt>
      <trkpt lat="49.80382" lon="2.19523">
        <ele>60.7</ele>
        <time>2023-02-08T14:14:52Z</time>
      </trkpt>
      <trkpt lat="49.80382" lon="2.19524">
        <ele>60.7</ele>
        <time>2023-02-08T14:14:53Z</time>
      </trkpt>
      <trkpt lat="49.80383" lon="2.19524">
        <ele>60.7</ele>
        <time>2023-02-08T14:14:54Z</time>
      </trkpt>
      <trkpt lat="49.80384" lon="2.19525">
        <ele>60.7</ele>
        <time>2023-02-08T14:14:55Z</time>
      </trkpt>
      <trkpt lat="49.80385" lon="2.19525">
        <ele>60.7</ele>
        <time>2023-02-08T14:14:56Z</time>
      </trkpt>
      <trkpt lat="49.80387" lon="2.19526">
        <ele>60.7</ele>
        <time>2023-02-08T14:14:58Z</time>
      </trkpt>
      <trkpt lat="49.80388" lon="2.19527">
        <ele>60.7</ele>
        <time>2023-02-08T14:14:59Z</time>
      </trkpt>
      <trkpt lat="49.80389" lon="2.19528">
        <ele>60.7</ele>
        <time>2023-02-08T14:15:00Z</time>
      </trkpt>
      <trkpt lat="49.8039" lon="2.19528">
        <ele>60.7</ele>
        <time>2023-02-08T14:15:01Z</time>
      </trkpt>
      <trkpt lat="49.80392" lon="2.1953">
        <ele>60.7</ele>
        <time>2023-02-08T14:15:02Z</time>
      </trkpt>
      <trkpt lat="49.80393" lon="2.19531">
        <ele>60.8</ele>
        <time>2023-02-08T14:15:03Z</time>
      </trkpt>
      <trkpt lat="49.80394" lon="2.19532">
        <ele>60.8</ele>
        <time>2023-02-08T14:15:05Z</time>
      </trkpt>
      <trkpt lat="49.80395" lon="2.19533">
        <ele>60.8</ele>
        <time>2023-02-08T14:15:06Z</time>
      </trkpt>
      <trkpt lat="49.80395" lon="2.19534">
        <ele>60.8</ele>
        <time>2023-02-08T14:15:07Z</time>
      </trkpt>
      <trkpt lat="49.80396" lon="2.19535">
        <ele>60.8</ele>
        <time>2023-02-08T14:15:09Z</time>
      </trkpt>
      <trkpt lat="49.80397" lon="2.19536">
        <ele>60.8</ele>
        <time>2023-02-08T14:15:10Z</time>
      </trkpt>
      <trkpt lat="49.80398" lon="2.19537">
        <ele>60.8</ele>
        <time>2023-02-08T14:15:11Z</time>
      </trkpt>
      <trkpt lat="49.80399" lon="2.19537">
        <ele>60.8</ele>
        <time>2023-02-08T14:15:12Z</time>
      </trkpt>
      <trkpt lat="49.804" lon="2.19538">
        <ele>60.8</ele>
        <time>2023-02-08T14:15:13Z</time>
      </trkpt>
      <trkpt lat="49.80401" lon="2.19538">
        <ele>60.8</ele>
        <time>2023-02-08T14:15:14Z</time>
      </trkpt>
      <trkpt lat="49.80403" lon="2.19539">
        <ele>60.8</ele>
        <time>2023-02-08T14:15:15Z</time>
      </trkpt>
      <trkpt lat="49.80404" lon="2.19539">
        <ele>60.8</ele>
        <time>2023-02-08T14:15:17Z</time>
      </trkpt>
      <trkpt lat="49.80405" lon="2.19539">
        <ele>60.8</ele>
        <time>2023-02-08T14:15:18Z</time>
      </trkpt>
      <trkpt lat="49.80406" lon="2.1954">
        <ele>60.8</ele>
        <time>2023-02-08T14:15:19Z</time>
      </trkpt>
      <trkpt lat="49.80407" lon="2.1954">
        <ele>60.8</ele>
        <time>2023-02-08T14:15:20Z</time>
      </trkpt>
      <trkpt lat="49.80408" lon="2.19541">
        <ele>60.9</ele>
        <time>2023-02-08T14:15:22Z</time>
      </trkpt>
      <trkpt lat="49.80409" lon="2.19542">
        <ele>60.9</ele>
        <time>2023-02-08T14:15:23Z</time>
      </trkpt>
      <trkpt lat="49.80409" lon="2.19542">
        <ele>60.9</ele>
        <time>2023-02-08T14:15:24Z</time>
      </trkpt>
      <trkpt lat="49.8041" lon="2.19543">
        <ele>60.9</ele>
        <time>2023-02-08T14:15:25Z</time>
      </trkpt>
      <trkpt lat="49.80411" lon="2.19543">
        <ele>60.9</ele>
        <time>2023-02-08T14:15:26Z</time>
      </trkpt>
      <trkpt lat="49.80412" lon="2.19544">
        <ele>60.9</ele>
        <time>2023-02-08T14:15:27Z</time>
      </trkpt>
      <trkpt lat="49.80413" lon="2.19544">
        <ele>60.9</ele>
        <time>2023-02-08T14:15:28Z</time>
      </trkpt>
      <trkpt lat="49.80414" lon="2.19545">
        <ele>60.9</ele>
        <time>2023-02-08T14:15:30Z</time>
      </trkpt>
      <trkpt lat="49.80415" lon="2.19545">
        <ele>60.9</ele>
        <time>2023-02-08T14:15:31Z</time>
      </trkpt>
      <trkpt lat="49.80416" lon="2.19546">
        <ele>60.9</ele>
        <time>2023-02-08T14:15:32Z</time>
      </trkpt>
      <trkpt lat="49.80417" lon="2.19546">
        <ele>60.9</ele>
        <time>2023-02-08T14:15:33Z</time>
      </trkpt>
      <trkpt lat="49.80418" lon="2.19547">
        <ele>60.9</ele>
        <time>2023-02-08T14:15:34Z</time>
      </trkpt>
      <trkpt lat="49.80419" lon="2.19547">
        <ele>60.9</ele>
        <time>2023-02-08T14:15:35Z</time>
      </trkpt>
      <trkpt lat="49.8042" lon="2.19548">
        <ele>60.9</ele>
        <time>2023-02-08T14:15:37Z</time>
      </trkpt>
      <trkpt lat="49.80422" lon="2.19548">
        <ele>61</ele>
        <time>2023-02-08T14:15:38Z</time>
      </trkpt>
      <trkpt lat="49.80422" lon="2.19548">
        <ele>61</ele>
        <time>2023-02-08T14:15:39Z</time>
      </trkpt>
      <trkpt lat="49.80424" lon="2.19548">
        <ele>61</ele>
        <time>2023-02-08T14:15:40Z</time>
      </trkpt>
      <trkpt lat="49.80425" lon="2.19548">
        <ele>61</ele>
        <time>2023-02-08T14:15:42Z</time>
      </trkpt>
      <trkpt lat="49.80426" lon="2.19548">
        <ele>61</ele>
        <time>2023-02-08T14:15:43Z</time>
      </trkpt>
      <trkpt lat="49.80427" lon="2.19548">
        <ele>61</ele>
        <time>2023-02-08T14:15:44Z</time>
      </trkpt>
      <trkpt lat="49.80428" lon="2.19548">
        <ele>61</ele>
        <time>2023-02-08T14:15:46Z</time>
      </trkpt>
      <trkpt lat="49.80428" lon="2.19548">
        <ele>61</ele>
        <time>2023-02-08T14:15:47Z</time>
      </trkpt>
      <trkpt lat="49.80429" lon="2.19548">
        <ele>61</ele>
        <time>2023-02-08T14:15:48Z</time>
      </trkpt>
      <trkpt lat="49.80429" lon="2.19548">
        <ele>61</ele>
        <time>2023-02-08T14:15:49Z</time>
      </trkpt>
      <trkpt lat="49.80429" lon="2.19548">
        <ele>61</ele>
        <time>2023-02-08T14:15:50Z</time>
      </trkpt>
      <trkpt lat="49.8043" lon="2.19548">
        <ele>61</ele>
        <time>2023-02-08T14:15:52Z</time>
      </trkpt>
      <trkpt lat="49.80429" lon="2.19547">
        <ele>61</ele>
        <time>2023-02-08T14:15:53Z</time>
      </trkpt>
      <trkpt lat="49.80429" lon="2.19547">
        <ele>61</ele>
        <time>2023-02-08T14:15:54Z</time>
      </trkpt>
      <trkpt lat="49.80429" lon="2.19547">
        <ele>61</ele>
        <time>2023-02-08T14:15:55Z</time>
      </trkpt>
      <trkpt lat="49.80429" lon="2.19547">
        <ele>61</ele>
        <time>2023-02-08T14:15:57Z</time>
      </trkpt>
      <trkpt lat="49.80429" lon="2.19547">
        <ele>61</ele>
        <time>2023-02-08T14:15:58Z</time>
      </trkpt>
      <trkpt lat="49.80429" lon="2.19547">
        <ele>61</ele>
        <time>2023-02-08T14:15:59Z</time>
      </trkpt>
      <trkpt lat="49.80429" lon="2.19547">
        <ele>61</ele>
        <time>2023-02-08T14:16:01Z</time>
      </trkpt>
      <trkpt lat="49.80428" lon="2.19547">
        <ele>61</ele>
        <time>2023-02-08T14:16:02Z</time>
      </trkpt>
      <trkpt lat="49.80428" lon="2.19547">
        <ele>61</ele>
        <time>2023-02-08T14:16:03Z</time>
      </trkpt>
      <trkpt lat="49.80428" lon="2.19547">
        <ele>61</ele>
        <time>2023-02-08T14:16:05Z</time>
      </trkpt>
      <trkpt lat="49.80428" lon="2.19547">
        <ele>61</ele>
        <time>2023-02-08T14:16:06Z</time>
      </trkpt>
      <trkpt lat="49.80428" lon="2.19548">
        <ele>61</ele>
        <time>2023-02-08T14:16:07Z</time>
      </trkpt>
      <trkpt lat="49.80427" lon="2.19548">
        <ele>61</ele>
        <time>2023-02-08T14:16:08Z</time>
      </trkpt>
      <trkpt lat="49.80427" lon="2.19548">
        <ele>61</ele>
        <time>2023-02-08T14:16:09Z</time>
      </trkpt>
      <trkpt lat="49.80427" lon="2.19548">
        <ele>61</ele>
        <time>2023-02-08T14:16:10Z</time>
      </trkpt>
      <trkpt lat="49.80427" lon="2.19548">
        <ele>61</ele>
        <time>2023-02-08T14:16:12Z</time>
      </trkpt>
      <trkpt lat="49.80427" lon="2.19548">
        <ele>61</ele>
        <time>2023-02-08T14:16:13Z</time>
      </trkpt>
      <trkpt lat="49.80427" lon="2.19548">
        <ele>61</ele>
        <time>2023-02-08T14:16:14Z</time>
      </trkpt>
      <trkpt lat="49.80427" lon="2.19548">
        <ele>61</ele>
        <time>2023-02-08T14:16:15Z</time>
      </trkpt>
      <trkpt lat="49.80427" lon="2.19548">
        <ele>61</ele>
        <time>2023-02-08T14:16:16Z</time>
      </trkpt>
      <trkpt lat="49.80427" lon="2.19548">
        <ele>61</ele>
        <time>2023-02-08T14:16:17Z</time>
      </trkpt>
      <trkpt lat="49.80427" lon="2.19548">
        <ele>61</ele>
        <time>2023-02-08T14:16:18Z</time>
      </trkpt>
      <trkpt lat="49.80427" lon="2.19548">
        <ele>61</ele>
        <time>2023-02-08T14:16:19Z</time>
      </trkpt>
      <trkpt lat="49.80427" lon="2.19548">
        <ele>61</ele>
        <time>2023-02-08T14:16:20Z</time>
      </trkpt>
      <trkpt lat="49.80427" lon="2.19548">
        <ele>61</ele>
        <time>2023-02-08T14:16:21Z</time>
      </trkpt>
      <trkpt lat="49.80427" lon="2.19548">
        <ele>61</ele>
        <time>2023-02-08T14:16:22Z</time>
      </trkpt>
      <trkpt lat="49.80427" lon="2.19548">
        <ele>61</ele>
        <time>2023-02-08T14:16:23Z</time>
      </trkpt>
      <trkpt lat="49.80427" lon="2.19548">
        <ele>61</ele>
        <time>2023-02-08T14:16:24Z</time>
      </trkpt>
      <trkpt lat="49.80427" lon="2.19548">
        <ele>61</ele>
        <time>2023-02-08T14:16:25Z</time>
      </trkpt>
      <trkpt lat="49.80427" lon="2.19548">
        <ele>61</ele>
        <time>2023-02-08T14:16:26Z</time>
      </trkpt>
      <trkpt lat="49.80426" lon="2.19548">
        <ele>61</ele>
        <time>2023-02-08T14:16:27Z</time>
      </trkpt>
      <trkpt lat="49.80425" lon="2.19547">
        <ele>61</ele>
        <time>2023-02-08T14:16:28Z</time>
      </trkpt>
      <trkpt lat="49.80425" lon="2.19547">
        <ele>61</ele>
        <time>2023-02-08T14:16:29Z</time>
      </trkpt>
      <trkpt lat="49.80425" lon="2.19547">
        <ele>61</ele>
        <time>2023-02-08T14:16:30Z</time>
      </trkpt>
      <trkpt lat="49.80425" lon="2.19547">
        <ele>61</ele>
        <time>2023-02-08T14:16:31Z</time>
      </trkpt>
      <trkpt lat="49.80425" lon="2.19547">
        <ele>61</ele>
        <time>2023-02-08T14:16:32Z</time>
      </trkpt>
      <trkpt lat="49.80425" lon="2.19547">
        <ele>61</ele>
        <time>2023-02-08T14:16:33Z</time>
      </trkpt>
      <trkpt lat="49.80425" lon="2.19547">
        <ele>61</ele>
        <time>2023-02-08T14:16:34Z</time>
      </trkpt>
      <trkpt lat="49.80425" lon="2.19547">
        <ele>61</ele>
        <time>2023-02-08T14:16:35Z</time>
      </trkpt>
      <trkpt lat="49.80425" lon="2.19547">
        <ele>61</ele>
        <time>2023-02-08T14:16:37Z</time>
      </trkpt>
      <trkpt lat="49.80426" lon="2.19547">
        <ele>61</ele>
        <time>2023-02-08T14:16:38Z</time>
      </trkpt>
      <trkpt lat="49.80426" lon="2.19547">
        <ele>61</ele>
        <time>2023-02-08T14:16:39Z</time>
      </trkpt>
      <trkpt lat="49.80426" lon="2.19547">
        <ele>61</ele>
        <time>2023-02-08T14:16:40Z</time>
      </trkpt>
      <trkpt lat="49.80426" lon="2.19547">
        <ele>61</ele>
        <time>2023-02-08T14:16:42Z</time>
      </trkpt>
      <trkpt lat="49.80426" lon="2.19547">
        <ele>61</ele>
        <time>2023-02-08T14:16:44Z</time>
      </trkpt>
      <trkpt lat="49.80426" lon="2.19547">
        <ele>61</ele>
        <time>2023-02-08T14:16:46Z</time>
      </trkpt>
      <trkpt lat="49.80426" lon="2.19547">
        <ele>61</ele>
        <time>2023-02-08T14:16:47Z</time>
      </trkpt>
      <trkpt lat="49.80426" lon="2.19547">
        <ele>61</ele>
        <time>2023-02-08T14:16:48Z</time>
      </trkpt>
      <trkpt lat="49.80426" lon="2.19547">
        <ele>61</ele>
        <time>2023-02-08T14:16:50Z</time>
      </trkpt>
      <trkpt lat="49.80426" lon="2.19547">
        <ele>61</ele>
        <time>2023-02-08T14:16:51Z</time>
      </trkpt>
      <trkpt lat="49.80426" lon="2.19547">
        <ele>61</ele>
        <time>2023-02-08T14:16:53Z</time>
      </trkpt>
      <trkpt lat="49.80426" lon="2.19547">
        <ele>61</ele>
        <time>2023-02-08T14:16:54Z</time>
      </trkpt>
      <trkpt lat="49.80426" lon="2.19547">
        <ele>61</ele>
        <time>2023-02-08T14:16:55Z</time>
      </trkpt>
      <trkpt lat="49.80426" lon="2.19547">
        <ele>61</ele>
        <time>2023-02-08T14:16:57Z</time>
      </trkpt>
      <trkpt lat="49.80426" lon="2.19547">
        <ele>61</ele>
        <time>2023-02-08T14:16:58Z</time>
      </trkpt>
      <trkpt lat="49.80426" lon="2.19547">
        <ele>61</ele>
        <time>2023-02-08T14:17:00Z</time>
      </trkpt>
      <trkpt lat="49.80426" lon="2.19547">
        <ele>61</ele>
        <time>2023-02-08T14:17:01Z</time>
      </trkpt>
      <trkpt lat="49.80426" lon="2.19547">
        <ele>61</ele>
        <time>2023-02-08T14:17:03Z</time>
      </trkpt>
      <trkpt lat="49.80426" lon="2.19547">
        <ele>61</ele>
        <time>2023-02-08T14:17:04Z</time>
      </trkpt>
      <trkpt lat="49.80426" lon="2.19547">
        <ele>61</ele>
        <time>2023-02-08T14:17:06Z</time>
      </trkpt>
      <trkpt lat="49.80426" lon="2.19547">
        <ele>61</ele>
        <time>2023-02-08T14:17:07Z</time>
      </trkpt>
      <trkpt lat="49.80426" lon="2.19547">
        <ele>61</ele>
        <time>2023-02-08T14:17:08Z</time>
      </trkpt>
      <trkpt lat="49.80427" lon="2.19547">
        <ele>61</ele>
        <time>2023-02-08T14:17:10Z</time>
      </trkpt>
      <trkpt lat="49.80427" lon="2.19547">
        <ele>61</ele>
        <time>2023-02-08T14:17:11Z</time>
      </trkpt>
      <trkpt lat="49.80427" lon="2.19547">
        <ele>61</ele>
        <time>2023-02-08T14:17:13Z</time>
      </trkpt>
      <trkpt lat="49.80427" lon="2.19547">
        <ele>61</ele>
        <time>2023-02-08T14:17:14Z</time>
      </trkpt>
      <trkpt lat="49.80427" lon="2.19547">
        <ele>61</ele>
        <time>2023-02-08T14:17:15Z</time>
      </trkpt>
      <trkpt lat="49.80427" lon="2.19547">
        <ele>61</ele>
        <time>2023-02-08T14:17:17Z</time>
      </trkpt>
      <trkpt lat="49.80427" lon="2.19547">
        <ele>61</ele>
        <time>2023-02-08T14:17:18Z</time>
      </trkpt>
      <trkpt lat="49.80427" lon="2.19547">
        <ele>61</ele>
        <time>2023-02-08T14:17:19Z</time>
      </trkpt>
      <trkpt lat="49.80427" lon="2.19547">
        <ele>61</ele>
        <time>2023-02-08T14:17:20Z</time>
      </trkpt>
      <trkpt lat="49.80427" lon="2.19547">
        <ele>61</ele>
        <time>2023-02-08T14:17:21Z</time>
      </trkpt>
      <trkpt lat="49.80427" lon="2.19547">
        <ele>61</ele>
        <time>2023-02-08T14:17:22Z</time>
      </trkpt>
      <trkpt lat="49.80427" lon="2.19547">
        <ele>61</ele>
        <time>2023-02-08T14:17:23Z</time>
      </trkpt>
      <trkpt lat="49.80427" lon="2.19547">
        <ele>61</ele>
        <time>2023-02-08T14:17:24Z</time>
      </trkpt>
      <trkpt lat="49.80427" lon="2.19547">
        <ele>61</ele>
        <time>2023-02-08T14:17:25Z</time>
      </trkpt>
      <trkpt lat="49.80427" lon="2.19547">
        <ele>61</ele>
        <time>2023-02-08T14:17:26Z</time>
      </trkpt>
      <trkpt lat="49.80427" lon="2.19547">
        <ele>61</ele>
        <time>2023-02-08T14:17:27Z</time>
      </trkpt>
      <trkpt lat="49.80427" lon="2.19547">
        <ele>61</ele>
        <time>2023-02-08T14:17:28Z</time>
      </trkpt>
      <trkpt lat="49.80427" lon="2.19547">
        <ele>61</ele>
        <time>2023-02-08T14:17:29Z</time>
      </trkpt>
      <trkpt lat="49.80427" lon="2.19547">
        <ele>61</ele>
        <time>2023-02-08T14:17:30Z</time>
      </trkpt>
      <trkpt lat="49.80427" lon="2.19547">
        <ele>61</ele>
        <time>2023-02-08T14:17:31Z</time>
      </trkpt>
      <trkpt lat="49.80427" lon="2.19547">
        <ele>61</ele>
        <time>2023-02-08T14:17:32Z</time>
      </trkpt>
      <trkpt lat="49.80427" lon="2.19547">
        <ele>60.9</ele>
        <time>2023-02-08T14:17:33Z</time>
      </trkpt>
      <trkpt lat="49.80427" lon="2.19547">
        <ele>60.9</ele>
        <time>2023-02-08T14:17:34Z</time>
      </trkpt>
      <trkpt lat="49.80428" lon="2.19547">
        <ele>60.9</ele>
        <time>2023-02-08T14:17:35Z</time>
      </trkpt>
      <trkpt lat="49.80428" lon="2.19547">
        <ele>60.9</ele>
        <time>2023-02-08T14:17:36Z</time>
      </trkpt>
      <trkpt lat="49.80428" lon="2.19547">
        <ele>60.9</ele>
        <time>2023-02-08T14:17:37Z</time>
      </trkpt>
      <trkpt lat="49.80428" lon="2.19547">
        <ele>60.9</ele>
        <time>2023-02-08T14:17:38Z</time>
      </trkpt>
      <trkpt lat="49.80428" lon="2.19547">
        <ele>60.9</ele>
        <time>2023-02-08T14:17:39Z</time>
      </trkpt>
      <trkpt lat="49.80428" lon="2.19547">
        <ele>60.9</ele>
        <time>2023-02-08T14:17:40Z</time>
      </trkpt>
      <trkpt lat="49.80428" lon="2.19547">
        <ele>60.9</ele>
        <time>2023-02-08T14:17:41Z</time>
      </trkpt>
      <trkpt lat="49.80428" lon="2.19547">
        <ele>60.9</ele>
        <time>2023-02-08T14:17:42Z</time>
      </trkpt>
      <trkpt lat="49.80428" lon="2.19547">
        <ele>60.9</ele>
        <time>2023-02-08T14:17:43Z</time>
      </trkpt>
      <trkpt lat="49.80428" lon="2.19547">
        <ele>60.9</ele>
        <time>2023-02-08T14:17:44Z</time>
      </trkpt>
      <trkpt lat="49.80428" lon="2.19547">
        <ele>60.9</ele>
        <time>2023-02-08T14:17:45Z</time>
      </trkpt>
      <trkpt lat="49.80428" lon="2.19547">
        <ele>60.9</ele>
        <time>2023-02-08T14:17:46Z</time>
      </trkpt>
      <trkpt lat="49.80428" lon="2.19547">
        <ele>60.9</ele>
        <time>2023-02-08T14:17:47Z</time>
      </trkpt>
      <trkpt lat="49.80428" lon="2.19547">
        <ele>60.9</ele>
        <time>2023-02-08T14:17:48Z</time>
      </trkpt>
      <trkpt lat="49.80428" lon="2.19547">
        <ele>60.9</ele>
        <time>2023-02-08T14:17:49Z</time>
      </trkpt>
      <trkpt lat="49.80428" lon="2.19547">
        <ele>60.9</ele>
        <time>2023-02-08T14:17:50Z</time>
      </trkpt>
      <trkpt lat="49.80428" lon="2.19547">
        <ele>60.9</ele>
        <time>2023-02-08T14:17:51Z</time>
      </trkpt>
      <trkpt lat="49.80428" lon="2.19547">
        <ele>60.9</ele>
        <time>2023-02-08T14:17:52Z</time>
      </trkpt>
      <trkpt lat="49.80428" lon="2.19547">
        <ele>60.9</ele>
        <time>2023-02-08T14:17:53Z</time>
      </trkpt>
      <trkpt lat="49.80427" lon="2.19547">
        <ele>60.9</ele>
        <time>2023-02-08T14:17:54Z</time>
      </trkpt>
      <trkpt lat="49.80427" lon="2.19547">
        <ele>60.9</ele>
        <time>2023-02-08T14:17:55Z</time>
      </trkpt>
      <trkpt lat="49.80427" lon="2.19546">
        <ele>60.9</ele>
        <time>2023-02-08T14:17:56Z</time>
      </trkpt>
      <trkpt lat="49.80427" lon="2.19546">
        <ele>60.9</ele>
        <time>2023-02-08T14:17:57Z</time>
      </trkpt>
      <trkpt lat="49.80427" lon="2.19546">
        <ele>60.9</ele>
        <time>2023-02-08T14:17:58Z</time>
      </trkpt>
      <trkpt lat="49.80427" lon="2.19547">
        <ele>60.9</ele>
        <time>2023-02-08T14:17:59Z</time>
      </trkpt>
      <trkpt lat="49.80427" lon="2.19547">
        <ele>60.9</ele>
        <time>2023-02-08T14:18:00Z</time>
      </trkpt>
      <trkpt lat="49.80427" lon="2.19547">
        <ele>60.9</ele>
        <time>2023-02-08T14:18:01Z</time>
      </trkpt>
      <trkpt lat="49.80427" lon="2.19547">
        <ele>60.9</ele>
        <time>2023-02-08T14:18:02Z</time>
      </trkpt>
      <trkpt lat="49.80427" lon="2.19547">
        <ele>60.9</ele>
        <time>2023-02-08T14:18:03Z</time>
      </trkpt>
      <trkpt lat="49.80427" lon="2.19547">
        <ele>60.9</ele>
        <time>2023-02-08T14:18:04Z</time>
      </trkpt>
      <trkpt lat="49.80427" lon="2.19547">
        <ele>60.9</ele>
        <time>2023-02-08T14:18:05Z</time>
      </trkpt>
      <trkpt lat="49.80427" lon="2.19547">
        <ele>60.9</ele>
        <time>2023-02-08T14:18:06Z</time>
      </trkpt>
      <trkpt lat="49.80427" lon="2.19547">
        <ele>60.9</ele>
        <time>2023-02-08T14:18:07Z</time>
      </trkpt>
      <trkpt lat="49.80427" lon="2.19547">
        <ele>60.9</ele>
        <time>2023-02-08T14:18:08Z</time>
      </trkpt>
      <trkpt lat="49.80427" lon="2.19547">
        <ele>60.9</ele>
        <time>2023-02-08T14:18:09Z</time>
      </trkpt>
      <trkpt lat="49.80427" lon="2.19547">
        <ele>60.9</ele>
        <time>2023-02-08T14:18:10Z</time>
      </trkpt>
      <trkpt lat="49.80427" lon="2.19547">
        <ele>60.9</ele>
        <time>2023-02-08T14:18:11Z</time>
      </trkpt>
      <trkpt lat="49.80427" lon="2.19547">
        <ele>60.9</ele>
        <time>2023-02-08T14:18:12Z</time>
      </trkpt>
      <trkpt lat="49.80427" lon="2.19547">
        <ele>60.9</ele>
        <time>2023-02-08T14:18:13Z</time>
      </trkpt>
      <trkpt lat="49.80427" lon="2.19547">
        <ele>60.9</ele>
        <time>2023-02-08T14:18:14Z</time>
      </trkpt>
      <trkpt lat="49.80427" lon="2.19547">
        <ele>60.9</ele>
        <time>2023-02-08T14:18:15Z</time>
      </trkpt>
      <trkpt lat="49.80427" lon="2.19547">
        <ele>60.9</ele>
        <time>2023-02-08T14:18:16Z</time>
      </trkpt>
      <trkpt lat="49.80427" lon="2.19547">
        <ele>60.9</ele>
        <time>2023-02-08T14:18:17Z</time>
      </trkpt>
      <trkpt lat="49.80427" lon="2.19547">
        <ele>60.9</ele>
        <time>2023-02-08T14:18:18Z</time>
      </trkpt>
      <trkpt lat="49.80427" lon="2.19547">
        <ele>60.9</ele>
        <time>2023-02-08T14:18:19Z</time>
      </trkpt>
      <trkpt lat="49.80427" lon="2.19547">
        <ele>60.9</ele>
        <time>2023-02-08T14:18:20Z</time>
      </trkpt>
      <trkpt lat="49.80427" lon="2.19547">
        <ele>60.9</ele>
        <time>2023-02-08T14:18:21Z</time>
      </trkpt>
      <trkpt lat="49.80427" lon="2.19547">
        <ele>60.9</ele>
        <time>2023-02-08T14:18:22Z</time>
      </trkpt>
      <trkpt lat="49.80427" lon="2.19547">
        <ele>60.9</ele>
        <time>2023-02-08T14:18:23Z</time>
      </trkpt>
      <trkpt lat="49.80427" lon="2.19547">
        <ele>60.9</ele>
        <time>2023-02-08T14:18:24Z</time>
      </trkpt>
      <trkpt lat="49.80427" lon="2.19547">
        <ele>60.9</ele>
        <time>2023-02-08T14:18:25Z</time>
      </trkpt>
      <trkpt lat="49.80427" lon="2.19547">
        <ele>60.9</ele>
        <time>2023-02-08T14:18:26Z</time>
      </trkpt>
      <trkpt lat="49.80427" lon="2.19547">
        <ele>60.9</ele>
        <time>2023-02-08T14:18:27Z</time>
      </trkpt>
      <trkpt lat="49.80427" lon="2.19547">
        <ele>60.9</ele>
        <time>2023-02-08T14:18:28Z</time>
      </trkpt>
      <trkpt lat="49.80427" lon="2.19547">
        <ele>60.9</ele>
        <time>2023-02-08T14:18:29Z</time>
      </trkpt>
      <trkpt lat="49.80427" lon="2.19547">
        <ele>60.9</ele>
        <time>2023-02-08T14:18:30Z</time>
      </trkpt>
      <trkpt lat="49.80427" lon="2.19547">
        <ele>60.9</ele>
        <time>2023-02-08T14:18:31Z</time>
      </trkpt>
      <trkpt lat="49.80427" lon="2.19547">
        <ele>60.9</ele>
        <time>2023-02-08T14:18:32Z</time>
      </trkpt>
      <trkpt lat="49.80427" lon="2.19547">
        <ele>60.9</ele>
        <time>2023-02-08T14:18:33Z</time>
      </trkpt>
      <trkpt lat="49.80427" lon="2.19547">
        <ele>60.9</ele>
        <time>2023-02-08T14:18:34Z</time>
      </trkpt>
      <trkpt lat="49.80427" lon="2.19547">
        <ele>60.9</ele>
        <time>2023-02-08T14:18:35Z</time>
      </trkpt>
      <trkpt lat="49.80427" lon="2.19547">
        <ele>60.9</ele>
        <time>2023-02-08T14:18:36Z</time>
      </trkpt>
      <trkpt lat="49.80427" lon="2.19547">
        <ele>60.9</ele>
        <time>2023-02-08T14:18:37Z</time>
      </trkpt>
      <trkpt lat="49.80427" lon="2.19547">
        <ele>60.9</ele>
        <time>2023-02-08T14:18:38Z</time>
      </trkpt>
      <trkpt lat="49.80427" lon="2.19547">
        <ele>60.9</ele>
        <time>2023-02-08T14:18:39Z</time>
      </trkpt>
      <trkpt lat="49.80427" lon="2.19547">
        <ele>60.9</ele>
        <time>2023-02-08T14:18:40Z</time>
      </trkpt>
      <trkpt lat="49.80427" lon="2.19547">
        <ele>60.9</ele>
        <time>2023-02-08T14:18:41Z</time>
      </trkpt>
      <trkpt lat="49.80427" lon="2.19547">
        <ele>60.9</ele>
        <time>2023-02-08T14:18:42Z</time>
      </trkpt>
      <trkpt lat="49.80427" lon="2.19547">
        <ele>60.9</ele>
        <time>2023-02-08T14:18:43Z</time>
      </trkpt>
      <trkpt lat="49.80427" lon="2.19547">
        <ele>60.9</ele>
        <time>2023-02-08T14:18:44Z</time>
      </trkpt>
      <trkpt lat="49.80427" lon="2.19547">
        <ele>60.9</ele>
        <time>2023-02-08T14:18:45Z</time>
      </trkpt>
      <trkpt lat="49.80427" lon="2.19547">
        <ele>60.9</ele>
        <time>2023-02-08T14:18:46Z</time>
      </trkpt>
      <trkpt lat="49.80427" lon="2.19547">
        <ele>60.9</ele>
        <time>2023-02-08T14:18:47Z</time>
      </trkpt>
      <trkpt lat="49.80427" lon="2.19547">
        <ele>60.9</ele>
        <time>2023-02-08T14:18:48Z</time>
      </trkpt>
      <trkpt lat="49.80427" lon="2.19547">
        <ele>60.9</ele>
        <time>2023-02-08T14:18:49Z</time>
      </trkpt>
      <trkpt lat="49.80427" lon="2.19547">
        <ele>60.9</ele>
        <time>2023-02-08T14:18:50Z</time>
      </trkpt>
      <trkpt lat="49.80427" lon="2.19547">
        <ele>60.9</ele>
        <time>2023-02-08T14:18:51Z</time>
      </trkpt>
      <trkpt lat="49.80427" lon="2.19547">
        <ele>60.9</ele>
        <time>2023-02-08T14:18:52Z</time>
      </trkpt>
      <trkpt lat="49.80427" lon="2.19547">
        <ele>60.9</ele>
        <time>2023-02-08T14:18:53Z</time>
      </trkpt>
      <trkpt lat="49.80427" lon="2.19547">
        <ele>60.9</ele>
        <time>2023-02-08T14:18:54Z</time>
      </trkpt>
      <trkpt lat="49.80427" lon="2.19546">
        <ele>60.9</ele>
        <time>2023-02-08T14:18:55Z</time>
      </trkpt>
      <trkpt lat="49.80427" lon="2.19546">
        <ele>60.9</ele>
        <time>2023-02-08T14:18:56Z</time>
      </trkpt>
      <trkpt lat="49.80427" lon="2.19545">
        <ele>60.9</ele>
        <time>2023-02-08T14:18:57Z</time>
      </trkpt>
      <trkpt lat="49.80427" lon="2.19544">
        <ele>60.9</ele>
        <time>2023-02-08T14:18:58Z</time>
      </trkpt>
      <trkpt lat="49.80428" lon="2.19543">
        <ele>60.9</ele>
        <time>2023-02-08T14:18:59Z</time>
      </trkpt>
      <trkpt lat="49.80428" lon="2.19542">
        <ele>60.9</ele>
        <time>2023-02-08T14:19:00Z</time>
      </trkpt>
      <trkpt lat="49.80427" lon="2.19542">
        <ele>60.9</ele>
        <time>2023-02-08T14:19:01Z</time>
      </trkpt>
      <trkpt lat="49.80427" lon="2.1954">
        <ele>60.9</ele>
        <time>2023-02-08T14:19:02Z</time>
      </trkpt>
      <trkpt lat="49.80427" lon="2.19539">
        <ele>60.8</ele>
        <time>2023-02-08T14:19:03Z</time>
      </trkpt>
      <trkpt lat="49.80426" lon="2.19538">
        <ele>60.8</ele>
        <time>2023-02-08T14:19:04Z</time>
      </trkpt>
      <trkpt lat="49.80426" lon="2.19537">
        <ele>60.8</ele>
        <time>2023-02-08T14:19:05Z</time>
      </trkpt>
      <trkpt lat="49.80426" lon="2.19536">
        <ele>61.7</ele>
        <time>2023-02-08T14:19:06Z</time>
      </trkpt>
      <trkpt lat="49.80426" lon="2.19536">
        <ele>61.8</ele>
        <time>2023-02-08T14:19:07Z</time>
      </trkpt>
      <trkpt lat="49.80426" lon="2.19535">
        <ele>61.9</ele>
        <time>2023-02-08T14:19:08Z</time>
      </trkpt>
      <trkpt lat="49.80426" lon="2.19533">
        <ele>62</ele>
        <time>2023-02-08T14:19:09Z</time>
      </trkpt>
      <trkpt lat="49.80426" lon="2.19532">
        <ele>62.1</ele>
        <time>2023-02-08T14:19:10Z</time>
      </trkpt>
      <trkpt lat="49.80426" lon="2.19531">
        <ele>62.1</ele>
        <time>2023-02-08T14:19:11Z</time>
      </trkpt>
      <trkpt lat="49.80426" lon="2.1953">
        <ele>62.2</ele>
        <time>2023-02-08T14:19:12Z</time>
      </trkpt>
      <trkpt lat="49.80425" lon="2.19529">
        <ele>62.2</ele>
        <time>2023-02-08T14:19:13Z</time>
      </trkpt>
      <trkpt lat="49.80425" lon="2.19528">
        <ele>62.3</ele>
        <time>2023-02-08T14:19:14Z</time>
      </trkpt>
      <trkpt lat="49.80425" lon="2.19528">
        <ele>62.3</ele>
        <time>2023-02-08T14:19:15Z</time>
      </trkpt>
      <trkpt lat="49.80425" lon="2.19527">
        <ele>62.4</ele>
        <time>2023-02-08T14:19:16Z</time>
      </trkpt>
      <trkpt lat="49.80425" lon="2.19522">
        <ele>62.7</ele>
        <time>2023-02-08T14:19:17Z</time>
      </trkpt>
      <trkpt lat="49.80425" lon="2.19521">
        <ele>62.8</ele>
        <time>2023-02-08T14:19:18Z</time>
      </trkpt>
      <trkpt lat="49.80425" lon="2.1952">
        <ele>62.9</ele>
        <time>2023-02-08T14:19:19Z</time>
      </trkpt>
      <trkpt lat="49.80425" lon="2.19518">
        <ele>63</ele>
        <time>2023-02-08T14:19:20Z</time>
      </trkpt>
      <trkpt lat="49.80425" lon="2.19516">
        <ele>63.1</ele>
        <time>2023-02-08T14:19:22Z</time>
      </trkpt>
      <trkpt lat="49.80424" lon="2.19514">
        <ele>63.3</ele>
        <time>2023-02-08T14:19:24Z</time>
      </trkpt>
      <trkpt lat="49.80424" lon="2.19514">
        <ele>63.3</ele>
        <time>2023-02-08T14:19:25Z</time>
      </trkpt>
      <trkpt lat="49.80424" lon="2.19513">
        <ele>63.4</ele>
        <time>2023-02-08T14:19:26Z</time>
      </trkpt>
      <trkpt lat="49.80424" lon="2.19512">
        <ele>63.5</ele>
        <time>2023-02-08T14:19:27Z</time>
      </trkpt>
      <trkpt lat="49.80423" lon="2.1951">
        <ele>63.6</ele>
        <time>2023-02-08T14:19:28Z</time>
      </trkpt>
      <trkpt lat="49.80423" lon="2.19509">
        <ele>63.7</ele>
        <time>2023-02-08T14:19:30Z</time>
      </trkpt>
      <trkpt lat="49.80423" lon="2.19507">
        <ele>63.8</ele>
        <time>2023-02-08T14:19:31Z</time>
      </trkpt>
      <trkpt lat="49.80423" lon="2.19507">
        <ele>63.9</ele>
        <time>2023-02-08T14:19:32Z</time>
      </trkpt>
      <trkpt lat="49.80423" lon="2.19505">
        <ele>63.9</ele>
        <time>2023-02-08T14:19:33Z</time>
      </trkpt>
      <trkpt lat="49.80423" lon="2.19503">
        <ele>64.1</ele>
        <time>2023-02-08T14:19:34Z</time>
      </trkpt>
      <trkpt lat="49.80423" lon="2.19502">
        <ele>64.2</ele>
        <time>2023-02-08T14:19:35Z</time>
      </trkpt>
      <trkpt lat="49.80424" lon="2.19501">
        <ele>64.3</ele>
        <time>2023-02-08T14:19:37Z</time>
      </trkpt>
      <trkpt lat="49.80424" lon="2.19501">
        <ele>64.3</ele>
        <time>2023-02-08T14:19:38Z</time>
      </trkpt>
      <trkpt lat="49.80424" lon="2.195">
        <ele>64.4</ele>
        <time>2023-02-08T14:19:39Z</time>
      </trkpt>
      <trkpt lat="49.80424" lon="2.19498">
        <ele>64.5</ele>
        <time>2023-02-08T14:19:40Z</time>
      </trkpt>
      <trkpt lat="49.80425" lon="2.19497">
        <ele>64.6</ele>
        <time>2023-02-08T14:19:41Z</time>
      </trkpt>
      <trkpt lat="49.80425" lon="2.19496">
        <ele>64.7</ele>
        <time>2023-02-08T14:19:42Z</time>
      </trkpt>
      <trkpt lat="49.80426" lon="2.19496">
        <ele>64.8</ele>
        <time>2023-02-08T14:19:43Z</time>
      </trkpt>
      <trkpt lat="49.80426" lon="2.19494">
        <ele>64.9</ele>
        <time>2023-02-08T14:19:45Z</time>
      </trkpt>
      <trkpt lat="49.80427" lon="2.19492">
        <ele>65</ele>
        <time>2023-02-08T14:19:47Z</time>
      </trkpt>
      <trkpt lat="49.80427" lon="2.19491">
        <ele>65.1</ele>
        <time>2023-02-08T14:19:48Z</time>
      </trkpt>
      <trkpt lat="49.80427" lon="2.1949">
        <ele>65.3</ele>
        <time>2023-02-08T14:19:49Z</time>
      </trkpt>
      <trkpt lat="49.80427" lon="2.19489">
        <ele>65.3</ele>
        <time>2023-02-08T14:19:50Z</time>
      </trkpt>
      <trkpt lat="49.80427" lon="2.19487">
        <ele>65.4</ele>
        <time>2023-02-08T14:19:52Z</time>
      </trkpt>
      <trkpt lat="49.80427" lon="2.19487">
        <ele>65.5</ele>
        <time>2023-02-08T14:19:53Z</time>
      </trkpt>
      <trkpt lat="49.80427" lon="2.19485">
        <ele>65.6</ele>
        <time>2023-02-08T14:19:54Z</time>
      </trkpt>
      <trkpt lat="49.80427" lon="2.19484">
        <ele>65.7</ele>
        <time>2023-02-08T14:19:55Z</time>
      </trkpt>
      <trkpt lat="49.80427" lon="2.19483">
        <ele>65.8</ele>
        <time>2023-02-08T14:19:56Z</time>
      </trkpt>
      <trkpt lat="49.80427" lon="2.19481">
        <ele>65.9</ele>
        <time>2023-02-08T14:19:57Z</time>
      </trkpt>
      <trkpt lat="49.80427" lon="2.1948">
        <ele>66</ele>
        <time>2023-02-08T14:19:59Z</time>
      </trkpt>
      <trkpt lat="49.80427" lon="2.19478">
        <ele>66.1</ele>
        <time>2023-02-08T14:20:00Z</time>
      </trkpt>
      <trkpt lat="49.80427" lon="2.19477">
        <ele>66.2</ele>
        <time>2023-02-08T14:20:02Z</time>
      </trkpt>
      <trkpt lat="49.80428" lon="2.19476">
        <ele>66.3</ele>
        <time>2023-02-08T14:20:03Z</time>
      </trkpt>
      <trkpt lat="49.80428" lon="2.19475">
        <ele>66.3</ele>
        <time>2023-02-08T14:20:04Z</time>
      </trkpt>
      <trkpt lat="49.80428" lon="2.19474">
        <ele>66.5</ele>
        <time>2023-02-08T14:20:05Z</time>
      </trkpt>
      <trkpt lat="49.80428" lon="2.19472">
        <ele>66.6</ele>
        <time>2023-02-08T14:20:06Z</time>
      </trkpt>
      <trkpt lat="49.80429" lon="2.19471">
        <ele>66.7</ele>
        <time>2023-02-08T14:20:07Z</time>
      </trkpt>
      <trkpt lat="49.80429" lon="2.19469">
        <ele>66.8</ele>
        <time>2023-02-08T14:20:09Z</time>
      </trkpt>
      <trkpt lat="49.80429" lon="2.19467">
        <ele>66.9</ele>
        <time>2023-02-08T14:20:10Z</time>
      </trkpt>
      <trkpt lat="49.8043" lon="2.19466">
        <ele>67</ele>
        <time>2023-02-08T14:20:11Z</time>
      </trkpt>
      <trkpt lat="49.8043" lon="2.19464">
        <ele>67.2</ele>
        <time>2023-02-08T14:20:12Z</time>
      </trkpt>
      <trkpt lat="49.80431" lon="2.19462">
        <ele>67.3</ele>
        <time>2023-02-08T14:20:14Z</time>
      </trkpt>
      <trkpt lat="49.80431" lon="2.1946">
        <ele>67.5</ele>
        <time>2023-02-08T14:20:15Z</time>
      </trkpt>
      <trkpt lat="49.80432" lon="2.19458">
        <ele>67.6</ele>
        <time>2023-02-08T14:20:16Z</time>
      </trkpt>
      <trkpt lat="49.80432" lon="2.19454">
        <ele>67.9</ele>
        <time>2023-02-08T14:20:18Z</time>
      </trkpt>
      <trkpt lat="49.80432" lon="2.19452">
        <ele>68</ele>
        <time>2023-02-08T14:20:19Z</time>
      </trkpt>
      <trkpt lat="49.80433" lon="2.19447">
        <ele>68.3</ele>
        <time>2023-02-08T14:20:20Z</time>
      </trkpt>
      <trkpt lat="49.80434" lon="2.19446">
        <ele>68.4</ele>
        <time>2023-02-08T14:20:21Z</time>
      </trkpt>
      <trkpt lat="49.80435" lon="2.19442">
        <ele>68.7</ele>
        <time>2023-02-08T14:20:23Z</time>
      </trkpt>
      <trkpt lat="49.80435" lon="2.19441">
        <ele>68.8</ele>
        <time>2023-02-08T14:20:24Z</time>
      </trkpt>
      <trkpt lat="49.80436" lon="2.19438">
        <ele>69</ele>
        <time>2023-02-08T14:20:25Z</time>
      </trkpt>
      <trkpt lat="49.80437" lon="2.19436">
        <ele>69.2</ele>
        <time>2023-02-08T14:20:27Z</time>
      </trkpt>
      <trkpt lat="49.80437" lon="2.19434">
        <ele>69.3</ele>
        <time>2023-02-08T14:20:28Z</time>
      </trkpt>
      <trkpt lat="49.80438" lon="2.19431">
        <ele>69.5</ele>
        <time>2023-02-08T14:20:29Z</time>
      </trkpt>
      <trkpt lat="49.80439" lon="2.1943">
        <ele>69.6</ele>
        <time>2023-02-08T14:20:30Z</time>
      </trkpt>
      <trkpt lat="49.80439" lon="2.19428">
        <ele>69.7</ele>
        <time>2023-02-08T14:20:32Z</time>
      </trkpt>
      <trkpt lat="49.8044" lon="2.19427">
        <ele>69.8</ele>
        <time>2023-02-08T14:20:33Z</time>
      </trkpt>
      <trkpt lat="49.80441" lon="2.19425">
        <ele>69.9</ele>
        <time>2023-02-08T14:20:34Z</time>
      </trkpt>
      <trkpt lat="49.80441" lon="2.19422">
        <ele>70.1</ele>
        <time>2023-02-08T14:20:35Z</time>
      </trkpt>
      <trkpt lat="49.80442" lon="2.1942">
        <ele>70.2</ele>
        <time>2023-02-08T14:20:37Z</time>
      </trkpt>
      <trkpt lat="49.80442" lon="2.19419">
        <ele>70.3</ele>
        <time>2023-02-08T14:20:38Z</time>
      </trkpt>
      <trkpt lat="49.80443" lon="2.19417">
        <ele>70.4</ele>
        <time>2023-02-08T14:20:39Z</time>
      </trkpt>
      <trkpt lat="49.80445" lon="2.19414">
        <ele>70.7</ele>
        <time>2023-02-08T14:20:40Z</time>
      </trkpt>
      <trkpt lat="49.80445" lon="2.19412">
        <ele>70.8</ele>
        <time>2023-02-08T14:20:42Z</time>
      </trkpt>
      <trkpt lat="49.80446" lon="2.19411">
        <ele>70.8</ele>
        <time>2023-02-08T14:20:43Z</time>
      </trkpt>
      <trkpt lat="49.80446" lon="2.1941">
        <ele>70.9</ele>
        <time>2023-02-08T14:20:44Z</time>
      </trkpt>
      <trkpt lat="49.80447" lon="2.19408">
        <ele>71</ele>
        <time>2023-02-08T14:20:45Z</time>
      </trkpt>
      <trkpt lat="49.80447" lon="2.19407">
        <ele>71.1</ele>
        <time>2023-02-08T14:20:47Z</time>
      </trkpt>
      <trkpt lat="49.80448" lon="2.19406">
        <ele>71.2</ele>
        <time>2023-02-08T14:20:48Z</time>
      </trkpt>
      <trkpt lat="49.80448" lon="2.19405">
        <ele>71.2</ele>
        <time>2023-02-08T14:20:49Z</time>
      </trkpt>
      <trkpt lat="49.80449" lon="2.19403">
        <ele>71.3</ele>
        <time>2023-02-08T14:20:50Z</time>
      </trkpt>
      <trkpt lat="49.80449" lon="2.19402">
        <ele>71.4</ele>
        <time>2023-02-08T14:20:51Z</time>
      </trkpt>
      <trkpt lat="49.8045" lon="2.194">
        <ele>71.5</ele>
        <time>2023-02-08T14:20:52Z</time>
      </trkpt>
      <trkpt lat="49.80451" lon="2.19399">
        <ele>71.6</ele>
        <time>2023-02-08T14:20:53Z</time>
      </trkpt>
      <trkpt lat="49.80452" lon="2.19398">
        <ele>71.7</ele>
        <time>2023-02-08T14:20:55Z</time>
      </trkpt>
      <trkpt lat="49.80452" lon="2.19397">
        <ele>71.8</ele>
        <time>2023-02-08T14:20:57Z</time>
      </trkpt>
      <trkpt lat="49.80453" lon="2.19396">
        <ele>71.8</ele>
        <time>2023-02-08T14:20:58Z</time>
      </trkpt>
      <trkpt lat="49.80453" lon="2.19395">
        <ele>71.8</ele>
        <time>2023-02-08T14:20:59Z</time>
      </trkpt>
      <trkpt lat="49.80453" lon="2.19394">
        <ele>71.9</ele>
        <time>2023-02-08T14:21:00Z</time>
      </trkpt>
      <trkpt lat="49.80454" lon="2.19394">
        <ele>72</ele>
        <time>2023-02-08T14:21:01Z</time>
      </trkpt>
      <trkpt lat="49.80454" lon="2.19393">
        <ele>72</ele>
        <time>2023-02-08T14:21:02Z</time>
      </trkpt>
      <trkpt lat="49.80455" lon="2.19392">
        <ele>72.1</ele>
        <time>2023-02-08T14:21:04Z</time>
      </trkpt>
      <trkpt lat="49.80455" lon="2.19391">
        <ele>72.1</ele>
        <time>2023-02-08T14:21:05Z</time>
      </trkpt>
      <trkpt lat="49.80456" lon="2.1939">
        <ele>72.2</ele>
        <time>2023-02-08T14:21:06Z</time>
      </trkpt>
      <trkpt lat="49.80457" lon="2.19389">
        <ele>72.3</ele>
        <time>2023-02-08T14:21:07Z</time>
      </trkpt>
      <trkpt lat="49.80457" lon="2.19388">
        <ele>72.3</ele>
        <time>2023-02-08T14:21:08Z</time>
      </trkpt>
      <trkpt lat="49.80458" lon="2.19387">
        <ele>72.4</ele>
        <time>2023-02-08T14:21:09Z</time>
      </trkpt>
      <trkpt lat="49.80458" lon="2.19386">
        <ele>72.4</ele>
        <time>2023-02-08T14:21:10Z</time>
      </trkpt>
      <trkpt lat="49.80459" lon="2.19385">
        <ele>72.5</ele>
        <time>2023-02-08T14:21:12Z</time>
      </trkpt>
      <trkpt lat="49.80459" lon="2.19383">
        <ele>72.6</ele>
        <time>2023-02-08T14:21:13Z</time>
      </trkpt>
      <trkpt lat="49.8046" lon="2.19381">
        <ele>72.7</ele>
        <time>2023-02-08T14:21:14Z</time>
      </trkpt>
      <trkpt lat="49.80461" lon="2.19377">
        <ele>72.9</ele>
        <time>2023-02-08T14:21:15Z</time>
      </trkpt>
      <trkpt lat="49.80461" lon="2.19376">
        <ele>73</ele>
        <time>2023-02-08T14:21:17Z</time>
      </trkpt>
      <trkpt lat="49.80461" lon="2.19374">
        <ele>73.1</ele>
        <time>2023-02-08T14:21:18Z</time>
      </trkpt>
      <trkpt lat="49.80462" lon="2.19371">
        <ele>73.2</ele>
        <time>2023-02-08T14:21:20Z</time>
      </trkpt>
      <trkpt lat="49.80462" lon="2.19369">
        <ele>73.3</ele>
        <time>2023-02-08T14:21:21Z</time>
      </trkpt>
      <trkpt lat="49.80463" lon="2.19367">
        <ele>73.4</ele>
        <time>2023-02-08T14:21:22Z</time>
      </trkpt>
      <trkpt lat="49.80463" lon="2.19365">
        <ele>73.5</ele>
        <time>2023-02-08T14:21:23Z</time>
      </trkpt>
      <trkpt lat="49.80463" lon="2.19364">
        <ele>73.6</ele>
        <time>2023-02-08T14:21:24Z</time>
      </trkpt>
      <trkpt lat="49.80463" lon="2.19361">
        <ele>73.7</ele>
        <time>2023-02-08T14:21:25Z</time>
      </trkpt>
      <trkpt lat="49.80463" lon="2.19359">
        <ele>73.8</ele>
        <time>2023-02-08T14:21:26Z</time>
      </trkpt>
      <trkpt lat="49.80463" lon="2.19357">
        <ele>73.9</ele>
        <time>2023-02-08T14:21:27Z</time>
      </trkpt>
      <trkpt lat="49.80463" lon="2.19355">
        <ele>73.9</ele>
        <time>2023-02-08T14:21:29Z</time>
      </trkpt>
      <trkpt lat="49.80463" lon="2.19353">
        <ele>74</ele>
        <time>2023-02-08T14:21:30Z</time>
      </trkpt>
      <trkpt lat="49.80463" lon="2.19351">
        <ele>74.1</ele>
        <time>2023-02-08T14:21:31Z</time>
      </trkpt>
      <trkpt lat="49.80464" lon="2.19349">
        <ele>74.2</ele>
        <time>2023-02-08T14:21:32Z</time>
      </trkpt>
      <trkpt lat="49.80463" lon="2.19346">
        <ele>74.3</ele>
        <time>2023-02-08T14:21:34Z</time>
      </trkpt>
      <trkpt lat="49.80463" lon="2.19344">
        <ele>74.4</ele>
        <time>2023-02-08T14:21:35Z</time>
      </trkpt>
      <trkpt lat="49.80463" lon="2.19342">
        <ele>74.4</ele>
        <time>2023-02-08T14:21:36Z</time>
      </trkpt>
      <trkpt lat="49.80463" lon="2.1934">
        <ele>74.5</ele>
        <time>2023-02-08T14:21:37Z</time>
      </trkpt>
      <trkpt lat="49.80463" lon="2.19337">
        <ele>74.6</ele>
        <time>2023-02-08T14:21:39Z</time>
      </trkpt>
      <trkpt lat="49.80462" lon="2.19335">
        <ele>74.7</ele>
        <time>2023-02-08T14:21:40Z</time>
      </trkpt>
      <trkpt lat="49.80462" lon="2.19334">
        <ele>74.7</ele>
        <time>2023-02-08T14:21:42Z</time>
      </trkpt>
      <trkpt lat="49.80462" lon="2.19332">
        <ele>74.8</ele>
        <time>2023-02-08T14:21:43Z</time>
      </trkpt>
      <trkpt lat="49.80462" lon="2.19331">
        <ele>74.8</ele>
        <time>2023-02-08T14:21:44Z</time>
      </trkpt>
      <trkpt lat="49.80461" lon="2.19329">
        <ele>74.9</ele>
        <time>2023-02-08T14:21:45Z</time>
      </trkpt>
      <trkpt lat="49.80461" lon="2.19328">
        <ele>74.9</ele>
        <time>2023-02-08T14:21:46Z</time>
      </trkpt>
      <trkpt lat="49.8046" lon="2.19327">
        <ele>75</ele>
        <time>2023-02-08T14:21:47Z</time>
      </trkpt>
      <trkpt lat="49.8046" lon="2.19326">
        <ele>75</ele>
        <time>2023-02-08T14:21:49Z</time>
      </trkpt>
      <trkpt lat="49.80459" lon="2.19324">
        <ele>75.1</ele>
        <time>2023-02-08T14:21:50Z</time>
      </trkpt>
      <trkpt lat="49.80459" lon="2.19323">
        <ele>75.1</ele>
        <time>2023-02-08T14:21:51Z</time>
      </trkpt>
      <trkpt lat="49.80458" lon="2.19322">
        <ele>75.1</ele>
        <time>2023-02-08T14:21:52Z</time>
      </trkpt>
      <trkpt lat="49.80458" lon="2.19321">
        <ele>75.2</ele>
        <time>2023-02-08T14:21:53Z</time>
      </trkpt>
      <trkpt lat="49.80458" lon="2.1932">
        <ele>75.2</ele>
        <time>2023-02-08T14:21:54Z</time>
      </trkpt>
      <trkpt lat="49.80457" lon="2.19318">
        <ele>75.3</ele>
        <time>2023-02-08T14:21:55Z</time>
      </trkpt>
      <trkpt lat="49.80457" lon="2.19317">
        <ele>75.3</ele>
        <time>2023-02-08T14:21:57Z</time>
      </trkpt>
      <trkpt lat="49.80456" lon="2.19315">
        <ele>75.4</ele>
        <time>2023-02-08T14:21:58Z</time>
      </trkpt>
      <trkpt lat="49.80455" lon="2.19314">
        <ele>75.4</ele>
        <time>2023-02-08T14:22:00Z</time>
      </trkpt>
      <trkpt lat="49.80455" lon="2.19313">
        <ele>75.4</ele>
        <time>2023-02-08T14:22:01Z</time>
      </trkpt>
      <trkpt lat="49.80455" lon="2.19313">
        <ele>75.5</ele>
        <time>2023-02-08T14:22:02Z</time>
      </trkpt>
      <trkpt lat="49.80454" lon="2.19312">
        <ele>75.5</ele>
        <time>2023-02-08T14:22:03Z</time>
      </trkpt>
      <trkpt lat="49.80454" lon="2.19311">
        <ele>75.5</ele>
        <time>2023-02-08T14:22:04Z</time>
      </trkpt>
      <trkpt lat="49.80453" lon="2.19311">
        <ele>75.5</ele>
        <time>2023-02-08T14:22:06Z</time>
      </trkpt>
      <trkpt lat="49.80453" lon="2.1931">
        <ele>75.6</ele>
        <time>2023-02-08T14:22:07Z</time>
      </trkpt>
      <trkpt lat="49.80452" lon="2.19309">
        <ele>75.6</ele>
        <time>2023-02-08T14:22:08Z</time>
      </trkpt>
      <trkpt lat="49.80452" lon="2.19307">
        <ele>75.6</ele>
        <time>2023-02-08T14:22:09Z</time>
      </trkpt>
      <trkpt lat="49.80451" lon="2.19306">
        <ele>75.7</ele>
        <time>2023-02-08T14:22:10Z</time>
      </trkpt>
      <trkpt lat="49.80451" lon="2.19305">
        <ele>75.7</ele>
        <time>2023-02-08T14:22:11Z</time>
      </trkpt>
      <trkpt lat="49.8045" lon="2.19304">
        <ele>75.8</ele>
        <time>2023-02-08T14:22:13Z</time>
      </trkpt>
      <trkpt lat="49.8045" lon="2.19303">
        <ele>75.8</ele>
        <time>2023-02-08T14:22:14Z</time>
      </trkpt>
      <trkpt lat="49.80449" lon="2.19301">
        <ele>75.9</ele>
        <time>2023-02-08T14:22:15Z</time>
      </trkpt>
      <trkpt lat="49.80449" lon="2.193">
        <ele>75.9</ele>
        <time>2023-02-08T14:22:16Z</time>
      </trkpt>
      <trkpt lat="49.80449" lon="2.19299">
        <ele>75.9</ele>
        <time>2023-02-08T14:22:17Z</time>
      </trkpt>
      <trkpt lat="49.80448" lon="2.19296">
        <ele>76</ele>
        <time>2023-02-08T14:22:18Z</time>
      </trkpt>
      <trkpt lat="49.80447" lon="2.19295">
        <ele>76</ele>
        <time>2023-02-08T14:22:19Z</time>
      </trkpt>
      <trkpt lat="49.80447" lon="2.19294">
        <ele>76.1</ele>
        <time>2023-02-08T14:22:21Z</time>
      </trkpt>
      <trkpt lat="49.80447" lon="2.19292">
        <ele>76.1</ele>
        <time>2023-02-08T14:22:22Z</time>
      </trkpt>
      <trkpt lat="49.80446" lon="2.19291">
        <ele>76.1</ele>
        <time>2023-02-08T14:22:23Z</time>
      </trkpt>
      <trkpt lat="49.80446" lon="2.1929">
        <ele>76.2</ele>
        <time>2023-02-08T14:22:24Z</time>
      </trkpt>
      <trkpt lat="49.80446" lon="2.19289">
        <ele>76.2</ele>
        <time>2023-02-08T14:22:25Z</time>
      </trkpt>
      <trkpt lat="49.80445" lon="2.19287">
        <ele>76.2</ele>
        <time>2023-02-08T14:22:26Z</time>
      </trkpt>
      <trkpt lat="49.80445" lon="2.19286">
        <ele>76.3</ele>
        <time>2023-02-08T14:22:28Z</time>
      </trkpt>
      <trkpt lat="49.80444" lon="2.19284">
        <ele>76.3</ele>
        <time>2023-02-08T14:22:29Z</time>
      </trkpt>
      <trkpt lat="49.80443" lon="2.19282">
        <ele>76.4</ele>
        <time>2023-02-08T14:22:30Z</time>
      </trkpt>
      <trkpt lat="49.80443" lon="2.1928">
        <ele>76.4</ele>
        <time>2023-02-08T14:22:31Z</time>
      </trkpt>
      <trkpt lat="49.80442" lon="2.19279">
        <ele>76.4</ele>
        <time>2023-02-08T14:22:32Z</time>
      </trkpt>
      <trkpt lat="49.80441" lon="2.19277">
        <ele>76.5</ele>
        <time>2023-02-08T14:22:33Z</time>
      </trkpt>
      <trkpt lat="49.8044" lon="2.19275">
        <ele>76.5</ele>
        <time>2023-02-08T14:22:35Z</time>
      </trkpt>
      <trkpt lat="49.80439" lon="2.19273">
        <ele>76.6</ele>
        <time>2023-02-08T14:22:36Z</time>
      </trkpt>
      <trkpt lat="49.80438" lon="2.19271">
        <ele>76.6</ele>
        <time>2023-02-08T14:22:37Z</time>
      </trkpt>
      <trkpt lat="49.80438" lon="2.19269">
        <ele>76.7</ele>
        <time>2023-02-08T14:22:38Z</time>
      </trkpt>
      <trkpt lat="49.80437" lon="2.19267">
        <ele>76.7</ele>
        <time>2023-02-08T14:22:39Z</time>
      </trkpt>
      <trkpt lat="49.80436" lon="2.19265">
        <ele>76.8</ele>
        <time>2023-02-08T14:22:41Z</time>
      </trkpt>
      <trkpt lat="49.80436" lon="2.19263">
        <ele>76.8</ele>
        <time>2023-02-08T14:22:42Z</time>
      </trkpt>
      <trkpt lat="49.80435" lon="2.19261">
        <ele>76.8</ele>
        <time>2023-02-08T14:22:43Z</time>
      </trkpt>
      <trkpt lat="49.80434" lon="2.19259">
        <ele>76.9</ele>
        <time>2023-02-08T14:22:44Z</time>
      </trkpt>
      <trkpt lat="49.80433" lon="2.19257">
        <ele>76.9</ele>
        <time>2023-02-08T14:22:45Z</time>
      </trkpt>
      <trkpt lat="49.80433" lon="2.19256">
        <ele>76.9</ele>
        <time>2023-02-08T14:22:46Z</time>
      </trkpt>
      <trkpt lat="49.80432" lon="2.19253">
        <ele>77</ele>
        <time>2023-02-08T14:22:48Z</time>
      </trkpt>
      <trkpt lat="49.80431" lon="2.19251">
        <ele>77</ele>
        <time>2023-02-08T14:22:49Z</time>
      </trkpt>
      <trkpt lat="49.80431" lon="2.19249">
        <ele>77.1</ele>
        <time>2023-02-08T14:22:51Z</time>
      </trkpt>
      <trkpt lat="49.8043" lon="2.19247">
        <ele>77.1</ele>
        <time>2023-02-08T14:22:52Z</time>
      </trkpt>
      <trkpt lat="49.8043" lon="2.19245">
        <ele>77.1</ele>
        <time>2023-02-08T14:22:53Z</time>
      </trkpt>
      <trkpt lat="49.8043" lon="2.19243">
        <ele>77.2</ele>
        <time>2023-02-08T14:22:54Z</time>
      </trkpt>
      <trkpt lat="49.80429" lon="2.19239">
        <ele>77.3</ele>
        <time>2023-02-08T14:22:55Z</time>
      </trkpt>
      <trkpt lat="49.80429" lon="2.19237">
        <ele>77.3</ele>
        <time>2023-02-08T14:22:57Z</time>
      </trkpt>
      <trkpt lat="49.80429" lon="2.19235">
        <ele>77.3</ele>
        <time>2023-02-08T14:22:58Z</time>
      </trkpt>
      <trkpt lat="49.80429" lon="2.19234">
        <ele>77.4</ele>
        <time>2023-02-08T14:23:00Z</time>
      </trkpt>
      <trkpt lat="49.80428" lon="2.19232">
        <ele>77.4</ele>
        <time>2023-02-08T14:23:01Z</time>
      </trkpt>
      <trkpt lat="49.80428" lon="2.19231">
        <ele>77.4</ele>
        <time>2023-02-08T14:23:02Z</time>
      </trkpt>
      <trkpt lat="49.80428" lon="2.19229">
        <ele>77.5</ele>
        <time>2023-02-08T14:23:03Z</time>
      </trkpt>
      <trkpt lat="49.80427" lon="2.19228">
        <ele>77.5</ele>
        <time>2023-02-08T14:23:04Z</time>
      </trkpt>
      <trkpt lat="49.80427" lon="2.19226">
        <ele>77.6</ele>
        <time>2023-02-08T14:23:06Z</time>
      </trkpt>
      <trkpt lat="49.80427" lon="2.19224">
        <ele>77.6</ele>
        <time>2023-02-08T14:23:07Z</time>
      </trkpt>
      <trkpt lat="49.80426" lon="2.19222">
        <ele>77.7</ele>
        <time>2023-02-08T14:23:08Z</time>
      </trkpt>
      <trkpt lat="49.80426" lon="2.19221">
        <ele>77.7</ele>
        <time>2023-02-08T14:23:09Z</time>
      </trkpt>
      <trkpt lat="49.80426" lon="2.19219">
        <ele>77.8</ele>
        <time>2023-02-08T14:23:11Z</time>
      </trkpt>
      <trkpt lat="49.80425" lon="2.19216">
        <ele>77.8</ele>
        <time>2023-02-08T14:23:12Z</time>
      </trkpt>
      <trkpt lat="49.80425" lon="2.19214">
        <ele>77.9</ele>
        <time>2023-02-08T14:23:14Z</time>
      </trkpt>
      <trkpt lat="49.80424" lon="2.19212">
        <ele>77.9</ele>
        <time>2023-02-08T14:23:15Z</time>
      </trkpt>
      <trkpt lat="49.80423" lon="2.1921">
        <ele>78</ele>
        <time>2023-02-08T14:23:16Z</time>
      </trkpt>
      <trkpt lat="49.80423" lon="2.19208">
        <ele>78</ele>
        <time>2023-02-08T14:23:17Z</time>
      </trkpt>
      <trkpt lat="49.80423" lon="2.19206">
        <ele>78.1</ele>
        <time>2023-02-08T14:23:18Z</time>
      </trkpt>
      <trkpt lat="49.80422" lon="2.19202">
        <ele>78.2</ele>
        <time>2023-02-08T14:23:20Z</time>
      </trkpt>
      <trkpt lat="49.80422" lon="2.19201">
        <ele>78.2</ele>
        <time>2023-02-08T14:23:22Z</time>
      </trkpt>
      <trkpt lat="49.80422" lon="2.192">
        <ele>78.3</ele>
        <time>2023-02-08T14:23:23Z</time>
      </trkpt>
      <trkpt lat="49.80421" lon="2.19198">
        <ele>78.3</ele>
        <time>2023-02-08T14:23:24Z</time>
      </trkpt>
      <trkpt lat="49.80421" lon="2.19197">
        <ele>78.3</ele>
        <time>2023-02-08T14:23:25Z</time>
      </trkpt>
      <trkpt lat="49.80421" lon="2.19195">
        <ele>78.4</ele>
        <time>2023-02-08T14:23:26Z</time>
      </trkpt>
      <trkpt lat="49.8042" lon="2.19193">
        <ele>78.4</ele>
        <time>2023-02-08T14:23:27Z</time>
      </trkpt>
      <trkpt lat="49.8042" lon="2.19191">
        <ele>78.5</ele>
        <time>2023-02-08T14:23:28Z</time>
      </trkpt>
      <trkpt lat="49.8042" lon="2.1919">
        <ele>78.5</ele>
        <time>2023-02-08T14:23:29Z</time>
      </trkpt>
      <trkpt lat="49.80419" lon="2.19187">
        <ele>78.6</ele>
        <time>2023-02-08T14:23:31Z</time>
      </trkpt>
      <trkpt lat="49.80419" lon="2.19186">
        <ele>78.7</ele>
        <time>2023-02-08T14:23:32Z</time>
      </trkpt>
      <trkpt lat="49.80419" lon="2.19184">
        <ele>78.7</ele>
        <time>2023-02-08T14:23:33Z</time>
      </trkpt>
      <trkpt lat="49.80419" lon="2.19182">
        <ele>78.8</ele>
        <time>2023-02-08T14:23:34Z</time>
      </trkpt>
      <trkpt lat="49.80419" lon="2.19181">
        <ele>78.8</ele>
        <time>2023-02-08T14:23:35Z</time>
      </trkpt>
      <trkpt lat="49.80419" lon="2.19178">
        <ele>78.9</ele>
        <time>2023-02-08T14:23:36Z</time>
      </trkpt>
      <trkpt lat="49.80419" lon="2.19176">
        <ele>78.9</ele>
        <time>2023-02-08T14:23:38Z</time>
      </trkpt>
      <trkpt lat="49.80419" lon="2.19174">
        <ele>79</ele>
        <time>2023-02-08T14:23:39Z</time>
      </trkpt>
      <trkpt lat="49.80419" lon="2.19173">
        <ele>79</ele>
        <time>2023-02-08T14:23:40Z</time>
      </trkpt>
      <trkpt lat="49.80419" lon="2.1917">
        <ele>79.1</ele>
        <time>2023-02-08T14:23:41Z</time>
      </trkpt>
      <trkpt lat="49.80419" lon="2.19169">
        <ele>79.2</ele>
        <time>2023-02-08T14:23:42Z</time>
      </trkpt>
      <trkpt lat="49.80419" lon="2.19167">
        <ele>79.2</ele>
        <time>2023-02-08T14:23:43Z</time>
      </trkpt>
      <trkpt lat="49.80419" lon="2.19163">
        <ele>79.4</ele>
        <time>2023-02-08T14:23:45Z</time>
      </trkpt>
      <trkpt lat="49.8042" lon="2.19162">
        <ele>79.4</ele>
        <time>2023-02-08T14:23:46Z</time>
      </trkpt>
      <trkpt lat="49.8042" lon="2.19161">
        <ele>79.5</ele>
        <time>2023-02-08T14:23:48Z</time>
      </trkpt>
      <trkpt lat="49.8042" lon="2.19159">
        <ele>79.5</ele>
        <time>2023-02-08T14:23:49Z</time>
      </trkpt>
      <trkpt lat="49.8042" lon="2.19157">
        <ele>79.6</ele>
        <time>2023-02-08T14:23:50Z</time>
      </trkpt>
      <trkpt lat="49.8042" lon="2.19155">
        <ele>79.7</ele>
        <time>2023-02-08T14:23:51Z</time>
      </trkpt>
      <trkpt lat="49.80421" lon="2.19153">
        <ele>79.7</ele>
        <time>2023-02-08T14:23:52Z</time>
      </trkpt>
      <trkpt lat="49.80421" lon="2.19152">
        <ele>79.8</ele>
        <time>2023-02-08T14:23:54Z</time>
      </trkpt>
      <trkpt lat="49.80421" lon="2.19151">
        <ele>79.8</ele>
        <time>2023-02-08T14:23:55Z</time>
      </trkpt>
      <trkpt lat="49.80422" lon="2.19149">
        <ele>79.9</ele>
        <time>2023-02-08T14:23:56Z</time>
      </trkpt>
      <trkpt lat="49.80422" lon="2.19147">
        <ele>79.9</ele>
        <time>2023-02-08T14:23:57Z</time>
      </trkpt>
      <trkpt lat="49.80422" lon="2.19146">
        <ele>80</ele>
        <time>2023-02-08T14:23:58Z</time>
      </trkpt>
      <trkpt lat="49.80422" lon="2.19145">
        <ele>80</ele>
        <time>2023-02-08T14:23:59Z</time>
      </trkpt>
      <trkpt lat="49.80422" lon="2.19143">
        <ele>80.1</ele>
        <time>2023-02-08T14:24:01Z</time>
      </trkpt>
      <trkpt lat="49.80422" lon="2.19142">
        <ele>80.1</ele>
        <time>2023-02-08T14:24:02Z</time>
      </trkpt>
      <trkpt lat="49.80423" lon="2.1914">
        <ele>80.2</ele>
        <time>2023-02-08T14:24:03Z</time>
      </trkpt>
      <trkpt lat="49.80423" lon="2.19139">
        <ele>80.3</ele>
        <time>2023-02-08T14:24:04Z</time>
      </trkpt>
      <trkpt lat="49.80423" lon="2.19138">
        <ele>80.3</ele>
        <time>2023-02-08T14:24:05Z</time>
      </trkpt>
      <trkpt lat="49.80424" lon="2.19135">
        <ele>80.4</ele>
        <time>2023-02-08T14:24:06Z</time>
      </trkpt>
      <trkpt lat="49.80424" lon="2.19134">
        <ele>80.4</ele>
        <time>2023-02-08T14:24:08Z</time>
      </trkpt>
      <trkpt lat="49.80425" lon="2.19133">
        <ele>80.5</ele>
        <time>2023-02-08T14:24:09Z</time>
      </trkpt>
      <trkpt lat="49.80425" lon="2.19132">
        <ele>80.6</ele>
        <time>2023-02-08T14:24:10Z</time>
      </trkpt>
      <trkpt lat="49.80426" lon="2.1913">
        <ele>80.6</ele>
        <time>2023-02-08T14:24:11Z</time>
      </trkpt>
      <trkpt lat="49.80426" lon="2.19129">
        <ele>80.7</ele>
        <time>2023-02-08T14:24:12Z</time>
      </trkpt>
      <trkpt lat="49.80426" lon="2.19127">
        <ele>80.7</ele>
        <time>2023-02-08T14:24:13Z</time>
      </trkpt>
      <trkpt lat="49.80427" lon="2.19126">
        <ele>80.8</ele>
        <time>2023-02-08T14:24:14Z</time>
      </trkpt>
      <trkpt lat="49.80427" lon="2.19124">
        <ele>80.9</ele>
        <time>2023-02-08T14:24:15Z</time>
      </trkpt>
      <trkpt lat="49.80428" lon="2.19122">
        <ele>81</ele>
        <time>2023-02-08T14:24:16Z</time>
      </trkpt>
      <trkpt lat="49.80428" lon="2.1912">
        <ele>81</ele>
        <time>2023-02-08T14:24:17Z</time>
      </trkpt>
      <trkpt lat="49.80429" lon="2.19119">
        <ele>81.1</ele>
        <time>2023-02-08T14:24:19Z</time>
      </trkpt>
      <trkpt lat="49.80429" lon="2.19117">
        <ele>81.2</ele>
        <time>2023-02-08T14:24:20Z</time>
      </trkpt>
      <trkpt lat="49.8043" lon="2.19115">
        <ele>81.3</ele>
        <time>2023-02-08T14:24:21Z</time>
      </trkpt>
      <trkpt lat="49.80431" lon="2.19112">
        <ele>81.4</ele>
        <time>2023-02-08T14:24:22Z</time>
      </trkpt>
      <trkpt lat="49.80432" lon="2.19111">
        <ele>81.5</ele>
        <time>2023-02-08T14:24:23Z</time>
      </trkpt>
      <trkpt lat="49.80432" lon="2.19109">
        <ele>81.5</ele>
        <time>2023-02-08T14:24:25Z</time>
      </trkpt>
      <trkpt lat="49.80433" lon="2.19108">
        <ele>81.6</ele>
        <time>2023-02-08T14:24:26Z</time>
      </trkpt>
      <trkpt lat="49.80433" lon="2.19106">
        <ele>81.7</ele>
        <time>2023-02-08T14:24:27Z</time>
      </trkpt>
      <trkpt lat="49.80434" lon="2.19105">
        <ele>81.7</ele>
        <time>2023-02-08T14:24:28Z</time>
      </trkpt>
      <trkpt lat="49.80434" lon="2.19103">
        <ele>81.8</ele>
        <time>2023-02-08T14:24:30Z</time>
      </trkpt>
      <trkpt lat="49.80435" lon="2.19101">
        <ele>81.9</ele>
        <time>2023-02-08T14:24:31Z</time>
      </trkpt>
      <trkpt lat="49.80435" lon="2.191">
        <ele>82</ele>
        <time>2023-02-08T14:24:32Z</time>
      </trkpt>
      <trkpt lat="49.80436" lon="2.19099">
        <ele>82</ele>
        <time>2023-02-08T14:24:33Z</time>
      </trkpt>
      <trkpt lat="49.80437" lon="2.19097">
        <ele>82.1</ele>
        <time>2023-02-08T14:24:34Z</time>
      </trkpt>
      <trkpt lat="49.80438" lon="2.19096">
        <ele>82.2</ele>
        <time>2023-02-08T14:24:35Z</time>
      </trkpt>
      <trkpt lat="49.80438" lon="2.19094">
        <ele>82.3</ele>
        <time>2023-02-08T14:24:37Z</time>
      </trkpt>
      <trkpt lat="49.80439" lon="2.19093">
        <ele>82.3</ele>
        <time>2023-02-08T14:24:38Z</time>
      </trkpt>
      <trkpt lat="49.8044" lon="2.1909">
        <ele>82.5</ele>
        <time>2023-02-08T14:24:39Z</time>
      </trkpt>
      <trkpt lat="49.80441" lon="2.19089">
        <ele>82.5</ele>
        <time>2023-02-08T14:24:40Z</time>
      </trkpt>
      <trkpt lat="49.80441" lon="2.19088">
        <ele>82.6</ele>
        <time>2023-02-08T14:24:41Z</time>
      </trkpt>
      <trkpt lat="49.80442" lon="2.19087">
        <ele>82.6</ele>
        <time>2023-02-08T14:24:43Z</time>
      </trkpt>
      <trkpt lat="49.80442" lon="2.19085">
        <ele>82.7</ele>
        <time>2023-02-08T14:24:44Z</time>
      </trkpt>
      <trkpt lat="49.80443" lon="2.19084">
        <ele>82.8</ele>
        <time>2023-02-08T14:24:45Z</time>
      </trkpt>
      <trkpt lat="49.80444" lon="2.19081">
        <ele>82.9</ele>
        <time>2023-02-08T14:24:46Z</time>
      </trkpt>
      <trkpt lat="49.80445" lon="2.1908">
        <ele>82.9</ele>
        <time>2023-02-08T14:24:47Z</time>
      </trkpt>
      <trkpt lat="49.80445" lon="2.1908">
        <ele>83</ele>
        <time>2023-02-08T14:24:48Z</time>
      </trkpt>
      <trkpt lat="49.80446" lon="2.19078">
        <ele>83.1</ele>
        <time>2023-02-08T14:24:49Z</time>
      </trkpt>
      <trkpt lat="49.80447" lon="2.19077">
        <ele>83.1</ele>
        <time>2023-02-08T14:24:50Z</time>
      </trkpt>
      <trkpt lat="49.80448" lon="2.19075">
        <ele>83.2</ele>
        <time>2023-02-08T14:24:51Z</time>
      </trkpt>
      <trkpt lat="49.80449" lon="2.19073">
        <ele>83.3</ele>
        <time>2023-02-08T14:24:52Z</time>
      </trkpt>
      <trkpt lat="49.80449" lon="2.19072">
        <ele>83.4</ele>
        <time>2023-02-08T14:24:54Z</time>
      </trkpt>
      <trkpt lat="49.8045" lon="2.1907">
        <ele>83.5</ele>
        <time>2023-02-08T14:24:55Z</time>
      </trkpt>
      <trkpt lat="49.80451" lon="2.19068">
        <ele>83.5</ele>
        <time>2023-02-08T14:24:56Z</time>
      </trkpt>
      <trkpt lat="49.80451" lon="2.19066">
        <ele>83.6</ele>
        <time>2023-02-08T14:24:57Z</time>
      </trkpt>
      <trkpt lat="49.80451" lon="2.19065">
        <ele>83.7</ele>
        <time>2023-02-08T14:24:58Z</time>
      </trkpt>
      <trkpt lat="49.80452" lon="2.19063">
        <ele>83.7</ele>
        <time>2023-02-08T14:24:59Z</time>
      </trkpt>
      <trkpt lat="49.80453" lon="2.19061">
        <ele>83.8</ele>
        <time>2023-02-08T14:25:00Z</time>
      </trkpt>
      <trkpt lat="49.80453" lon="2.19059">
        <ele>83.9</ele>
        <time>2023-02-08T14:25:02Z</time>
      </trkpt>
      <trkpt lat="49.80454" lon="2.19058">
        <ele>84</ele>
        <time>2023-02-08T14:25:03Z</time>
      </trkpt>
      <trkpt lat="49.80455" lon="2.19055">
        <ele>84.1</ele>
        <time>2023-02-08T14:25:04Z</time>
      </trkpt>
      <trkpt lat="49.80455" lon="2.19054">
        <ele>84.1</ele>
        <time>2023-02-08T14:25:05Z</time>
      </trkpt>
      <trkpt lat="49.80455" lon="2.19053">
        <ele>84.2</ele>
        <time>2023-02-08T14:25:07Z</time>
      </trkpt>
      <trkpt lat="49.80455" lon="2.19051">
        <ele>84.2</ele>
        <time>2023-02-08T14:25:08Z</time>
      </trkpt>
      <trkpt lat="49.80455" lon="2.1905">
        <ele>84.2</ele>
        <time>2023-02-08T14:25:09Z</time>
      </trkpt>
      <trkpt lat="49.80455" lon="2.19049">
        <ele>84.3</ele>
        <time>2023-02-08T14:25:10Z</time>
      </trkpt>
      <trkpt lat="49.80455" lon="2.19048">
        <ele>84.3</ele>
        <time>2023-02-08T14:25:11Z</time>
      </trkpt>
      <trkpt lat="49.80456" lon="2.19047">
        <ele>84.4</ele>
        <time>2023-02-08T14:25:12Z</time>
      </trkpt>
      <trkpt lat="49.80456" lon="2.19045">
        <ele>84.4</ele>
        <time>2023-02-08T14:25:13Z</time>
      </trkpt>
      <trkpt lat="49.80456" lon="2.19043">
        <ele>84.5</ele>
        <time>2023-02-08T14:25:14Z</time>
      </trkpt>
      <trkpt lat="49.80457" lon="2.19042">
        <ele>84.6</ele>
        <time>2023-02-08T14:25:16Z</time>
      </trkpt>
      <trkpt lat="49.80457" lon="2.19039">
        <ele>84.6</ele>
        <time>2023-02-08T14:25:17Z</time>
      </trkpt>
      <trkpt lat="49.80457" lon="2.19038">
        <ele>84.7</ele>
        <time>2023-02-08T14:25:18Z</time>
      </trkpt>
      <trkpt lat="49.80457" lon="2.19036">
        <ele>84.7</ele>
        <time>2023-02-08T14:25:19Z</time>
      </trkpt>
      <trkpt lat="49.80458" lon="2.19035">
        <ele>84.8</ele>
        <time>2023-02-08T14:25:20Z</time>
      </trkpt>
      <trkpt lat="49.80458" lon="2.19033">
        <ele>84.9</ele>
        <time>2023-02-08T14:25:21Z</time>
      </trkpt>
      <trkpt lat="49.80458" lon="2.19031">
        <ele>84.9</ele>
        <time>2023-02-08T14:25:23Z</time>
      </trkpt>
      <trkpt lat="49.80458" lon="2.1903">
        <ele>85</ele>
        <time>2023-02-08T14:25:24Z</time>
      </trkpt>
      <trkpt lat="49.80458" lon="2.19028">
        <ele>85</ele>
        <time>2023-02-08T14:25:25Z</time>
      </trkpt>
      <trkpt lat="49.80458" lon="2.19027">
        <ele>85</ele>
        <time>2023-02-08T14:25:26Z</time>
      </trkpt>
      <trkpt lat="49.80458" lon="2.19026">
        <ele>85.1</ele>
        <time>2023-02-08T14:25:27Z</time>
      </trkpt>
      <trkpt lat="49.80456" lon="2.19024">
        <ele>85.2</ele>
        <time>2023-02-08T14:25:29Z</time>
      </trkpt>
      <trkpt lat="49.80456" lon="2.19022">
        <ele>85.2</ele>
        <time>2023-02-08T14:25:30Z</time>
      </trkpt>
      <trkpt lat="49.80455" lon="2.1902">
        <ele>85.3</ele>
        <time>2023-02-08T14:25:32Z</time>
      </trkpt>
      <trkpt lat="49.80455" lon="2.19019">
        <ele>85.3</ele>
        <time>2023-02-08T14:25:33Z</time>
      </trkpt>
      <trkpt lat="49.80454" lon="2.19017">
        <ele>85.4</ele>
        <time>2023-02-08T14:25:34Z</time>
      </trkpt>
      <trkpt lat="49.80453" lon="2.19016">
        <ele>85.4</ele>
        <time>2023-02-08T14:25:35Z</time>
      </trkpt>
      <trkpt lat="49.80452" lon="2.19015">
        <ele>85.5</ele>
        <time>2023-02-08T14:25:36Z</time>
      </trkpt>
      <trkpt lat="49.8045" lon="2.19013">
        <ele>85.5</ele>
        <time>2023-02-08T14:25:37Z</time>
      </trkpt>
      <trkpt lat="49.8045" lon="2.19012">
        <ele>85.6</ele>
        <time>2023-02-08T14:25:38Z</time>
      </trkpt>
      <trkpt lat="49.80449" lon="2.19012">
        <ele>85.6</ele>
        <time>2023-02-08T14:25:39Z</time>
      </trkpt>
      <trkpt lat="49.80448" lon="2.1901">
        <ele>85.6</ele>
        <time>2023-02-08T14:25:41Z</time>
      </trkpt>
      <trkpt lat="49.80446" lon="2.19008">
        <ele>85.7</ele>
        <time>2023-02-08T14:25:42Z</time>
      </trkpt>
      <trkpt lat="49.80445" lon="2.19006">
        <ele>85.7</ele>
        <time>2023-02-08T14:25:43Z</time>
      </trkpt>
      <trkpt lat="49.80444" lon="2.19005">
        <ele>85.8</ele>
        <time>2023-02-08T14:25:44Z</time>
      </trkpt>
      <trkpt lat="49.80443" lon="2.19005">
        <ele>85.8</ele>
        <time>2023-02-08T14:25:45Z</time>
      </trkpt>
      <trkpt lat="49.80442" lon="2.19003">
        <ele>85.8</ele>
        <time>2023-02-08T14:25:47Z</time>
      </trkpt>
      <trkpt lat="49.80441" lon="2.19003">
        <ele>85.8</ele>
        <time>2023-02-08T14:25:48Z</time>
      </trkpt>
      <trkpt lat="49.80441" lon="2.19002">
        <ele>85.8</ele>
        <time>2023-02-08T14:25:49Z</time>
      </trkpt>
      <trkpt lat="49.8044" lon="2.19001">
        <ele>85.8</ele>
        <time>2023-02-08T14:25:51Z</time>
      </trkpt>
      <trkpt lat="49.8044" lon="2.19">
        <ele>85.8</ele>
        <time>2023-02-08T14:25:53Z</time>
      </trkpt>
      <trkpt lat="49.8044" lon="2.19">
        <ele>85.8</ele>
        <time>2023-02-08T14:25:54Z</time>
      </trkpt>
      <trkpt lat="49.8044" lon="2.19">
        <ele>85.9</ele>
        <time>2023-02-08T14:25:55Z</time>
      </trkpt>
      <trkpt lat="49.8044" lon="2.19">
        <ele>85.9</ele>
        <time>2023-02-08T14:25:56Z</time>
      </trkpt>
      <trkpt lat="49.8044" lon="2.19">
        <ele>85.9</ele>
        <time>2023-02-08T14:25:58Z</time>
      </trkpt>
      <trkpt lat="49.80441" lon="2.19">
        <ele>85.9</ele>
        <time>2023-02-08T14:25:59Z</time>
      </trkpt>
      <trkpt lat="49.80441" lon="2.19">
        <ele>85.9</ele>
        <time>2023-02-08T14:26:01Z</time>
      </trkpt>
      <trkpt lat="49.80441" lon="2.19">
        <ele>85.9</ele>
        <time>2023-02-08T14:26:02Z</time>
      </trkpt>
      <trkpt lat="49.80441" lon="2.19">
        <ele>85.9</ele>
        <time>2023-02-08T14:26:04Z</time>
      </trkpt>
      <trkpt lat="49.80441" lon="2.19">
        <ele>85.9</ele>
        <time>2023-02-08T14:26:05Z</time>
      </trkpt>
      <trkpt lat="49.80441" lon="2.19">
        <ele>85.9</ele>
        <time>2023-02-08T14:26:06Z</time>
      </trkpt>
      <trkpt lat="49.80441" lon="2.19">
        <ele>85.9</ele>
        <time>2023-02-08T14:26:08Z</time>
      </trkpt>
      <trkpt lat="49.80441" lon="2.19">
        <ele>85.9</ele>
        <time>2023-02-08T14:26:10Z</time>
      </trkpt>
      <trkpt lat="49.80441" lon="2.19001">
        <ele>85.9</ele>
        <time>2023-02-08T14:26:11Z</time>
      </trkpt>
      <trkpt lat="49.8044" lon="2.19001">
        <ele>85.9</ele>
        <time>2023-02-08T14:26:12Z</time>
      </trkpt>
      <trkpt lat="49.8044" lon="2.19001">
        <ele>85.9</ele>
        <time>2023-02-08T14:26:13Z</time>
      </trkpt>
      <trkpt lat="49.8044" lon="2.19001">
        <ele>85.9</ele>
        <time>2023-02-08T14:26:14Z</time>
      </trkpt>
      <trkpt lat="49.8044" lon="2.19001">
        <ele>85.9</ele>
        <time>2023-02-08T14:26:15Z</time>
      </trkpt>
      <trkpt lat="49.8044" lon="2.19001">
        <ele>85.9</ele>
        <time>2023-02-08T14:26:16Z</time>
      </trkpt>
      <trkpt lat="49.8044" lon="2.19001">
        <ele>85.9</ele>
        <time>2023-02-08T14:26:17Z</time>
      </trkpt>
      <trkpt lat="49.8044" lon="2.19002">
        <ele>85.9</ele>
        <time>2023-02-08T14:26:18Z</time>
      </trkpt>
      <trkpt lat="49.8044" lon="2.19002">
        <ele>85.9</ele>
        <time>2023-02-08T14:26:19Z</time>
      </trkpt>
      <trkpt lat="49.8044" lon="2.19002">
        <ele>85.9</ele>
        <time>2023-02-08T14:26:20Z</time>
      </trkpt>
      <trkpt lat="49.8044" lon="2.19002">
        <ele>85.9</ele>
        <time>2023-02-08T14:26:21Z</time>
      </trkpt>
      <trkpt lat="49.8044" lon="2.19002">
        <ele>85.9</ele>
        <time>2023-02-08T14:26:22Z</time>
      </trkpt>
      <trkpt lat="49.8044" lon="2.19002">
        <ele>85.9</ele>
        <time>2023-02-08T14:26:23Z</time>
      </trkpt>
      <trkpt lat="49.8044" lon="2.19002">
        <ele>85.9</ele>
        <time>2023-02-08T14:26:24Z</time>
      </trkpt>
      <trkpt lat="49.8044" lon="2.19002">
        <ele>85.9</ele>
        <time>2023-02-08T14:26:25Z</time>
      </trkpt>
      <trkpt lat="49.8044" lon="2.19002">
        <ele>85.9</ele>
        <time>2023-02-08T14:26:26Z</time>
      </trkpt>
      <trkpt lat="49.8044" lon="2.19002">
        <ele>85.9</ele>
        <time>2023-02-08T14:26:27Z</time>
      </trkpt>
      <trkpt lat="49.8044" lon="2.19002">
        <ele>85.9</ele>
        <time>2023-02-08T14:26:28Z</time>
      </trkpt>
      <trkpt lat="49.8044" lon="2.19002">
        <ele>85.9</ele>
        <time>2023-02-08T14:26:29Z</time>
      </trkpt>
      <trkpt lat="49.8044" lon="2.19002">
        <ele>85.9</ele>
        <time>2023-02-08T14:26:30Z</time>
      </trkpt>
      <trkpt lat="49.8044" lon="2.19002">
        <ele>85.9</ele>
        <time>2023-02-08T14:26:31Z</time>
      </trkpt>
      <trkpt lat="49.8044" lon="2.19002">
        <ele>85.9</ele>
        <time>2023-02-08T14:26:32Z</time>
      </trkpt>
      <trkpt lat="49.8044" lon="2.19002">
        <ele>85.9</ele>
        <time>2023-02-08T14:26:33Z</time>
      </trkpt>
      <trkpt lat="49.8044" lon="2.19002">
        <ele>85.9</ele>
        <time>2023-02-08T14:26:34Z</time>
      </trkpt>
      <trkpt lat="49.8044" lon="2.19002">
        <ele>85.9</ele>
        <time>2023-02-08T14:26:35Z</time>
      </trkpt>
      <trkpt lat="49.8044" lon="2.19002">
        <ele>85.9</ele>
        <time>2023-02-08T14:26:36Z</time>
      </trkpt>
      <trkpt lat="49.8044" lon="2.19002">
        <ele>85.9</ele>
        <time>2023-02-08T14:26:37Z</time>
      </trkpt>
      <trkpt lat="49.8044" lon="2.19002">
        <ele>85.9</ele>
        <time>2023-02-08T14:26:38Z</time>
      </trkpt>
      <trkpt lat="49.8044" lon="2.19002">
        <ele>85.9</ele>
        <time>2023-02-08T14:26:39Z</time>
      </trkpt>
      <trkpt lat="49.8044" lon="2.19002">
        <ele>85.9</ele>
        <time>2023-02-08T14:26:40Z</time>
      </trkpt>
      <trkpt lat="49.8044" lon="2.19002">
        <ele>85.9</ele>
        <time>2023-02-08T14:26:41Z</time>
      </trkpt>
      <trkpt lat="49.8044" lon="2.19002">
        <ele>85.9</ele>
        <time>2023-02-08T14:26:42Z</time>
      </trkpt>
      <trkpt lat="49.8044" lon="2.19002">
        <ele>85.9</ele>
        <time>2023-02-08T14:26:43Z</time>
      </trkpt>
      <trkpt lat="49.8044" lon="2.19002">
        <ele>85.9</ele>
        <time>2023-02-08T14:26:44Z</time>
      </trkpt>
      <trkpt lat="49.8044" lon="2.19002">
        <ele>85.9</ele>
        <time>2023-02-08T14:26:45Z</time>
      </trkpt>
      <trkpt lat="49.8044" lon="2.19002">
        <ele>85.9</ele>
        <time>2023-02-08T14:26:46Z</time>
      </trkpt>
      <trkpt lat="49.8044" lon="2.19002">
        <ele>85.9</ele>
        <time>2023-02-08T14:26:47Z</time>
      </trkpt>
      <trkpt lat="49.8044" lon="2.19002">
        <ele>85.9</ele>
        <time>2023-02-08T14:26:48Z</time>
      </trkpt>
      <trkpt lat="49.8044" lon="2.19002">
        <ele>85.9</ele>
        <time>2023-02-08T14:26:49Z</time>
      </trkpt>
      <trkpt lat="49.8044" lon="2.19002">
        <ele>85.9</ele>
        <time>2023-02-08T14:26:50Z</time>
      </trkpt>
      <trkpt lat="49.8044" lon="2.19002">
        <ele>85.9</ele>
        <time>2023-02-08T14:26:51Z</time>
      </trkpt>
      <trkpt lat="49.8044" lon="2.19002">
        <ele>85.9</ele>
        <time>2023-02-08T14:26:52Z</time>
      </trkpt>
      <trkpt lat="49.8044" lon="2.19002">
        <ele>85.9</ele>
        <time>2023-02-08T14:26:53Z</time>
      </trkpt>
      <trkpt lat="49.8044" lon="2.19002">
        <ele>85.9</ele>
        <time>2023-02-08T14:26:54Z</time>
      </trkpt>
      <trkpt lat="49.8044" lon="2.19002">
        <ele>85.9</ele>
        <time>2023-02-08T14:26:55Z</time>
      </trkpt>
      <trkpt lat="49.8044" lon="2.19002">
        <ele>85.9</ele>
        <time>2023-02-08T14:26:56Z</time>
      </trkpt>
      <trkpt lat="49.8044" lon="2.19002">
        <ele>85.9</ele>
        <time>2023-02-08T14:26:57Z</time>
      </trkpt>
      <trkpt lat="49.8044" lon="2.19002">
        <ele>85.9</ele>
        <time>2023-02-08T14:26:58Z</time>
      </trkpt>
      <trkpt lat="49.8044" lon="2.19002">
        <ele>85.9</ele>
        <time>2023-02-08T14:26:59Z</time>
      </trkpt>
      <trkpt lat="49.8044" lon="2.19002">
        <ele>85.9</ele>
        <time>2023-02-08T14:27:00Z</time>
      </trkpt>
      <trkpt lat="49.8044" lon="2.19002">
        <ele>85.9</ele>
        <time>2023-02-08T14:27:01Z</time>
      </trkpt>
      <trkpt lat="49.8044" lon="2.19002">
        <ele>85.9</ele>
        <time>2023-02-08T14:27:02Z</time>
      </trkpt>
      <trkpt lat="49.8044" lon="2.19002">
        <ele>85.9</ele>
        <time>2023-02-08T14:27:03Z</time>
      </trkpt>
      <trkpt lat="49.8044" lon="2.19002">
        <ele>85.9</ele>
        <time>2023-02-08T14:27:04Z</time>
      </trkpt>
      <trkpt lat="49.8044" lon="2.19002">
        <ele>85.9</ele>
        <time>2023-02-08T14:27:05Z</time>
      </trkpt>
      <trkpt lat="49.8044" lon="2.19002">
        <ele>85.9</ele>
        <time>2023-02-08T14:27:06Z</time>
      </trkpt>
      <trkpt lat="49.8044" lon="2.19002">
        <ele>85.9</ele>
        <time>2023-02-08T14:27:07Z</time>
      </trkpt>
      <trkpt lat="49.8044" lon="2.19002">
        <ele>85.9</ele>
        <time>2023-02-08T14:27:08Z</time>
      </trkpt>
      <trkpt lat="49.8044" lon="2.19002">
        <ele>85.9</ele>
        <time>2023-02-08T14:27:09Z</time>
      </trkpt>
      <trkpt lat="49.8044" lon="2.19002">
        <ele>85.9</ele>
        <time>2023-02-08T14:27:10Z</time>
      </trkpt>
      <trkpt lat="49.8044" lon="2.19002">
        <ele>85.9</ele>
        <time>2023-02-08T14:27:11Z</time>
      </trkpt>
      <trkpt lat="49.8044" lon="2.19002">
        <ele>85.9</ele>
        <time>2023-02-08T14:27:12Z</time>
      </trkpt>
      <trkpt lat="49.8044" lon="2.19002">
        <ele>85.9</ele>
        <time>2023-02-08T14:27:13Z</time>
      </trkpt>
      <trkpt lat="49.8044" lon="2.19002">
        <ele>85.9</ele>
        <time>2023-02-08T14:27:14Z</time>
      </trkpt>
      <trkpt lat="49.8044" lon="2.19002">
        <ele>85.9</ele>
        <time>2023-02-08T14:27:15Z</time>
      </trkpt>
      <trkpt lat="49.8044" lon="2.19002">
        <ele>85.9</ele>
        <time>2023-02-08T14:27:16Z</time>
      </trkpt>
      <trkpt lat="49.8044" lon="2.19002">
        <ele>85.9</ele>
        <time>2023-02-08T14:27:17Z</time>
      </trkpt>
      <trkpt lat="49.8044" lon="2.19002">
        <ele>85.9</ele>
        <time>2023-02-08T14:27:18Z</time>
      </trkpt>
      <trkpt lat="49.8044" lon="2.19002">
        <ele>85.9</ele>
        <time>2023-02-08T14:27:19Z</time>
      </trkpt>
      <trkpt lat="49.8044" lon="2.19002">
        <ele>85.9</ele>
        <time>2023-02-08T14:27:20Z</time>
      </trkpt>
      <trkpt lat="49.8044" lon="2.19002">
        <ele>85.9</ele>
        <time>2023-02-08T14:27:21Z</time>
      </trkpt>
      <trkpt lat="49.8044" lon="2.19002">
        <ele>85.9</ele>
        <time>2023-02-08T14:27:22Z</time>
      </trkpt>
      <trkpt lat="49.8044" lon="2.19002">
        <ele>85.9</ele>
        <time>2023-02-08T14:27:23Z</time>
      </trkpt>
      <trkpt lat="49.8044" lon="2.19002">
        <ele>85.9</ele>
        <time>2023-02-08T14:27:24Z</time>
      </trkpt>
      <trkpt lat="49.8044" lon="2.19002">
        <ele>85.9</ele>
        <time>2023-02-08T14:27:25Z</time>
      </trkpt>
      <trkpt lat="49.8044" lon="2.19002">
        <ele>85.9</ele>
        <time>2023-02-08T14:27:26Z</time>
      </trkpt>
      <trkpt lat="49.8044" lon="2.19002">
        <ele>85.9</ele>
        <time>2023-02-08T14:27:27Z</time>
      </trkpt>
      <trkpt lat="49.8044" lon="2.19002">
        <ele>85.9</ele>
        <time>2023-02-08T14:27:28Z</time>
      </trkpt>
      <trkpt lat="49.8044" lon="2.19002">
        <ele>85.9</ele>
        <time>2023-02-08T14:27:29Z</time>
      </trkpt>
      <trkpt lat="49.8044" lon="2.19002">
        <ele>85.9</ele>
        <time>2023-02-08T14:27:30Z</time>
      </trkpt>
      <trkpt lat="49.8044" lon="2.19002">
        <ele>85.9</ele>
        <time>2023-02-08T14:27:31Z</time>
      </trkpt>
      <trkpt lat="49.8044" lon="2.19002">
        <ele>85.9</ele>
        <time>2023-02-08T14:27:32Z</time>
      </trkpt>
      <trkpt lat="49.8044" lon="2.19002">
        <ele>85.9</ele>
        <time>2023-02-08T14:27:33Z</time>
      </trkpt>
      <trkpt lat="49.8044" lon="2.19002">
        <ele>85.9</ele>
        <time>2023-02-08T14:27:34Z</time>
      </trkpt>
      <trkpt lat="49.8044" lon="2.19002">
        <ele>85.9</ele>
        <time>2023-02-08T14:27:35Z</time>
      </trkpt>
      <trkpt lat="49.8044" lon="2.19002">
        <ele>85.9</ele>
        <time>2023-02-08T14:27:36Z</time>
      </trkpt>
      <trkpt lat="49.8044" lon="2.19002">
        <ele>85.9</ele>
        <time>2023-02-08T14:27:37Z</time>
      </trkpt>
      <trkpt lat="49.8044" lon="2.19002">
        <ele>85.9</ele>
        <time>2023-02-08T14:27:38Z</time>
      </trkpt>
      <trkpt lat="49.8044" lon="2.19002">
        <ele>85.9</ele>
        <time>2023-02-08T14:27:39Z</time>
      </trkpt>
      <trkpt lat="49.8044" lon="2.19002">
        <ele>85.9</ele>
        <time>2023-02-08T14:27:40Z</time>
      </trkpt>
      <trkpt lat="49.8044" lon="2.19002">
        <ele>85.9</ele>
        <time>2023-02-08T14:27:41Z</time>
      </trkpt>
      <trkpt lat="49.8044" lon="2.19002">
        <ele>85.9</ele>
        <time>2023-02-08T14:27:42Z</time>
      </trkpt>
      <trkpt lat="49.8044" lon="2.19002">
        <ele>85.9</ele>
        <time>2023-02-08T14:27:43Z</time>
      </trkpt>
      <trkpt lat="49.8044" lon="2.19002">
        <ele>85.9</ele>
        <time>2023-02-08T14:27:44Z</time>
      </trkpt>
      <trkpt lat="49.8044" lon="2.19002">
        <ele>85.9</ele>
        <time>2023-02-08T14:27:45Z</time>
      </trkpt>
      <trkpt lat="49.8044" lon="2.19002">
        <ele>85.9</ele>
        <time>2023-02-08T14:27:46Z</time>
      </trkpt>
      <trkpt lat="49.8044" lon="2.19002">
        <ele>85.9</ele>
        <time>2023-02-08T14:27:47Z</time>
      </trkpt>
      <trkpt lat="49.8044" lon="2.19002">
        <ele>85.9</ele>
        <time>2023-02-08T14:27:48Z</time>
      </trkpt>
      <trkpt lat="49.8044" lon="2.19002">
        <ele>85.9</ele>
        <time>2023-02-08T14:27:49Z</time>
      </trkpt>
      <trkpt lat="49.8044" lon="2.19002">
        <ele>85.9</ele>
        <time>2023-02-08T14:27:50Z</time>
      </trkpt>
      <trkpt lat="49.8044" lon="2.19002">
        <ele>85.9</ele>
        <time>2023-02-08T14:27:51Z</time>
      </trkpt>
      <trkpt lat="49.8044" lon="2.19002">
        <ele>85.9</ele>
        <time>2023-02-08T14:27:52Z</time>
      </trkpt>
      <trkpt lat="49.8044" lon="2.19002">
        <ele>85.9</ele>
        <time>2023-02-08T14:27:53Z</time>
      </trkpt>
      <trkpt lat="49.8044" lon="2.19002">
        <ele>85.9</ele>
        <time>2023-02-08T14:27:54Z</time>
      </trkpt>
      <trkpt lat="49.8044" lon="2.19002">
        <ele>85.9</ele>
        <time>2023-02-08T14:27:55Z</time>
      </trkpt>
      <trkpt lat="49.8044" lon="2.19002">
        <ele>85.9</ele>
        <time>2023-02-08T14:27:56Z</time>
      </trkpt>
      <trkpt lat="49.8044" lon="2.19002">
        <ele>85.9</ele>
        <time>2023-02-08T14:27:57Z</time>
      </trkpt>
      <trkpt lat="49.8044" lon="2.19002">
        <ele>85.9</ele>
        <time>2023-02-08T14:27:58Z</time>
      </trkpt>
      <trkpt lat="49.8044" lon="2.19002">
        <ele>85.9</ele>
        <time>2023-02-08T14:27:59Z</time>
      </trkpt>
      <trkpt lat="49.8044" lon="2.19002">
        <ele>85.9</ele>
        <time>2023-02-08T14:28:00Z</time>
      </trkpt>
      <trkpt lat="49.8044" lon="2.19002">
        <ele>85.9</ele>
        <time>2023-02-08T14:28:01Z</time>
      </trkpt>
      <trkpt lat="49.8044" lon="2.19002">
        <ele>85.9</ele>
        <time>2023-02-08T14:28:02Z</time>
      </trkpt>
      <trkpt lat="49.8044" lon="2.19002">
        <ele>85.9</ele>
        <time>2023-02-08T14:28:03Z</time>
      </trkpt>
      <trkpt lat="49.8044" lon="2.19002">
        <ele>85.9</ele>
        <time>2023-02-08T14:28:04Z</time>
      </trkpt>
      <trkpt lat="49.8044" lon="2.19002">
        <ele>85.9</ele>
        <time>2023-02-08T14:28:05Z</time>
      </trkpt>
      <trkpt lat="49.8044" lon="2.19002">
        <ele>85.9</ele>
        <time>2023-02-08T14:28:06Z</time>
      </trkpt>
      <trkpt lat="49.8044" lon="2.19002">
        <ele>85.9</ele>
        <time>2023-02-08T14:28:07Z</time>
      </trkpt>
      <trkpt lat="49.8044" lon="2.19002">
        <ele>85.9</ele>
        <time>2023-02-08T14:28:08Z</time>
      </trkpt>
      <trkpt lat="49.8044" lon="2.19002">
        <ele>85.9</ele>
        <time>2023-02-08T14:28:09Z</time>
      </trkpt>
      <trkpt lat="49.8044" lon="2.19002">
        <ele>85.9</ele>
        <time>2023-02-08T14:28:10Z</time>
      </trkpt>
      <trkpt lat="49.8044" lon="2.19002">
        <ele>85.9</ele>
        <time>2023-02-08T14:28:11Z</time>
      </trkpt>
      <trkpt lat="49.8044" lon="2.19002">
        <ele>85.9</ele>
        <time>2023-02-08T14:28:12Z</time>
      </trkpt>
      <trkpt lat="49.8044" lon="2.19002">
        <ele>85.9</ele>
        <time>2023-02-08T14:28:13Z</time>
      </trkpt>
      <trkpt lat="49.8044" lon="2.19002">
        <ele>85.9</ele>
        <time>2023-02-08T14:28:14Z</time>
      </trkpt>
      <trkpt lat="49.8044" lon="2.19002">
        <ele>85.9</ele>
        <time>2023-02-08T14:28:15Z</time>
      </trkpt>
      <trkpt lat="49.8044" lon="2.19002">
        <ele>85.9</ele>
        <time>2023-02-08T14:28:16Z</time>
      </trkpt>
      <trkpt lat="49.8044" lon="2.19002">
        <ele>85.9</ele>
        <time>2023-02-08T14:28:17Z</time>
      </trkpt>
      <trkpt lat="49.8044" lon="2.19002">
        <ele>85.9</ele>
        <time>2023-02-08T14:28:18Z</time>
      </trkpt>
      <trkpt lat="49.8044" lon="2.19002">
        <ele>85.9</ele>
        <time>2023-02-08T14:28:19Z</time>
      </trkpt>
      <trkpt lat="49.8044" lon="2.19002">
        <ele>85.9</ele>
        <time>2023-02-08T14:28:20Z</time>
      </trkpt>
      <trkpt lat="49.8044" lon="2.19002">
        <ele>85.9</ele>
        <time>2023-02-08T14:28:21Z</time>
      </trkpt>
      <trkpt lat="49.8044" lon="2.19002">
        <ele>85.9</ele>
        <time>2023-02-08T14:28:22Z</time>
      </trkpt>
      <trkpt lat="49.8044" lon="2.19002">
        <ele>85.9</ele>
        <time>2023-02-08T14:28:23Z</time>
      </trkpt>
      <trkpt lat="49.8044" lon="2.19002">
        <ele>85.9</ele>
        <time>2023-02-08T14:28:24Z</time>
      </trkpt>
      <trkpt lat="49.8044" lon="2.19002">
        <ele>85.9</ele>
        <time>2023-02-08T14:28:25Z</time>
      </trkpt>
      <trkpt lat="49.8044" lon="2.19002">
        <ele>85.9</ele>
        <time>2023-02-08T14:28:26Z</time>
      </trkpt>
      <trkpt lat="49.8044" lon="2.19002">
        <ele>85.9</ele>
        <time>2023-02-08T14:28:27Z</time>
      </trkpt>
      <trkpt lat="49.8044" lon="2.19002">
        <ele>85.9</ele>
        <time>2023-02-08T14:28:28Z</time>
      </trkpt>
      <trkpt lat="49.8044" lon="2.19002">
        <ele>85.9</ele>
        <time>2023-02-08T14:28:29Z</time>
      </trkpt>
      <trkpt lat="49.8044" lon="2.19002">
        <ele>85.9</ele>
        <time>2023-02-08T14:28:30Z</time>
      </trkpt>
      <trkpt lat="49.80442" lon="2.19004">
        <ele>85.9</ele>
        <time>2023-02-08T14:28:31Z</time>
      </trkpt>
      <trkpt lat="49.80442" lon="2.19005">
        <ele>85.9</ele>
        <time>2023-02-08T14:28:32Z</time>
      </trkpt>
      <trkpt lat="49.80442" lon="2.19005">
        <ele>85.9</ele>
        <time>2023-02-08T14:28:33Z</time>
      </trkpt>
      <trkpt lat="49.80442" lon="2.19005">
        <ele>85.9</ele>
        <time>2023-02-08T14:28:34Z</time>
      </trkpt>
      <trkpt lat="49.80441" lon="2.19005">
        <ele>85.9</ele>
        <time>2023-02-08T14:28:35Z</time>
      </trkpt>
      <trkpt lat="49.8044" lon="2.19004">
        <ele>85.9</ele>
        <time>2023-02-08T14:28:36Z</time>
      </trkpt>
      <trkpt lat="49.8044" lon="2.19003">
        <ele>85.9</ele>
        <time>2023-02-08T14:28:37Z</time>
      </trkpt>
      <trkpt lat="49.80439" lon="2.19003">
        <ele>85.9</ele>
        <time>2023-02-08T14:28:38Z</time>
      </trkpt>
      <trkpt lat="49.80439" lon="2.19002">
        <ele>85.9</ele>
        <time>2023-02-08T14:28:39Z</time>
      </trkpt>
      <trkpt lat="49.80438" lon="2.19001">
        <ele>85.9</ele>
        <time>2023-02-08T14:28:40Z</time>
      </trkpt>
      <trkpt lat="49.80436" lon="2.19">
        <ele>85.8</ele>
        <time>2023-02-08T14:28:41Z</time>
      </trkpt>
      <trkpt lat="49.80435" lon="2.18998">
        <ele>85.8</ele>
        <time>2023-02-08T14:28:43Z</time>
      </trkpt>
      <trkpt lat="49.80433" lon="2.18996">
        <ele>85.8</ele>
        <time>2023-02-08T14:28:44Z</time>
      </trkpt>
      <trkpt lat="49.80432" lon="2.18995">
        <ele>85.8</ele>
        <time>2023-02-08T14:28:46Z</time>
      </trkpt>
      <trkpt lat="49.80431" lon="2.18994">
        <ele>85.8</ele>
        <time>2023-02-08T14:28:47Z</time>
      </trkpt>
      <trkpt lat="49.80429" lon="2.18992">
        <ele>85.8</ele>
        <time>2023-02-08T14:28:48Z</time>
      </trkpt>
      <trkpt lat="49.80429" lon="2.18992">
        <ele>85.8</ele>
        <time>2023-02-08T14:28:49Z</time>
      </trkpt>
      <trkpt lat="49.80428" lon="2.18991">
        <ele>85.8</ele>
        <time>2023-02-08T14:28:50Z</time>
      </trkpt>
      <trkpt lat="49.80427" lon="2.1899">
        <ele>85.8</ele>
        <time>2023-02-08T14:28:52Z</time>
      </trkpt>
      <trkpt lat="49.80426" lon="2.18989">
        <ele>85.7</ele>
        <time>2023-02-08T14:28:53Z</time>
      </trkpt>
      <trkpt lat="49.80425" lon="2.18989">
        <ele>85.7</ele>
        <time>2023-02-08T14:28:54Z</time>
      </trkpt>
      <trkpt lat="49.80424" lon="2.18988">
        <ele>85.7</ele>
        <time>2023-02-08T14:28:55Z</time>
      </trkpt>
      <trkpt lat="49.80423" lon="2.18986">
        <ele>85.7</ele>
        <time>2023-02-08T14:28:56Z</time>
      </trkpt>
      <trkpt lat="49.80422" lon="2.18985">
        <ele>85.7</ele>
        <time>2023-02-08T14:28:57Z</time>
      </trkpt>
      <trkpt lat="49.80422" lon="2.18984">
        <ele>85.7</ele>
        <time>2023-02-08T14:28:58Z</time>
      </trkpt>
      <trkpt lat="49.8042" lon="2.18982">
        <ele>85.7</ele>
        <time>2023-02-08T14:29:00Z</time>
      </trkpt>
      <trkpt lat="49.80419" lon="2.18981">
        <ele>85.6</ele>
        <time>2023-02-08T14:29:01Z</time>
      </trkpt>
      <trkpt lat="49.80419" lon="2.18981">
        <ele>85.6</ele>
        <time>2023-02-08T14:29:02Z</time>
      </trkpt>
      <trkpt lat="49.80418" lon="2.18979">
        <ele>85.6</ele>
        <time>2023-02-08T14:29:03Z</time>
      </trkpt>
      <trkpt lat="49.80417" lon="2.18978">
        <ele>85.6</ele>
        <time>2023-02-08T14:29:04Z</time>
      </trkpt>
      <trkpt lat="49.80416" lon="2.18977">
        <ele>85.6</ele>
        <time>2023-02-08T14:29:05Z</time>
      </trkpt>
      <trkpt lat="49.80416" lon="2.18976">
        <ele>85.6</ele>
        <time>2023-02-08T14:29:07Z</time>
      </trkpt>
      <trkpt lat="49.80415" lon="2.18975">
        <ele>85.6</ele>
        <time>2023-02-08T14:29:08Z</time>
      </trkpt>
      <trkpt lat="49.80414" lon="2.18974">
        <ele>85.5</ele>
        <time>2023-02-08T14:29:09Z</time>
      </trkpt>
      <trkpt lat="49.80413" lon="2.18972">
        <ele>85.5</ele>
        <time>2023-02-08T14:29:10Z</time>
      </trkpt>
      <trkpt lat="49.80412" lon="2.18971">
        <ele>85.5</ele>
        <time>2023-02-08T14:29:11Z</time>
      </trkpt>
      <trkpt lat="49.80411" lon="2.1897">
        <ele>85.5</ele>
        <time>2023-02-08T14:29:13Z</time>
      </trkpt>
      <trkpt lat="49.8041" lon="2.1897">
        <ele>85.5</ele>
        <time>2023-02-08T14:29:14Z</time>
      </trkpt>
      <trkpt lat="49.8041" lon="2.18969">
        <ele>85.5</ele>
        <time>2023-02-08T14:29:15Z</time>
      </trkpt>
      <trkpt lat="49.80409" lon="2.18968">
        <ele>85.5</ele>
        <time>2023-02-08T14:29:16Z</time>
      </trkpt>
      <trkpt lat="49.80409" lon="2.18967">
        <ele>85.4</ele>
        <time>2023-02-08T14:29:18Z</time>
      </trkpt>
      <trkpt lat="49.80408" lon="2.18967">
        <ele>85.4</ele>
        <time>2023-02-08T14:29:19Z</time>
      </trkpt>
      <trkpt lat="49.80408" lon="2.18967">
        <ele>85.4</ele>
        <time>2023-02-08T14:29:20Z</time>
      </trkpt>
      <trkpt lat="49.80408" lon="2.18966">
        <ele>85.4</ele>
        <time>2023-02-08T14:29:21Z</time>
      </trkpt>
      <trkpt lat="49.80407" lon="2.18966">
        <ele>85.4</ele>
        <time>2023-02-08T14:29:22Z</time>
      </trkpt>
      <trkpt lat="49.80407" lon="2.18965">
        <ele>85.4</ele>
        <time>2023-02-08T14:29:24Z</time>
      </trkpt>
      <trkpt lat="49.80406" lon="2.18964">
        <ele>85.4</ele>
        <time>2023-02-08T14:29:25Z</time>
      </trkpt>
      <trkpt lat="49.80406" lon="2.18962">
        <ele>85.3</ele>
        <time>2023-02-08T14:29:27Z</time>
      </trkpt>
      <trkpt lat="49.80406" lon="2.1896">
        <ele>85.3</ele>
        <time>2023-02-08T14:29:28Z</time>
      </trkpt>
      <trkpt lat="49.80406" lon="2.1896">
        <ele>85.3</ele>
        <time>2023-02-08T14:29:30Z</time>
      </trkpt>
      <trkpt lat="49.80406" lon="2.1896">
        <ele>85.3</ele>
        <time>2023-02-08T14:29:31Z</time>
      </trkpt>
      <trkpt lat="49.80406" lon="2.1896">
        <ele>85.3</ele>
        <time>2023-02-08T14:29:32Z</time>
      </trkpt>
      <trkpt lat="49.80406" lon="2.18961">
        <ele>85.3</ele>
        <time>2023-02-08T14:29:33Z</time>
      </trkpt>
      <trkpt lat="49.80406" lon="2.18961">
        <ele>85.3</ele>
        <time>2023-02-08T14:29:35Z</time>
      </trkpt>
      <trkpt lat="49.80406" lon="2.18961">
        <ele>85.3</ele>
        <time>2023-02-08T14:29:36Z</time>
      </trkpt>
      <trkpt lat="49.80406" lon="2.18961">
        <ele>85.3</ele>
        <time>2023-02-08T14:29:38Z</time>
      </trkpt>
      <trkpt lat="49.80406" lon="2.18961">
        <ele>85.3</ele>
        <time>2023-02-08T14:29:39Z</time>
      </trkpt>
      <trkpt lat="49.80406" lon="2.18962">
        <ele>85.3</ele>
        <time>2023-02-08T14:29:41Z</time>
      </trkpt>
      <trkpt lat="49.80406" lon="2.18962">
        <ele>85.3</ele>
        <time>2023-02-08T14:29:42Z</time>
      </trkpt>
      <trkpt lat="49.80406" lon="2.18962">
        <ele>85.3</ele>
        <time>2023-02-08T14:29:43Z</time>
      </trkpt>
      <trkpt lat="49.80406" lon="2.18962">
        <ele>85.3</ele>
        <time>2023-02-08T14:29:45Z</time>
      </trkpt>
      <trkpt lat="49.80406" lon="2.18962">
        <ele>85.3</ele>
        <time>2023-02-08T14:29:46Z</time>
      </trkpt>
      <trkpt lat="49.80407" lon="2.18963">
        <ele>85.3</ele>
        <time>2023-02-08T14:29:48Z</time>
      </trkpt>
      <trkpt lat="49.80407" lon="2.18963">
        <ele>85.3</ele>
        <time>2023-02-08T14:29:50Z</time>
      </trkpt>
      <trkpt lat="49.80407" lon="2.18963">
        <ele>85.3</ele>
        <time>2023-02-08T14:29:51Z</time>
      </trkpt>
      <trkpt lat="49.80407" lon="2.18963">
        <ele>85.3</ele>
        <time>2023-02-08T14:29:52Z</time>
      </trkpt>
      <trkpt lat="49.80407" lon="2.18963">
        <ele>85.3</ele>
        <time>2023-02-08T14:29:54Z</time>
      </trkpt>
      <trkpt lat="49.80407" lon="2.18964">
        <ele>85.3</ele>
        <time>2023-02-08T14:29:55Z</time>
      </trkpt>
      <trkpt lat="49.80407" lon="2.18964">
        <ele>85.3</ele>
        <time>2023-02-08T14:29:56Z</time>
      </trkpt>
      <trkpt lat="49.80407" lon="2.18964">
        <ele>85.3</ele>
        <time>2023-02-08T14:29:57Z</time>
      </trkpt>
      <trkpt lat="49.80407" lon="2.18964">
        <ele>85.2</ele>
        <time>2023-02-08T14:29:58Z</time>
      </trkpt>
      <trkpt lat="49.80407" lon="2.18964">
        <ele>85.2</ele>
        <time>2023-02-08T14:30:00Z</time>
      </trkpt>
      <trkpt lat="49.80407" lon="2.18965">
        <ele>85.2</ele>
        <time>2023-02-08T14:30:01Z</time>
      </trkpt>
      <trkpt lat="49.80407" lon="2.18965">
        <ele>85.2</ele>
        <time>2023-02-08T14:30:02Z</time>
      </trkpt>
      <trkpt lat="49.80407" lon="2.18965">
        <ele>85.2</ele>
        <time>2023-02-08T14:30:03Z</time>
      </trkpt>
      <trkpt lat="49.80407" lon="2.18965">
        <ele>85.2</ele>
        <time>2023-02-08T14:30:04Z</time>
      </trkpt>
      <trkpt lat="49.80407" lon="2.18965">
        <ele>85.2</ele>
        <time>2023-02-08T14:30:05Z</time>
      </trkpt>
      <trkpt lat="49.80407" lon="2.18965">
        <ele>85.2</ele>
        <time>2023-02-08T14:30:07Z</time>
      </trkpt>
      <trkpt lat="49.80406" lon="2.18965">
        <ele>85.2</ele>
        <time>2023-02-08T14:30:08Z</time>
      </trkpt>
      <trkpt lat="49.80405" lon="2.18964">
        <ele>85.2</ele>
        <time>2023-02-08T14:30:09Z</time>
      </trkpt>
      <trkpt lat="49.80404" lon="2.18964">
        <ele>85.2</ele>
        <time>2023-02-08T14:30:10Z</time>
      </trkpt>
      <trkpt lat="49.80403" lon="2.18964">
        <ele>85.1</ele>
        <time>2023-02-08T14:30:11Z</time>
      </trkpt>
      <trkpt lat="49.80403" lon="2.18963">
        <ele>85.1</ele>
        <time>2023-02-08T14:30:12Z</time>
      </trkpt>
      <trkpt lat="49.80402" lon="2.18963">
        <ele>85.1</ele>
        <time>2023-02-08T14:30:13Z</time>
      </trkpt>
      <trkpt lat="49.80402" lon="2.18963">
        <ele>85.1</ele>
        <time>2023-02-08T14:30:14Z</time>
      </trkpt>
      <trkpt lat="49.80401" lon="2.18962">
        <ele>85.1</ele>
        <time>2023-02-08T14:30:15Z</time>
      </trkpt>
      <trkpt lat="49.80399" lon="2.18961">
        <ele>85.1</ele>
        <time>2023-02-08T14:30:16Z</time>
      </trkpt>
      <trkpt lat="49.80399" lon="2.1896">
        <ele>85</ele>
        <time>2023-02-08T14:30:17Z</time>
      </trkpt>
      <trkpt lat="49.80398" lon="2.18959">
        <ele>85</ele>
        <time>2023-02-08T14:30:18Z</time>
      </trkpt>
      <trkpt lat="49.80396" lon="2.18957">
        <ele>85</ele>
        <time>2023-02-08T14:30:19Z</time>
      </trkpt>
      <trkpt lat="49.80396" lon="2.18956">
        <ele>85</ele>
        <time>2023-02-08T14:30:20Z</time>
      </trkpt>
      <trkpt lat="49.80396" lon="2.18956">
        <ele>85</ele>
        <time>2023-02-08T14:30:21Z</time>
      </trkpt>
      <trkpt lat="49.80395" lon="2.18955">
        <ele>85</ele>
        <time>2023-02-08T14:30:22Z</time>
      </trkpt>
      <trkpt lat="49.80395" lon="2.18955">
        <ele>85</ele>
        <time>2023-02-08T14:30:24Z</time>
      </trkpt>
      <trkpt lat="49.80393" lon="2.18952">
        <ele>84.9</ele>
        <time>2023-02-08T14:30:25Z</time>
      </trkpt>
      <trkpt lat="49.80392" lon="2.18951">
        <ele>84.9</ele>
        <time>2023-02-08T14:30:26Z</time>
      </trkpt>
      <trkpt lat="49.80391" lon="2.1895">
        <ele>84.9</ele>
        <time>2023-02-08T14:30:27Z</time>
      </trkpt>
      <trkpt lat="49.8039" lon="2.1895">
        <ele>84.9</ele>
        <time>2023-02-08T14:30:29Z</time>
      </trkpt>
      <trkpt lat="49.8039" lon="2.18949">
        <ele>84.9</ele>
        <time>2023-02-08T14:30:30Z</time>
      </trkpt>
      <trkpt lat="49.8039" lon="2.18948">
        <ele>84.9</ele>
        <time>2023-02-08T14:30:31Z</time>
      </trkpt>
      <trkpt lat="49.80389" lon="2.18948">
        <ele>84.9</ele>
        <time>2023-02-08T14:30:32Z</time>
      </trkpt>
      <trkpt lat="49.80388" lon="2.18947">
        <ele>84.9</ele>
        <time>2023-02-08T14:30:33Z</time>
      </trkpt>
      <trkpt lat="49.80387" lon="2.18945">
        <ele>84.9</ele>
        <time>2023-02-08T14:30:34Z</time>
      </trkpt>
      <trkpt lat="49.80386" lon="2.18943">
        <ele>84.8</ele>
        <time>2023-02-08T14:30:35Z</time>
      </trkpt>
      <trkpt lat="49.80384" lon="2.1894">
        <ele>84.8</ele>
        <time>2023-02-08T14:30:36Z</time>
      </trkpt>
      <trkpt lat="49.80383" lon="2.18939">
        <ele>84.8</ele>
        <time>2023-02-08T14:30:37Z</time>
      </trkpt>
      <trkpt lat="49.80382" lon="2.18937">
        <ele>84.8</ele>
        <time>2023-02-08T14:30:38Z</time>
      </trkpt>
      <trkpt lat="49.8038" lon="2.18935">
        <ele>84.8</ele>
        <time>2023-02-08T14:30:40Z</time>
      </trkpt>
      <trkpt lat="49.80379" lon="2.18934">
        <ele>84.8</ele>
        <time>2023-02-08T14:30:41Z</time>
      </trkpt>
      <trkpt lat="49.80378" lon="2.18932">
        <ele>84.8</ele>
        <time>2023-02-08T14:30:42Z</time>
      </trkpt>
      <trkpt lat="49.80377" lon="2.18931">
        <ele>84.8</ele>
        <time>2023-02-08T14:30:43Z</time>
      </trkpt>
      <trkpt lat="49.80375" lon="2.18929">
        <ele>84.8</ele>
        <time>2023-02-08T14:30:44Z</time>
      </trkpt>
      <trkpt lat="49.80374" lon="2.18928">
        <ele>84.8</ele>
        <time>2023-02-08T14:30:45Z</time>
      </trkpt>
      <trkpt lat="49.80373" lon="2.18927">
        <ele>84.8</ele>
        <time>2023-02-08T14:30:46Z</time>
      </trkpt>
      <trkpt lat="49.80371" lon="2.18925">
        <ele>84.7</ele>
        <time>2023-02-08T14:30:48Z</time>
      </trkpt>
      <trkpt lat="49.8037" lon="2.18925">
        <ele>84.7</ele>
        <time>2023-02-08T14:30:49Z</time>
      </trkpt>
      <trkpt lat="49.80367" lon="2.18923">
        <ele>84.7</ele>
        <time>2023-02-08T14:30:50Z</time>
      </trkpt>
      <trkpt lat="49.80366" lon="2.18922">
        <ele>84.7</ele>
        <time>2023-02-08T14:30:51Z</time>
      </trkpt>
      <trkpt lat="49.80364" lon="2.1892">
        <ele>84.7</ele>
        <time>2023-02-08T14:30:53Z</time>
      </trkpt>
      <trkpt lat="49.80362" lon="2.18919">
        <ele>84.7</ele>
        <time>2023-02-08T14:30:54Z</time>
      </trkpt>
      <trkpt lat="49.8036" lon="2.18917">
        <ele>84.7</ele>
        <time>2023-02-08T14:30:55Z</time>
      </trkpt>
      <trkpt lat="49.80358" lon="2.18916">
        <ele>84.7</ele>
        <time>2023-02-08T14:30:57Z</time>
      </trkpt>
      <trkpt lat="49.80357" lon="2.18915">
        <ele>84.7</ele>
        <time>2023-02-08T14:30:58Z</time>
      </trkpt>
      <trkpt lat="49.80356" lon="2.18914">
        <ele>84.7</ele>
        <time>2023-02-08T14:30:59Z</time>
      </trkpt>
      <trkpt lat="49.80355" lon="2.18912">
        <ele>84.7</ele>
        <time>2023-02-08T14:31:00Z</time>
      </trkpt>
      <trkpt lat="49.80354" lon="2.18911">
        <ele>84.7</ele>
        <time>2023-02-08T14:31:01Z</time>
      </trkpt>
      <trkpt lat="49.80352" lon="2.18909">
        <ele>84.7</ele>
        <time>2023-02-08T14:31:02Z</time>
      </trkpt>
      <trkpt lat="49.80351" lon="2.18907">
        <ele>84.7</ele>
        <time>2023-02-08T14:31:03Z</time>
      </trkpt>
      <trkpt lat="49.80351" lon="2.18906">
        <ele>84.6</ele>
        <time>2023-02-08T14:31:04Z</time>
      </trkpt>
      <trkpt lat="49.8035" lon="2.18904">
        <ele>84.6</ele>
        <time>2023-02-08T14:31:05Z</time>
      </trkpt>
      <trkpt lat="49.80349" lon="2.18902">
        <ele>84.6</ele>
        <time>2023-02-08T14:31:07Z</time>
      </trkpt>
      <trkpt lat="49.80348" lon="2.18901">
        <ele>84.6</ele>
        <time>2023-02-08T14:31:08Z</time>
      </trkpt>
      <trkpt lat="49.80346" lon="2.18898">
        <ele>84.6</ele>
        <time>2023-02-08T14:31:09Z</time>
      </trkpt>
      <trkpt lat="49.80345" lon="2.18897">
        <ele>84.6</ele>
        <time>2023-02-08T14:31:10Z</time>
      </trkpt>
      <trkpt lat="49.80345" lon="2.18896">
        <ele>84.6</ele>
        <time>2023-02-08T14:31:11Z</time>
      </trkpt>
      <trkpt lat="49.80343" lon="2.18894">
        <ele>84.6</ele>
        <time>2023-02-08T14:31:12Z</time>
      </trkpt>
      <trkpt lat="49.80343" lon="2.18894">
        <ele>84.6</ele>
        <time>2023-02-08T14:31:13Z</time>
      </trkpt>
      <trkpt lat="49.80342" lon="2.18893">
        <ele>84.6</ele>
        <time>2023-02-08T14:31:14Z</time>
      </trkpt>
      <trkpt lat="49.80341" lon="2.18892">
        <ele>84.6</ele>
        <time>2023-02-08T14:31:15Z</time>
      </trkpt>
      <trkpt lat="49.8034" lon="2.1889">
        <ele>84.6</ele>
        <time>2023-02-08T14:31:16Z</time>
      </trkpt>
      <trkpt lat="49.80339" lon="2.18889">
        <ele>84.6</ele>
        <time>2023-02-08T14:31:17Z</time>
      </trkpt>
      <trkpt lat="49.80338" lon="2.18888">
        <ele>84.6</ele>
        <time>2023-02-08T14:31:18Z</time>
      </trkpt>
      <trkpt lat="49.80337" lon="2.18887">
        <ele>84.6</ele>
        <time>2023-02-08T14:31:20Z</time>
      </trkpt>
      <trkpt lat="49.80336" lon="2.18884">
        <ele>84.6</ele>
        <time>2023-02-08T14:31:21Z</time>
      </trkpt>
      <trkpt lat="49.80336" lon="2.18882">
        <ele>84.6</ele>
        <time>2023-02-08T14:31:22Z</time>
      </trkpt>
      <trkpt lat="49.80335" lon="2.18881">
        <ele>84.6</ele>
        <time>2023-02-08T14:31:23Z</time>
      </trkpt>
      <trkpt lat="49.80334" lon="2.18878">
        <ele>84.6</ele>
        <time>2023-02-08T14:31:24Z</time>
      </trkpt>
      <trkpt lat="49.80334" lon="2.18877">
        <ele>84.7</ele>
        <time>2023-02-08T14:31:25Z</time>
      </trkpt>
      <trkpt lat="49.80333" lon="2.18876">
        <ele>84.7</ele>
        <time>2023-02-08T14:31:26Z</time>
      </trkpt>
      <trkpt lat="49.80332" lon="2.18873">
        <ele>84.7</ele>
        <time>2023-02-08T14:31:28Z</time>
      </trkpt>
      <trkpt lat="49.80331" lon="2.18872">
        <ele>84.7</ele>
        <time>2023-02-08T14:31:29Z</time>
      </trkpt>
      <trkpt lat="49.80331" lon="2.1887">
        <ele>84.7</ele>
        <time>2023-02-08T14:31:30Z</time>
      </trkpt>
      <trkpt lat="49.80329" lon="2.18868">
        <ele>84.7</ele>
        <time>2023-02-08T14:31:31Z</time>
      </trkpt>
      <trkpt lat="49.80328" lon="2.18866">
        <ele>84.7</ele>
        <time>2023-02-08T14:31:33Z</time>
      </trkpt>
      <trkpt lat="49.80327" lon="2.18865">
        <ele>84.7</ele>
        <time>2023-02-08T14:31:34Z</time>
      </trkpt>
      <trkpt lat="49.80327" lon="2.18864">
        <ele>84.7</ele>
        <time>2023-02-08T14:31:35Z</time>
      </trkpt>
      <trkpt lat="49.80326" lon="2.18862">
        <ele>84.7</ele>
        <time>2023-02-08T14:31:36Z</time>
      </trkpt>
      <trkpt lat="49.80325" lon="2.1886">
        <ele>84.7</ele>
        <time>2023-02-08T14:31:37Z</time>
      </trkpt>
      <trkpt lat="49.80324" lon="2.18859">
        <ele>84.8</ele>
        <time>2023-02-08T14:31:38Z</time>
      </trkpt>
      <trkpt lat="49.80323" lon="2.18857">
        <ele>84.8</ele>
        <time>2023-02-08T14:31:39Z</time>
      </trkpt>
      <trkpt lat="49.80322" lon="2.18856">
        <ele>84.8</ele>
        <time>2023-02-08T14:31:40Z</time>
      </trkpt>
      <trkpt lat="49.80321" lon="2.18855">
        <ele>84.8</ele>
        <time>2023-02-08T14:31:42Z</time>
      </trkpt>
      <trkpt lat="49.80319" lon="2.18852">
        <ele>84.8</ele>
        <time>2023-02-08T14:31:43Z</time>
      </trkpt>
      <trkpt lat="49.80319" lon="2.18851">
        <ele>84.8</ele>
        <time>2023-02-08T14:31:44Z</time>
      </trkpt>
      <trkpt lat="49.80318" lon="2.1885">
        <ele>84.8</ele>
        <time>2023-02-08T14:31:45Z</time>
      </trkpt>
      <trkpt lat="49.80317" lon="2.18849">
        <ele>84.8</ele>
        <time>2023-02-08T14:31:46Z</time>
      </trkpt>
      <trkpt lat="49.80316" lon="2.18847">
        <ele>84.9</ele>
        <time>2023-02-08T14:31:47Z</time>
      </trkpt>
      <trkpt lat="49.80316" lon="2.18845">
        <ele>84.9</ele>
        <time>2023-02-08T14:31:48Z</time>
      </trkpt>
      <trkpt lat="49.80315" lon="2.18844">
        <ele>84.9</ele>
        <time>2023-02-08T14:31:49Z</time>
      </trkpt>
      <trkpt lat="49.80315" lon="2.18842">
        <ele>84.9</ele>
        <time>2023-02-08T14:31:50Z</time>
      </trkpt>
      <trkpt lat="49.80313" lon="2.18839">
        <ele>84.9</ele>
        <time>2023-02-08T14:31:51Z</time>
      </trkpt>
      <trkpt lat="49.80313" lon="2.18838">
        <ele>84.9</ele>
        <time>2023-02-08T14:31:53Z</time>
      </trkpt>
      <trkpt lat="49.80312" lon="2.18836">
        <ele>84.9</ele>
        <time>2023-02-08T14:31:54Z</time>
      </trkpt>
      <trkpt lat="49.80311" lon="2.18835">
        <ele>85</ele>
        <time>2023-02-08T14:31:55Z</time>
      </trkpt>
      <trkpt lat="49.80311" lon="2.18834">
        <ele>85</ele>
        <time>2023-02-08T14:31:56Z</time>
      </trkpt>
      <trkpt lat="49.80309" lon="2.1883">
        <ele>85</ele>
        <time>2023-02-08T14:31:58Z</time>
      </trkpt>
      <trkpt lat="49.80309" lon="2.18829">
        <ele>85</ele>
        <time>2023-02-08T14:31:59Z</time>
      </trkpt>
      <trkpt lat="49.80308" lon="2.18827">
        <ele>85</ele>
        <time>2023-02-08T14:32:00Z</time>
      </trkpt>
      <trkpt lat="49.80307" lon="2.18825">
        <ele>85.1</ele>
        <time>2023-02-08T14:32:01Z</time>
      </trkpt>
      <trkpt lat="49.80307" lon="2.18824">
        <ele>85.1</ele>
        <time>2023-02-08T14:32:02Z</time>
      </trkpt>
      <trkpt lat="49.80306" lon="2.18821">
        <ele>85.1</ele>
        <time>2023-02-08T14:32:03Z</time>
      </trkpt>
      <trkpt lat="49.80306" lon="2.1882">
        <ele>85.1</ele>
        <time>2023-02-08T14:32:04Z</time>
      </trkpt>
      <trkpt lat="49.80305" lon="2.18817">
        <ele>85.1</ele>
        <time>2023-02-08T14:32:05Z</time>
      </trkpt>
      <trkpt lat="49.80304" lon="2.18816">
        <ele>85.2</ele>
        <time>2023-02-08T14:32:06Z</time>
      </trkpt>
      <trkpt lat="49.80304" lon="2.18814">
        <ele>85.2</ele>
        <time>2023-02-08T14:32:07Z</time>
      </trkpt>
      <trkpt lat="49.80303" lon="2.18813">
        <ele>85.2</ele>
        <time>2023-02-08T14:32:08Z</time>
      </trkpt>
      <trkpt lat="49.80303" lon="2.18811">
        <ele>85.2</ele>
        <time>2023-02-08T14:32:09Z</time>
      </trkpt>
      <trkpt lat="49.80302" lon="2.18809">
        <ele>85.2</ele>
        <time>2023-02-08T14:32:11Z</time>
      </trkpt>
      <trkpt lat="49.80301" lon="2.18807">
        <ele>85.3</ele>
        <time>2023-02-08T14:32:12Z</time>
      </trkpt>
      <trkpt lat="49.803" lon="2.18805">
        <ele>85.3</ele>
        <time>2023-02-08T14:32:13Z</time>
      </trkpt>
      <trkpt lat="49.803" lon="2.18803">
        <ele>85.3</ele>
        <time>2023-02-08T14:32:14Z</time>
      </trkpt>
      <trkpt lat="49.80299" lon="2.18801">
        <ele>85.4</ele>
        <time>2023-02-08T14:32:16Z</time>
      </trkpt>
      <trkpt lat="49.80298" lon="2.18799">
        <ele>85.4</ele>
        <time>2023-02-08T14:32:17Z</time>
      </trkpt>
      <trkpt lat="49.80297" lon="2.18796">
        <ele>85.4</ele>
        <time>2023-02-08T14:32:18Z</time>
      </trkpt>
      <trkpt lat="49.80297" lon="2.18795">
        <ele>85.4</ele>
        <time>2023-02-08T14:32:19Z</time>
      </trkpt>
      <trkpt lat="49.80297" lon="2.18793">
        <ele>85.5</ele>
        <time>2023-02-08T14:32:20Z</time>
      </trkpt>
      <trkpt lat="49.80296" lon="2.18791">
        <ele>85.5</ele>
        <time>2023-02-08T14:32:21Z</time>
      </trkpt>
      <trkpt lat="49.80295" lon="2.18789">
        <ele>85.5</ele>
        <time>2023-02-08T14:32:22Z</time>
      </trkpt>
      <trkpt lat="49.80295" lon="2.18787">
        <ele>85.6</ele>
        <time>2023-02-08T14:32:23Z</time>
      </trkpt>
      <trkpt lat="49.80294" lon="2.18786">
        <ele>85.6</ele>
        <time>2023-02-08T14:32:24Z</time>
      </trkpt>
      <trkpt lat="49.80294" lon="2.18784">
        <ele>85.6</ele>
        <time>2023-02-08T14:32:26Z</time>
      </trkpt>
      <trkpt lat="49.80293" lon="2.18782">
        <ele>85.6</ele>
        <time>2023-02-08T14:32:27Z</time>
      </trkpt>
      <trkpt lat="49.80293" lon="2.1878">
        <ele>85.7</ele>
        <time>2023-02-08T14:32:28Z</time>
      </trkpt>
      <trkpt lat="49.80292" lon="2.18778">
        <ele>85.7</ele>
        <time>2023-02-08T14:32:29Z</time>
      </trkpt>
      <trkpt lat="49.80291" lon="2.18774">
        <ele>85.8</ele>
        <time>2023-02-08T14:32:30Z</time>
      </trkpt>
      <trkpt lat="49.8029" lon="2.18772">
        <ele>85.8</ele>
        <time>2023-02-08T14:32:32Z</time>
      </trkpt>
      <trkpt lat="49.8029" lon="2.18771">
        <ele>85.8</ele>
        <time>2023-02-08T14:32:33Z</time>
      </trkpt>
      <trkpt lat="49.80289" lon="2.18769">
        <ele>85.9</ele>
        <time>2023-02-08T14:32:34Z</time>
      </trkpt>
      <trkpt lat="49.80288" lon="2.18766">
        <ele>85.9</ele>
        <time>2023-02-08T14:32:36Z</time>
      </trkpt>
      <trkpt lat="49.80288" lon="2.18765">
        <ele>85.9</ele>
        <time>2023-02-08T14:32:37Z</time>
      </trkpt>
      <trkpt lat="49.80287" lon="2.18764">
        <ele>86</ele>
        <time>2023-02-08T14:32:38Z</time>
      </trkpt>
      <trkpt lat="49.80287" lon="2.18763">
        <ele>86</ele>
        <time>2023-02-08T14:32:39Z</time>
      </trkpt>
      <trkpt lat="49.80286" lon="2.1876">
        <ele>86.1</ele>
        <time>2023-02-08T14:32:40Z</time>
      </trkpt>
      <trkpt lat="49.80285" lon="2.18758">
        <ele>86.1</ele>
        <time>2023-02-08T14:32:41Z</time>
      </trkpt>
      <trkpt lat="49.80284" lon="2.18755">
        <ele>86.2</ele>
        <time>2023-02-08T14:32:43Z</time>
      </trkpt>
      <trkpt lat="49.80284" lon="2.18754">
        <ele>86.2</ele>
        <time>2023-02-08T14:32:44Z</time>
      </trkpt>
      <trkpt lat="49.80283" lon="2.18753">
        <ele>86.2</ele>
        <time>2023-02-08T14:32:45Z</time>
      </trkpt>
      <trkpt lat="49.80282" lon="2.18751">
        <ele>86.2</ele>
        <time>2023-02-08T14:32:46Z</time>
      </trkpt>
      <trkpt lat="49.80282" lon="2.18749">
        <ele>86.3</ele>
        <time>2023-02-08T14:32:47Z</time>
      </trkpt>
      <trkpt lat="49.80281" lon="2.18747">
        <ele>86.3</ele>
        <time>2023-02-08T14:32:48Z</time>
      </trkpt>
      <trkpt lat="49.8028" lon="2.18746">
        <ele>86.3</ele>
        <time>2023-02-08T14:32:49Z</time>
      </trkpt>
      <trkpt lat="49.80279" lon="2.18745">
        <ele>86.4</ele>
        <time>2023-02-08T14:32:50Z</time>
      </trkpt>
      <trkpt lat="49.80279" lon="2.18743">
        <ele>86.4</ele>
        <time>2023-02-08T14:32:51Z</time>
      </trkpt>
      <trkpt lat="49.80278" lon="2.18742">
        <ele>86.4</ele>
        <time>2023-02-08T14:32:52Z</time>
      </trkpt>
      <trkpt lat="49.80277" lon="2.1874">
        <ele>86.5</ele>
        <time>2023-02-08T14:32:53Z</time>
      </trkpt>
      <trkpt lat="49.80276" lon="2.18737">
        <ele>86.5</ele>
        <time>2023-02-08T14:32:54Z</time>
      </trkpt>
      <trkpt lat="49.80275" lon="2.18737">
        <ele>86.5</ele>
        <time>2023-02-08T14:32:56Z</time>
      </trkpt>
      <trkpt lat="49.80275" lon="2.18736">
        <ele>86.6</ele>
        <time>2023-02-08T14:32:57Z</time>
      </trkpt>
      <trkpt lat="49.80274" lon="2.18734">
        <ele>86.6</ele>
        <time>2023-02-08T14:32:58Z</time>
      </trkpt>
      <trkpt lat="49.80273" lon="2.18733">
        <ele>86.6</ele>
        <time>2023-02-08T14:32:59Z</time>
      </trkpt>
      <trkpt lat="49.80273" lon="2.18732">
        <ele>86.6</ele>
        <time>2023-02-08T14:33:00Z</time>
      </trkpt>
      <trkpt lat="49.80272" lon="2.1873">
        <ele>86.6</ele>
        <time>2023-02-08T14:33:01Z</time>
      </trkpt>
      <trkpt lat="49.80272" lon="2.18729">
        <ele>86.7</ele>
        <time>2023-02-08T14:33:02Z</time>
      </trkpt>
      <trkpt lat="49.80271" lon="2.18727">
        <ele>86.7</ele>
        <time>2023-02-08T14:33:03Z</time>
      </trkpt>
      <trkpt lat="49.80271" lon="2.18726">
        <ele>86.7</ele>
        <time>2023-02-08T14:33:04Z</time>
      </trkpt>
      <trkpt lat="49.8027" lon="2.18724">
        <ele>86.7</ele>
        <time>2023-02-08T14:33:05Z</time>
      </trkpt>
      <trkpt lat="49.8027" lon="2.18722">
        <ele>86.8</ele>
        <time>2023-02-08T14:33:07Z</time>
      </trkpt>
      <trkpt lat="49.80269" lon="2.18719">
        <ele>86.8</ele>
        <time>2023-02-08T14:33:08Z</time>
      </trkpt>
      <trkpt lat="49.80268" lon="2.18718">
        <ele>86.8</ele>
        <time>2023-02-08T14:33:09Z</time>
      </trkpt>
      <trkpt lat="49.80268" lon="2.18717">
        <ele>86.8</ele>
        <time>2023-02-08T14:33:10Z</time>
      </trkpt>
      <trkpt lat="49.80266" lon="2.18714">
        <ele>86.9</ele>
        <time>2023-02-08T14:33:11Z</time>
      </trkpt>
      <trkpt lat="49.80266" lon="2.18713">
        <ele>86.9</ele>
        <time>2023-02-08T14:33:12Z</time>
      </trkpt>
      <trkpt lat="49.80265" lon="2.18712">
        <ele>86.9</ele>
        <time>2023-02-08T14:33:13Z</time>
      </trkpt>
      <trkpt lat="49.80265" lon="2.1871">
        <ele>87</ele>
        <time>2023-02-08T14:33:14Z</time>
      </trkpt>
      <trkpt lat="49.80264" lon="2.18709">
        <ele>87</ele>
        <time>2023-02-08T14:33:16Z</time>
      </trkpt>
      <trkpt lat="49.80263" lon="2.18707">
        <ele>87</ele>
        <time>2023-02-08T14:33:17Z</time>
      </trkpt>
      <trkpt lat="49.80262" lon="2.18705">
        <ele>87</ele>
        <time>2023-02-08T14:33:18Z</time>
      </trkpt>
      <trkpt lat="49.80262" lon="2.18703">
        <ele>87.1</ele>
        <time>2023-02-08T14:33:19Z</time>
      </trkpt>
      <trkpt lat="49.80261" lon="2.187">
        <ele>87.1</ele>
        <time>2023-02-08T14:33:20Z</time>
      </trkpt>
      <trkpt lat="49.8026" lon="2.18699">
        <ele>87.1</ele>
        <time>2023-02-08T14:33:21Z</time>
      </trkpt>
      <trkpt lat="49.8026" lon="2.18698">
        <ele>87.2</ele>
        <time>2023-02-08T14:33:22Z</time>
      </trkpt>
      <trkpt lat="49.80259" lon="2.18696">
        <ele>87.2</ele>
        <time>2023-02-08T14:33:23Z</time>
      </trkpt>
      <trkpt lat="49.80258" lon="2.18695">
        <ele>87.2</ele>
        <time>2023-02-08T14:33:24Z</time>
      </trkpt>
      <trkpt lat="49.80257" lon="2.18693">
        <ele>87.2</ele>
        <time>2023-02-08T14:33:26Z</time>
      </trkpt>
      <trkpt lat="49.80256" lon="2.18691">
        <ele>87.3</ele>
        <time>2023-02-08T14:33:27Z</time>
      </trkpt>
      <trkpt lat="49.80255" lon="2.18688">
        <ele>87.3</ele>
        <time>2023-02-08T14:33:28Z</time>
      </trkpt>
      <trkpt lat="49.80254" lon="2.18688">
        <ele>87.3</ele>
        <time>2023-02-08T14:33:29Z</time>
      </trkpt>
      <trkpt lat="49.80254" lon="2.18687">
        <ele>87.3</ele>
        <time>2023-02-08T14:33:30Z</time>
      </trkpt>
      <trkpt lat="49.80253" lon="2.18685">
        <ele>87.4</ele>
        <time>2023-02-08T14:33:31Z</time>
      </trkpt>
      <trkpt lat="49.80253" lon="2.18684">
        <ele>87.4</ele>
        <time>2023-02-08T14:33:32Z</time>
      </trkpt>
      <trkpt lat="49.80252" lon="2.18682">
        <ele>87.4</ele>
        <time>2023-02-08T14:33:34Z</time>
      </trkpt>
      <trkpt lat="49.80251" lon="2.1868">
        <ele>87.5</ele>
        <time>2023-02-08T14:33:35Z</time>
      </trkpt>
      <trkpt lat="49.8025" lon="2.18679">
        <ele>87.5</ele>
        <time>2023-02-08T14:33:36Z</time>
      </trkpt>
      <trkpt lat="49.8025" lon="2.18677">
        <ele>87.5</ele>
        <time>2023-02-08T14:33:37Z</time>
      </trkpt>
      <trkpt lat="49.80249" lon="2.18675">
        <ele>87.5</ele>
        <time>2023-02-08T14:33:38Z</time>
      </trkpt>
      <trkpt lat="49.80249" lon="2.18674">
        <ele>87.5</ele>
        <time>2023-02-08T14:33:39Z</time>
      </trkpt>
      <trkpt lat="49.80248" lon="2.18673">
        <ele>87.6</ele>
        <time>2023-02-08T14:33:40Z</time>
      </trkpt>
      <trkpt lat="49.80248" lon="2.18672">
        <ele>87.6</ele>
        <time>2023-02-08T14:33:41Z</time>
      </trkpt>
      <trkpt lat="49.80247" lon="2.1867">
        <ele>87.6</ele>
        <time>2023-02-08T14:33:43Z</time>
      </trkpt>
      <trkpt lat="49.80246" lon="2.18668">
        <ele>87.6</ele>
        <time>2023-02-08T14:33:44Z</time>
      </trkpt>
      <trkpt lat="49.80246" lon="2.18667">
        <ele>87.6</ele>
        <time>2023-02-08T14:33:45Z</time>
      </trkpt>
      <trkpt lat="49.80245" lon="2.18666">
        <ele>87.7</ele>
        <time>2023-02-08T14:33:46Z</time>
      </trkpt>
      <trkpt lat="49.80245" lon="2.18664">
        <ele>87.7</ele>
        <time>2023-02-08T14:33:47Z</time>
      </trkpt>
      <trkpt lat="49.80244" lon="2.18662">
        <ele>87.7</ele>
        <time>2023-02-08T14:33:48Z</time>
      </trkpt>
      <trkpt lat="49.80243" lon="2.18661">
        <ele>87.7</ele>
        <time>2023-02-08T14:33:49Z</time>
      </trkpt>
      <trkpt lat="49.80243" lon="2.1866">
        <ele>87.7</ele>
        <time>2023-02-08T14:33:51Z</time>
      </trkpt>
      <trkpt lat="49.80242" lon="2.18659">
        <ele>87.8</ele>
        <time>2023-02-08T14:33:52Z</time>
      </trkpt>
      <trkpt lat="49.80241" lon="2.18657">
        <ele>87.8</ele>
        <time>2023-02-08T14:33:53Z</time>
      </trkpt>
      <trkpt lat="49.8024" lon="2.18656">
        <ele>87.8</ele>
        <time>2023-02-08T14:33:54Z</time>
      </trkpt>
      <trkpt lat="49.80239" lon="2.18655">
        <ele>87.8</ele>
        <time>2023-02-08T14:33:55Z</time>
      </trkpt>
      <trkpt lat="49.80239" lon="2.18654">
        <ele>87.9</ele>
        <time>2023-02-08T14:33:56Z</time>
      </trkpt>
      <trkpt lat="49.80237" lon="2.18651">
        <ele>87.9</ele>
        <time>2023-02-08T14:33:57Z</time>
      </trkpt>
      <trkpt lat="49.80237" lon="2.1865">
        <ele>87.9</ele>
        <time>2023-02-08T14:33:58Z</time>
      </trkpt>
      <trkpt lat="49.80236" lon="2.18648">
        <ele>87.9</ele>
        <time>2023-02-08T14:34:00Z</time>
      </trkpt>
      <trkpt lat="49.80236" lon="2.18647">
        <ele>88</ele>
        <time>2023-02-08T14:34:01Z</time>
      </trkpt>
      <trkpt lat="49.80235" lon="2.18646">
        <ele>88</ele>
        <time>2023-02-08T14:34:02Z</time>
      </trkpt>
      <trkpt lat="49.80235" lon="2.18644">
        <ele>88</ele>
        <time>2023-02-08T14:34:03Z</time>
      </trkpt>
      <trkpt lat="49.80234" lon="2.18643">
        <ele>88</ele>
        <time>2023-02-08T14:34:04Z</time>
      </trkpt>
      <trkpt lat="49.80234" lon="2.18642">
        <ele>88</ele>
        <time>2023-02-08T14:34:05Z</time>
      </trkpt>
      <trkpt lat="49.80233" lon="2.18641">
        <ele>88</ele>
        <time>2023-02-08T14:34:06Z</time>
      </trkpt>
      <trkpt lat="49.80233" lon="2.18639">
        <ele>88.1</ele>
        <time>2023-02-08T14:34:08Z</time>
      </trkpt>
      <trkpt lat="49.80232" lon="2.18637">
        <ele>88.1</ele>
        <time>2023-02-08T14:34:09Z</time>
      </trkpt>
      <trkpt lat="49.80231" lon="2.18636">
        <ele>88.1</ele>
        <time>2023-02-08T14:34:10Z</time>
      </trkpt>
      <trkpt lat="49.8023" lon="2.18634">
        <ele>88.2</ele>
        <time>2023-02-08T14:34:11Z</time>
      </trkpt>
      <trkpt lat="49.8023" lon="2.18632">
        <ele>88.2</ele>
        <time>2023-02-08T14:34:12Z</time>
      </trkpt>
      <trkpt lat="49.8023" lon="2.18631">
        <ele>88.2</ele>
        <time>2023-02-08T14:34:13Z</time>
      </trkpt>
      <trkpt lat="49.80229" lon="2.1863">
        <ele>88.2</ele>
        <time>2023-02-08T14:34:14Z</time>
      </trkpt>
      <trkpt lat="49.80229" lon="2.18629">
        <ele>88.2</ele>
        <time>2023-02-08T14:34:16Z</time>
      </trkpt>
      <trkpt lat="49.80228" lon="2.18627">
        <ele>88.2</ele>
        <time>2023-02-08T14:34:17Z</time>
      </trkpt>
      <trkpt lat="49.80227" lon="2.18625">
        <ele>88.3</ele>
        <time>2023-02-08T14:34:18Z</time>
      </trkpt>
      <trkpt lat="49.80227" lon="2.18624">
        <ele>88.3</ele>
        <time>2023-02-08T14:34:19Z</time>
      </trkpt>
      <trkpt lat="49.80226" lon="2.18623">
        <ele>88.3</ele>
        <time>2023-02-08T14:34:20Z</time>
      </trkpt>
      <trkpt lat="49.80226" lon="2.18621">
        <ele>88.3</ele>
        <time>2023-02-08T14:34:21Z</time>
      </trkpt>
      <trkpt lat="49.80225" lon="2.1862">
        <ele>88.3</ele>
        <time>2023-02-08T14:34:23Z</time>
      </trkpt>
      <trkpt lat="49.80225" lon="2.18618">
        <ele>88.4</ele>
        <time>2023-02-08T14:34:24Z</time>
      </trkpt>
      <trkpt lat="49.80224" lon="2.18617">
        <ele>88.4</ele>
        <time>2023-02-08T14:34:25Z</time>
      </trkpt>
      <trkpt lat="49.80224" lon="2.18615">
        <ele>88.4</ele>
        <time>2023-02-08T14:34:26Z</time>
      </trkpt>
      <trkpt lat="49.80223" lon="2.18614">
        <ele>88.4</ele>
        <time>2023-02-08T14:34:27Z</time>
      </trkpt>
      <trkpt lat="49.80222" lon="2.18612">
        <ele>88.4</ele>
        <time>2023-02-08T14:34:28Z</time>
      </trkpt>
      <trkpt lat="49.80222" lon="2.18611">
        <ele>88.4</ele>
        <time>2023-02-08T14:34:30Z</time>
      </trkpt>
      <trkpt lat="49.80221" lon="2.18609">
        <ele>88.5</ele>
        <time>2023-02-08T14:34:31Z</time>
      </trkpt>
      <trkpt lat="49.8022" lon="2.18607">
        <ele>88.5</ele>
        <time>2023-02-08T14:34:32Z</time>
      </trkpt>
      <trkpt lat="49.8022" lon="2.18606">
        <ele>88.5</ele>
        <time>2023-02-08T14:34:33Z</time>
      </trkpt>
      <trkpt lat="49.80219" lon="2.18605">
        <ele>88.5</ele>
        <time>2023-02-08T14:34:34Z</time>
      </trkpt>
      <trkpt lat="49.80218" lon="2.18602">
        <ele>88.5</ele>
        <time>2023-02-08T14:34:35Z</time>
      </trkpt>
      <trkpt lat="49.80218" lon="2.18601">
        <ele>88.6</ele>
        <time>2023-02-08T14:34:37Z</time>
      </trkpt>
      <trkpt lat="49.80217" lon="2.186">
        <ele>88.6</ele>
        <time>2023-02-08T14:34:38Z</time>
      </trkpt>
      <trkpt lat="49.80216" lon="2.18598">
        <ele>88.6</ele>
        <time>2023-02-08T14:34:39Z</time>
      </trkpt>
      <trkpt lat="49.80216" lon="2.18596">
        <ele>88.6</ele>
        <time>2023-02-08T14:34:40Z</time>
      </trkpt>
      <trkpt lat="49.80215" lon="2.18595">
        <ele>88.6</ele>
        <time>2023-02-08T14:34:41Z</time>
      </trkpt>
      <trkpt lat="49.80215" lon="2.18593">
        <ele>88.6</ele>
        <time>2023-02-08T14:34:43Z</time>
      </trkpt>
      <trkpt lat="49.80214" lon="2.18592">
        <ele>88.7</ele>
        <time>2023-02-08T14:34:44Z</time>
      </trkpt>
      <trkpt lat="49.80214" lon="2.1859">
        <ele>88.7</ele>
        <time>2023-02-08T14:34:45Z</time>
      </trkpt>
      <trkpt lat="49.80213" lon="2.18589">
        <ele>88.7</ele>
        <time>2023-02-08T14:34:46Z</time>
      </trkpt>
      <trkpt lat="49.80213" lon="2.18587">
        <ele>88.7</ele>
        <time>2023-02-08T14:34:47Z</time>
      </trkpt>
      <trkpt lat="49.80212" lon="2.18585">
        <ele>88.7</ele>
        <time>2023-02-08T14:34:48Z</time>
      </trkpt>
      <trkpt lat="49.80212" lon="2.18584">
        <ele>88.8</ele>
        <time>2023-02-08T14:34:49Z</time>
      </trkpt>
      <trkpt lat="49.80212" lon="2.18582">
        <ele>88.8</ele>
        <time>2023-02-08T14:34:51Z</time>
      </trkpt>
      <trkpt lat="49.80212" lon="2.1858">
        <ele>88.8</ele>
        <time>2023-02-08T14:34:52Z</time>
      </trkpt>
      <trkpt lat="49.80212" lon="2.18578">
        <ele>88.8</ele>
        <time>2023-02-08T14:34:53Z</time>
      </trkpt>
      <trkpt lat="49.80211" lon="2.18576">
        <ele>88.8</ele>
        <time>2023-02-08T14:34:54Z</time>
      </trkpt>
      <trkpt lat="49.80211" lon="2.18575">
        <ele>88.9</ele>
        <time>2023-02-08T14:34:55Z</time>
      </trkpt>
      <trkpt lat="49.80211" lon="2.18572">
        <ele>88.9</ele>
        <time>2023-02-08T14:34:56Z</time>
      </trkpt>
      <trkpt lat="49.80211" lon="2.1857">
        <ele>88.9</ele>
        <time>2023-02-08T14:34:58Z</time>
      </trkpt>
      <trkpt lat="49.80211" lon="2.18568">
        <ele>88.9</ele>
        <time>2023-02-08T14:34:59Z</time>
      </trkpt>
      <trkpt lat="49.80211" lon="2.18567">
        <ele>88.9</ele>
        <time>2023-02-08T14:35:00Z</time>
      </trkpt>
      <trkpt lat="49.8021" lon="2.18566">
        <ele>88.9</ele>
        <time>2023-02-08T14:35:01Z</time>
      </trkpt>
      <trkpt lat="49.8021" lon="2.18564">
        <ele>88.9</ele>
        <time>2023-02-08T14:35:02Z</time>
      </trkpt>
      <trkpt lat="49.80209" lon="2.18561">
        <ele>89</ele>
        <time>2023-02-08T14:35:03Z</time>
      </trkpt>
      <trkpt lat="49.80209" lon="2.1856">
        <ele>89</ele>
        <time>2023-02-08T14:35:05Z</time>
      </trkpt>
      <trkpt lat="49.80209" lon="2.18559">
        <ele>89</ele>
        <time>2023-02-08T14:35:06Z</time>
      </trkpt>
      <trkpt lat="49.80208" lon="2.18557">
        <ele>89</ele>
        <time>2023-02-08T14:35:07Z</time>
      </trkpt>
      <trkpt lat="49.80208" lon="2.18556">
        <ele>89</ele>
        <time>2023-02-08T14:35:08Z</time>
      </trkpt>
      <trkpt lat="49.80207" lon="2.18554">
        <ele>89</ele>
        <time>2023-02-08T14:35:09Z</time>
      </trkpt>
      <trkpt lat="49.80206" lon="2.18553">
        <ele>89</ele>
        <time>2023-02-08T14:35:10Z</time>
      </trkpt>
      <trkpt lat="49.80205" lon="2.18551">
        <ele>89</ele>
        <time>2023-02-08T14:35:11Z</time>
      </trkpt>
      <trkpt lat="49.80205" lon="2.1855">
        <ele>89</ele>
        <time>2023-02-08T14:35:13Z</time>
      </trkpt>
      <trkpt lat="49.80204" lon="2.18547">
        <ele>89</ele>
        <time>2023-02-08T14:35:14Z</time>
      </trkpt>
      <trkpt lat="49.80203" lon="2.18546">
        <ele>89</ele>
        <time>2023-02-08T14:35:15Z</time>
      </trkpt>
      <trkpt lat="49.80203" lon="2.18545">
        <ele>89</ele>
        <time>2023-02-08T14:35:16Z</time>
      </trkpt>
      <trkpt lat="49.80202" lon="2.18543">
        <ele>89</ele>
        <time>2023-02-08T14:35:17Z</time>
      </trkpt>
      <trkpt lat="49.80201" lon="2.18542">
        <ele>89</ele>
        <time>2023-02-08T14:35:19Z</time>
      </trkpt>
      <trkpt lat="49.80201" lon="2.18541">
        <ele>89</ele>
        <time>2023-02-08T14:35:20Z</time>
      </trkpt>
      <trkpt lat="49.80201" lon="2.1854">
        <ele>89</ele>
        <time>2023-02-08T14:35:21Z</time>
      </trkpt>
      <trkpt lat="49.802" lon="2.18539">
        <ele>89</ele>
        <time>2023-02-08T14:35:22Z</time>
      </trkpt>
      <trkpt lat="49.802" lon="2.18537">
        <ele>89</ele>
        <time>2023-02-08T14:35:23Z</time>
      </trkpt>
      <trkpt lat="49.802" lon="2.18535">
        <ele>89</ele>
        <time>2023-02-08T14:35:24Z</time>
      </trkpt>
      <trkpt lat="49.80199" lon="2.18532">
        <ele>89</ele>
        <time>2023-02-08T14:35:25Z</time>
      </trkpt>
      <trkpt lat="49.80199" lon="2.1853">
        <ele>89</ele>
        <time>2023-02-08T14:35:27Z</time>
      </trkpt>
      <trkpt lat="49.80198" lon="2.18529">
        <ele>89</ele>
        <time>2023-02-08T14:35:28Z</time>
      </trkpt>
      <trkpt lat="49.80198" lon="2.18527">
        <ele>89.1</ele>
        <time>2023-02-08T14:35:30Z</time>
      </trkpt>
      <trkpt lat="49.80197" lon="2.18525">
        <ele>89.1</ele>
        <time>2023-02-08T14:35:31Z</time>
      </trkpt>
      <trkpt lat="49.80197" lon="2.18523">
        <ele>89.1</ele>
        <time>2023-02-08T14:35:32Z</time>
      </trkpt>
      <trkpt lat="49.80197" lon="2.18522">
        <ele>89.1</ele>
        <time>2023-02-08T14:35:33Z</time>
      </trkpt>
      <trkpt lat="49.80196" lon="2.1852">
        <ele>89.1</ele>
        <time>2023-02-08T14:35:34Z</time>
      </trkpt>
      <trkpt lat="49.80196" lon="2.18519">
        <ele>89.1</ele>
        <time>2023-02-08T14:35:36Z</time>
      </trkpt>
      <trkpt lat="49.80195" lon="2.18517">
        <ele>89.1</ele>
        <time>2023-02-08T14:35:37Z</time>
      </trkpt>
      <trkpt lat="49.80194" lon="2.18516">
        <ele>89.1</ele>
        <time>2023-02-08T14:35:38Z</time>
      </trkpt>
      <trkpt lat="49.80193" lon="2.18513">
        <ele>89.1</ele>
        <time>2023-02-08T14:35:39Z</time>
      </trkpt>
      <trkpt lat="49.80193" lon="2.18512">
        <ele>89.1</ele>
        <time>2023-02-08T14:35:40Z</time>
      </trkpt>
      <trkpt lat="49.80192" lon="2.18511">
        <ele>89.1</ele>
        <time>2023-02-08T14:35:41Z</time>
      </trkpt>
      <trkpt lat="49.80192" lon="2.1851">
        <ele>89.1</ele>
        <time>2023-02-08T14:35:42Z</time>
      </trkpt>
      <trkpt lat="49.80191" lon="2.18508">
        <ele>89.1</ele>
        <time>2023-02-08T14:35:43Z</time>
      </trkpt>
      <trkpt lat="49.80191" lon="2.18507">
        <ele>89.1</ele>
        <time>2023-02-08T14:35:45Z</time>
      </trkpt>
      <trkpt lat="49.8019" lon="2.18505">
        <ele>89.1</ele>
        <time>2023-02-08T14:35:46Z</time>
      </trkpt>
      <trkpt lat="49.8019" lon="2.18504">
        <ele>89.1</ele>
        <time>2023-02-08T14:35:47Z</time>
      </trkpt>
      <trkpt lat="49.8019" lon="2.18502">
        <ele>89.1</ele>
        <time>2023-02-08T14:35:48Z</time>
      </trkpt>
      <trkpt lat="49.80189" lon="2.18502">
        <ele>89.1</ele>
        <time>2023-02-08T14:35:49Z</time>
      </trkpt>
      <trkpt lat="49.80189" lon="2.185">
        <ele>89.1</ele>
        <time>2023-02-08T14:35:50Z</time>
      </trkpt>
      <trkpt lat="49.80188" lon="2.18498">
        <ele>89.1</ele>
        <time>2023-02-08T14:35:51Z</time>
      </trkpt>
      <trkpt lat="49.80187" lon="2.18496">
        <ele>89.1</ele>
        <time>2023-02-08T14:35:53Z</time>
      </trkpt>
      <trkpt lat="49.80186" lon="2.18494">
        <ele>89.1</ele>
        <time>2023-02-08T14:35:54Z</time>
      </trkpt>
      <trkpt lat="49.80185" lon="2.18493">
        <ele>89.1</ele>
        <time>2023-02-08T14:35:55Z</time>
      </trkpt>
      <trkpt lat="49.80184" lon="2.18491">
        <ele>89.1</ele>
        <time>2023-02-08T14:35:56Z</time>
      </trkpt>
      <trkpt lat="49.80183" lon="2.1849">
        <ele>89.1</ele>
        <time>2023-02-08T14:35:57Z</time>
      </trkpt>
      <trkpt lat="49.80183" lon="2.18489">
        <ele>89.1</ele>
        <time>2023-02-08T14:35:58Z</time>
      </trkpt>
      <trkpt lat="49.80182" lon="2.18486">
        <ele>89.1</ele>
        <time>2023-02-08T14:35:59Z</time>
      </trkpt>
      <trkpt lat="49.80181" lon="2.18484">
        <ele>89.1</ele>
        <time>2023-02-08T14:36:00Z</time>
      </trkpt>
      <trkpt lat="49.80181" lon="2.18483">
        <ele>89.1</ele>
        <time>2023-02-08T14:36:02Z</time>
      </trkpt>
      <trkpt lat="49.8018" lon="2.18482">
        <ele>89.1</ele>
        <time>2023-02-08T14:36:03Z</time>
      </trkpt>
      <trkpt lat="49.8018" lon="2.1848">
        <ele>89.1</ele>
        <time>2023-02-08T14:36:04Z</time>
      </trkpt>
      <trkpt lat="49.80179" lon="2.18479">
        <ele>89.1</ele>
        <time>2023-02-08T14:36:05Z</time>
      </trkpt>
      <trkpt lat="49.80179" lon="2.18478">
        <ele>89.1</ele>
        <time>2023-02-08T14:36:06Z</time>
      </trkpt>
      <trkpt lat="49.80179" lon="2.18476">
        <ele>89.1</ele>
        <time>2023-02-08T14:36:07Z</time>
      </trkpt>
      <trkpt lat="49.80178" lon="2.18475">
        <ele>89.1</ele>
        <time>2023-02-08T14:36:08Z</time>
      </trkpt>
      <trkpt lat="49.80177" lon="2.18471">
        <ele>89.1</ele>
        <time>2023-02-08T14:36:10Z</time>
      </trkpt>
      <trkpt lat="49.80176" lon="2.18471">
        <ele>89.1</ele>
        <time>2023-02-08T14:36:11Z</time>
      </trkpt>
      <trkpt lat="49.80176" lon="2.1847">
        <ele>89.1</ele>
        <time>2023-02-08T14:36:12Z</time>
      </trkpt>
      <trkpt lat="49.80175" lon="2.18468">
        <ele>89.1</ele>
        <time>2023-02-08T14:36:13Z</time>
      </trkpt>
      <trkpt lat="49.80175" lon="2.18467">
        <ele>89.1</ele>
        <time>2023-02-08T14:36:14Z</time>
      </trkpt>
      <trkpt lat="49.80174" lon="2.18465">
        <ele>89.1</ele>
        <time>2023-02-08T14:36:15Z</time>
      </trkpt>
      <trkpt lat="49.80172" lon="2.18463">
        <ele>89.1</ele>
        <time>2023-02-08T14:36:17Z</time>
      </trkpt>
      <trkpt lat="49.80172" lon="2.18462">
        <ele>89.1</ele>
        <time>2023-02-08T14:36:18Z</time>
      </trkpt>
      <trkpt lat="49.80171" lon="2.18461">
        <ele>89.1</ele>
        <time>2023-02-08T14:36:19Z</time>
      </trkpt>
      <trkpt lat="49.8017" lon="2.18459">
        <ele>89.1</ele>
        <time>2023-02-08T14:36:20Z</time>
      </trkpt>
      <trkpt lat="49.80169" lon="2.18458">
        <ele>89.1</ele>
        <time>2023-02-08T14:36:21Z</time>
      </trkpt>
      <trkpt lat="49.80167" lon="2.18456">
        <ele>89.1</ele>
        <time>2023-02-08T14:36:22Z</time>
      </trkpt>
      <trkpt lat="49.80166" lon="2.18455">
        <ele>89.1</ele>
        <time>2023-02-08T14:36:23Z</time>
      </trkpt>
      <trkpt lat="49.80166" lon="2.18454">
        <ele>89.1</ele>
        <time>2023-02-08T14:36:25Z</time>
      </trkpt>
      <trkpt lat="49.80165" lon="2.18453">
        <ele>89.1</ele>
        <time>2023-02-08T14:36:26Z</time>
      </trkpt>
      <trkpt lat="49.80164" lon="2.18452">
        <ele>89.1</ele>
        <time>2023-02-08T14:36:27Z</time>
      </trkpt>
      <trkpt lat="49.80164" lon="2.18451">
        <ele>89.1</ele>
        <time>2023-02-08T14:36:28Z</time>
      </trkpt>
      <trkpt lat="49.80162" lon="2.18448">
        <ele>89.2</ele>
        <time>2023-02-08T14:36:29Z</time>
      </trkpt>
      <trkpt lat="49.80162" lon="2.18447">
        <ele>89.2</ele>
        <time>2023-02-08T14:36:30Z</time>
      </trkpt>
      <trkpt lat="49.80161" lon="2.18446">
        <ele>89.2</ele>
        <time>2023-02-08T14:36:31Z</time>
      </trkpt>
      <trkpt lat="49.80161" lon="2.18445">
        <ele>89.2</ele>
        <time>2023-02-08T14:36:32Z</time>
      </trkpt>
      <trkpt lat="49.80161" lon="2.18443">
        <ele>89.2</ele>
        <time>2023-02-08T14:36:34Z</time>
      </trkpt>
      <trkpt lat="49.8016" lon="2.18442">
        <ele>89.2</ele>
        <time>2023-02-08T14:36:35Z</time>
      </trkpt>
      <trkpt lat="49.8016" lon="2.1844">
        <ele>89.2</ele>
        <time>2023-02-08T14:36:36Z</time>
      </trkpt>
      <trkpt lat="49.80159" lon="2.18438">
        <ele>89.2</ele>
        <time>2023-02-08T14:36:37Z</time>
      </trkpt>
      <trkpt lat="49.80159" lon="2.18437">
        <ele>89.2</ele>
        <time>2023-02-08T14:36:38Z</time>
      </trkpt>
      <trkpt lat="49.80158" lon="2.18435">
        <ele>89.2</ele>
        <time>2023-02-08T14:36:39Z</time>
      </trkpt>
      <trkpt lat="49.80158" lon="2.18434">
        <ele>89.2</ele>
        <time>2023-02-08T14:36:41Z</time>
      </trkpt>
      <trkpt lat="49.80157" lon="2.18432">
        <ele>89.2</ele>
        <time>2023-02-08T14:36:42Z</time>
      </trkpt>
      <trkpt lat="49.80157" lon="2.18431">
        <ele>89.2</ele>
        <time>2023-02-08T14:36:43Z</time>
      </trkpt>
      <trkpt lat="49.80156" lon="2.18429">
        <ele>89.2</ele>
        <time>2023-02-08T14:36:44Z</time>
      </trkpt>
      <trkpt lat="49.80155" lon="2.18428">
        <ele>89.2</ele>
        <time>2023-02-08T14:36:45Z</time>
      </trkpt>
      <trkpt lat="49.80154" lon="2.18426">
        <ele>89.2</ele>
        <time>2023-02-08T14:36:46Z</time>
      </trkpt>
      <trkpt lat="49.80154" lon="2.18425">
        <ele>89.2</ele>
        <time>2023-02-08T14:36:47Z</time>
      </trkpt>
      <trkpt lat="49.80153" lon="2.18423">
        <ele>89.2</ele>
        <time>2023-02-08T14:36:49Z</time>
      </trkpt>
      <trkpt lat="49.80152" lon="2.18421">
        <ele>89.2</ele>
        <time>2023-02-08T14:36:50Z</time>
      </trkpt>
      <trkpt lat="49.80151" lon="2.1842">
        <ele>89.2</ele>
        <time>2023-02-08T14:36:51Z</time>
      </trkpt>
      <trkpt lat="49.8015" lon="2.18419">
        <ele>89.2</ele>
        <time>2023-02-08T14:36:52Z</time>
      </trkpt>
      <trkpt lat="49.8015" lon="2.18418">
        <ele>89.2</ele>
        <time>2023-02-08T14:36:53Z</time>
      </trkpt>
      <trkpt lat="49.80149" lon="2.18417">
        <ele>89.2</ele>
        <time>2023-02-08T14:36:54Z</time>
      </trkpt>
      <trkpt lat="49.80148" lon="2.18416">
        <ele>89.2</ele>
        <time>2023-02-08T14:36:55Z</time>
      </trkpt>
      <trkpt lat="49.80147" lon="2.18414">
        <ele>89.2</ele>
        <time>2023-02-08T14:36:56Z</time>
      </trkpt>
      <trkpt lat="49.80146" lon="2.18413">
        <ele>89.2</ele>
        <time>2023-02-08T14:36:57Z</time>
      </trkpt>
      <trkpt lat="49.80146" lon="2.18412">
        <ele>89.2</ele>
        <time>2023-02-08T14:36:59Z</time>
      </trkpt>
      <trkpt lat="49.80145" lon="2.18412">
        <ele>89.2</ele>
        <time>2023-02-08T14:37:00Z</time>
      </trkpt>
      <trkpt lat="49.80144" lon="2.18411">
        <ele>89.3</ele>
        <time>2023-02-08T14:37:01Z</time>
      </trkpt>
      <trkpt lat="49.80143" lon="2.1841">
        <ele>89.3</ele>
        <time>2023-02-08T14:37:02Z</time>
      </trkpt>
      <trkpt lat="49.80142" lon="2.18409">
        <ele>89.3</ele>
        <time>2023-02-08T14:37:03Z</time>
      </trkpt>
      <trkpt lat="49.80142" lon="2.18408">
        <ele>89.3</ele>
        <time>2023-02-08T14:37:04Z</time>
      </trkpt>
      <trkpt lat="49.80141" lon="2.18408">
        <ele>89.3</ele>
        <time>2023-02-08T14:37:05Z</time>
      </trkpt>
      <trkpt lat="49.8014" lon="2.18406">
        <ele>89.3</ele>
        <time>2023-02-08T14:37:07Z</time>
      </trkpt>
      <trkpt lat="49.80139" lon="2.18406">
        <ele>89.3</ele>
        <time>2023-02-08T14:37:08Z</time>
      </trkpt>
      <trkpt lat="49.80138" lon="2.18405">
        <ele>89.4</ele>
        <time>2023-02-08T14:37:09Z</time>
      </trkpt>
      <trkpt lat="49.80137" lon="2.18405">
        <ele>89.4</ele>
        <time>2023-02-08T14:37:10Z</time>
      </trkpt>
      <trkpt lat="49.80137" lon="2.18404">
        <ele>89.4</ele>
        <time>2023-02-08T14:37:11Z</time>
      </trkpt>
      <trkpt lat="49.80135" lon="2.18403">
        <ele>89.4</ele>
        <time>2023-02-08T14:37:12Z</time>
      </trkpt>
      <trkpt lat="49.80135" lon="2.18402">
        <ele>89.4</ele>
        <time>2023-02-08T14:37:13Z</time>
      </trkpt>
      <trkpt lat="49.80134" lon="2.18401">
        <ele>89.5</ele>
        <time>2023-02-08T14:37:15Z</time>
      </trkpt>
      <trkpt lat="49.80134" lon="2.18401">
        <ele>89.5</ele>
        <time>2023-02-08T14:37:16Z</time>
      </trkpt>
      <trkpt lat="49.80132" lon="2.18399">
        <ele>89.5</ele>
        <time>2023-02-08T14:37:17Z</time>
      </trkpt>
      <trkpt lat="49.80132" lon="2.18399">
        <ele>89.5</ele>
        <time>2023-02-08T14:37:18Z</time>
      </trkpt>
      <trkpt lat="49.80131" lon="2.18398">
        <ele>89.6</ele>
        <time>2023-02-08T14:37:19Z</time>
      </trkpt>
      <trkpt lat="49.8013" lon="2.18397">
        <ele>89.6</ele>
        <time>2023-02-08T14:37:20Z</time>
      </trkpt>
      <trkpt lat="49.80129" lon="2.18396">
        <ele>89.6</ele>
        <time>2023-02-08T14:37:21Z</time>
      </trkpt>
      <trkpt lat="49.80128" lon="2.18395">
        <ele>89.7</ele>
        <time>2023-02-08T14:37:23Z</time>
      </trkpt>
      <trkpt lat="49.80127" lon="2.18394">
        <ele>89.7</ele>
        <time>2023-02-08T14:37:24Z</time>
      </trkpt>
      <trkpt lat="49.80127" lon="2.18393">
        <ele>89.7</ele>
        <time>2023-02-08T14:37:25Z</time>
      </trkpt>
      <trkpt lat="49.80126" lon="2.18392">
        <ele>89.8</ele>
        <time>2023-02-08T14:37:26Z</time>
      </trkpt>
      <trkpt lat="49.80125" lon="2.1839">
        <ele>89.8</ele>
        <time>2023-02-08T14:37:27Z</time>
      </trkpt>
      <trkpt lat="49.80124" lon="2.1839">
        <ele>89.8</ele>
        <time>2023-02-08T14:37:28Z</time>
      </trkpt>
      <trkpt lat="49.80123" lon="2.18389">
        <ele>89.8</ele>
        <time>2023-02-08T14:37:29Z</time>
      </trkpt>
      <trkpt lat="49.80123" lon="2.18388">
        <ele>89.9</ele>
        <time>2023-02-08T14:37:30Z</time>
      </trkpt>
      <trkpt lat="49.80122" lon="2.18387">
        <ele>89.9</ele>
        <time>2023-02-08T14:37:32Z</time>
      </trkpt>
      <trkpt lat="49.80121" lon="2.18386">
        <ele>89.9</ele>
        <time>2023-02-08T14:37:33Z</time>
      </trkpt>
      <trkpt lat="49.80121" lon="2.18385">
        <ele>90</ele>
        <time>2023-02-08T14:37:34Z</time>
      </trkpt>
      <trkpt lat="49.8012" lon="2.18383">
        <ele>90</ele>
        <time>2023-02-08T14:37:35Z</time>
      </trkpt>
      <trkpt lat="49.80119" lon="2.18382">
        <ele>90.1</ele>
        <time>2023-02-08T14:37:36Z</time>
      </trkpt>
      <trkpt lat="49.80118" lon="2.18381">
        <ele>90.1</ele>
        <time>2023-02-08T14:37:37Z</time>
      </trkpt>
      <trkpt lat="49.80118" lon="2.1838">
        <ele>90.2</ele>
        <time>2023-02-08T14:37:38Z</time>
      </trkpt>
      <trkpt lat="49.80117" lon="2.18379">
        <ele>90.2</ele>
        <time>2023-02-08T14:37:40Z</time>
      </trkpt>
      <trkpt lat="49.80116" lon="2.18378">
        <ele>90.2</ele>
        <time>2023-02-08T14:37:41Z</time>
      </trkpt>
      <trkpt lat="49.80115" lon="2.18377">
        <ele>90.3</ele>
        <time>2023-02-08T14:37:42Z</time>
      </trkpt>
      <trkpt lat="49.80114" lon="2.18377">
        <ele>90.3</ele>
        <time>2023-02-08T14:37:43Z</time>
      </trkpt>
      <trkpt lat="49.80113" lon="2.18376">
        <ele>90.4</ele>
        <time>2023-02-08T14:37:44Z</time>
      </trkpt>
      <trkpt lat="49.80113" lon="2.18375">
        <ele>90.4</ele>
        <time>2023-02-08T14:37:45Z</time>
      </trkpt>
      <trkpt lat="49.80112" lon="2.18374">
        <ele>90.5</ele>
        <time>2023-02-08T14:37:46Z</time>
      </trkpt>
      <trkpt lat="49.8011" lon="2.18372">
        <ele>90.5</ele>
        <time>2023-02-08T14:37:48Z</time>
      </trkpt>
      <trkpt lat="49.80109" lon="2.18371">
        <ele>90.6</ele>
        <time>2023-02-08T14:37:49Z</time>
      </trkpt>
      <trkpt lat="49.80108" lon="2.1837">
        <ele>90.6</ele>
        <time>2023-02-08T14:37:50Z</time>
      </trkpt>
      <trkpt lat="49.80107" lon="2.18369">
        <ele>90.7</ele>
        <time>2023-02-08T14:37:51Z</time>
      </trkpt>
      <trkpt lat="49.80106" lon="2.18368">
        <ele>90.7</ele>
        <time>2023-02-08T14:37:52Z</time>
      </trkpt>
      <trkpt lat="49.80105" lon="2.18367">
        <ele>90.8</ele>
        <time>2023-02-08T14:37:53Z</time>
      </trkpt>
      <trkpt lat="49.80104" lon="2.18367">
        <ele>90.8</ele>
        <time>2023-02-08T14:37:54Z</time>
      </trkpt>
      <trkpt lat="49.80103" lon="2.18366">
        <ele>90.9</ele>
        <time>2023-02-08T14:37:55Z</time>
      </trkpt>
      <trkpt lat="49.80101" lon="2.18364">
        <ele>91</ele>
        <time>2023-02-08T14:37:57Z</time>
      </trkpt>
      <trkpt lat="49.801" lon="2.18364">
        <ele>91</ele>
        <time>2023-02-08T14:37:58Z</time>
      </trkpt>
      <trkpt lat="49.801" lon="2.18363">
        <ele>91.1</ele>
        <time>2023-02-08T14:37:59Z</time>
      </trkpt>
      <trkpt lat="49.80099" lon="2.18363">
        <ele>91.1</ele>
        <time>2023-02-08T14:38:00Z</time>
      </trkpt>
      <trkpt lat="49.80098" lon="2.18362">
        <ele>91.2</ele>
        <time>2023-02-08T14:38:01Z</time>
      </trkpt>
      <trkpt lat="49.80097" lon="2.18361">
        <ele>91.2</ele>
        <time>2023-02-08T14:38:02Z</time>
      </trkpt>
      <trkpt lat="49.80096" lon="2.18361">
        <ele>91.2</ele>
        <time>2023-02-08T14:38:03Z</time>
      </trkpt>
      <trkpt lat="49.80095" lon="2.1836">
        <ele>91.3</ele>
        <time>2023-02-08T14:38:04Z</time>
      </trkpt>
      <trkpt lat="49.80094" lon="2.18359">
        <ele>91.3</ele>
        <time>2023-02-08T14:38:06Z</time>
      </trkpt>
      <trkpt lat="49.80093" lon="2.18358">
        <ele>91.4</ele>
        <time>2023-02-08T14:38:07Z</time>
      </trkpt>
      <trkpt lat="49.80092" lon="2.18357">
        <ele>91.4</ele>
        <time>2023-02-08T14:38:08Z</time>
      </trkpt>
      <trkpt lat="49.80091" lon="2.18356">
        <ele>91.5</ele>
        <time>2023-02-08T14:38:09Z</time>
      </trkpt>
      <trkpt lat="49.80089" lon="2.18355">
        <ele>91.6</ele>
        <time>2023-02-08T14:38:10Z</time>
      </trkpt>
      <trkpt lat="49.80088" lon="2.18354">
        <ele>91.6</ele>
        <time>2023-02-08T14:38:11Z</time>
      </trkpt>
      <trkpt lat="49.80087" lon="2.18354">
        <ele>91.7</ele>
        <time>2023-02-08T14:38:12Z</time>
      </trkpt>
      <trkpt lat="49.80086" lon="2.18353">
        <ele>91.7</ele>
        <time>2023-02-08T14:38:13Z</time>
      </trkpt>
      <trkpt lat="49.80085" lon="2.18352">
        <ele>91.8</ele>
        <time>2023-02-08T14:38:15Z</time>
      </trkpt>
      <trkpt lat="49.80084" lon="2.18351">
        <ele>91.9</ele>
        <time>2023-02-08T14:38:16Z</time>
      </trkpt>
      <trkpt lat="49.80082" lon="2.18349">
        <ele>92</ele>
        <time>2023-02-08T14:38:17Z</time>
      </trkpt>
      <trkpt lat="49.8008" lon="2.18348">
        <ele>92.1</ele>
        <time>2023-02-08T14:38:18Z</time>
      </trkpt>
      <trkpt lat="49.80079" lon="2.18348">
        <ele>92.1</ele>
        <time>2023-02-08T14:38:19Z</time>
      </trkpt>
      <trkpt lat="49.80078" lon="2.18347">
        <ele>92.1</ele>
        <time>2023-02-08T14:38:20Z</time>
      </trkpt>
      <trkpt lat="49.80076" lon="2.18346">
        <ele>92.2</ele>
        <time>2023-02-08T14:38:21Z</time>
      </trkpt>
      <trkpt lat="49.80075" lon="2.18345">
        <ele>92.3</ele>
        <time>2023-02-08T14:38:23Z</time>
      </trkpt>
      <trkpt lat="49.80074" lon="2.18345">
        <ele>92.3</ele>
        <time>2023-02-08T14:38:24Z</time>
      </trkpt>
      <trkpt lat="49.80073" lon="2.18344">
        <ele>92.4</ele>
        <time>2023-02-08T14:38:25Z</time>
      </trkpt>
      <trkpt lat="49.80072" lon="2.18344">
        <ele>92.4</ele>
        <time>2023-02-08T14:38:26Z</time>
      </trkpt>
      <trkpt lat="49.80069" lon="2.18343">
        <ele>92.5</ele>
        <time>2023-02-08T14:38:27Z</time>
      </trkpt>
      <trkpt lat="49.80069" lon="2.18343">
        <ele>92.5</ele>
        <time>2023-02-08T14:38:28Z</time>
      </trkpt>
      <trkpt lat="49.80068" lon="2.18343">
        <ele>92.5</ele>
        <time>2023-02-08T14:38:29Z</time>
      </trkpt>
      <trkpt lat="49.80067" lon="2.18342">
        <ele>92.6</ele>
        <time>2023-02-08T14:38:31Z</time>
      </trkpt>
      <trkpt lat="49.80065" lon="2.18342">
        <ele>92.6</ele>
        <time>2023-02-08T14:38:32Z</time>
      </trkpt>
      <trkpt lat="49.80064" lon="2.18342">
        <ele>92.6</ele>
        <time>2023-02-08T14:38:33Z</time>
      </trkpt>
      <trkpt lat="49.80063" lon="2.18341">
        <ele>92.7</ele>
        <time>2023-02-08T14:38:34Z</time>
      </trkpt>
      <trkpt lat="49.80062" lon="2.18341">
        <ele>92.7</ele>
        <time>2023-02-08T14:38:35Z</time>
      </trkpt>
      <trkpt lat="49.80061" lon="2.18341">
        <ele>92.7</ele>
        <time>2023-02-08T14:38:36Z</time>
      </trkpt>
      <trkpt lat="49.8006" lon="2.18341">
        <ele>92.8</ele>
        <time>2023-02-08T14:38:37Z</time>
      </trkpt>
      <trkpt lat="49.80059" lon="2.18341">
        <ele>92.8</ele>
        <time>2023-02-08T14:38:38Z</time>
      </trkpt>
      <trkpt lat="49.80056" lon="2.1834">
        <ele>92.9</ele>
        <time>2023-02-08T14:38:40Z</time>
      </trkpt>
      <trkpt lat="49.80055" lon="2.1834">
        <ele>92.9</ele>
        <time>2023-02-08T14:38:41Z</time>
      </trkpt>
      <trkpt lat="49.80054" lon="2.1834">
        <ele>92.9</ele>
        <time>2023-02-08T14:38:42Z</time>
      </trkpt>
      <trkpt lat="49.80053" lon="2.1834">
        <ele>92.9</ele>
        <time>2023-02-08T14:38:43Z</time>
      </trkpt>
      <trkpt lat="49.80052" lon="2.18339">
        <ele>92.9</ele>
        <time>2023-02-08T14:38:44Z</time>
      </trkpt>
      <trkpt lat="49.80051" lon="2.18339">
        <ele>92.9</ele>
        <time>2023-02-08T14:38:45Z</time>
      </trkpt>
      <trkpt lat="49.80049" lon="2.18338">
        <ele>93</ele>
        <time>2023-02-08T14:38:46Z</time>
      </trkpt>
      <trkpt lat="49.80048" lon="2.18337">
        <ele>93</ele>
        <time>2023-02-08T14:38:47Z</time>
      </trkpt>
      <trkpt lat="49.80046" lon="2.18336">
        <ele>93</ele>
        <time>2023-02-08T14:38:48Z</time>
      </trkpt>
      <trkpt lat="49.80045" lon="2.18336">
        <ele>93</ele>
        <time>2023-02-08T14:38:50Z</time>
      </trkpt>
      <trkpt lat="49.80044" lon="2.18335">
        <ele>93</ele>
        <time>2023-02-08T14:38:51Z</time>
      </trkpt>
      <trkpt lat="49.80042" lon="2.18334">
        <ele>93</ele>
        <time>2023-02-08T14:38:52Z</time>
      </trkpt>
      <trkpt lat="49.80041" lon="2.18334">
        <ele>93</ele>
        <time>2023-02-08T14:38:53Z</time>
      </trkpt>
      <trkpt lat="49.80039" lon="2.18333">
        <ele>93</ele>
        <time>2023-02-08T14:38:54Z</time>
      </trkpt>
      <trkpt lat="49.80038" lon="2.18333">
        <ele>93</ele>
        <time>2023-02-08T14:38:55Z</time>
      </trkpt>
      <trkpt lat="49.80037" lon="2.18333">
        <ele>93</ele>
        <time>2023-02-08T14:38:57Z</time>
      </trkpt>
      <trkpt lat="49.80036" lon="2.18333">
        <ele>93</ele>
        <time>2023-02-08T14:38:58Z</time>
      </trkpt>
      <trkpt lat="49.80035" lon="2.18332">
        <ele>93</ele>
        <time>2023-02-08T14:38:59Z</time>
      </trkpt>
      <trkpt lat="49.80033" lon="2.18332">
        <ele>93</ele>
        <time>2023-02-08T14:39:00Z</time>
      </trkpt>
      <trkpt lat="49.80032" lon="2.18331">
        <ele>93</ele>
        <time>2023-02-08T14:39:01Z</time>
      </trkpt>
      <trkpt lat="49.80031" lon="2.18331">
        <ele>92.9</ele>
        <time>2023-02-08T14:39:02Z</time>
      </trkpt>
      <trkpt lat="49.8003" lon="2.1833">
        <ele>92.9</ele>
        <time>2023-02-08T14:39:03Z</time>
      </trkpt>
      <trkpt lat="49.80029" lon="2.1833">
        <ele>92.9</ele>
        <time>2023-02-08T14:39:04Z</time>
      </trkpt>
      <trkpt lat="49.80028" lon="2.18329">
        <ele>92.9</ele>
        <time>2023-02-08T14:39:05Z</time>
      </trkpt>
      <trkpt lat="49.80027" lon="2.18329">
        <ele>92.9</ele>
        <time>2023-02-08T14:39:07Z</time>
      </trkpt>
      <trkpt lat="49.80026" lon="2.18328">
        <ele>92.9</ele>
        <time>2023-02-08T14:39:08Z</time>
      </trkpt>
      <trkpt lat="49.80025" lon="2.18327">
        <ele>92.9</ele>
        <time>2023-02-08T14:39:09Z</time>
      </trkpt>
      <trkpt lat="49.80024" lon="2.18326">
        <ele>92.9</ele>
        <time>2023-02-08T14:39:10Z</time>
      </trkpt>
      <trkpt lat="49.80023" lon="2.18325">
        <ele>92.9</ele>
        <time>2023-02-08T14:39:11Z</time>
      </trkpt>
      <trkpt lat="49.80022" lon="2.18324">
        <ele>92.9</ele>
        <time>2023-02-08T14:39:12Z</time>
      </trkpt>
      <trkpt lat="49.80022" lon="2.18323">
        <ele>92.9</ele>
        <time>2023-02-08T14:39:13Z</time>
      </trkpt>
      <trkpt lat="49.80021" lon="2.18322">
        <ele>92.9</ele>
        <time>2023-02-08T14:39:14Z</time>
      </trkpt>
      <trkpt lat="49.8002" lon="2.18321">
        <ele>92.8</ele>
        <time>2023-02-08T14:39:15Z</time>
      </trkpt>
      <trkpt lat="49.80018" lon="2.18319">
        <ele>92.8</ele>
        <time>2023-02-08T14:39:17Z</time>
      </trkpt>
      <trkpt lat="49.80017" lon="2.18319">
        <ele>92.8</ele>
        <time>2023-02-08T14:39:19Z</time>
      </trkpt>
      <trkpt lat="49.80016" lon="2.18318">
        <ele>92.8</ele>
        <time>2023-02-08T14:39:20Z</time>
      </trkpt>
      <trkpt lat="49.80015" lon="2.18317">
        <ele>92.8</ele>
        <time>2023-02-08T14:39:21Z</time>
      </trkpt>
      <trkpt lat="49.80014" lon="2.18315">
        <ele>92.8</ele>
        <time>2023-02-08T14:39:22Z</time>
      </trkpt>
      <trkpt lat="49.80013" lon="2.18315">
        <ele>92.8</ele>
        <time>2023-02-08T14:39:23Z</time>
      </trkpt>
      <trkpt lat="49.80012" lon="2.18314">
        <ele>92.8</ele>
        <time>2023-02-08T14:39:24Z</time>
      </trkpt>
      <trkpt lat="49.80011" lon="2.18313">
        <ele>92.8</ele>
        <time>2023-02-08T14:39:26Z</time>
      </trkpt>
      <trkpt lat="49.8001" lon="2.18312">
        <ele>92.8</ele>
        <time>2023-02-08T14:39:27Z</time>
      </trkpt>
      <trkpt lat="49.80009" lon="2.18311">
        <ele>92.8</ele>
        <time>2023-02-08T14:39:28Z</time>
      </trkpt>
      <trkpt lat="49.80008" lon="2.1831">
        <ele>92.8</ele>
        <time>2023-02-08T14:39:29Z</time>
      </trkpt>
      <trkpt lat="49.80006" lon="2.18309">
        <ele>92.8</ele>
        <time>2023-02-08T14:39:30Z</time>
      </trkpt>
      <trkpt lat="49.80005" lon="2.18308">
        <ele>92.8</ele>
        <time>2023-02-08T14:39:31Z</time>
      </trkpt>
      <trkpt lat="49.80004" lon="2.18307">
        <ele>92.8</ele>
        <time>2023-02-08T14:39:32Z</time>
      </trkpt>
      <trkpt lat="49.80004" lon="2.18307">
        <ele>92.8</ele>
        <time>2023-02-08T14:39:33Z</time>
      </trkpt>
      <trkpt lat="49.80003" lon="2.18306">
        <ele>92.8</ele>
        <time>2023-02-08T14:39:34Z</time>
      </trkpt>
      <trkpt lat="49.80002" lon="2.18305">
        <ele>92.8</ele>
        <time>2023-02-08T14:39:35Z</time>
      </trkpt>
      <trkpt lat="49.80001" lon="2.18305">
        <ele>92.8</ele>
        <time>2023-02-08T14:39:36Z</time>
      </trkpt>
      <trkpt lat="49.79999" lon="2.18303">
        <ele>92.8</ele>
        <time>2023-02-08T14:39:37Z</time>
      </trkpt>
      <trkpt lat="49.79997" lon="2.18303">
        <ele>92.7</ele>
        <time>2023-02-08T14:39:39Z</time>
      </trkpt>
      <trkpt lat="49.79997" lon="2.18303">
        <ele>92.7</ele>
        <time>2023-02-08T14:39:40Z</time>
      </trkpt>
      <trkpt lat="49.79996" lon="2.18303">
        <ele>92.7</ele>
        <time>2023-02-08T14:39:41Z</time>
      </trkpt>
      <trkpt lat="49.79995" lon="2.18303">
        <ele>92.7</ele>
        <time>2023-02-08T14:39:42Z</time>
      </trkpt>
      <trkpt lat="49.79993" lon="2.18302">
        <ele>92.7</ele>
        <time>2023-02-08T14:39:43Z</time>
      </trkpt>
      <trkpt lat="49.79992" lon="2.18302">
        <ele>92.7</ele>
        <time>2023-02-08T14:39:44Z</time>
      </trkpt>
      <trkpt lat="49.79991" lon="2.18302">
        <ele>92.7</ele>
        <time>2023-02-08T14:39:45Z</time>
      </trkpt>
      <trkpt lat="49.7999" lon="2.18301">
        <ele>92.7</ele>
        <time>2023-02-08T14:39:46Z</time>
      </trkpt>
      <trkpt lat="49.79989" lon="2.183">
        <ele>92.7</ele>
        <time>2023-02-08T14:39:47Z</time>
      </trkpt>
      <trkpt lat="49.79988" lon="2.183">
        <ele>92.7</ele>
        <time>2023-02-08T14:39:49Z</time>
      </trkpt>
      <trkpt lat="49.79987" lon="2.183">
        <ele>92.7</ele>
        <time>2023-02-08T14:39:50Z</time>
      </trkpt>
      <trkpt lat="49.79985" lon="2.18299">
        <ele>92.7</ele>
        <time>2023-02-08T14:39:51Z</time>
      </trkpt>
      <trkpt lat="49.79984" lon="2.18299">
        <ele>92.7</ele>
        <time>2023-02-08T14:39:52Z</time>
      </trkpt>
      <trkpt lat="49.79983" lon="2.18298">
        <ele>92.7</ele>
        <time>2023-02-08T14:39:53Z</time>
      </trkpt>
      <trkpt lat="49.79982" lon="2.18298">
        <ele>92.7</ele>
        <time>2023-02-08T14:39:54Z</time>
      </trkpt>
      <trkpt lat="49.7998" lon="2.18297">
        <ele>92.7</ele>
        <time>2023-02-08T14:39:55Z</time>
      </trkpt>
      <trkpt lat="49.79979" lon="2.18297">
        <ele>92.7</ele>
        <time>2023-02-08T14:39:56Z</time>
      </trkpt>
      <trkpt lat="49.79978" lon="2.18296">
        <ele>92.7</ele>
        <time>2023-02-08T14:39:57Z</time>
      </trkpt>
      <trkpt lat="49.79977" lon="2.18295">
        <ele>92.7</ele>
        <time>2023-02-08T14:39:58Z</time>
      </trkpt>
      <trkpt lat="49.79976" lon="2.18295">
        <ele>92.7</ele>
        <time>2023-02-08T14:39:59Z</time>
      </trkpt>
      <trkpt lat="49.79976" lon="2.18294">
        <ele>92.7</ele>
        <time>2023-02-08T14:40:01Z</time>
      </trkpt>
      <trkpt lat="49.79975" lon="2.18294">
        <ele>92.7</ele>
        <time>2023-02-08T14:40:02Z</time>
      </trkpt>
      <trkpt lat="49.79973" lon="2.18293">
        <ele>92.7</ele>
        <time>2023-02-08T14:40:03Z</time>
      </trkpt>
      <trkpt lat="49.79972" lon="2.18292">
        <ele>92.7</ele>
        <time>2023-02-08T14:40:04Z</time>
      </trkpt>
      <trkpt lat="49.79971" lon="2.18291">
        <ele>92.7</ele>
        <time>2023-02-08T14:40:06Z</time>
      </trkpt>
      <trkpt lat="49.79971" lon="2.1829">
        <ele>92.7</ele>
        <time>2023-02-08T14:40:07Z</time>
      </trkpt>
      <trkpt lat="49.79969" lon="2.1829">
        <ele>92.7</ele>
        <time>2023-02-08T14:40:08Z</time>
      </trkpt>
      <trkpt lat="49.79968" lon="2.18289">
        <ele>92.8</ele>
        <time>2023-02-08T14:40:09Z</time>
      </trkpt>
      <trkpt lat="49.79967" lon="2.18288">
        <ele>92.8</ele>
        <time>2023-02-08T14:40:10Z</time>
      </trkpt>
      <trkpt lat="49.79966" lon="2.18288">
        <ele>92.8</ele>
        <time>2023-02-08T14:40:11Z</time>
      </trkpt>
      <trkpt lat="49.79965" lon="2.18286">
        <ele>92.8</ele>
        <time>2023-02-08T14:40:12Z</time>
      </trkpt>
      <trkpt lat="49.79964" lon="2.18285">
        <ele>92.8</ele>
        <time>2023-02-08T14:40:14Z</time>
      </trkpt>
      <trkpt lat="49.79964" lon="2.18284">
        <ele>92.8</ele>
        <time>2023-02-08T14:40:15Z</time>
      </trkpt>
      <trkpt lat="49.79963" lon="2.18283">
        <ele>92.8</ele>
        <time>2023-02-08T14:40:16Z</time>
      </trkpt>
      <trkpt lat="49.79962" lon="2.18282">
        <ele>92.8</ele>
        <time>2023-02-08T14:40:17Z</time>
      </trkpt>
      <trkpt lat="49.7996" lon="2.18281">
        <ele>92.8</ele>
        <time>2023-02-08T14:40:19Z</time>
      </trkpt>
      <trkpt lat="49.7996" lon="2.18281">
        <ele>92.8</ele>
        <time>2023-02-08T14:40:20Z</time>
      </trkpt>
      <trkpt lat="49.79958" lon="2.18279">
        <ele>92.8</ele>
        <time>2023-02-08T14:40:21Z</time>
      </trkpt>
      <trkpt lat="49.79957" lon="2.18278">
        <ele>92.8</ele>
        <time>2023-02-08T14:40:22Z</time>
      </trkpt>
      <trkpt lat="49.79956" lon="2.18277">
        <ele>92.8</ele>
        <time>2023-02-08T14:40:23Z</time>
      </trkpt>
      <trkpt lat="49.79955" lon="2.18277">
        <ele>92.8</ele>
        <time>2023-02-08T14:40:24Z</time>
      </trkpt>
      <trkpt lat="49.79954" lon="2.18276">
        <ele>92.8</ele>
        <time>2023-02-08T14:40:25Z</time>
      </trkpt>
      <trkpt lat="49.79953" lon="2.18275">
        <ele>92.9</ele>
        <time>2023-02-08T14:40:26Z</time>
      </trkpt>
      <trkpt lat="49.79951" lon="2.18273">
        <ele>92.9</ele>
        <time>2023-02-08T14:40:27Z</time>
      </trkpt>
      <trkpt lat="49.79951" lon="2.18273">
        <ele>92.9</ele>
        <time>2023-02-08T14:40:29Z</time>
      </trkpt>
      <trkpt lat="49.7995" lon="2.18272">
        <ele>92.9</ele>
        <time>2023-02-08T14:40:30Z</time>
      </trkpt>
      <trkpt lat="49.79948" lon="2.18271">
        <ele>92.9</ele>
        <time>2023-02-08T14:40:31Z</time>
      </trkpt>
      <trkpt lat="49.79947" lon="2.1827">
        <ele>92.9</ele>
        <time>2023-02-08T14:40:32Z</time>
      </trkpt>
      <trkpt lat="49.79946" lon="2.1827">
        <ele>92.9</ele>
        <time>2023-02-08T14:40:33Z</time>
      </trkpt>
      <trkpt lat="49.79944" lon="2.18269">
        <ele>92.9</ele>
        <time>2023-02-08T14:40:34Z</time>
      </trkpt>
      <trkpt lat="49.79944" lon="2.18268">
        <ele>92.9</ele>
        <time>2023-02-08T14:40:35Z</time>
      </trkpt>
      <trkpt lat="49.79943" lon="2.18268">
        <ele>92.9</ele>
        <time>2023-02-08T14:40:36Z</time>
      </trkpt>
      <trkpt lat="49.7994" lon="2.18266">
        <ele>92.9</ele>
        <time>2023-02-08T14:40:37Z</time>
      </trkpt>
      <trkpt lat="49.79939" lon="2.18265">
        <ele>92.9</ele>
        <time>2023-02-08T14:40:39Z</time>
      </trkpt>
      <trkpt lat="49.79938" lon="2.18265">
        <ele>92.9</ele>
        <time>2023-02-08T14:40:40Z</time>
      </trkpt>
      <trkpt lat="49.79937" lon="2.18264">
        <ele>92.9</ele>
        <time>2023-02-08T14:40:41Z</time>
      </trkpt>
      <trkpt lat="49.79937" lon="2.18263">
        <ele>92.9</ele>
        <time>2023-02-08T14:40:42Z</time>
      </trkpt>
      <trkpt lat="49.79935" lon="2.18262">
        <ele>92.9</ele>
        <time>2023-02-08T14:40:43Z</time>
      </trkpt>
      <trkpt lat="49.79934" lon="2.18261">
        <ele>92.9</ele>
        <time>2023-02-08T14:40:44Z</time>
      </trkpt>
      <trkpt lat="49.79932" lon="2.18259">
        <ele>92.9</ele>
        <time>2023-02-08T14:40:46Z</time>
      </trkpt>
      <trkpt lat="49.79931" lon="2.18259">
        <ele>92.9</ele>
        <time>2023-02-08T14:40:47Z</time>
      </trkpt>
      <trkpt lat="49.7993" lon="2.18258">
        <ele>92.9</ele>
        <time>2023-02-08T14:40:48Z</time>
      </trkpt>
      <trkpt lat="49.79929" lon="2.18257">
        <ele>92.9</ele>
        <time>2023-02-08T14:40:49Z</time>
      </trkpt>
      <trkpt lat="49.79928" lon="2.18256">
        <ele>92.9</ele>
        <time>2023-02-08T14:40:50Z</time>
      </trkpt>
      <trkpt lat="49.79928" lon="2.18255">
        <ele>92.9</ele>
        <time>2023-02-08T14:40:51Z</time>
      </trkpt>
      <trkpt lat="49.79926" lon="2.18252">
        <ele>92.9</ele>
        <time>2023-02-08T14:40:52Z</time>
      </trkpt>
      <trkpt lat="49.79925" lon="2.18252">
        <ele>92.9</ele>
        <time>2023-02-08T14:40:53Z</time>
      </trkpt>
      <trkpt lat="49.79924" lon="2.18251">
        <ele>92.8</ele>
        <time>2023-02-08T14:40:55Z</time>
      </trkpt>
      <trkpt lat="49.79923" lon="2.1825">
        <ele>92.8</ele>
        <time>2023-02-08T14:40:56Z</time>
      </trkpt>
      <trkpt lat="49.79922" lon="2.18249">
        <ele>92.8</ele>
        <time>2023-02-08T14:40:57Z</time>
      </trkpt>
      <trkpt lat="49.79921" lon="2.18248">
        <ele>92.8</ele>
        <time>2023-02-08T14:40:58Z</time>
      </trkpt>
      <trkpt lat="49.7992" lon="2.18247">
        <ele>92.8</ele>
        <time>2023-02-08T14:40:59Z</time>
      </trkpt>
      <trkpt lat="49.79919" lon="2.18246">
        <ele>92.8</ele>
        <time>2023-02-08T14:41:00Z</time>
      </trkpt>
      <trkpt lat="49.79918" lon="2.18245">
        <ele>92.8</ele>
        <time>2023-02-08T14:41:02Z</time>
      </trkpt>
      <trkpt lat="49.79916" lon="2.18244">
        <ele>92.8</ele>
        <time>2023-02-08T14:41:03Z</time>
      </trkpt>
      <trkpt lat="49.79915" lon="2.18244">
        <ele>92.7</ele>
        <time>2023-02-08T14:41:04Z</time>
      </trkpt>
      <trkpt lat="49.79914" lon="2.18243">
        <ele>92.7</ele>
        <time>2023-02-08T14:41:05Z</time>
      </trkpt>
      <trkpt lat="49.79912" lon="2.18242">
        <ele>92.7</ele>
        <time>2023-02-08T14:41:06Z</time>
      </trkpt>
      <trkpt lat="49.7991" lon="2.18241">
        <ele>92.7</ele>
        <time>2023-02-08T14:41:07Z</time>
      </trkpt>
      <trkpt lat="49.79909" lon="2.1824">
        <ele>92.7</ele>
        <time>2023-02-08T14:41:09Z</time>
      </trkpt>
      <trkpt lat="49.79908" lon="2.18239">
        <ele>92.7</ele>
        <time>2023-02-08T14:41:10Z</time>
      </trkpt>
      <trkpt lat="49.79907" lon="2.18239">
        <ele>92.7</ele>
        <time>2023-02-08T14:41:11Z</time>
      </trkpt>
      <trkpt lat="49.79906" lon="2.18238">
        <ele>92.6</ele>
        <time>2023-02-08T14:41:12Z</time>
      </trkpt>
      <trkpt lat="49.79904" lon="2.18237">
        <ele>92.6</ele>
        <time>2023-02-08T14:41:13Z</time>
      </trkpt>
      <trkpt lat="49.79903" lon="2.18237">
        <ele>92.6</ele>
        <time>2023-02-08T14:41:14Z</time>
      </trkpt>
      <trkpt lat="49.79901" lon="2.18235">
        <ele>92.6</ele>
        <time>2023-02-08T14:41:15Z</time>
      </trkpt>
      <trkpt lat="49.799" lon="2.18234">
        <ele>92.6</ele>
        <time>2023-02-08T14:41:17Z</time>
      </trkpt>
      <trkpt lat="49.79899" lon="2.18234">
        <ele>92.6</ele>
        <time>2023-02-08T14:41:19Z</time>
      </trkpt>
      <trkpt lat="49.79897" lon="2.18233">
        <ele>92.5</ele>
        <time>2023-02-08T14:41:20Z</time>
      </trkpt>
      <trkpt lat="49.79896" lon="2.18232">
        <ele>92.5</ele>
        <time>2023-02-08T14:41:21Z</time>
      </trkpt>
      <trkpt lat="49.79895" lon="2.18231">
        <ele>92.5</ele>
        <time>2023-02-08T14:41:22Z</time>
      </trkpt>
      <trkpt lat="49.79892" lon="2.1823">
        <ele>92.5</ele>
        <time>2023-02-08T14:41:23Z</time>
      </trkpt>
      <trkpt lat="49.79892" lon="2.18229">
        <ele>92.5</ele>
        <time>2023-02-08T14:41:25Z</time>
      </trkpt>
      <trkpt lat="49.79891" lon="2.18229">
        <ele>92.5</ele>
        <time>2023-02-08T14:41:26Z</time>
      </trkpt>
      <trkpt lat="49.7989" lon="2.18228">
        <ele>92.5</ele>
        <time>2023-02-08T14:41:27Z</time>
      </trkpt>
      <trkpt lat="49.79888" lon="2.18227">
        <ele>92.4</ele>
        <time>2023-02-08T14:41:28Z</time>
      </trkpt>
      <trkpt lat="49.79887" lon="2.18227">
        <ele>92.4</ele>
        <time>2023-02-08T14:41:29Z</time>
      </trkpt>
      <trkpt lat="49.79886" lon="2.18226">
        <ele>92.4</ele>
        <time>2023-02-08T14:41:30Z</time>
      </trkpt>
      <trkpt lat="49.79885" lon="2.18226">
        <ele>92.4</ele>
        <time>2023-02-08T14:41:31Z</time>
      </trkpt>
      <trkpt lat="49.79884" lon="2.18225">
        <ele>92.4</ele>
        <time>2023-02-08T14:41:33Z</time>
      </trkpt>
      <trkpt lat="49.79882" lon="2.18224">
        <ele>92.4</ele>
        <time>2023-02-08T14:41:34Z</time>
      </trkpt>
      <trkpt lat="49.7988" lon="2.18224">
        <ele>92.3</ele>
        <time>2023-02-08T14:41:35Z</time>
      </trkpt>
      <trkpt lat="49.79879" lon="2.18224">
        <ele>92.3</ele>
        <time>2023-02-08T14:41:37Z</time>
      </trkpt>
      <trkpt lat="49.79878" lon="2.18224">
        <ele>92.3</ele>
        <time>2023-02-08T14:41:38Z</time>
      </trkpt>
      <trkpt lat="49.79877" lon="2.18224">
        <ele>92.3</ele>
        <time>2023-02-08T14:41:39Z</time>
      </trkpt>
      <trkpt lat="49.79875" lon="2.18224">
        <ele>92.3</ele>
        <time>2023-02-08T14:41:40Z</time>
      </trkpt>
      <trkpt lat="49.79874" lon="2.18223">
        <ele>92.2</ele>
        <time>2023-02-08T14:41:41Z</time>
      </trkpt>
      <trkpt lat="49.79873" lon="2.18223">
        <ele>92.2</ele>
        <time>2023-02-08T14:41:42Z</time>
      </trkpt>
      <trkpt lat="49.79872" lon="2.18222">
        <ele>92.2</ele>
        <time>2023-02-08T14:41:44Z</time>
      </trkpt>
      <trkpt lat="49.79871" lon="2.18222">
        <ele>92.2</ele>
        <time>2023-02-08T14:41:45Z</time>
      </trkpt>
      <trkpt lat="49.79869" lon="2.18221">
        <ele>92.1</ele>
        <time>2023-02-08T14:41:46Z</time>
      </trkpt>
      <trkpt lat="49.79867" lon="2.1822">
        <ele>92.1</ele>
        <time>2023-02-08T14:41:47Z</time>
      </trkpt>
      <trkpt lat="49.79866" lon="2.1822">
        <ele>92.1</ele>
        <time>2023-02-08T14:41:48Z</time>
      </trkpt>
      <trkpt lat="49.79865" lon="2.18219">
        <ele>92.1</ele>
        <time>2023-02-08T14:41:49Z</time>
      </trkpt>
      <trkpt lat="49.79864" lon="2.18218">
        <ele>92.1</ele>
        <time>2023-02-08T14:41:50Z</time>
      </trkpt>
      <trkpt lat="49.79863" lon="2.18218">
        <ele>92</ele>
        <time>2023-02-08T14:41:51Z</time>
      </trkpt>
      <trkpt lat="49.79861" lon="2.18217">
        <ele>92</ele>
        <time>2023-02-08T14:41:53Z</time>
      </trkpt>
      <trkpt lat="49.7986" lon="2.18216">
        <ele>92</ele>
        <time>2023-02-08T14:41:54Z</time>
      </trkpt>
      <trkpt lat="49.79859" lon="2.18215">
        <ele>92</ele>
        <time>2023-02-08T14:41:55Z</time>
      </trkpt>
      <trkpt lat="49.79858" lon="2.18215">
        <ele>91.9</ele>
        <time>2023-02-08T14:41:56Z</time>
      </trkpt>
      <trkpt lat="49.79857" lon="2.18214">
        <ele>91.9</ele>
        <time>2023-02-08T14:41:57Z</time>
      </trkpt>
      <trkpt lat="49.79855" lon="2.18213">
        <ele>91.9</ele>
        <time>2023-02-08T14:41:58Z</time>
      </trkpt>
      <trkpt lat="49.79855" lon="2.18212">
        <ele>91.9</ele>
        <time>2023-02-08T14:41:59Z</time>
      </trkpt>
      <trkpt lat="49.79854" lon="2.18211">
        <ele>91.9</ele>
        <time>2023-02-08T14:42:00Z</time>
      </trkpt>
      <trkpt lat="49.79853" lon="2.1821">
        <ele>91.8</ele>
        <time>2023-02-08T14:42:02Z</time>
      </trkpt>
      <trkpt lat="49.79851" lon="2.18208">
        <ele>91.8</ele>
        <time>2023-02-08T14:42:03Z</time>
      </trkpt>
      <trkpt lat="49.79851" lon="2.18207">
        <ele>91.8</ele>
        <time>2023-02-08T14:42:04Z</time>
      </trkpt>
      <trkpt lat="49.79849" lon="2.18206">
        <ele>91.8</ele>
        <time>2023-02-08T14:42:05Z</time>
      </trkpt>
      <trkpt lat="49.79848" lon="2.18206">
        <ele>91.8</ele>
        <time>2023-02-08T14:42:06Z</time>
      </trkpt>
      <trkpt lat="49.79847" lon="2.18205">
        <ele>91.8</ele>
        <time>2023-02-08T14:42:07Z</time>
      </trkpt>
      <trkpt lat="49.79846" lon="2.18203">
        <ele>91.7</ele>
        <time>2023-02-08T14:42:08Z</time>
      </trkpt>
      <trkpt lat="49.79845" lon="2.18203">
        <ele>91.7</ele>
        <time>2023-02-08T14:42:10Z</time>
      </trkpt>
      <trkpt lat="49.79844" lon="2.18201">
        <ele>91.7</ele>
        <time>2023-02-08T14:42:11Z</time>
      </trkpt>
      <trkpt lat="49.79843" lon="2.182">
        <ele>91.7</ele>
        <time>2023-02-08T14:42:12Z</time>
      </trkpt>
      <trkpt lat="49.79841" lon="2.18198">
        <ele>91.7</ele>
        <time>2023-02-08T14:42:13Z</time>
      </trkpt>
      <trkpt lat="49.7984" lon="2.18197">
        <ele>91.7</ele>
        <time>2023-02-08T14:42:14Z</time>
      </trkpt>
      <trkpt lat="49.7984" lon="2.18197">
        <ele>91.7</ele>
        <time>2023-02-08T14:42:15Z</time>
      </trkpt>
      <trkpt lat="49.79838" lon="2.18195">
        <ele>91.7</ele>
        <time>2023-02-08T14:42:16Z</time>
      </trkpt>
      <trkpt lat="49.79837" lon="2.18194">
        <ele>91.6</ele>
        <time>2023-02-08T14:42:18Z</time>
      </trkpt>
      <trkpt lat="49.79836" lon="2.18193">
        <ele>91.6</ele>
        <time>2023-02-08T14:42:19Z</time>
      </trkpt>
      <trkpt lat="49.79835" lon="2.18192">
        <ele>91.6</ele>
        <time>2023-02-08T14:42:20Z</time>
      </trkpt>
      <trkpt lat="49.79834" lon="2.18191">
        <ele>91.6</ele>
        <time>2023-02-08T14:42:21Z</time>
      </trkpt>
      <trkpt lat="49.79833" lon="2.1819">
        <ele>91.6</ele>
        <time>2023-02-08T14:42:22Z</time>
      </trkpt>
      <trkpt lat="49.79831" lon="2.18189">
        <ele>91.6</ele>
        <time>2023-02-08T14:42:23Z</time>
      </trkpt>
      <trkpt lat="49.79831" lon="2.18188">
        <ele>91.6</ele>
        <time>2023-02-08T14:42:24Z</time>
      </trkpt>
      <trkpt lat="49.7983" lon="2.18187">
        <ele>91.6</ele>
        <time>2023-02-08T14:42:26Z</time>
      </trkpt>
      <trkpt lat="49.79828" lon="2.18186">
        <ele>91.6</ele>
        <time>2023-02-08T14:42:27Z</time>
      </trkpt>
      <trkpt lat="49.79827" lon="2.18183">
        <ele>91.5</ele>
        <time>2023-02-08T14:42:29Z</time>
      </trkpt>
      <trkpt lat="49.79826" lon="2.18182">
        <ele>91.5</ele>
        <time>2023-02-08T14:42:30Z</time>
      </trkpt>
      <trkpt lat="49.79825" lon="2.18181">
        <ele>91.5</ele>
        <time>2023-02-08T14:42:31Z</time>
      </trkpt>
      <trkpt lat="49.79823" lon="2.18178">
        <ele>91.5</ele>
        <time>2023-02-08T14:42:33Z</time>
      </trkpt>
      <trkpt lat="49.79823" lon="2.18177">
        <ele>91.5</ele>
        <time>2023-02-08T14:42:34Z</time>
      </trkpt>
      <trkpt lat="49.79822" lon="2.18177">
        <ele>91.5</ele>
        <time>2023-02-08T14:42:35Z</time>
      </trkpt>
      <trkpt lat="49.79821" lon="2.18174">
        <ele>91.5</ele>
        <time>2023-02-08T14:42:36Z</time>
      </trkpt>
      <trkpt lat="49.7982" lon="2.18173">
        <ele>91.5</ele>
        <time>2023-02-08T14:42:37Z</time>
      </trkpt>
      <trkpt lat="49.7982" lon="2.18173">
        <ele>91.5</ele>
        <time>2023-02-08T14:42:38Z</time>
      </trkpt>
      <trkpt lat="49.79819" lon="2.18172">
        <ele>91.5</ele>
        <time>2023-02-08T14:42:40Z</time>
      </trkpt>
      <trkpt lat="49.79818" lon="2.18171">
        <ele>91.4</ele>
        <time>2023-02-08T14:42:41Z</time>
      </trkpt>
      <trkpt lat="49.79817" lon="2.1817">
        <ele>91.4</ele>
        <time>2023-02-08T14:42:42Z</time>
      </trkpt>
      <trkpt lat="49.79814" lon="2.18167">
        <ele>91.4</ele>
        <time>2023-02-08T14:42:43Z</time>
      </trkpt>
      <trkpt lat="49.79813" lon="2.18166">
        <ele>91.4</ele>
        <time>2023-02-08T14:42:45Z</time>
      </trkpt>
      <trkpt lat="49.79812" lon="2.18165">
        <ele>91.4</ele>
        <time>2023-02-08T14:42:46Z</time>
      </trkpt>
      <trkpt lat="49.79812" lon="2.18164">
        <ele>91.4</ele>
        <time>2023-02-08T14:42:47Z</time>
      </trkpt>
      <trkpt lat="49.79811" lon="2.18163">
        <ele>91.4</ele>
        <time>2023-02-08T14:42:48Z</time>
      </trkpt>
      <trkpt lat="49.7981" lon="2.18162">
        <ele>91.4</ele>
        <time>2023-02-08T14:42:49Z</time>
      </trkpt>
      <trkpt lat="49.79809" lon="2.18161">
        <ele>91.4</ele>
        <time>2023-02-08T14:42:50Z</time>
      </trkpt>
      <trkpt lat="49.79808" lon="2.1816">
        <ele>91.4</ele>
        <time>2023-02-08T14:42:51Z</time>
      </trkpt>
      <trkpt lat="49.79807" lon="2.18159">
        <ele>91.4</ele>
        <time>2023-02-08T14:42:53Z</time>
      </trkpt>
      <trkpt lat="49.79806" lon="2.18157">
        <ele>91.4</ele>
        <time>2023-02-08T14:42:54Z</time>
      </trkpt>
      <trkpt lat="49.79806" lon="2.18156">
        <ele>91.4</ele>
        <time>2023-02-08T14:42:55Z</time>
      </trkpt>
      <trkpt lat="49.79805" lon="2.18155">
        <ele>91.4</ele>
        <time>2023-02-08T14:42:56Z</time>
      </trkpt>
      <trkpt lat="49.79803" lon="2.18153">
        <ele>91.4</ele>
        <time>2023-02-08T14:42:57Z</time>
      </trkpt>
      <trkpt lat="49.79803" lon="2.18152">
        <ele>91.4</ele>
        <time>2023-02-08T14:42:59Z</time>
      </trkpt>
      <trkpt lat="49.79802" lon="2.18151">
        <ele>91.4</ele>
        <time>2023-02-08T14:43:00Z</time>
      </trkpt>
      <trkpt lat="49.79801" lon="2.1815">
        <ele>91.4</ele>
        <time>2023-02-08T14:43:01Z</time>
      </trkpt>
      <trkpt lat="49.79799" lon="2.18148">
        <ele>91.4</ele>
        <time>2023-02-08T14:43:02Z</time>
      </trkpt>
      <trkpt lat="49.79798" lon="2.18147">
        <ele>91.4</ele>
        <time>2023-02-08T14:43:03Z</time>
      </trkpt>
      <trkpt lat="49.79797" lon="2.18147">
        <ele>91.4</ele>
        <time>2023-02-08T14:43:04Z</time>
      </trkpt>
      <trkpt lat="49.79796" lon="2.18145">
        <ele>91.4</ele>
        <time>2023-02-08T14:43:05Z</time>
      </trkpt>
      <trkpt lat="49.79795" lon="2.18144">
        <ele>91.4</ele>
        <time>2023-02-08T14:43:06Z</time>
      </trkpt>
      <trkpt lat="49.79794" lon="2.18143">
        <ele>91.4</ele>
        <time>2023-02-08T14:43:07Z</time>
      </trkpt>
      <trkpt lat="49.79793" lon="2.18141">
        <ele>91.4</ele>
        <time>2023-02-08T14:43:08Z</time>
      </trkpt>
      <trkpt lat="49.79792" lon="2.1814">
        <ele>91.4</ele>
        <time>2023-02-08T14:43:09Z</time>
      </trkpt>
      <trkpt lat="49.79791" lon="2.18139">
        <ele>91.4</ele>
        <time>2023-02-08T14:43:11Z</time>
      </trkpt>
      <trkpt lat="49.7979" lon="2.18138">
        <ele>91.4</ele>
        <time>2023-02-08T14:43:12Z</time>
      </trkpt>
      <trkpt lat="49.79789" lon="2.18137">
        <ele>91.4</ele>
        <time>2023-02-08T14:43:13Z</time>
      </trkpt>
      <trkpt lat="49.79788" lon="2.18136">
        <ele>91.4</ele>
        <time>2023-02-08T14:43:14Z</time>
      </trkpt>
      <trkpt lat="49.79787" lon="2.18134">
        <ele>91.4</ele>
        <time>2023-02-08T14:43:15Z</time>
      </trkpt>
      <trkpt lat="49.79786" lon="2.18134">
        <ele>91.4</ele>
        <time>2023-02-08T14:43:16Z</time>
      </trkpt>
      <trkpt lat="49.79785" lon="2.18133">
        <ele>91.3</ele>
        <time>2023-02-08T14:43:17Z</time>
      </trkpt>
      <trkpt lat="49.79785" lon="2.18132">
        <ele>91.3</ele>
        <time>2023-02-08T14:43:18Z</time>
      </trkpt>
      <trkpt lat="49.79784" lon="2.18131">
        <ele>91.3</ele>
        <time>2023-02-08T14:43:19Z</time>
      </trkpt>
      <trkpt lat="49.79783" lon="2.1813">
        <ele>91.3</ele>
        <time>2023-02-08T14:43:20Z</time>
      </trkpt>
      <trkpt lat="49.79782" lon="2.18128">
        <ele>91.3</ele>
        <time>2023-02-08T14:43:21Z</time>
      </trkpt>
      <trkpt lat="49.79781" lon="2.18126">
        <ele>91.3</ele>
        <time>2023-02-08T14:43:22Z</time>
      </trkpt>
      <trkpt lat="49.7978" lon="2.18125">
        <ele>91.3</ele>
        <time>2023-02-08T14:43:24Z</time>
      </trkpt>
      <trkpt lat="49.7978" lon="2.18124">
        <ele>91.3</ele>
        <time>2023-02-08T14:43:25Z</time>
      </trkpt>
      <trkpt lat="49.79779" lon="2.18123">
        <ele>91.3</ele>
        <time>2023-02-08T14:43:26Z</time>
      </trkpt>
      <trkpt lat="49.79777" lon="2.18121">
        <ele>91.3</ele>
        <time>2023-02-08T14:43:27Z</time>
      </trkpt>
      <trkpt lat="49.79777" lon="2.1812">
        <ele>91.3</ele>
        <time>2023-02-08T14:43:28Z</time>
      </trkpt>
      <trkpt lat="49.79776" lon="2.18119">
        <ele>91.3</ele>
        <time>2023-02-08T14:43:29Z</time>
      </trkpt>
      <trkpt lat="49.79775" lon="2.18118">
        <ele>91.3</ele>
        <time>2023-02-08T14:43:30Z</time>
      </trkpt>
      <trkpt lat="49.79774" lon="2.18117">
        <ele>91.2</ele>
        <time>2023-02-08T14:43:31Z</time>
      </trkpt>
      <trkpt lat="49.79772" lon="2.18115">
        <ele>91.2</ele>
        <time>2023-02-08T14:43:32Z</time>
      </trkpt>
      <trkpt lat="49.79772" lon="2.18115">
        <ele>91.2</ele>
        <time>2023-02-08T14:43:33Z</time>
      </trkpt>
      <trkpt lat="49.7977" lon="2.18113">
        <ele>91.2</ele>
        <time>2023-02-08T14:43:34Z</time>
      </trkpt>
      <trkpt lat="49.79769" lon="2.18112">
        <ele>91.2</ele>
        <time>2023-02-08T14:43:36Z</time>
      </trkpt>
      <trkpt lat="49.79769" lon="2.18112">
        <ele>91.2</ele>
        <time>2023-02-08T14:43:37Z</time>
      </trkpt>
      <trkpt lat="49.79767" lon="2.1811">
        <ele>91.2</ele>
        <time>2023-02-08T14:43:38Z</time>
      </trkpt>
      <trkpt lat="49.79766" lon="2.18109">
        <ele>91.2</ele>
        <time>2023-02-08T14:43:39Z</time>
      </trkpt>
      <trkpt lat="49.79765" lon="2.18107">
        <ele>91.2</ele>
        <time>2023-02-08T14:43:40Z</time>
      </trkpt>
      <trkpt lat="49.79765" lon="2.18106">
        <ele>91.2</ele>
        <time>2023-02-08T14:43:41Z</time>
      </trkpt>
      <trkpt lat="49.79764" lon="2.18105">
        <ele>91.1</ele>
        <time>2023-02-08T14:43:43Z</time>
      </trkpt>
      <trkpt lat="49.79762" lon="2.18103">
        <ele>91.1</ele>
        <time>2023-02-08T14:43:44Z</time>
      </trkpt>
      <trkpt lat="49.79762" lon="2.18102">
        <ele>91.1</ele>
        <time>2023-02-08T14:43:45Z</time>
      </trkpt>
      <trkpt lat="49.79761" lon="2.18101">
        <ele>91.1</ele>
        <time>2023-02-08T14:43:46Z</time>
      </trkpt>
      <trkpt lat="49.79759" lon="2.18098">
        <ele>91</ele>
        <time>2023-02-08T14:43:48Z</time>
      </trkpt>
      <trkpt lat="49.79759" lon="2.18097">
        <ele>91</ele>
        <time>2023-02-08T14:43:49Z</time>
      </trkpt>
      <trkpt lat="49.79756" lon="2.18094">
        <ele>91</ele>
        <time>2023-02-08T14:43:50Z</time>
      </trkpt>
      <trkpt lat="49.79756" lon="2.18093">
        <ele>91</ele>
        <time>2023-02-08T14:43:52Z</time>
      </trkpt>
      <trkpt lat="49.79755" lon="2.18092">
        <ele>91</ele>
        <time>2023-02-08T14:43:53Z</time>
      </trkpt>
      <trkpt lat="49.79754" lon="2.18092">
        <ele>90.9</ele>
        <time>2023-02-08T14:43:54Z</time>
      </trkpt>
      <trkpt lat="49.79753" lon="2.18091">
        <ele>90.9</ele>
        <time>2023-02-08T14:43:55Z</time>
      </trkpt>
      <trkpt lat="49.79751" lon="2.18089">
        <ele>90.9</ele>
        <time>2023-02-08T14:43:56Z</time>
      </trkpt>
      <trkpt lat="49.7975" lon="2.18088">
        <ele>90.9</ele>
        <time>2023-02-08T14:43:58Z</time>
      </trkpt>
      <trkpt lat="49.79749" lon="2.18087">
        <ele>90.9</ele>
        <time>2023-02-08T14:43:59Z</time>
      </trkpt>
      <trkpt lat="49.79748" lon="2.18086">
        <ele>90.9</ele>
        <time>2023-02-08T14:44:00Z</time>
      </trkpt>
      <trkpt lat="49.79747" lon="2.18085">
        <ele>90.8</ele>
        <time>2023-02-08T14:44:01Z</time>
      </trkpt>
      <trkpt lat="49.79746" lon="2.18083">
        <ele>90.8</ele>
        <time>2023-02-08T14:44:02Z</time>
      </trkpt>
      <trkpt lat="49.79745" lon="2.18082">
        <ele>90.8</ele>
        <time>2023-02-08T14:44:03Z</time>
      </trkpt>
      <trkpt lat="49.79744" lon="2.18081">
        <ele>90.8</ele>
        <time>2023-02-08T14:44:04Z</time>
      </trkpt>
      <trkpt lat="49.79743" lon="2.1808">
        <ele>90.8</ele>
        <time>2023-02-08T14:44:06Z</time>
      </trkpt>
      <trkpt lat="49.79742" lon="2.18079">
        <ele>90.8</ele>
        <time>2023-02-08T14:44:07Z</time>
      </trkpt>
      <trkpt lat="49.79741" lon="2.18078">
        <ele>90.7</ele>
        <time>2023-02-08T14:44:08Z</time>
      </trkpt>
      <trkpt lat="49.7974" lon="2.18076">
        <ele>90.7</ele>
        <time>2023-02-08T14:44:09Z</time>
      </trkpt>
      <trkpt lat="49.79739" lon="2.18075">
        <ele>90.7</ele>
        <time>2023-02-08T14:44:10Z</time>
      </trkpt>
      <trkpt lat="49.79737" lon="2.18073">
        <ele>90.7</ele>
        <time>2023-02-08T14:44:12Z</time>
      </trkpt>
      <trkpt lat="49.79737" lon="2.18072">
        <ele>90.6</ele>
        <time>2023-02-08T14:44:13Z</time>
      </trkpt>
      <trkpt lat="49.79736" lon="2.18071">
        <ele>90.6</ele>
        <time>2023-02-08T14:44:14Z</time>
      </trkpt>
      <trkpt lat="49.79735" lon="2.1807">
        <ele>90.6</ele>
        <time>2023-02-08T14:44:15Z</time>
      </trkpt>
      <trkpt lat="49.79733" lon="2.18068">
        <ele>90.6</ele>
        <time>2023-02-08T14:44:16Z</time>
      </trkpt>
      <trkpt lat="49.79732" lon="2.18067">
        <ele>90.6</ele>
        <time>2023-02-08T14:44:17Z</time>
      </trkpt>
      <trkpt lat="49.79732" lon="2.18067">
        <ele>90.5</ele>
        <time>2023-02-08T14:44:18Z</time>
      </trkpt>
      <trkpt lat="49.79731" lon="2.18066">
        <ele>90.5</ele>
        <time>2023-02-08T14:44:19Z</time>
      </trkpt>
      <trkpt lat="49.7973" lon="2.18064">
        <ele>90.5</ele>
        <time>2023-02-08T14:44:20Z</time>
      </trkpt>
      <trkpt lat="49.79729" lon="2.18063">
        <ele>90.5</ele>
        <time>2023-02-08T14:44:21Z</time>
      </trkpt>
      <trkpt lat="49.79728" lon="2.18061">
        <ele>90.4</ele>
        <time>2023-02-08T14:44:22Z</time>
      </trkpt>
      <trkpt lat="49.79727" lon="2.1806">
        <ele>90.4</ele>
        <time>2023-02-08T14:44:24Z</time>
      </trkpt>
      <trkpt lat="49.79726" lon="2.18059">
        <ele>90.4</ele>
        <time>2023-02-08T14:44:25Z</time>
      </trkpt>
      <trkpt lat="49.79725" lon="2.18057">
        <ele>90.4</ele>
        <time>2023-02-08T14:44:26Z</time>
      </trkpt>
      <trkpt lat="49.79724" lon="2.18057">
        <ele>90.4</ele>
        <time>2023-02-08T14:44:27Z</time>
      </trkpt>
      <trkpt lat="49.79723" lon="2.18056">
        <ele>90.3</ele>
        <time>2023-02-08T14:44:28Z</time>
      </trkpt>
      <trkpt lat="49.79721" lon="2.18054">
        <ele>90.3</ele>
        <time>2023-02-08T14:44:29Z</time>
      </trkpt>
      <trkpt lat="49.79721" lon="2.18053">
        <ele>90.3</ele>
        <time>2023-02-08T14:44:30Z</time>
      </trkpt>
      <trkpt lat="49.7972" lon="2.18052">
        <ele>90.3</ele>
        <time>2023-02-08T14:44:32Z</time>
      </trkpt>
      <trkpt lat="49.79719" lon="2.18051">
        <ele>90.2</ele>
        <time>2023-02-08T14:44:33Z</time>
      </trkpt>
      <trkpt lat="49.79718" lon="2.1805">
        <ele>90.2</ele>
        <time>2023-02-08T14:44:34Z</time>
      </trkpt>
      <trkpt lat="49.79717" lon="2.18049">
        <ele>90.2</ele>
        <time>2023-02-08T14:44:35Z</time>
      </trkpt>
      <trkpt lat="49.79716" lon="2.18047">
        <ele>90.2</ele>
        <time>2023-02-08T14:44:37Z</time>
      </trkpt>
      <trkpt lat="49.79715" lon="2.18045">
        <ele>90.1</ele>
        <time>2023-02-08T14:44:38Z</time>
      </trkpt>
      <trkpt lat="49.79714" lon="2.18044">
        <ele>90.1</ele>
        <time>2023-02-08T14:44:39Z</time>
      </trkpt>
      <trkpt lat="49.79713" lon="2.18042">
        <ele>90.1</ele>
        <time>2023-02-08T14:44:40Z</time>
      </trkpt>
      <trkpt lat="49.79712" lon="2.18041">
        <ele>90.1</ele>
        <time>2023-02-08T14:44:41Z</time>
      </trkpt>
      <trkpt lat="49.79711" lon="2.1804">
        <ele>90</ele>
        <time>2023-02-08T14:44:42Z</time>
      </trkpt>
      <trkpt lat="49.79711" lon="2.18039">
        <ele>90</ele>
        <time>2023-02-08T14:44:43Z</time>
      </trkpt>
      <trkpt lat="49.7971" lon="2.18037">
        <ele>90</ele>
        <time>2023-02-08T14:44:45Z</time>
      </trkpt>
      <trkpt lat="49.79709" lon="2.18036">
        <ele>90</ele>
        <time>2023-02-08T14:44:46Z</time>
      </trkpt>
      <trkpt lat="49.79708" lon="2.18035">
        <ele>90</ele>
        <time>2023-02-08T14:44:47Z</time>
      </trkpt>
      <trkpt lat="49.79706" lon="2.18033">
        <ele>89.9</ele>
        <time>2023-02-08T14:44:48Z</time>
      </trkpt>
      <trkpt lat="49.79706" lon="2.18032">
        <ele>89.9</ele>
        <time>2023-02-08T14:44:49Z</time>
      </trkpt>
      <trkpt lat="49.79705" lon="2.18031">
        <ele>89.9</ele>
        <time>2023-02-08T14:44:50Z</time>
      </trkpt>
      <trkpt lat="49.79704" lon="2.1803">
        <ele>89.8</ele>
        <time>2023-02-08T14:44:51Z</time>
      </trkpt>
      <trkpt lat="49.79703" lon="2.18029">
        <ele>89.8</ele>
        <time>2023-02-08T14:44:52Z</time>
      </trkpt>
      <trkpt lat="49.79701" lon="2.18026">
        <ele>89.8</ele>
        <time>2023-02-08T14:44:54Z</time>
      </trkpt>
      <trkpt lat="49.797" lon="2.18025">
        <ele>89.7</ele>
        <time>2023-02-08T14:44:55Z</time>
      </trkpt>
      <trkpt lat="49.79699" lon="2.18024">
        <ele>89.7</ele>
        <time>2023-02-08T14:44:56Z</time>
      </trkpt>
      <trkpt lat="49.79698" lon="2.18021">
        <ele>89.7</ele>
        <time>2023-02-08T14:44:57Z</time>
      </trkpt>
      <trkpt lat="49.79697" lon="2.1802">
        <ele>89.6</ele>
        <time>2023-02-08T14:44:59Z</time>
      </trkpt>
      <trkpt lat="49.79696" lon="2.18019">
        <ele>89.6</ele>
        <time>2023-02-08T14:45:00Z</time>
      </trkpt>
      <trkpt lat="49.79696" lon="2.18018">
        <ele>89.6</ele>
        <time>2023-02-08T14:45:01Z</time>
      </trkpt>
      <trkpt lat="49.79695" lon="2.18017">
        <ele>89.6</ele>
        <time>2023-02-08T14:45:02Z</time>
      </trkpt>
      <trkpt lat="49.79694" lon="2.18016">
        <ele>89.5</ele>
        <time>2023-02-08T14:45:03Z</time>
      </trkpt>
      <trkpt lat="49.79693" lon="2.18014">
        <ele>89.5</ele>
        <time>2023-02-08T14:45:04Z</time>
      </trkpt>
      <trkpt lat="49.79692" lon="2.18013">
        <ele>89.5</ele>
        <time>2023-02-08T14:45:05Z</time>
      </trkpt>
      <trkpt lat="49.79691" lon="2.18011">
        <ele>89.4</ele>
        <time>2023-02-08T14:45:06Z</time>
      </trkpt>
      <trkpt lat="49.7969" lon="2.18009">
        <ele>89.4</ele>
        <time>2023-02-08T14:45:07Z</time>
      </trkpt>
      <trkpt lat="49.79689" lon="2.18008">
        <ele>89.4</ele>
        <time>2023-02-08T14:45:09Z</time>
      </trkpt>
      <trkpt lat="49.79688" lon="2.18007">
        <ele>89.4</ele>
        <time>2023-02-08T14:45:10Z</time>
      </trkpt>
      <trkpt lat="49.79688" lon="2.18006">
        <ele>89.4</ele>
        <time>2023-02-08T14:45:11Z</time>
      </trkpt>
      <trkpt lat="49.79687" lon="2.18005">
        <ele>89.3</ele>
        <time>2023-02-08T14:45:12Z</time>
      </trkpt>
      <trkpt lat="49.79685" lon="2.18003">
        <ele>89.3</ele>
        <time>2023-02-08T14:45:13Z</time>
      </trkpt>
      <trkpt lat="49.79685" lon="2.18002">
        <ele>89.3</ele>
        <time>2023-02-08T14:45:14Z</time>
      </trkpt>
      <trkpt lat="49.79684" lon="2.18">
        <ele>89.3</ele>
        <time>2023-02-08T14:45:15Z</time>
      </trkpt>
      <trkpt lat="49.79683" lon="2.17998">
        <ele>89.2</ele>
        <time>2023-02-08T14:45:17Z</time>
      </trkpt>
      <trkpt lat="49.79682" lon="2.17998">
        <ele>89.2</ele>
        <time>2023-02-08T14:45:18Z</time>
      </trkpt>
      <trkpt lat="49.79681" lon="2.17997">
        <ele>89.2</ele>
        <time>2023-02-08T14:45:19Z</time>
      </trkpt>
      <trkpt lat="49.7968" lon="2.17995">
        <ele>89.2</ele>
        <time>2023-02-08T14:45:20Z</time>
      </trkpt>
      <trkpt lat="49.79679" lon="2.17995">
        <ele>89.2</ele>
        <time>2023-02-08T14:45:21Z</time>
      </trkpt>
      <trkpt lat="49.79677" lon="2.17993">
        <ele>89.1</ele>
        <time>2023-02-08T14:45:22Z</time>
      </trkpt>
      <trkpt lat="49.79676" lon="2.17992">
        <ele>89.1</ele>
        <time>2023-02-08T14:45:23Z</time>
      </trkpt>
      <trkpt lat="49.79675" lon="2.17991">
        <ele>89.1</ele>
        <time>2023-02-08T14:45:25Z</time>
      </trkpt>
      <trkpt lat="49.79675" lon="2.1799">
        <ele>89.1</ele>
        <time>2023-02-08T14:45:26Z</time>
      </trkpt>
      <trkpt lat="49.79674" lon="2.17989">
        <ele>89</ele>
        <time>2023-02-08T14:45:27Z</time>
      </trkpt>
      <trkpt lat="49.79673" lon="2.17988">
        <ele>89</ele>
        <time>2023-02-08T14:45:28Z</time>
      </trkpt>
      <trkpt lat="49.79672" lon="2.17987">
        <ele>89</ele>
        <time>2023-02-08T14:45:29Z</time>
      </trkpt>
      <trkpt lat="49.7967" lon="2.17986">
        <ele>89</ele>
        <time>2023-02-08T14:45:30Z</time>
      </trkpt>
      <trkpt lat="49.79668" lon="2.17984">
        <ele>88.9</ele>
        <time>2023-02-08T14:45:31Z</time>
      </trkpt>
      <trkpt lat="49.79667" lon="2.17983">
        <ele>88.9</ele>
        <time>2023-02-08T14:45:33Z</time>
      </trkpt>
      <trkpt lat="49.79667" lon="2.17982">
        <ele>88.9</ele>
        <time>2023-02-08T14:45:34Z</time>
      </trkpt>
      <trkpt lat="49.79665" lon="2.1798">
        <ele>88.9</ele>
        <time>2023-02-08T14:45:35Z</time>
      </trkpt>
      <trkpt lat="49.79665" lon="2.17979">
        <ele>88.9</ele>
        <time>2023-02-08T14:45:36Z</time>
      </trkpt>
      <trkpt lat="49.79664" lon="2.17978">
        <ele>88.8</ele>
        <time>2023-02-08T14:45:37Z</time>
      </trkpt>
      <trkpt lat="49.79663" lon="2.17977">
        <ele>88.8</ele>
        <time>2023-02-08T14:45:38Z</time>
      </trkpt>
      <trkpt lat="49.79662" lon="2.17976">
        <ele>88.8</ele>
        <time>2023-02-08T14:45:39Z</time>
      </trkpt>
      <trkpt lat="49.79661" lon="2.17975">
        <ele>88.8</ele>
        <time>2023-02-08T14:45:41Z</time>
      </trkpt>
      <trkpt lat="49.7966" lon="2.17973">
        <ele>88.7</ele>
        <time>2023-02-08T14:45:42Z</time>
      </trkpt>
      <trkpt lat="49.79659" lon="2.17972">
        <ele>88.7</ele>
        <time>2023-02-08T14:45:43Z</time>
      </trkpt>
      <trkpt lat="49.79658" lon="2.17971">
        <ele>88.7</ele>
        <time>2023-02-08T14:45:44Z</time>
      </trkpt>
      <trkpt lat="49.79657" lon="2.17969">
        <ele>88.7</ele>
        <time>2023-02-08T14:45:45Z</time>
      </trkpt>
      <trkpt lat="49.79656" lon="2.17968">
        <ele>88.7</ele>
        <time>2023-02-08T14:45:47Z</time>
      </trkpt>
      <trkpt lat="49.79654" lon="2.17965">
        <ele>88.6</ele>
        <time>2023-02-08T14:45:48Z</time>
      </trkpt>
      <trkpt lat="49.79654" lon="2.17964">
        <ele>88.6</ele>
        <time>2023-02-08T14:45:49Z</time>
      </trkpt>
      <trkpt lat="49.79653" lon="2.17963">
        <ele>88.6</ele>
        <time>2023-02-08T14:45:50Z</time>
      </trkpt>
      <trkpt lat="49.79652" lon="2.17962">
        <ele>88.6</ele>
        <time>2023-02-08T14:45:51Z</time>
      </trkpt>
      <trkpt lat="49.79651" lon="2.1796">
        <ele>88.5</ele>
        <time>2023-02-08T14:45:52Z</time>
      </trkpt>
      <trkpt lat="49.7965" lon="2.17959">
        <ele>88.5</ele>
        <time>2023-02-08T14:45:53Z</time>
      </trkpt>
      <trkpt lat="49.79649" lon="2.17958">
        <ele>88.5</ele>
        <time>2023-02-08T14:45:54Z</time>
      </trkpt>
      <trkpt lat="49.79648" lon="2.17957">
        <ele>88.5</ele>
        <time>2023-02-08T14:45:56Z</time>
      </trkpt>
      <trkpt lat="49.79648" lon="2.17956">
        <ele>88.5</ele>
        <time>2023-02-08T14:45:57Z</time>
      </trkpt>
      <trkpt lat="49.79647" lon="2.17955">
        <ele>88.5</ele>
        <time>2023-02-08T14:45:58Z</time>
      </trkpt>
      <trkpt lat="49.79646" lon="2.17954">
        <ele>88.5</ele>
        <time>2023-02-08T14:45:59Z</time>
      </trkpt>
      <trkpt lat="49.79644" lon="2.17952">
        <ele>88.4</ele>
        <time>2023-02-08T14:46:00Z</time>
      </trkpt>
      <trkpt lat="49.79643" lon="2.17951">
        <ele>88.4</ele>
        <time>2023-02-08T14:46:01Z</time>
      </trkpt>
      <trkpt lat="49.79643" lon="2.1795">
        <ele>88.4</ele>
        <time>2023-02-08T14:46:02Z</time>
      </trkpt>
      <trkpt lat="49.79641" lon="2.17949">
        <ele>88.4</ele>
        <time>2023-02-08T14:46:03Z</time>
      </trkpt>
      <trkpt lat="49.79641" lon="2.17948">
        <ele>88.4</ele>
        <time>2023-02-08T14:46:04Z</time>
      </trkpt>
      <trkpt lat="49.7964" lon="2.17947">
        <ele>88.4</ele>
        <time>2023-02-08T14:46:05Z</time>
      </trkpt>
      <trkpt lat="49.79639" lon="2.17946">
        <ele>88.4</ele>
        <time>2023-02-08T14:46:06Z</time>
      </trkpt>
      <trkpt lat="49.79638" lon="2.17945">
        <ele>88.3</ele>
        <time>2023-02-08T14:46:07Z</time>
      </trkpt>
      <trkpt lat="49.79637" lon="2.17944">
        <ele>88.3</ele>
        <time>2023-02-08T14:46:09Z</time>
      </trkpt>
      <trkpt lat="49.79637" lon="2.17942">
        <ele>88.3</ele>
        <time>2023-02-08T14:46:10Z</time>
      </trkpt>
      <trkpt lat="49.79636" lon="2.17941">
        <ele>88.3</ele>
        <time>2023-02-08T14:46:11Z</time>
      </trkpt>
      <trkpt lat="49.79635" lon="2.1794">
        <ele>88.3</ele>
        <time>2023-02-08T14:46:12Z</time>
      </trkpt>
      <trkpt lat="49.79634" lon="2.17938">
        <ele>88.2</ele>
        <time>2023-02-08T14:46:13Z</time>
      </trkpt>
      <trkpt lat="49.79633" lon="2.17937">
        <ele>88.2</ele>
        <time>2023-02-08T14:46:14Z</time>
      </trkpt>
      <trkpt lat="49.79632" lon="2.17935">
        <ele>88.2</ele>
        <time>2023-02-08T14:46:15Z</time>
      </trkpt>
      <trkpt lat="49.79631" lon="2.17934">
        <ele>88.2</ele>
        <time>2023-02-08T14:46:16Z</time>
      </trkpt>
      <trkpt lat="49.7963" lon="2.17932">
        <ele>88.1</ele>
        <time>2023-02-08T14:46:17Z</time>
      </trkpt>
      <trkpt lat="49.79629" lon="2.17931">
        <ele>88.1</ele>
        <time>2023-02-08T14:46:19Z</time>
      </trkpt>
      <trkpt lat="49.79628" lon="2.1793">
        <ele>88.1</ele>
        <time>2023-02-08T14:46:20Z</time>
      </trkpt>
      <trkpt lat="49.79627" lon="2.17928">
        <ele>88.1</ele>
        <time>2023-02-08T14:46:21Z</time>
      </trkpt>
      <trkpt lat="49.79626" lon="2.17927">
        <ele>88.1</ele>
        <time>2023-02-08T14:46:22Z</time>
      </trkpt>
      <trkpt lat="49.79625" lon="2.17925">
        <ele>88</ele>
        <time>2023-02-08T14:46:23Z</time>
      </trkpt>
      <trkpt lat="49.79624" lon="2.17924">
        <ele>88</ele>
        <time>2023-02-08T14:46:24Z</time>
      </trkpt>
      <trkpt lat="49.79623" lon="2.17923">
        <ele>88</ele>
        <time>2023-02-08T14:46:25Z</time>
      </trkpt>
      <trkpt lat="49.79622" lon="2.17922">
        <ele>88</ele>
        <time>2023-02-08T14:46:27Z</time>
      </trkpt>
      <trkpt lat="49.79621" lon="2.1792">
        <ele>88</ele>
        <time>2023-02-08T14:46:28Z</time>
      </trkpt>
      <trkpt lat="49.7962" lon="2.17919">
        <ele>88</ele>
        <time>2023-02-08T14:46:29Z</time>
      </trkpt>
      <trkpt lat="49.79619" lon="2.17917">
        <ele>87.9</ele>
        <time>2023-02-08T14:46:31Z</time>
      </trkpt>
      <trkpt lat="49.79617" lon="2.17916">
        <ele>87.9</ele>
        <time>2023-02-08T14:46:32Z</time>
      </trkpt>
      <trkpt lat="49.79616" lon="2.17914">
        <ele>87.9</ele>
        <time>2023-02-08T14:46:33Z</time>
      </trkpt>
      <trkpt lat="49.79615" lon="2.17913">
        <ele>87.9</ele>
        <time>2023-02-08T14:46:34Z</time>
      </trkpt>
      <trkpt lat="49.79614" lon="2.17911">
        <ele>87.9</ele>
        <time>2023-02-08T14:46:36Z</time>
      </trkpt>
      <trkpt lat="49.79612" lon="2.17909">
        <ele>87.9</ele>
        <time>2023-02-08T14:46:37Z</time>
      </trkpt>
      <trkpt lat="49.7961" lon="2.17906">
        <ele>87.9</ele>
        <time>2023-02-08T14:46:39Z</time>
      </trkpt>
      <trkpt lat="49.79609" lon="2.17905">
        <ele>87.8</ele>
        <time>2023-02-08T14:46:40Z</time>
      </trkpt>
      <trkpt lat="49.79609" lon="2.17904">
        <ele>87.8</ele>
        <time>2023-02-08T14:46:41Z</time>
      </trkpt>
      <trkpt lat="49.79608" lon="2.17903">
        <ele>87.8</ele>
        <time>2023-02-08T14:46:42Z</time>
      </trkpt>
      <trkpt lat="49.79607" lon="2.17901">
        <ele>87.8</ele>
        <time>2023-02-08T14:46:43Z</time>
      </trkpt>
      <trkpt lat="49.79606" lon="2.179">
        <ele>87.8</ele>
        <time>2023-02-08T14:46:44Z</time>
      </trkpt>
      <trkpt lat="49.79605" lon="2.17899">
        <ele>87.8</ele>
        <time>2023-02-08T14:46:45Z</time>
      </trkpt>
      <trkpt lat="49.79605" lon="2.17898">
        <ele>87.8</ele>
        <time>2023-02-08T14:46:46Z</time>
      </trkpt>
      <trkpt lat="49.79603" lon="2.17896">
        <ele>87.8</ele>
        <time>2023-02-08T14:46:48Z</time>
      </trkpt>
      <trkpt lat="49.79602" lon="2.17895">
        <ele>87.8</ele>
        <time>2023-02-08T14:46:49Z</time>
      </trkpt>
      <trkpt lat="49.79602" lon="2.17894">
        <ele>87.8</ele>
        <time>2023-02-08T14:46:50Z</time>
      </trkpt>
      <trkpt lat="49.79601" lon="2.17892">
        <ele>87.8</ele>
        <time>2023-02-08T14:46:51Z</time>
      </trkpt>
      <trkpt lat="49.796" lon="2.17891">
        <ele>87.8</ele>
        <time>2023-02-08T14:46:52Z</time>
      </trkpt>
      <trkpt lat="49.79599" lon="2.17889">
        <ele>87.8</ele>
        <time>2023-02-08T14:46:53Z</time>
      </trkpt>
      <trkpt lat="49.79597" lon="2.17887">
        <ele>87.8</ele>
        <time>2023-02-08T14:46:54Z</time>
      </trkpt>
      <trkpt lat="49.79597" lon="2.17886">
        <ele>87.8</ele>
        <time>2023-02-08T14:46:55Z</time>
      </trkpt>
      <trkpt lat="49.79596" lon="2.17885">
        <ele>87.8</ele>
        <time>2023-02-08T14:46:56Z</time>
      </trkpt>
      <trkpt lat="49.79595" lon="2.17883">
        <ele>87.8</ele>
        <time>2023-02-08T14:46:58Z</time>
      </trkpt>
      <trkpt lat="49.79594" lon="2.17882">
        <ele>87.7</ele>
        <time>2023-02-08T14:46:59Z</time>
      </trkpt>
      <trkpt lat="49.79593" lon="2.17881">
        <ele>87.7</ele>
        <time>2023-02-08T14:47:00Z</time>
      </trkpt>
      <trkpt lat="49.79592" lon="2.17879">
        <ele>87.7</ele>
        <time>2023-02-08T14:47:01Z</time>
      </trkpt>
      <trkpt lat="49.79591" lon="2.17878">
        <ele>87.7</ele>
        <time>2023-02-08T14:47:02Z</time>
      </trkpt>
      <trkpt lat="49.79589" lon="2.17876">
        <ele>87.7</ele>
        <time>2023-02-08T14:47:03Z</time>
      </trkpt>
      <trkpt lat="49.79588" lon="2.17875">
        <ele>87.7</ele>
        <time>2023-02-08T14:47:04Z</time>
      </trkpt>
      <trkpt lat="49.79588" lon="2.17874">
        <ele>87.8</ele>
        <time>2023-02-08T14:47:05Z</time>
      </trkpt>
      <trkpt lat="49.79587" lon="2.17873">
        <ele>87.8</ele>
        <time>2023-02-08T14:47:07Z</time>
      </trkpt>
      <trkpt lat="49.79585" lon="2.17871">
        <ele>87.8</ele>
        <time>2023-02-08T14:47:08Z</time>
      </trkpt>
      <trkpt lat="49.79584" lon="2.17869">
        <ele>87.8</ele>
        <time>2023-02-08T14:47:09Z</time>
      </trkpt>
      <trkpt lat="49.79583" lon="2.17868">
        <ele>87.8</ele>
        <time>2023-02-08T14:47:10Z</time>
      </trkpt>
      <trkpt lat="49.79583" lon="2.17867">
        <ele>87.8</ele>
        <time>2023-02-08T14:47:11Z</time>
      </trkpt>
      <trkpt lat="49.79582" lon="2.17865">
        <ele>87.8</ele>
        <time>2023-02-08T14:47:12Z</time>
      </trkpt>
      <trkpt lat="49.79581" lon="2.17862">
        <ele>87.8</ele>
        <time>2023-02-08T14:47:13Z</time>
      </trkpt>
      <trkpt lat="49.7958" lon="2.1786">
        <ele>87.8</ele>
        <time>2023-02-08T14:47:14Z</time>
      </trkpt>
      <trkpt lat="49.79579" lon="2.17859">
        <ele>87.8</ele>
        <time>2023-02-08T14:47:15Z</time>
      </trkpt>
      <trkpt lat="49.79578" lon="2.17857">
        <ele>87.8</ele>
        <time>2023-02-08T14:47:17Z</time>
      </trkpt>
      <trkpt lat="49.79577" lon="2.17856">
        <ele>87.8</ele>
        <time>2023-02-08T14:47:18Z</time>
      </trkpt>
      <trkpt lat="49.79577" lon="2.17855">
        <ele>87.8</ele>
        <time>2023-02-08T14:47:19Z</time>
      </trkpt>
      <trkpt lat="49.79576" lon="2.17854">
        <ele>87.8</ele>
        <time>2023-02-08T14:47:20Z</time>
      </trkpt>
      <trkpt lat="49.79575" lon="2.17853">
        <ele>87.8</ele>
        <time>2023-02-08T14:47:21Z</time>
      </trkpt>
      <trkpt lat="49.79574" lon="2.17852">
        <ele>87.8</ele>
        <time>2023-02-08T14:47:22Z</time>
      </trkpt>
      <trkpt lat="49.79572" lon="2.1785">
        <ele>87.8</ele>
        <time>2023-02-08T14:47:24Z</time>
      </trkpt>
      <trkpt lat="49.79572" lon="2.17849">
        <ele>87.8</ele>
        <time>2023-02-08T14:47:25Z</time>
      </trkpt>
      <trkpt lat="49.79571" lon="2.17848">
        <ele>87.8</ele>
        <time>2023-02-08T14:47:26Z</time>
      </trkpt>
      <trkpt lat="49.7957" lon="2.17847">
        <ele>87.8</ele>
        <time>2023-02-08T14:47:27Z</time>
      </trkpt>
      <trkpt lat="49.79568" lon="2.17845">
        <ele>87.8</ele>
        <time>2023-02-08T14:47:28Z</time>
      </trkpt>
      <trkpt lat="49.79568" lon="2.17845">
        <ele>87.9</ele>
        <time>2023-02-08T14:47:29Z</time>
      </trkpt>
      <trkpt lat="49.79567" lon="2.17844">
        <ele>87.9</ele>
        <time>2023-02-08T14:47:30Z</time>
      </trkpt>
      <trkpt lat="49.79566" lon="2.17842">
        <ele>87.9</ele>
        <time>2023-02-08T14:47:32Z</time>
      </trkpt>
      <trkpt lat="49.79565" lon="2.17841">
        <ele>87.9</ele>
        <time>2023-02-08T14:47:33Z</time>
      </trkpt>
      <trkpt lat="49.79564" lon="2.1784">
        <ele>87.9</ele>
        <time>2023-02-08T14:47:34Z</time>
      </trkpt>
      <trkpt lat="49.79563" lon="2.17838">
        <ele>87.9</ele>
        <time>2023-02-08T14:47:35Z</time>
      </trkpt>
      <trkpt lat="49.79562" lon="2.17837">
        <ele>87.9</ele>
        <time>2023-02-08T14:47:36Z</time>
      </trkpt>
      <trkpt lat="49.79561" lon="2.17836">
        <ele>87.9</ele>
        <time>2023-02-08T14:47:37Z</time>
      </trkpt>
      <trkpt lat="49.7956" lon="2.17834">
        <ele>87.9</ele>
        <time>2023-02-08T14:47:38Z</time>
      </trkpt>
      <trkpt lat="49.79559" lon="2.17833">
        <ele>87.9</ele>
        <time>2023-02-08T14:47:39Z</time>
      </trkpt>
      <trkpt lat="49.79558" lon="2.17831">
        <ele>88</ele>
        <time>2023-02-08T14:47:40Z</time>
      </trkpt>
      <trkpt lat="49.79558" lon="2.1783">
        <ele>88</ele>
        <time>2023-02-08T14:47:41Z</time>
      </trkpt>
      <trkpt lat="49.79557" lon="2.17829">
        <ele>88</ele>
        <time>2023-02-08T14:47:42Z</time>
      </trkpt>
      <trkpt lat="49.79556" lon="2.17827">
        <ele>88</ele>
        <time>2023-02-08T14:47:43Z</time>
      </trkpt>
      <trkpt lat="49.79555" lon="2.17826">
        <ele>88</ele>
        <time>2023-02-08T14:47:45Z</time>
      </trkpt>
      <trkpt lat="49.79555" lon="2.17826">
        <ele>88</ele>
        <time>2023-02-08T14:47:46Z</time>
      </trkpt>
      <trkpt lat="49.79553" lon="2.17824">
        <ele>88.1</ele>
        <time>2023-02-08T14:47:47Z</time>
      </trkpt>
      <trkpt lat="49.79552" lon="2.17822">
        <ele>88.1</ele>
        <time>2023-02-08T14:47:48Z</time>
      </trkpt>
      <trkpt lat="49.79551" lon="2.17822">
        <ele>88.1</ele>
        <time>2023-02-08T14:47:49Z</time>
      </trkpt>
      <trkpt lat="49.7955" lon="2.17821">
        <ele>88.1</ele>
        <time>2023-02-08T14:47:51Z</time>
      </trkpt>
      <trkpt lat="49.79549" lon="2.1782">
        <ele>88.1</ele>
        <time>2023-02-08T14:47:52Z</time>
      </trkpt>
      <trkpt lat="49.79549" lon="2.17818">
        <ele>88.2</ele>
        <time>2023-02-08T14:47:53Z</time>
      </trkpt>
      <trkpt lat="49.79547" lon="2.17817">
        <ele>88.2</ele>
        <time>2023-02-08T14:47:54Z</time>
      </trkpt>
      <trkpt lat="49.79546" lon="2.17816">
        <ele>88.2</ele>
        <time>2023-02-08T14:47:55Z</time>
      </trkpt>
      <trkpt lat="49.79546" lon="2.17815">
        <ele>88.2</ele>
        <time>2023-02-08T14:47:56Z</time>
      </trkpt>
      <trkpt lat="49.79545" lon="2.17814">
        <ele>88.2</ele>
        <time>2023-02-08T14:47:57Z</time>
      </trkpt>
      <trkpt lat="49.79543" lon="2.17811">
        <ele>88.3</ele>
        <time>2023-02-08T14:47:58Z</time>
      </trkpt>
      <trkpt lat="49.79542" lon="2.1781">
        <ele>88.3</ele>
        <time>2023-02-08T14:47:59Z</time>
      </trkpt>
      <trkpt lat="49.79542" lon="2.17808">
        <ele>88.3</ele>
        <time>2023-02-08T14:48:01Z</time>
      </trkpt>
      <trkpt lat="49.79541" lon="2.17807">
        <ele>88.3</ele>
        <time>2023-02-08T14:48:02Z</time>
      </trkpt>
      <trkpt lat="49.7954" lon="2.17806">
        <ele>88.3</ele>
        <time>2023-02-08T14:48:03Z</time>
      </trkpt>
      <trkpt lat="49.7954" lon="2.17805">
        <ele>88.4</ele>
        <time>2023-02-08T14:48:04Z</time>
      </trkpt>
      <trkpt lat="49.79539" lon="2.17804">
        <ele>88.4</ele>
        <time>2023-02-08T14:48:05Z</time>
      </trkpt>
      <trkpt lat="49.79539" lon="2.17803">
        <ele>88.4</ele>
        <time>2023-02-08T14:48:06Z</time>
      </trkpt>
      <trkpt lat="49.79538" lon="2.17802">
        <ele>88.4</ele>
        <time>2023-02-08T14:48:08Z</time>
      </trkpt>
      <trkpt lat="49.79537" lon="2.178">
        <ele>88.4</ele>
        <time>2023-02-08T14:48:09Z</time>
      </trkpt>
      <trkpt lat="49.79536" lon="2.17799">
        <ele>88.4</ele>
        <time>2023-02-08T14:48:10Z</time>
      </trkpt>
      <trkpt lat="49.79536" lon="2.17798">
        <ele>88.4</ele>
        <time>2023-02-08T14:48:11Z</time>
      </trkpt>
      <trkpt lat="49.79535" lon="2.17796">
        <ele>88.5</ele>
        <time>2023-02-08T14:48:12Z</time>
      </trkpt>
      <trkpt lat="49.79534" lon="2.17795">
        <ele>88.5</ele>
        <time>2023-02-08T14:48:14Z</time>
      </trkpt>
      <trkpt lat="49.79534" lon="2.17793">
        <ele>88.5</ele>
        <time>2023-02-08T14:48:15Z</time>
      </trkpt>
      <trkpt lat="49.79533" lon="2.17792">
        <ele>88.5</ele>
        <time>2023-02-08T14:48:16Z</time>
      </trkpt>
      <trkpt lat="49.79532" lon="2.17791">
        <ele>88.5</ele>
        <time>2023-02-08T14:48:18Z</time>
      </trkpt>
      <trkpt lat="49.79531" lon="2.1779">
        <ele>88.5</ele>
        <time>2023-02-08T14:48:19Z</time>
      </trkpt>
      <trkpt lat="49.7953" lon="2.17789">
        <ele>88.5</ele>
        <time>2023-02-08T14:48:21Z</time>
      </trkpt>
      <trkpt lat="49.7953" lon="2.17789">
        <ele>88.5</ele>
        <time>2023-02-08T14:48:22Z</time>
      </trkpt>
      <trkpt lat="49.7953" lon="2.17788">
        <ele>88.5</ele>
        <time>2023-02-08T14:48:23Z</time>
      </trkpt>
      <trkpt lat="49.79529" lon="2.17788">
        <ele>88.3</ele>
        <time>2023-02-08T14:48:25Z</time>
      </trkpt>
      <trkpt lat="49.79528" lon="2.17788">
        <ele>88.3</ele>
        <time>2023-02-08T14:48:26Z</time>
      </trkpt>
      <trkpt lat="49.79528" lon="2.17789">
        <ele>88.3</ele>
        <time>2023-02-08T14:48:28Z</time>
      </trkpt>
      <trkpt lat="49.79528" lon="2.1779">
        <ele>88.2</ele>
        <time>2023-02-08T14:48:29Z</time>
      </trkpt>
      <trkpt lat="49.79528" lon="2.17791">
        <ele>88.2</ele>
        <time>2023-02-08T14:48:31Z</time>
      </trkpt>
      <trkpt lat="49.79528" lon="2.17791">
        <ele>88.2</ele>
        <time>2023-02-08T14:48:32Z</time>
      </trkpt>
      <trkpt lat="49.79528" lon="2.17791">
        <ele>88.2</ele>
        <time>2023-02-08T14:48:33Z</time>
      </trkpt>
      <trkpt lat="49.79528" lon="2.17792">
        <ele>88.2</ele>
        <time>2023-02-08T14:48:35Z</time>
      </trkpt>
      <trkpt lat="49.79528" lon="2.17792">
        <ele>88.2</ele>
        <time>2023-02-08T14:48:36Z</time>
      </trkpt>
      <trkpt lat="49.79528" lon="2.17792">
        <ele>88.2</ele>
        <time>2023-02-08T14:48:38Z</time>
      </trkpt>
      <trkpt lat="49.79528" lon="2.17792">
        <ele>88.2</ele>
        <time>2023-02-08T14:48:39Z</time>
      </trkpt>
      <trkpt lat="49.79528" lon="2.17792">
        <ele>88.2</ele>
        <time>2023-02-08T14:48:41Z</time>
      </trkpt>
      <trkpt lat="49.79528" lon="2.17792">
        <ele>88.1</ele>
        <time>2023-02-08T14:48:42Z</time>
      </trkpt>
      <trkpt lat="49.79529" lon="2.17792">
        <ele>88.1</ele>
        <time>2023-02-08T14:48:43Z</time>
      </trkpt>
      <trkpt lat="49.79529" lon="2.17792">
        <ele>88.1</ele>
        <time>2023-02-08T14:48:44Z</time>
      </trkpt>
      <trkpt lat="49.79529" lon="2.17792">
        <ele>88.1</ele>
        <time>2023-02-08T14:48:45Z</time>
      </trkpt>
      <trkpt lat="49.79529" lon="2.17792">
        <ele>88.1</ele>
        <time>2023-02-08T14:48:46Z</time>
      </trkpt>
      <trkpt lat="49.79529" lon="2.17792">
        <ele>88.1</ele>
        <time>2023-02-08T14:48:47Z</time>
      </trkpt>
      <trkpt lat="49.79529" lon="2.17792">
        <ele>88.1</ele>
        <time>2023-02-08T14:48:48Z</time>
      </trkpt>
      <trkpt lat="49.79529" lon="2.17792">
        <ele>88.1</ele>
        <time>2023-02-08T14:48:49Z</time>
      </trkpt>
      <trkpt lat="49.79529" lon="2.17792">
        <ele>88.1</ele>
        <time>2023-02-08T14:48:50Z</time>
      </trkpt>
      <trkpt lat="49.79529" lon="2.17792">
        <ele>88.1</ele>
        <time>2023-02-08T14:48:51Z</time>
      </trkpt>
      <trkpt lat="49.79529" lon="2.17792">
        <ele>88.1</ele>
        <time>2023-02-08T14:48:52Z</time>
      </trkpt>
      <trkpt lat="49.79529" lon="2.17792">
        <ele>88.1</ele>
        <time>2023-02-08T14:48:53Z</time>
      </trkpt>
      <trkpt lat="49.79529" lon="2.17792">
        <ele>88.1</ele>
        <time>2023-02-08T14:48:54Z</time>
      </trkpt>
      <trkpt lat="49.79529" lon="2.17792">
        <ele>88.1</ele>
        <time>2023-02-08T14:48:55Z</time>
      </trkpt>
      <trkpt lat="49.79529" lon="2.17792">
        <ele>88.1</ele>
        <time>2023-02-08T14:48:56Z</time>
      </trkpt>
      <trkpt lat="49.79529" lon="2.17792">
        <ele>88.1</ele>
        <time>2023-02-08T14:48:57Z</time>
      </trkpt>
      <trkpt lat="49.79529" lon="2.17792">
        <ele>88.1</ele>
        <time>2023-02-08T14:48:58Z</time>
      </trkpt>
      <trkpt lat="49.79529" lon="2.17792">
        <ele>88.1</ele>
        <time>2023-02-08T14:48:59Z</time>
      </trkpt>
      <trkpt lat="49.79529" lon="2.17792">
        <ele>88.1</ele>
        <time>2023-02-08T14:49:00Z</time>
      </trkpt>
      <trkpt lat="49.79529" lon="2.17792">
        <ele>88.1</ele>
        <time>2023-02-08T14:49:01Z</time>
      </trkpt>
      <trkpt lat="49.79529" lon="2.17792">
        <ele>88.1</ele>
        <time>2023-02-08T14:49:02Z</time>
      </trkpt>
      <trkpt lat="49.79529" lon="2.17792">
        <ele>88.1</ele>
        <time>2023-02-08T14:49:03Z</time>
      </trkpt>
      <trkpt lat="49.79529" lon="2.17792">
        <ele>88.1</ele>
        <time>2023-02-08T14:49:04Z</time>
      </trkpt>
      <trkpt lat="49.79529" lon="2.17792">
        <ele>88.1</ele>
        <time>2023-02-08T14:49:05Z</time>
      </trkpt>
      <trkpt lat="49.79529" lon="2.17792">
        <ele>88.1</ele>
        <time>2023-02-08T14:49:06Z</time>
      </trkpt>
      <trkpt lat="49.79529" lon="2.17792">
        <ele>88.1</ele>
        <time>2023-02-08T14:49:07Z</time>
      </trkpt>
      <trkpt lat="49.79529" lon="2.17792">
        <ele>88.1</ele>
        <time>2023-02-08T14:49:08Z</time>
      </trkpt>
      <trkpt lat="49.79529" lon="2.17792">
        <ele>88.1</ele>
        <time>2023-02-08T14:49:09Z</time>
      </trkpt>
      <trkpt lat="49.79529" lon="2.17792">
        <ele>88.1</ele>
        <time>2023-02-08T14:49:10Z</time>
      </trkpt>
      <trkpt lat="49.79529" lon="2.17792">
        <ele>88.1</ele>
        <time>2023-02-08T14:49:11Z</time>
      </trkpt>
      <trkpt lat="49.79529" lon="2.17792">
        <ele>88.1</ele>
        <time>2023-02-08T14:49:12Z</time>
      </trkpt>
      <trkpt lat="49.79529" lon="2.17792">
        <ele>88.1</ele>
        <time>2023-02-08T14:49:13Z</time>
      </trkpt>
      <trkpt lat="49.79529" lon="2.17792">
        <ele>88.1</ele>
        <time>2023-02-08T14:49:14Z</time>
      </trkpt>
      <trkpt lat="49.79529" lon="2.17792">
        <ele>88.1</ele>
        <time>2023-02-08T14:49:15Z</time>
      </trkpt>
      <trkpt lat="49.79529" lon="2.17792">
        <ele>88.1</ele>
        <time>2023-02-08T14:49:16Z</time>
      </trkpt>
      <trkpt lat="49.79529" lon="2.17792">
        <ele>88.1</ele>
        <time>2023-02-08T14:49:17Z</time>
      </trkpt>
      <trkpt lat="49.79529" lon="2.17792">
        <ele>88.1</ele>
        <time>2023-02-08T14:49:18Z</time>
      </trkpt>
      <trkpt lat="49.79529" lon="2.17792">
        <ele>88.1</ele>
        <time>2023-02-08T14:49:19Z</time>
      </trkpt>
      <trkpt lat="49.79529" lon="2.17792">
        <ele>88.1</ele>
        <time>2023-02-08T14:49:20Z</time>
      </trkpt>
      <trkpt lat="49.79529" lon="2.17792">
        <ele>88.1</ele>
        <time>2023-02-08T14:49:21Z</time>
      </trkpt>
      <trkpt lat="49.79529" lon="2.17792">
        <ele>88.1</ele>
        <time>2023-02-08T14:49:22Z</time>
      </trkpt>
      <trkpt lat="49.79529" lon="2.17792">
        <ele>88.1</ele>
        <time>2023-02-08T14:49:23Z</time>
      </trkpt>
      <trkpt lat="49.79529" lon="2.17792">
        <ele>88.1</ele>
        <time>2023-02-08T14:49:24Z</time>
      </trkpt>
      <trkpt lat="49.79529" lon="2.17792">
        <ele>88.1</ele>
        <time>2023-02-08T14:49:25Z</time>
      </trkpt>
      <trkpt lat="49.79529" lon="2.17792">
        <ele>88.1</ele>
        <time>2023-02-08T14:49:26Z</time>
      </trkpt>
      <trkpt lat="49.79529" lon="2.17792">
        <ele>88.1</ele>
        <time>2023-02-08T14:49:27Z</time>
      </trkpt>
      <trkpt lat="49.79529" lon="2.17792">
        <ele>88.1</ele>
        <time>2023-02-08T14:49:28Z</time>
      </trkpt>
      <trkpt lat="49.7953" lon="2.17791">
        <ele>88</ele>
        <time>2023-02-08T14:49:29Z</time>
      </trkpt>
      <trkpt lat="49.79531" lon="2.1779">
        <ele>88</ele>
        <time>2023-02-08T14:49:30Z</time>
      </trkpt>
      <trkpt lat="49.79532" lon="2.17789">
        <ele>88</ele>
        <time>2023-02-08T14:49:31Z</time>
      </trkpt>
      <trkpt lat="49.79532" lon="2.17789">
        <ele>87.9</ele>
        <time>2023-02-08T14:49:32Z</time>
      </trkpt>
      <trkpt lat="49.79532" lon="2.17788">
        <ele>87.9</ele>
        <time>2023-02-08T14:49:33Z</time>
      </trkpt>
      <trkpt lat="49.79532" lon="2.17788">
        <ele>87.9</ele>
        <time>2023-02-08T14:49:34Z</time>
      </trkpt>
      <trkpt lat="49.79532" lon="2.17788">
        <ele>87.9</ele>
        <time>2023-02-08T14:49:35Z</time>
      </trkpt>
      <trkpt lat="49.79532" lon="2.17788">
        <ele>87.9</ele>
        <time>2023-02-08T14:49:36Z</time>
      </trkpt>
      <trkpt lat="49.79532" lon="2.17788">
        <ele>87.9</ele>
        <time>2023-02-08T14:49:37Z</time>
      </trkpt>
      <trkpt lat="49.79532" lon="2.17788">
        <ele>87.9</ele>
        <time>2023-02-08T14:49:38Z</time>
      </trkpt>
      <trkpt lat="49.79532" lon="2.17788">
        <ele>87.9</ele>
        <time>2023-02-08T14:49:39Z</time>
      </trkpt>
      <trkpt lat="49.79532" lon="2.17788">
        <ele>87.9</ele>
        <time>2023-02-08T14:49:40Z</time>
      </trkpt>
      <trkpt lat="49.79532" lon="2.17788">
        <ele>87.9</ele>
        <time>2023-02-08T14:49:41Z</time>
      </trkpt>
      <trkpt lat="49.79532" lon="2.17788">
        <ele>87.9</ele>
        <time>2023-02-08T14:49:42Z</time>
      </trkpt>
      <trkpt lat="49.79532" lon="2.17788">
        <ele>87.9</ele>
        <time>2023-02-08T14:49:43Z</time>
      </trkpt>
      <trkpt lat="49.79532" lon="2.17788">
        <ele>87.9</ele>
        <time>2023-02-08T14:49:44Z</time>
      </trkpt>
      <trkpt lat="49.79532" lon="2.17788">
        <ele>87.9</ele>
        <time>2023-02-08T14:49:45Z</time>
      </trkpt>
      <trkpt lat="49.79532" lon="2.17788">
        <ele>87.9</ele>
        <time>2023-02-08T14:49:46Z</time>
      </trkpt>
      <trkpt lat="49.79532" lon="2.17788">
        <ele>87.9</ele>
        <time>2023-02-08T14:49:47Z</time>
      </trkpt>
      <trkpt lat="49.79532" lon="2.17788">
        <ele>87.9</ele>
        <time>2023-02-08T14:49:48Z</time>
      </trkpt>
      <trkpt lat="49.79533" lon="2.17791">
        <ele>87.8</ele>
        <time>2023-02-08T14:49:49Z</time>
      </trkpt>
      <trkpt lat="49.79533" lon="2.17793">
        <ele>87.8</ele>
        <time>2023-02-08T14:49:50Z</time>
      </trkpt>
      <trkpt lat="49.79534" lon="2.17794">
        <ele>87.7</ele>
        <time>2023-02-08T14:49:51Z</time>
      </trkpt>
      <trkpt lat="49.79534" lon="2.17794">
        <ele>87.7</ele>
        <time>2023-02-08T14:49:53Z</time>
      </trkpt>
      <trkpt lat="49.79534" lon="2.17794">
        <ele>87.7</ele>
        <time>2023-02-08T14:49:54Z</time>
      </trkpt>
      <trkpt lat="49.79534" lon="2.17794">
        <ele>87.7</ele>
        <time>2023-02-08T14:49:56Z</time>
      </trkpt>
      <trkpt lat="49.79533" lon="2.17793">
        <ele>87.7</ele>
        <time>2023-02-08T14:49:57Z</time>
      </trkpt>
      <trkpt lat="49.79533" lon="2.17793">
        <ele>87.7</ele>
        <time>2023-02-08T14:49:58Z</time>
      </trkpt>
      <trkpt lat="49.79533" lon="2.17793">
        <ele>87.7</ele>
        <time>2023-02-08T14:50:00Z</time>
      </trkpt>
      <trkpt lat="49.79533" lon="2.17793">
        <ele>87.7</ele>
        <time>2023-02-08T14:50:01Z</time>
      </trkpt>
      <trkpt lat="49.79533" lon="2.17793">
        <ele>87.7</ele>
        <time>2023-02-08T14:50:02Z</time>
      </trkpt>
      <trkpt lat="49.79533" lon="2.17793">
        <ele>87.7</ele>
        <time>2023-02-08T14:50:03Z</time>
      </trkpt>
      <trkpt lat="49.79533" lon="2.17794">
        <ele>87.7</ele>
        <time>2023-02-08T14:50:06Z</time>
      </trkpt>
      <trkpt lat="49.79533" lon="2.17794">
        <ele>87.6</ele>
        <time>2023-02-08T14:50:08Z</time>
      </trkpt>
      <trkpt lat="49.79533" lon="2.17793">
        <ele>87.6</ele>
        <time>2023-02-08T14:50:10Z</time>
      </trkpt>
      <trkpt lat="49.79533" lon="2.17793">
        <ele>87.6</ele>
        <time>2023-02-08T14:50:12Z</time>
      </trkpt>
      <trkpt lat="49.79533" lon="2.17793">
        <ele>87.6</ele>
        <time>2023-02-08T14:50:13Z</time>
      </trkpt>
      <trkpt lat="49.79533" lon="2.17792">
        <ele>87.6</ele>
        <time>2023-02-08T14:50:14Z</time>
      </trkpt>
      <trkpt lat="49.79533" lon="2.17792">
        <ele>87.6</ele>
        <time>2023-02-08T14:50:16Z</time>
      </trkpt>
      <trkpt lat="49.79533" lon="2.17792">
        <ele>87.6</ele>
        <time>2023-02-08T14:50:17Z</time>
      </trkpt>
      <trkpt lat="49.79533" lon="2.17792">
        <ele>87.6</ele>
        <time>2023-02-08T14:50:19Z</time>
      </trkpt>
      <trkpt lat="49.79533" lon="2.17792">
        <ele>87.6</ele>
        <time>2023-02-08T14:50:20Z</time>
      </trkpt>
      <trkpt lat="49.79533" lon="2.17792">
        <ele>87.6</ele>
        <time>2023-02-08T14:50:21Z</time>
      </trkpt>
      <trkpt lat="49.79533" lon="2.17792">
        <ele>87.6</ele>
        <time>2023-02-08T14:50:22Z</time>
      </trkpt>
      <trkpt lat="49.79533" lon="2.17792">
        <ele>87.6</ele>
        <time>2023-02-08T14:50:23Z</time>
      </trkpt>
      <trkpt lat="49.79533" lon="2.17792">
        <ele>87.6</ele>
        <time>2023-02-08T14:50:24Z</time>
      </trkpt>
      <trkpt lat="49.79533" lon="2.17792">
        <ele>87.6</ele>
        <time>2023-02-08T14:50:25Z</time>
      </trkpt>
      <trkpt lat="49.79533" lon="2.17792">
        <ele>87.6</ele>
        <time>2023-02-08T14:50:26Z</time>
      </trkpt>
      <trkpt lat="49.79533" lon="2.17792">
        <ele>87.6</ele>
        <time>2023-02-08T14:50:27Z</time>
      </trkpt>
      <trkpt lat="49.79533" lon="2.17792">
        <ele>87.6</ele>
        <time>2023-02-08T14:50:28Z</time>
      </trkpt>
      <trkpt lat="49.79533" lon="2.17792">
        <ele>87.6</ele>
        <time>2023-02-08T14:50:29Z</time>
      </trkpt>
      <trkpt lat="49.79533" lon="2.17792">
        <ele>87.5</ele>
        <time>2023-02-08T14:50:30Z</time>
      </trkpt>
      <trkpt lat="49.79533" lon="2.17792">
        <ele>87.5</ele>
        <time>2023-02-08T14:50:31Z</time>
      </trkpt>
      <trkpt lat="49.79533" lon="2.17792">
        <ele>87.5</ele>
        <time>2023-02-08T14:50:32Z</time>
      </trkpt>
      <trkpt lat="49.79533" lon="2.17792">
        <ele>87.5</ele>
        <time>2023-02-08T14:50:34Z</time>
      </trkpt>
      <trkpt lat="49.79533" lon="2.17792">
        <ele>87.5</ele>
        <time>2023-02-08T14:50:35Z</time>
      </trkpt>
      <trkpt lat="49.79533" lon="2.17792">
        <ele>87.5</ele>
        <time>2023-02-08T14:50:36Z</time>
      </trkpt>
      <trkpt lat="49.79533" lon="2.17792">
        <ele>87.5</ele>
        <time>2023-02-08T14:50:37Z</time>
      </trkpt>
      <trkpt lat="49.79532" lon="2.17791">
        <ele>87.5</ele>
        <time>2023-02-08T14:50:38Z</time>
      </trkpt>
      <trkpt lat="49.79532" lon="2.17789">
        <ele>87.4</ele>
        <time>2023-02-08T14:50:39Z</time>
      </trkpt>
      <trkpt lat="49.79532" lon="2.17787">
        <ele>87.4</ele>
        <time>2023-02-08T14:50:41Z</time>
      </trkpt>
      <trkpt lat="49.79532" lon="2.17784">
        <ele>87.3</ele>
        <time>2023-02-08T14:50:42Z</time>
      </trkpt>
      <trkpt lat="49.79532" lon="2.17783">
        <ele>87.3</ele>
        <time>2023-02-08T14:50:44Z</time>
      </trkpt>
      <trkpt lat="49.79531" lon="2.17783">
        <ele>87.2</ele>
        <time>2023-02-08T14:50:46Z</time>
      </trkpt>
      <trkpt lat="49.79531" lon="2.17783">
        <ele>87.2</ele>
        <time>2023-02-08T14:50:47Z</time>
      </trkpt>
      <trkpt lat="49.79531" lon="2.17784">
        <ele>87.2</ele>
        <time>2023-02-08T14:50:49Z</time>
      </trkpt>
      <trkpt lat="49.79531" lon="2.17784">
        <ele>87.2</ele>
        <time>2023-02-08T14:50:50Z</time>
      </trkpt>
      <trkpt lat="49.79531" lon="2.17784">
        <ele>87.2</ele>
        <time>2023-02-08T14:50:52Z</time>
      </trkpt>
      <trkpt lat="49.79531" lon="2.17784">
        <ele>87.2</ele>
        <time>2023-02-08T14:50:53Z</time>
      </trkpt>
      <trkpt lat="49.79531" lon="2.17784">
        <ele>87.2</ele>
        <time>2023-02-08T14:50:54Z</time>
      </trkpt>
      <trkpt lat="49.79531" lon="2.17783">
        <ele>87.2</ele>
        <time>2023-02-08T14:50:56Z</time>
      </trkpt>
      <trkpt lat="49.79531" lon="2.17783">
        <ele>87.2</ele>
        <time>2023-02-08T14:50:57Z</time>
      </trkpt>
      <trkpt lat="49.79531" lon="2.17783">
        <ele>87.2</ele>
        <time>2023-02-08T14:50:59Z</time>
      </trkpt>
      <trkpt lat="49.79531" lon="2.17783">
        <ele>87.2</ele>
        <time>2023-02-08T14:51:00Z</time>
      </trkpt>
      <trkpt lat="49.79531" lon="2.17783">
        <ele>87.2</ele>
        <time>2023-02-08T14:51:02Z</time>
      </trkpt>
      <trkpt lat="49.79532" lon="2.17782">
        <ele>87.1</ele>
        <time>2023-02-08T14:51:03Z</time>
      </trkpt>
      <trkpt lat="49.79532" lon="2.17781">
        <ele>87.1</ele>
        <time>2023-02-08T14:51:05Z</time>
      </trkpt>
      <trkpt lat="49.79532" lon="2.17781">
        <ele>87.1</ele>
        <time>2023-02-08T14:51:06Z</time>
      </trkpt>
      <trkpt lat="49.79532" lon="2.17781">
        <ele>87.1</ele>
        <time>2023-02-08T14:51:07Z</time>
      </trkpt>
      <trkpt lat="49.79532" lon="2.17781">
        <ele>87.1</ele>
        <time>2023-02-08T14:51:09Z</time>
      </trkpt>
      <trkpt lat="49.79532" lon="2.17781">
        <ele>87.1</ele>
        <time>2023-02-08T14:51:10Z</time>
      </trkpt>
      <trkpt lat="49.79532" lon="2.17781">
        <ele>87.1</ele>
        <time>2023-02-08T14:51:11Z</time>
      </trkpt>
      <trkpt lat="49.79531" lon="2.17781">
        <ele>87</ele>
        <time>2023-02-08T14:51:13Z</time>
      </trkpt>
      <trkpt lat="49.79531" lon="2.17782">
        <ele>87</ele>
        <time>2023-02-08T14:51:14Z</time>
      </trkpt>
      <trkpt lat="49.79531" lon="2.17782">
        <ele>87</ele>
        <time>2023-02-08T14:51:15Z</time>
      </trkpt>
      <trkpt lat="49.79531" lon="2.17782">
        <ele>87</ele>
        <time>2023-02-08T14:51:16Z</time>
      </trkpt>
      <trkpt lat="49.79531" lon="2.17782">
        <ele>87</ele>
        <time>2023-02-08T14:51:18Z</time>
      </trkpt>
      <trkpt lat="49.79531" lon="2.17782">
        <ele>87</ele>
        <time>2023-02-08T14:51:19Z</time>
      </trkpt>
      <trkpt lat="49.79531" lon="2.17782">
        <ele>87</ele>
        <time>2023-02-08T14:51:21Z</time>
      </trkpt>
      <trkpt lat="49.7953" lon="2.17783">
        <ele>87</ele>
        <time>2023-02-08T14:51:23Z</time>
      </trkpt>
      <trkpt lat="49.7953" lon="2.17783">
        <ele>87</ele>
        <time>2023-02-08T14:51:24Z</time>
      </trkpt>
      <trkpt lat="49.7953" lon="2.17783">
        <ele>87</ele>
        <time>2023-02-08T14:51:25Z</time>
      </trkpt>
      <trkpt lat="49.7953" lon="2.17783">
        <ele>87</ele>
        <time>2023-02-08T14:51:26Z</time>
      </trkpt>
      <trkpt lat="49.7953" lon="2.17783">
        <ele>87</ele>
        <time>2023-02-08T14:51:27Z</time>
      </trkpt>
      <trkpt lat="49.7953" lon="2.17783">
        <ele>87</ele>
        <time>2023-02-08T14:51:28Z</time>
      </trkpt>
      <trkpt lat="49.7953" lon="2.17783">
        <ele>87</ele>
        <time>2023-02-08T14:51:29Z</time>
      </trkpt>
      <trkpt lat="49.7953" lon="2.17783">
        <ele>87</ele>
        <time>2023-02-08T14:51:30Z</time>
      </trkpt>
      <trkpt lat="49.7953" lon="2.17783">
        <ele>87</ele>
        <time>2023-02-08T14:51:31Z</time>
      </trkpt>
      <trkpt lat="49.7953" lon="2.17783">
        <ele>87</ele>
        <time>2023-02-08T14:51:32Z</time>
      </trkpt>
      <trkpt lat="49.7953" lon="2.17783">
        <ele>87</ele>
        <time>2023-02-08T14:51:33Z</time>
      </trkpt>
      <trkpt lat="49.7953" lon="2.17783">
        <ele>87</ele>
        <time>2023-02-08T14:51:34Z</time>
      </trkpt>
      <trkpt lat="49.7953" lon="2.17783">
        <ele>87</ele>
        <time>2023-02-08T14:51:35Z</time>
      </trkpt>
      <trkpt lat="49.7953" lon="2.17783">
        <ele>87</ele>
        <time>2023-02-08T14:51:36Z</time>
      </trkpt>
      <trkpt lat="49.7953" lon="2.17783">
        <ele>87</ele>
        <time>2023-02-08T14:51:37Z</time>
      </trkpt>
      <trkpt lat="49.7953" lon="2.17783">
        <ele>87</ele>
        <time>2023-02-08T14:51:38Z</time>
      </trkpt>
      <trkpt lat="49.7953" lon="2.17783">
        <ele>87</ele>
        <time>2023-02-08T14:51:39Z</time>
      </trkpt>
      <trkpt lat="49.7953" lon="2.17783">
        <ele>87</ele>
        <time>2023-02-08T14:51:40Z</time>
      </trkpt>
      <trkpt lat="49.7953" lon="2.17783">
        <ele>87</ele>
        <time>2023-02-08T14:51:41Z</time>
      </trkpt>
      <trkpt lat="49.7953" lon="2.17783">
        <ele>87</ele>
        <time>2023-02-08T14:51:42Z</time>
      </trkpt>
      <trkpt lat="49.7953" lon="2.17783">
        <ele>87</ele>
        <time>2023-02-08T14:51:43Z</time>
      </trkpt>
      <trkpt lat="49.7953" lon="2.17783">
        <ele>87</ele>
        <time>2023-02-08T14:51:44Z</time>
      </trkpt>
      <trkpt lat="49.7953" lon="2.17783">
        <ele>87</ele>
        <time>2023-02-08T14:51:45Z</time>
      </trkpt>
      <trkpt lat="49.7953" lon="2.17783">
        <ele>87</ele>
        <time>2023-02-08T14:51:46Z</time>
      </trkpt>
      <trkpt lat="49.7953" lon="2.17783">
        <ele>87</ele>
        <time>2023-02-08T14:51:47Z</time>
      </trkpt>
      <trkpt lat="49.7953" lon="2.17783">
        <ele>87</ele>
        <time>2023-02-08T14:51:48Z</time>
      </trkpt>
      <trkpt lat="49.7953" lon="2.17783">
        <ele>87</ele>
        <time>2023-02-08T14:51:49Z</time>
      </trkpt>
      <trkpt lat="49.7953" lon="2.17783">
        <ele>87</ele>
        <time>2023-02-08T14:51:50Z</time>
      </trkpt>
      <trkpt lat="49.7953" lon="2.17783">
        <ele>87</ele>
        <time>2023-02-08T14:51:51Z</time>
      </trkpt>
      <trkpt lat="49.7953" lon="2.17783">
        <ele>87</ele>
        <time>2023-02-08T14:51:52Z</time>
      </trkpt>
      <trkpt lat="49.7953" lon="2.17783">
        <ele>87</ele>
        <time>2023-02-08T14:51:53Z</time>
      </trkpt>
      <trkpt lat="49.7953" lon="2.17783">
        <ele>87</ele>
        <time>2023-02-08T14:51:54Z</time>
      </trkpt>
      <trkpt lat="49.7953" lon="2.17783">
        <ele>87</ele>
        <time>2023-02-08T14:51:55Z</time>
      </trkpt>
      <trkpt lat="49.7953" lon="2.17783">
        <ele>87</ele>
        <time>2023-02-08T14:51:56Z</time>
      </trkpt>
      <trkpt lat="49.7953" lon="2.17783">
        <ele>87</ele>
        <time>2023-02-08T14:51:57Z</time>
      </trkpt>
      <trkpt lat="49.7953" lon="2.17783">
        <ele>87</ele>
        <time>2023-02-08T14:51:59Z</time>
      </trkpt>
      <trkpt lat="49.7953" lon="2.17783">
        <ele>87</ele>
        <time>2023-02-08T14:52:00Z</time>
      </trkpt>
      <trkpt lat="49.7953" lon="2.17783">
        <ele>87</ele>
        <time>2023-02-08T14:52:01Z</time>
      </trkpt>
      <trkpt lat="49.7953" lon="2.17783">
        <ele>87</ele>
        <time>2023-02-08T14:52:02Z</time>
      </trkpt>
      <trkpt lat="49.7953" lon="2.17783">
        <ele>87</ele>
        <time>2023-02-08T14:52:03Z</time>
      </trkpt>
      <trkpt lat="49.7953" lon="2.17783">
        <ele>87</ele>
        <time>2023-02-08T14:52:04Z</time>
      </trkpt>
      <trkpt lat="49.7953" lon="2.17783">
        <ele>87</ele>
        <time>2023-02-08T14:52:05Z</time>
      </trkpt>
      <trkpt lat="49.7953" lon="2.17783">
        <ele>87</ele>
        <time>2023-02-08T14:52:06Z</time>
      </trkpt>
      <trkpt lat="49.7953" lon="2.17783">
        <ele>87</ele>
        <time>2023-02-08T14:52:07Z</time>
      </trkpt>
      <trkpt lat="49.7953" lon="2.17783">
        <ele>87</ele>
        <time>2023-02-08T14:52:08Z</time>
      </trkpt>
      <trkpt lat="49.7953" lon="2.17783">
        <ele>87</ele>
        <time>2023-02-08T14:52:09Z</time>
      </trkpt>
      <trkpt lat="49.7953" lon="2.17783">
        <ele>87</ele>
        <time>2023-02-08T14:52:10Z</time>
      </trkpt>
      <trkpt lat="49.7953" lon="2.17783">
        <ele>87</ele>
        <time>2023-02-08T14:52:11Z</time>
      </trkpt>
      <trkpt lat="49.7953" lon="2.17783">
        <ele>87</ele>
        <time>2023-02-08T14:52:12Z</time>
      </trkpt>
      <trkpt lat="49.7953" lon="2.17783">
        <ele>87</ele>
        <time>2023-02-08T14:52:14Z</time>
      </trkpt>
      <trkpt lat="49.7953" lon="2.17783">
        <ele>87</ele>
        <time>2023-02-08T14:52:15Z</time>
      </trkpt>
      <trkpt lat="49.7953" lon="2.17783">
        <ele>87</ele>
        <time>2023-02-08T14:52:16Z</time>
      </trkpt>
      <trkpt lat="49.7953" lon="2.17783">
        <ele>87</ele>
        <time>2023-02-08T14:52:17Z</time>
      </trkpt>
      <trkpt lat="49.7953" lon="2.17783">
        <ele>87</ele>
        <time>2023-02-08T14:52:18Z</time>
      </trkpt>
      <trkpt lat="49.7953" lon="2.17783">
        <ele>87</ele>
        <time>2023-02-08T14:52:19Z</time>
      </trkpt>
      <trkpt lat="49.7953" lon="2.17783">
        <ele>87</ele>
        <time>2023-02-08T14:52:20Z</time>
      </trkpt>
      <trkpt lat="49.7953" lon="2.17783">
        <ele>87</ele>
        <time>2023-02-08T14:52:21Z</time>
      </trkpt>
      <trkpt lat="49.7953" lon="2.17783">
        <ele>87</ele>
        <time>2023-02-08T14:52:23Z</time>
      </trkpt>
      <trkpt lat="49.7953" lon="2.17783">
        <ele>87</ele>
        <time>2023-02-08T14:52:24Z</time>
      </trkpt>
      <trkpt lat="49.7953" lon="2.17783">
        <ele>87</ele>
        <time>2023-02-08T14:52:25Z</time>
      </trkpt>
      <trkpt lat="49.7953" lon="2.17783">
        <ele>87</ele>
        <time>2023-02-08T14:52:26Z</time>
      </trkpt>
      <trkpt lat="49.7953" lon="2.17783">
        <ele>87</ele>
        <time>2023-02-08T14:52:27Z</time>
      </trkpt>
      <trkpt lat="49.7953" lon="2.17783">
        <ele>87</ele>
        <time>2023-02-08T14:52:28Z</time>
      </trkpt>
      <trkpt lat="49.7953" lon="2.17783">
        <ele>87</ele>
        <time>2023-02-08T14:52:29Z</time>
      </trkpt>
      <trkpt lat="49.7953" lon="2.17783">
        <ele>87</ele>
        <time>2023-02-08T14:52:30Z</time>
      </trkpt>
      <trkpt lat="49.7953" lon="2.17783">
        <ele>87</ele>
        <time>2023-02-08T14:52:31Z</time>
      </trkpt>
      <trkpt lat="49.7953" lon="2.17783">
        <ele>87</ele>
        <time>2023-02-08T14:52:32Z</time>
      </trkpt>
      <trkpt lat="49.7953" lon="2.17783">
        <ele>87</ele>
        <time>2023-02-08T14:52:33Z</time>
      </trkpt>
      <trkpt lat="49.7953" lon="2.17783">
        <ele>87</ele>
        <time>2023-02-08T14:52:34Z</time>
      </trkpt>
      <trkpt lat="49.7953" lon="2.17783">
        <ele>87</ele>
        <time>2023-02-08T14:52:35Z</time>
      </trkpt>
      <trkpt lat="49.7953" lon="2.17783">
        <ele>87</ele>
        <time>2023-02-08T14:52:36Z</time>
      </trkpt>
      <trkpt lat="49.7953" lon="2.17783">
        <ele>87</ele>
        <time>2023-02-08T14:52:37Z</time>
      </trkpt>
      <trkpt lat="49.7953" lon="2.17783">
        <ele>87</ele>
        <time>2023-02-08T14:52:38Z</time>
      </trkpt>
      <trkpt lat="49.7953" lon="2.17783">
        <ele>87</ele>
        <time>2023-02-08T14:52:39Z</time>
      </trkpt>
      <trkpt lat="49.7953" lon="2.17783">
        <ele>87</ele>
        <time>2023-02-08T14:52:40Z</time>
      </trkpt>
      <trkpt lat="49.7953" lon="2.17783">
        <ele>87</ele>
        <time>2023-02-08T14:52:41Z</time>
      </trkpt>
      <trkpt lat="49.7953" lon="2.17783">
        <ele>87</ele>
        <time>2023-02-08T14:52:42Z</time>
      </trkpt>
      <trkpt lat="49.7953" lon="2.17783">
        <ele>87</ele>
        <time>2023-02-08T14:52:43Z</time>
      </trkpt>
      <trkpt lat="49.7953" lon="2.17783">
        <ele>87</ele>
        <time>2023-02-08T14:52:44Z</time>
      </trkpt>
      <trkpt lat="49.7953" lon="2.17783">
        <ele>87</ele>
        <time>2023-02-08T14:52:45Z</time>
      </trkpt>
      <trkpt lat="49.7953" lon="2.17783">
        <ele>87</ele>
        <time>2023-02-08T14:52:46Z</time>
      </trkpt>
      <trkpt lat="49.7953" lon="2.17783">
        <ele>87</ele>
        <time>2023-02-08T14:52:47Z</time>
      </trkpt>
      <trkpt lat="49.7953" lon="2.17783">
        <ele>87</ele>
        <time>2023-02-08T14:52:48Z</time>
      </trkpt>
      <trkpt lat="49.7953" lon="2.17783">
        <ele>87</ele>
        <time>2023-02-08T14:52:49Z</time>
      </trkpt>
      <trkpt lat="49.7953" lon="2.17783">
        <ele>87</ele>
        <time>2023-02-08T14:52:50Z</time>
      </trkpt>
      <trkpt lat="49.7953" lon="2.17783">
        <ele>87</ele>
        <time>2023-02-08T14:52:51Z</time>
      </trkpt>
      <trkpt lat="49.7953" lon="2.17783">
        <ele>87</ele>
        <time>2023-02-08T14:52:52Z</time>
      </trkpt>
      <trkpt lat="49.7953" lon="2.17783">
        <ele>87</ele>
        <time>2023-02-08T14:52:53Z</time>
      </trkpt>
      <trkpt lat="49.7953" lon="2.17783">
        <ele>87</ele>
        <time>2023-02-08T14:52:54Z</time>
      </trkpt>
      <trkpt lat="49.7953" lon="2.17783">
        <ele>87</ele>
        <time>2023-02-08T14:52:55Z</time>
      </trkpt>
      <trkpt lat="49.7953" lon="2.17783">
        <ele>87</ele>
        <time>2023-02-08T14:52:56Z</time>
      </trkpt>
      <trkpt lat="49.7953" lon="2.17783">
        <ele>87</ele>
        <time>2023-02-08T14:52:57Z</time>
      </trkpt>
      <trkpt lat="49.7953" lon="2.17783">
        <ele>87</ele>
        <time>2023-02-08T14:52:58Z</time>
      </trkpt>
      <trkpt lat="49.7953" lon="2.17783">
        <ele>87</ele>
        <time>2023-02-08T14:52:59Z</time>
      </trkpt>
      <trkpt lat="49.7953" lon="2.17783">
        <ele>87</ele>
        <time>2023-02-08T14:53:00Z</time>
      </trkpt>
      <trkpt lat="49.7953" lon="2.17783">
        <ele>87</ele>
        <time>2023-02-08T14:53:01Z</time>
      </trkpt>
      <trkpt lat="49.7953" lon="2.17783">
        <ele>87</ele>
        <time>2023-02-08T14:53:02Z</time>
      </trkpt>
      <trkpt lat="49.7953" lon="2.17783">
        <ele>87</ele>
        <time>2023-02-08T14:53:03Z</time>
      </trkpt>
      <trkpt lat="49.7953" lon="2.17783">
        <ele>87</ele>
        <time>2023-02-08T14:53:04Z</time>
      </trkpt>
      <trkpt lat="49.7953" lon="2.17783">
        <ele>87</ele>
        <time>2023-02-08T14:53:05Z</time>
      </trkpt>
      <trkpt lat="49.7953" lon="2.17783">
        <ele>87</ele>
        <time>2023-02-08T14:53:06Z</time>
      </trkpt>
      <trkpt lat="49.7953" lon="2.17783">
        <ele>87</ele>
        <time>2023-02-08T14:53:07Z</time>
      </trkpt>
      <trkpt lat="49.7953" lon="2.17783">
        <ele>87</ele>
        <time>2023-02-08T14:53:08Z</time>
      </trkpt>
      <trkpt lat="49.7953" lon="2.17783">
        <ele>87</ele>
        <time>2023-02-08T14:53:09Z</time>
      </trkpt>
      <trkpt lat="49.7953" lon="2.17783">
        <ele>87</ele>
        <time>2023-02-08T14:53:10Z</time>
      </trkpt>
      <trkpt lat="49.7953" lon="2.17783">
        <ele>87</ele>
        <time>2023-02-08T14:53:11Z</time>
      </trkpt>
      <trkpt lat="49.7953" lon="2.17783">
        <ele>87</ele>
        <time>2023-02-08T14:53:12Z</time>
      </trkpt>
      <trkpt lat="49.7953" lon="2.17783">
        <ele>87</ele>
        <time>2023-02-08T14:53:13Z</time>
      </trkpt>
      <trkpt lat="49.7953" lon="2.17783">
        <ele>87</ele>
        <time>2023-02-08T14:53:14Z</time>
      </trkpt>
      <trkpt lat="49.7953" lon="2.17783">
        <ele>87</ele>
        <time>2023-02-08T14:53:15Z</time>
      </trkpt>
      <trkpt lat="49.7953" lon="2.17783">
        <ele>87</ele>
        <time>2023-02-08T14:53:16Z</time>
      </trkpt>
      <trkpt lat="49.7953" lon="2.17783">
        <ele>87</ele>
        <time>2023-02-08T14:53:17Z</time>
      </trkpt>
      <trkpt lat="49.7953" lon="2.17783">
        <ele>87</ele>
        <time>2023-02-08T14:53:18Z</time>
      </trkpt>
      <trkpt lat="49.7953" lon="2.17783">
        <ele>87</ele>
        <time>2023-02-08T14:53:19Z</time>
      </trkpt>
      <trkpt lat="49.7953" lon="2.17783">
        <ele>87</ele>
        <time>2023-02-08T14:53:20Z</time>
      </trkpt>
      <trkpt lat="49.7953" lon="2.17783">
        <ele>87</ele>
        <time>2023-02-08T14:53:21Z</time>
      </trkpt>
      <trkpt lat="49.7953" lon="2.17782">
        <ele>86.9</ele>
        <time>2023-02-08T14:53:22Z</time>
      </trkpt>
      <trkpt lat="49.79529" lon="2.17782">
        <ele>86.9</ele>
        <time>2023-02-08T14:53:23Z</time>
      </trkpt>
      <trkpt lat="49.79529" lon="2.17783">
        <ele>86.9</ele>
        <time>2023-02-08T14:53:24Z</time>
      </trkpt>
      <trkpt lat="49.79529" lon="2.17784">
        <ele>86.9</ele>
        <time>2023-02-08T14:53:25Z</time>
      </trkpt>
      <trkpt lat="49.79528" lon="2.17784">
        <ele>86.9</ele>
        <time>2023-02-08T14:53:26Z</time>
      </trkpt>
      <trkpt lat="49.79528" lon="2.17785">
        <ele>86.9</ele>
        <time>2023-02-08T14:53:27Z</time>
      </trkpt>
      <trkpt lat="49.79528" lon="2.17786">
        <ele>86.8</ele>
        <time>2023-02-08T14:53:28Z</time>
      </trkpt>
      <trkpt lat="49.79528" lon="2.17786">
        <ele>86.8</ele>
        <time>2023-02-08T14:53:29Z</time>
      </trkpt>
      <trkpt lat="49.79527" lon="2.17787">
        <ele>86.8</ele>
        <time>2023-02-08T14:53:30Z</time>
      </trkpt>
      <trkpt lat="49.79527" lon="2.17788">
        <ele>86.8</ele>
        <time>2023-02-08T14:53:32Z</time>
      </trkpt>
      <trkpt lat="49.79527" lon="2.17788">
        <ele>86.7</ele>
        <time>2023-02-08T14:53:34Z</time>
      </trkpt>
      <trkpt lat="49.79526" lon="2.17789">
        <ele>86.7</ele>
        <time>2023-02-08T14:53:35Z</time>
      </trkpt>
      <trkpt lat="49.79526" lon="2.1779">
        <ele>86.7</ele>
        <time>2023-02-08T14:53:36Z</time>
      </trkpt>
      <trkpt lat="49.79526" lon="2.17792">
        <ele>86.7</ele>
        <time>2023-02-08T14:53:37Z</time>
      </trkpt>
      <trkpt lat="49.79525" lon="2.17794">
        <ele>86.6</ele>
        <time>2023-02-08T14:53:38Z</time>
      </trkpt>
      <trkpt lat="49.79524" lon="2.17798">
        <ele>86.5</ele>
        <time>2023-02-08T14:53:39Z</time>
      </trkpt>
      <trkpt lat="49.79524" lon="2.17799">
        <ele>86.5</ele>
        <time>2023-02-08T14:53:41Z</time>
      </trkpt>
      <trkpt lat="49.79524" lon="2.17801">
        <ele>86.4</ele>
        <time>2023-02-08T14:53:42Z</time>
      </trkpt>
      <trkpt lat="49.79523" lon="2.17802">
        <ele>86.4</ele>
        <time>2023-02-08T14:53:43Z</time>
      </trkpt>
      <trkpt lat="49.79523" lon="2.17804">
        <ele>86.4</ele>
        <time>2023-02-08T14:53:44Z</time>
      </trkpt>
      <trkpt lat="49.79523" lon="2.17805">
        <ele>86.3</ele>
        <time>2023-02-08T14:53:45Z</time>
      </trkpt>
      <trkpt lat="49.79522" lon="2.17807">
        <ele>86.3</ele>
        <time>2023-02-08T14:53:46Z</time>
      </trkpt>
      <trkpt lat="49.79522" lon="2.17809">
        <ele>86.2</ele>
        <time>2023-02-08T14:53:48Z</time>
      </trkpt>
      <trkpt lat="49.79521" lon="2.1781">
        <ele>86.2</ele>
        <time>2023-02-08T14:53:49Z</time>
      </trkpt>
      <trkpt lat="49.79521" lon="2.17811">
        <ele>86.1</ele>
        <time>2023-02-08T14:53:50Z</time>
      </trkpt>
      <trkpt lat="49.7952" lon="2.17812">
        <ele>86.1</ele>
        <time>2023-02-08T14:53:51Z</time>
      </trkpt>
      <trkpt lat="49.79519" lon="2.17813">
        <ele>86.1</ele>
        <time>2023-02-08T14:53:52Z</time>
      </trkpt>
      <trkpt lat="49.79519" lon="2.17814">
        <ele>86</ele>
        <time>2023-02-08T14:53:53Z</time>
      </trkpt>
      <trkpt lat="49.79518" lon="2.17815">
        <ele>86</ele>
        <time>2023-02-08T14:53:54Z</time>
      </trkpt>
      <trkpt lat="49.79517" lon="2.17817">
        <ele>85.9</ele>
        <time>2023-02-08T14:53:55Z</time>
      </trkpt>
      <trkpt lat="49.79517" lon="2.17819">
        <ele>85.9</ele>
        <time>2023-02-08T14:53:56Z</time>
      </trkpt>
      <trkpt lat="49.79516" lon="2.17821">
        <ele>85.8</ele>
        <time>2023-02-08T14:53:58Z</time>
      </trkpt>
      <trkpt lat="49.79515" lon="2.17823">
        <ele>85.8</ele>
        <time>2023-02-08T14:53:59Z</time>
      </trkpt>
      <trkpt lat="49.79515" lon="2.17826">
        <ele>85.7</ele>
        <time>2023-02-08T14:54:00Z</time>
      </trkpt>
      <trkpt lat="49.79514" lon="2.17829">
        <ele>85.6</ele>
        <time>2023-02-08T14:54:01Z</time>
      </trkpt>
      <trkpt lat="49.79513" lon="2.1783">
        <ele>85.6</ele>
        <time>2023-02-08T14:54:02Z</time>
      </trkpt>
      <trkpt lat="49.79512" lon="2.17833">
        <ele>85.5</ele>
        <time>2023-02-08T14:54:03Z</time>
      </trkpt>
      <trkpt lat="49.79511" lon="2.17834">
        <ele>85.4</ele>
        <time>2023-02-08T14:54:04Z</time>
      </trkpt>
      <trkpt lat="49.7951" lon="2.17835">
        <ele>85.4</ele>
        <time>2023-02-08T14:54:05Z</time>
      </trkpt>
      <trkpt lat="49.79509" lon="2.17836">
        <ele>85.4</ele>
        <time>2023-02-08T14:54:06Z</time>
      </trkpt>
      <trkpt lat="49.79508" lon="2.17838">
        <ele>85.3</ele>
        <time>2023-02-08T14:54:08Z</time>
      </trkpt>
      <trkpt lat="49.79507" lon="2.17839">
        <ele>85.2</ele>
        <time>2023-02-08T14:54:09Z</time>
      </trkpt>
      <trkpt lat="49.79506" lon="2.17841">
        <ele>85.2</ele>
        <time>2023-02-08T14:54:10Z</time>
      </trkpt>
      <trkpt lat="49.79505" lon="2.17844">
        <ele>85.1</ele>
        <time>2023-02-08T14:54:11Z</time>
      </trkpt>
      <trkpt lat="49.79505" lon="2.17846">
        <ele>85.1</ele>
        <time>2023-02-08T14:54:12Z</time>
      </trkpt>
      <trkpt lat="49.79504" lon="2.17849">
        <ele>85</ele>
        <time>2023-02-08T14:54:13Z</time>
      </trkpt>
      <trkpt lat="49.79503" lon="2.1785">
        <ele>85</ele>
        <time>2023-02-08T14:54:14Z</time>
      </trkpt>
      <trkpt lat="49.79503" lon="2.17851">
        <ele>84.9</ele>
        <time>2023-02-08T14:54:15Z</time>
      </trkpt>
      <trkpt lat="49.79502" lon="2.17853">
        <ele>84.9</ele>
        <time>2023-02-08T14:54:16Z</time>
      </trkpt>
      <trkpt lat="49.79501" lon="2.17855">
        <ele>84.8</ele>
        <time>2023-02-08T14:54:17Z</time>
      </trkpt>
      <trkpt lat="49.795" lon="2.17857">
        <ele>84.8</ele>
        <time>2023-02-08T14:54:18Z</time>
      </trkpt>
      <trkpt lat="49.79499" lon="2.17858">
        <ele>84.7</ele>
        <time>2023-02-08T14:54:20Z</time>
      </trkpt>
      <trkpt lat="49.79499" lon="2.1786">
        <ele>84.7</ele>
        <time>2023-02-08T14:54:21Z</time>
      </trkpt>
      <trkpt lat="49.79498" lon="2.17862">
        <ele>84.7</ele>
        <time>2023-02-08T14:54:22Z</time>
      </trkpt>
      <trkpt lat="49.79497" lon="2.17865">
        <ele>84.6</ele>
        <time>2023-02-08T14:54:23Z</time>
      </trkpt>
      <trkpt lat="49.79497" lon="2.17867">
        <ele>84.6</ele>
        <time>2023-02-08T14:54:24Z</time>
      </trkpt>
      <trkpt lat="49.79496" lon="2.17868">
        <ele>84.6</ele>
        <time>2023-02-08T14:54:26Z</time>
      </trkpt>
      <trkpt lat="49.79496" lon="2.1787">
        <ele>84.6</ele>
        <time>2023-02-08T14:54:27Z</time>
      </trkpt>
      <trkpt lat="49.79495" lon="2.17871">
        <ele>84.5</ele>
        <time>2023-02-08T14:54:28Z</time>
      </trkpt>
      <trkpt lat="49.79495" lon="2.17872">
        <ele>84.5</ele>
        <time>2023-02-08T14:54:29Z</time>
      </trkpt>
      <trkpt lat="49.79494" lon="2.17874">
        <ele>84.4</ele>
        <time>2023-02-08T14:54:30Z</time>
      </trkpt>
      <trkpt lat="49.79493" lon="2.17876">
        <ele>84.4</ele>
        <time>2023-02-08T14:54:31Z</time>
      </trkpt>
      <trkpt lat="49.79493" lon="2.17878">
        <ele>84.3</ele>
        <time>2023-02-08T14:54:33Z</time>
      </trkpt>
      <trkpt lat="49.79492" lon="2.17879">
        <ele>84.3</ele>
        <time>2023-02-08T14:54:34Z</time>
      </trkpt>
      <trkpt lat="49.79491" lon="2.17881">
        <ele>84.3</ele>
        <time>2023-02-08T14:54:35Z</time>
      </trkpt>
      <trkpt lat="49.79491" lon="2.17883">
        <ele>84.2</ele>
        <time>2023-02-08T14:54:36Z</time>
      </trkpt>
      <trkpt lat="49.7949" lon="2.17884">
        <ele>84.2</ele>
        <time>2023-02-08T14:54:37Z</time>
      </trkpt>
      <trkpt lat="49.7949" lon="2.17886">
        <ele>84.2</ele>
        <time>2023-02-08T14:54:38Z</time>
      </trkpt>
      <trkpt lat="49.79489" lon="2.17887">
        <ele>84.1</ele>
        <time>2023-02-08T14:54:39Z</time>
      </trkpt>
      <trkpt lat="49.79489" lon="2.17888">
        <ele>84.1</ele>
        <time>2023-02-08T14:54:40Z</time>
      </trkpt>
      <trkpt lat="49.79488" lon="2.1789">
        <ele>84</ele>
        <time>2023-02-08T14:54:41Z</time>
      </trkpt>
      <trkpt lat="49.79487" lon="2.17891">
        <ele>84</ele>
        <time>2023-02-08T14:54:42Z</time>
      </trkpt>
      <trkpt lat="49.79487" lon="2.17893">
        <ele>84</ele>
        <time>2023-02-08T14:54:43Z</time>
      </trkpt>
      <trkpt lat="49.79486" lon="2.17894">
        <ele>83.9</ele>
        <time>2023-02-08T14:54:44Z</time>
      </trkpt>
      <trkpt lat="49.79485" lon="2.17896">
        <ele>83.9</ele>
        <time>2023-02-08T14:54:46Z</time>
      </trkpt>
      <trkpt lat="49.79484" lon="2.17899">
        <ele>83.8</ele>
        <time>2023-02-08T14:54:47Z</time>
      </trkpt>
      <trkpt lat="49.79483" lon="2.179">
        <ele>83.7</ele>
        <time>2023-02-08T14:54:48Z</time>
      </trkpt>
      <trkpt lat="49.79483" lon="2.17901">
        <ele>83.7</ele>
        <time>2023-02-08T14:54:49Z</time>
      </trkpt>
      <trkpt lat="49.79482" lon="2.17904">
        <ele>83.7</ele>
        <time>2023-02-08T14:54:50Z</time>
      </trkpt>
      <trkpt lat="49.79481" lon="2.17905">
        <ele>83.6</ele>
        <time>2023-02-08T14:54:51Z</time>
      </trkpt>
      <trkpt lat="49.79481" lon="2.17906">
        <ele>83.6</ele>
        <time>2023-02-08T14:54:52Z</time>
      </trkpt>
      <trkpt lat="49.7948" lon="2.17908">
        <ele>83.5</ele>
        <time>2023-02-08T14:54:53Z</time>
      </trkpt>
      <trkpt lat="49.79479" lon="2.17909">
        <ele>83.5</ele>
        <time>2023-02-08T14:54:55Z</time>
      </trkpt>
      <trkpt lat="49.79478" lon="2.17912">
        <ele>83.4</ele>
        <time>2023-02-08T14:54:56Z</time>
      </trkpt>
      <trkpt lat="49.79477" lon="2.17913">
        <ele>83.4</ele>
        <time>2023-02-08T14:54:57Z</time>
      </trkpt>
      <trkpt lat="49.79477" lon="2.17914">
        <ele>83.3</ele>
        <time>2023-02-08T14:54:58Z</time>
      </trkpt>
      <trkpt lat="49.79476" lon="2.17917">
        <ele>83.3</ele>
        <time>2023-02-08T14:54:59Z</time>
      </trkpt>
      <trkpt lat="49.79475" lon="2.17918">
        <ele>83.2</ele>
        <time>2023-02-08T14:55:00Z</time>
      </trkpt>
      <trkpt lat="49.79474" lon="2.17922">
        <ele>83.1</ele>
        <time>2023-02-08T14:55:01Z</time>
      </trkpt>
      <trkpt lat="49.79474" lon="2.17923">
        <ele>83</ele>
        <time>2023-02-08T14:55:03Z</time>
      </trkpt>
      <trkpt lat="49.79473" lon="2.17925">
        <ele>83</ele>
        <time>2023-02-08T14:55:04Z</time>
      </trkpt>
      <trkpt lat="49.79473" lon="2.17926">
        <ele>83</ele>
        <time>2023-02-08T14:55:05Z</time>
      </trkpt>
      <trkpt lat="49.79472" lon="2.17927">
        <ele>82.9</ele>
        <time>2023-02-08T14:55:06Z</time>
      </trkpt>
      <trkpt lat="49.79472" lon="2.17929">
        <ele>82.8</ele>
        <time>2023-02-08T14:55:07Z</time>
      </trkpt>
      <trkpt lat="49.79471" lon="2.1793">
        <ele>82.8</ele>
        <time>2023-02-08T14:55:08Z</time>
      </trkpt>
      <trkpt lat="49.7947" lon="2.17932">
        <ele>82.7</ele>
        <time>2023-02-08T14:55:09Z</time>
      </trkpt>
      <trkpt lat="49.7947" lon="2.17933">
        <ele>82.7</ele>
        <time>2023-02-08T14:55:10Z</time>
      </trkpt>
      <trkpt lat="49.79469" lon="2.17935">
        <ele>82.6</ele>
        <time>2023-02-08T14:55:11Z</time>
      </trkpt>
      <trkpt lat="49.79469" lon="2.17936">
        <ele>82.6</ele>
        <time>2023-02-08T14:55:12Z</time>
      </trkpt>
      <trkpt lat="49.79468" lon="2.17938">
        <ele>82.5</ele>
        <time>2023-02-08T14:55:14Z</time>
      </trkpt>
      <trkpt lat="49.79467" lon="2.1794">
        <ele>82.5</ele>
        <time>2023-02-08T14:55:15Z</time>
      </trkpt>
      <trkpt lat="49.79466" lon="2.17942">
        <ele>82.4</ele>
        <time>2023-02-08T14:55:16Z</time>
      </trkpt>
      <trkpt lat="49.79465" lon="2.17943">
        <ele>82.3</ele>
        <time>2023-02-08T14:55:17Z</time>
      </trkpt>
      <trkpt lat="49.79464" lon="2.17945">
        <ele>82.3</ele>
        <time>2023-02-08T14:55:18Z</time>
      </trkpt>
      <trkpt lat="49.79463" lon="2.17947">
        <ele>82.2</ele>
        <time>2023-02-08T14:55:19Z</time>
      </trkpt>
      <trkpt lat="49.79462" lon="2.17949">
        <ele>82.1</ele>
        <time>2023-02-08T14:55:20Z</time>
      </trkpt>
      <trkpt lat="49.79461" lon="2.17952">
        <ele>82</ele>
        <time>2023-02-08T14:55:21Z</time>
      </trkpt>
      <trkpt lat="49.79461" lon="2.17953">
        <ele>82</ele>
        <time>2023-02-08T14:55:22Z</time>
      </trkpt>
      <trkpt lat="49.7946" lon="2.17954">
        <ele>81.9</ele>
        <time>2023-02-08T14:55:23Z</time>
      </trkpt>
      <trkpt lat="49.79459" lon="2.17955">
        <ele>81.9</ele>
        <time>2023-02-08T14:55:25Z</time>
      </trkpt>
      <trkpt lat="49.79459" lon="2.17957">
        <ele>81.8</ele>
        <time>2023-02-08T14:55:26Z</time>
      </trkpt>
      <trkpt lat="49.79458" lon="2.1796">
        <ele>81.7</ele>
        <time>2023-02-08T14:55:27Z</time>
      </trkpt>
      <trkpt lat="49.79457" lon="2.17961">
        <ele>81.6</ele>
        <time>2023-02-08T14:55:28Z</time>
      </trkpt>
      <trkpt lat="49.79457" lon="2.17962">
        <ele>81.6</ele>
        <time>2023-02-08T14:55:29Z</time>
      </trkpt>
      <trkpt lat="49.79456" lon="2.17964">
        <ele>81.6</ele>
        <time>2023-02-08T14:55:30Z</time>
      </trkpt>
      <trkpt lat="49.79456" lon="2.17966">
        <ele>81.5</ele>
        <time>2023-02-08T14:55:31Z</time>
      </trkpt>
      <trkpt lat="49.79455" lon="2.17968">
        <ele>81.5</ele>
        <time>2023-02-08T14:55:32Z</time>
      </trkpt>
      <trkpt lat="49.79454" lon="2.1797">
        <ele>81.4</ele>
        <time>2023-02-08T14:55:33Z</time>
      </trkpt>
      <trkpt lat="49.79454" lon="2.17971">
        <ele>81.4</ele>
        <time>2023-02-08T14:55:34Z</time>
      </trkpt>
      <trkpt lat="49.79453" lon="2.17973">
        <ele>81.3</ele>
        <time>2023-02-08T14:55:35Z</time>
      </trkpt>
      <trkpt lat="49.79452" lon="2.17976">
        <ele>81.2</ele>
        <time>2023-02-08T14:55:36Z</time>
      </trkpt>
      <trkpt lat="49.79451" lon="2.17977">
        <ele>81.2</ele>
        <time>2023-02-08T14:55:37Z</time>
      </trkpt>
      <trkpt lat="49.7945" lon="2.17979">
        <ele>81.1</ele>
        <time>2023-02-08T14:55:39Z</time>
      </trkpt>
      <trkpt lat="49.79449" lon="2.17981">
        <ele>81</ele>
        <time>2023-02-08T14:55:40Z</time>
      </trkpt>
      <trkpt lat="49.79448" lon="2.17983">
        <ele>81</ele>
        <time>2023-02-08T14:55:41Z</time>
      </trkpt>
      <trkpt lat="49.79448" lon="2.17984">
        <ele>80.9</ele>
        <time>2023-02-08T14:55:42Z</time>
      </trkpt>
      <trkpt lat="49.79446" lon="2.17987">
        <ele>80.8</ele>
        <time>2023-02-08T14:55:43Z</time>
      </trkpt>
      <trkpt lat="49.79446" lon="2.17989">
        <ele>80.8</ele>
        <time>2023-02-08T14:55:44Z</time>
      </trkpt>
      <trkpt lat="49.79445" lon="2.1799">
        <ele>80.7</ele>
        <time>2023-02-08T14:55:45Z</time>
      </trkpt>
      <trkpt lat="49.79444" lon="2.17993">
        <ele>80.7</ele>
        <time>2023-02-08T14:55:46Z</time>
      </trkpt>
      <trkpt lat="49.79444" lon="2.17994">
        <ele>80.6</ele>
        <time>2023-02-08T14:55:48Z</time>
      </trkpt>
      <trkpt lat="49.79443" lon="2.17995">
        <ele>80.6</ele>
        <time>2023-02-08T14:55:49Z</time>
      </trkpt>
      <trkpt lat="49.79443" lon="2.17997">
        <ele>80.5</ele>
        <time>2023-02-08T14:55:50Z</time>
      </trkpt>
      <trkpt lat="49.79442" lon="2.17999">
        <ele>80.5</ele>
        <time>2023-02-08T14:55:51Z</time>
      </trkpt>
      <trkpt lat="49.79441" lon="2.18001">
        <ele>80.4</ele>
        <time>2023-02-08T14:55:52Z</time>
      </trkpt>
      <trkpt lat="49.7944" lon="2.18002">
        <ele>80.3</ele>
        <time>2023-02-08T14:55:53Z</time>
      </trkpt>
      <trkpt lat="49.79439" lon="2.18005">
        <ele>80.2</ele>
        <time>2023-02-08T14:55:55Z</time>
      </trkpt>
      <trkpt lat="49.79439" lon="2.18006">
        <ele>80.2</ele>
        <time>2023-02-08T14:55:56Z</time>
      </trkpt>
      <trkpt lat="49.79438" lon="2.18007">
        <ele>80.2</ele>
        <time>2023-02-08T14:55:57Z</time>
      </trkpt>
      <trkpt lat="49.79438" lon="2.18009">
        <ele>80.1</ele>
        <time>2023-02-08T14:55:58Z</time>
      </trkpt>
      <trkpt lat="49.79437" lon="2.1801">
        <ele>80.1</ele>
        <time>2023-02-08T14:55:59Z</time>
      </trkpt>
      <trkpt lat="49.79436" lon="2.18011">
        <ele>80</ele>
        <time>2023-02-08T14:56:00Z</time>
      </trkpt>
      <trkpt lat="49.79435" lon="2.18013">
        <ele>80</ele>
        <time>2023-02-08T14:56:01Z</time>
      </trkpt>
      <trkpt lat="49.79435" lon="2.18014">
        <ele>79.9</ele>
        <time>2023-02-08T14:56:02Z</time>
      </trkpt>
      <trkpt lat="49.79434" lon="2.18015">
        <ele>79.9</ele>
        <time>2023-02-08T14:56:03Z</time>
      </trkpt>
      <trkpt lat="49.79432" lon="2.18018">
        <ele>79.8</ele>
        <time>2023-02-08T14:56:04Z</time>
      </trkpt>
      <trkpt lat="49.79432" lon="2.18019">
        <ele>79.8</ele>
        <time>2023-02-08T14:56:05Z</time>
      </trkpt>
      <trkpt lat="49.79431" lon="2.1802">
        <ele>79.7</ele>
        <time>2023-02-08T14:56:06Z</time>
      </trkpt>
      <trkpt lat="49.7943" lon="2.18022">
        <ele>79.7</ele>
        <time>2023-02-08T14:56:08Z</time>
      </trkpt>
      <trkpt lat="49.79429" lon="2.18023">
        <ele>79.6</ele>
        <time>2023-02-08T14:56:09Z</time>
      </trkpt>
      <trkpt lat="49.79428" lon="2.18025">
        <ele>79.6</ele>
        <time>2023-02-08T14:56:10Z</time>
      </trkpt>
      <trkpt lat="49.79427" lon="2.18026">
        <ele>79.5</ele>
        <time>2023-02-08T14:56:11Z</time>
      </trkpt>
      <trkpt lat="49.79426" lon="2.18029">
        <ele>79.5</ele>
        <time>2023-02-08T14:56:12Z</time>
      </trkpt>
      <trkpt lat="49.79425" lon="2.1803">
        <ele>79.4</ele>
        <time>2023-02-08T14:56:13Z</time>
      </trkpt>
      <trkpt lat="49.79425" lon="2.18031">
        <ele>79.4</ele>
        <time>2023-02-08T14:56:14Z</time>
      </trkpt>
      <trkpt lat="49.79424" lon="2.18032">
        <ele>79.3</ele>
        <time>2023-02-08T14:56:15Z</time>
      </trkpt>
      <trkpt lat="49.79423" lon="2.18033">
        <ele>79.3</ele>
        <time>2023-02-08T14:56:16Z</time>
      </trkpt>
      <trkpt lat="49.79422" lon="2.18034">
        <ele>79.3</ele>
        <time>2023-02-08T14:56:18Z</time>
      </trkpt>
      <trkpt lat="49.7942" lon="2.18036">
        <ele>79.2</ele>
        <time>2023-02-08T14:56:19Z</time>
      </trkpt>
      <trkpt lat="49.79419" lon="2.18037">
        <ele>79.1</ele>
        <time>2023-02-08T14:56:20Z</time>
      </trkpt>
      <trkpt lat="49.79418" lon="2.18038">
        <ele>79.1</ele>
        <time>2023-02-08T14:56:21Z</time>
      </trkpt>
      <trkpt lat="49.79417" lon="2.18039">
        <ele>79</ele>
        <time>2023-02-08T14:56:22Z</time>
      </trkpt>
      <trkpt lat="49.79416" lon="2.1804">
        <ele>79</ele>
        <time>2023-02-08T14:56:23Z</time>
      </trkpt>
      <trkpt lat="49.79415" lon="2.18042">
        <ele>78.9</ele>
        <time>2023-02-08T14:56:24Z</time>
      </trkpt>
      <trkpt lat="49.79413" lon="2.18043">
        <ele>78.9</ele>
        <time>2023-02-08T14:56:26Z</time>
      </trkpt>
      <trkpt lat="49.79412" lon="2.18044">
        <ele>78.8</ele>
        <time>2023-02-08T14:56:27Z</time>
      </trkpt>
      <trkpt lat="49.79411" lon="2.18045">
        <ele>78.8</ele>
        <time>2023-02-08T14:56:28Z</time>
      </trkpt>
      <trkpt lat="49.7941" lon="2.18046">
        <ele>78.8</ele>
        <time>2023-02-08T14:56:29Z</time>
      </trkpt>
      <trkpt lat="49.79409" lon="2.18046">
        <ele>78.7</ele>
        <time>2023-02-08T14:56:30Z</time>
      </trkpt>
      <trkpt lat="49.79408" lon="2.18047">
        <ele>78.7</ele>
        <time>2023-02-08T14:56:31Z</time>
      </trkpt>
      <trkpt lat="49.79407" lon="2.18048">
        <ele>78.7</ele>
        <time>2023-02-08T14:56:33Z</time>
      </trkpt>
      <trkpt lat="49.79407" lon="2.18048">
        <ele>78.6</ele>
        <time>2023-02-08T14:56:34Z</time>
      </trkpt>
      <trkpt lat="49.79406" lon="2.18049">
        <ele>78.6</ele>
        <time>2023-02-08T14:56:35Z</time>
      </trkpt>
      <trkpt lat="49.79404" lon="2.1805">
        <ele>78.5</ele>
        <time>2023-02-08T14:56:36Z</time>
      </trkpt>
      <trkpt lat="49.79403" lon="2.18052">
        <ele>78.5</ele>
        <time>2023-02-08T14:56:37Z</time>
      </trkpt>
      <trkpt lat="49.79402" lon="2.18053">
        <ele>78.4</ele>
        <time>2023-02-08T14:56:38Z</time>
      </trkpt>
      <trkpt lat="49.79401" lon="2.18053">
        <ele>78.4</ele>
        <time>2023-02-08T14:56:39Z</time>
      </trkpt>
      <trkpt lat="49.79399" lon="2.18055">
        <ele>78.3</ele>
        <time>2023-02-08T14:56:41Z</time>
      </trkpt>
      <trkpt lat="49.79398" lon="2.18056">
        <ele>78.3</ele>
        <time>2023-02-08T14:56:42Z</time>
      </trkpt>
      <trkpt lat="49.79398" lon="2.18057">
        <ele>78.2</ele>
        <time>2023-02-08T14:56:43Z</time>
      </trkpt>
      <trkpt lat="49.79396" lon="2.18058">
        <ele>78.2</ele>
        <time>2023-02-08T14:56:44Z</time>
      </trkpt>
      <trkpt lat="49.79395" lon="2.18059">
        <ele>78.1</ele>
        <time>2023-02-08T14:56:45Z</time>
      </trkpt>
      <trkpt lat="49.79394" lon="2.1806">
        <ele>78.1</ele>
        <time>2023-02-08T14:56:46Z</time>
      </trkpt>
      <trkpt lat="49.79393" lon="2.18061">
        <ele>78</ele>
        <time>2023-02-08T14:56:47Z</time>
      </trkpt>
      <trkpt lat="49.79392" lon="2.18063">
        <ele>78</ele>
        <time>2023-02-08T14:56:49Z</time>
      </trkpt>
      <trkpt lat="49.79391" lon="2.18064">
        <ele>77.9</ele>
        <time>2023-02-08T14:56:50Z</time>
      </trkpt>
      <trkpt lat="49.7939" lon="2.18066">
        <ele>77.8</ele>
        <time>2023-02-08T14:56:51Z</time>
      </trkpt>
      <trkpt lat="49.79388" lon="2.18068">
        <ele>77.8</ele>
        <time>2023-02-08T14:56:52Z</time>
      </trkpt>
      <trkpt lat="49.79388" lon="2.18069">
        <ele>77.7</ele>
        <time>2023-02-08T14:56:53Z</time>
      </trkpt>
      <trkpt lat="49.79387" lon="2.1807">
        <ele>77.7</ele>
        <time>2023-02-08T14:56:54Z</time>
      </trkpt>
      <trkpt lat="49.79385" lon="2.18072">
        <ele>77.6</ele>
        <time>2023-02-08T14:56:56Z</time>
      </trkpt>
      <trkpt lat="49.79385" lon="2.18073">
        <ele>77.6</ele>
        <time>2023-02-08T14:56:57Z</time>
      </trkpt>
      <trkpt lat="49.79384" lon="2.18074">
        <ele>77.5</ele>
        <time>2023-02-08T14:56:58Z</time>
      </trkpt>
      <trkpt lat="49.79383" lon="2.18074">
        <ele>77.5</ele>
        <time>2023-02-08T14:56:59Z</time>
      </trkpt>
      <trkpt lat="49.79381" lon="2.18074">
        <ele>77.4</ele>
        <time>2023-02-08T14:57:00Z</time>
      </trkpt>
      <trkpt lat="49.7938" lon="2.18075">
        <ele>77.3</ele>
        <time>2023-02-08T14:57:01Z</time>
      </trkpt>
      <trkpt lat="49.79378" lon="2.18075">
        <ele>77.2</ele>
        <time>2023-02-08T14:57:02Z</time>
      </trkpt>
      <trkpt lat="49.79377" lon="2.18075">
        <ele>77.2</ele>
        <time>2023-02-08T14:57:03Z</time>
      </trkpt>
      <trkpt lat="49.79374" lon="2.18077">
        <ele>77.1</ele>
        <time>2023-02-08T14:57:05Z</time>
      </trkpt>
      <trkpt lat="49.79372" lon="2.18077">
        <ele>77</ele>
        <time>2023-02-08T14:57:07Z</time>
      </trkpt>
      <trkpt lat="49.79372" lon="2.18078">
        <ele>76.9</ele>
        <time>2023-02-08T14:57:08Z</time>
      </trkpt>
      <trkpt lat="49.79371" lon="2.18078">
        <ele>76.9</ele>
        <time>2023-02-08T14:57:09Z</time>
      </trkpt>
      <trkpt lat="49.7937" lon="2.18079">
        <ele>76.8</ele>
        <time>2023-02-08T14:57:10Z</time>
      </trkpt>
      <trkpt lat="49.79368" lon="2.1808">
        <ele>76.7</ele>
        <time>2023-02-08T14:57:12Z</time>
      </trkpt>
      <trkpt lat="49.79367" lon="2.1808">
        <ele>76.7</ele>
        <time>2023-02-08T14:57:13Z</time>
      </trkpt>
      <trkpt lat="49.79365" lon="2.18081">
        <ele>76.6</ele>
        <time>2023-02-08T14:57:14Z</time>
      </trkpt>
      <trkpt lat="49.79364" lon="2.18083">
        <ele>76.5</ele>
        <time>2023-02-08T14:57:15Z</time>
      </trkpt>
      <trkpt lat="49.79362" lon="2.18084">
        <ele>76.4</ele>
        <time>2023-02-08T14:57:16Z</time>
      </trkpt>
      <trkpt lat="49.79361" lon="2.18085">
        <ele>76.3</ele>
        <time>2023-02-08T14:57:17Z</time>
      </trkpt>
      <trkpt lat="49.7936" lon="2.18086">
        <ele>76.2</ele>
        <time>2023-02-08T14:57:18Z</time>
      </trkpt>
      <trkpt lat="49.79358" lon="2.18087">
        <ele>76.1</ele>
        <time>2023-02-08T14:57:19Z</time>
      </trkpt>
      <trkpt lat="49.79357" lon="2.18088">
        <ele>76</ele>
        <time>2023-02-08T14:57:21Z</time>
      </trkpt>
      <trkpt lat="49.79356" lon="2.18088">
        <ele>76</ele>
        <time>2023-02-08T14:57:22Z</time>
      </trkpt>
      <trkpt lat="49.79355" lon="2.18089">
        <ele>75.9</ele>
        <time>2023-02-08T14:57:23Z</time>
      </trkpt>
      <trkpt lat="49.79354" lon="2.1809">
        <ele>75.8</ele>
        <time>2023-02-08T14:57:24Z</time>
      </trkpt>
      <trkpt lat="49.79352" lon="2.18091">
        <ele>75.7</ele>
        <time>2023-02-08T14:57:25Z</time>
      </trkpt>
      <trkpt lat="49.79351" lon="2.18092">
        <ele>75.6</ele>
        <time>2023-02-08T14:57:26Z</time>
      </trkpt>
      <trkpt lat="49.7935" lon="2.18093">
        <ele>75.5</ele>
        <time>2023-02-08T14:57:28Z</time>
      </trkpt>
      <trkpt lat="49.79348" lon="2.18094">
        <ele>75.4</ele>
        <time>2023-02-08T14:57:29Z</time>
      </trkpt>
      <trkpt lat="49.79347" lon="2.18095">
        <ele>75.4</ele>
        <time>2023-02-08T14:57:30Z</time>
      </trkpt>
      <trkpt lat="49.79346" lon="2.18097">
        <ele>75.3</ele>
        <time>2023-02-08T14:57:31Z</time>
      </trkpt>
      <trkpt lat="49.79344" lon="2.181">
        <ele>75.1</ele>
        <time>2023-02-08T14:57:32Z</time>
      </trkpt>
      <trkpt lat="49.79344" lon="2.18101">
        <ele>75.1</ele>
        <time>2023-02-08T14:57:34Z</time>
      </trkpt>
      <trkpt lat="49.79343" lon="2.18102">
        <ele>75</ele>
        <time>2023-02-08T14:57:36Z</time>
      </trkpt>
      <trkpt lat="49.79342" lon="2.18104">
        <ele>74.9</ele>
        <time>2023-02-08T14:57:37Z</time>
      </trkpt>
      <trkpt lat="49.79341" lon="2.18105">
        <ele>74.8</ele>
        <time>2023-02-08T14:57:38Z</time>
      </trkpt>
      <trkpt lat="49.7934" lon="2.18106">
        <ele>74.8</ele>
        <time>2023-02-08T14:57:39Z</time>
      </trkpt>
      <trkpt lat="49.79339" lon="2.18108">
        <ele>74.7</ele>
        <time>2023-02-08T14:57:40Z</time>
      </trkpt>
      <trkpt lat="49.79338" lon="2.18108">
        <ele>74.6</ele>
        <time>2023-02-08T14:57:41Z</time>
      </trkpt>
      <trkpt lat="49.79338" lon="2.1811">
        <ele>74.6</ele>
        <time>2023-02-08T14:57:42Z</time>
      </trkpt>
      <trkpt lat="49.79337" lon="2.18111">
        <ele>74.5</ele>
        <time>2023-02-08T14:57:43Z</time>
      </trkpt>
      <trkpt lat="49.79336" lon="2.18112">
        <ele>74.4</ele>
        <time>2023-02-08T14:57:44Z</time>
      </trkpt>
      <trkpt lat="49.79335" lon="2.18112">
        <ele>74.4</ele>
        <time>2023-02-08T14:57:46Z</time>
      </trkpt>
      <trkpt lat="49.79333" lon="2.18113">
        <ele>74.3</ele>
        <time>2023-02-08T14:57:47Z</time>
      </trkpt>
      <trkpt lat="49.79331" lon="2.18115">
        <ele>74.1</ele>
        <time>2023-02-08T14:57:48Z</time>
      </trkpt>
      <trkpt lat="49.79331" lon="2.18116">
        <ele>74.1</ele>
        <time>2023-02-08T14:57:49Z</time>
      </trkpt>
      <trkpt lat="49.7933" lon="2.18117">
        <ele>74</ele>
        <time>2023-02-08T14:57:50Z</time>
      </trkpt>
      <trkpt lat="49.79328" lon="2.18119">
        <ele>73.9</ele>
        <time>2023-02-08T14:57:51Z</time>
      </trkpt>
      <trkpt lat="49.79327" lon="2.18119">
        <ele>73.8</ele>
        <time>2023-02-08T14:57:52Z</time>
      </trkpt>
      <trkpt lat="49.79327" lon="2.1812">
        <ele>73.8</ele>
        <time>2023-02-08T14:57:53Z</time>
      </trkpt>
      <trkpt lat="49.79326" lon="2.18121">
        <ele>73.7</ele>
        <time>2023-02-08T14:57:54Z</time>
      </trkpt>
      <trkpt lat="49.79324" lon="2.18122">
        <ele>73.6</ele>
        <time>2023-02-08T14:57:55Z</time>
      </trkpt>
      <trkpt lat="49.79323" lon="2.18123">
        <ele>73.5</ele>
        <time>2023-02-08T14:57:57Z</time>
      </trkpt>
      <trkpt lat="49.79322" lon="2.18125">
        <ele>73.4</ele>
        <time>2023-02-08T14:57:58Z</time>
      </trkpt>
      <trkpt lat="49.79321" lon="2.18125">
        <ele>73.3</ele>
        <time>2023-02-08T14:57:59Z</time>
      </trkpt>
      <trkpt lat="49.7932" lon="2.18126">
        <ele>73.3</ele>
        <time>2023-02-08T14:58:00Z</time>
      </trkpt>
      <trkpt lat="49.79319" lon="2.18128">
        <ele>73.2</ele>
        <time>2023-02-08T14:58:01Z</time>
      </trkpt>
      <trkpt lat="49.79317" lon="2.18129">
        <ele>73.1</ele>
        <time>2023-02-08T14:58:02Z</time>
      </trkpt>
      <trkpt lat="49.79316" lon="2.1813">
        <ele>73</ele>
        <time>2023-02-08T14:58:03Z</time>
      </trkpt>
      <trkpt lat="49.79315" lon="2.18131">
        <ele>72.9</ele>
        <time>2023-02-08T14:58:04Z</time>
      </trkpt>
      <trkpt lat="49.79314" lon="2.18133">
        <ele>72.8</ele>
        <time>2023-02-08T14:58:05Z</time>
      </trkpt>
      <trkpt lat="49.79313" lon="2.18134">
        <ele>72.7</ele>
        <time>2023-02-08T14:58:06Z</time>
      </trkpt>
      <trkpt lat="49.79311" lon="2.18135">
        <ele>72.6</ele>
        <time>2023-02-08T14:58:08Z</time>
      </trkpt>
      <trkpt lat="49.7931" lon="2.18137">
        <ele>72.5</ele>
        <time>2023-02-08T14:58:09Z</time>
      </trkpt>
      <trkpt lat="49.79309" lon="2.18138">
        <ele>72.4</ele>
        <time>2023-02-08T14:58:10Z</time>
      </trkpt>
      <trkpt lat="49.79308" lon="2.18139">
        <ele>72.3</ele>
        <time>2023-02-08T14:58:11Z</time>
      </trkpt>
      <trkpt lat="49.79307" lon="2.1814">
        <ele>72.2</ele>
        <time>2023-02-08T14:58:12Z</time>
      </trkpt>
      <trkpt lat="49.79305" lon="2.18142">
        <ele>72.1</ele>
        <time>2023-02-08T14:58:13Z</time>
      </trkpt>
      <trkpt lat="49.79304" lon="2.18142">
        <ele>72</ele>
        <time>2023-02-08T14:58:15Z</time>
      </trkpt>
      <trkpt lat="49.79303" lon="2.18143">
        <ele>71.9</ele>
        <time>2023-02-08T14:58:16Z</time>
      </trkpt>
      <trkpt lat="49.79301" lon="2.18145">
        <ele>71.8</ele>
        <time>2023-02-08T14:58:17Z</time>
      </trkpt>
      <trkpt lat="49.793" lon="2.18145">
        <ele>71.7</ele>
        <time>2023-02-08T14:58:18Z</time>
      </trkpt>
      <trkpt lat="49.79299" lon="2.18146">
        <ele>71.6</ele>
        <time>2023-02-08T14:58:19Z</time>
      </trkpt>
      <trkpt lat="49.79298" lon="2.18146">
        <ele>71.6</ele>
        <time>2023-02-08T14:58:21Z</time>
      </trkpt>
      <trkpt lat="49.79297" lon="2.18147">
        <ele>71.5</ele>
        <time>2023-02-08T14:58:22Z</time>
      </trkpt>
      <trkpt lat="49.79295" lon="2.18148">
        <ele>71.4</ele>
        <time>2023-02-08T14:58:23Z</time>
      </trkpt>
      <trkpt lat="49.79294" lon="2.18149">
        <ele>71.2</ele>
        <time>2023-02-08T14:58:24Z</time>
      </trkpt>
      <trkpt lat="49.79292" lon="2.1815">
        <ele>71.1</ele>
        <time>2023-02-08T14:58:25Z</time>
      </trkpt>
      <trkpt lat="49.79291" lon="2.18151">
        <ele>71</ele>
        <time>2023-02-08T14:58:27Z</time>
      </trkpt>
      <trkpt lat="49.79289" lon="2.18152">
        <ele>70.8</ele>
        <time>2023-02-08T14:58:28Z</time>
      </trkpt>
      <trkpt lat="49.79288" lon="2.18153">
        <ele>70.7</ele>
        <time>2023-02-08T14:58:29Z</time>
      </trkpt>
      <trkpt lat="49.79286" lon="2.18155">
        <ele>70.6</ele>
        <time>2023-02-08T14:58:30Z</time>
      </trkpt>
      <trkpt lat="49.79285" lon="2.18156">
        <ele>70.5</ele>
        <time>2023-02-08T14:58:31Z</time>
      </trkpt>
      <trkpt lat="49.79284" lon="2.18157">
        <ele>70.4</ele>
        <time>2023-02-08T14:58:33Z</time>
      </trkpt>
      <trkpt lat="49.79283" lon="2.18158">
        <ele>70.3</ele>
        <time>2023-02-08T14:58:34Z</time>
      </trkpt>
      <trkpt lat="49.79281" lon="2.18159">
        <ele>70.2</ele>
        <time>2023-02-08T14:58:35Z</time>
      </trkpt>
      <trkpt lat="49.7928" lon="2.18161">
        <ele>70.1</ele>
        <time>2023-02-08T14:58:36Z</time>
      </trkpt>
      <trkpt lat="49.79279" lon="2.18162">
        <ele>70</ele>
        <time>2023-02-08T14:58:37Z</time>
      </trkpt>
      <trkpt lat="49.79278" lon="2.18163">
        <ele>69.9</ele>
        <time>2023-02-08T14:58:38Z</time>
      </trkpt>
      <trkpt lat="49.79276" lon="2.18165">
        <ele>69.7</ele>
        <time>2023-02-08T14:58:39Z</time>
      </trkpt>
      <trkpt lat="49.79275" lon="2.18165">
        <ele>69.6</ele>
        <time>2023-02-08T14:58:40Z</time>
      </trkpt>
      <trkpt lat="49.79274" lon="2.18166">
        <ele>69.6</ele>
        <time>2023-02-08T14:58:41Z</time>
      </trkpt>
      <trkpt lat="49.79272" lon="2.18167">
        <ele>69.4</ele>
        <time>2023-02-08T14:58:42Z</time>
      </trkpt>
      <trkpt lat="49.79271" lon="2.18168">
        <ele>69.3</ele>
        <time>2023-02-08T14:58:44Z</time>
      </trkpt>
      <trkpt lat="49.7927" lon="2.18169">
        <ele>69.2</ele>
        <time>2023-02-08T14:58:45Z</time>
      </trkpt>
      <trkpt lat="49.79269" lon="2.1817">
        <ele>69.1</ele>
        <time>2023-02-08T14:58:46Z</time>
      </trkpt>
      <trkpt lat="49.79268" lon="2.1817">
        <ele>69</ele>
        <time>2023-02-08T14:58:47Z</time>
      </trkpt>
      <trkpt lat="49.79267" lon="2.18171">
        <ele>68.9</ele>
        <time>2023-02-08T14:58:48Z</time>
      </trkpt>
      <trkpt lat="49.79266" lon="2.18172">
        <ele>68.8</ele>
        <time>2023-02-08T14:58:49Z</time>
      </trkpt>
      <trkpt lat="49.79264" lon="2.18173">
        <ele>68.7</ele>
        <time>2023-02-08T14:58:51Z</time>
      </trkpt>
      <trkpt lat="49.79263" lon="2.18174">
        <ele>68.6</ele>
        <time>2023-02-08T14:58:52Z</time>
      </trkpt>
      <trkpt lat="49.79262" lon="2.18175">
        <ele>68.5</ele>
        <time>2023-02-08T14:58:53Z</time>
      </trkpt>
      <trkpt lat="49.79261" lon="2.18175">
        <ele>68.4</ele>
        <time>2023-02-08T14:58:54Z</time>
      </trkpt>
      <trkpt lat="49.7926" lon="2.18176">
        <ele>68.3</ele>
        <time>2023-02-08T14:58:55Z</time>
      </trkpt>
      <trkpt lat="49.79258" lon="2.18178">
        <ele>68.2</ele>
        <time>2023-02-08T14:58:56Z</time>
      </trkpt>
      <trkpt lat="49.79257" lon="2.18179">
        <ele>68.1</ele>
        <time>2023-02-08T14:58:57Z</time>
      </trkpt>
      <trkpt lat="49.79257" lon="2.1818">
        <ele>68</ele>
        <time>2023-02-08T14:58:58Z</time>
      </trkpt>
      <trkpt lat="49.79255" lon="2.18182">
        <ele>67.9</ele>
        <time>2023-02-08T14:58:59Z</time>
      </trkpt>
      <trkpt lat="49.79254" lon="2.18182">
        <ele>67.8</ele>
        <time>2023-02-08T14:59:00Z</time>
      </trkpt>
      <trkpt lat="49.79254" lon="2.18183">
        <ele>67.7</ele>
        <time>2023-02-08T14:59:01Z</time>
      </trkpt>
      <trkpt lat="49.79252" lon="2.18185">
        <ele>67.6</ele>
        <time>2023-02-08T14:59:02Z</time>
      </trkpt>
      <trkpt lat="49.79251" lon="2.18186">
        <ele>67.5</ele>
        <time>2023-02-08T14:59:03Z</time>
      </trkpt>
      <trkpt lat="49.7925" lon="2.18186">
        <ele>67.4</ele>
        <time>2023-02-08T14:59:04Z</time>
      </trkpt>
      <trkpt lat="49.79249" lon="2.18188">
        <ele>67.3</ele>
        <time>2023-02-08T14:59:05Z</time>
      </trkpt>
      <trkpt lat="49.79248" lon="2.18189">
        <ele>67.2</ele>
        <time>2023-02-08T14:59:06Z</time>
      </trkpt>
      <trkpt lat="49.79246" lon="2.18191">
        <ele>67</ele>
        <time>2023-02-08T14:59:08Z</time>
      </trkpt>
      <trkpt lat="49.79246" lon="2.18192">
        <ele>67</ele>
        <time>2023-02-08T14:59:09Z</time>
      </trkpt>
      <trkpt lat="49.79245" lon="2.18192">
        <ele>66.9</ele>
        <time>2023-02-08T14:59:10Z</time>
      </trkpt>
      <trkpt lat="49.79243" lon="2.18194">
        <ele>66.7</ele>
        <time>2023-02-08T14:59:11Z</time>
      </trkpt>
      <trkpt lat="49.79243" lon="2.18195">
        <ele>66.7</ele>
        <time>2023-02-08T14:59:12Z</time>
      </trkpt>
      <trkpt lat="49.79242" lon="2.18196">
        <ele>66.6</ele>
        <time>2023-02-08T14:59:13Z</time>
      </trkpt>
      <trkpt lat="49.79242" lon="2.18198">
        <ele>66.5</ele>
        <time>2023-02-08T14:59:14Z</time>
      </trkpt>
      <trkpt lat="49.79241" lon="2.18199">
        <ele>66.4</ele>
        <time>2023-02-08T14:59:15Z</time>
      </trkpt>
      <trkpt lat="49.7924" lon="2.182">
        <ele>66.3</ele>
        <time>2023-02-08T14:59:16Z</time>
      </trkpt>
      <trkpt lat="49.79238" lon="2.18201">
        <ele>66.1</ele>
        <time>2023-02-08T14:59:17Z</time>
      </trkpt>
      <trkpt lat="49.79237" lon="2.18202">
        <ele>66.1</ele>
        <time>2023-02-08T14:59:18Z</time>
      </trkpt>
      <trkpt lat="49.79236" lon="2.18202">
        <ele>66</ele>
        <time>2023-02-08T14:59:19Z</time>
      </trkpt>
      <trkpt lat="49.79234" lon="2.18203">
        <ele>65.8</ele>
        <time>2023-02-08T14:59:21Z</time>
      </trkpt>
      <trkpt lat="49.79233" lon="2.18204">
        <ele>65.7</ele>
        <time>2023-02-08T14:59:22Z</time>
      </trkpt>
      <trkpt lat="49.79233" lon="2.18204">
        <ele>65.7</ele>
        <time>2023-02-08T14:59:23Z</time>
      </trkpt>
      <trkpt lat="49.79232" lon="2.18204">
        <ele>65.6</ele>
        <time>2023-02-08T14:59:24Z</time>
      </trkpt>
      <trkpt lat="49.79231" lon="2.18204">
        <ele>65.5</ele>
        <time>2023-02-08T14:59:25Z</time>
      </trkpt>
      <trkpt lat="49.79229" lon="2.18204">
        <ele>65.4</ele>
        <time>2023-02-08T14:59:26Z</time>
      </trkpt>
      <trkpt lat="49.79228" lon="2.18204">
        <ele>65.3</ele>
        <time>2023-02-08T14:59:27Z</time>
      </trkpt>
      <trkpt lat="49.79227" lon="2.18205">
        <ele>65.2</ele>
        <time>2023-02-08T14:59:28Z</time>
      </trkpt>
      <trkpt lat="49.79226" lon="2.18205">
        <ele>65.1</ele>
        <time>2023-02-08T14:59:29Z</time>
      </trkpt>
      <trkpt lat="49.79224" lon="2.18205">
        <ele>64.9</ele>
        <time>2023-02-08T14:59:31Z</time>
      </trkpt>
      <trkpt lat="49.79223" lon="2.18206">
        <ele>64.8</ele>
        <time>2023-02-08T14:59:32Z</time>
      </trkpt>
      <trkpt lat="49.79222" lon="2.18206">
        <ele>64.7</ele>
        <time>2023-02-08T14:59:33Z</time>
      </trkpt>
      <trkpt lat="49.79221" lon="2.18207">
        <ele>64.6</ele>
        <time>2023-02-08T14:59:34Z</time>
      </trkpt>
      <trkpt lat="49.7922" lon="2.18207">
        <ele>64.5</ele>
        <time>2023-02-08T14:59:35Z</time>
      </trkpt>
      <trkpt lat="49.79219" lon="2.18208">
        <ele>64.2</ele>
        <time>2023-02-08T14:59:36Z</time>
      </trkpt>
      <trkpt lat="49.79218" lon="2.1821">
        <ele>63.9</ele>
        <time>2023-02-08T14:59:38Z</time>
      </trkpt>
      <trkpt lat="49.79217" lon="2.18212">
        <ele>63.8</ele>
        <time>2023-02-08T14:59:40Z</time>
      </trkpt>
      <trkpt lat="49.79217" lon="2.18213">
        <ele>63.6</ele>
        <time>2023-02-08T14:59:41Z</time>
      </trkpt>
      <trkpt lat="49.79216" lon="2.18214">
        <ele>63.4</ele>
        <time>2023-02-08T14:59:42Z</time>
      </trkpt>
      <trkpt lat="49.79216" lon="2.18216">
        <ele>63.2</ele>
        <time>2023-02-08T14:59:44Z</time>
      </trkpt>
      <trkpt lat="49.79216" lon="2.18218">
        <ele>63</ele>
        <time>2023-02-08T14:59:46Z</time>
      </trkpt>
      <trkpt lat="49.79217" lon="2.18219">
        <ele>62.9</ele>
        <time>2023-02-08T14:59:47Z</time>
      </trkpt>
      <trkpt lat="49.79217" lon="2.1822">
        <ele>62.8</ele>
        <time>2023-02-08T14:59:49Z</time>
      </trkpt>
      <trkpt lat="49.79217" lon="2.1822">
        <ele>62.8</ele>
        <time>2023-02-08T14:59:50Z</time>
      </trkpt>
      <trkpt lat="49.79217" lon="2.18219">
        <ele>62.7</ele>
        <time>2023-02-08T14:59:51Z</time>
      </trkpt>
      <trkpt lat="49.79217" lon="2.18218">
        <ele>62.7</ele>
        <time>2023-02-08T14:59:53Z</time>
      </trkpt>
      <trkpt lat="49.79217" lon="2.18218">
        <ele>62.6</ele>
        <time>2023-02-08T14:59:54Z</time>
      </trkpt>
      <trkpt lat="49.79217" lon="2.18217">
        <ele>62.6</ele>
        <time>2023-02-08T14:59:55Z</time>
      </trkpt>
      <trkpt lat="49.79217" lon="2.18217">
        <ele>62.6</ele>
        <time>2023-02-08T14:59:57Z</time>
      </trkpt>
      <trkpt lat="49.79217" lon="2.18217">
        <ele>62.5</ele>
        <time>2023-02-08T14:59:58Z</time>
      </trkpt>
      <trkpt lat="49.79217" lon="2.18217">
        <ele>62.5</ele>
        <time>2023-02-08T15:00:00Z</time>
      </trkpt>
      <trkpt lat="49.79217" lon="2.18217">
        <ele>62.5</ele>
        <time>2023-02-08T15:00:01Z</time>
      </trkpt>
      <trkpt lat="49.79217" lon="2.18216">
        <ele>62.4</ele>
        <time>2023-02-08T15:00:02Z</time>
      </trkpt>
      <trkpt lat="49.79217" lon="2.18216">
        <ele>62.4</ele>
        <time>2023-02-08T15:00:03Z</time>
      </trkpt>
      <trkpt lat="49.79217" lon="2.18216">
        <ele>62.4</ele>
        <time>2023-02-08T15:00:04Z</time>
      </trkpt>
      <trkpt lat="49.79217" lon="2.18216">
        <ele>62.3</ele>
        <time>2023-02-08T15:00:06Z</time>
      </trkpt>
      <trkpt lat="49.79217" lon="2.18216">
        <ele>62.3</ele>
        <time>2023-02-08T15:00:08Z</time>
      </trkpt>
      <trkpt lat="49.79217" lon="2.18217">
        <ele>62.2</ele>
        <time>2023-02-08T15:00:09Z</time>
      </trkpt>
      <trkpt lat="49.79217" lon="2.18217">
        <ele>62.2</ele>
        <time>2023-02-08T15:00:10Z</time>
      </trkpt>
      <trkpt lat="49.79217" lon="2.18218">
        <ele>62.1</ele>
        <time>2023-02-08T15:00:11Z</time>
      </trkpt>
      <trkpt lat="49.79217" lon="2.18219">
        <ele>61.9</ele>
        <time>2023-02-08T15:00:12Z</time>
      </trkpt>
      <trkpt lat="49.79216" lon="2.18221">
        <ele>61.7</ele>
        <time>2023-02-08T15:00:14Z</time>
      </trkpt>
      <trkpt lat="49.79215" lon="2.18221">
        <ele>61.6</ele>
        <time>2023-02-08T15:00:16Z</time>
      </trkpt>
      <trkpt lat="49.79214" lon="2.18222">
        <ele>61.4</ele>
        <time>2023-02-08T15:00:17Z</time>
      </trkpt>
      <trkpt lat="49.79214" lon="2.18223">
        <ele>61.2</ele>
        <time>2023-02-08T15:00:18Z</time>
      </trkpt>
      <trkpt lat="49.79213" lon="2.18224">
        <ele>61.1</ele>
        <time>2023-02-08T15:00:19Z</time>
      </trkpt>
      <trkpt lat="49.79212" lon="2.18225">
        <ele>60.9</ele>
        <time>2023-02-08T15:00:20Z</time>
      </trkpt>
      <trkpt lat="49.79211" lon="2.18226">
        <ele>60.7</ele>
        <time>2023-02-08T15:00:22Z</time>
      </trkpt>
      <trkpt lat="49.7921" lon="2.18226">
        <ele>60.5</ele>
        <time>2023-02-08T15:00:24Z</time>
      </trkpt>
      <trkpt lat="49.79209" lon="2.18226">
        <ele>60.4</ele>
        <time>2023-02-08T15:00:25Z</time>
      </trkpt>
      <trkpt lat="49.79209" lon="2.18227">
        <ele>60.3</ele>
        <time>2023-02-08T15:00:26Z</time>
      </trkpt>
      <trkpt lat="49.79208" lon="2.18229">
        <ele>60.1</ele>
        <time>2023-02-08T15:00:27Z</time>
      </trkpt>
      <trkpt lat="49.79207" lon="2.18229">
        <ele>59.9</ele>
        <time>2023-02-08T15:00:28Z</time>
      </trkpt>
      <trkpt lat="49.79206" lon="2.1823">
        <ele>59.8</ele>
        <time>2023-02-08T15:00:29Z</time>
      </trkpt>
      <trkpt lat="49.79205" lon="2.18231">
        <ele>59.7</ele>
        <time>2023-02-08T15:00:31Z</time>
      </trkpt>
      <trkpt lat="49.79205" lon="2.18231">
        <ele>59.6</ele>
        <time>2023-02-08T15:00:32Z</time>
      </trkpt>
      <trkpt lat="49.79204" lon="2.18232">
        <ele>59.4</ele>
        <time>2023-02-08T15:00:33Z</time>
      </trkpt>
      <trkpt lat="49.79203" lon="2.18232">
        <ele>59.2</ele>
        <time>2023-02-08T15:00:34Z</time>
      </trkpt>
      <trkpt lat="49.79202" lon="2.18233">
        <ele>59.1</ele>
        <time>2023-02-08T15:00:35Z</time>
      </trkpt>
      <trkpt lat="49.79201" lon="2.18234">
        <ele>58.9</ele>
        <time>2023-02-08T15:00:36Z</time>
      </trkpt>
      <trkpt lat="49.79201" lon="2.18235">
        <ele>58.8</ele>
        <time>2023-02-08T15:00:37Z</time>
      </trkpt>
      <trkpt lat="49.792" lon="2.18236">
        <ele>58.7</ele>
        <time>2023-02-08T15:00:39Z</time>
      </trkpt>
      <trkpt lat="49.79199" lon="2.18237">
        <ele>58.5</ele>
        <time>2023-02-08T15:00:40Z</time>
      </trkpt>
      <trkpt lat="49.79198" lon="2.18238">
        <ele>58.4</ele>
        <time>2023-02-08T15:00:41Z</time>
      </trkpt>
      <trkpt lat="49.79197" lon="2.18239">
        <ele>58.2</ele>
        <time>2023-02-08T15:00:42Z</time>
      </trkpt>
      <trkpt lat="49.79196" lon="2.1824">
        <ele>58.1</ele>
        <time>2023-02-08T15:00:43Z</time>
      </trkpt>
      <trkpt lat="49.79195" lon="2.1824">
        <ele>57.9</ele>
        <time>2023-02-08T15:00:44Z</time>
      </trkpt>
      <trkpt lat="49.79194" lon="2.18242">
        <ele>57.6</ele>
        <time>2023-02-08T15:00:45Z</time>
      </trkpt>
      <trkpt lat="49.79193" lon="2.18243">
        <ele>57.5</ele>
        <time>2023-02-08T15:00:46Z</time>
      </trkpt>
      <trkpt lat="49.79192" lon="2.18244">
        <ele>57.4</ele>
        <time>2023-02-08T15:00:47Z</time>
      </trkpt>
      <trkpt lat="49.79191" lon="2.18245">
        <ele>57.3</ele>
        <time>2023-02-08T15:00:48Z</time>
      </trkpt>
      <trkpt lat="49.7919" lon="2.18246">
        <ele>57.1</ele>
        <time>2023-02-08T15:00:49Z</time>
      </trkpt>
      <trkpt lat="49.79189" lon="2.18247">
        <ele>57</ele>
        <time>2023-02-08T15:00:51Z</time>
      </trkpt>
      <trkpt lat="49.79188" lon="2.18248">
        <ele>56.8</ele>
        <time>2023-02-08T15:00:52Z</time>
      </trkpt>
      <trkpt lat="49.79187" lon="2.18249">
        <ele>56.7</ele>
        <time>2023-02-08T15:00:53Z</time>
      </trkpt>
      <trkpt lat="49.79187" lon="2.1825">
        <ele>56.6</ele>
        <time>2023-02-08T15:00:54Z</time>
      </trkpt>
      <trkpt lat="49.79186" lon="2.18251">
        <ele>56.5</ele>
        <time>2023-02-08T15:00:55Z</time>
      </trkpt>
      <trkpt lat="49.79185" lon="2.18252">
        <ele>56.4</ele>
        <time>2023-02-08T15:00:56Z</time>
      </trkpt>
      <trkpt lat="49.79184" lon="2.18252">
        <ele>56.3</ele>
        <time>2023-02-08T15:00:57Z</time>
      </trkpt>
      <trkpt lat="49.79183" lon="2.18254">
        <ele>56.2</ele>
        <time>2023-02-08T15:00:59Z</time>
      </trkpt>
      <trkpt lat="49.79182" lon="2.18254">
        <ele>56.1</ele>
        <time>2023-02-08T15:01:00Z</time>
      </trkpt>
      <trkpt lat="49.79181" lon="2.18255">
        <ele>56</ele>
        <time>2023-02-08T15:01:01Z</time>
      </trkpt>
      <trkpt lat="49.79179" lon="2.18257">
        <ele>55.8</ele>
        <time>2023-02-08T15:01:02Z</time>
      </trkpt>
      <trkpt lat="49.79179" lon="2.18258">
        <ele>55.8</ele>
        <time>2023-02-08T15:01:03Z</time>
      </trkpt>
      <trkpt lat="49.79178" lon="2.18259">
        <ele>55.7</ele>
        <time>2023-02-08T15:01:04Z</time>
      </trkpt>
      <trkpt lat="49.79177" lon="2.1826">
        <ele>55.6</ele>
        <time>2023-02-08T15:01:05Z</time>
      </trkpt>
      <trkpt lat="49.79176" lon="2.18261">
        <ele>55.5</ele>
        <time>2023-02-08T15:01:06Z</time>
      </trkpt>
      <trkpt lat="49.79175" lon="2.18263">
        <ele>55.4</ele>
        <time>2023-02-08T15:01:07Z</time>
      </trkpt>
      <trkpt lat="49.79173" lon="2.18264">
        <ele>55.3</ele>
        <time>2023-02-08T15:01:08Z</time>
      </trkpt>
      <trkpt lat="49.79173" lon="2.18265">
        <ele>55.2</ele>
        <time>2023-02-08T15:01:10Z</time>
      </trkpt>
      <trkpt lat="49.79171" lon="2.18267">
        <ele>55.1</ele>
        <time>2023-02-08T15:01:11Z</time>
      </trkpt>
      <trkpt lat="49.7917" lon="2.18269">
        <ele>55</ele>
        <time>2023-02-08T15:01:13Z</time>
      </trkpt>
      <trkpt lat="49.7917" lon="2.1827">
        <ele>55</ele>
        <time>2023-02-08T15:01:14Z</time>
      </trkpt>
      <trkpt lat="49.79168" lon="2.18273">
        <ele>54.9</ele>
        <time>2023-02-08T15:01:15Z</time>
      </trkpt>
      <trkpt lat="49.79168" lon="2.18274">
        <ele>54.8</ele>
        <time>2023-02-08T15:01:16Z</time>
      </trkpt>
      <trkpt lat="49.79168" lon="2.18275">
        <ele>54.8</ele>
        <time>2023-02-08T15:01:17Z</time>
      </trkpt>
      <trkpt lat="49.79166" lon="2.18277">
        <ele>54.7</ele>
        <time>2023-02-08T15:01:18Z</time>
      </trkpt>
      <trkpt lat="49.79165" lon="2.18278">
        <ele>54.7</ele>
        <time>2023-02-08T15:01:19Z</time>
      </trkpt>
      <trkpt lat="49.79165" lon="2.18279">
        <ele>54.6</ele>
        <time>2023-02-08T15:01:20Z</time>
      </trkpt>
      <trkpt lat="49.79164" lon="2.1828">
        <ele>54.6</ele>
        <time>2023-02-08T15:01:22Z</time>
      </trkpt>
      <trkpt lat="49.79163" lon="2.18281">
        <ele>54.5</ele>
        <time>2023-02-08T15:01:23Z</time>
      </trkpt>
      <trkpt lat="49.79162" lon="2.18282">
        <ele>54.5</ele>
        <time>2023-02-08T15:01:24Z</time>
      </trkpt>
      <trkpt lat="49.79161" lon="2.18283">
        <ele>54.4</ele>
        <time>2023-02-08T15:01:25Z</time>
      </trkpt>
      <trkpt lat="49.7916" lon="2.18284">
        <ele>54.4</ele>
        <time>2023-02-08T15:01:26Z</time>
      </trkpt>
      <trkpt lat="49.7916" lon="2.18285">
        <ele>54.3</ele>
        <time>2023-02-08T15:01:27Z</time>
      </trkpt>
      <trkpt lat="49.79158" lon="2.18286">
        <ele>54.2</ele>
        <time>2023-02-08T15:01:29Z</time>
      </trkpt>
      <trkpt lat="49.79157" lon="2.18287">
        <ele>54.2</ele>
        <time>2023-02-08T15:01:30Z</time>
      </trkpt>
      <trkpt lat="49.79155" lon="2.18288">
        <ele>54.1</ele>
        <time>2023-02-08T15:01:31Z</time>
      </trkpt>
      <trkpt lat="49.79155" lon="2.18289">
        <ele>54.1</ele>
        <time>2023-02-08T15:01:33Z</time>
      </trkpt>
      <trkpt lat="49.79154" lon="2.18289">
        <ele>54</ele>
        <time>2023-02-08T15:01:34Z</time>
      </trkpt>
      <trkpt lat="49.79153" lon="2.1829">
        <ele>54</ele>
        <time>2023-02-08T15:01:35Z</time>
      </trkpt>
      <trkpt lat="49.79152" lon="2.1829">
        <ele>53.9</ele>
        <time>2023-02-08T15:01:36Z</time>
      </trkpt>
      <trkpt lat="49.79151" lon="2.18291">
        <ele>53.9</ele>
        <time>2023-02-08T15:01:37Z</time>
      </trkpt>
      <trkpt lat="49.7915" lon="2.18292">
        <ele>53.8</ele>
        <time>2023-02-08T15:01:39Z</time>
      </trkpt>
      <trkpt lat="49.79149" lon="2.18292">
        <ele>53.7</ele>
        <time>2023-02-08T15:01:40Z</time>
      </trkpt>
      <trkpt lat="49.79148" lon="2.18293">
        <ele>53.7</ele>
        <time>2023-02-08T15:01:41Z</time>
      </trkpt>
      <trkpt lat="49.79147" lon="2.18294">
        <ele>53.6</ele>
        <time>2023-02-08T15:01:42Z</time>
      </trkpt>
      <trkpt lat="49.79146" lon="2.18295">
        <ele>53.5</ele>
        <time>2023-02-08T15:01:43Z</time>
      </trkpt>
      <trkpt lat="49.79145" lon="2.18296">
        <ele>53.4</ele>
        <time>2023-02-08T15:01:44Z</time>
      </trkpt>
      <trkpt lat="49.79144" lon="2.18297">
        <ele>53.4</ele>
        <time>2023-02-08T15:01:45Z</time>
      </trkpt>
      <trkpt lat="49.79144" lon="2.18298">
        <ele>53.3</ele>
        <time>2023-02-08T15:01:46Z</time>
      </trkpt>
      <trkpt lat="49.79143" lon="2.18299">
        <ele>53.2</ele>
        <time>2023-02-08T15:01:48Z</time>
      </trkpt>
      <trkpt lat="49.79143" lon="2.183">
        <ele>53.2</ele>
        <time>2023-02-08T15:01:49Z</time>
      </trkpt>
      <trkpt lat="49.79143" lon="2.18302">
        <ele>53.1</ele>
        <time>2023-02-08T15:01:50Z</time>
      </trkpt>
      <trkpt lat="49.79142" lon="2.18303">
        <ele>53</ele>
        <time>2023-02-08T15:01:51Z</time>
      </trkpt>
      <trkpt lat="49.79141" lon="2.18302">
        <ele>53</ele>
        <time>2023-02-08T15:01:52Z</time>
      </trkpt>
      <trkpt lat="49.7914" lon="2.18302">
        <ele>52.9</ele>
        <time>2023-02-08T15:01:53Z</time>
      </trkpt>
      <trkpt lat="49.7914" lon="2.183">
        <ele>52.8</ele>
        <time>2023-02-08T15:01:55Z</time>
      </trkpt>
      <trkpt lat="49.79139" lon="2.18297">
        <ele>52.6</ele>
        <time>2023-02-08T15:01:56Z</time>
      </trkpt>
      <trkpt lat="49.79139" lon="2.18295">
        <ele>52.5</ele>
        <time>2023-02-08T15:01:57Z</time>
      </trkpt>
      <trkpt lat="49.79138" lon="2.18293">
        <ele>52.4</ele>
        <time>2023-02-08T15:01:59Z</time>
      </trkpt>
      <trkpt lat="49.79136" lon="2.18291">
        <ele>52.2</ele>
        <time>2023-02-08T15:02:00Z</time>
      </trkpt>
      <trkpt lat="49.79136" lon="2.18291">
        <ele>52.1</ele>
        <time>2023-02-08T15:02:01Z</time>
      </trkpt>
      <trkpt lat="49.79135" lon="2.18291">
        <ele>52</ele>
        <time>2023-02-08T15:02:02Z</time>
      </trkpt>
      <trkpt lat="49.79133" lon="2.18291">
        <ele>51.9</ele>
        <time>2023-02-08T15:02:03Z</time>
      </trkpt>
      <trkpt lat="49.79132" lon="2.18292">
        <ele>51.8</ele>
        <time>2023-02-08T15:02:05Z</time>
      </trkpt>
      <trkpt lat="49.79132" lon="2.18292">
        <ele>51.8</ele>
        <time>2023-02-08T15:02:06Z</time>
      </trkpt>
      <trkpt lat="49.7913" lon="2.18294">
        <ele>51.6</ele>
        <time>2023-02-08T15:02:07Z</time>
      </trkpt>
      <trkpt lat="49.7913" lon="2.18296">
        <ele>51.5</ele>
        <time>2023-02-08T15:02:08Z</time>
      </trkpt>
      <trkpt lat="49.79129" lon="2.18297">
        <ele>51.5</ele>
        <time>2023-02-08T15:02:09Z</time>
      </trkpt>
      <trkpt lat="49.79128" lon="2.183">
        <ele>51.3</ele>
        <time>2023-02-08T15:02:10Z</time>
      </trkpt>
      <trkpt lat="49.79128" lon="2.18301">
        <ele>51.2</ele>
        <time>2023-02-08T15:02:12Z</time>
      </trkpt>
      <trkpt lat="49.79128" lon="2.18302">
        <ele>51.2</ele>
        <time>2023-02-08T15:02:13Z</time>
      </trkpt>
      <trkpt lat="49.79127" lon="2.18303">
        <ele>51.1</ele>
        <time>2023-02-08T15:02:14Z</time>
      </trkpt>
      <trkpt lat="49.79126" lon="2.18304">
        <ele>51</ele>
        <time>2023-02-08T15:02:16Z</time>
      </trkpt>
      <trkpt lat="49.79125" lon="2.18305">
        <ele>50.9</ele>
        <time>2023-02-08T15:02:17Z</time>
      </trkpt>
      <trkpt lat="49.79125" lon="2.18306">
        <ele>50.9</ele>
        <time>2023-02-08T15:02:18Z</time>
      </trkpt>
      <trkpt lat="49.79124" lon="2.18307">
        <ele>50.9</ele>
        <time>2023-02-08T15:02:19Z</time>
      </trkpt>
      <trkpt lat="49.79124" lon="2.18308">
        <ele>50.9</ele>
        <time>2023-02-08T15:02:21Z</time>
      </trkpt>
      <trkpt lat="49.79124" lon="2.1831">
        <ele>50.9</ele>
        <time>2023-02-08T15:02:22Z</time>
      </trkpt>
      <trkpt lat="49.79124" lon="2.18311">
        <ele>50.9</ele>
        <time>2023-02-08T15:02:23Z</time>
      </trkpt>
      <trkpt lat="49.79125" lon="2.18313">
        <ele>50.9</ele>
        <time>2023-02-08T15:02:25Z</time>
      </trkpt>
      <trkpt lat="49.79125" lon="2.18314">
        <ele>50.9</ele>
        <time>2023-02-08T15:02:27Z</time>
      </trkpt>
      <trkpt lat="49.79126" lon="2.18314">
        <ele>50.9</ele>
        <time>2023-02-08T15:02:28Z</time>
      </trkpt>
      <trkpt lat="49.79127" lon="2.18315">
        <ele>50.9</ele>
        <time>2023-02-08T15:02:29Z</time>
      </trkpt>
      <trkpt lat="49.79127" lon="2.18315">
        <ele>50.9</ele>
        <time>2023-02-08T15:02:30Z</time>
      </trkpt>
      <trkpt lat="49.79127" lon="2.18316">
        <ele>50.9</ele>
        <time>2023-02-08T15:02:32Z</time>
      </trkpt>
      <trkpt lat="49.79127" lon="2.18316">
        <ele>50.9</ele>
        <time>2023-02-08T15:02:33Z</time>
      </trkpt>
      <trkpt lat="49.79127" lon="2.18317">
        <ele>50.9</ele>
        <time>2023-02-08T15:02:35Z</time>
      </trkpt>
      <trkpt lat="49.79127" lon="2.18318">
        <ele>50.9</ele>
        <time>2023-02-08T15:02:36Z</time>
      </trkpt>
      <trkpt lat="49.79127" lon="2.18318">
        <ele>50.9</ele>
        <time>2023-02-08T15:02:37Z</time>
      </trkpt>
      <trkpt lat="49.79127" lon="2.18317">
        <ele>50.9</ele>
        <time>2023-02-08T15:02:39Z</time>
      </trkpt>
      <trkpt lat="49.79127" lon="2.18317">
        <ele>50.9</ele>
        <time>2023-02-08T15:02:40Z</time>
      </trkpt>
      <trkpt lat="49.79127" lon="2.18317">
        <ele>50.9</ele>
        <time>2023-02-08T15:02:41Z</time>
      </trkpt>
      <trkpt lat="49.79128" lon="2.18317">
        <ele>50.9</ele>
        <time>2023-02-08T15:02:43Z</time>
      </trkpt>
      <trkpt lat="49.79128" lon="2.18317">
        <ele>50.9</ele>
        <time>2023-02-08T15:02:44Z</time>
      </trkpt>
      <trkpt lat="49.79128" lon="2.18317">
        <ele>50.8</ele>
        <time>2023-02-08T15:02:46Z</time>
      </trkpt>
      <trkpt lat="49.79128" lon="2.18317">
        <ele>50.8</ele>
        <time>2023-02-08T15:02:47Z</time>
      </trkpt>
      <trkpt lat="49.79128" lon="2.18317">
        <ele>50.8</ele>
        <time>2023-02-08T15:02:49Z</time>
      </trkpt>
      <trkpt lat="49.79128" lon="2.18317">
        <ele>50.8</ele>
        <time>2023-02-08T15:02:50Z</time>
      </trkpt>
      <trkpt lat="49.79128" lon="2.18317">
        <ele>50.8</ele>
        <time>2023-02-08T15:02:51Z</time>
      </trkpt>
      <trkpt lat="49.79128" lon="2.18317">
        <ele>50.8</ele>
        <time>2023-02-08T15:02:52Z</time>
      </trkpt>
      <trkpt lat="49.79128" lon="2.18316">
        <ele>50.8</ele>
        <time>2023-02-08T15:02:53Z</time>
      </trkpt>
      <trkpt lat="49.79128" lon="2.18316">
        <ele>50.8</ele>
        <time>2023-02-08T15:02:54Z</time>
      </trkpt>
      <trkpt lat="49.79128" lon="2.18316">
        <ele>50.8</ele>
        <time>2023-02-08T15:02:55Z</time>
      </trkpt>
      <trkpt lat="49.79128" lon="2.18316">
        <ele>50.8</ele>
        <time>2023-02-08T15:02:56Z</time>
      </trkpt>
      <trkpt lat="49.79128" lon="2.18316">
        <ele>50.8</ele>
        <time>2023-02-08T15:02:57Z</time>
      </trkpt>
      <trkpt lat="49.79128" lon="2.18316">
        <ele>50.8</ele>
        <time>2023-02-08T15:02:58Z</time>
      </trkpt>
      <trkpt lat="49.79128" lon="2.18316">
        <ele>50.8</ele>
        <time>2023-02-08T15:02:59Z</time>
      </trkpt>
      <trkpt lat="49.79128" lon="2.18316">
        <ele>50.8</ele>
        <time>2023-02-08T15:03:00Z</time>
      </trkpt>
      <trkpt lat="49.79128" lon="2.18316">
        <ele>50.8</ele>
        <time>2023-02-08T15:03:01Z</time>
      </trkpt>
      <trkpt lat="49.79128" lon="2.18315">
        <ele>50.8</ele>
        <time>2023-02-08T15:03:02Z</time>
      </trkpt>
      <trkpt lat="49.79128" lon="2.18313">
        <ele>50.8</ele>
        <time>2023-02-08T15:03:03Z</time>
      </trkpt>
      <trkpt lat="49.79128" lon="2.18312">
        <ele>50.8</ele>
        <time>2023-02-08T15:03:04Z</time>
      </trkpt>
      <trkpt lat="49.79128" lon="2.18311">
        <ele>50.8</ele>
        <time>2023-02-08T15:03:05Z</time>
      </trkpt>
      <trkpt lat="49.79128" lon="2.1831">
        <ele>50.8</ele>
        <time>2023-02-08T15:03:06Z</time>
      </trkpt>
      <trkpt lat="49.79128" lon="2.1831">
        <ele>50.8</ele>
        <time>2023-02-08T15:03:07Z</time>
      </trkpt>
      <trkpt lat="49.79128" lon="2.1831">
        <ele>50.8</ele>
        <time>2023-02-08T15:03:08Z</time>
      </trkpt>
      <trkpt lat="49.79128" lon="2.1831">
        <ele>50.8</ele>
        <time>2023-02-08T15:03:09Z</time>
      </trkpt>
      <trkpt lat="49.79128" lon="2.1831">
        <ele>50.8</ele>
        <time>2023-02-08T15:03:10Z</time>
      </trkpt>
      <trkpt lat="49.79128" lon="2.1831">
        <ele>50.8</ele>
        <time>2023-02-08T15:03:11Z</time>
      </trkpt>
      <trkpt lat="49.79128" lon="2.1831">
        <ele>50.8</ele>
        <time>2023-02-08T15:03:12Z</time>
      </trkpt>
      <trkpt lat="49.79128" lon="2.1831">
        <ele>50.8</ele>
        <time>2023-02-08T15:03:13Z</time>
      </trkpt>
      <trkpt lat="49.79128" lon="2.1831">
        <ele>50.8</ele>
        <time>2023-02-08T15:03:14Z</time>
      </trkpt>
      <trkpt lat="49.79128" lon="2.1831">
        <ele>50.8</ele>
        <time>2023-02-08T15:03:15Z</time>
      </trkpt>
      <trkpt lat="49.79128" lon="2.1831">
        <ele>50.8</ele>
        <time>2023-02-08T15:03:16Z</time>
      </trkpt>
      <trkpt lat="49.79128" lon="2.1831">
        <ele>50.8</ele>
        <time>2023-02-08T15:03:17Z</time>
      </trkpt>
      <trkpt lat="49.79128" lon="2.1831">
        <ele>50.8</ele>
        <time>2023-02-08T15:03:18Z</time>
      </trkpt>
      <trkpt lat="49.79128" lon="2.1831">
        <ele>50.8</ele>
        <time>2023-02-08T15:03:19Z</time>
      </trkpt>
      <trkpt lat="49.79128" lon="2.1831">
        <ele>50.8</ele>
        <time>2023-02-08T15:03:20Z</time>
      </trkpt>
      <trkpt lat="49.79128" lon="2.1831">
        <ele>50.8</ele>
        <time>2023-02-08T15:03:21Z</time>
      </trkpt>
      <trkpt lat="49.79128" lon="2.1831">
        <ele>50.8</ele>
        <time>2023-02-08T15:03:22Z</time>
      </trkpt>
      <trkpt lat="49.79128" lon="2.1831">
        <ele>50.8</ele>
        <time>2023-02-08T15:03:23Z</time>
      </trkpt>
      <trkpt lat="49.79128" lon="2.1831">
        <ele>50.8</ele>
        <time>2023-02-08T15:03:24Z</time>
      </trkpt>
      <trkpt lat="49.79128" lon="2.1831">
        <ele>50.8</ele>
        <time>2023-02-08T15:03:25Z</time>
      </trkpt>
      <trkpt lat="49.79128" lon="2.1831">
        <ele>50.8</ele>
        <time>2023-02-08T15:03:26Z</time>
      </trkpt>
      <trkpt lat="49.79128" lon="2.1831">
        <ele>50.8</ele>
        <time>2023-02-08T15:03:27Z</time>
      </trkpt>
      <trkpt lat="49.79128" lon="2.1831">
        <ele>50.8</ele>
        <time>2023-02-08T15:03:28Z</time>
      </trkpt>
      <trkpt lat="49.79128" lon="2.1831">
        <ele>50.8</ele>
        <time>2023-02-08T15:03:29Z</time>
      </trkpt>
      <trkpt lat="49.79128" lon="2.1831">
        <ele>50.8</ele>
        <time>2023-02-08T15:03:30Z</time>
      </trkpt>
      <trkpt lat="49.79128" lon="2.1831">
        <ele>50.8</ele>
        <time>2023-02-08T15:03:31Z</time>
      </trkpt>
      <trkpt lat="49.79128" lon="2.1831">
        <ele>50.8</ele>
        <time>2023-02-08T15:03:32Z</time>
      </trkpt>
      <trkpt lat="49.79128" lon="2.1831">
        <ele>50.8</ele>
        <time>2023-02-08T15:03:33Z</time>
      </trkpt>
      <trkpt lat="49.79128" lon="2.1831">
        <ele>50.8</ele>
        <time>2023-02-08T15:03:34Z</time>
      </trkpt>
      <trkpt lat="49.79128" lon="2.1831">
        <ele>50.8</ele>
        <time>2023-02-08T15:03:35Z</time>
      </trkpt>
      <trkpt lat="49.79128" lon="2.1831">
        <ele>50.8</ele>
        <time>2023-02-08T15:03:36Z</time>
      </trkpt>
      <trkpt lat="49.79128" lon="2.1831">
        <ele>50.8</ele>
        <time>2023-02-08T15:03:37Z</time>
      </trkpt>
      <trkpt lat="49.79128" lon="2.1831">
        <ele>50.8</ele>
        <time>2023-02-08T15:03:38Z</time>
      </trkpt>
      <trkpt lat="49.79128" lon="2.1831">
        <ele>50.8</ele>
        <time>2023-02-08T15:03:39Z</time>
      </trkpt>
      <trkpt lat="49.79128" lon="2.1831">
        <ele>50.8</ele>
        <time>2023-02-08T15:03:40Z</time>
      </trkpt>
      <trkpt lat="49.79128" lon="2.1831">
        <ele>50.8</ele>
        <time>2023-02-08T15:03:41Z</time>
      </trkpt>
      <trkpt lat="49.79128" lon="2.1831">
        <ele>50.8</ele>
        <time>2023-02-08T15:03:42Z</time>
      </trkpt>
      <trkpt lat="49.79128" lon="2.1831">
        <ele>50.8</ele>
        <time>2023-02-08T15:03:43Z</time>
      </trkpt>
      <trkpt lat="49.79128" lon="2.1831">
        <ele>50.8</ele>
        <time>2023-02-08T15:03:44Z</time>
      </trkpt>
      <trkpt lat="49.79128" lon="2.1831">
        <ele>50.8</ele>
        <time>2023-02-08T15:03:45Z</time>
      </trkpt>
      <trkpt lat="49.79128" lon="2.1831">
        <ele>50.8</ele>
        <time>2023-02-08T15:03:46Z</time>
      </trkpt>
      <trkpt lat="49.79128" lon="2.1831">
        <ele>50.8</ele>
        <time>2023-02-08T15:03:47Z</time>
      </trkpt>
      <trkpt lat="49.79128" lon="2.1831">
        <ele>50.8</ele>
        <time>2023-02-08T15:03:48Z</time>
      </trkpt>
      <trkpt lat="49.79128" lon="2.1831">
        <ele>50.8</ele>
        <time>2023-02-08T15:03:49Z</time>
      </trkpt>
      <trkpt lat="49.79128" lon="2.1831">
        <ele>50.8</ele>
        <time>2023-02-08T15:03:50Z</time>
      </trkpt>
      <trkpt lat="49.79128" lon="2.1831">
        <ele>50.8</ele>
        <time>2023-02-08T15:03:51Z</time>
      </trkpt>
      <trkpt lat="49.79128" lon="2.1831">
        <ele>50.8</ele>
        <time>2023-02-08T15:03:52Z</time>
      </trkpt>
      <trkpt lat="49.79128" lon="2.1831">
        <ele>50.8</ele>
        <time>2023-02-08T15:03:53Z</time>
      </trkpt>
      <trkpt lat="49.79128" lon="2.1831">
        <ele>50.8</ele>
        <time>2023-02-08T15:03:54Z</time>
      </trkpt>
      <trkpt lat="49.79128" lon="2.1831">
        <ele>50.8</ele>
        <time>2023-02-08T15:03:55Z</time>
      </trkpt>
      <trkpt lat="49.79128" lon="2.1831">
        <ele>50.8</ele>
        <time>2023-02-08T15:03:56Z</time>
      </trkpt>
      <trkpt lat="49.79128" lon="2.1831">
        <ele>50.8</ele>
        <time>2023-02-08T15:03:57Z</time>
      </trkpt>
      <trkpt lat="49.79128" lon="2.1831">
        <ele>50.8</ele>
        <time>2023-02-08T15:03:58Z</time>
      </trkpt>
      <trkpt lat="49.79128" lon="2.1831">
        <ele>50.8</ele>
        <time>2023-02-08T15:03:59Z</time>
      </trkpt>
      <trkpt lat="49.79128" lon="2.1831">
        <ele>50.8</ele>
        <time>2023-02-08T15:04:00Z</time>
      </trkpt>
      <trkpt lat="49.79129" lon="2.1831">
        <ele>50.8</ele>
        <time>2023-02-08T15:04:01Z</time>
      </trkpt>
      <trkpt lat="49.7913" lon="2.18311">
        <ele>50.8</ele>
        <time>2023-02-08T15:04:02Z</time>
      </trkpt>
      <trkpt lat="49.7913" lon="2.18312">
        <ele>50.8</ele>
        <time>2023-02-08T15:04:03Z</time>
      </trkpt>
      <trkpt lat="49.79129" lon="2.18312">
        <ele>50.8</ele>
        <time>2023-02-08T15:04:04Z</time>
      </trkpt>
      <trkpt lat="49.79128" lon="2.18313">
        <ele>50.8</ele>
        <time>2023-02-08T15:04:06Z</time>
      </trkpt>
      <trkpt lat="49.79128" lon="2.18314">
        <ele>50.8</ele>
        <time>2023-02-08T15:04:07Z</time>
      </trkpt>
      <trkpt lat="49.79127" lon="2.18315">
        <ele>50.8</ele>
        <time>2023-02-08T15:04:08Z</time>
      </trkpt>
      <trkpt lat="49.79127" lon="2.18317">
        <ele>50.8</ele>
        <time>2023-02-08T15:04:09Z</time>
      </trkpt>
      <trkpt lat="49.79126" lon="2.18318">
        <ele>50.8</ele>
        <time>2023-02-08T15:04:11Z</time>
      </trkpt>
      <trkpt lat="49.79126" lon="2.18319">
        <ele>50.8</ele>
        <time>2023-02-08T15:04:12Z</time>
      </trkpt>
      <trkpt lat="49.79125" lon="2.18321">
        <ele>50.8</ele>
        <time>2023-02-08T15:04:13Z</time>
      </trkpt>
      <trkpt lat="49.79122" lon="2.18324">
        <ele>50.6</ele>
        <time>2023-02-08T15:04:14Z</time>
      </trkpt>
      <trkpt lat="49.79121" lon="2.18324">
        <ele>50.5</ele>
        <time>2023-02-08T15:04:15Z</time>
      </trkpt>
      <trkpt lat="49.7912" lon="2.18325">
        <ele>50.4</ele>
        <time>2023-02-08T15:04:16Z</time>
      </trkpt>
      <trkpt lat="49.79118" lon="2.18325">
        <ele>50.3</ele>
        <time>2023-02-08T15:04:17Z</time>
      </trkpt>
      <trkpt lat="49.79117" lon="2.18325">
        <ele>50.2</ele>
        <time>2023-02-08T15:04:18Z</time>
      </trkpt>
      <trkpt lat="49.79116" lon="2.18326">
        <ele>50.1</ele>
        <time>2023-02-08T15:04:20Z</time>
      </trkpt>
      <trkpt lat="49.79115" lon="2.18326">
        <ele>50</ele>
        <time>2023-02-08T15:04:21Z</time>
      </trkpt>
      <trkpt lat="49.79113" lon="2.18327">
        <ele>49.9</ele>
        <time>2023-02-08T15:04:22Z</time>
      </trkpt>
      <trkpt lat="49.79111" lon="2.18327">
        <ele>49.7</ele>
        <time>2023-02-08T15:04:23Z</time>
      </trkpt>
      <trkpt lat="49.7911" lon="2.18327">
        <ele>49.6</ele>
        <time>2023-02-08T15:04:24Z</time>
      </trkpt>
      <trkpt lat="49.79109" lon="2.18327">
        <ele>49.5</ele>
        <time>2023-02-08T15:04:25Z</time>
      </trkpt>
      <trkpt lat="49.79107" lon="2.18328">
        <ele>49.4</ele>
        <time>2023-02-08T15:04:26Z</time>
      </trkpt>
      <trkpt lat="49.79106" lon="2.18327">
        <ele>49.3</ele>
        <time>2023-02-08T15:04:27Z</time>
      </trkpt>
      <trkpt lat="49.79104" lon="2.18327">
        <ele>49.1</ele>
        <time>2023-02-08T15:04:29Z</time>
      </trkpt>
      <trkpt lat="49.79103" lon="2.18327">
        <ele>49.1</ele>
        <time>2023-02-08T15:04:30Z</time>
      </trkpt>
      <trkpt lat="49.79101" lon="2.18327">
        <ele>49</ele>
        <time>2023-02-08T15:04:31Z</time>
      </trkpt>
      <trkpt lat="49.79101" lon="2.18328">
        <ele>48.9</ele>
        <time>2023-02-08T15:04:32Z</time>
      </trkpt>
      <trkpt lat="49.791" lon="2.18328">
        <ele>48.8</ele>
        <time>2023-02-08T15:04:33Z</time>
      </trkpt>
      <trkpt lat="49.79098" lon="2.1833">
        <ele>48.7</ele>
        <time>2023-02-08T15:04:35Z</time>
      </trkpt>
      <trkpt lat="49.79097" lon="2.1833">
        <ele>48.6</ele>
        <time>2023-02-08T15:04:36Z</time>
      </trkpt>
      <trkpt lat="49.79096" lon="2.1833">
        <ele>48.5</ele>
        <time>2023-02-08T15:04:37Z</time>
      </trkpt>
      <trkpt lat="49.79094" lon="2.18331">
        <ele>48.4</ele>
        <time>2023-02-08T15:04:38Z</time>
      </trkpt>
      <trkpt lat="49.79092" lon="2.18332">
        <ele>48.3</ele>
        <time>2023-02-08T15:04:39Z</time>
      </trkpt>
      <trkpt lat="49.79091" lon="2.18332">
        <ele>48.2</ele>
        <time>2023-02-08T15:04:40Z</time>
      </trkpt>
      <trkpt lat="49.7909" lon="2.18333">
        <ele>48.1</ele>
        <time>2023-02-08T15:04:41Z</time>
      </trkpt>
      <trkpt lat="49.79088" lon="2.18333">
        <ele>48.1</ele>
        <time>2023-02-08T15:04:42Z</time>
      </trkpt>
      <trkpt lat="49.79087" lon="2.18334">
        <ele>48</ele>
        <time>2023-02-08T15:04:44Z</time>
      </trkpt>
      <trkpt lat="49.79085" lon="2.18335">
        <ele>47.8</ele>
        <time>2023-02-08T15:04:45Z</time>
      </trkpt>
      <trkpt lat="49.79084" lon="2.18336">
        <ele>47.8</ele>
        <time>2023-02-08T15:04:46Z</time>
      </trkpt>
      <trkpt lat="49.79083" lon="2.18337">
        <ele>47.7</ele>
        <time>2023-02-08T15:04:47Z</time>
      </trkpt>
      <trkpt lat="49.79082" lon="2.18338">
        <ele>47.6</ele>
        <time>2023-02-08T15:04:48Z</time>
      </trkpt>
      <trkpt lat="49.7908" lon="2.18339">
        <ele>47.5</ele>
        <time>2023-02-08T15:04:49Z</time>
      </trkpt>
      <trkpt lat="49.79079" lon="2.1834">
        <ele>47.4</ele>
        <time>2023-02-08T15:04:50Z</time>
      </trkpt>
      <trkpt lat="49.79078" lon="2.18341">
        <ele>47.4</ele>
        <time>2023-02-08T15:04:52Z</time>
      </trkpt>
      <trkpt lat="49.79076" lon="2.18342">
        <ele>47.2</ele>
        <time>2023-02-08T15:04:53Z</time>
      </trkpt>
      <trkpt lat="49.79075" lon="2.18342">
        <ele>47.2</ele>
        <time>2023-02-08T15:04:54Z</time>
      </trkpt>
      <trkpt lat="49.79074" lon="2.18343">
        <ele>47.1</ele>
        <time>2023-02-08T15:04:55Z</time>
      </trkpt>
      <trkpt lat="49.79073" lon="2.18344">
        <ele>47.1</ele>
        <time>2023-02-08T15:04:56Z</time>
      </trkpt>
      <trkpt lat="49.79072" lon="2.18345">
        <ele>47</ele>
        <time>2023-02-08T15:04:57Z</time>
      </trkpt>
      <trkpt lat="49.7907" lon="2.18348">
        <ele>46.8</ele>
        <time>2023-02-08T15:04:58Z</time>
      </trkpt>
      <trkpt lat="49.79069" lon="2.1835">
        <ele>46.8</ele>
        <time>2023-02-08T15:04:59Z</time>
      </trkpt>
      <trkpt lat="49.79068" lon="2.18351">
        <ele>46.7</ele>
        <time>2023-02-08T15:05:00Z</time>
      </trkpt>
      <trkpt lat="49.79067" lon="2.18352">
        <ele>46.7</ele>
        <time>2023-02-08T15:05:01Z</time>
      </trkpt>
      <trkpt lat="49.79067" lon="2.18354">
        <ele>46.6</ele>
        <time>2023-02-08T15:05:03Z</time>
      </trkpt>
      <trkpt lat="49.79066" lon="2.18355">
        <ele>46.5</ele>
        <time>2023-02-08T15:05:04Z</time>
      </trkpt>
      <trkpt lat="49.79065" lon="2.18358">
        <ele>46.5</ele>
        <time>2023-02-08T15:05:05Z</time>
      </trkpt>
      <trkpt lat="49.79065" lon="2.1836">
        <ele>46.4</ele>
        <time>2023-02-08T15:05:06Z</time>
      </trkpt>
      <trkpt lat="49.79064" lon="2.18362">
        <ele>46.3</ele>
        <time>2023-02-08T15:05:07Z</time>
      </trkpt>
      <trkpt lat="49.79063" lon="2.18366">
        <ele>46.3</ele>
        <time>2023-02-08T15:05:08Z</time>
      </trkpt>
      <trkpt lat="49.79063" lon="2.18368">
        <ele>46.3</ele>
        <time>2023-02-08T15:05:09Z</time>
      </trkpt>
      <trkpt lat="49.79063" lon="2.18369">
        <ele>46.3</ele>
        <time>2023-02-08T15:05:10Z</time>
      </trkpt>
      <trkpt lat="49.79063" lon="2.18371">
        <ele>46.2</ele>
        <time>2023-02-08T15:05:11Z</time>
      </trkpt>
      <trkpt lat="49.79063" lon="2.18373">
        <ele>46.2</ele>
        <time>2023-02-08T15:05:12Z</time>
      </trkpt>
      <trkpt lat="49.79063" lon="2.18377">
        <ele>46.2</ele>
        <time>2023-02-08T15:05:13Z</time>
      </trkpt>
      <trkpt lat="49.79064" lon="2.18379">
        <ele>46.2</ele>
        <time>2023-02-08T15:05:14Z</time>
      </trkpt>
      <trkpt lat="49.79065" lon="2.18381">
        <ele>46.1</ele>
        <time>2023-02-08T15:05:15Z</time>
      </trkpt>
      <trkpt lat="49.79066" lon="2.18382">
        <ele>46.1</ele>
        <time>2023-02-08T15:05:17Z</time>
      </trkpt>
      <trkpt lat="49.79066" lon="2.18384">
        <ele>46.1</ele>
        <time>2023-02-08T15:05:18Z</time>
      </trkpt>
      <trkpt lat="49.7907" lon="2.18386">
        <ele>46</ele>
        <time>2023-02-08T15:05:19Z</time>
      </trkpt>
      <trkpt lat="49.7907" lon="2.18386">
        <ele>46</ele>
        <time>2023-02-08T15:05:20Z</time>
      </trkpt>
      <trkpt lat="49.79072" lon="2.18387">
        <ele>46</ele>
        <time>2023-02-08T15:05:21Z</time>
      </trkpt>
      <trkpt lat="49.79073" lon="2.18388">
        <ele>46</ele>
        <time>2023-02-08T15:05:22Z</time>
      </trkpt>
      <trkpt lat="49.79074" lon="2.18389">
        <ele>46</ele>
        <time>2023-02-08T15:05:23Z</time>
      </trkpt>
      <trkpt lat="49.79076" lon="2.1839">
        <ele>46</ele>
        <time>2023-02-08T15:05:25Z</time>
      </trkpt>
      <trkpt lat="49.79078" lon="2.18391">
        <ele>45.9</ele>
        <time>2023-02-08T15:05:26Z</time>
      </trkpt>
      <trkpt lat="49.79079" lon="2.18392">
        <ele>45.9</ele>
        <time>2023-02-08T15:05:27Z</time>
      </trkpt>
      <trkpt lat="49.79081" lon="2.18394">
        <ele>45.9</ele>
        <time>2023-02-08T15:05:28Z</time>
      </trkpt>
      <trkpt lat="49.79083" lon="2.18395">
        <ele>45.9</ele>
        <time>2023-02-08T15:05:29Z</time>
      </trkpt>
      <trkpt lat="49.79083" lon="2.18395">
        <ele>45.9</ele>
        <time>2023-02-08T15:05:30Z</time>
      </trkpt>
      <trkpt lat="49.79084" lon="2.18396">
        <ele>45.8</ele>
        <time>2023-02-08T15:05:31Z</time>
      </trkpt>
      <trkpt lat="49.79085" lon="2.18397">
        <ele>45.8</ele>
        <time>2023-02-08T15:05:32Z</time>
      </trkpt>
      <trkpt lat="49.79087" lon="2.18399">
        <ele>45.8</ele>
        <time>2023-02-08T15:05:33Z</time>
      </trkpt>
      <trkpt lat="49.79088" lon="2.184">
        <ele>45.8</ele>
        <time>2023-02-08T15:05:36Z</time>
      </trkpt>
      <trkpt lat="49.79089" lon="2.18402">
        <ele>45.8</ele>
        <time>2023-02-08T15:05:37Z</time>
      </trkpt>
      <trkpt lat="49.7909" lon="2.18403">
        <ele>45.7</ele>
        <time>2023-02-08T15:05:38Z</time>
      </trkpt>
      <trkpt lat="49.79091" lon="2.18404">
        <ele>45.7</ele>
        <time>2023-02-08T15:05:39Z</time>
      </trkpt>
      <trkpt lat="49.79092" lon="2.18405">
        <ele>45.7</ele>
        <time>2023-02-08T15:05:40Z</time>
      </trkpt>
      <trkpt lat="49.79093" lon="2.18406">
        <ele>45.7</ele>
        <time>2023-02-08T15:05:41Z</time>
      </trkpt>
      <trkpt lat="49.79093" lon="2.18408">
        <ele>45.7</ele>
        <time>2023-02-08T15:05:42Z</time>
      </trkpt>
      <trkpt lat="49.79093" lon="2.18409">
        <ele>45.7</ele>
        <time>2023-02-08T15:05:43Z</time>
      </trkpt>
      <trkpt lat="49.79093" lon="2.1841">
        <ele>45.7</ele>
        <time>2023-02-08T15:05:45Z</time>
      </trkpt>
      <trkpt lat="49.79093" lon="2.18412">
        <ele>45.6</ele>
        <time>2023-02-08T15:05:46Z</time>
      </trkpt>
      <trkpt lat="49.79094" lon="2.18414">
        <ele>45.6</ele>
        <time>2023-02-08T15:05:47Z</time>
      </trkpt>
      <trkpt lat="49.79095" lon="2.18416">
        <ele>45.6</ele>
        <time>2023-02-08T15:05:48Z</time>
      </trkpt>
      <trkpt lat="49.79095" lon="2.18418">
        <ele>45.6</ele>
        <time>2023-02-08T15:05:49Z</time>
      </trkpt>
      <trkpt lat="49.79096" lon="2.18421">
        <ele>45.5</ele>
        <time>2023-02-08T15:05:50Z</time>
      </trkpt>
      <trkpt lat="49.79096" lon="2.18424">
        <ele>45.5</ele>
        <time>2023-02-08T15:05:51Z</time>
      </trkpt>
      <trkpt lat="49.79096" lon="2.18426">
        <ele>45.5</ele>
        <time>2023-02-08T15:05:52Z</time>
      </trkpt>
      <trkpt lat="49.79094" lon="2.1843">
        <ele>45.4</ele>
        <time>2023-02-08T15:05:54Z</time>
      </trkpt>
      <trkpt lat="49.79094" lon="2.18432">
        <ele>45.4</ele>
        <time>2023-02-08T15:05:55Z</time>
      </trkpt>
      <trkpt lat="49.79093" lon="2.18436">
        <ele>45.4</ele>
        <time>2023-02-08T15:05:56Z</time>
      </trkpt>
      <trkpt lat="49.79092" lon="2.18437">
        <ele>45.4</ele>
        <time>2023-02-08T15:05:57Z</time>
      </trkpt>
      <trkpt lat="49.79091" lon="2.18439">
        <ele>45.3</ele>
        <time>2023-02-08T15:05:58Z</time>
      </trkpt>
      <trkpt lat="49.79089" lon="2.18441">
        <ele>45.3</ele>
        <time>2023-02-08T15:06:00Z</time>
      </trkpt>
      <trkpt lat="49.79088" lon="2.18441">
        <ele>45.3</ele>
        <time>2023-02-08T15:06:01Z</time>
      </trkpt>
      <trkpt lat="49.79087" lon="2.18442">
        <ele>45.3</ele>
        <time>2023-02-08T15:06:02Z</time>
      </trkpt>
      <trkpt lat="49.79086" lon="2.18444">
        <ele>45.3</ele>
        <time>2023-02-08T15:06:03Z</time>
      </trkpt>
      <trkpt lat="49.79085" lon="2.18446">
        <ele>45.3</ele>
        <time>2023-02-08T15:06:04Z</time>
      </trkpt>
      <trkpt lat="49.79085" lon="2.18448">
        <ele>45.3</ele>
        <time>2023-02-08T15:06:05Z</time>
      </trkpt>
      <trkpt lat="49.79083" lon="2.18449">
        <ele>45.2</ele>
        <time>2023-02-08T15:06:06Z</time>
      </trkpt>
      <trkpt lat="49.79082" lon="2.18451">
        <ele>45.2</ele>
        <time>2023-02-08T15:06:07Z</time>
      </trkpt>
      <trkpt lat="49.79081" lon="2.18452">
        <ele>45.2</ele>
        <time>2023-02-08T15:06:08Z</time>
      </trkpt>
      <trkpt lat="49.7908" lon="2.18454">
        <ele>45.2</ele>
        <time>2023-02-08T15:06:10Z</time>
      </trkpt>
      <trkpt lat="49.79079" lon="2.18456">
        <ele>45.2</ele>
        <time>2023-02-08T15:06:11Z</time>
      </trkpt>
      <trkpt lat="49.79078" lon="2.18458">
        <ele>45.1</ele>
        <time>2023-02-08T15:06:12Z</time>
      </trkpt>
      <trkpt lat="49.79077" lon="2.1846">
        <ele>45.1</ele>
        <time>2023-02-08T15:06:13Z</time>
      </trkpt>
      <trkpt lat="49.79076" lon="2.18462">
        <ele>45.1</ele>
        <time>2023-02-08T15:06:14Z</time>
      </trkpt>
      <trkpt lat="49.79076" lon="2.18464">
        <ele>45</ele>
        <time>2023-02-08T15:06:15Z</time>
      </trkpt>
      <trkpt lat="49.79075" lon="2.18466">
        <ele>45</ele>
        <time>2023-02-08T15:06:16Z</time>
      </trkpt>
      <trkpt lat="49.79076" lon="2.18469">
        <ele>45</ele>
        <time>2023-02-08T15:06:17Z</time>
      </trkpt>
      <trkpt lat="49.79076" lon="2.18471">
        <ele>45</ele>
        <time>2023-02-08T15:06:18Z</time>
      </trkpt>
      <trkpt lat="49.79076" lon="2.18473">
        <ele>44.9</ele>
        <time>2023-02-08T15:06:20Z</time>
      </trkpt>
      <trkpt lat="49.79076" lon="2.18474">
        <ele>44.9</ele>
        <time>2023-02-08T15:06:21Z</time>
      </trkpt>
      <trkpt lat="49.79076" lon="2.18476">
        <ele>44.9</ele>
        <time>2023-02-08T15:06:22Z</time>
      </trkpt>
      <trkpt lat="49.79076" lon="2.18478">
        <ele>44.9</ele>
        <time>2023-02-08T15:06:23Z</time>
      </trkpt>
      <trkpt lat="49.79075" lon="2.1848">
        <ele>44.9</ele>
        <time>2023-02-08T15:06:24Z</time>
      </trkpt>
      <trkpt lat="49.79075" lon="2.18482">
        <ele>44.8</ele>
        <time>2023-02-08T15:06:25Z</time>
      </trkpt>
      <trkpt lat="49.79074" lon="2.18484">
        <ele>44.8</ele>
        <time>2023-02-08T15:06:26Z</time>
      </trkpt>
      <trkpt lat="49.79074" lon="2.18486">
        <ele>44.8</ele>
        <time>2023-02-08T15:06:27Z</time>
      </trkpt>
      <trkpt lat="49.79073" lon="2.18488">
        <ele>44.8</ele>
        <time>2023-02-08T15:06:28Z</time>
      </trkpt>
      <trkpt lat="49.79073" lon="2.1849">
        <ele>44.8</ele>
        <time>2023-02-08T15:06:29Z</time>
      </trkpt>
      <trkpt lat="49.79072" lon="2.18492">
        <ele>44.8</ele>
        <time>2023-02-08T15:06:30Z</time>
      </trkpt>
      <trkpt lat="49.79071" lon="2.18495">
        <ele>44.7</ele>
        <time>2023-02-08T15:06:32Z</time>
      </trkpt>
      <trkpt lat="49.79071" lon="2.18497">
        <ele>44.7</ele>
        <time>2023-02-08T15:06:33Z</time>
      </trkpt>
      <trkpt lat="49.79071" lon="2.18498">
        <ele>44.7</ele>
        <time>2023-02-08T15:06:34Z</time>
      </trkpt>
      <trkpt lat="49.7907" lon="2.185">
        <ele>44.7</ele>
        <time>2023-02-08T15:06:35Z</time>
      </trkpt>
      <trkpt lat="49.7907" lon="2.18503">
        <ele>44.7</ele>
        <time>2023-02-08T15:06:36Z</time>
      </trkpt>
      <trkpt lat="49.7907" lon="2.18505">
        <ele>44.7</ele>
        <time>2023-02-08T15:06:37Z</time>
      </trkpt>
      <trkpt lat="49.79069" lon="2.18507">
        <ele>44.7</ele>
        <time>2023-02-08T15:06:39Z</time>
      </trkpt>
      <trkpt lat="49.79069" lon="2.18508">
        <ele>44.7</ele>
        <time>2023-02-08T15:06:40Z</time>
      </trkpt>
      <trkpt lat="49.79068" lon="2.1851">
        <ele>44.7</ele>
        <time>2023-02-08T15:06:41Z</time>
      </trkpt>
      <trkpt lat="49.79067" lon="2.18512">
        <ele>44.7</ele>
        <time>2023-02-08T15:06:42Z</time>
      </trkpt>
      <trkpt lat="49.79067" lon="2.18513">
        <ele>44.7</ele>
        <time>2023-02-08T15:06:43Z</time>
      </trkpt>
      <trkpt lat="49.79066" lon="2.18516">
        <ele>44.7</ele>
        <time>2023-02-08T15:06:44Z</time>
      </trkpt>
      <trkpt lat="49.79065" lon="2.18519">
        <ele>44.7</ele>
        <time>2023-02-08T15:06:45Z</time>
      </trkpt>
      <trkpt lat="49.79064" lon="2.1852">
        <ele>44.7</ele>
        <time>2023-02-08T15:06:46Z</time>
      </trkpt>
      <trkpt lat="49.79064" lon="2.18521">
        <ele>44.7</ele>
        <time>2023-02-08T15:06:47Z</time>
      </trkpt>
      <trkpt lat="49.79063" lon="2.18523">
        <ele>44.7</ele>
        <time>2023-02-08T15:06:49Z</time>
      </trkpt>
      <trkpt lat="49.79063" lon="2.18525">
        <ele>44.7</ele>
        <time>2023-02-08T15:06:50Z</time>
      </trkpt>
      <trkpt lat="49.79062" lon="2.18527">
        <ele>44.7</ele>
        <time>2023-02-08T15:06:51Z</time>
      </trkpt>
      <trkpt lat="49.79062" lon="2.18529">
        <ele>44.7</ele>
        <time>2023-02-08T15:06:52Z</time>
      </trkpt>
      <trkpt lat="49.79061" lon="2.18531">
        <ele>44.7</ele>
        <time>2023-02-08T15:06:53Z</time>
      </trkpt>
      <trkpt lat="49.79061" lon="2.18533">
        <ele>44.8</ele>
        <time>2023-02-08T15:06:54Z</time>
      </trkpt>
      <trkpt lat="49.7906" lon="2.18536">
        <ele>44.8</ele>
        <time>2023-02-08T15:06:56Z</time>
      </trkpt>
      <trkpt lat="49.7906" lon="2.18537">
        <ele>44.8</ele>
        <time>2023-02-08T15:06:57Z</time>
      </trkpt>
      <trkpt lat="49.79059" lon="2.18541">
        <ele>44.8</ele>
        <time>2023-02-08T15:06:58Z</time>
      </trkpt>
      <trkpt lat="49.79058" lon="2.18542">
        <ele>44.8</ele>
        <time>2023-02-08T15:06:59Z</time>
      </trkpt>
      <trkpt lat="49.79058" lon="2.18543">
        <ele>44.8</ele>
        <time>2023-02-08T15:07:00Z</time>
      </trkpt>
      <trkpt lat="49.79058" lon="2.18544">
        <ele>44.8</ele>
        <time>2023-02-08T15:07:01Z</time>
      </trkpt>
      <trkpt lat="49.79057" lon="2.18546">
        <ele>44.9</ele>
        <time>2023-02-08T15:07:02Z</time>
      </trkpt>
      <trkpt lat="49.79056" lon="2.18548">
        <ele>44.9</ele>
        <time>2023-02-08T15:07:03Z</time>
      </trkpt>
      <trkpt lat="49.79055" lon="2.18551">
        <ele>44.9</ele>
        <time>2023-02-08T15:07:05Z</time>
      </trkpt>
      <trkpt lat="49.79055" lon="2.18551">
        <ele>44.9</ele>
        <time>2023-02-08T15:07:06Z</time>
      </trkpt>
      <trkpt lat="49.79054" lon="2.18552">
        <ele>44.9</ele>
        <time>2023-02-08T15:07:07Z</time>
      </trkpt>
      <trkpt lat="49.79053" lon="2.18553">
        <ele>44.9</ele>
        <time>2023-02-08T15:07:08Z</time>
      </trkpt>
      <trkpt lat="49.79051" lon="2.18553">
        <ele>44.9</ele>
        <time>2023-02-08T15:07:09Z</time>
      </trkpt>
      <trkpt lat="49.79049" lon="2.18553">
        <ele>44.9</ele>
        <time>2023-02-08T15:07:10Z</time>
      </trkpt>
      <trkpt lat="49.79048" lon="2.18552">
        <ele>44.9</ele>
        <time>2023-02-08T15:07:11Z</time>
      </trkpt>
      <trkpt lat="49.79047" lon="2.18552">
        <ele>44.9</ele>
        <time>2023-02-08T15:07:12Z</time>
      </trkpt>
      <trkpt lat="49.79045" lon="2.1855">
        <ele>44.9</ele>
        <time>2023-02-08T15:07:14Z</time>
      </trkpt>
      <trkpt lat="49.79044" lon="2.18549">
        <ele>44.9</ele>
        <time>2023-02-08T15:07:15Z</time>
      </trkpt>
      <trkpt lat="49.79043" lon="2.18549">
        <ele>44.9</ele>
        <time>2023-02-08T15:07:16Z</time>
      </trkpt>
      <trkpt lat="49.79042" lon="2.18549">
        <ele>44.9</ele>
        <time>2023-02-08T15:07:17Z</time>
      </trkpt>
      <trkpt lat="49.79041" lon="2.18548">
        <ele>44.9</ele>
        <time>2023-02-08T15:07:18Z</time>
      </trkpt>
      <trkpt lat="49.79038" lon="2.18547">
        <ele>44.9</ele>
        <time>2023-02-08T15:07:19Z</time>
      </trkpt>
      <trkpt lat="49.79038" lon="2.18546">
        <ele>44.9</ele>
        <time>2023-02-08T15:07:20Z</time>
      </trkpt>
      <trkpt lat="49.79037" lon="2.18546">
        <ele>44.9</ele>
        <time>2023-02-08T15:07:21Z</time>
      </trkpt>
      <trkpt lat="49.79035" lon="2.18545">
        <ele>44.9</ele>
        <time>2023-02-08T15:07:22Z</time>
      </trkpt>
      <trkpt lat="49.79034" lon="2.18544">
        <ele>44.9</ele>
        <time>2023-02-08T15:07:23Z</time>
      </trkpt>
      <trkpt lat="49.79033" lon="2.18543">
        <ele>44.9</ele>
        <time>2023-02-08T15:07:24Z</time>
      </trkpt>
      <trkpt lat="49.79032" lon="2.18541">
        <ele>44.9</ele>
        <time>2023-02-08T15:07:25Z</time>
      </trkpt>
      <trkpt lat="49.7903" lon="2.18539">
        <ele>44.9</ele>
        <time>2023-02-08T15:07:27Z</time>
      </trkpt>
      <trkpt lat="49.79029" lon="2.18538">
        <ele>44.9</ele>
        <time>2023-02-08T15:07:28Z</time>
      </trkpt>
      <trkpt lat="49.79028" lon="2.18536">
        <ele>44.9</ele>
        <time>2023-02-08T15:07:29Z</time>
      </trkpt>
      <trkpt lat="49.79027" lon="2.18534">
        <ele>44.9</ele>
        <time>2023-02-08T15:07:30Z</time>
      </trkpt>
      <trkpt lat="49.79026" lon="2.18533">
        <ele>44.9</ele>
        <time>2023-02-08T15:07:31Z</time>
      </trkpt>
      <trkpt lat="49.79024" lon="2.18532">
        <ele>44.9</ele>
        <time>2023-02-08T15:07:32Z</time>
      </trkpt>
      <trkpt lat="49.79023" lon="2.18532">
        <ele>44.9</ele>
        <time>2023-02-08T15:07:34Z</time>
      </trkpt>
      <trkpt lat="49.79022" lon="2.18531">
        <ele>44.9</ele>
        <time>2023-02-08T15:07:35Z</time>
      </trkpt>
      <trkpt lat="49.7902" lon="2.1853">
        <ele>44.9</ele>
        <time>2023-02-08T15:07:36Z</time>
      </trkpt>
      <trkpt lat="49.79019" lon="2.18529">
        <ele>44.9</ele>
        <time>2023-02-08T15:07:37Z</time>
      </trkpt>
      <trkpt lat="49.79018" lon="2.18529">
        <ele>44.9</ele>
        <time>2023-02-08T15:07:38Z</time>
      </trkpt>
      <trkpt lat="49.79016" lon="2.18527">
        <ele>44.9</ele>
        <time>2023-02-08T15:07:39Z</time>
      </trkpt>
      <trkpt lat="49.79015" lon="2.18526">
        <ele>44.9</ele>
        <time>2023-02-08T15:07:41Z</time>
      </trkpt>
      <trkpt lat="49.79014" lon="2.18525">
        <ele>44.9</ele>
        <time>2023-02-08T15:07:42Z</time>
      </trkpt>
      <trkpt lat="49.79013" lon="2.18524">
        <ele>44.9</ele>
        <time>2023-02-08T15:07:43Z</time>
      </trkpt>
      <trkpt lat="49.79012" lon="2.18524">
        <ele>44.9</ele>
        <time>2023-02-08T15:07:44Z</time>
      </trkpt>
      <trkpt lat="49.7901" lon="2.18521">
        <ele>44.9</ele>
        <time>2023-02-08T15:07:45Z</time>
      </trkpt>
      <trkpt lat="49.7901" lon="2.1852">
        <ele>44.9</ele>
        <time>2023-02-08T15:07:46Z</time>
      </trkpt>
      <trkpt lat="49.79009" lon="2.18519">
        <ele>45</ele>
        <time>2023-02-08T15:07:47Z</time>
      </trkpt>
      <trkpt lat="49.79008" lon="2.18518">
        <ele>45</ele>
        <time>2023-02-08T15:07:48Z</time>
      </trkpt>
      <trkpt lat="49.79007" lon="2.18517">
        <ele>45</ele>
        <time>2023-02-08T15:07:49Z</time>
      </trkpt>
      <trkpt lat="49.79006" lon="2.18515">
        <ele>45</ele>
        <time>2023-02-08T15:07:50Z</time>
      </trkpt>
      <trkpt lat="49.79005" lon="2.18514">
        <ele>45</ele>
        <time>2023-02-08T15:07:51Z</time>
      </trkpt>
      <trkpt lat="49.79004" lon="2.18513">
        <ele>45</ele>
        <time>2023-02-08T15:07:53Z</time>
      </trkpt>
      <trkpt lat="49.79002" lon="2.18512">
        <ele>45</ele>
        <time>2023-02-08T15:07:54Z</time>
      </trkpt>
      <trkpt lat="49.79001" lon="2.18511">
        <ele>45</ele>
        <time>2023-02-08T15:07:55Z</time>
      </trkpt>
      <trkpt lat="49.79" lon="2.18509">
        <ele>45</ele>
        <time>2023-02-08T15:07:56Z</time>
      </trkpt>
      <trkpt lat="49.78999" lon="2.18508">
        <ele>45</ele>
        <time>2023-02-08T15:07:57Z</time>
      </trkpt>
      <trkpt lat="49.78997" lon="2.18506">
        <ele>45</ele>
        <time>2023-02-08T15:07:58Z</time>
      </trkpt>
      <trkpt lat="49.78997" lon="2.18505">
        <ele>45</ele>
        <time>2023-02-08T15:07:59Z</time>
      </trkpt>
      <trkpt lat="49.78996" lon="2.18504">
        <ele>45</ele>
        <time>2023-02-08T15:08:00Z</time>
      </trkpt>
      <trkpt lat="49.78995" lon="2.18502">
        <ele>45</ele>
        <time>2023-02-08T15:08:01Z</time>
      </trkpt>
      <trkpt lat="49.78994" lon="2.18501">
        <ele>45</ele>
        <time>2023-02-08T15:08:03Z</time>
      </trkpt>
      <trkpt lat="49.78993" lon="2.185">
        <ele>45</ele>
        <time>2023-02-08T15:08:04Z</time>
      </trkpt>
      <trkpt lat="49.78992" lon="2.18497">
        <ele>45</ele>
        <time>2023-02-08T15:08:05Z</time>
      </trkpt>
      <trkpt lat="49.78992" lon="2.18496">
        <ele>45</ele>
        <time>2023-02-08T15:08:06Z</time>
      </trkpt>
      <trkpt lat="49.78991" lon="2.18495">
        <ele>45</ele>
        <time>2023-02-08T15:08:07Z</time>
      </trkpt>
      <trkpt lat="49.78991" lon="2.18493">
        <ele>45</ele>
        <time>2023-02-08T15:08:08Z</time>
      </trkpt>
      <trkpt lat="49.7899" lon="2.18492">
        <ele>45</ele>
        <time>2023-02-08T15:08:09Z</time>
      </trkpt>
      <trkpt lat="49.78989" lon="2.18489">
        <ele>44.9</ele>
        <time>2023-02-08T15:08:11Z</time>
      </trkpt>
      <trkpt lat="49.78988" lon="2.18487">
        <ele>44.9</ele>
        <time>2023-02-08T15:08:12Z</time>
      </trkpt>
      <trkpt lat="49.78988" lon="2.18486">
        <ele>44.9</ele>
        <time>2023-02-08T15:08:13Z</time>
      </trkpt>
      <trkpt lat="49.78987" lon="2.18485">
        <ele>44.9</ele>
        <time>2023-02-08T15:08:14Z</time>
      </trkpt>
      <trkpt lat="49.78986" lon="2.18482">
        <ele>44.9</ele>
        <time>2023-02-08T15:08:15Z</time>
      </trkpt>
      <trkpt lat="49.78985" lon="2.18481">
        <ele>44.9</ele>
        <time>2023-02-08T15:08:16Z</time>
      </trkpt>
      <trkpt lat="49.78985" lon="2.1848">
        <ele>44.9</ele>
        <time>2023-02-08T15:08:18Z</time>
      </trkpt>
      <trkpt lat="49.78984" lon="2.18479">
        <ele>44.9</ele>
        <time>2023-02-08T15:08:19Z</time>
      </trkpt>
      <trkpt lat="49.78983" lon="2.18478">
        <ele>44.9</ele>
        <time>2023-02-08T15:08:20Z</time>
      </trkpt>
      <trkpt lat="49.78983" lon="2.18477">
        <ele>44.9</ele>
        <time>2023-02-08T15:08:21Z</time>
      </trkpt>
      <trkpt lat="49.78982" lon="2.18475">
        <ele>44.9</ele>
        <time>2023-02-08T15:08:22Z</time>
      </trkpt>
      <trkpt lat="49.7898" lon="2.18474">
        <ele>44.9</ele>
        <time>2023-02-08T15:08:23Z</time>
      </trkpt>
      <trkpt lat="49.78979" lon="2.18474">
        <ele>44.9</ele>
        <time>2023-02-08T15:08:25Z</time>
      </trkpt>
      <trkpt lat="49.78977" lon="2.18473">
        <ele>44.9</ele>
        <time>2023-02-08T15:08:26Z</time>
      </trkpt>
      <trkpt lat="49.78976" lon="2.18472">
        <ele>44.9</ele>
        <time>2023-02-08T15:08:27Z</time>
      </trkpt>
      <trkpt lat="49.78975" lon="2.18471">
        <ele>44.9</ele>
        <time>2023-02-08T15:08:28Z</time>
      </trkpt>
      <trkpt lat="49.78974" lon="2.1847">
        <ele>44.8</ele>
        <time>2023-02-08T15:08:29Z</time>
      </trkpt>
      <trkpt lat="49.78973" lon="2.1847">
        <ele>44.8</ele>
        <time>2023-02-08T15:08:30Z</time>
      </trkpt>
      <trkpt lat="49.78972" lon="2.18469">
        <ele>44.8</ele>
        <time>2023-02-08T15:08:31Z</time>
      </trkpt>
      <trkpt lat="49.78971" lon="2.18468">
        <ele>44.8</ele>
        <time>2023-02-08T15:08:32Z</time>
      </trkpt>
      <trkpt lat="49.78969" lon="2.18467">
        <ele>44.8</ele>
        <time>2023-02-08T15:08:33Z</time>
      </trkpt>
      <trkpt lat="49.78968" lon="2.18466">
        <ele>44.8</ele>
        <time>2023-02-08T15:08:35Z</time>
      </trkpt>
      <trkpt lat="49.78967" lon="2.18465">
        <ele>44.8</ele>
        <time>2023-02-08T15:08:36Z</time>
      </trkpt>
      <trkpt lat="49.78966" lon="2.18464">
        <ele>44.8</ele>
        <time>2023-02-08T15:08:37Z</time>
      </trkpt>
      <trkpt lat="49.78965" lon="2.18463">
        <ele>44.8</ele>
        <time>2023-02-08T15:08:38Z</time>
      </trkpt>
      <trkpt lat="49.78964" lon="2.18462">
        <ele>44.8</ele>
        <time>2023-02-08T15:08:39Z</time>
      </trkpt>
      <trkpt lat="49.78963" lon="2.18461">
        <ele>44.8</ele>
        <time>2023-02-08T15:08:40Z</time>
      </trkpt>
      <trkpt lat="49.78963" lon="2.18461">
        <ele>44.8</ele>
        <time>2023-02-08T15:08:42Z</time>
      </trkpt>
      <trkpt lat="49.78962" lon="2.1846">
        <ele>44.8</ele>
        <time>2023-02-08T15:08:43Z</time>
      </trkpt>
      <trkpt lat="49.7896" lon="2.18459">
        <ele>44.8</ele>
        <time>2023-02-08T15:08:44Z</time>
      </trkpt>
      <trkpt lat="49.78959" lon="2.18458">
        <ele>44.7</ele>
        <time>2023-02-08T15:08:45Z</time>
      </trkpt>
      <trkpt lat="49.78959" lon="2.18457">
        <ele>44.7</ele>
        <time>2023-02-08T15:08:46Z</time>
      </trkpt>
      <trkpt lat="49.78957" lon="2.18456">
        <ele>44.7</ele>
        <time>2023-02-08T15:08:47Z</time>
      </trkpt>
      <trkpt lat="49.78956" lon="2.18455">
        <ele>44.7</ele>
        <time>2023-02-08T15:08:48Z</time>
      </trkpt>
      <trkpt lat="49.78955" lon="2.18453">
        <ele>44.7</ele>
        <time>2023-02-08T15:08:49Z</time>
      </trkpt>
      <trkpt lat="49.78955" lon="2.18451">
        <ele>44.7</ele>
        <time>2023-02-08T15:08:50Z</time>
      </trkpt>
      <trkpt lat="49.78953" lon="2.18449">
        <ele>44.7</ele>
        <time>2023-02-08T15:08:51Z</time>
      </trkpt>
      <trkpt lat="49.78953" lon="2.18448">
        <ele>44.7</ele>
        <time>2023-02-08T15:08:53Z</time>
      </trkpt>
      <trkpt lat="49.78952" lon="2.18447">
        <ele>44.7</ele>
        <time>2023-02-08T15:08:54Z</time>
      </trkpt>
      <trkpt lat="49.7895" lon="2.18444">
        <ele>44.7</ele>
        <time>2023-02-08T15:08:55Z</time>
      </trkpt>
      <trkpt lat="49.7895" lon="2.18443">
        <ele>44.7</ele>
        <time>2023-02-08T15:08:56Z</time>
      </trkpt>
      <trkpt lat="49.78949" lon="2.18442">
        <ele>44.7</ele>
        <time>2023-02-08T15:08:57Z</time>
      </trkpt>
      <trkpt lat="49.78948" lon="2.18441">
        <ele>44.7</ele>
        <time>2023-02-08T15:08:58Z</time>
      </trkpt>
      <trkpt lat="49.78947" lon="2.1844">
        <ele>44.7</ele>
        <time>2023-02-08T15:08:59Z</time>
      </trkpt>
      <trkpt lat="49.78947" lon="2.18439">
        <ele>44.7</ele>
        <time>2023-02-08T15:09:00Z</time>
      </trkpt>
      <trkpt lat="49.78946" lon="2.18439">
        <ele>44.7</ele>
        <time>2023-02-08T15:09:01Z</time>
      </trkpt>
      <trkpt lat="49.78945" lon="2.18437">
        <ele>44.7</ele>
        <time>2023-02-08T15:09:03Z</time>
      </trkpt>
      <trkpt lat="49.78945" lon="2.18436">
        <ele>44.7</ele>
        <time>2023-02-08T15:09:04Z</time>
      </trkpt>
      <trkpt lat="49.78944" lon="2.18435">
        <ele>44.7</ele>
        <time>2023-02-08T15:09:05Z</time>
      </trkpt>
      <trkpt lat="49.78944" lon="2.18434">
        <ele>44.7</ele>
        <time>2023-02-08T15:09:06Z</time>
      </trkpt>
      <trkpt lat="49.78943" lon="2.18433">
        <ele>44.7</ele>
        <time>2023-02-08T15:09:07Z</time>
      </trkpt>
      <trkpt lat="49.78942" lon="2.18432">
        <ele>44.7</ele>
        <time>2023-02-08T15:09:08Z</time>
      </trkpt>
      <trkpt lat="49.78941" lon="2.18431">
        <ele>44.7</ele>
        <time>2023-02-08T15:09:09Z</time>
      </trkpt>
      <trkpt lat="49.78939" lon="2.1843">
        <ele>44.7</ele>
        <time>2023-02-08T15:09:10Z</time>
      </trkpt>
      <trkpt lat="49.78939" lon="2.1843">
        <ele>44.7</ele>
        <time>2023-02-08T15:09:11Z</time>
      </trkpt>
      <trkpt lat="49.78938" lon="2.18429">
        <ele>44.7</ele>
        <time>2023-02-08T15:09:13Z</time>
      </trkpt>
      <trkpt lat="49.78937" lon="2.18428">
        <ele>44.7</ele>
        <time>2023-02-08T15:09:14Z</time>
      </trkpt>
      <trkpt lat="49.78936" lon="2.18427">
        <ele>44.7</ele>
        <time>2023-02-08T15:09:15Z</time>
      </trkpt>
      <trkpt lat="49.78935" lon="2.18426">
        <ele>44.7</ele>
        <time>2023-02-08T15:09:16Z</time>
      </trkpt>
      <trkpt lat="49.78933" lon="2.18424">
        <ele>44.7</ele>
        <time>2023-02-08T15:09:17Z</time>
      </trkpt>
      <trkpt lat="49.78933" lon="2.18423">
        <ele>44.7</ele>
        <time>2023-02-08T15:09:18Z</time>
      </trkpt>
      <trkpt lat="49.78932" lon="2.18422">
        <ele>44.7</ele>
        <time>2023-02-08T15:09:19Z</time>
      </trkpt>
      <trkpt lat="49.78931" lon="2.18421">
        <ele>44.7</ele>
        <time>2023-02-08T15:09:20Z</time>
      </trkpt>
      <trkpt lat="49.7893" lon="2.1842">
        <ele>44.7</ele>
        <time>2023-02-08T15:09:22Z</time>
      </trkpt>
      <trkpt lat="49.78929" lon="2.18419">
        <ele>44.7</ele>
        <time>2023-02-08T15:09:23Z</time>
      </trkpt>
      <trkpt lat="49.78928" lon="2.18417">
        <ele>44.7</ele>
        <time>2023-02-08T15:09:24Z</time>
      </trkpt>
      <trkpt lat="49.78927" lon="2.18416">
        <ele>44.7</ele>
        <time>2023-02-08T15:09:25Z</time>
      </trkpt>
      <trkpt lat="49.78926" lon="2.18415">
        <ele>44.7</ele>
        <time>2023-02-08T15:09:26Z</time>
      </trkpt>
      <trkpt lat="49.78925" lon="2.18413">
        <ele>44.8</ele>
        <time>2023-02-08T15:09:27Z</time>
      </trkpt>
      <trkpt lat="49.78924" lon="2.18412">
        <ele>44.8</ele>
        <time>2023-02-08T15:09:28Z</time>
      </trkpt>
      <trkpt lat="49.78923" lon="2.18411">
        <ele>44.8</ele>
        <time>2023-02-08T15:09:29Z</time>
      </trkpt>
      <trkpt lat="49.78923" lon="2.1841">
        <ele>44.8</ele>
        <time>2023-02-08T15:09:31Z</time>
      </trkpt>
      <trkpt lat="49.78922" lon="2.18408">
        <ele>44.8</ele>
        <time>2023-02-08T15:09:32Z</time>
      </trkpt>
      <trkpt lat="49.78922" lon="2.18406">
        <ele>44.8</ele>
        <time>2023-02-08T15:09:33Z</time>
      </trkpt>
      <trkpt lat="49.78921" lon="2.18404">
        <ele>44.8</ele>
        <time>2023-02-08T15:09:34Z</time>
      </trkpt>
      <trkpt lat="49.7892" lon="2.18402">
        <ele>44.8</ele>
        <time>2023-02-08T15:09:35Z</time>
      </trkpt>
      <trkpt lat="49.7892" lon="2.18401">
        <ele>44.8</ele>
        <time>2023-02-08T15:09:36Z</time>
      </trkpt>
      <trkpt lat="49.78919" lon="2.184">
        <ele>44.8</ele>
        <time>2023-02-08T15:09:38Z</time>
      </trkpt>
      <trkpt lat="49.78919" lon="2.18398">
        <ele>44.8</ele>
        <time>2023-02-08T15:09:39Z</time>
      </trkpt>
      <trkpt lat="49.78918" lon="2.18396">
        <ele>44.8</ele>
        <time>2023-02-08T15:09:40Z</time>
      </trkpt>
      <trkpt lat="49.78917" lon="2.18394">
        <ele>44.9</ele>
        <time>2023-02-08T15:09:41Z</time>
      </trkpt>
      <trkpt lat="49.78917" lon="2.18393">
        <ele>44.9</ele>
        <time>2023-02-08T15:09:42Z</time>
      </trkpt>
      <trkpt lat="49.78915" lon="2.18391">
        <ele>44.9</ele>
        <time>2023-02-08T15:09:43Z</time>
      </trkpt>
      <trkpt lat="49.78914" lon="2.1839">
        <ele>44.9</ele>
        <time>2023-02-08T15:09:44Z</time>
      </trkpt>
      <trkpt lat="49.78914" lon="2.18389">
        <ele>44.9</ele>
        <time>2023-02-08T15:09:45Z</time>
      </trkpt>
      <trkpt lat="49.78913" lon="2.18388">
        <ele>44.9</ele>
        <time>2023-02-08T15:09:47Z</time>
      </trkpt>
      <trkpt lat="49.78912" lon="2.18387">
        <ele>44.9</ele>
        <time>2023-02-08T15:09:48Z</time>
      </trkpt>
      <trkpt lat="49.78912" lon="2.18385">
        <ele>44.9</ele>
        <time>2023-02-08T15:09:49Z</time>
      </trkpt>
      <trkpt lat="49.78911" lon="2.18384">
        <ele>44.9</ele>
        <time>2023-02-08T15:09:50Z</time>
      </trkpt>
      <trkpt lat="49.7891" lon="2.18383">
        <ele>44.9</ele>
        <time>2023-02-08T15:09:51Z</time>
      </trkpt>
      <trkpt lat="49.78909" lon="2.18381">
        <ele>44.9</ele>
        <time>2023-02-08T15:09:52Z</time>
      </trkpt>
      <trkpt lat="49.78908" lon="2.1838">
        <ele>44.9</ele>
        <time>2023-02-08T15:09:53Z</time>
      </trkpt>
      <trkpt lat="49.78908" lon="2.18379">
        <ele>44.9</ele>
        <time>2023-02-08T15:09:54Z</time>
      </trkpt>
      <trkpt lat="49.78907" lon="2.18378">
        <ele>44.9</ele>
        <time>2023-02-08T15:09:55Z</time>
      </trkpt>
      <trkpt lat="49.78907" lon="2.18377">
        <ele>44.9</ele>
        <time>2023-02-08T15:09:57Z</time>
      </trkpt>
      <trkpt lat="49.78906" lon="2.18376">
        <ele>45</ele>
        <time>2023-02-08T15:09:58Z</time>
      </trkpt>
      <trkpt lat="49.78906" lon="2.18374">
        <ele>45</ele>
        <time>2023-02-08T15:09:59Z</time>
      </trkpt>
      <trkpt lat="49.78905" lon="2.18372">
        <ele>45</ele>
        <time>2023-02-08T15:10:00Z</time>
      </trkpt>
      <trkpt lat="49.78904" lon="2.1837">
        <ele>45</ele>
        <time>2023-02-08T15:10:01Z</time>
      </trkpt>
      <trkpt lat="49.78904" lon="2.18369">
        <ele>45</ele>
        <time>2023-02-08T15:10:02Z</time>
      </trkpt>
      <trkpt lat="49.78903" lon="2.18368">
        <ele>45</ele>
        <time>2023-02-08T15:10:03Z</time>
      </trkpt>
      <trkpt lat="49.78903" lon="2.18366">
        <ele>45</ele>
        <time>2023-02-08T15:10:04Z</time>
      </trkpt>
      <trkpt lat="49.78902" lon="2.18364">
        <ele>45</ele>
        <time>2023-02-08T15:10:05Z</time>
      </trkpt>
      <trkpt lat="49.78902" lon="2.18363">
        <ele>45</ele>
        <time>2023-02-08T15:10:06Z</time>
      </trkpt>
      <trkpt lat="49.78901" lon="2.18361">
        <ele>45</ele>
        <time>2023-02-08T15:10:07Z</time>
      </trkpt>
      <trkpt lat="49.789" lon="2.1836">
        <ele>45</ele>
        <time>2023-02-08T15:10:09Z</time>
      </trkpt>
      <trkpt lat="49.789" lon="2.18359">
        <ele>45</ele>
        <time>2023-02-08T15:10:10Z</time>
      </trkpt>
      <trkpt lat="49.78899" lon="2.18357">
        <ele>45</ele>
        <time>2023-02-08T15:10:11Z</time>
      </trkpt>
      <trkpt lat="49.78899" lon="2.18356">
        <ele>45</ele>
        <time>2023-02-08T15:10:12Z</time>
      </trkpt>
      <trkpt lat="49.78898" lon="2.18354">
        <ele>45</ele>
        <time>2023-02-08T15:10:13Z</time>
      </trkpt>
      <trkpt lat="49.78898" lon="2.18352">
        <ele>45</ele>
        <time>2023-02-08T15:10:14Z</time>
      </trkpt>
      <trkpt lat="49.78897" lon="2.1835">
        <ele>45</ele>
        <time>2023-02-08T15:10:15Z</time>
      </trkpt>
      <trkpt lat="49.78896" lon="2.18348">
        <ele>45</ele>
        <time>2023-02-08T15:10:17Z</time>
      </trkpt>
      <trkpt lat="49.78896" lon="2.18347">
        <ele>45</ele>
        <time>2023-02-08T15:10:18Z</time>
      </trkpt>
      <trkpt lat="49.78895" lon="2.18345">
        <ele>45</ele>
        <time>2023-02-08T15:10:19Z</time>
      </trkpt>
      <trkpt lat="49.78894" lon="2.18344">
        <ele>45</ele>
        <time>2023-02-08T15:10:20Z</time>
      </trkpt>
      <trkpt lat="49.78893" lon="2.18342">
        <ele>45</ele>
        <time>2023-02-08T15:10:21Z</time>
      </trkpt>
      <trkpt lat="49.78893" lon="2.18341">
        <ele>45</ele>
        <time>2023-02-08T15:10:22Z</time>
      </trkpt>
      <trkpt lat="49.78892" lon="2.18339">
        <ele>45</ele>
        <time>2023-02-08T15:10:23Z</time>
      </trkpt>
      <trkpt lat="49.78891" lon="2.18338">
        <ele>45</ele>
        <time>2023-02-08T15:10:24Z</time>
      </trkpt>
      <trkpt lat="49.7889" lon="2.18336">
        <ele>45</ele>
        <time>2023-02-08T15:10:25Z</time>
      </trkpt>
      <trkpt lat="49.78889" lon="2.18334">
        <ele>45</ele>
        <time>2023-02-08T15:10:26Z</time>
      </trkpt>
      <trkpt lat="49.78889" lon="2.18333">
        <ele>45</ele>
        <time>2023-02-08T15:10:27Z</time>
      </trkpt>
      <trkpt lat="49.78888" lon="2.18332">
        <ele>45</ele>
        <time>2023-02-08T15:10:28Z</time>
      </trkpt>
      <trkpt lat="49.78887" lon="2.1833">
        <ele>45</ele>
        <time>2023-02-08T15:10:30Z</time>
      </trkpt>
      <trkpt lat="49.78886" lon="2.18328">
        <ele>45</ele>
        <time>2023-02-08T15:10:31Z</time>
      </trkpt>
      <trkpt lat="49.78885" lon="2.18327">
        <ele>45</ele>
        <time>2023-02-08T15:10:32Z</time>
      </trkpt>
      <trkpt lat="49.78884" lon="2.18326">
        <ele>45</ele>
        <time>2023-02-08T15:10:33Z</time>
      </trkpt>
      <trkpt lat="49.78883" lon="2.18324">
        <ele>45</ele>
        <time>2023-02-08T15:10:34Z</time>
      </trkpt>
      <trkpt lat="49.78883" lon="2.18323">
        <ele>45</ele>
        <time>2023-02-08T15:10:35Z</time>
      </trkpt>
      <trkpt lat="49.78882" lon="2.18321">
        <ele>45</ele>
        <time>2023-02-08T15:10:36Z</time>
      </trkpt>
      <trkpt lat="49.78881" lon="2.1832">
        <ele>45</ele>
        <time>2023-02-08T15:10:37Z</time>
      </trkpt>
      <trkpt lat="49.7888" lon="2.18319">
        <ele>45</ele>
        <time>2023-02-08T15:10:39Z</time>
      </trkpt>
      <trkpt lat="49.78879" lon="2.18318">
        <ele>45</ele>
        <time>2023-02-08T15:10:40Z</time>
      </trkpt>
      <trkpt lat="49.78878" lon="2.18315">
        <ele>45</ele>
        <time>2023-02-08T15:10:41Z</time>
      </trkpt>
      <trkpt lat="49.78878" lon="2.18314">
        <ele>45</ele>
        <time>2023-02-08T15:10:42Z</time>
      </trkpt>
      <trkpt lat="49.78877" lon="2.18313">
        <ele>45</ele>
        <time>2023-02-08T15:10:43Z</time>
      </trkpt>
      <trkpt lat="49.78877" lon="2.18311">
        <ele>45</ele>
        <time>2023-02-08T15:10:44Z</time>
      </trkpt>
      <trkpt lat="49.78875" lon="2.18309">
        <ele>45</ele>
        <time>2023-02-08T15:10:45Z</time>
      </trkpt>
      <trkpt lat="49.78875" lon="2.18308">
        <ele>45.1</ele>
        <time>2023-02-08T15:10:46Z</time>
      </trkpt>
      <trkpt lat="49.78874" lon="2.18307">
        <ele>45.1</ele>
        <time>2023-02-08T15:10:47Z</time>
      </trkpt>
      <trkpt lat="49.78874" lon="2.18305">
        <ele>45.1</ele>
        <time>2023-02-08T15:10:49Z</time>
      </trkpt>
      <trkpt lat="49.78873" lon="2.18303">
        <ele>45.1</ele>
        <time>2023-02-08T15:10:50Z</time>
      </trkpt>
      <trkpt lat="49.78872" lon="2.18301">
        <ele>45.1</ele>
        <time>2023-02-08T15:10:51Z</time>
      </trkpt>
      <trkpt lat="49.78872" lon="2.18299">
        <ele>45.1</ele>
        <time>2023-02-08T15:10:52Z</time>
      </trkpt>
      <trkpt lat="49.78871" lon="2.18298">
        <ele>45.1</ele>
        <time>2023-02-08T15:10:54Z</time>
      </trkpt>
      <trkpt lat="49.7887" lon="2.18296">
        <ele>45.1</ele>
        <time>2023-02-08T15:10:55Z</time>
      </trkpt>
      <trkpt lat="49.7887" lon="2.18294">
        <ele>45.1</ele>
        <time>2023-02-08T15:10:56Z</time>
      </trkpt>
      <trkpt lat="49.78869" lon="2.18292">
        <ele>45.1</ele>
        <time>2023-02-08T15:10:57Z</time>
      </trkpt>
      <trkpt lat="49.78868" lon="2.18291">
        <ele>45.1</ele>
        <time>2023-02-08T15:10:58Z</time>
      </trkpt>
      <trkpt lat="49.78866" lon="2.18288">
        <ele>45.2</ele>
        <time>2023-02-08T15:10:59Z</time>
      </trkpt>
      <trkpt lat="49.78866" lon="2.18287">
        <ele>45.2</ele>
        <time>2023-02-08T15:11:00Z</time>
      </trkpt>
      <trkpt lat="49.78865" lon="2.18286">
        <ele>45.2</ele>
        <time>2023-02-08T15:11:01Z</time>
      </trkpt>
      <trkpt lat="49.78865" lon="2.18285">
        <ele>45.2</ele>
        <time>2023-02-08T15:11:03Z</time>
      </trkpt>
      <trkpt lat="49.78865" lon="2.18283">
        <ele>45.2</ele>
        <time>2023-02-08T15:11:04Z</time>
      </trkpt>
      <trkpt lat="49.78864" lon="2.18282">
        <ele>45.2</ele>
        <time>2023-02-08T15:11:05Z</time>
      </trkpt>
      <trkpt lat="49.78863" lon="2.18279">
        <ele>45.2</ele>
        <time>2023-02-08T15:11:06Z</time>
      </trkpt>
      <trkpt lat="49.78863" lon="2.18278">
        <ele>45.2</ele>
        <time>2023-02-08T15:11:07Z</time>
      </trkpt>
      <trkpt lat="49.78862" lon="2.18277">
        <ele>45.2</ele>
        <time>2023-02-08T15:11:08Z</time>
      </trkpt>
      <trkpt lat="49.78862" lon="2.18275">
        <ele>45.2</ele>
        <time>2023-02-08T15:11:09Z</time>
      </trkpt>
      <trkpt lat="49.78861" lon="2.18274">
        <ele>45.2</ele>
        <time>2023-02-08T15:11:10Z</time>
      </trkpt>
      <trkpt lat="49.7886" lon="2.18272">
        <ele>45.2</ele>
        <time>2023-02-08T15:11:12Z</time>
      </trkpt>
      <trkpt lat="49.7886" lon="2.1827">
        <ele>45.3</ele>
        <time>2023-02-08T15:11:13Z</time>
      </trkpt>
      <trkpt lat="49.7886" lon="2.18269">
        <ele>45.3</ele>
        <time>2023-02-08T15:11:14Z</time>
      </trkpt>
      <trkpt lat="49.78859" lon="2.18268">
        <ele>45.3</ele>
        <time>2023-02-08T15:11:15Z</time>
      </trkpt>
      <trkpt lat="49.78858" lon="2.18265">
        <ele>45.3</ele>
        <time>2023-02-08T15:11:16Z</time>
      </trkpt>
      <trkpt lat="49.78858" lon="2.18264">
        <ele>45.3</ele>
        <time>2023-02-08T15:11:17Z</time>
      </trkpt>
      <trkpt lat="49.78857" lon="2.18261">
        <ele>45.3</ele>
        <time>2023-02-08T15:11:19Z</time>
      </trkpt>
      <trkpt lat="49.78857" lon="2.18259">
        <ele>45.3</ele>
        <time>2023-02-08T15:11:20Z</time>
      </trkpt>
      <trkpt lat="49.78856" lon="2.18257">
        <ele>45.3</ele>
        <time>2023-02-08T15:11:22Z</time>
      </trkpt>
      <trkpt lat="49.78856" lon="2.18256">
        <ele>45.3</ele>
        <time>2023-02-08T15:11:23Z</time>
      </trkpt>
      <trkpt lat="49.78855" lon="2.18253">
        <ele>45.3</ele>
        <time>2023-02-08T15:11:24Z</time>
      </trkpt>
      <trkpt lat="49.78854" lon="2.18252">
        <ele>45.3</ele>
        <time>2023-02-08T15:11:25Z</time>
      </trkpt>
      <trkpt lat="49.78854" lon="2.1825">
        <ele>45.3</ele>
        <time>2023-02-08T15:11:26Z</time>
      </trkpt>
      <trkpt lat="49.78854" lon="2.18249">
        <ele>45.3</ele>
        <time>2023-02-08T15:11:27Z</time>
      </trkpt>
      <trkpt lat="49.78853" lon="2.18247">
        <ele>45.3</ele>
        <time>2023-02-08T15:11:28Z</time>
      </trkpt>
      <trkpt lat="49.78853" lon="2.18245">
        <ele>45.3</ele>
        <time>2023-02-08T15:11:29Z</time>
      </trkpt>
      <trkpt lat="49.78852" lon="2.18244">
        <ele>45.3</ele>
        <time>2023-02-08T15:11:30Z</time>
      </trkpt>
      <trkpt lat="49.78852" lon="2.18242">
        <ele>45.3</ele>
        <time>2023-02-08T15:11:32Z</time>
      </trkpt>
      <trkpt lat="49.78851" lon="2.18241">
        <ele>45.3</ele>
        <time>2023-02-08T15:11:33Z</time>
      </trkpt>
      <trkpt lat="49.7885" lon="2.18238">
        <ele>45.3</ele>
        <time>2023-02-08T15:11:34Z</time>
      </trkpt>
      <trkpt lat="49.7885" lon="2.18237">
        <ele>45.3</ele>
        <time>2023-02-08T15:11:35Z</time>
      </trkpt>
      <trkpt lat="49.78849" lon="2.18235">
        <ele>45.3</ele>
        <time>2023-02-08T15:11:36Z</time>
      </trkpt>
      <trkpt lat="49.78849" lon="2.18233">
        <ele>45.3</ele>
        <time>2023-02-08T15:11:38Z</time>
      </trkpt>
      <trkpt lat="49.78848" lon="2.18231">
        <ele>45.3</ele>
        <time>2023-02-08T15:11:39Z</time>
      </trkpt>
      <trkpt lat="49.78847" lon="2.18228">
        <ele>45.3</ele>
        <time>2023-02-08T15:11:40Z</time>
      </trkpt>
      <trkpt lat="49.78847" lon="2.18226">
        <ele>45.3</ele>
        <time>2023-02-08T15:11:42Z</time>
      </trkpt>
      <trkpt lat="49.78846" lon="2.18225">
        <ele>45.3</ele>
        <time>2023-02-08T15:11:43Z</time>
      </trkpt>
      <trkpt lat="49.78846" lon="2.18223">
        <ele>45.3</ele>
        <time>2023-02-08T15:11:44Z</time>
      </trkpt>
      <trkpt lat="49.78846" lon="2.18221">
        <ele>45.3</ele>
        <time>2023-02-08T15:11:45Z</time>
      </trkpt>
      <trkpt lat="49.78845" lon="2.18219">
        <ele>45.3</ele>
        <time>2023-02-08T15:11:46Z</time>
      </trkpt>
      <trkpt lat="49.78844" lon="2.18217">
        <ele>45.3</ele>
        <time>2023-02-08T15:11:47Z</time>
      </trkpt>
      <trkpt lat="49.78844" lon="2.18215">
        <ele>45.3</ele>
        <time>2023-02-08T15:11:49Z</time>
      </trkpt>
      <trkpt lat="49.78843" lon="2.18213">
        <ele>45.3</ele>
        <time>2023-02-08T15:11:50Z</time>
      </trkpt>
      <trkpt lat="49.78842" lon="2.18212">
        <ele>45.3</ele>
        <time>2023-02-08T15:11:51Z</time>
      </trkpt>
      <trkpt lat="49.78841" lon="2.18209">
        <ele>45.3</ele>
        <time>2023-02-08T15:11:52Z</time>
      </trkpt>
      <trkpt lat="49.78841" lon="2.18208">
        <ele>45.3</ele>
        <time>2023-02-08T15:11:54Z</time>
      </trkpt>
      <trkpt lat="49.7884" lon="2.18206">
        <ele>45.3</ele>
        <time>2023-02-08T15:11:55Z</time>
      </trkpt>
      <trkpt lat="49.78839" lon="2.18205">
        <ele>45.3</ele>
        <time>2023-02-08T15:11:56Z</time>
      </trkpt>
      <trkpt lat="49.78839" lon="2.18201">
        <ele>45.3</ele>
        <time>2023-02-08T15:11:57Z</time>
      </trkpt>
      <trkpt lat="49.78838" lon="2.182">
        <ele>45.3</ele>
        <time>2023-02-08T15:11:58Z</time>
      </trkpt>
      <trkpt lat="49.78838" lon="2.18199">
        <ele>45.3</ele>
        <time>2023-02-08T15:11:59Z</time>
      </trkpt>
      <trkpt lat="49.78837" lon="2.18196">
        <ele>45.3</ele>
        <time>2023-02-08T15:12:00Z</time>
      </trkpt>
      <trkpt lat="49.78837" lon="2.18195">
        <ele>45.3</ele>
        <time>2023-02-08T15:12:01Z</time>
      </trkpt>
      <trkpt lat="49.78837" lon="2.18194">
        <ele>45.3</ele>
        <time>2023-02-08T15:12:02Z</time>
      </trkpt>
      <trkpt lat="49.78836" lon="2.18192">
        <ele>45.3</ele>
        <time>2023-02-08T15:12:03Z</time>
      </trkpt>
      <trkpt lat="49.78836" lon="2.1819">
        <ele>45.3</ele>
        <time>2023-02-08T15:12:04Z</time>
      </trkpt>
      <trkpt lat="49.78836" lon="2.18189">
        <ele>45.3</ele>
        <time>2023-02-08T15:12:05Z</time>
      </trkpt>
      <trkpt lat="49.78835" lon="2.18187">
        <ele>45.3</ele>
        <time>2023-02-08T15:12:07Z</time>
      </trkpt>
      <trkpt lat="49.78835" lon="2.18185">
        <ele>45.3</ele>
        <time>2023-02-08T15:12:08Z</time>
      </trkpt>
      <trkpt lat="49.78835" lon="2.18184">
        <ele>45.3</ele>
        <time>2023-02-08T15:12:09Z</time>
      </trkpt>
      <trkpt lat="49.78834" lon="2.1818">
        <ele>45.3</ele>
        <time>2023-02-08T15:12:10Z</time>
      </trkpt>
      <trkpt lat="49.78834" lon="2.18179">
        <ele>45.3</ele>
        <time>2023-02-08T15:12:11Z</time>
      </trkpt>
      <trkpt lat="49.78834" lon="2.18177">
        <ele>45.3</ele>
        <time>2023-02-08T15:12:12Z</time>
      </trkpt>
      <trkpt lat="49.78833" lon="2.18176">
        <ele>45.3</ele>
        <time>2023-02-08T15:12:13Z</time>
      </trkpt>
      <trkpt lat="49.78833" lon="2.18174">
        <ele>45.3</ele>
        <time>2023-02-08T15:12:14Z</time>
      </trkpt>
      <trkpt lat="49.78832" lon="2.18173">
        <ele>45.3</ele>
        <time>2023-02-08T15:12:15Z</time>
      </trkpt>
      <trkpt lat="49.78832" lon="2.1817">
        <ele>45.3</ele>
        <time>2023-02-08T15:12:16Z</time>
      </trkpt>
      <trkpt lat="49.78831" lon="2.18169">
        <ele>45.3</ele>
        <time>2023-02-08T15:12:17Z</time>
      </trkpt>
      <trkpt lat="49.78831" lon="2.18168">
        <ele>45.3</ele>
        <time>2023-02-08T15:12:19Z</time>
      </trkpt>
      <trkpt lat="49.7883" lon="2.18166">
        <ele>45.3</ele>
        <time>2023-02-08T15:12:20Z</time>
      </trkpt>
      <trkpt lat="49.7883" lon="2.18165">
        <ele>45.3</ele>
        <time>2023-02-08T15:12:21Z</time>
      </trkpt>
      <trkpt lat="49.78829" lon="2.18162">
        <ele>45.3</ele>
        <time>2023-02-08T15:12:22Z</time>
      </trkpt>
      <trkpt lat="49.78828" lon="2.18161">
        <ele>45.3</ele>
        <time>2023-02-08T15:12:23Z</time>
      </trkpt>
      <trkpt lat="49.78826" lon="2.18158">
        <ele>45.3</ele>
        <time>2023-02-08T15:12:24Z</time>
      </trkpt>
      <trkpt lat="49.78826" lon="2.18157">
        <ele>45.3</ele>
        <time>2023-02-08T15:12:25Z</time>
      </trkpt>
      <trkpt lat="49.78825" lon="2.18155">
        <ele>45.3</ele>
        <time>2023-02-08T15:12:26Z</time>
      </trkpt>
      <trkpt lat="49.78824" lon="2.18154">
        <ele>45.3</ele>
        <time>2023-02-08T15:12:27Z</time>
      </trkpt>
      <trkpt lat="49.78824" lon="2.18153">
        <ele>45.3</ele>
        <time>2023-02-08T15:12:28Z</time>
      </trkpt>
      <trkpt lat="49.78823" lon="2.18152">
        <ele>45.3</ele>
        <time>2023-02-08T15:12:30Z</time>
      </trkpt>
      <trkpt lat="49.78823" lon="2.1815">
        <ele>45.3</ele>
        <time>2023-02-08T15:12:31Z</time>
      </trkpt>
      <trkpt lat="49.78822" lon="2.18148">
        <ele>45.3</ele>
        <time>2023-02-08T15:12:32Z</time>
      </trkpt>
      <trkpt lat="49.78821" lon="2.18146">
        <ele>45.3</ele>
        <time>2023-02-08T15:12:33Z</time>
      </trkpt>
      <trkpt lat="49.7882" lon="2.18145">
        <ele>45.3</ele>
        <time>2023-02-08T15:12:34Z</time>
      </trkpt>
      <trkpt lat="49.78819" lon="2.18142">
        <ele>45.3</ele>
        <time>2023-02-08T15:12:36Z</time>
      </trkpt>
      <trkpt lat="49.78819" lon="2.18141">
        <ele>45.3</ele>
        <time>2023-02-08T15:12:37Z</time>
      </trkpt>
      <trkpt lat="49.78818" lon="2.18139">
        <ele>45.3</ele>
        <time>2023-02-08T15:12:38Z</time>
      </trkpt>
      <trkpt lat="49.78817" lon="2.18136">
        <ele>45.3</ele>
        <time>2023-02-08T15:12:39Z</time>
      </trkpt>
      <trkpt lat="49.78816" lon="2.18134">
        <ele>45.3</ele>
        <time>2023-02-08T15:12:40Z</time>
      </trkpt>
      <trkpt lat="49.78815" lon="2.18131">
        <ele>45.3</ele>
        <time>2023-02-08T15:12:41Z</time>
      </trkpt>
      <trkpt lat="49.78815" lon="2.1813">
        <ele>45.3</ele>
        <time>2023-02-08T15:12:42Z</time>
      </trkpt>
      <trkpt lat="49.78814" lon="2.18129">
        <ele>45.3</ele>
        <time>2023-02-08T15:12:43Z</time>
      </trkpt>
      <trkpt lat="49.78813" lon="2.18127">
        <ele>45.3</ele>
        <time>2023-02-08T15:12:44Z</time>
      </trkpt>
      <trkpt lat="49.78813" lon="2.18125">
        <ele>45.3</ele>
        <time>2023-02-08T15:12:46Z</time>
      </trkpt>
      <trkpt lat="49.78812" lon="2.18123">
        <ele>45.3</ele>
        <time>2023-02-08T15:12:47Z</time>
      </trkpt>
      <trkpt lat="49.78811" lon="2.18121">
        <ele>45.3</ele>
        <time>2023-02-08T15:12:48Z</time>
      </trkpt>
      <trkpt lat="49.78811" lon="2.18119">
        <ele>45.3</ele>
        <time>2023-02-08T15:12:49Z</time>
      </trkpt>
      <trkpt lat="49.7881" lon="2.18117">
        <ele>45.3</ele>
        <time>2023-02-08T15:12:50Z</time>
      </trkpt>
      <trkpt lat="49.78809" lon="2.18114">
        <ele>45.3</ele>
        <time>2023-02-08T15:12:51Z</time>
      </trkpt>
      <trkpt lat="49.78809" lon="2.18113">
        <ele>45.3</ele>
        <time>2023-02-08T15:12:52Z</time>
      </trkpt>
      <trkpt lat="49.78808" lon="2.18111">
        <ele>45.3</ele>
        <time>2023-02-08T15:12:54Z</time>
      </trkpt>
      <trkpt lat="49.78808" lon="2.1811">
        <ele>45.3</ele>
        <time>2023-02-08T15:12:55Z</time>
      </trkpt>
      <trkpt lat="49.78807" lon="2.18109">
        <ele>45.3</ele>
        <time>2023-02-08T15:12:56Z</time>
      </trkpt>
      <trkpt lat="49.78807" lon="2.18107">
        <ele>45.3</ele>
        <time>2023-02-08T15:12:57Z</time>
      </trkpt>
      <trkpt lat="49.78807" lon="2.18106">
        <ele>45.3</ele>
        <time>2023-02-08T15:12:58Z</time>
      </trkpt>
      <trkpt lat="49.78806" lon="2.18104">
        <ele>45.4</ele>
        <time>2023-02-08T15:12:59Z</time>
      </trkpt>
      <trkpt lat="49.78806" lon="2.18102">
        <ele>45.4</ele>
        <time>2023-02-08T15:13:00Z</time>
      </trkpt>
      <trkpt lat="49.78805" lon="2.18099">
        <ele>45.4</ele>
        <time>2023-02-08T15:13:01Z</time>
      </trkpt>
      <trkpt lat="49.78805" lon="2.18098">
        <ele>45.4</ele>
        <time>2023-02-08T15:13:02Z</time>
      </trkpt>
      <trkpt lat="49.78804" lon="2.18097">
        <ele>45.4</ele>
        <time>2023-02-08T15:13:03Z</time>
      </trkpt>
      <trkpt lat="49.78803" lon="2.18095">
        <ele>45.4</ele>
        <time>2023-02-08T15:13:05Z</time>
      </trkpt>
      <trkpt lat="49.78802" lon="2.18094">
        <ele>45.4</ele>
        <time>2023-02-08T15:13:06Z</time>
      </trkpt>
      <trkpt lat="49.78802" lon="2.18093">
        <ele>45.4</ele>
        <time>2023-02-08T15:13:07Z</time>
      </trkpt>
      <trkpt lat="49.78801" lon="2.1809">
        <ele>45.4</ele>
        <time>2023-02-08T15:13:08Z</time>
      </trkpt>
      <trkpt lat="49.788" lon="2.18089">
        <ele>45.4</ele>
        <time>2023-02-08T15:13:09Z</time>
      </trkpt>
      <trkpt lat="49.788" lon="2.18087">
        <ele>45.4</ele>
        <time>2023-02-08T15:13:10Z</time>
      </trkpt>
      <trkpt lat="49.78799" lon="2.18085">
        <ele>45.4</ele>
        <time>2023-02-08T15:13:11Z</time>
      </trkpt>
      <trkpt lat="49.78798" lon="2.18084">
        <ele>45.4</ele>
        <time>2023-02-08T15:13:12Z</time>
      </trkpt>
      <trkpt lat="49.78798" lon="2.18082">
        <ele>45.3</ele>
        <time>2023-02-08T15:13:13Z</time>
      </trkpt>
      <trkpt lat="49.78797" lon="2.18081">
        <ele>45.3</ele>
        <time>2023-02-08T15:13:14Z</time>
      </trkpt>
      <trkpt lat="49.78796" lon="2.18079">
        <ele>45.3</ele>
        <time>2023-02-08T15:13:16Z</time>
      </trkpt>
      <trkpt lat="49.78796" lon="2.18078">
        <ele>45.3</ele>
        <time>2023-02-08T15:13:17Z</time>
      </trkpt>
      <trkpt lat="49.78795" lon="2.18076">
        <ele>45.3</ele>
        <time>2023-02-08T15:13:18Z</time>
      </trkpt>
      <trkpt lat="49.78795" lon="2.18075">
        <ele>45.3</ele>
        <time>2023-02-08T15:13:19Z</time>
      </trkpt>
      <trkpt lat="49.78794" lon="2.18073">
        <ele>45.3</ele>
        <time>2023-02-08T15:13:20Z</time>
      </trkpt>
      <trkpt lat="49.78794" lon="2.18071">
        <ele>45.3</ele>
        <time>2023-02-08T15:13:21Z</time>
      </trkpt>
      <trkpt lat="49.78793" lon="2.18068">
        <ele>45.3</ele>
        <time>2023-02-08T15:13:22Z</time>
      </trkpt>
      <trkpt lat="49.78792" lon="2.18067">
        <ele>45.3</ele>
        <time>2023-02-08T15:13:23Z</time>
      </trkpt>
      <trkpt lat="49.78792" lon="2.18064">
        <ele>45.3</ele>
        <time>2023-02-08T15:13:24Z</time>
      </trkpt>
      <trkpt lat="49.78791" lon="2.18062">
        <ele>45.3</ele>
        <time>2023-02-08T15:13:25Z</time>
      </trkpt>
      <trkpt lat="49.78791" lon="2.18061">
        <ele>45.3</ele>
        <time>2023-02-08T15:13:26Z</time>
      </trkpt>
      <trkpt lat="49.7879" lon="2.18058">
        <ele>45.3</ele>
        <time>2023-02-08T15:13:28Z</time>
      </trkpt>
      <trkpt lat="49.78789" lon="2.18057">
        <ele>45.3</ele>
        <time>2023-02-08T15:13:29Z</time>
      </trkpt>
      <trkpt lat="49.78789" lon="2.18055">
        <ele>45.3</ele>
        <time>2023-02-08T15:13:30Z</time>
      </trkpt>
      <trkpt lat="49.78788" lon="2.18054">
        <ele>45.3</ele>
        <time>2023-02-08T15:13:31Z</time>
      </trkpt>
      <trkpt lat="49.78787" lon="2.18051">
        <ele>45.3</ele>
        <time>2023-02-08T15:13:32Z</time>
      </trkpt>
      <trkpt lat="49.78787" lon="2.1805">
        <ele>45.3</ele>
        <time>2023-02-08T15:13:34Z</time>
      </trkpt>
      <trkpt lat="49.78786" lon="2.18048">
        <ele>45.3</ele>
        <time>2023-02-08T15:13:35Z</time>
      </trkpt>
      <trkpt lat="49.78786" lon="2.18047">
        <ele>45.3</ele>
        <time>2023-02-08T15:13:36Z</time>
      </trkpt>
      <trkpt lat="49.78785" lon="2.18044">
        <ele>45.3</ele>
        <time>2023-02-08T15:13:37Z</time>
      </trkpt>
      <trkpt lat="49.78784" lon="2.18043">
        <ele>45.3</ele>
        <time>2023-02-08T15:13:38Z</time>
      </trkpt>
      <trkpt lat="49.78784" lon="2.18041">
        <ele>45.3</ele>
        <time>2023-02-08T15:13:39Z</time>
      </trkpt>
      <trkpt lat="49.78783" lon="2.1804">
        <ele>45.3</ele>
        <time>2023-02-08T15:13:40Z</time>
      </trkpt>
      <trkpt lat="49.78782" lon="2.18038">
        <ele>45.3</ele>
        <time>2023-02-08T15:13:41Z</time>
      </trkpt>
      <trkpt lat="49.78781" lon="2.18035">
        <ele>45.3</ele>
        <time>2023-02-08T15:13:42Z</time>
      </trkpt>
      <trkpt lat="49.7878" lon="2.18034">
        <ele>45.3</ele>
        <time>2023-02-08T15:13:44Z</time>
      </trkpt>
      <trkpt lat="49.7878" lon="2.18033">
        <ele>45.3</ele>
        <time>2023-02-08T15:13:45Z</time>
      </trkpt>
      <trkpt lat="49.78779" lon="2.18032">
        <ele>45.3</ele>
        <time>2023-02-08T15:13:46Z</time>
      </trkpt>
      <trkpt lat="49.78778" lon="2.18029">
        <ele>45.3</ele>
        <time>2023-02-08T15:13:47Z</time>
      </trkpt>
      <trkpt lat="49.78778" lon="2.18028">
        <ele>45.3</ele>
        <time>2023-02-08T15:13:48Z</time>
      </trkpt>
      <trkpt lat="49.78777" lon="2.18027">
        <ele>45.3</ele>
        <time>2023-02-08T15:13:50Z</time>
      </trkpt>
      <trkpt lat="49.78777" lon="2.18026">
        <ele>45.3</ele>
        <time>2023-02-08T15:13:51Z</time>
      </trkpt>
      <trkpt lat="49.78776" lon="2.18023">
        <ele>45.3</ele>
        <time>2023-02-08T15:13:52Z</time>
      </trkpt>
      <trkpt lat="49.78776" lon="2.18021">
        <ele>45.3</ele>
        <time>2023-02-08T15:13:53Z</time>
      </trkpt>
      <trkpt lat="49.78775" lon="2.1802">
        <ele>45.3</ele>
        <time>2023-02-08T15:13:54Z</time>
      </trkpt>
      <trkpt lat="49.78774" lon="2.18017">
        <ele>45.3</ele>
        <time>2023-02-08T15:13:55Z</time>
      </trkpt>
      <trkpt lat="49.78774" lon="2.18016">
        <ele>45.3</ele>
        <time>2023-02-08T15:13:56Z</time>
      </trkpt>
      <trkpt lat="49.78773" lon="2.18015">
        <ele>45.3</ele>
        <time>2023-02-08T15:13:57Z</time>
      </trkpt>
      <trkpt lat="49.78773" lon="2.18014">
        <ele>45.3</ele>
        <time>2023-02-08T15:13:58Z</time>
      </trkpt>
      <trkpt lat="49.78772" lon="2.18012">
        <ele>45.3</ele>
        <time>2023-02-08T15:14:00Z</time>
      </trkpt>
      <trkpt lat="49.78771" lon="2.18011">
        <ele>45.3</ele>
        <time>2023-02-08T15:14:01Z</time>
      </trkpt>
      <trkpt lat="49.7877" lon="2.18008">
        <ele>45.4</ele>
        <time>2023-02-08T15:14:02Z</time>
      </trkpt>
      <trkpt lat="49.7877" lon="2.18007">
        <ele>45.4</ele>
        <time>2023-02-08T15:14:03Z</time>
      </trkpt>
      <trkpt lat="49.78769" lon="2.18006">
        <ele>45.4</ele>
        <time>2023-02-08T15:14:04Z</time>
      </trkpt>
      <trkpt lat="49.78768" lon="2.18003">
        <ele>45.4</ele>
        <time>2023-02-08T15:14:06Z</time>
      </trkpt>
      <trkpt lat="49.78768" lon="2.18002">
        <ele>45.4</ele>
        <time>2023-02-08T15:14:07Z</time>
      </trkpt>
      <trkpt lat="49.78767" lon="2.18001">
        <ele>45.4</ele>
        <time>2023-02-08T15:14:08Z</time>
      </trkpt>
      <trkpt lat="49.78766" lon="2.17998">
        <ele>45.4</ele>
        <time>2023-02-08T15:14:09Z</time>
      </trkpt>
      <trkpt lat="49.78766" lon="2.17997">
        <ele>45.4</ele>
        <time>2023-02-08T15:14:10Z</time>
      </trkpt>
      <trkpt lat="49.78766" lon="2.17996">
        <ele>45.4</ele>
        <time>2023-02-08T15:14:11Z</time>
      </trkpt>
      <trkpt lat="49.78764" lon="2.17993">
        <ele>45.4</ele>
        <time>2023-02-08T15:14:12Z</time>
      </trkpt>
      <trkpt lat="49.78764" lon="2.17992">
        <ele>45.4</ele>
        <time>2023-02-08T15:14:13Z</time>
      </trkpt>
      <trkpt lat="49.78764" lon="2.17991">
        <ele>45.4</ele>
        <time>2023-02-08T15:14:14Z</time>
      </trkpt>
      <trkpt lat="49.78762" lon="2.17988">
        <ele>45.4</ele>
        <time>2023-02-08T15:14:16Z</time>
      </trkpt>
      <trkpt lat="49.78762" lon="2.17987">
        <ele>45.4</ele>
        <time>2023-02-08T15:14:17Z</time>
      </trkpt>
      <trkpt lat="49.78761" lon="2.17985">
        <ele>45.4</ele>
        <time>2023-02-08T15:14:18Z</time>
      </trkpt>
      <trkpt lat="49.78761" lon="2.17984">
        <ele>45.4</ele>
        <time>2023-02-08T15:14:19Z</time>
      </trkpt>
      <trkpt lat="49.7876" lon="2.17983">
        <ele>45.4</ele>
        <time>2023-02-08T15:14:20Z</time>
      </trkpt>
      <trkpt lat="49.78759" lon="2.17981">
        <ele>45.4</ele>
        <time>2023-02-08T15:14:21Z</time>
      </trkpt>
      <trkpt lat="49.78758" lon="2.17979">
        <ele>45.4</ele>
        <time>2023-02-08T15:14:22Z</time>
      </trkpt>
      <trkpt lat="49.78758" lon="2.17978">
        <ele>45.4</ele>
        <time>2023-02-08T15:14:23Z</time>
      </trkpt>
      <trkpt lat="49.78757" lon="2.17977">
        <ele>45.4</ele>
        <time>2023-02-08T15:14:25Z</time>
      </trkpt>
      <trkpt lat="49.78756" lon="2.17976">
        <ele>45.4</ele>
        <time>2023-02-08T15:14:26Z</time>
      </trkpt>
      <trkpt lat="49.78756" lon="2.17974">
        <ele>45.4</ele>
        <time>2023-02-08T15:14:27Z</time>
      </trkpt>
      <trkpt lat="49.78754" lon="2.17972">
        <ele>45.4</ele>
        <time>2023-02-08T15:14:28Z</time>
      </trkpt>
      <trkpt lat="49.78754" lon="2.17971">
        <ele>45.4</ele>
        <time>2023-02-08T15:14:29Z</time>
      </trkpt>
      <trkpt lat="49.78753" lon="2.1797">
        <ele>45.4</ele>
        <time>2023-02-08T15:14:30Z</time>
      </trkpt>
      <trkpt lat="49.78752" lon="2.17968">
        <ele>45.4</ele>
        <time>2023-02-08T15:14:32Z</time>
      </trkpt>
      <trkpt lat="49.78751" lon="2.17966">
        <ele>45.5</ele>
        <time>2023-02-08T15:14:33Z</time>
      </trkpt>
      <trkpt lat="49.78751" lon="2.17965">
        <ele>45.5</ele>
        <time>2023-02-08T15:14:34Z</time>
      </trkpt>
      <trkpt lat="49.7875" lon="2.17964">
        <ele>45.5</ele>
        <time>2023-02-08T15:14:35Z</time>
      </trkpt>
      <trkpt lat="49.78749" lon="2.17962">
        <ele>45.5</ele>
        <time>2023-02-08T15:14:36Z</time>
      </trkpt>
      <trkpt lat="49.78749" lon="2.17961">
        <ele>45.5</ele>
        <time>2023-02-08T15:14:37Z</time>
      </trkpt>
      <trkpt lat="49.78747" lon="2.17958">
        <ele>45.5</ele>
        <time>2023-02-08T15:14:38Z</time>
      </trkpt>
      <trkpt lat="49.78747" lon="2.17957">
        <ele>45.5</ele>
        <time>2023-02-08T15:14:39Z</time>
      </trkpt>
      <trkpt lat="49.78746" lon="2.17955">
        <ele>45.5</ele>
        <time>2023-02-08T15:14:40Z</time>
      </trkpt>
      <trkpt lat="49.78745" lon="2.17954">
        <ele>45.5</ele>
        <time>2023-02-08T15:14:42Z</time>
      </trkpt>
      <trkpt lat="49.78744" lon="2.17951">
        <ele>45.5</ele>
        <time>2023-02-08T15:14:43Z</time>
      </trkpt>
      <trkpt lat="49.78743" lon="2.1795">
        <ele>45.5</ele>
        <time>2023-02-08T15:14:44Z</time>
      </trkpt>
      <trkpt lat="49.78742" lon="2.1795">
        <ele>45.5</ele>
        <time>2023-02-08T15:14:45Z</time>
      </trkpt>
      <trkpt lat="49.78742" lon="2.17949">
        <ele>45.5</ele>
        <time>2023-02-08T15:14:46Z</time>
      </trkpt>
      <trkpt lat="49.7874" lon="2.17946">
        <ele>45.5</ele>
        <time>2023-02-08T15:14:47Z</time>
      </trkpt>
      <trkpt lat="49.78739" lon="2.17946">
        <ele>45.5</ele>
        <time>2023-02-08T15:14:49Z</time>
      </trkpt>
      <trkpt lat="49.78738" lon="2.17945">
        <ele>45.5</ele>
        <time>2023-02-08T15:14:50Z</time>
      </trkpt>
      <trkpt lat="49.78737" lon="2.17944">
        <ele>45.5</ele>
        <time>2023-02-08T15:14:51Z</time>
      </trkpt>
      <trkpt lat="49.78736" lon="2.17942">
        <ele>45.5</ele>
        <time>2023-02-08T15:14:52Z</time>
      </trkpt>
      <trkpt lat="49.78735" lon="2.1794">
        <ele>45.5</ele>
        <time>2023-02-08T15:14:53Z</time>
      </trkpt>
      <trkpt lat="49.78734" lon="2.17939">
        <ele>45.5</ele>
        <time>2023-02-08T15:14:54Z</time>
      </trkpt>
      <trkpt lat="49.78733" lon="2.17938">
        <ele>45.5</ele>
        <time>2023-02-08T15:14:55Z</time>
      </trkpt>
      <trkpt lat="49.78733" lon="2.17936">
        <ele>45.5</ele>
        <time>2023-02-08T15:14:56Z</time>
      </trkpt>
      <trkpt lat="49.78732" lon="2.17934">
        <ele>45.5</ele>
        <time>2023-02-08T15:14:57Z</time>
      </trkpt>
      <trkpt lat="49.78731" lon="2.17932">
        <ele>45.6</ele>
        <time>2023-02-08T15:14:58Z</time>
      </trkpt>
      <trkpt lat="49.7873" lon="2.1793">
        <ele>45.6</ele>
        <time>2023-02-08T15:14:59Z</time>
      </trkpt>
      <trkpt lat="49.7873" lon="2.17929">
        <ele>45.6</ele>
        <time>2023-02-08T15:15:01Z</time>
      </trkpt>
      <trkpt lat="49.78729" lon="2.17928">
        <ele>45.6</ele>
        <time>2023-02-08T15:15:02Z</time>
      </trkpt>
      <trkpt lat="49.78728" lon="2.17925">
        <ele>45.6</ele>
        <time>2023-02-08T15:15:03Z</time>
      </trkpt>
      <trkpt lat="49.78727" lon="2.17924">
        <ele>45.6</ele>
        <time>2023-02-08T15:15:04Z</time>
      </trkpt>
      <trkpt lat="49.78726" lon="2.17923">
        <ele>45.6</ele>
        <time>2023-02-08T15:15:05Z</time>
      </trkpt>
      <trkpt lat="49.78725" lon="2.17922">
        <ele>45.6</ele>
        <time>2023-02-08T15:15:07Z</time>
      </trkpt>
      <trkpt lat="49.78724" lon="2.17919">
        <ele>45.6</ele>
        <time>2023-02-08T15:15:08Z</time>
      </trkpt>
      <trkpt lat="49.78723" lon="2.17918">
        <ele>45.6</ele>
        <time>2023-02-08T15:15:09Z</time>
      </trkpt>
      <trkpt lat="49.78722" lon="2.17917">
        <ele>45.6</ele>
        <time>2023-02-08T15:15:10Z</time>
      </trkpt>
      <trkpt lat="49.78721" lon="2.17915">
        <ele>45.6</ele>
        <time>2023-02-08T15:15:11Z</time>
      </trkpt>
      <trkpt lat="49.7872" lon="2.17914">
        <ele>45.6</ele>
        <time>2023-02-08T15:15:13Z</time>
      </trkpt>
      <trkpt lat="49.78719" lon="2.17913">
        <ele>45.7</ele>
        <time>2023-02-08T15:15:14Z</time>
      </trkpt>
      <trkpt lat="49.78719" lon="2.17911">
        <ele>45.7</ele>
        <time>2023-02-08T15:15:15Z</time>
      </trkpt>
      <trkpt lat="49.78718" lon="2.1791">
        <ele>45.7</ele>
        <time>2023-02-08T15:15:16Z</time>
      </trkpt>
      <trkpt lat="49.78717" lon="2.17909">
        <ele>45.7</ele>
        <time>2023-02-08T15:15:17Z</time>
      </trkpt>
      <trkpt lat="49.78715" lon="2.17907">
        <ele>45.7</ele>
        <time>2023-02-08T15:15:19Z</time>
      </trkpt>
      <trkpt lat="49.78714" lon="2.17906">
        <ele>45.7</ele>
        <time>2023-02-08T15:15:20Z</time>
      </trkpt>
      <trkpt lat="49.78713" lon="2.17905">
        <ele>45.7</ele>
        <time>2023-02-08T15:15:21Z</time>
      </trkpt>
      <trkpt lat="49.78711" lon="2.17904">
        <ele>45.7</ele>
        <time>2023-02-08T15:15:23Z</time>
      </trkpt>
      <trkpt lat="49.7871" lon="2.17903">
        <ele>45.7</ele>
        <time>2023-02-08T15:15:24Z</time>
      </trkpt>
      <trkpt lat="49.78709" lon="2.179">
        <ele>45.7</ele>
        <time>2023-02-08T15:15:25Z</time>
      </trkpt>
      <trkpt lat="49.78708" lon="2.17899">
        <ele>45.7</ele>
        <time>2023-02-08T15:15:26Z</time>
      </trkpt>
      <trkpt lat="49.78707" lon="2.17898">
        <ele>45.7</ele>
        <time>2023-02-08T15:15:27Z</time>
      </trkpt>
      <trkpt lat="49.78707" lon="2.17897">
        <ele>45.7</ele>
        <time>2023-02-08T15:15:29Z</time>
      </trkpt>
      <trkpt lat="49.78707" lon="2.17896">
        <ele>45.7</ele>
        <time>2023-02-08T15:15:30Z</time>
      </trkpt>
      <trkpt lat="49.78706" lon="2.17895">
        <ele>45.7</ele>
        <time>2023-02-08T15:15:31Z</time>
      </trkpt>
      <trkpt lat="49.78705" lon="2.17894">
        <ele>45.7</ele>
        <time>2023-02-08T15:15:32Z</time>
      </trkpt>
      <trkpt lat="49.78704" lon="2.17892">
        <ele>45.7</ele>
        <time>2023-02-08T15:15:33Z</time>
      </trkpt>
      <trkpt lat="49.78703" lon="2.17891">
        <ele>45.7</ele>
        <time>2023-02-08T15:15:34Z</time>
      </trkpt>
      <trkpt lat="49.78702" lon="2.1789">
        <ele>45.8</ele>
        <time>2023-02-08T15:15:35Z</time>
      </trkpt>
      <trkpt lat="49.78701" lon="2.17889">
        <ele>45.8</ele>
        <time>2023-02-08T15:15:36Z</time>
      </trkpt>
      <trkpt lat="49.787" lon="2.17888">
        <ele>45.8</ele>
        <time>2023-02-08T15:15:37Z</time>
      </trkpt>
      <trkpt lat="49.787" lon="2.17886">
        <ele>45.8</ele>
        <time>2023-02-08T15:15:39Z</time>
      </trkpt>
      <trkpt lat="49.78698" lon="2.17885">
        <ele>45.8</ele>
        <time>2023-02-08T15:15:40Z</time>
      </trkpt>
      <trkpt lat="49.78697" lon="2.17884">
        <ele>45.8</ele>
        <time>2023-02-08T15:15:41Z</time>
      </trkpt>
      <trkpt lat="49.78696" lon="2.17883">
        <ele>45.8</ele>
        <time>2023-02-08T15:15:42Z</time>
      </trkpt>
      <trkpt lat="49.78696" lon="2.17882">
        <ele>45.8</ele>
        <time>2023-02-08T15:15:43Z</time>
      </trkpt>
      <trkpt lat="49.78695" lon="2.17881">
        <ele>45.8</ele>
        <time>2023-02-08T15:15:44Z</time>
      </trkpt>
      <trkpt lat="49.78694" lon="2.17879">
        <ele>45.8</ele>
        <time>2023-02-08T15:15:45Z</time>
      </trkpt>
      <trkpt lat="49.78693" lon="2.17878">
        <ele>45.8</ele>
        <time>2023-02-08T15:15:46Z</time>
      </trkpt>
      <trkpt lat="49.78692" lon="2.17876">
        <ele>45.8</ele>
        <time>2023-02-08T15:15:48Z</time>
      </trkpt>
      <trkpt lat="49.78691" lon="2.17875">
        <ele>45.8</ele>
        <time>2023-02-08T15:15:49Z</time>
      </trkpt>
      <trkpt lat="49.78691" lon="2.17874">
        <ele>45.8</ele>
        <time>2023-02-08T15:15:50Z</time>
      </trkpt>
      <trkpt lat="49.7869" lon="2.17873">
        <ele>45.8</ele>
        <time>2023-02-08T15:15:51Z</time>
      </trkpt>
      <trkpt lat="49.78688" lon="2.17871">
        <ele>45.8</ele>
        <time>2023-02-08T15:15:52Z</time>
      </trkpt>
      <trkpt lat="49.78688" lon="2.1787">
        <ele>45.8</ele>
        <time>2023-02-08T15:15:53Z</time>
      </trkpt>
      <trkpt lat="49.78687" lon="2.17869">
        <ele>45.8</ele>
        <time>2023-02-08T15:15:54Z</time>
      </trkpt>
      <trkpt lat="49.78686" lon="2.17867">
        <ele>45.8</ele>
        <time>2023-02-08T15:15:55Z</time>
      </trkpt>
      <trkpt lat="49.78685" lon="2.17866">
        <ele>45.8</ele>
        <time>2023-02-08T15:15:56Z</time>
      </trkpt>
      <trkpt lat="49.78684" lon="2.17865">
        <ele>45.8</ele>
        <time>2023-02-08T15:15:58Z</time>
      </trkpt>
      <trkpt lat="49.78683" lon="2.17864">
        <ele>45.8</ele>
        <time>2023-02-08T15:15:59Z</time>
      </trkpt>
      <trkpt lat="49.78682" lon="2.17863">
        <ele>45.8</ele>
        <time>2023-02-08T15:16:00Z</time>
      </trkpt>
      <trkpt lat="49.78681" lon="2.17862">
        <ele>45.8</ele>
        <time>2023-02-08T15:16:01Z</time>
      </trkpt>
      <trkpt lat="49.7868" lon="2.1786">
        <ele>45.8</ele>
        <time>2023-02-08T15:16:02Z</time>
      </trkpt>
      <trkpt lat="49.78679" lon="2.17859">
        <ele>45.8</ele>
        <time>2023-02-08T15:16:03Z</time>
      </trkpt>
      <trkpt lat="49.78679" lon="2.17857">
        <ele>45.8</ele>
        <time>2023-02-08T15:16:04Z</time>
      </trkpt>
      <trkpt lat="49.78678" lon="2.17856">
        <ele>45.8</ele>
        <time>2023-02-08T15:16:05Z</time>
      </trkpt>
      <trkpt lat="49.78677" lon="2.17855">
        <ele>45.8</ele>
        <time>2023-02-08T15:16:06Z</time>
      </trkpt>
      <trkpt lat="49.78675" lon="2.17854">
        <ele>45.8</ele>
        <time>2023-02-08T15:16:07Z</time>
      </trkpt>
      <trkpt lat="49.78675" lon="2.17853">
        <ele>45.8</ele>
        <time>2023-02-08T15:16:09Z</time>
      </trkpt>
      <trkpt lat="49.78674" lon="2.17852">
        <ele>45.8</ele>
        <time>2023-02-08T15:16:10Z</time>
      </trkpt>
      <trkpt lat="49.78673" lon="2.17851">
        <ele>45.8</ele>
        <time>2023-02-08T15:16:11Z</time>
      </trkpt>
      <trkpt lat="49.78671" lon="2.1785">
        <ele>45.8</ele>
        <time>2023-02-08T15:16:12Z</time>
      </trkpt>
      <trkpt lat="49.78671" lon="2.17849">
        <ele>45.8</ele>
        <time>2023-02-08T15:16:13Z</time>
      </trkpt>
      <trkpt lat="49.7867" lon="2.17848">
        <ele>45.8</ele>
        <time>2023-02-08T15:16:14Z</time>
      </trkpt>
      <trkpt lat="49.78669" lon="2.17847">
        <ele>45.8</ele>
        <time>2023-02-08T15:16:15Z</time>
      </trkpt>
      <trkpt lat="49.78668" lon="2.17845">
        <ele>45.8</ele>
        <time>2023-02-08T15:16:16Z</time>
      </trkpt>
      <trkpt lat="49.78666" lon="2.17844">
        <ele>45.8</ele>
        <time>2023-02-08T15:16:18Z</time>
      </trkpt>
      <trkpt lat="49.78666" lon="2.17844">
        <ele>45.8</ele>
        <time>2023-02-08T15:16:19Z</time>
      </trkpt>
      <trkpt lat="49.78665" lon="2.17843">
        <ele>45.9</ele>
        <time>2023-02-08T15:16:20Z</time>
      </trkpt>
      <trkpt lat="49.78664" lon="2.17842">
        <ele>45.9</ele>
        <time>2023-02-08T15:16:21Z</time>
      </trkpt>
      <trkpt lat="49.78663" lon="2.1784">
        <ele>45.9</ele>
        <time>2023-02-08T15:16:22Z</time>
      </trkpt>
      <trkpt lat="49.78662" lon="2.17839">
        <ele>45.9</ele>
        <time>2023-02-08T15:16:23Z</time>
      </trkpt>
      <trkpt lat="49.78661" lon="2.17838">
        <ele>45.9</ele>
        <time>2023-02-08T15:16:24Z</time>
      </trkpt>
      <trkpt lat="49.7866" lon="2.17837">
        <ele>45.9</ele>
        <time>2023-02-08T15:16:25Z</time>
      </trkpt>
      <trkpt lat="49.78659" lon="2.17836">
        <ele>45.9</ele>
        <time>2023-02-08T15:16:26Z</time>
      </trkpt>
      <trkpt lat="49.78658" lon="2.17835">
        <ele>45.9</ele>
        <time>2023-02-08T15:16:28Z</time>
      </trkpt>
      <trkpt lat="49.78658" lon="2.17834">
        <ele>45.9</ele>
        <time>2023-02-08T15:16:29Z</time>
      </trkpt>
      <trkpt lat="49.78656" lon="2.17832">
        <ele>45.9</ele>
        <time>2023-02-08T15:16:30Z</time>
      </trkpt>
      <trkpt lat="49.78655" lon="2.17831">
        <ele>45.9</ele>
        <time>2023-02-08T15:16:31Z</time>
      </trkpt>
      <trkpt lat="49.78654" lon="2.17831">
        <ele>45.9</ele>
        <time>2023-02-08T15:16:32Z</time>
      </trkpt>
      <trkpt lat="49.78654" lon="2.1783">
        <ele>45.9</ele>
        <time>2023-02-08T15:16:33Z</time>
      </trkpt>
      <trkpt lat="49.78653" lon="2.17829">
        <ele>45.9</ele>
        <time>2023-02-08T15:16:34Z</time>
      </trkpt>
      <trkpt lat="49.78652" lon="2.17829">
        <ele>45.9</ele>
        <time>2023-02-08T15:16:35Z</time>
      </trkpt>
      <trkpt lat="49.78651" lon="2.17828">
        <ele>45.9</ele>
        <time>2023-02-08T15:16:37Z</time>
      </trkpt>
      <trkpt lat="49.7865" lon="2.17827">
        <ele>45.9</ele>
        <time>2023-02-08T15:16:38Z</time>
      </trkpt>
      <trkpt lat="49.78649" lon="2.17826">
        <ele>45.9</ele>
        <time>2023-02-08T15:16:39Z</time>
      </trkpt>
      <trkpt lat="49.78647" lon="2.17823">
        <ele>45.9</ele>
        <time>2023-02-08T15:16:40Z</time>
      </trkpt>
      <trkpt lat="49.78646" lon="2.17822">
        <ele>45.9</ele>
        <time>2023-02-08T15:16:41Z</time>
      </trkpt>
      <trkpt lat="49.78645" lon="2.17822">
        <ele>45.9</ele>
        <time>2023-02-08T15:16:42Z</time>
      </trkpt>
      <trkpt lat="49.78644" lon="2.17821">
        <ele>45.9</ele>
        <time>2023-02-08T15:16:43Z</time>
      </trkpt>
      <trkpt lat="49.78643" lon="2.1782">
        <ele>45.9</ele>
        <time>2023-02-08T15:16:44Z</time>
      </trkpt>
      <trkpt lat="49.78642" lon="2.1782">
        <ele>45.9</ele>
        <time>2023-02-08T15:16:46Z</time>
      </trkpt>
      <trkpt lat="49.78641" lon="2.1782">
        <ele>45.9</ele>
        <time>2023-02-08T15:16:47Z</time>
      </trkpt>
      <trkpt lat="49.7864" lon="2.17819">
        <ele>45.9</ele>
        <time>2023-02-08T15:16:48Z</time>
      </trkpt>
      <trkpt lat="49.78639" lon="2.17819">
        <ele>45.9</ele>
        <time>2023-02-08T15:16:49Z</time>
      </trkpt>
      <trkpt lat="49.78638" lon="2.17818">
        <ele>45.9</ele>
        <time>2023-02-08T15:16:50Z</time>
      </trkpt>
      <trkpt lat="49.78636" lon="2.17817">
        <ele>45.9</ele>
        <time>2023-02-08T15:16:51Z</time>
      </trkpt>
      <trkpt lat="49.78635" lon="2.17816">
        <ele>45.9</ele>
        <time>2023-02-08T15:16:52Z</time>
      </trkpt>
      <trkpt lat="49.78634" lon="2.17815">
        <ele>45.9</ele>
        <time>2023-02-08T15:16:53Z</time>
      </trkpt>
      <trkpt lat="49.78633" lon="2.17814">
        <ele>45.9</ele>
        <time>2023-02-08T15:16:55Z</time>
      </trkpt>
      <trkpt lat="49.78632" lon="2.17813">
        <ele>45.9</ele>
        <time>2023-02-08T15:16:56Z</time>
      </trkpt>
      <trkpt lat="49.78631" lon="2.17812">
        <ele>45.9</ele>
        <time>2023-02-08T15:16:57Z</time>
      </trkpt>
      <trkpt lat="49.7863" lon="2.17811">
        <ele>45.9</ele>
        <time>2023-02-08T15:16:58Z</time>
      </trkpt>
      <trkpt lat="49.78629" lon="2.1781">
        <ele>45.9</ele>
        <time>2023-02-08T15:16:59Z</time>
      </trkpt>
      <trkpt lat="49.78628" lon="2.17809">
        <ele>45.9</ele>
        <time>2023-02-08T15:17:00Z</time>
      </trkpt>
      <trkpt lat="49.78627" lon="2.17808">
        <ele>45.9</ele>
        <time>2023-02-08T15:17:01Z</time>
      </trkpt>
      <trkpt lat="49.78625" lon="2.17807">
        <ele>45.9</ele>
        <time>2023-02-08T15:17:02Z</time>
      </trkpt>
      <trkpt lat="49.78624" lon="2.17806">
        <ele>45.9</ele>
        <time>2023-02-08T15:17:03Z</time>
      </trkpt>
      <trkpt lat="49.78624" lon="2.17806">
        <ele>45.9</ele>
        <time>2023-02-08T15:17:05Z</time>
      </trkpt>
      <trkpt lat="49.78622" lon="2.17804">
        <ele>45.9</ele>
        <time>2023-02-08T15:17:06Z</time>
      </trkpt>
      <trkpt lat="49.7862" lon="2.17803">
        <ele>45.9</ele>
        <time>2023-02-08T15:17:07Z</time>
      </trkpt>
      <trkpt lat="49.7862" lon="2.17802">
        <ele>45.9</ele>
        <time>2023-02-08T15:17:08Z</time>
      </trkpt>
      <trkpt lat="49.78618" lon="2.178">
        <ele>45.9</ele>
        <time>2023-02-08T15:17:10Z</time>
      </trkpt>
      <trkpt lat="49.78617" lon="2.17799">
        <ele>45.9</ele>
        <time>2023-02-08T15:17:11Z</time>
      </trkpt>
      <trkpt lat="49.78616" lon="2.17799">
        <ele>45.9</ele>
        <time>2023-02-08T15:17:12Z</time>
      </trkpt>
      <trkpt lat="49.78615" lon="2.17797">
        <ele>45.9</ele>
        <time>2023-02-08T15:17:13Z</time>
      </trkpt>
      <trkpt lat="49.78614" lon="2.17796">
        <ele>45.9</ele>
        <time>2023-02-08T15:17:14Z</time>
      </trkpt>
      <trkpt lat="49.78611" lon="2.17793">
        <ele>45.9</ele>
        <time>2023-02-08T15:17:16Z</time>
      </trkpt>
      <trkpt lat="49.7861" lon="2.17793">
        <ele>45.9</ele>
        <time>2023-02-08T15:17:17Z</time>
      </trkpt>
      <trkpt lat="49.7861" lon="2.17792">
        <ele>45.9</ele>
        <time>2023-02-08T15:17:19Z</time>
      </trkpt>
      <trkpt lat="49.78609" lon="2.17791">
        <ele>45.9</ele>
        <time>2023-02-08T15:17:20Z</time>
      </trkpt>
      <trkpt lat="49.78608" lon="2.1779">
        <ele>45.9</ele>
        <time>2023-02-08T15:17:21Z</time>
      </trkpt>
      <trkpt lat="49.78607" lon="2.17789">
        <ele>45.9</ele>
        <time>2023-02-08T15:17:22Z</time>
      </trkpt>
      <trkpt lat="49.78605" lon="2.17788">
        <ele>46</ele>
        <time>2023-02-08T15:17:23Z</time>
      </trkpt>
      <trkpt lat="49.78605" lon="2.17786">
        <ele>46</ele>
        <time>2023-02-08T15:17:24Z</time>
      </trkpt>
      <trkpt lat="49.78604" lon="2.17785">
        <ele>46</ele>
        <time>2023-02-08T15:17:25Z</time>
      </trkpt>
      <trkpt lat="49.78603" lon="2.17784">
        <ele>46</ele>
        <time>2023-02-08T15:17:26Z</time>
      </trkpt>
      <trkpt lat="49.78601" lon="2.17782">
        <ele>46</ele>
        <time>2023-02-08T15:17:28Z</time>
      </trkpt>
      <trkpt lat="49.78601" lon="2.17781">
        <ele>46</ele>
        <time>2023-02-08T15:17:29Z</time>
      </trkpt>
      <trkpt lat="49.78599" lon="2.1778">
        <ele>46</ele>
        <time>2023-02-08T15:17:30Z</time>
      </trkpt>
      <trkpt lat="49.78598" lon="2.17779">
        <ele>46</ele>
        <time>2023-02-08T15:17:31Z</time>
      </trkpt>
      <trkpt lat="49.78598" lon="2.17778">
        <ele>46</ele>
        <time>2023-02-08T15:17:32Z</time>
      </trkpt>
      <trkpt lat="49.78596" lon="2.17777">
        <ele>46</ele>
        <time>2023-02-08T15:17:33Z</time>
      </trkpt>
      <trkpt lat="49.78595" lon="2.17776">
        <ele>46</ele>
        <time>2023-02-08T15:17:34Z</time>
      </trkpt>
      <trkpt lat="49.78594" lon="2.17776">
        <ele>46</ele>
        <time>2023-02-08T15:17:35Z</time>
      </trkpt>
      <trkpt lat="49.78592" lon="2.17773">
        <ele>46</ele>
        <time>2023-02-08T15:17:36Z</time>
      </trkpt>
      <trkpt lat="49.78592" lon="2.17772">
        <ele>46</ele>
        <time>2023-02-08T15:17:38Z</time>
      </trkpt>
      <trkpt lat="49.78591" lon="2.17771">
        <ele>46</ele>
        <time>2023-02-08T15:17:39Z</time>
      </trkpt>
      <trkpt lat="49.7859" lon="2.1777">
        <ele>46</ele>
        <time>2023-02-08T15:17:40Z</time>
      </trkpt>
      <trkpt lat="49.78589" lon="2.17769">
        <ele>46</ele>
        <time>2023-02-08T15:17:41Z</time>
      </trkpt>
      <trkpt lat="49.78587" lon="2.17768">
        <ele>46</ele>
        <time>2023-02-08T15:17:42Z</time>
      </trkpt>
      <trkpt lat="49.78586" lon="2.17767">
        <ele>46</ele>
        <time>2023-02-08T15:17:43Z</time>
      </trkpt>
      <trkpt lat="49.78586" lon="2.17766">
        <ele>46</ele>
        <time>2023-02-08T15:17:44Z</time>
      </trkpt>
      <trkpt lat="49.78584" lon="2.17765">
        <ele>46</ele>
        <time>2023-02-08T15:17:45Z</time>
      </trkpt>
      <trkpt lat="49.78583" lon="2.17764">
        <ele>46</ele>
        <time>2023-02-08T15:17:47Z</time>
      </trkpt>
      <trkpt lat="49.78582" lon="2.17764">
        <ele>46</ele>
        <time>2023-02-08T15:17:48Z</time>
      </trkpt>
      <trkpt lat="49.78581" lon="2.17763">
        <ele>46</ele>
        <time>2023-02-08T15:17:49Z</time>
      </trkpt>
      <trkpt lat="49.7858" lon="2.17762">
        <ele>46</ele>
        <time>2023-02-08T15:17:50Z</time>
      </trkpt>
      <trkpt lat="49.78579" lon="2.17761">
        <ele>46</ele>
        <time>2023-02-08T15:17:51Z</time>
      </trkpt>
      <trkpt lat="49.78578" lon="2.17761">
        <ele>46</ele>
        <time>2023-02-08T15:17:52Z</time>
      </trkpt>
      <trkpt lat="49.78577" lon="2.1776">
        <ele>46</ele>
        <time>2023-02-08T15:17:53Z</time>
      </trkpt>
      <trkpt lat="49.78576" lon="2.17759">
        <ele>46</ele>
        <time>2023-02-08T15:17:54Z</time>
      </trkpt>
      <trkpt lat="49.78574" lon="2.17757">
        <ele>46</ele>
        <time>2023-02-08T15:17:55Z</time>
      </trkpt>
      <trkpt lat="49.78574" lon="2.17757">
        <ele>46</ele>
        <time>2023-02-08T15:17:57Z</time>
      </trkpt>
      <trkpt lat="49.78573" lon="2.17756">
        <ele>46</ele>
        <time>2023-02-08T15:17:58Z</time>
      </trkpt>
      <trkpt lat="49.78571" lon="2.17754">
        <ele>46</ele>
        <time>2023-02-08T15:17:59Z</time>
      </trkpt>
      <trkpt lat="49.7857" lon="2.17754">
        <ele>46</ele>
        <time>2023-02-08T15:18:01Z</time>
      </trkpt>
      <trkpt lat="49.78569" lon="2.17753">
        <ele>46</ele>
        <time>2023-02-08T15:18:02Z</time>
      </trkpt>
      <trkpt lat="49.78568" lon="2.17752">
        <ele>46</ele>
        <time>2023-02-08T15:18:03Z</time>
      </trkpt>
      <trkpt lat="49.78567" lon="2.17751">
        <ele>46</ele>
        <time>2023-02-08T15:18:04Z</time>
      </trkpt>
      <trkpt lat="49.78565" lon="2.1775">
        <ele>46</ele>
        <time>2023-02-08T15:18:05Z</time>
      </trkpt>
      <trkpt lat="49.78565" lon="2.17749">
        <ele>46.1</ele>
        <time>2023-02-08T15:18:06Z</time>
      </trkpt>
      <trkpt lat="49.78564" lon="2.17748">
        <ele>46.1</ele>
        <time>2023-02-08T15:18:07Z</time>
      </trkpt>
      <trkpt lat="49.78562" lon="2.17747">
        <ele>46.1</ele>
        <time>2023-02-08T15:18:08Z</time>
      </trkpt>
      <trkpt lat="49.78562" lon="2.17747">
        <ele>46.1</ele>
        <time>2023-02-08T15:18:09Z</time>
      </trkpt>
      <trkpt lat="49.78561" lon="2.17746">
        <ele>46.1</ele>
        <time>2023-02-08T15:18:11Z</time>
      </trkpt>
      <trkpt lat="49.7856" lon="2.17746">
        <ele>46.1</ele>
        <time>2023-02-08T15:18:12Z</time>
      </trkpt>
      <trkpt lat="49.78558" lon="2.17745">
        <ele>46.1</ele>
        <time>2023-02-08T15:18:13Z</time>
      </trkpt>
      <trkpt lat="49.78558" lon="2.17744">
        <ele>46.1</ele>
        <time>2023-02-08T15:18:14Z</time>
      </trkpt>
      <trkpt lat="49.78557" lon="2.17744">
        <ele>46.1</ele>
        <time>2023-02-08T15:18:15Z</time>
      </trkpt>
      <trkpt lat="49.78556" lon="2.17743">
        <ele>46.1</ele>
        <time>2023-02-08T15:18:16Z</time>
      </trkpt>
      <trkpt lat="49.78555" lon="2.17743">
        <ele>46.1</ele>
        <time>2023-02-08T15:18:17Z</time>
      </trkpt>
      <trkpt lat="49.78552" lon="2.17741">
        <ele>46.1</ele>
        <time>2023-02-08T15:18:18Z</time>
      </trkpt>
      <trkpt lat="49.78552" lon="2.1774">
        <ele>46.1</ele>
        <time>2023-02-08T15:18:20Z</time>
      </trkpt>
      <trkpt lat="49.78551" lon="2.1774">
        <ele>46.1</ele>
        <time>2023-02-08T15:18:21Z</time>
      </trkpt>
      <trkpt lat="49.7855" lon="2.17739">
        <ele>46.1</ele>
        <time>2023-02-08T15:18:22Z</time>
      </trkpt>
      <trkpt lat="49.78549" lon="2.17738">
        <ele>46.1</ele>
        <time>2023-02-08T15:18:23Z</time>
      </trkpt>
      <trkpt lat="49.78548" lon="2.17738">
        <ele>46.1</ele>
        <time>2023-02-08T15:18:24Z</time>
      </trkpt>
      <trkpt lat="49.78547" lon="2.17736">
        <ele>46.1</ele>
        <time>2023-02-08T15:18:25Z</time>
      </trkpt>
      <trkpt lat="49.78546" lon="2.17735">
        <ele>46.1</ele>
        <time>2023-02-08T15:18:26Z</time>
      </trkpt>
      <trkpt lat="49.78545" lon="2.17734">
        <ele>46.1</ele>
        <time>2023-02-08T15:18:27Z</time>
      </trkpt>
      <trkpt lat="49.78544" lon="2.17733">
        <ele>46.1</ele>
        <time>2023-02-08T15:18:28Z</time>
      </trkpt>
      <trkpt lat="49.78543" lon="2.17732">
        <ele>46.1</ele>
        <time>2023-02-08T15:18:30Z</time>
      </trkpt>
      <trkpt lat="49.78542" lon="2.17731">
        <ele>46.1</ele>
        <time>2023-02-08T15:18:31Z</time>
      </trkpt>
      <trkpt lat="49.78541" lon="2.1773">
        <ele>46.1</ele>
        <time>2023-02-08T15:18:32Z</time>
      </trkpt>
      <trkpt lat="49.7854" lon="2.17728">
        <ele>46.2</ele>
        <time>2023-02-08T15:18:33Z</time>
      </trkpt>
      <trkpt lat="49.78539" lon="2.17727">
        <ele>46.2</ele>
        <time>2023-02-08T15:18:34Z</time>
      </trkpt>
      <trkpt lat="49.78537" lon="2.17726">
        <ele>46.2</ele>
        <time>2023-02-08T15:18:35Z</time>
      </trkpt>
      <trkpt lat="49.78536" lon="2.17725">
        <ele>46.2</ele>
        <time>2023-02-08T15:18:36Z</time>
      </trkpt>
      <trkpt lat="49.78535" lon="2.17724">
        <ele>46.2</ele>
        <time>2023-02-08T15:18:37Z</time>
      </trkpt>
      <trkpt lat="49.78534" lon="2.17723">
        <ele>46.2</ele>
        <time>2023-02-08T15:18:39Z</time>
      </trkpt>
      <trkpt lat="49.78533" lon="2.17723">
        <ele>46.2</ele>
        <time>2023-02-08T15:18:40Z</time>
      </trkpt>
      <trkpt lat="49.78532" lon="2.17722">
        <ele>46.2</ele>
        <time>2023-02-08T15:18:41Z</time>
      </trkpt>
      <trkpt lat="49.78531" lon="2.1772">
        <ele>46.2</ele>
        <time>2023-02-08T15:18:42Z</time>
      </trkpt>
      <trkpt lat="49.7853" lon="2.17719">
        <ele>46.2</ele>
        <time>2023-02-08T15:18:43Z</time>
      </trkpt>
      <trkpt lat="49.78529" lon="2.17718">
        <ele>46.2</ele>
        <time>2023-02-08T15:18:44Z</time>
      </trkpt>
      <trkpt lat="49.78528" lon="2.17717">
        <ele>46.2</ele>
        <time>2023-02-08T15:18:45Z</time>
      </trkpt>
      <trkpt lat="49.78527" lon="2.17716">
        <ele>46.2</ele>
        <time>2023-02-08T15:18:46Z</time>
      </trkpt>
      <trkpt lat="49.78526" lon="2.17715">
        <ele>46.2</ele>
        <time>2023-02-08T15:18:47Z</time>
      </trkpt>
      <trkpt lat="49.78524" lon="2.17714">
        <ele>46.2</ele>
        <time>2023-02-08T15:18:48Z</time>
      </trkpt>
      <trkpt lat="49.78524" lon="2.17713">
        <ele>46.2</ele>
        <time>2023-02-08T15:18:49Z</time>
      </trkpt>
      <trkpt lat="49.78523" lon="2.17712">
        <ele>46.2</ele>
        <time>2023-02-08T15:18:51Z</time>
      </trkpt>
      <trkpt lat="49.78522" lon="2.1771">
        <ele>46.2</ele>
        <time>2023-02-08T15:18:52Z</time>
      </trkpt>
      <trkpt lat="49.7852" lon="2.17708">
        <ele>46.2</ele>
        <time>2023-02-08T15:18:53Z</time>
      </trkpt>
      <trkpt lat="49.78519" lon="2.17707">
        <ele>46.2</ele>
        <time>2023-02-08T15:18:54Z</time>
      </trkpt>
      <trkpt lat="49.78519" lon="2.17707">
        <ele>46.2</ele>
        <time>2023-02-08T15:18:55Z</time>
      </trkpt>
      <trkpt lat="49.78517" lon="2.17705">
        <ele>46.2</ele>
        <time>2023-02-08T15:18:56Z</time>
      </trkpt>
      <trkpt lat="49.78516" lon="2.17704">
        <ele>46.2</ele>
        <time>2023-02-08T15:18:57Z</time>
      </trkpt>
      <trkpt lat="49.78515" lon="2.17703">
        <ele>46.2</ele>
        <time>2023-02-08T15:18:58Z</time>
      </trkpt>
      <trkpt lat="49.78515" lon="2.17703">
        <ele>46.2</ele>
        <time>2023-02-08T15:19:00Z</time>
      </trkpt>
      <trkpt lat="49.78514" lon="2.17702">
        <ele>46.3</ele>
        <time>2023-02-08T15:19:01Z</time>
      </trkpt>
      <trkpt lat="49.78513" lon="2.17701">
        <ele>46.3</ele>
        <time>2023-02-08T15:19:02Z</time>
      </trkpt>
      <trkpt lat="49.78512" lon="2.17699">
        <ele>46.3</ele>
        <time>2023-02-08T15:19:03Z</time>
      </trkpt>
      <trkpt lat="49.78511" lon="2.17698">
        <ele>46.3</ele>
        <time>2023-02-08T15:19:04Z</time>
      </trkpt>
      <trkpt lat="49.7851" lon="2.17697">
        <ele>46.3</ele>
        <time>2023-02-08T15:19:05Z</time>
      </trkpt>
      <trkpt lat="49.78509" lon="2.17696">
        <ele>46.3</ele>
        <time>2023-02-08T15:19:07Z</time>
      </trkpt>
      <trkpt lat="49.78508" lon="2.17695">
        <ele>46.3</ele>
        <time>2023-02-08T15:19:08Z</time>
      </trkpt>
      <trkpt lat="49.78507" lon="2.17693">
        <ele>46.3</ele>
        <time>2023-02-08T15:19:09Z</time>
      </trkpt>
      <trkpt lat="49.78506" lon="2.17692">
        <ele>46.3</ele>
        <time>2023-02-08T15:19:10Z</time>
      </trkpt>
      <trkpt lat="49.78505" lon="2.1769">
        <ele>46.3</ele>
        <time>2023-02-08T15:19:11Z</time>
      </trkpt>
      <trkpt lat="49.78504" lon="2.17689">
        <ele>46.3</ele>
        <time>2023-02-08T15:19:12Z</time>
      </trkpt>
      <trkpt lat="49.78503" lon="2.17688">
        <ele>46.3</ele>
        <time>2023-02-08T15:19:13Z</time>
      </trkpt>
      <trkpt lat="49.78502" lon="2.17686">
        <ele>46.3</ele>
        <time>2023-02-08T15:19:15Z</time>
      </trkpt>
      <trkpt lat="49.78501" lon="2.17685">
        <ele>46.3</ele>
        <time>2023-02-08T15:19:16Z</time>
      </trkpt>
      <trkpt lat="49.78501" lon="2.17684">
        <ele>46.3</ele>
        <time>2023-02-08T15:19:17Z</time>
      </trkpt>
      <trkpt lat="49.785" lon="2.17681">
        <ele>46.3</ele>
        <time>2023-02-08T15:19:18Z</time>
      </trkpt>
      <trkpt lat="49.78499" lon="2.17681">
        <ele>46.3</ele>
        <time>2023-02-08T15:19:19Z</time>
      </trkpt>
      <trkpt lat="49.78499" lon="2.1768">
        <ele>46.3</ele>
        <time>2023-02-08T15:19:20Z</time>
      </trkpt>
      <trkpt lat="49.78497" lon="2.17677">
        <ele>46.3</ele>
        <time>2023-02-08T15:19:22Z</time>
      </trkpt>
      <trkpt lat="49.78496" lon="2.17676">
        <ele>46.3</ele>
        <time>2023-02-08T15:19:23Z</time>
      </trkpt>
      <trkpt lat="49.78496" lon="2.17675">
        <ele>46.3</ele>
        <time>2023-02-08T15:19:24Z</time>
      </trkpt>
      <trkpt lat="49.78495" lon="2.17674">
        <ele>46.3</ele>
        <time>2023-02-08T15:19:25Z</time>
      </trkpt>
      <trkpt lat="49.78494" lon="2.17673">
        <ele>46.3</ele>
        <time>2023-02-08T15:19:26Z</time>
      </trkpt>
      <trkpt lat="49.78493" lon="2.17672">
        <ele>46.3</ele>
        <time>2023-02-08T15:19:27Z</time>
      </trkpt>
      <trkpt lat="49.78492" lon="2.1767">
        <ele>46.3</ele>
        <time>2023-02-08T15:19:28Z</time>
      </trkpt>
      <trkpt lat="49.78491" lon="2.17669">
        <ele>46.3</ele>
        <time>2023-02-08T15:19:30Z</time>
      </trkpt>
      <trkpt lat="49.7849" lon="2.17668">
        <ele>46.3</ele>
        <time>2023-02-08T15:19:31Z</time>
      </trkpt>
      <trkpt lat="49.78489" lon="2.17668">
        <ele>46.3</ele>
        <time>2023-02-08T15:19:32Z</time>
      </trkpt>
      <trkpt lat="49.78488" lon="2.17666">
        <ele>46.3</ele>
        <time>2023-02-08T15:19:33Z</time>
      </trkpt>
      <trkpt lat="49.78487" lon="2.17666">
        <ele>46.3</ele>
        <time>2023-02-08T15:19:34Z</time>
      </trkpt>
      <trkpt lat="49.78486" lon="2.17665">
        <ele>46.4</ele>
        <time>2023-02-08T15:19:35Z</time>
      </trkpt>
      <trkpt lat="49.78485" lon="2.17664">
        <ele>46.4</ele>
        <time>2023-02-08T15:19:36Z</time>
      </trkpt>
      <trkpt lat="49.78483" lon="2.17663">
        <ele>46.4</ele>
        <time>2023-02-08T15:19:37Z</time>
      </trkpt>
      <trkpt lat="49.78482" lon="2.17663">
        <ele>46.4</ele>
        <time>2023-02-08T15:19:38Z</time>
      </trkpt>
      <trkpt lat="49.78481" lon="2.17662">
        <ele>46.4</ele>
        <time>2023-02-08T15:19:39Z</time>
      </trkpt>
      <trkpt lat="49.7848" lon="2.17661">
        <ele>46.4</ele>
        <time>2023-02-08T15:19:40Z</time>
      </trkpt>
      <trkpt lat="49.78479" lon="2.17661">
        <ele>46.4</ele>
        <time>2023-02-08T15:19:42Z</time>
      </trkpt>
      <trkpt lat="49.78478" lon="2.1766">
        <ele>46.4</ele>
        <time>2023-02-08T15:19:43Z</time>
      </trkpt>
      <trkpt lat="49.78476" lon="2.17658">
        <ele>46.4</ele>
        <time>2023-02-08T15:19:44Z</time>
      </trkpt>
      <trkpt lat="49.78475" lon="2.17658">
        <ele>46.4</ele>
        <time>2023-02-08T15:19:45Z</time>
      </trkpt>
      <trkpt lat="49.78475" lon="2.17658">
        <ele>46.4</ele>
        <time>2023-02-08T15:19:46Z</time>
      </trkpt>
      <trkpt lat="49.78473" lon="2.17657">
        <ele>46.4</ele>
        <time>2023-02-08T15:19:47Z</time>
      </trkpt>
      <trkpt lat="49.78472" lon="2.17656">
        <ele>46.4</ele>
        <time>2023-02-08T15:19:48Z</time>
      </trkpt>
      <trkpt lat="49.7847" lon="2.17655">
        <ele>46.4</ele>
        <time>2023-02-08T15:19:49Z</time>
      </trkpt>
      <trkpt lat="49.7847" lon="2.17654">
        <ele>46.4</ele>
        <time>2023-02-08T15:19:50Z</time>
      </trkpt>
      <trkpt lat="49.78469" lon="2.17653">
        <ele>46.4</ele>
        <time>2023-02-08T15:19:51Z</time>
      </trkpt>
      <trkpt lat="49.78468" lon="2.17653">
        <ele>46.4</ele>
        <time>2023-02-08T15:19:53Z</time>
      </trkpt>
      <trkpt lat="49.78467" lon="2.17652">
        <ele>46.5</ele>
        <time>2023-02-08T15:19:54Z</time>
      </trkpt>
      <trkpt lat="49.78465" lon="2.1765">
        <ele>46.5</ele>
        <time>2023-02-08T15:19:55Z</time>
      </trkpt>
      <trkpt lat="49.78464" lon="2.17649">
        <ele>46.5</ele>
        <time>2023-02-08T15:19:56Z</time>
      </trkpt>
      <trkpt lat="49.78463" lon="2.17649">
        <ele>46.5</ele>
        <time>2023-02-08T15:19:57Z</time>
      </trkpt>
      <trkpt lat="49.78462" lon="2.17648">
        <ele>46.5</ele>
        <time>2023-02-08T15:19:58Z</time>
      </trkpt>
      <trkpt lat="49.78461" lon="2.17646">
        <ele>46.5</ele>
        <time>2023-02-08T15:19:59Z</time>
      </trkpt>
      <trkpt lat="49.7846" lon="2.17646">
        <ele>46.5</ele>
        <time>2023-02-08T15:20:00Z</time>
      </trkpt>
      <trkpt lat="49.78459" lon="2.17645">
        <ele>46.5</ele>
        <time>2023-02-08T15:20:01Z</time>
      </trkpt>
      <trkpt lat="49.78458" lon="2.17644">
        <ele>46.5</ele>
        <time>2023-02-08T15:20:03Z</time>
      </trkpt>
      <trkpt lat="49.78458" lon="2.17643">
        <ele>46.5</ele>
        <time>2023-02-08T15:20:04Z</time>
      </trkpt>
      <trkpt lat="49.78457" lon="2.17642">
        <ele>46.5</ele>
        <time>2023-02-08T15:20:05Z</time>
      </trkpt>
      <trkpt lat="49.78456" lon="2.17641">
        <ele>46.5</ele>
        <time>2023-02-08T15:20:06Z</time>
      </trkpt>
      <trkpt lat="49.78455" lon="2.17638">
        <ele>46.5</ele>
        <time>2023-02-08T15:20:07Z</time>
      </trkpt>
      <trkpt lat="49.78454" lon="2.17637">
        <ele>46.5</ele>
        <time>2023-02-08T15:20:08Z</time>
      </trkpt>
      <trkpt lat="49.78454" lon="2.17636">
        <ele>46.5</ele>
        <time>2023-02-08T15:20:09Z</time>
      </trkpt>
      <trkpt lat="49.78453" lon="2.17635">
        <ele>46.5</ele>
        <time>2023-02-08T15:20:10Z</time>
      </trkpt>
      <trkpt lat="49.78452" lon="2.17634">
        <ele>46.5</ele>
        <time>2023-02-08T15:20:11Z</time>
      </trkpt>
      <trkpt lat="49.78452" lon="2.17633">
        <ele>46.5</ele>
        <time>2023-02-08T15:20:12Z</time>
      </trkpt>
      <trkpt lat="49.78451" lon="2.17631">
        <ele>46.5</ele>
        <time>2023-02-08T15:20:14Z</time>
      </trkpt>
      <trkpt lat="49.7845" lon="2.1763">
        <ele>46.5</ele>
        <time>2023-02-08T15:20:15Z</time>
      </trkpt>
      <trkpt lat="49.7845" lon="2.17629">
        <ele>46.5</ele>
        <time>2023-02-08T15:20:16Z</time>
      </trkpt>
      <trkpt lat="49.78448" lon="2.17626">
        <ele>46.5</ele>
        <time>2023-02-08T15:20:17Z</time>
      </trkpt>
      <trkpt lat="49.78447" lon="2.17625">
        <ele>46.5</ele>
        <time>2023-02-08T15:20:18Z</time>
      </trkpt>
      <trkpt lat="49.78446" lon="2.17624">
        <ele>46.5</ele>
        <time>2023-02-08T15:20:19Z</time>
      </trkpt>
      <trkpt lat="49.78446" lon="2.17622">
        <ele>46.5</ele>
        <time>2023-02-08T15:20:20Z</time>
      </trkpt>
      <trkpt lat="49.78445" lon="2.17621">
        <ele>46.5</ele>
        <time>2023-02-08T15:20:21Z</time>
      </trkpt>
      <trkpt lat="49.78444" lon="2.1762">
        <ele>46.5</ele>
        <time>2023-02-08T15:20:23Z</time>
      </trkpt>
      <trkpt lat="49.78444" lon="2.17618">
        <ele>46.5</ele>
        <time>2023-02-08T15:20:24Z</time>
      </trkpt>
      <trkpt lat="49.78443" lon="2.17617">
        <ele>46.5</ele>
        <time>2023-02-08T15:20:25Z</time>
      </trkpt>
      <trkpt lat="49.78443" lon="2.17616">
        <ele>46.5</ele>
        <time>2023-02-08T15:20:26Z</time>
      </trkpt>
      <trkpt lat="49.78441" lon="2.17613">
        <ele>46.5</ele>
        <time>2023-02-08T15:20:27Z</time>
      </trkpt>
      <trkpt lat="49.78441" lon="2.17612">
        <ele>46.5</ele>
        <time>2023-02-08T15:20:28Z</time>
      </trkpt>
      <trkpt lat="49.7844" lon="2.17611">
        <ele>46.5</ele>
        <time>2023-02-08T15:20:29Z</time>
      </trkpt>
      <trkpt lat="49.78439" lon="2.1761">
        <ele>46.5</ele>
        <time>2023-02-08T15:20:30Z</time>
      </trkpt>
      <trkpt lat="49.78438" lon="2.17608">
        <ele>46.5</ele>
        <time>2023-02-08T15:20:31Z</time>
      </trkpt>
      <trkpt lat="49.78438" lon="2.17607">
        <ele>46.5</ele>
        <time>2023-02-08T15:20:32Z</time>
      </trkpt>
      <trkpt lat="49.78437" lon="2.17605">
        <ele>46.5</ele>
        <time>2023-02-08T15:20:33Z</time>
      </trkpt>
      <trkpt lat="49.78436" lon="2.17603">
        <ele>46.5</ele>
        <time>2023-02-08T15:20:34Z</time>
      </trkpt>
      <trkpt lat="49.78436" lon="2.17602">
        <ele>46.5</ele>
        <time>2023-02-08T15:20:36Z</time>
      </trkpt>
      <trkpt lat="49.78435" lon="2.17601">
        <ele>46.5</ele>
        <time>2023-02-08T15:20:37Z</time>
      </trkpt>
      <trkpt lat="49.78434" lon="2.176">
        <ele>46.5</ele>
        <time>2023-02-08T15:20:38Z</time>
      </trkpt>
      <trkpt lat="49.78433" lon="2.17598">
        <ele>46.5</ele>
        <time>2023-02-08T15:20:39Z</time>
      </trkpt>
      <trkpt lat="49.78432" lon="2.17597">
        <ele>46.5</ele>
        <time>2023-02-08T15:20:40Z</time>
      </trkpt>
      <trkpt lat="49.78431" lon="2.17595">
        <ele>46.5</ele>
        <time>2023-02-08T15:20:41Z</time>
      </trkpt>
      <trkpt lat="49.7843" lon="2.17594">
        <ele>46.5</ele>
        <time>2023-02-08T15:20:43Z</time>
      </trkpt>
      <trkpt lat="49.7843" lon="2.17593">
        <ele>46.5</ele>
        <time>2023-02-08T15:20:44Z</time>
      </trkpt>
      <trkpt lat="49.78429" lon="2.1759">
        <ele>46.5</ele>
        <time>2023-02-08T15:20:45Z</time>
      </trkpt>
      <trkpt lat="49.78428" lon="2.17589">
        <ele>46.5</ele>
        <time>2023-02-08T15:20:46Z</time>
      </trkpt>
      <trkpt lat="49.78427" lon="2.17586">
        <ele>46.5</ele>
        <time>2023-02-08T15:20:47Z</time>
      </trkpt>
      <trkpt lat="49.78426" lon="2.17585">
        <ele>46.5</ele>
        <time>2023-02-08T15:20:48Z</time>
      </trkpt>
      <trkpt lat="49.78426" lon="2.17583">
        <ele>46.5</ele>
        <time>2023-02-08T15:20:49Z</time>
      </trkpt>
      <trkpt lat="49.78425" lon="2.17582">
        <ele>46.5</ele>
        <time>2023-02-08T15:20:51Z</time>
      </trkpt>
      <trkpt lat="49.78424" lon="2.17581">
        <ele>46.5</ele>
        <time>2023-02-08T15:20:52Z</time>
      </trkpt>
      <trkpt lat="49.78423" lon="2.17579">
        <ele>46.5</ele>
        <time>2023-02-08T15:20:53Z</time>
      </trkpt>
      <trkpt lat="49.78422" lon="2.17578">
        <ele>46.5</ele>
        <time>2023-02-08T15:20:54Z</time>
      </trkpt>
      <trkpt lat="49.78421" lon="2.17576">
        <ele>46.5</ele>
        <time>2023-02-08T15:20:55Z</time>
      </trkpt>
      <trkpt lat="49.7842" lon="2.17575">
        <ele>46.6</ele>
        <time>2023-02-08T15:20:56Z</time>
      </trkpt>
      <trkpt lat="49.78419" lon="2.17574">
        <ele>46.6</ele>
        <time>2023-02-08T15:20:57Z</time>
      </trkpt>
      <trkpt lat="49.78418" lon="2.17573">
        <ele>46.6</ele>
        <time>2023-02-08T15:20:58Z</time>
      </trkpt>
      <trkpt lat="49.78416" lon="2.17571">
        <ele>46.6</ele>
        <time>2023-02-08T15:20:59Z</time>
      </trkpt>
      <trkpt lat="49.78415" lon="2.17571">
        <ele>46.6</ele>
        <time>2023-02-08T15:21:00Z</time>
      </trkpt>
      <trkpt lat="49.78414" lon="2.17569">
        <ele>46.6</ele>
        <time>2023-02-08T15:21:02Z</time>
      </trkpt>
      <trkpt lat="49.78413" lon="2.17568">
        <ele>46.6</ele>
        <time>2023-02-08T15:21:03Z</time>
      </trkpt>
      <trkpt lat="49.78412" lon="2.17567">
        <ele>46.6</ele>
        <time>2023-02-08T15:21:04Z</time>
      </trkpt>
      <trkpt lat="49.78411" lon="2.17564">
        <ele>46.6</ele>
        <time>2023-02-08T15:21:05Z</time>
      </trkpt>
      <trkpt lat="49.7841" lon="2.17564">
        <ele>46.6</ele>
        <time>2023-02-08T15:21:06Z</time>
      </trkpt>
      <trkpt lat="49.7841" lon="2.17563">
        <ele>46.6</ele>
        <time>2023-02-08T15:21:07Z</time>
      </trkpt>
      <trkpt lat="49.78409" lon="2.17562">
        <ele>46.6</ele>
        <time>2023-02-08T15:21:08Z</time>
      </trkpt>
      <trkpt lat="49.78408" lon="2.1756">
        <ele>46.6</ele>
        <time>2023-02-08T15:21:09Z</time>
      </trkpt>
      <trkpt lat="49.78408" lon="2.17558">
        <ele>46.6</ele>
        <time>2023-02-08T15:21:11Z</time>
      </trkpt>
      <trkpt lat="49.78408" lon="2.17557">
        <ele>46.6</ele>
        <time>2023-02-08T15:21:12Z</time>
      </trkpt>
      <trkpt lat="49.78407" lon="2.17555">
        <ele>46.6</ele>
        <time>2023-02-08T15:21:13Z</time>
      </trkpt>
      <trkpt lat="49.78406" lon="2.17554">
        <ele>46.6</ele>
        <time>2023-02-08T15:21:14Z</time>
      </trkpt>
      <trkpt lat="49.78405" lon="2.17552">
        <ele>46.6</ele>
        <time>2023-02-08T15:21:15Z</time>
      </trkpt>
      <trkpt lat="49.78404" lon="2.17551">
        <ele>46.6</ele>
        <time>2023-02-08T15:21:16Z</time>
      </trkpt>
      <trkpt lat="49.78402" lon="2.17548">
        <ele>46.6</ele>
        <time>2023-02-08T15:21:18Z</time>
      </trkpt>
      <trkpt lat="49.78401" lon="2.17547">
        <ele>46.6</ele>
        <time>2023-02-08T15:21:19Z</time>
      </trkpt>
      <trkpt lat="49.784" lon="2.17547">
        <ele>46.6</ele>
        <time>2023-02-08T15:21:20Z</time>
      </trkpt>
      <trkpt lat="49.78399" lon="2.17545">
        <ele>46.6</ele>
        <time>2023-02-08T15:21:21Z</time>
      </trkpt>
      <trkpt lat="49.78398" lon="2.17544">
        <ele>46.6</ele>
        <time>2023-02-08T15:21:22Z</time>
      </trkpt>
      <trkpt lat="49.78397" lon="2.17543">
        <ele>46.6</ele>
        <time>2023-02-08T15:21:23Z</time>
      </trkpt>
      <trkpt lat="49.78395" lon="2.1754">
        <ele>46.6</ele>
        <time>2023-02-08T15:21:24Z</time>
      </trkpt>
      <trkpt lat="49.78394" lon="2.17539">
        <ele>46.6</ele>
        <time>2023-02-08T15:21:26Z</time>
      </trkpt>
      <trkpt lat="49.78393" lon="2.17538">
        <ele>46.6</ele>
        <time>2023-02-08T15:21:27Z</time>
      </trkpt>
      <trkpt lat="49.78393" lon="2.17537">
        <ele>46.6</ele>
        <time>2023-02-08T15:21:28Z</time>
      </trkpt>
      <trkpt lat="49.78392" lon="2.17536">
        <ele>46.6</ele>
        <time>2023-02-08T15:21:29Z</time>
      </trkpt>
      <trkpt lat="49.78391" lon="2.17534">
        <ele>46.6</ele>
        <time>2023-02-08T15:21:30Z</time>
      </trkpt>
      <trkpt lat="49.7839" lon="2.17533">
        <ele>46.6</ele>
        <time>2023-02-08T15:21:31Z</time>
      </trkpt>
      <trkpt lat="49.78389" lon="2.17532">
        <ele>46.6</ele>
        <time>2023-02-08T15:21:32Z</time>
      </trkpt>
      <trkpt lat="49.78388" lon="2.17531">
        <ele>46.6</ele>
        <time>2023-02-08T15:21:33Z</time>
      </trkpt>
      <trkpt lat="49.78386" lon="2.17528">
        <ele>46.6</ele>
        <time>2023-02-08T15:21:35Z</time>
      </trkpt>
      <trkpt lat="49.78385" lon="2.17526">
        <ele>46.6</ele>
        <time>2023-02-08T15:21:36Z</time>
      </trkpt>
      <trkpt lat="49.78384" lon="2.17525">
        <ele>46.6</ele>
        <time>2023-02-08T15:21:38Z</time>
      </trkpt>
      <trkpt lat="49.78383" lon="2.17524">
        <ele>46.7</ele>
        <time>2023-02-08T15:21:39Z</time>
      </trkpt>
      <trkpt lat="49.78382" lon="2.17523">
        <ele>46.7</ele>
        <time>2023-02-08T15:21:41Z</time>
      </trkpt>
      <trkpt lat="49.78382" lon="2.17522">
        <ele>46.7</ele>
        <time>2023-02-08T15:21:42Z</time>
      </trkpt>
      <trkpt lat="49.78381" lon="2.17521">
        <ele>46.7</ele>
        <time>2023-02-08T15:21:43Z</time>
      </trkpt>
      <trkpt lat="49.7838" lon="2.1752">
        <ele>46.7</ele>
        <time>2023-02-08T15:21:44Z</time>
      </trkpt>
      <trkpt lat="49.78379" lon="2.17519">
        <ele>46.7</ele>
        <time>2023-02-08T15:21:45Z</time>
      </trkpt>
      <trkpt lat="49.78378" lon="2.17518">
        <ele>46.7</ele>
        <time>2023-02-08T15:21:46Z</time>
      </trkpt>
      <trkpt lat="49.78378" lon="2.17516">
        <ele>46.7</ele>
        <time>2023-02-08T15:21:47Z</time>
      </trkpt>
      <trkpt lat="49.78377" lon="2.17515">
        <ele>46.7</ele>
        <time>2023-02-08T15:21:48Z</time>
      </trkpt>
      <trkpt lat="49.78376" lon="2.17512">
        <ele>46.7</ele>
        <time>2023-02-08T15:21:49Z</time>
      </trkpt>
      <trkpt lat="49.78375" lon="2.17511">
        <ele>46.7</ele>
        <time>2023-02-08T15:21:51Z</time>
      </trkpt>
      <trkpt lat="49.78375" lon="2.17509">
        <ele>46.7</ele>
        <time>2023-02-08T15:21:52Z</time>
      </trkpt>
      <trkpt lat="49.78374" lon="2.17508">
        <ele>46.7</ele>
        <time>2023-02-08T15:21:53Z</time>
      </trkpt>
      <trkpt lat="49.78373" lon="2.17506">
        <ele>46.7</ele>
        <time>2023-02-08T15:21:55Z</time>
      </trkpt>
      <trkpt lat="49.78373" lon="2.17505">
        <ele>46.7</ele>
        <time>2023-02-08T15:21:56Z</time>
      </trkpt>
      <trkpt lat="49.78372" lon="2.17504">
        <ele>46.7</ele>
        <time>2023-02-08T15:21:57Z</time>
      </trkpt>
      <trkpt lat="49.78371" lon="2.17503">
        <ele>46.7</ele>
        <time>2023-02-08T15:21:58Z</time>
      </trkpt>
      <trkpt lat="49.7837" lon="2.17502">
        <ele>46.7</ele>
        <time>2023-02-08T15:21:59Z</time>
      </trkpt>
      <trkpt lat="49.78369" lon="2.175">
        <ele>46.7</ele>
        <time>2023-02-08T15:22:00Z</time>
      </trkpt>
      <trkpt lat="49.78368" lon="2.17499">
        <ele>46.7</ele>
        <time>2023-02-08T15:22:01Z</time>
      </trkpt>
      <trkpt lat="49.78367" lon="2.17497">
        <ele>46.7</ele>
        <time>2023-02-08T15:22:03Z</time>
      </trkpt>
      <trkpt lat="49.78366" lon="2.17495">
        <ele>46.7</ele>
        <time>2023-02-08T15:22:04Z</time>
      </trkpt>
      <trkpt lat="49.78365" lon="2.17493">
        <ele>46.8</ele>
        <time>2023-02-08T15:22:05Z</time>
      </trkpt>
      <trkpt lat="49.78364" lon="2.17492">
        <ele>46.8</ele>
        <time>2023-02-08T15:22:06Z</time>
      </trkpt>
      <trkpt lat="49.78363" lon="2.1749">
        <ele>46.8</ele>
        <time>2023-02-08T15:22:08Z</time>
      </trkpt>
      <trkpt lat="49.78362" lon="2.17489">
        <ele>46.8</ele>
        <time>2023-02-08T15:22:09Z</time>
      </trkpt>
      <trkpt lat="49.78361" lon="2.17487">
        <ele>46.8</ele>
        <time>2023-02-08T15:22:10Z</time>
      </trkpt>
      <trkpt lat="49.78359" lon="2.17486">
        <ele>46.8</ele>
        <time>2023-02-08T15:22:11Z</time>
      </trkpt>
      <trkpt lat="49.78359" lon="2.17485">
        <ele>46.8</ele>
        <time>2023-02-08T15:22:12Z</time>
      </trkpt>
      <trkpt lat="49.78358" lon="2.17484">
        <ele>46.8</ele>
        <time>2023-02-08T15:22:13Z</time>
      </trkpt>
      <trkpt lat="49.78357" lon="2.17483">
        <ele>46.8</ele>
        <time>2023-02-08T15:22:14Z</time>
      </trkpt>
      <trkpt lat="49.78356" lon="2.17482">
        <ele>46.8</ele>
        <time>2023-02-08T15:22:15Z</time>
      </trkpt>
      <trkpt lat="49.78355" lon="2.17481">
        <ele>46.8</ele>
        <time>2023-02-08T15:22:16Z</time>
      </trkpt>
      <trkpt lat="49.78354" lon="2.17479">
        <ele>46.8</ele>
        <time>2023-02-08T15:22:18Z</time>
      </trkpt>
      <trkpt lat="49.78353" lon="2.17478">
        <ele>46.8</ele>
        <time>2023-02-08T15:22:19Z</time>
      </trkpt>
      <trkpt lat="49.78351" lon="2.17476">
        <ele>46.8</ele>
        <time>2023-02-08T15:22:20Z</time>
      </trkpt>
      <trkpt lat="49.78351" lon="2.17475">
        <ele>46.8</ele>
        <time>2023-02-08T15:22:21Z</time>
      </trkpt>
      <trkpt lat="49.7835" lon="2.17475">
        <ele>46.8</ele>
        <time>2023-02-08T15:22:22Z</time>
      </trkpt>
      <trkpt lat="49.7835" lon="2.17473">
        <ele>46.8</ele>
        <time>2023-02-08T15:22:23Z</time>
      </trkpt>
      <trkpt lat="49.78348" lon="2.17471">
        <ele>46.8</ele>
        <time>2023-02-08T15:22:25Z</time>
      </trkpt>
      <trkpt lat="49.78347" lon="2.1747">
        <ele>46.8</ele>
        <time>2023-02-08T15:22:26Z</time>
      </trkpt>
      <trkpt lat="49.78346" lon="2.17469">
        <ele>46.9</ele>
        <time>2023-02-08T15:22:27Z</time>
      </trkpt>
      <trkpt lat="49.78345" lon="2.17468">
        <ele>46.9</ele>
        <time>2023-02-08T15:22:29Z</time>
      </trkpt>
      <trkpt lat="49.78344" lon="2.17467">
        <ele>46.9</ele>
        <time>2023-02-08T15:22:30Z</time>
      </trkpt>
      <trkpt lat="49.78343" lon="2.17466">
        <ele>46.9</ele>
        <time>2023-02-08T15:22:31Z</time>
      </trkpt>
      <trkpt lat="49.78343" lon="2.17465">
        <ele>46.9</ele>
        <time>2023-02-08T15:22:32Z</time>
      </trkpt>
      <trkpt lat="49.78341" lon="2.17464">
        <ele>46.9</ele>
        <time>2023-02-08T15:22:33Z</time>
      </trkpt>
      <trkpt lat="49.7834" lon="2.17463">
        <ele>46.9</ele>
        <time>2023-02-08T15:22:34Z</time>
      </trkpt>
      <trkpt lat="49.78339" lon="2.17462">
        <ele>46.9</ele>
        <time>2023-02-08T15:22:35Z</time>
      </trkpt>
      <trkpt lat="49.78338" lon="2.17461">
        <ele>46.9</ele>
        <time>2023-02-08T15:22:36Z</time>
      </trkpt>
      <trkpt lat="49.78337" lon="2.1746">
        <ele>46.9</ele>
        <time>2023-02-08T15:22:37Z</time>
      </trkpt>
      <trkpt lat="49.78335" lon="2.17458">
        <ele>46.9</ele>
        <time>2023-02-08T15:22:40Z</time>
      </trkpt>
      <trkpt lat="49.78335" lon="2.17458">
        <ele>46.9</ele>
        <time>2023-02-08T15:22:41Z</time>
      </trkpt>
      <trkpt lat="49.78334" lon="2.17456">
        <ele>46.9</ele>
        <time>2023-02-08T15:22:42Z</time>
      </trkpt>
      <trkpt lat="49.78332" lon="2.17454">
        <ele>46.9</ele>
        <time>2023-02-08T15:22:43Z</time>
      </trkpt>
      <trkpt lat="49.78331" lon="2.17453">
        <ele>46.9</ele>
        <time>2023-02-08T15:22:44Z</time>
      </trkpt>
      <trkpt lat="49.78331" lon="2.17452">
        <ele>46.9</ele>
        <time>2023-02-08T15:22:45Z</time>
      </trkpt>
      <trkpt lat="49.7833" lon="2.17451">
        <ele>46.9</ele>
        <time>2023-02-08T15:22:47Z</time>
      </trkpt>
      <trkpt lat="49.78329" lon="2.1745">
        <ele>46.9</ele>
        <time>2023-02-08T15:22:48Z</time>
      </trkpt>
      <trkpt lat="49.78328" lon="2.17449">
        <ele>47</ele>
        <time>2023-02-08T15:22:49Z</time>
      </trkpt>
      <trkpt lat="49.78326" lon="2.17447">
        <ele>47</ele>
        <time>2023-02-08T15:22:50Z</time>
      </trkpt>
      <trkpt lat="49.78325" lon="2.17446">
        <ele>47</ele>
        <time>2023-02-08T15:22:51Z</time>
      </trkpt>
      <trkpt lat="49.78325" lon="2.17445">
        <ele>47</ele>
        <time>2023-02-08T15:22:52Z</time>
      </trkpt>
      <trkpt lat="49.78323" lon="2.17443">
        <ele>47</ele>
        <time>2023-02-08T15:22:53Z</time>
      </trkpt>
      <trkpt lat="49.78323" lon="2.17442">
        <ele>47</ele>
        <time>2023-02-08T15:22:54Z</time>
      </trkpt>
      <trkpt lat="49.78322" lon="2.17441">
        <ele>47</ele>
        <time>2023-02-08T15:22:55Z</time>
      </trkpt>
      <trkpt lat="49.78321" lon="2.1744">
        <ele>47</ele>
        <time>2023-02-08T15:22:57Z</time>
      </trkpt>
      <trkpt lat="49.78321" lon="2.17439">
        <ele>47</ele>
        <time>2023-02-08T15:22:58Z</time>
      </trkpt>
      <trkpt lat="49.7832" lon="2.17438">
        <ele>47</ele>
        <time>2023-02-08T15:22:59Z</time>
      </trkpt>
      <trkpt lat="49.78318" lon="2.17436">
        <ele>47</ele>
        <time>2023-02-08T15:23:00Z</time>
      </trkpt>
      <trkpt lat="49.78318" lon="2.17436">
        <ele>47</ele>
        <time>2023-02-08T15:23:01Z</time>
      </trkpt>
      <trkpt lat="49.78317" lon="2.17435">
        <ele>47</ele>
        <time>2023-02-08T15:23:02Z</time>
      </trkpt>
      <trkpt lat="49.78316" lon="2.17432">
        <ele>47</ele>
        <time>2023-02-08T15:23:03Z</time>
      </trkpt>
      <trkpt lat="49.78315" lon="2.17432">
        <ele>47</ele>
        <time>2023-02-08T15:23:05Z</time>
      </trkpt>
      <trkpt lat="49.78314" lon="2.17431">
        <ele>47</ele>
        <time>2023-02-08T15:23:06Z</time>
      </trkpt>
      <trkpt lat="49.78313" lon="2.17429">
        <ele>47</ele>
        <time>2023-02-08T15:23:07Z</time>
      </trkpt>
      <trkpt lat="49.78312" lon="2.17428">
        <ele>47</ele>
        <time>2023-02-08T15:23:08Z</time>
      </trkpt>
      <trkpt lat="49.78311" lon="2.17426">
        <ele>47</ele>
        <time>2023-02-08T15:23:09Z</time>
      </trkpt>
      <trkpt lat="49.7831" lon="2.17424">
        <ele>47</ele>
        <time>2023-02-08T15:23:10Z</time>
      </trkpt>
      <trkpt lat="49.78309" lon="2.17423">
        <ele>47</ele>
        <time>2023-02-08T15:23:11Z</time>
      </trkpt>
      <trkpt lat="49.78308" lon="2.17422">
        <ele>47</ele>
        <time>2023-02-08T15:23:13Z</time>
      </trkpt>
      <trkpt lat="49.78307" lon="2.17421">
        <ele>47</ele>
        <time>2023-02-08T15:23:14Z</time>
      </trkpt>
      <trkpt lat="49.78306" lon="2.1742">
        <ele>47.1</ele>
        <time>2023-02-08T15:23:15Z</time>
      </trkpt>
      <trkpt lat="49.78305" lon="2.17418">
        <ele>47.1</ele>
        <time>2023-02-08T15:23:16Z</time>
      </trkpt>
      <trkpt lat="49.78305" lon="2.17417">
        <ele>47.1</ele>
        <time>2023-02-08T15:23:17Z</time>
      </trkpt>
      <trkpt lat="49.78303" lon="2.17415">
        <ele>47.1</ele>
        <time>2023-02-08T15:23:18Z</time>
      </trkpt>
      <trkpt lat="49.78302" lon="2.17414">
        <ele>47.1</ele>
        <time>2023-02-08T15:23:19Z</time>
      </trkpt>
      <trkpt lat="49.78302" lon="2.17413">
        <ele>47.1</ele>
        <time>2023-02-08T15:23:20Z</time>
      </trkpt>
      <trkpt lat="49.78301" lon="2.17412">
        <ele>47.1</ele>
        <time>2023-02-08T15:23:21Z</time>
      </trkpt>
      <trkpt lat="49.783" lon="2.17411">
        <ele>47.1</ele>
        <time>2023-02-08T15:23:22Z</time>
      </trkpt>
      <trkpt lat="49.783" lon="2.17409">
        <ele>47.1</ele>
        <time>2023-02-08T15:23:24Z</time>
      </trkpt>
      <trkpt lat="49.78299" lon="2.17408">
        <ele>47.1</ele>
        <time>2023-02-08T15:23:25Z</time>
      </trkpt>
      <trkpt lat="49.78298" lon="2.17407">
        <ele>47.1</ele>
        <time>2023-02-08T15:23:26Z</time>
      </trkpt>
      <trkpt lat="49.78298" lon="2.17405">
        <ele>47</ele>
        <time>2023-02-08T15:23:27Z</time>
      </trkpt>
      <trkpt lat="49.78297" lon="2.17404">
        <ele>47</ele>
        <time>2023-02-08T15:23:28Z</time>
      </trkpt>
      <trkpt lat="49.78296" lon="2.17403">
        <ele>47</ele>
        <time>2023-02-08T15:23:29Z</time>
      </trkpt>
      <trkpt lat="49.78294" lon="2.174">
        <ele>47</ele>
        <time>2023-02-08T15:23:31Z</time>
      </trkpt>
      <trkpt lat="49.78293" lon="2.17398">
        <ele>47</ele>
        <time>2023-02-08T15:23:32Z</time>
      </trkpt>
      <trkpt lat="49.78292" lon="2.17397">
        <ele>47</ele>
        <time>2023-02-08T15:23:33Z</time>
      </trkpt>
      <trkpt lat="49.78291" lon="2.17395">
        <ele>47</ele>
        <time>2023-02-08T15:23:35Z</time>
      </trkpt>
      <trkpt lat="49.7829" lon="2.17394">
        <ele>47</ele>
        <time>2023-02-08T15:23:36Z</time>
      </trkpt>
      <trkpt lat="49.7829" lon="2.17393">
        <ele>47</ele>
        <time>2023-02-08T15:23:37Z</time>
      </trkpt>
      <trkpt lat="49.78288" lon="2.17391">
        <ele>47</ele>
        <time>2023-02-08T15:23:38Z</time>
      </trkpt>
      <trkpt lat="49.78287" lon="2.1739">
        <ele>47</ele>
        <time>2023-02-08T15:23:39Z</time>
      </trkpt>
      <trkpt lat="49.78286" lon="2.17389">
        <ele>47</ele>
        <time>2023-02-08T15:23:40Z</time>
      </trkpt>
      <trkpt lat="49.78285" lon="2.17387">
        <ele>47</ele>
        <time>2023-02-08T15:23:42Z</time>
      </trkpt>
      <trkpt lat="49.78284" lon="2.17386">
        <ele>47</ele>
        <time>2023-02-08T15:23:43Z</time>
      </trkpt>
      <trkpt lat="49.78284" lon="2.17384">
        <ele>47</ele>
        <time>2023-02-08T15:23:44Z</time>
      </trkpt>
      <trkpt lat="49.78282" lon="2.17381">
        <ele>47</ele>
        <time>2023-02-08T15:23:45Z</time>
      </trkpt>
      <trkpt lat="49.78281" lon="2.17381">
        <ele>47</ele>
        <time>2023-02-08T15:23:47Z</time>
      </trkpt>
      <trkpt lat="49.78281" lon="2.1738">
        <ele>47</ele>
        <time>2023-02-08T15:23:48Z</time>
      </trkpt>
      <trkpt lat="49.78279" lon="2.17378">
        <ele>47</ele>
        <time>2023-02-08T15:23:49Z</time>
      </trkpt>
      <trkpt lat="49.78279" lon="2.17377">
        <ele>47</ele>
        <time>2023-02-08T15:23:50Z</time>
      </trkpt>
      <trkpt lat="49.78278" lon="2.17376">
        <ele>47</ele>
        <time>2023-02-08T15:23:51Z</time>
      </trkpt>
      <trkpt lat="49.78276" lon="2.17374">
        <ele>47</ele>
        <time>2023-02-08T15:23:52Z</time>
      </trkpt>
      <trkpt lat="49.78275" lon="2.17373">
        <ele>47</ele>
        <time>2023-02-08T15:23:54Z</time>
      </trkpt>
      <trkpt lat="49.78275" lon="2.17372">
        <ele>47</ele>
        <time>2023-02-08T15:23:55Z</time>
      </trkpt>
      <trkpt lat="49.78274" lon="2.1737">
        <ele>47</ele>
        <time>2023-02-08T15:23:56Z</time>
      </trkpt>
      <trkpt lat="49.78273" lon="2.17369">
        <ele>47</ele>
        <time>2023-02-08T15:23:57Z</time>
      </trkpt>
      <trkpt lat="49.78272" lon="2.17367">
        <ele>47</ele>
        <time>2023-02-08T15:23:59Z</time>
      </trkpt>
      <trkpt lat="49.78271" lon="2.17366">
        <ele>47</ele>
        <time>2023-02-08T15:24:00Z</time>
      </trkpt>
      <trkpt lat="49.7827" lon="2.17365">
        <ele>47</ele>
        <time>2023-02-08T15:24:01Z</time>
      </trkpt>
      <trkpt lat="49.78269" lon="2.17364">
        <ele>47</ele>
        <time>2023-02-08T15:24:02Z</time>
      </trkpt>
      <trkpt lat="49.78268" lon="2.17362">
        <ele>47</ele>
        <time>2023-02-08T15:24:03Z</time>
      </trkpt>
      <trkpt lat="49.78268" lon="2.17361">
        <ele>47</ele>
        <time>2023-02-08T15:24:04Z</time>
      </trkpt>
      <trkpt lat="49.78267" lon="2.17359">
        <ele>47</ele>
        <time>2023-02-08T15:24:05Z</time>
      </trkpt>
      <trkpt lat="49.78265" lon="2.17357">
        <ele>47</ele>
        <time>2023-02-08T15:24:06Z</time>
      </trkpt>
      <trkpt lat="49.78264" lon="2.17356">
        <ele>47</ele>
        <time>2023-02-08T15:24:08Z</time>
      </trkpt>
      <trkpt lat="49.78264" lon="2.17355">
        <ele>47</ele>
        <time>2023-02-08T15:24:09Z</time>
      </trkpt>
      <trkpt lat="49.78263" lon="2.17354">
        <ele>47</ele>
        <time>2023-02-08T15:24:10Z</time>
      </trkpt>
      <trkpt lat="49.78262" lon="2.17353">
        <ele>47</ele>
        <time>2023-02-08T15:24:11Z</time>
      </trkpt>
      <trkpt lat="49.78261" lon="2.17353">
        <ele>47</ele>
        <time>2023-02-08T15:24:12Z</time>
      </trkpt>
      <trkpt lat="49.7826" lon="2.17352">
        <ele>47</ele>
        <time>2023-02-08T15:24:13Z</time>
      </trkpt>
      <trkpt lat="49.78259" lon="2.1735">
        <ele>47</ele>
        <time>2023-02-08T15:24:14Z</time>
      </trkpt>
      <trkpt lat="49.78258" lon="2.17349">
        <ele>47</ele>
        <time>2023-02-08T15:24:15Z</time>
      </trkpt>
      <trkpt lat="49.78257" lon="2.17348">
        <ele>47</ele>
        <time>2023-02-08T15:24:17Z</time>
      </trkpt>
      <trkpt lat="49.78256" lon="2.17347">
        <ele>47</ele>
        <time>2023-02-08T15:24:18Z</time>
      </trkpt>
      <trkpt lat="49.78255" lon="2.17346">
        <ele>47</ele>
        <time>2023-02-08T15:24:19Z</time>
      </trkpt>
      <trkpt lat="49.78254" lon="2.17345">
        <ele>47</ele>
        <time>2023-02-08T15:24:20Z</time>
      </trkpt>
      <trkpt lat="49.78253" lon="2.17344">
        <ele>47</ele>
        <time>2023-02-08T15:24:21Z</time>
      </trkpt>
      <trkpt lat="49.78252" lon="2.17343">
        <ele>47</ele>
        <time>2023-02-08T15:24:22Z</time>
      </trkpt>
      <trkpt lat="49.78251" lon="2.17341">
        <ele>47</ele>
        <time>2023-02-08T15:24:24Z</time>
      </trkpt>
      <trkpt lat="49.78249" lon="2.1734">
        <ele>47</ele>
        <time>2023-02-08T15:24:25Z</time>
      </trkpt>
      <trkpt lat="49.78248" lon="2.17339">
        <ele>47</ele>
        <time>2023-02-08T15:24:26Z</time>
      </trkpt>
      <trkpt lat="49.78247" lon="2.17338">
        <ele>47</ele>
        <time>2023-02-08T15:24:27Z</time>
      </trkpt>
      <trkpt lat="49.78246" lon="2.17337">
        <ele>47</ele>
        <time>2023-02-08T15:24:28Z</time>
      </trkpt>
      <trkpt lat="49.78245" lon="2.17336">
        <ele>47</ele>
        <time>2023-02-08T15:24:29Z</time>
      </trkpt>
      <trkpt lat="49.78244" lon="2.17335">
        <ele>47</ele>
        <time>2023-02-08T15:24:30Z</time>
      </trkpt>
      <trkpt lat="49.78243" lon="2.17333">
        <ele>47</ele>
        <time>2023-02-08T15:24:31Z</time>
      </trkpt>
      <trkpt lat="49.78242" lon="2.17332">
        <ele>47</ele>
        <time>2023-02-08T15:24:33Z</time>
      </trkpt>
      <trkpt lat="49.78241" lon="2.17331">
        <ele>47</ele>
        <time>2023-02-08T15:24:34Z</time>
      </trkpt>
      <trkpt lat="49.7824" lon="2.1733">
        <ele>47</ele>
        <time>2023-02-08T15:24:35Z</time>
      </trkpt>
      <trkpt lat="49.78238" lon="2.17328">
        <ele>47</ele>
        <time>2023-02-08T15:24:36Z</time>
      </trkpt>
      <trkpt lat="49.78238" lon="2.17327">
        <ele>47</ele>
        <time>2023-02-08T15:24:37Z</time>
      </trkpt>
      <trkpt lat="49.78237" lon="2.17326">
        <ele>47</ele>
        <time>2023-02-08T15:24:38Z</time>
      </trkpt>
      <trkpt lat="49.78236" lon="2.17324">
        <ele>47</ele>
        <time>2023-02-08T15:24:39Z</time>
      </trkpt>
      <trkpt lat="49.78235" lon="2.17323">
        <ele>47</ele>
        <time>2023-02-08T15:24:40Z</time>
      </trkpt>
      <trkpt lat="49.78234" lon="2.17322">
        <ele>47</ele>
        <time>2023-02-08T15:24:41Z</time>
      </trkpt>
      <trkpt lat="49.78234" lon="2.17321">
        <ele>47</ele>
        <time>2023-02-08T15:24:42Z</time>
      </trkpt>
      <trkpt lat="49.78233" lon="2.1732">
        <ele>47</ele>
        <time>2023-02-08T15:24:44Z</time>
      </trkpt>
      <trkpt lat="49.78232" lon="2.17319">
        <ele>47</ele>
        <time>2023-02-08T15:24:45Z</time>
      </trkpt>
      <trkpt lat="49.78231" lon="2.17318">
        <ele>46.9</ele>
        <time>2023-02-08T15:24:46Z</time>
      </trkpt>
      <trkpt lat="49.78231" lon="2.17317">
        <ele>46.9</ele>
        <time>2023-02-08T15:24:47Z</time>
      </trkpt>
      <trkpt lat="49.7823" lon="2.17316">
        <ele>46.9</ele>
        <time>2023-02-08T15:24:48Z</time>
      </trkpt>
      <trkpt lat="49.78229" lon="2.17314">
        <ele>46.9</ele>
        <time>2023-02-08T15:24:49Z</time>
      </trkpt>
      <trkpt lat="49.78228" lon="2.17313">
        <ele>46.9</ele>
        <time>2023-02-08T15:24:50Z</time>
      </trkpt>
      <trkpt lat="49.78227" lon="2.17312">
        <ele>46.9</ele>
        <time>2023-02-08T15:24:52Z</time>
      </trkpt>
      <trkpt lat="49.78226" lon="2.1731">
        <ele>46.9</ele>
        <time>2023-02-08T15:24:53Z</time>
      </trkpt>
      <trkpt lat="49.78225" lon="2.17309">
        <ele>46.9</ele>
        <time>2023-02-08T15:24:54Z</time>
      </trkpt>
      <trkpt lat="49.78225" lon="2.17308">
        <ele>46.9</ele>
        <time>2023-02-08T15:24:55Z</time>
      </trkpt>
      <trkpt lat="49.78224" lon="2.17307">
        <ele>46.9</ele>
        <time>2023-02-08T15:24:56Z</time>
      </trkpt>
      <trkpt lat="49.78223" lon="2.17306">
        <ele>46.9</ele>
        <time>2023-02-08T15:24:57Z</time>
      </trkpt>
      <trkpt lat="49.78222" lon="2.17305">
        <ele>46.9</ele>
        <time>2023-02-08T15:24:58Z</time>
      </trkpt>
      <trkpt lat="49.78221" lon="2.17304">
        <ele>46.9</ele>
        <time>2023-02-08T15:24:59Z</time>
      </trkpt>
      <trkpt lat="49.78219" lon="2.17302">
        <ele>46.9</ele>
        <time>2023-02-08T15:25:01Z</time>
      </trkpt>
      <trkpt lat="49.78219" lon="2.17301">
        <ele>46.9</ele>
        <time>2023-02-08T15:25:02Z</time>
      </trkpt>
      <trkpt lat="49.78218" lon="2.173">
        <ele>46.9</ele>
        <time>2023-02-08T15:25:03Z</time>
      </trkpt>
      <trkpt lat="49.78217" lon="2.17299">
        <ele>46.9</ele>
        <time>2023-02-08T15:25:04Z</time>
      </trkpt>
      <trkpt lat="49.78215" lon="2.17297">
        <ele>46.9</ele>
        <time>2023-02-08T15:25:05Z</time>
      </trkpt>
      <trkpt lat="49.78214" lon="2.17296">
        <ele>46.9</ele>
        <time>2023-02-08T15:25:06Z</time>
      </trkpt>
      <trkpt lat="49.78213" lon="2.17296">
        <ele>46.9</ele>
        <time>2023-02-08T15:25:07Z</time>
      </trkpt>
      <trkpt lat="49.78212" lon="2.17295">
        <ele>46.9</ele>
        <time>2023-02-08T15:25:08Z</time>
      </trkpt>
      <trkpt lat="49.78211" lon="2.17294">
        <ele>46.9</ele>
        <time>2023-02-08T15:25:09Z</time>
      </trkpt>
      <trkpt lat="49.7821" lon="2.17293">
        <ele>46.9</ele>
        <time>2023-02-08T15:25:11Z</time>
      </trkpt>
      <trkpt lat="49.78208" lon="2.17291">
        <ele>46.9</ele>
        <time>2023-02-08T15:25:12Z</time>
      </trkpt>
      <trkpt lat="49.78208" lon="2.1729">
        <ele>46.9</ele>
        <time>2023-02-08T15:25:13Z</time>
      </trkpt>
      <trkpt lat="49.78207" lon="2.1729">
        <ele>46.9</ele>
        <time>2023-02-08T15:25:14Z</time>
      </trkpt>
      <trkpt lat="49.78206" lon="2.17289">
        <ele>46.9</ele>
        <time>2023-02-08T15:25:15Z</time>
      </trkpt>
      <trkpt lat="49.78204" lon="2.17288">
        <ele>46.9</ele>
        <time>2023-02-08T15:25:16Z</time>
      </trkpt>
      <trkpt lat="49.78204" lon="2.17287">
        <ele>46.9</ele>
        <time>2023-02-08T15:25:17Z</time>
      </trkpt>
      <trkpt lat="49.78203" lon="2.17286">
        <ele>46.9</ele>
        <time>2023-02-08T15:25:18Z</time>
      </trkpt>
      <trkpt lat="49.78202" lon="2.17286">
        <ele>46.9</ele>
        <time>2023-02-08T15:25:19Z</time>
      </trkpt>
      <trkpt lat="49.782" lon="2.17284">
        <ele>46.9</ele>
        <time>2023-02-08T15:25:20Z</time>
      </trkpt>
      <trkpt lat="49.78199" lon="2.17282">
        <ele>46.9</ele>
        <time>2023-02-08T15:25:22Z</time>
      </trkpt>
      <trkpt lat="49.78197" lon="2.17281">
        <ele>46.9</ele>
        <time>2023-02-08T15:25:24Z</time>
      </trkpt>
      <trkpt lat="49.78196" lon="2.1728">
        <ele>46.9</ele>
        <time>2023-02-08T15:25:25Z</time>
      </trkpt>
      <trkpt lat="49.78194" lon="2.17278">
        <ele>46.9</ele>
        <time>2023-02-08T15:25:26Z</time>
      </trkpt>
      <trkpt lat="49.78194" lon="2.17278">
        <ele>46.9</ele>
        <time>2023-02-08T15:25:27Z</time>
      </trkpt>
      <trkpt lat="49.78193" lon="2.17277">
        <ele>46.9</ele>
        <time>2023-02-08T15:25:28Z</time>
      </trkpt>
      <trkpt lat="49.78192" lon="2.17276">
        <ele>46.9</ele>
        <time>2023-02-08T15:25:30Z</time>
      </trkpt>
      <trkpt lat="49.78192" lon="2.17275">
        <ele>46.9</ele>
        <time>2023-02-08T15:25:31Z</time>
      </trkpt>
      <trkpt lat="49.7819" lon="2.17273">
        <ele>46.9</ele>
        <time>2023-02-08T15:25:32Z</time>
      </trkpt>
      <trkpt lat="49.7819" lon="2.17272">
        <ele>46.9</ele>
        <time>2023-02-08T15:25:33Z</time>
      </trkpt>
      <trkpt lat="49.78189" lon="2.17271">
        <ele>46.9</ele>
        <time>2023-02-08T15:25:34Z</time>
      </trkpt>
      <trkpt lat="49.78188" lon="2.1727">
        <ele>46.9</ele>
        <time>2023-02-08T15:25:35Z</time>
      </trkpt>
      <trkpt lat="49.78186" lon="2.17268">
        <ele>46.9</ele>
        <time>2023-02-08T15:25:36Z</time>
      </trkpt>
      <trkpt lat="49.78185" lon="2.17268">
        <ele>46.9</ele>
        <time>2023-02-08T15:25:37Z</time>
      </trkpt>
      <trkpt lat="49.78185" lon="2.17267">
        <ele>46.9</ele>
        <time>2023-02-08T15:25:38Z</time>
      </trkpt>
      <trkpt lat="49.78184" lon="2.17265">
        <ele>46.9</ele>
        <time>2023-02-08T15:25:39Z</time>
      </trkpt>
      <trkpt lat="49.78183" lon="2.17264">
        <ele>46.9</ele>
        <time>2023-02-08T15:25:40Z</time>
      </trkpt>
      <trkpt lat="49.78182" lon="2.17262">
        <ele>46.9</ele>
        <time>2023-02-08T15:25:41Z</time>
      </trkpt>
      <trkpt lat="49.78181" lon="2.17261">
        <ele>46.9</ele>
        <time>2023-02-08T15:25:43Z</time>
      </trkpt>
      <trkpt lat="49.7818" lon="2.1726">
        <ele>46.9</ele>
        <time>2023-02-08T15:25:44Z</time>
      </trkpt>
      <trkpt lat="49.7818" lon="2.17259">
        <ele>46.9</ele>
        <time>2023-02-08T15:25:45Z</time>
      </trkpt>
      <trkpt lat="49.78178" lon="2.17257">
        <ele>46.9</ele>
        <time>2023-02-08T15:25:46Z</time>
      </trkpt>
      <trkpt lat="49.78177" lon="2.17256">
        <ele>46.9</ele>
        <time>2023-02-08T15:25:47Z</time>
      </trkpt>
      <trkpt lat="49.78177" lon="2.17255">
        <ele>46.9</ele>
        <time>2023-02-08T15:25:48Z</time>
      </trkpt>
      <trkpt lat="49.78175" lon="2.17254">
        <ele>47</ele>
        <time>2023-02-08T15:25:49Z</time>
      </trkpt>
      <trkpt lat="49.78175" lon="2.17253">
        <ele>47</ele>
        <time>2023-02-08T15:25:50Z</time>
      </trkpt>
      <trkpt lat="49.78173" lon="2.17251">
        <ele>47</ele>
        <time>2023-02-08T15:25:51Z</time>
      </trkpt>
      <trkpt lat="49.78173" lon="2.1725">
        <ele>47</ele>
        <time>2023-02-08T15:25:53Z</time>
      </trkpt>
      <trkpt lat="49.78172" lon="2.17248">
        <ele>47</ele>
        <time>2023-02-08T15:25:54Z</time>
      </trkpt>
      <trkpt lat="49.78171" lon="2.17247">
        <ele>47</ele>
        <time>2023-02-08T15:25:55Z</time>
      </trkpt>
      <trkpt lat="49.7817" lon="2.17245">
        <ele>47</ele>
        <time>2023-02-08T15:25:56Z</time>
      </trkpt>
      <trkpt lat="49.7817" lon="2.17244">
        <ele>47</ele>
        <time>2023-02-08T15:25:57Z</time>
      </trkpt>
      <trkpt lat="49.78168" lon="2.17242">
        <ele>47</ele>
        <time>2023-02-08T15:25:58Z</time>
      </trkpt>
      <trkpt lat="49.78168" lon="2.17241">
        <ele>47</ele>
        <time>2023-02-08T15:26:00Z</time>
      </trkpt>
      <trkpt lat="49.78167" lon="2.1724">
        <ele>47</ele>
        <time>2023-02-08T15:26:01Z</time>
      </trkpt>
      <trkpt lat="49.78165" lon="2.17238">
        <ele>47</ele>
        <time>2023-02-08T15:26:02Z</time>
      </trkpt>
      <trkpt lat="49.78165" lon="2.17237">
        <ele>47</ele>
        <time>2023-02-08T15:26:03Z</time>
      </trkpt>
      <trkpt lat="49.78164" lon="2.17237">
        <ele>47</ele>
        <time>2023-02-08T15:26:04Z</time>
      </trkpt>
      <trkpt lat="49.78163" lon="2.17235">
        <ele>47</ele>
        <time>2023-02-08T15:26:05Z</time>
      </trkpt>
      <trkpt lat="49.78162" lon="2.17234">
        <ele>47</ele>
        <time>2023-02-08T15:26:06Z</time>
      </trkpt>
      <trkpt lat="49.78161" lon="2.17233">
        <ele>47</ele>
        <time>2023-02-08T15:26:07Z</time>
      </trkpt>
      <trkpt lat="49.7816" lon="2.17232">
        <ele>47</ele>
        <time>2023-02-08T15:26:09Z</time>
      </trkpt>
      <trkpt lat="49.78159" lon="2.17231">
        <ele>47</ele>
        <time>2023-02-08T15:26:10Z</time>
      </trkpt>
      <trkpt lat="49.78158" lon="2.1723">
        <ele>47</ele>
        <time>2023-02-08T15:26:11Z</time>
      </trkpt>
      <trkpt lat="49.78157" lon="2.17228">
        <ele>47</ele>
        <time>2023-02-08T15:26:12Z</time>
      </trkpt>
      <trkpt lat="49.78156" lon="2.17227">
        <ele>47.1</ele>
        <time>2023-02-08T15:26:13Z</time>
      </trkpt>
      <trkpt lat="49.78156" lon="2.17226">
        <ele>47.1</ele>
        <time>2023-02-08T15:26:14Z</time>
      </trkpt>
      <trkpt lat="49.78155" lon="2.17225">
        <ele>47.1</ele>
        <time>2023-02-08T15:26:15Z</time>
      </trkpt>
      <trkpt lat="49.78153" lon="2.17224">
        <ele>47.1</ele>
        <time>2023-02-08T15:26:17Z</time>
      </trkpt>
      <trkpt lat="49.78152" lon="2.17223">
        <ele>47.1</ele>
        <time>2023-02-08T15:26:18Z</time>
      </trkpt>
      <trkpt lat="49.78151" lon="2.17221">
        <ele>47.1</ele>
        <time>2023-02-08T15:26:19Z</time>
      </trkpt>
      <trkpt lat="49.7815" lon="2.1722">
        <ele>47.1</ele>
        <time>2023-02-08T15:26:20Z</time>
      </trkpt>
      <trkpt lat="49.78148" lon="2.17218">
        <ele>47.1</ele>
        <time>2023-02-08T15:26:21Z</time>
      </trkpt>
      <trkpt lat="49.78147" lon="2.17217">
        <ele>47.1</ele>
        <time>2023-02-08T15:26:22Z</time>
      </trkpt>
      <trkpt lat="49.78146" lon="2.17216">
        <ele>47.1</ele>
        <time>2023-02-08T15:26:24Z</time>
      </trkpt>
      <trkpt lat="49.78145" lon="2.17216">
        <ele>47.1</ele>
        <time>2023-02-08T15:26:25Z</time>
      </trkpt>
      <trkpt lat="49.78144" lon="2.17214">
        <ele>47.1</ele>
        <time>2023-02-08T15:26:26Z</time>
      </trkpt>
      <trkpt lat="49.78143" lon="2.17213">
        <ele>47.1</ele>
        <time>2023-02-08T15:26:27Z</time>
      </trkpt>
      <trkpt lat="49.78142" lon="2.17212">
        <ele>47</ele>
        <time>2023-02-08T15:26:28Z</time>
      </trkpt>
      <trkpt lat="49.78141" lon="2.1721">
        <ele>47</ele>
        <time>2023-02-08T15:26:29Z</time>
      </trkpt>
      <trkpt lat="49.7814" lon="2.17209">
        <ele>47</ele>
        <time>2023-02-08T15:26:30Z</time>
      </trkpt>
      <trkpt lat="49.78139" lon="2.17208">
        <ele>47</ele>
        <time>2023-02-08T15:26:31Z</time>
      </trkpt>
      <trkpt lat="49.78139" lon="2.17207">
        <ele>47</ele>
        <time>2023-02-08T15:26:32Z</time>
      </trkpt>
      <trkpt lat="49.78138" lon="2.17206">
        <ele>47</ele>
        <time>2023-02-08T15:26:33Z</time>
      </trkpt>
      <trkpt lat="49.78138" lon="2.17205">
        <ele>47</ele>
        <time>2023-02-08T15:26:35Z</time>
      </trkpt>
      <trkpt lat="49.78137" lon="2.17204">
        <ele>47</ele>
        <time>2023-02-08T15:26:36Z</time>
      </trkpt>
      <trkpt lat="49.78136" lon="2.17203">
        <ele>47</ele>
        <time>2023-02-08T15:26:37Z</time>
      </trkpt>
      <trkpt lat="49.78135" lon="2.17202">
        <ele>47</ele>
        <time>2023-02-08T15:26:38Z</time>
      </trkpt>
      <trkpt lat="49.78133" lon="2.17199">
        <ele>47</ele>
        <time>2023-02-08T15:26:39Z</time>
      </trkpt>
      <trkpt lat="49.78133" lon="2.17198">
        <ele>47</ele>
        <time>2023-02-08T15:26:40Z</time>
      </trkpt>
      <trkpt lat="49.78132" lon="2.17198">
        <ele>47</ele>
        <time>2023-02-08T15:26:41Z</time>
      </trkpt>
      <trkpt lat="49.78131" lon="2.17197">
        <ele>47</ele>
        <time>2023-02-08T15:26:42Z</time>
      </trkpt>
      <trkpt lat="49.7813" lon="2.17196">
        <ele>47</ele>
        <time>2023-02-08T15:26:43Z</time>
      </trkpt>
      <trkpt lat="49.78129" lon="2.17195">
        <ele>47</ele>
        <time>2023-02-08T15:26:44Z</time>
      </trkpt>
      <trkpt lat="49.78128" lon="2.17194">
        <ele>47</ele>
        <time>2023-02-08T15:26:46Z</time>
      </trkpt>
      <trkpt lat="49.78127" lon="2.17193">
        <ele>47</ele>
        <time>2023-02-08T15:26:47Z</time>
      </trkpt>
      <trkpt lat="49.78126" lon="2.17192">
        <ele>47</ele>
        <time>2023-02-08T15:26:48Z</time>
      </trkpt>
      <trkpt lat="49.78124" lon="2.1719">
        <ele>47</ele>
        <time>2023-02-08T15:26:49Z</time>
      </trkpt>
      <trkpt lat="49.78123" lon="2.17189">
        <ele>47</ele>
        <time>2023-02-08T15:26:50Z</time>
      </trkpt>
      <trkpt lat="49.78123" lon="2.17188">
        <ele>47</ele>
        <time>2023-02-08T15:26:51Z</time>
      </trkpt>
      <trkpt lat="49.78121" lon="2.17187">
        <ele>47</ele>
        <time>2023-02-08T15:26:52Z</time>
      </trkpt>
      <trkpt lat="49.78121" lon="2.17185">
        <ele>47</ele>
        <time>2023-02-08T15:26:53Z</time>
      </trkpt>
      <trkpt lat="49.78119" lon="2.17184">
        <ele>47</ele>
        <time>2023-02-08T15:26:54Z</time>
      </trkpt>
      <trkpt lat="49.78118" lon="2.17183">
        <ele>47</ele>
        <time>2023-02-08T15:26:56Z</time>
      </trkpt>
      <trkpt lat="49.78117" lon="2.17183">
        <ele>47</ele>
        <time>2023-02-08T15:26:57Z</time>
      </trkpt>
      <trkpt lat="49.78117" lon="2.17182">
        <ele>47</ele>
        <time>2023-02-08T15:26:58Z</time>
      </trkpt>
      <trkpt lat="49.78116" lon="2.17181">
        <ele>47</ele>
        <time>2023-02-08T15:26:59Z</time>
      </trkpt>
      <trkpt lat="49.78115" lon="2.17179">
        <ele>47</ele>
        <time>2023-02-08T15:27:00Z</time>
      </trkpt>
      <trkpt lat="49.78113" lon="2.17177">
        <ele>47</ele>
        <time>2023-02-08T15:27:01Z</time>
      </trkpt>
      <trkpt lat="49.78112" lon="2.17177">
        <ele>47</ele>
        <time>2023-02-08T15:27:02Z</time>
      </trkpt>
      <trkpt lat="49.78112" lon="2.17176">
        <ele>47</ele>
        <time>2023-02-08T15:27:03Z</time>
      </trkpt>
      <trkpt lat="49.7811" lon="2.17174">
        <ele>47</ele>
        <time>2023-02-08T15:27:04Z</time>
      </trkpt>
      <trkpt lat="49.78109" lon="2.17174">
        <ele>47</ele>
        <time>2023-02-08T15:27:06Z</time>
      </trkpt>
      <trkpt lat="49.78108" lon="2.17173">
        <ele>47</ele>
        <time>2023-02-08T15:27:07Z</time>
      </trkpt>
      <trkpt lat="49.78107" lon="2.17171">
        <ele>47</ele>
        <time>2023-02-08T15:27:08Z</time>
      </trkpt>
      <trkpt lat="49.78106" lon="2.1717">
        <ele>47</ele>
        <time>2023-02-08T15:27:09Z</time>
      </trkpt>
      <trkpt lat="49.78105" lon="2.1717">
        <ele>47</ele>
        <time>2023-02-08T15:27:10Z</time>
      </trkpt>
      <trkpt lat="49.78104" lon="2.17169">
        <ele>47</ele>
        <time>2023-02-08T15:27:11Z</time>
      </trkpt>
      <trkpt lat="49.78103" lon="2.17167">
        <ele>47</ele>
        <time>2023-02-08T15:27:12Z</time>
      </trkpt>
      <trkpt lat="49.78102" lon="2.17166">
        <ele>47</ele>
        <time>2023-02-08T15:27:14Z</time>
      </trkpt>
      <trkpt lat="49.78102" lon="2.17165">
        <ele>47</ele>
        <time>2023-02-08T15:27:15Z</time>
      </trkpt>
      <trkpt lat="49.78101" lon="2.17164">
        <ele>47</ele>
        <time>2023-02-08T15:27:16Z</time>
      </trkpt>
      <trkpt lat="49.78099" lon="2.17163">
        <ele>47</ele>
        <time>2023-02-08T15:27:17Z</time>
      </trkpt>
      <trkpt lat="49.78098" lon="2.17163">
        <ele>47</ele>
        <time>2023-02-08T15:27:18Z</time>
      </trkpt>
      <trkpt lat="49.78097" lon="2.17162">
        <ele>47</ele>
        <time>2023-02-08T15:27:19Z</time>
      </trkpt>
      <trkpt lat="49.78096" lon="2.17161">
        <ele>47</ele>
        <time>2023-02-08T15:27:21Z</time>
      </trkpt>
      <trkpt lat="49.78096" lon="2.1716">
        <ele>47</ele>
        <time>2023-02-08T15:27:22Z</time>
      </trkpt>
      <trkpt lat="49.78095" lon="2.17159">
        <ele>47</ele>
        <time>2023-02-08T15:27:23Z</time>
      </trkpt>
      <trkpt lat="49.78094" lon="2.17158">
        <ele>47</ele>
        <time>2023-02-08T15:27:24Z</time>
      </trkpt>
      <trkpt lat="49.78093" lon="2.17157">
        <ele>47</ele>
        <time>2023-02-08T15:27:25Z</time>
      </trkpt>
      <trkpt lat="49.78092" lon="2.17156">
        <ele>47</ele>
        <time>2023-02-08T15:27:26Z</time>
      </trkpt>
      <trkpt lat="49.78092" lon="2.17155">
        <ele>47</ele>
        <time>2023-02-08T15:27:28Z</time>
      </trkpt>
      <trkpt lat="49.78091" lon="2.17154">
        <ele>47</ele>
        <time>2023-02-08T15:27:29Z</time>
      </trkpt>
      <trkpt lat="49.7809" lon="2.17153">
        <ele>47</ele>
        <time>2023-02-08T15:27:30Z</time>
      </trkpt>
      <trkpt lat="49.7809" lon="2.17152">
        <ele>47</ele>
        <time>2023-02-08T15:27:31Z</time>
      </trkpt>
      <trkpt lat="49.78089" lon="2.17151">
        <ele>47</ele>
        <time>2023-02-08T15:27:32Z</time>
      </trkpt>
      <trkpt lat="49.78089" lon="2.17151">
        <ele>47</ele>
        <time>2023-02-08T15:27:33Z</time>
      </trkpt>
      <trkpt lat="49.78089" lon="2.17151">
        <ele>47</ele>
        <time>2023-02-08T15:27:35Z</time>
      </trkpt>
      <trkpt lat="49.78089" lon="2.17151">
        <ele>47</ele>
        <time>2023-02-08T15:27:36Z</time>
      </trkpt>
      <trkpt lat="49.78089" lon="2.17151">
        <ele>47</ele>
        <time>2023-02-08T15:27:37Z</time>
      </trkpt>
      <trkpt lat="49.78089" lon="2.17151">
        <ele>47</ele>
        <time>2023-02-08T15:27:39Z</time>
      </trkpt>
      <trkpt lat="49.78089" lon="2.17151">
        <ele>47</ele>
        <time>2023-02-08T15:27:40Z</time>
      </trkpt>
      <trkpt lat="49.78089" lon="2.17151">
        <ele>47</ele>
        <time>2023-02-08T15:27:41Z</time>
      </trkpt>
      <trkpt lat="49.78089" lon="2.17151">
        <ele>47</ele>
        <time>2023-02-08T15:27:42Z</time>
      </trkpt>
      <trkpt lat="49.78089" lon="2.17151">
        <ele>47</ele>
        <time>2023-02-08T15:27:44Z</time>
      </trkpt>
      <trkpt lat="49.78089" lon="2.17151">
        <ele>47</ele>
        <time>2023-02-08T15:27:45Z</time>
      </trkpt>
      <trkpt lat="49.78089" lon="2.17151">
        <ele>47</ele>
        <time>2023-02-08T15:27:46Z</time>
      </trkpt>
      <trkpt lat="49.78089" lon="2.17151">
        <ele>47</ele>
        <time>2023-02-08T15:27:47Z</time>
      </trkpt>
      <trkpt lat="49.78089" lon="2.17151">
        <ele>47</ele>
        <time>2023-02-08T15:27:49Z</time>
      </trkpt>
      <trkpt lat="49.78089" lon="2.17151">
        <ele>47</ele>
        <time>2023-02-08T15:27:50Z</time>
      </trkpt>
      <trkpt lat="49.78089" lon="2.17151">
        <ele>47</ele>
        <time>2023-02-08T15:27:51Z</time>
      </trkpt>
      <trkpt lat="49.78089" lon="2.17152">
        <ele>47</ele>
        <time>2023-02-08T15:27:52Z</time>
      </trkpt>
      <trkpt lat="49.78089" lon="2.17152">
        <ele>47</ele>
        <time>2023-02-08T15:27:54Z</time>
      </trkpt>
      <trkpt lat="49.78089" lon="2.17152">
        <ele>47</ele>
        <time>2023-02-08T15:27:55Z</time>
      </trkpt>
      <trkpt lat="49.78089" lon="2.17152">
        <ele>47</ele>
        <time>2023-02-08T15:27:56Z</time>
      </trkpt>
      <trkpt lat="49.78089" lon="2.17152">
        <ele>47</ele>
        <time>2023-02-08T15:27:57Z</time>
      </trkpt>
      <trkpt lat="49.78089" lon="2.17152">
        <ele>47</ele>
        <time>2023-02-08T15:27:58Z</time>
      </trkpt>
      <trkpt lat="49.78089" lon="2.17152">
        <ele>47</ele>
        <time>2023-02-08T15:27:59Z</time>
      </trkpt>
      <trkpt lat="49.78089" lon="2.17152">
        <ele>47</ele>
        <time>2023-02-08T15:28:00Z</time>
      </trkpt>
      <trkpt lat="49.78089" lon="2.17152">
        <ele>47</ele>
        <time>2023-02-08T15:28:01Z</time>
      </trkpt>
      <trkpt lat="49.78089" lon="2.17152">
        <ele>47</ele>
        <time>2023-02-08T15:28:02Z</time>
      </trkpt>
      <trkpt lat="49.78089" lon="2.17152">
        <ele>47</ele>
        <time>2023-02-08T15:28:03Z</time>
      </trkpt>
      <trkpt lat="49.78089" lon="2.17152">
        <ele>47</ele>
        <time>2023-02-08T15:28:04Z</time>
      </trkpt>
      <trkpt lat="49.78089" lon="2.17152">
        <ele>47</ele>
        <time>2023-02-08T15:28:05Z</time>
      </trkpt>
      <trkpt lat="49.78089" lon="2.17152">
        <ele>47</ele>
        <time>2023-02-08T15:28:06Z</time>
      </trkpt>
      <trkpt lat="49.78089" lon="2.17152">
        <ele>47</ele>
        <time>2023-02-08T15:28:07Z</time>
      </trkpt>
      <trkpt lat="49.78089" lon="2.17152">
        <ele>47</ele>
        <time>2023-02-08T15:28:08Z</time>
      </trkpt>
      <trkpt lat="49.78089" lon="2.17152">
        <ele>47</ele>
        <time>2023-02-08T15:28:09Z</time>
      </trkpt>
      <trkpt lat="49.78089" lon="2.17152">
        <ele>47</ele>
        <time>2023-02-08T15:28:10Z</time>
      </trkpt>
      <trkpt lat="49.78089" lon="2.17152">
        <ele>47</ele>
        <time>2023-02-08T15:28:11Z</time>
      </trkpt>
      <trkpt lat="49.78089" lon="2.17152">
        <ele>47</ele>
        <time>2023-02-08T15:28:12Z</time>
      </trkpt>
      <trkpt lat="49.78089" lon="2.17152">
        <ele>47</ele>
        <time>2023-02-08T15:28:13Z</time>
      </trkpt>
      <trkpt lat="49.78089" lon="2.17152">
        <ele>47</ele>
        <time>2023-02-08T15:28:14Z</time>
      </trkpt>
      <trkpt lat="49.78089" lon="2.17152">
        <ele>47</ele>
        <time>2023-02-08T15:28:15Z</time>
      </trkpt>
      <trkpt lat="49.78089" lon="2.17152">
        <ele>47</ele>
        <time>2023-02-08T15:28:16Z</time>
      </trkpt>
      <trkpt lat="49.78089" lon="2.17152">
        <ele>47</ele>
        <time>2023-02-08T15:28:17Z</time>
      </trkpt>
      <trkpt lat="49.78089" lon="2.17152">
        <ele>47</ele>
        <time>2023-02-08T15:28:18Z</time>
      </trkpt>
      <trkpt lat="49.78089" lon="2.17152">
        <ele>47</ele>
        <time>2023-02-08T15:28:19Z</time>
      </trkpt>
      <trkpt lat="49.78089" lon="2.17152">
        <ele>47</ele>
        <time>2023-02-08T15:28:20Z</time>
      </trkpt>
      <trkpt lat="49.78089" lon="2.17152">
        <ele>47</ele>
        <time>2023-02-08T15:28:21Z</time>
      </trkpt>
      <trkpt lat="49.78089" lon="2.17152">
        <ele>47</ele>
        <time>2023-02-08T15:28:22Z</time>
      </trkpt>
      <trkpt lat="49.78089" lon="2.17152">
        <ele>47</ele>
        <time>2023-02-08T15:28:23Z</time>
      </trkpt>
      <trkpt lat="49.78089" lon="2.17152">
        <ele>47</ele>
        <time>2023-02-08T15:28:24Z</time>
      </trkpt>
      <trkpt lat="49.78089" lon="2.17152">
        <ele>47</ele>
        <time>2023-02-08T15:28:25Z</time>
      </trkpt>
      <trkpt lat="49.78089" lon="2.17152">
        <ele>47</ele>
        <time>2023-02-08T15:28:26Z</time>
      </trkpt>
      <trkpt lat="49.78089" lon="2.17152">
        <ele>47</ele>
        <time>2023-02-08T15:28:27Z</time>
      </trkpt>
      <trkpt lat="49.78089" lon="2.17152">
        <ele>47</ele>
        <time>2023-02-08T15:28:28Z</time>
      </trkpt>
      <trkpt lat="49.78089" lon="2.17152">
        <ele>47</ele>
        <time>2023-02-08T15:28:29Z</time>
      </trkpt>
      <trkpt lat="49.78089" lon="2.17152">
        <ele>47</ele>
        <time>2023-02-08T15:28:30Z</time>
      </trkpt>
      <trkpt lat="49.78089" lon="2.17152">
        <ele>47</ele>
        <time>2023-02-08T15:28:31Z</time>
      </trkpt>
      <trkpt lat="49.78089" lon="2.17152">
        <ele>47</ele>
        <time>2023-02-08T15:28:32Z</time>
      </trkpt>
      <trkpt lat="49.78089" lon="2.17152">
        <ele>47</ele>
        <time>2023-02-08T15:28:33Z</time>
      </trkpt>
      <trkpt lat="49.78089" lon="2.17152">
        <ele>47</ele>
        <time>2023-02-08T15:28:34Z</time>
      </trkpt>
      <trkpt lat="49.78089" lon="2.17152">
        <ele>47</ele>
        <time>2023-02-08T15:28:35Z</time>
      </trkpt>
      <trkpt lat="49.78089" lon="2.17152">
        <ele>47</ele>
        <time>2023-02-08T15:28:36Z</time>
      </trkpt>
      <trkpt lat="49.78089" lon="2.17152">
        <ele>47</ele>
        <time>2023-02-08T15:28:37Z</time>
      </trkpt>
      <trkpt lat="49.78089" lon="2.17152">
        <ele>47</ele>
        <time>2023-02-08T15:28:38Z</time>
      </trkpt>
      <trkpt lat="49.78089" lon="2.17152">
        <ele>47</ele>
        <time>2023-02-08T15:28:39Z</time>
      </trkpt>
      <trkpt lat="49.78089" lon="2.17152">
        <ele>47</ele>
        <time>2023-02-08T15:28:40Z</time>
      </trkpt>
      <trkpt lat="49.78089" lon="2.17152">
        <ele>47</ele>
        <time>2023-02-08T15:28:41Z</time>
      </trkpt>
      <trkpt lat="49.78089" lon="2.17152">
        <ele>47</ele>
        <time>2023-02-08T15:28:42Z</time>
      </trkpt>
      <trkpt lat="49.78089" lon="2.17152">
        <ele>47</ele>
        <time>2023-02-08T15:28:43Z</time>
      </trkpt>
      <trkpt lat="49.78089" lon="2.17152">
        <ele>47</ele>
        <time>2023-02-08T15:28:44Z</time>
      </trkpt>
      <trkpt lat="49.78089" lon="2.17152">
        <ele>47</ele>
        <time>2023-02-08T15:28:45Z</time>
      </trkpt>
      <trkpt lat="49.78089" lon="2.17152">
        <ele>47</ele>
        <time>2023-02-08T15:28:46Z</time>
      </trkpt>
      <trkpt lat="49.78089" lon="2.17152">
        <ele>47</ele>
        <time>2023-02-08T15:28:47Z</time>
      </trkpt>
      <trkpt lat="49.78089" lon="2.17152">
        <ele>47</ele>
        <time>2023-02-08T15:28:48Z</time>
      </trkpt>
      <trkpt lat="49.78089" lon="2.17152">
        <ele>47</ele>
        <time>2023-02-08T15:28:49Z</time>
      </trkpt>
      <trkpt lat="49.78089" lon="2.17152">
        <ele>47</ele>
        <time>2023-02-08T15:28:50Z</time>
      </trkpt>
      <trkpt lat="49.78089" lon="2.17152">
        <ele>47</ele>
        <time>2023-02-08T15:28:51Z</time>
      </trkpt>
      <trkpt lat="49.78089" lon="2.17152">
        <ele>47</ele>
        <time>2023-02-08T15:28:52Z</time>
      </trkpt>
      <trkpt lat="49.78089" lon="2.17152">
        <ele>47</ele>
        <time>2023-02-08T15:28:53Z</time>
      </trkpt>
      <trkpt lat="49.78089" lon="2.17152">
        <ele>47</ele>
        <time>2023-02-08T15:28:54Z</time>
      </trkpt>
      <trkpt lat="49.78089" lon="2.17152">
        <ele>47</ele>
        <time>2023-02-08T15:28:55Z</time>
      </trkpt>
      <trkpt lat="49.78089" lon="2.17152">
        <ele>47</ele>
        <time>2023-02-08T15:28:56Z</time>
      </trkpt>
      <trkpt lat="49.78089" lon="2.17152">
        <ele>47</ele>
        <time>2023-02-08T15:28:57Z</time>
      </trkpt>
      <trkpt lat="49.78089" lon="2.17152">
        <ele>47</ele>
        <time>2023-02-08T15:28:58Z</time>
      </trkpt>
      <trkpt lat="49.78089" lon="2.17152">
        <ele>47</ele>
        <time>2023-02-08T15:28:59Z</time>
      </trkpt>
      <trkpt lat="49.78089" lon="2.17152">
        <ele>47</ele>
        <time>2023-02-08T15:29:00Z</time>
      </trkpt>
      <trkpt lat="49.7809" lon="2.17152">
        <ele>47</ele>
        <time>2023-02-08T15:29:01Z</time>
      </trkpt>
      <trkpt lat="49.7809" lon="2.17152">
        <ele>47</ele>
        <time>2023-02-08T15:29:02Z</time>
      </trkpt>
      <trkpt lat="49.7809" lon="2.17152">
        <ele>47</ele>
        <time>2023-02-08T15:29:03Z</time>
      </trkpt>
      <trkpt lat="49.7809" lon="2.17152">
        <ele>47</ele>
        <time>2023-02-08T15:29:04Z</time>
      </trkpt>
      <trkpt lat="49.7809" lon="2.17153">
        <ele>47</ele>
        <time>2023-02-08T15:29:05Z</time>
      </trkpt>
      <trkpt lat="49.7809" lon="2.17153">
        <ele>47</ele>
        <time>2023-02-08T15:29:06Z</time>
      </trkpt>
      <trkpt lat="49.7809" lon="2.17153">
        <ele>47</ele>
        <time>2023-02-08T15:29:07Z</time>
      </trkpt>
      <trkpt lat="49.7809" lon="2.17153">
        <ele>47</ele>
        <time>2023-02-08T15:29:08Z</time>
      </trkpt>
      <trkpt lat="49.7809" lon="2.17153">
        <ele>47</ele>
        <time>2023-02-08T15:29:09Z</time>
      </trkpt>
      <trkpt lat="49.7809" lon="2.17153">
        <ele>47</ele>
        <time>2023-02-08T15:29:10Z</time>
      </trkpt>
      <trkpt lat="49.7809" lon="2.17153">
        <ele>47</ele>
        <time>2023-02-08T15:29:11Z</time>
      </trkpt>
      <trkpt lat="49.7809" lon="2.17153">
        <ele>47</ele>
        <time>2023-02-08T15:29:12Z</time>
      </trkpt>
      <trkpt lat="49.7809" lon="2.17153">
        <ele>47</ele>
        <time>2023-02-08T15:29:13Z</time>
      </trkpt>
      <trkpt lat="49.7809" lon="2.17153">
        <ele>47</ele>
        <time>2023-02-08T15:29:14Z</time>
      </trkpt>
      <trkpt lat="49.7809" lon="2.17153">
        <ele>47</ele>
        <time>2023-02-08T15:29:15Z</time>
      </trkpt>
      <trkpt lat="49.7809" lon="2.17153">
        <ele>47</ele>
        <time>2023-02-08T15:29:16Z</time>
      </trkpt>
      <trkpt lat="49.7809" lon="2.17153">
        <ele>47</ele>
        <time>2023-02-08T15:29:17Z</time>
      </trkpt>
      <trkpt lat="49.7809" lon="2.17153">
        <ele>47</ele>
        <time>2023-02-08T15:29:18Z</time>
      </trkpt>
      <trkpt lat="49.7809" lon="2.17153">
        <ele>47</ele>
        <time>2023-02-08T15:29:19Z</time>
      </trkpt>
      <trkpt lat="49.7809" lon="2.17153">
        <ele>47</ele>
        <time>2023-02-08T15:29:20Z</time>
      </trkpt>
      <trkpt lat="49.7809" lon="2.17153">
        <ele>47</ele>
        <time>2023-02-08T15:29:21Z</time>
      </trkpt>
      <trkpt lat="49.7809" lon="2.17153">
        <ele>47</ele>
        <time>2023-02-08T15:29:22Z</time>
      </trkpt>
      <trkpt lat="49.7809" lon="2.17153">
        <ele>47</ele>
        <time>2023-02-08T15:29:23Z</time>
      </trkpt>
      <trkpt lat="49.7809" lon="2.17153">
        <ele>47</ele>
        <time>2023-02-08T15:29:24Z</time>
      </trkpt>
      <trkpt lat="49.7809" lon="2.17153">
        <ele>47</ele>
        <time>2023-02-08T15:29:25Z</time>
      </trkpt>
      <trkpt lat="49.7809" lon="2.17153">
        <ele>47</ele>
        <time>2023-02-08T15:29:26Z</time>
      </trkpt>
      <trkpt lat="49.7809" lon="2.17153">
        <ele>47</ele>
        <time>2023-02-08T15:29:27Z</time>
      </trkpt>
      <trkpt lat="49.7809" lon="2.17153">
        <ele>47</ele>
        <time>2023-02-08T15:29:28Z</time>
      </trkpt>
      <trkpt lat="49.7809" lon="2.17153">
        <ele>47</ele>
        <time>2023-02-08T15:29:29Z</time>
      </trkpt>
      <trkpt lat="49.7809" lon="2.17153">
        <ele>47</ele>
        <time>2023-02-08T15:29:30Z</time>
      </trkpt>
      <trkpt lat="49.7809" lon="2.17153">
        <ele>47</ele>
        <time>2023-02-08T15:29:31Z</time>
      </trkpt>
      <trkpt lat="49.7809" lon="2.17153">
        <ele>47</ele>
        <time>2023-02-08T15:29:32Z</time>
      </trkpt>
      <trkpt lat="49.7809" lon="2.17153">
        <ele>47</ele>
        <time>2023-02-08T15:29:33Z</time>
      </trkpt>
      <trkpt lat="49.7809" lon="2.17153">
        <ele>47</ele>
        <time>2023-02-08T15:29:34Z</time>
      </trkpt>
      <trkpt lat="49.7809" lon="2.17153">
        <ele>47</ele>
        <time>2023-02-08T15:29:35Z</time>
      </trkpt>
      <trkpt lat="49.7809" lon="2.17153">
        <ele>47</ele>
        <time>2023-02-08T15:29:36Z</time>
      </trkpt>
      <trkpt lat="49.7809" lon="2.17153">
        <ele>47</ele>
        <time>2023-02-08T15:29:37Z</time>
      </trkpt>
      <trkpt lat="49.7809" lon="2.17153">
        <ele>47</ele>
        <time>2023-02-08T15:29:38Z</time>
      </trkpt>
      <trkpt lat="49.7809" lon="2.17153">
        <ele>47</ele>
        <time>2023-02-08T15:29:39Z</time>
      </trkpt>
      <trkpt lat="49.7809" lon="2.17153">
        <ele>47</ele>
        <time>2023-02-08T15:29:40Z</time>
      </trkpt>
      <trkpt lat="49.7809" lon="2.17153">
        <ele>47</ele>
        <time>2023-02-08T15:29:41Z</time>
      </trkpt>
      <trkpt lat="49.7809" lon="2.17153">
        <ele>47</ele>
        <time>2023-02-08T15:29:42Z</time>
      </trkpt>
      <trkpt lat="49.7809" lon="2.17153">
        <ele>47</ele>
        <time>2023-02-08T15:29:43Z</time>
      </trkpt>
      <trkpt lat="49.7809" lon="2.17153">
        <ele>47</ele>
        <time>2023-02-08T15:29:44Z</time>
      </trkpt>
      <trkpt lat="49.7809" lon="2.17153">
        <ele>47</ele>
        <time>2023-02-08T15:29:45Z</time>
      </trkpt>
      <trkpt lat="49.7809" lon="2.17153">
        <ele>47</ele>
        <time>2023-02-08T15:29:46Z</time>
      </trkpt>
      <trkpt lat="49.7809" lon="2.17153">
        <ele>47</ele>
        <time>2023-02-08T15:29:47Z</time>
      </trkpt>
      <trkpt lat="49.7809" lon="2.17153">
        <ele>47</ele>
        <time>2023-02-08T15:29:48Z</time>
      </trkpt>
      <trkpt lat="49.7809" lon="2.17153">
        <ele>47</ele>
        <time>2023-02-08T15:29:49Z</time>
      </trkpt>
      <trkpt lat="49.7809" lon="2.17153">
        <ele>47</ele>
        <time>2023-02-08T15:29:50Z</time>
      </trkpt>
      <trkpt lat="49.7809" lon="2.17153">
        <ele>47</ele>
        <time>2023-02-08T15:29:51Z</time>
      </trkpt>
      <trkpt lat="49.7809" lon="2.17153">
        <ele>47</ele>
        <time>2023-02-08T15:29:52Z</time>
      </trkpt>
      <trkpt lat="49.7809" lon="2.17153">
        <ele>47</ele>
        <time>2023-02-08T15:29:53Z</time>
      </trkpt>
      <trkpt lat="49.7809" lon="2.17153">
        <ele>47</ele>
        <time>2023-02-08T15:29:54Z</time>
      </trkpt>
      <trkpt lat="49.7809" lon="2.17153">
        <ele>47</ele>
        <time>2023-02-08T15:29:55Z</time>
      </trkpt>
      <trkpt lat="49.7809" lon="2.17153">
        <ele>47</ele>
        <time>2023-02-08T15:29:56Z</time>
      </trkpt>
      <trkpt lat="49.7809" lon="2.17153">
        <ele>47</ele>
        <time>2023-02-08T15:29:57Z</time>
      </trkpt>
      <trkpt lat="49.7809" lon="2.17153">
        <ele>47</ele>
        <time>2023-02-08T15:29:58Z</time>
      </trkpt>
      <trkpt lat="49.7809" lon="2.17153">
        <ele>47</ele>
        <time>2023-02-08T15:29:59Z</time>
      </trkpt>
      <trkpt lat="49.7809" lon="2.17153">
        <ele>47</ele>
        <time>2023-02-08T15:30:00Z</time>
      </trkpt>
      <trkpt lat="49.7809" lon="2.17153">
        <ele>47</ele>
        <time>2023-02-08T15:30:01Z</time>
      </trkpt>
      <trkpt lat="49.7809" lon="2.17153">
        <ele>47</ele>
        <time>2023-02-08T15:30:02Z</time>
      </trkpt>
      <trkpt lat="49.7809" lon="2.17153">
        <ele>47</ele>
        <time>2023-02-08T15:30:03Z</time>
      </trkpt>
      <trkpt lat="49.7809" lon="2.17153">
        <ele>47</ele>
        <time>2023-02-08T15:30:04Z</time>
      </trkpt>
      <trkpt lat="49.7809" lon="2.17153">
        <ele>47</ele>
        <time>2023-02-08T15:30:05Z</time>
      </trkpt>
      <trkpt lat="49.7809" lon="2.17153">
        <ele>47</ele>
        <time>2023-02-08T15:30:06Z</time>
      </trkpt>
      <trkpt lat="49.7809" lon="2.17153">
        <ele>47</ele>
        <time>2023-02-08T15:30:07Z</time>
      </trkpt>
      <trkpt lat="49.7809" lon="2.17153">
        <ele>47</ele>
        <time>2023-02-08T15:30:08Z</time>
      </trkpt>
      <trkpt lat="49.7809" lon="2.17153">
        <ele>47</ele>
        <time>2023-02-08T15:30:09Z</time>
      </trkpt>
      <trkpt lat="49.7809" lon="2.17153">
        <ele>47</ele>
        <time>2023-02-08T15:30:10Z</time>
      </trkpt>
      <trkpt lat="49.7809" lon="2.17153">
        <ele>47</ele>
        <time>2023-02-08T15:30:11Z</time>
      </trkpt>
      <trkpt lat="49.7809" lon="2.17153">
        <ele>47</ele>
        <time>2023-02-08T15:30:12Z</time>
      </trkpt>
      <trkpt lat="49.7809" lon="2.17153">
        <ele>47</ele>
        <time>2023-02-08T15:30:13Z</time>
      </trkpt>
      <trkpt lat="49.7809" lon="2.17153">
        <ele>47</ele>
        <time>2023-02-08T15:30:14Z</time>
      </trkpt>
      <trkpt lat="49.7809" lon="2.17153">
        <ele>47</ele>
        <time>2023-02-08T15:30:15Z</time>
      </trkpt>
      <trkpt lat="49.7809" lon="2.17153">
        <ele>47</ele>
        <time>2023-02-08T15:30:16Z</time>
      </trkpt>
      <trkpt lat="49.7809" lon="2.17154">
        <ele>47</ele>
        <time>2023-02-08T15:30:17Z</time>
      </trkpt>
      <trkpt lat="49.7809" lon="2.17154">
        <ele>47</ele>
        <time>2023-02-08T15:30:18Z</time>
      </trkpt>
      <trkpt lat="49.7809" lon="2.17154">
        <ele>47</ele>
        <time>2023-02-08T15:30:19Z</time>
      </trkpt>
      <trkpt lat="49.7809" lon="2.17154">
        <ele>47</ele>
        <time>2023-02-08T15:30:20Z</time>
      </trkpt>
      <trkpt lat="49.7809" lon="2.17154">
        <ele>47</ele>
        <time>2023-02-08T15:30:21Z</time>
      </trkpt>
      <trkpt lat="49.7809" lon="2.17154">
        <ele>47</ele>
        <time>2023-02-08T15:30:22Z</time>
      </trkpt>
      <trkpt lat="49.7809" lon="2.17154">
        <ele>47</ele>
        <time>2023-02-08T15:30:23Z</time>
      </trkpt>
      <trkpt lat="49.7809" lon="2.17154">
        <ele>47</ele>
        <time>2023-02-08T15:30:24Z</time>
      </trkpt>
      <trkpt lat="49.7809" lon="2.17154">
        <ele>47</ele>
        <time>2023-02-08T15:30:25Z</time>
      </trkpt>
      <trkpt lat="49.7809" lon="2.17154">
        <ele>47</ele>
        <time>2023-02-08T15:30:26Z</time>
      </trkpt>
      <trkpt lat="49.7809" lon="2.17154">
        <ele>47</ele>
        <time>2023-02-08T15:30:27Z</time>
      </trkpt>
      <trkpt lat="49.7809" lon="2.17154">
        <ele>47</ele>
        <time>2023-02-08T15:30:28Z</time>
      </trkpt>
      <trkpt lat="49.78093" lon="2.17156">
        <ele>47</ele>
        <time>2023-02-08T15:30:29Z</time>
      </trkpt>
      <trkpt lat="49.78093" lon="2.17156">
        <ele>47</ele>
        <time>2023-02-08T15:30:30Z</time>
      </trkpt>
      <trkpt lat="49.78093" lon="2.17155">
        <ele>47</ele>
        <time>2023-02-08T15:30:31Z</time>
      </trkpt>
      <trkpt lat="49.78092" lon="2.17155">
        <ele>47</ele>
        <time>2023-02-08T15:30:32Z</time>
      </trkpt>
      <trkpt lat="49.78091" lon="2.17153">
        <ele>47</ele>
        <time>2023-02-08T15:30:33Z</time>
      </trkpt>
      <trkpt lat="49.78091" lon="2.17153">
        <ele>47</ele>
        <time>2023-02-08T15:30:34Z</time>
      </trkpt>
      <trkpt lat="49.7809" lon="2.17152">
        <ele>47</ele>
        <time>2023-02-08T15:30:35Z</time>
      </trkpt>
      <trkpt lat="49.78089" lon="2.17151">
        <ele>47</ele>
        <time>2023-02-08T15:30:36Z</time>
      </trkpt>
      <trkpt lat="49.78088" lon="2.1715">
        <ele>47</ele>
        <time>2023-02-08T15:30:37Z</time>
      </trkpt>
      <trkpt lat="49.78087" lon="2.17149">
        <ele>47</ele>
        <time>2023-02-08T15:30:38Z</time>
      </trkpt>
      <trkpt lat="49.78086" lon="2.17149">
        <ele>47</ele>
        <time>2023-02-08T15:30:39Z</time>
      </trkpt>
      <trkpt lat="49.78086" lon="2.17148">
        <ele>47</ele>
        <time>2023-02-08T15:30:40Z</time>
      </trkpt>
      <trkpt lat="49.78085" lon="2.17148">
        <ele>47</ele>
        <time>2023-02-08T15:30:41Z</time>
      </trkpt>
      <trkpt lat="49.78084" lon="2.17148">
        <ele>47</ele>
        <time>2023-02-08T15:30:42Z</time>
      </trkpt>
      <trkpt lat="49.78083" lon="2.17147">
        <ele>47</ele>
        <time>2023-02-08T15:30:43Z</time>
      </trkpt>
      <trkpt lat="49.78083" lon="2.17146">
        <ele>47</ele>
        <time>2023-02-08T15:30:44Z</time>
      </trkpt>
      <trkpt lat="49.78082" lon="2.17145">
        <ele>47</ele>
        <time>2023-02-08T15:30:45Z</time>
      </trkpt>
      <trkpt lat="49.78082" lon="2.17144">
        <ele>47</ele>
        <time>2023-02-08T15:30:46Z</time>
      </trkpt>
      <trkpt lat="49.78081" lon="2.17143">
        <ele>47</ele>
        <time>2023-02-08T15:30:47Z</time>
      </trkpt>
      <trkpt lat="49.7808" lon="2.17142">
        <ele>47</ele>
        <time>2023-02-08T15:30:48Z</time>
      </trkpt>
      <trkpt lat="49.7808" lon="2.17141">
        <ele>47</ele>
        <time>2023-02-08T15:30:49Z</time>
      </trkpt>
      <trkpt lat="49.78079" lon="2.17139">
        <ele>47</ele>
        <time>2023-02-08T15:30:50Z</time>
      </trkpt>
      <trkpt lat="49.78078" lon="2.17138">
        <ele>47</ele>
        <time>2023-02-08T15:30:51Z</time>
      </trkpt>
      <trkpt lat="49.78078" lon="2.17138">
        <ele>47</ele>
        <time>2023-02-08T15:30:52Z</time>
      </trkpt>
      <trkpt lat="49.78077" lon="2.17136">
        <ele>47</ele>
        <time>2023-02-08T15:30:53Z</time>
      </trkpt>
      <trkpt lat="49.78076" lon="2.17135">
        <ele>47</ele>
        <time>2023-02-08T15:30:54Z</time>
      </trkpt>
      <trkpt lat="49.78076" lon="2.17134">
        <ele>47</ele>
        <time>2023-02-08T15:30:55Z</time>
      </trkpt>
      <trkpt lat="49.78075" lon="2.17133">
        <ele>47</ele>
        <time>2023-02-08T15:30:56Z</time>
      </trkpt>
      <trkpt lat="49.78074" lon="2.17132">
        <ele>47</ele>
        <time>2023-02-08T15:30:57Z</time>
      </trkpt>
      <trkpt lat="49.78074" lon="2.17131">
        <ele>47</ele>
        <time>2023-02-08T15:30:58Z</time>
      </trkpt>
      <trkpt lat="49.78073" lon="2.1713">
        <ele>47</ele>
        <time>2023-02-08T15:30:59Z</time>
      </trkpt>
      <trkpt lat="49.78072" lon="2.17129">
        <ele>47</ele>
        <time>2023-02-08T15:31:00Z</time>
      </trkpt>
      <trkpt lat="49.78071" lon="2.17128">
        <ele>47</ele>
        <time>2023-02-08T15:31:01Z</time>
      </trkpt>
      <trkpt lat="49.7807" lon="2.17127">
        <ele>47</ele>
        <time>2023-02-08T15:31:02Z</time>
      </trkpt>
      <trkpt lat="49.7807" lon="2.17126">
        <ele>47</ele>
        <time>2023-02-08T15:31:03Z</time>
      </trkpt>
      <trkpt lat="49.78069" lon="2.17125">
        <ele>47</ele>
        <time>2023-02-08T15:31:04Z</time>
      </trkpt>
      <trkpt lat="49.78068" lon="2.17124">
        <ele>47</ele>
        <time>2023-02-08T15:31:05Z</time>
      </trkpt>
      <trkpt lat="49.78068" lon="2.17123">
        <ele>47</ele>
        <time>2023-02-08T15:31:06Z</time>
      </trkpt>
      <trkpt lat="49.78067" lon="2.17123">
        <ele>47</ele>
        <time>2023-02-08T15:31:07Z</time>
      </trkpt>
      <trkpt lat="49.78066" lon="2.17122">
        <ele>47</ele>
        <time>2023-02-08T15:31:08Z</time>
      </trkpt>
      <trkpt lat="49.78065" lon="2.17121">
        <ele>47</ele>
        <time>2023-02-08T15:31:09Z</time>
      </trkpt>
      <trkpt lat="49.78065" lon="2.1712">
        <ele>47</ele>
        <time>2023-02-08T15:31:10Z</time>
      </trkpt>
      <trkpt lat="49.78064" lon="2.1712">
        <ele>47</ele>
        <time>2023-02-08T15:31:11Z</time>
      </trkpt>
      <trkpt lat="49.78064" lon="2.17119">
        <ele>47</ele>
        <time>2023-02-08T15:31:12Z</time>
      </trkpt>
      <trkpt lat="49.78063" lon="2.17119">
        <ele>47</ele>
        <time>2023-02-08T15:31:13Z</time>
      </trkpt>
      <trkpt lat="49.78062" lon="2.17118">
        <ele>47.1</ele>
        <time>2023-02-08T15:31:14Z</time>
      </trkpt>
      <trkpt lat="49.78061" lon="2.17117">
        <ele>47.1</ele>
        <time>2023-02-08T15:31:15Z</time>
      </trkpt>
      <trkpt lat="49.7806" lon="2.17116">
        <ele>47.1</ele>
        <time>2023-02-08T15:31:16Z</time>
      </trkpt>
      <trkpt lat="49.7806" lon="2.17115">
        <ele>47.1</ele>
        <time>2023-02-08T15:31:17Z</time>
      </trkpt>
      <trkpt lat="49.78059" lon="2.17114">
        <ele>47.1</ele>
        <time>2023-02-08T15:31:18Z</time>
      </trkpt>
      <trkpt lat="49.78058" lon="2.17112">
        <ele>47.1</ele>
        <time>2023-02-08T15:31:19Z</time>
      </trkpt>
      <trkpt lat="49.78057" lon="2.17112">
        <ele>47.1</ele>
        <time>2023-02-08T15:31:20Z</time>
      </trkpt>
      <trkpt lat="49.78057" lon="2.1711">
        <ele>47.1</ele>
        <time>2023-02-08T15:31:21Z</time>
      </trkpt>
      <trkpt lat="49.78056" lon="2.17109">
        <ele>47.1</ele>
        <time>2023-02-08T15:31:22Z</time>
      </trkpt>
      <trkpt lat="49.78055" lon="2.17108">
        <ele>47.1</ele>
        <time>2023-02-08T15:31:23Z</time>
      </trkpt>
      <trkpt lat="49.78054" lon="2.17106">
        <ele>47.2</ele>
        <time>2023-02-08T15:31:24Z</time>
      </trkpt>
      <trkpt lat="49.78053" lon="2.17106">
        <ele>47.2</ele>
        <time>2023-02-08T15:31:25Z</time>
      </trkpt>
      <trkpt lat="49.78053" lon="2.17105">
        <ele>47.2</ele>
        <time>2023-02-08T15:31:26Z</time>
      </trkpt>
      <trkpt lat="49.78052" lon="2.17104">
        <ele>47.2</ele>
        <time>2023-02-08T15:31:27Z</time>
      </trkpt>
      <trkpt lat="49.78051" lon="2.17103">
        <ele>47.2</ele>
        <time>2023-02-08T15:31:28Z</time>
      </trkpt>
      <trkpt lat="49.78049" lon="2.171">
        <ele>47.2</ele>
        <time>2023-02-08T15:31:29Z</time>
      </trkpt>
      <trkpt lat="49.78048" lon="2.17099">
        <ele>47.3</ele>
        <time>2023-02-08T15:31:30Z</time>
      </trkpt>
      <trkpt lat="49.78047" lon="2.17096">
        <ele>47.3</ele>
        <time>2023-02-08T15:31:31Z</time>
      </trkpt>
      <trkpt lat="49.78046" lon="2.17095">
        <ele>47.3</ele>
        <time>2023-02-08T15:31:32Z</time>
      </trkpt>
      <trkpt lat="49.78045" lon="2.17094">
        <ele>47.3</ele>
        <time>2023-02-08T15:31:33Z</time>
      </trkpt>
      <trkpt lat="49.78044" lon="2.17093">
        <ele>47.3</ele>
        <time>2023-02-08T15:31:34Z</time>
      </trkpt>
      <trkpt lat="49.78043" lon="2.17091">
        <ele>47.3</ele>
        <time>2023-02-08T15:31:35Z</time>
      </trkpt>
      <trkpt lat="49.78043" lon="2.1709">
        <ele>47.4</ele>
        <time>2023-02-08T15:31:36Z</time>
      </trkpt>
      <trkpt lat="49.78041" lon="2.17087">
        <ele>47.4</ele>
        <time>2023-02-08T15:31:38Z</time>
      </trkpt>
      <trkpt lat="49.7804" lon="2.17086">
        <ele>47.4</ele>
        <time>2023-02-08T15:31:39Z</time>
      </trkpt>
      <trkpt lat="49.7804" lon="2.17085">
        <ele>47.4</ele>
        <time>2023-02-08T15:31:40Z</time>
      </trkpt>
      <trkpt lat="49.78039" lon="2.17084">
        <ele>47.4</ele>
        <time>2023-02-08T15:31:41Z</time>
      </trkpt>
      <trkpt lat="49.78037" lon="2.17082">
        <ele>47.4</ele>
        <time>2023-02-08T15:31:42Z</time>
      </trkpt>
      <trkpt lat="49.78036" lon="2.17081">
        <ele>47.5</ele>
        <time>2023-02-08T15:31:44Z</time>
      </trkpt>
      <trkpt lat="49.78035" lon="2.17079">
        <ele>47.5</ele>
        <time>2023-02-08T15:31:45Z</time>
      </trkpt>
      <trkpt lat="49.78034" lon="2.17078">
        <ele>47.5</ele>
        <time>2023-02-08T15:31:46Z</time>
      </trkpt>
      <trkpt lat="49.78033" lon="2.17077">
        <ele>47.5</ele>
        <time>2023-02-08T15:31:47Z</time>
      </trkpt>
      <trkpt lat="49.78032" lon="2.17075">
        <ele>47.5</ele>
        <time>2023-02-08T15:31:48Z</time>
      </trkpt>
      <trkpt lat="49.7803" lon="2.17074">
        <ele>47.5</ele>
        <time>2023-02-08T15:31:49Z</time>
      </trkpt>
      <trkpt lat="49.78029" lon="2.17072">
        <ele>47.6</ele>
        <time>2023-02-08T15:31:50Z</time>
      </trkpt>
      <trkpt lat="49.78028" lon="2.17071">
        <ele>47.6</ele>
        <time>2023-02-08T15:31:51Z</time>
      </trkpt>
      <trkpt lat="49.78027" lon="2.17069">
        <ele>47.6</ele>
        <time>2023-02-08T15:31:52Z</time>
      </trkpt>
      <trkpt lat="49.78025" lon="2.17067">
        <ele>47.6</ele>
        <time>2023-02-08T15:31:54Z</time>
      </trkpt>
      <trkpt lat="49.78024" lon="2.17066">
        <ele>47.6</ele>
        <time>2023-02-08T15:31:55Z</time>
      </trkpt>
      <trkpt lat="49.78023" lon="2.17065">
        <ele>47.6</ele>
        <time>2023-02-08T15:31:56Z</time>
      </trkpt>
      <trkpt lat="49.78021" lon="2.17064">
        <ele>47.6</ele>
        <time>2023-02-08T15:31:58Z</time>
      </trkpt>
      <trkpt lat="49.7802" lon="2.17063">
        <ele>47.6</ele>
        <time>2023-02-08T15:31:59Z</time>
      </trkpt>
      <trkpt lat="49.7802" lon="2.17062">
        <ele>47.6</ele>
        <time>2023-02-08T15:32:00Z</time>
      </trkpt>
      <trkpt lat="49.78018" lon="2.1706">
        <ele>47.6</ele>
        <time>2023-02-08T15:32:01Z</time>
      </trkpt>
      <trkpt lat="49.78017" lon="2.17059">
        <ele>47.6</ele>
        <time>2023-02-08T15:32:02Z</time>
      </trkpt>
      <trkpt lat="49.78017" lon="2.17059">
        <ele>47.7</ele>
        <time>2023-02-08T15:32:03Z</time>
      </trkpt>
      <trkpt lat="49.78015" lon="2.17057">
        <ele>47.7</ele>
        <time>2023-02-08T15:32:04Z</time>
      </trkpt>
      <trkpt lat="49.78014" lon="2.17056">
        <ele>47.7</ele>
        <time>2023-02-08T15:32:05Z</time>
      </trkpt>
      <trkpt lat="49.78014" lon="2.17055">
        <ele>47.7</ele>
        <time>2023-02-08T15:32:06Z</time>
      </trkpt>
      <trkpt lat="49.78012" lon="2.17053">
        <ele>47.7</ele>
        <time>2023-02-08T15:32:08Z</time>
      </trkpt>
      <trkpt lat="49.78012" lon="2.17052">
        <ele>47.7</ele>
        <time>2023-02-08T15:32:09Z</time>
      </trkpt>
      <trkpt lat="49.78011" lon="2.17051">
        <ele>47.7</ele>
        <time>2023-02-08T15:32:10Z</time>
      </trkpt>
      <trkpt lat="49.7801" lon="2.17049">
        <ele>47.7</ele>
        <time>2023-02-08T15:32:11Z</time>
      </trkpt>
      <trkpt lat="49.78009" lon="2.17048">
        <ele>47.7</ele>
        <time>2023-02-08T15:32:12Z</time>
      </trkpt>
      <trkpt lat="49.78007" lon="2.17046">
        <ele>47.7</ele>
        <time>2023-02-08T15:32:13Z</time>
      </trkpt>
      <trkpt lat="49.78007" lon="2.17045">
        <ele>47.7</ele>
        <time>2023-02-08T15:32:14Z</time>
      </trkpt>
      <trkpt lat="49.78006" lon="2.17044">
        <ele>47.7</ele>
        <time>2023-02-08T15:32:15Z</time>
      </trkpt>
      <trkpt lat="49.78006" lon="2.17044">
        <ele>47.7</ele>
        <time>2023-02-08T15:32:16Z</time>
      </trkpt>
      <trkpt lat="49.78006" lon="2.17044">
        <ele>47.7</ele>
        <time>2023-02-08T15:32:18Z</time>
      </trkpt>
      <trkpt lat="49.78006" lon="2.17044">
        <ele>47.7</ele>
        <time>2023-02-08T15:32:19Z</time>
      </trkpt>
      <trkpt lat="49.78005" lon="2.17043">
        <ele>47.7</ele>
        <time>2023-02-08T15:32:20Z</time>
      </trkpt>
      <trkpt lat="49.78004" lon="2.17042">
        <ele>47.7</ele>
        <time>2023-02-08T15:32:21Z</time>
      </trkpt>
      <trkpt lat="49.78003" lon="2.17041">
        <ele>47.7</ele>
        <time>2023-02-08T15:32:22Z</time>
      </trkpt>
      <trkpt lat="49.78001" lon="2.17039">
        <ele>47.8</ele>
        <time>2023-02-08T15:32:23Z</time>
      </trkpt>
      <trkpt lat="49.78001" lon="2.17038">
        <ele>47.8</ele>
        <time>2023-02-08T15:32:24Z</time>
      </trkpt>
      <trkpt lat="49.78" lon="2.17038">
        <ele>47.8</ele>
        <time>2023-02-08T15:32:25Z</time>
      </trkpt>
      <trkpt lat="49.77999" lon="2.17037">
        <ele>47.8</ele>
        <time>2023-02-08T15:32:26Z</time>
      </trkpt>
      <trkpt lat="49.77998" lon="2.17035">
        <ele>47.8</ele>
        <time>2023-02-08T15:32:27Z</time>
      </trkpt>
      <trkpt lat="49.77997" lon="2.17034">
        <ele>47.8</ele>
        <time>2023-02-08T15:32:29Z</time>
      </trkpt>
      <trkpt lat="49.77996" lon="2.17032">
        <ele>47.8</ele>
        <time>2023-02-08T15:32:30Z</time>
      </trkpt>
      <trkpt lat="49.77995" lon="2.17031">
        <ele>47.8</ele>
        <time>2023-02-08T15:32:31Z</time>
      </trkpt>
      <trkpt lat="49.77994" lon="2.1703">
        <ele>47.8</ele>
        <time>2023-02-08T15:32:32Z</time>
      </trkpt>
      <trkpt lat="49.77994" lon="2.17029">
        <ele>47.8</ele>
        <time>2023-02-08T15:32:33Z</time>
      </trkpt>
      <trkpt lat="49.77993" lon="2.17027">
        <ele>47.8</ele>
        <time>2023-02-08T15:32:34Z</time>
      </trkpt>
      <trkpt lat="49.77992" lon="2.17026">
        <ele>47.8</ele>
        <time>2023-02-08T15:32:36Z</time>
      </trkpt>
      <trkpt lat="49.77991" lon="2.17025">
        <ele>47.8</ele>
        <time>2023-02-08T15:32:37Z</time>
      </trkpt>
      <trkpt lat="49.7799" lon="2.17024">
        <ele>47.8</ele>
        <time>2023-02-08T15:32:38Z</time>
      </trkpt>
      <trkpt lat="49.77989" lon="2.17023">
        <ele>47.8</ele>
        <time>2023-02-08T15:32:39Z</time>
      </trkpt>
      <trkpt lat="49.77989" lon="2.17022">
        <ele>47.8</ele>
        <time>2023-02-08T15:32:40Z</time>
      </trkpt>
      <trkpt lat="49.77989" lon="2.17021">
        <ele>47.8</ele>
        <time>2023-02-08T15:32:41Z</time>
      </trkpt>
      <trkpt lat="49.77988" lon="2.1702">
        <ele>47.8</ele>
        <time>2023-02-08T15:32:42Z</time>
      </trkpt>
      <trkpt lat="49.77988" lon="2.1702">
        <ele>47.8</ele>
        <time>2023-02-08T15:32:43Z</time>
      </trkpt>
      <trkpt lat="49.77987" lon="2.17019">
        <ele>47.8</ele>
        <time>2023-02-08T15:32:44Z</time>
      </trkpt>
      <trkpt lat="49.77987" lon="2.17019">
        <ele>47.8</ele>
        <time>2023-02-08T15:32:46Z</time>
      </trkpt>
      <trkpt lat="49.77986" lon="2.17019">
        <ele>47.8</ele>
        <time>2023-02-08T15:32:47Z</time>
      </trkpt>
      <trkpt lat="49.77985" lon="2.17019">
        <ele>47.8</ele>
        <time>2023-02-08T15:32:48Z</time>
      </trkpt>
      <trkpt lat="49.77984" lon="2.17018">
        <ele>47.8</ele>
        <time>2023-02-08T15:32:49Z</time>
      </trkpt>
      <trkpt lat="49.77983" lon="2.17017">
        <ele>47.8</ele>
        <time>2023-02-08T15:32:50Z</time>
      </trkpt>
      <trkpt lat="49.77982" lon="2.17016">
        <ele>47.8</ele>
        <time>2023-02-08T15:32:51Z</time>
      </trkpt>
      <trkpt lat="49.77981" lon="2.17015">
        <ele>47.8</ele>
        <time>2023-02-08T15:32:52Z</time>
      </trkpt>
      <trkpt lat="49.7798" lon="2.17014">
        <ele>47.8</ele>
        <time>2023-02-08T15:32:54Z</time>
      </trkpt>
      <trkpt lat="49.77979" lon="2.17013">
        <ele>47.8</ele>
        <time>2023-02-08T15:32:55Z</time>
      </trkpt>
      <trkpt lat="49.77979" lon="2.17012">
        <ele>47.8</ele>
        <time>2023-02-08T15:32:56Z</time>
      </trkpt>
      <trkpt lat="49.77978" lon="2.17011">
        <ele>47.8</ele>
        <time>2023-02-08T15:32:57Z</time>
      </trkpt>
      <trkpt lat="49.77977" lon="2.17009">
        <ele>47.7</ele>
        <time>2023-02-08T15:32:58Z</time>
      </trkpt>
      <trkpt lat="49.77975" lon="2.17007">
        <ele>47.7</ele>
        <time>2023-02-08T15:32:59Z</time>
      </trkpt>
      <trkpt lat="49.77974" lon="2.17005">
        <ele>47.7</ele>
        <time>2023-02-08T15:33:00Z</time>
      </trkpt>
      <trkpt lat="49.77973" lon="2.17004">
        <ele>47.7</ele>
        <time>2023-02-08T15:33:02Z</time>
      </trkpt>
      <trkpt lat="49.77972" lon="2.17003">
        <ele>47.7</ele>
        <time>2023-02-08T15:33:03Z</time>
      </trkpt>
      <trkpt lat="49.77971" lon="2.17001">
        <ele>47.7</ele>
        <time>2023-02-08T15:33:04Z</time>
      </trkpt>
      <trkpt lat="49.7797" lon="2.17">
        <ele>47.7</ele>
        <time>2023-02-08T15:33:05Z</time>
      </trkpt>
      <trkpt lat="49.77968" lon="2.16997">
        <ele>47.7</ele>
        <time>2023-02-08T15:33:07Z</time>
      </trkpt>
      <trkpt lat="49.77967" lon="2.16996">
        <ele>47.7</ele>
        <time>2023-02-08T15:33:08Z</time>
      </trkpt>
      <trkpt lat="49.77966" lon="2.16994">
        <ele>47.7</ele>
        <time>2023-02-08T15:33:10Z</time>
      </trkpt>
      <trkpt lat="49.77964" lon="2.16992">
        <ele>47.7</ele>
        <time>2023-02-08T15:33:11Z</time>
      </trkpt>
      <trkpt lat="49.77961" lon="2.16989">
        <ele>47.7</ele>
        <time>2023-02-08T15:33:13Z</time>
      </trkpt>
      <trkpt lat="49.7796" lon="2.16988">
        <ele>47.7</ele>
        <time>2023-02-08T15:33:14Z</time>
      </trkpt>
      <trkpt lat="49.77958" lon="2.16985">
        <ele>47.7</ele>
        <time>2023-02-08T15:33:15Z</time>
      </trkpt>
      <trkpt lat="49.77957" lon="2.16984">
        <ele>47.7</ele>
        <time>2023-02-08T15:33:17Z</time>
      </trkpt>
      <trkpt lat="49.77957" lon="2.16983">
        <ele>47.7</ele>
        <time>2023-02-08T15:33:18Z</time>
      </trkpt>
      <trkpt lat="49.77956" lon="2.16982">
        <ele>47.7</ele>
        <time>2023-02-08T15:33:19Z</time>
      </trkpt>
      <trkpt lat="49.77955" lon="2.16981">
        <ele>47.7</ele>
        <time>2023-02-08T15:33:20Z</time>
      </trkpt>
      <trkpt lat="49.77954" lon="2.1698">
        <ele>47.7</ele>
        <time>2023-02-08T15:33:21Z</time>
      </trkpt>
      <trkpt lat="49.77953" lon="2.16979">
        <ele>47.7</ele>
        <time>2023-02-08T15:33:22Z</time>
      </trkpt>
      <trkpt lat="49.77951" lon="2.16977">
        <ele>47.7</ele>
        <time>2023-02-08T15:33:24Z</time>
      </trkpt>
      <trkpt lat="49.7795" lon="2.16976">
        <ele>47.7</ele>
        <time>2023-02-08T15:33:25Z</time>
      </trkpt>
      <trkpt lat="49.77948" lon="2.16974">
        <ele>47.7</ele>
        <time>2023-02-08T15:33:26Z</time>
      </trkpt>
      <trkpt lat="49.77947" lon="2.16974">
        <ele>47.7</ele>
        <time>2023-02-08T15:33:27Z</time>
      </trkpt>
      <trkpt lat="49.77947" lon="2.16973">
        <ele>47.8</ele>
        <time>2023-02-08T15:33:28Z</time>
      </trkpt>
      <trkpt lat="49.77946" lon="2.16972">
        <ele>47.8</ele>
        <time>2023-02-08T15:33:29Z</time>
      </trkpt>
      <trkpt lat="49.77945" lon="2.16971">
        <ele>47.8</ele>
        <time>2023-02-08T15:33:30Z</time>
      </trkpt>
      <trkpt lat="49.77944" lon="2.1697">
        <ele>47.8</ele>
        <time>2023-02-08T15:33:31Z</time>
      </trkpt>
      <trkpt lat="49.77942" lon="2.16969">
        <ele>47.8</ele>
        <time>2023-02-08T15:33:32Z</time>
      </trkpt>
      <trkpt lat="49.77941" lon="2.16968">
        <ele>47.8</ele>
        <time>2023-02-08T15:33:34Z</time>
      </trkpt>
      <trkpt lat="49.77941" lon="2.16967">
        <ele>47.8</ele>
        <time>2023-02-08T15:33:35Z</time>
      </trkpt>
      <trkpt lat="49.77939" lon="2.16966">
        <ele>47.8</ele>
        <time>2023-02-08T15:33:36Z</time>
      </trkpt>
      <trkpt lat="49.77938" lon="2.16964">
        <ele>47.8</ele>
        <time>2023-02-08T15:33:37Z</time>
      </trkpt>
      <trkpt lat="49.77937" lon="2.16963">
        <ele>47.8</ele>
        <time>2023-02-08T15:33:38Z</time>
      </trkpt>
      <trkpt lat="49.77935" lon="2.16962">
        <ele>47.8</ele>
        <time>2023-02-08T15:33:39Z</time>
      </trkpt>
      <trkpt lat="49.77934" lon="2.16961">
        <ele>47.8</ele>
        <time>2023-02-08T15:33:40Z</time>
      </trkpt>
      <trkpt lat="49.77933" lon="2.1696">
        <ele>47.8</ele>
        <time>2023-02-08T15:33:42Z</time>
      </trkpt>
      <trkpt lat="49.77931" lon="2.16957">
        <ele>47.8</ele>
        <time>2023-02-08T15:33:43Z</time>
      </trkpt>
      <trkpt lat="49.77931" lon="2.16956">
        <ele>47.8</ele>
        <time>2023-02-08T15:33:44Z</time>
      </trkpt>
      <trkpt lat="49.7793" lon="2.16954">
        <ele>47.8</ele>
        <time>2023-02-08T15:33:45Z</time>
      </trkpt>
      <trkpt lat="49.77929" lon="2.16953">
        <ele>47.8</ele>
        <time>2023-02-08T15:33:46Z</time>
      </trkpt>
      <trkpt lat="49.77928" lon="2.16952">
        <ele>47.8</ele>
        <time>2023-02-08T15:33:47Z</time>
      </trkpt>
      <trkpt lat="49.77927" lon="2.1695">
        <ele>47.8</ele>
        <time>2023-02-08T15:33:48Z</time>
      </trkpt>
      <trkpt lat="49.77926" lon="2.16949">
        <ele>47.8</ele>
        <time>2023-02-08T15:33:49Z</time>
      </trkpt>
      <trkpt lat="49.77925" lon="2.16948">
        <ele>47.8</ele>
        <time>2023-02-08T15:33:51Z</time>
      </trkpt>
      <trkpt lat="49.77925" lon="2.16947">
        <ele>47.8</ele>
        <time>2023-02-08T15:33:52Z</time>
      </trkpt>
      <trkpt lat="49.77924" lon="2.16947">
        <ele>47.8</ele>
        <time>2023-02-08T15:33:53Z</time>
      </trkpt>
      <trkpt lat="49.77923" lon="2.16946">
        <ele>47.8</ele>
        <time>2023-02-08T15:33:54Z</time>
      </trkpt>
      <trkpt lat="49.77922" lon="2.16944">
        <ele>47.7</ele>
        <time>2023-02-08T15:33:55Z</time>
      </trkpt>
      <trkpt lat="49.77921" lon="2.16943">
        <ele>47.7</ele>
        <time>2023-02-08T15:33:56Z</time>
      </trkpt>
      <trkpt lat="49.77921" lon="2.16942">
        <ele>47.7</ele>
        <time>2023-02-08T15:33:57Z</time>
      </trkpt>
      <trkpt lat="49.7792" lon="2.16941">
        <ele>47.7</ele>
        <time>2023-02-08T15:33:58Z</time>
      </trkpt>
      <trkpt lat="49.77919" lon="2.16941">
        <ele>47.7</ele>
        <time>2023-02-08T15:34:00Z</time>
      </trkpt>
      <trkpt lat="49.77919" lon="2.1694">
        <ele>47.7</ele>
        <time>2023-02-08T15:34:01Z</time>
      </trkpt>
      <trkpt lat="49.77918" lon="2.16938">
        <ele>47.7</ele>
        <time>2023-02-08T15:34:02Z</time>
      </trkpt>
      <trkpt lat="49.77916" lon="2.16937">
        <ele>47.7</ele>
        <time>2023-02-08T15:34:03Z</time>
      </trkpt>
      <trkpt lat="49.77915" lon="2.16934">
        <ele>47.7</ele>
        <time>2023-02-08T15:34:04Z</time>
      </trkpt>
      <trkpt lat="49.77914" lon="2.16933">
        <ele>47.7</ele>
        <time>2023-02-08T15:34:05Z</time>
      </trkpt>
      <trkpt lat="49.77913" lon="2.16931">
        <ele>47.7</ele>
        <time>2023-02-08T15:34:06Z</time>
      </trkpt>
      <trkpt lat="49.77911" lon="2.16928">
        <ele>47.7</ele>
        <time>2023-02-08T15:34:07Z</time>
      </trkpt>
      <trkpt lat="49.7791" lon="2.16927">
        <ele>47.7</ele>
        <time>2023-02-08T15:34:08Z</time>
      </trkpt>
      <trkpt lat="49.77909" lon="2.16924">
        <ele>47.6</ele>
        <time>2023-02-08T15:34:09Z</time>
      </trkpt>
      <trkpt lat="49.77908" lon="2.16923">
        <ele>47.6</ele>
        <time>2023-02-08T15:34:11Z</time>
      </trkpt>
      <trkpt lat="49.77908" lon="2.16922">
        <ele>47.6</ele>
        <time>2023-02-08T15:34:12Z</time>
      </trkpt>
      <trkpt lat="49.77907" lon="2.16921">
        <ele>47.6</ele>
        <time>2023-02-08T15:34:13Z</time>
      </trkpt>
      <trkpt lat="49.77906" lon="2.1692">
        <ele>47.6</ele>
        <time>2023-02-08T15:34:14Z</time>
      </trkpt>
      <trkpt lat="49.77904" lon="2.16919">
        <ele>47.6</ele>
        <time>2023-02-08T15:34:15Z</time>
      </trkpt>
      <trkpt lat="49.77903" lon="2.16917">
        <ele>47.6</ele>
        <time>2023-02-08T15:34:16Z</time>
      </trkpt>
      <trkpt lat="49.77901" lon="2.16915">
        <ele>47.6</ele>
        <time>2023-02-08T15:34:17Z</time>
      </trkpt>
      <trkpt lat="49.779" lon="2.16914">
        <ele>47.6</ele>
        <time>2023-02-08T15:34:18Z</time>
      </trkpt>
      <trkpt lat="49.77898" lon="2.16913">
        <ele>47.5</ele>
        <time>2023-02-08T15:34:20Z</time>
      </trkpt>
      <trkpt lat="49.77898" lon="2.16912">
        <ele>47.5</ele>
        <time>2023-02-08T15:34:21Z</time>
      </trkpt>
      <trkpt lat="49.77897" lon="2.16911">
        <ele>47.5</ele>
        <time>2023-02-08T15:34:22Z</time>
      </trkpt>
      <trkpt lat="49.77896" lon="2.1691">
        <ele>47.5</ele>
        <time>2023-02-08T15:34:23Z</time>
      </trkpt>
      <trkpt lat="49.77895" lon="2.16908">
        <ele>47.5</ele>
        <time>2023-02-08T15:34:24Z</time>
      </trkpt>
      <trkpt lat="49.77893" lon="2.16906">
        <ele>47.5</ele>
        <time>2023-02-08T15:34:25Z</time>
      </trkpt>
      <trkpt lat="49.77892" lon="2.16905">
        <ele>47.5</ele>
        <time>2023-02-08T15:34:26Z</time>
      </trkpt>
      <trkpt lat="49.77892" lon="2.16904">
        <ele>47.5</ele>
        <time>2023-02-08T15:34:27Z</time>
      </trkpt>
      <trkpt lat="49.77891" lon="2.16903">
        <ele>47.5</ele>
        <time>2023-02-08T15:34:28Z</time>
      </trkpt>
      <trkpt lat="49.77891" lon="2.16902">
        <ele>47.5</ele>
        <time>2023-02-08T15:34:29Z</time>
      </trkpt>
      <trkpt lat="49.7789" lon="2.16901">
        <ele>47.5</ele>
        <time>2023-02-08T15:34:30Z</time>
      </trkpt>
      <trkpt lat="49.77888" lon="2.16899">
        <ele>47.5</ele>
        <time>2023-02-08T15:34:31Z</time>
      </trkpt>
      <trkpt lat="49.77887" lon="2.16898">
        <ele>47.5</ele>
        <time>2023-02-08T15:34:32Z</time>
      </trkpt>
      <trkpt lat="49.77887" lon="2.16897">
        <ele>47.5</ele>
        <time>2023-02-08T15:34:33Z</time>
      </trkpt>
      <trkpt lat="49.77885" lon="2.16895">
        <ele>47.5</ele>
        <time>2023-02-08T15:34:35Z</time>
      </trkpt>
      <trkpt lat="49.77884" lon="2.16895">
        <ele>47.5</ele>
        <time>2023-02-08T15:34:36Z</time>
      </trkpt>
      <trkpt lat="49.77884" lon="2.16894">
        <ele>47.5</ele>
        <time>2023-02-08T15:34:37Z</time>
      </trkpt>
      <trkpt lat="49.77883" lon="2.16893">
        <ele>47.5</ele>
        <time>2023-02-08T15:34:38Z</time>
      </trkpt>
      <trkpt lat="49.77882" lon="2.16892">
        <ele>47.5</ele>
        <time>2023-02-08T15:34:39Z</time>
      </trkpt>
      <trkpt lat="49.7788" lon="2.16891">
        <ele>47.5</ele>
        <time>2023-02-08T15:34:41Z</time>
      </trkpt>
      <trkpt lat="49.7788" lon="2.1689">
        <ele>47.5</ele>
        <time>2023-02-08T15:34:42Z</time>
      </trkpt>
      <trkpt lat="49.77879" lon="2.16888">
        <ele>47.5</ele>
        <time>2023-02-08T15:34:43Z</time>
      </trkpt>
      <trkpt lat="49.77877" lon="2.16886">
        <ele>47.5</ele>
        <time>2023-02-08T15:34:44Z</time>
      </trkpt>
      <trkpt lat="49.77876" lon="2.16884">
        <ele>47.5</ele>
        <time>2023-02-08T15:34:45Z</time>
      </trkpt>
      <trkpt lat="49.77875" lon="2.16884">
        <ele>47.5</ele>
        <time>2023-02-08T15:34:46Z</time>
      </trkpt>
      <trkpt lat="49.77874" lon="2.16882">
        <ele>47.5</ele>
        <time>2023-02-08T15:34:48Z</time>
      </trkpt>
      <trkpt lat="49.77873" lon="2.1688">
        <ele>47.5</ele>
        <time>2023-02-08T15:34:49Z</time>
      </trkpt>
      <trkpt lat="49.7787" lon="2.16876">
        <ele>47.5</ele>
        <time>2023-02-08T15:34:51Z</time>
      </trkpt>
      <trkpt lat="49.7787" lon="2.16875">
        <ele>47.5</ele>
        <time>2023-02-08T15:34:52Z</time>
      </trkpt>
      <trkpt lat="49.77869" lon="2.16874">
        <ele>47.5</ele>
        <time>2023-02-08T15:34:53Z</time>
      </trkpt>
      <trkpt lat="49.77869" lon="2.16873">
        <ele>47.5</ele>
        <time>2023-02-08T15:34:55Z</time>
      </trkpt>
      <trkpt lat="49.77868" lon="2.16872">
        <ele>47.5</ele>
        <time>2023-02-08T15:34:56Z</time>
      </trkpt>
      <trkpt lat="49.77866" lon="2.16869">
        <ele>47.5</ele>
        <time>2023-02-08T15:34:57Z</time>
      </trkpt>
      <trkpt lat="49.77866" lon="2.16868">
        <ele>47.5</ele>
        <time>2023-02-08T15:34:58Z</time>
      </trkpt>
      <trkpt lat="49.77865" lon="2.16867">
        <ele>47.5</ele>
        <time>2023-02-08T15:34:59Z</time>
      </trkpt>
      <trkpt lat="49.77863" lon="2.16865">
        <ele>47.5</ele>
        <time>2023-02-08T15:35:00Z</time>
      </trkpt>
      <trkpt lat="49.77863" lon="2.16864">
        <ele>47.5</ele>
        <time>2023-02-08T15:35:01Z</time>
      </trkpt>
      <trkpt lat="49.77862" lon="2.16863">
        <ele>47.5</ele>
        <time>2023-02-08T15:35:02Z</time>
      </trkpt>
      <trkpt lat="49.77861" lon="2.16862">
        <ele>47.5</ele>
        <time>2023-02-08T15:35:03Z</time>
      </trkpt>
      <trkpt lat="49.7786" lon="2.16861">
        <ele>47.5</ele>
        <time>2023-02-08T15:35:04Z</time>
      </trkpt>
      <trkpt lat="49.77859" lon="2.1686">
        <ele>47.5</ele>
        <time>2023-02-08T15:35:06Z</time>
      </trkpt>
      <trkpt lat="49.77858" lon="2.16859">
        <ele>47.5</ele>
        <time>2023-02-08T15:35:07Z</time>
      </trkpt>
      <trkpt lat="49.77858" lon="2.16858">
        <ele>47.5</ele>
        <time>2023-02-08T15:35:08Z</time>
      </trkpt>
      <trkpt lat="49.77857" lon="2.16857">
        <ele>47.5</ele>
        <time>2023-02-08T15:35:09Z</time>
      </trkpt>
      <trkpt lat="49.77857" lon="2.16856">
        <ele>47.5</ele>
        <time>2023-02-08T15:35:10Z</time>
      </trkpt>
      <trkpt lat="49.77856" lon="2.16855">
        <ele>47.5</ele>
        <time>2023-02-08T15:35:11Z</time>
      </trkpt>
      <trkpt lat="49.77855" lon="2.16854">
        <ele>47.5</ele>
        <time>2023-02-08T15:35:13Z</time>
      </trkpt>
      <trkpt lat="49.77855" lon="2.16853">
        <ele>47.5</ele>
        <time>2023-02-08T15:35:14Z</time>
      </trkpt>
      <trkpt lat="49.77854" lon="2.16852">
        <ele>47.5</ele>
        <time>2023-02-08T15:35:15Z</time>
      </trkpt>
      <trkpt lat="49.77853" lon="2.16851">
        <ele>47.5</ele>
        <time>2023-02-08T15:35:16Z</time>
      </trkpt>
      <trkpt lat="49.77853" lon="2.1685">
        <ele>47.5</ele>
        <time>2023-02-08T15:35:17Z</time>
      </trkpt>
      <trkpt lat="49.77852" lon="2.16849">
        <ele>47.5</ele>
        <time>2023-02-08T15:35:18Z</time>
      </trkpt>
      <trkpt lat="49.77851" lon="2.16848">
        <ele>47.5</ele>
        <time>2023-02-08T15:35:19Z</time>
      </trkpt>
      <trkpt lat="49.7785" lon="2.16847">
        <ele>47.5</ele>
        <time>2023-02-08T15:35:20Z</time>
      </trkpt>
      <trkpt lat="49.77848" lon="2.16845">
        <ele>47.5</ele>
        <time>2023-02-08T15:35:22Z</time>
      </trkpt>
      <trkpt lat="49.77847" lon="2.16844">
        <ele>47.5</ele>
        <time>2023-02-08T15:35:23Z</time>
      </trkpt>
      <trkpt lat="49.77846" lon="2.16844">
        <ele>47.5</ele>
        <time>2023-02-08T15:35:24Z</time>
      </trkpt>
      <trkpt lat="49.77845" lon="2.16841">
        <ele>47.5</ele>
        <time>2023-02-08T15:35:25Z</time>
      </trkpt>
      <trkpt lat="49.77844" lon="2.1684">
        <ele>47.5</ele>
        <time>2023-02-08T15:35:27Z</time>
      </trkpt>
      <trkpt lat="49.77843" lon="2.16838">
        <ele>47.5</ele>
        <time>2023-02-08T15:35:28Z</time>
      </trkpt>
      <trkpt lat="49.77842" lon="2.16837">
        <ele>47.5</ele>
        <time>2023-02-08T15:35:30Z</time>
      </trkpt>
      <trkpt lat="49.77841" lon="2.16836">
        <ele>47.5</ele>
        <time>2023-02-08T15:35:31Z</time>
      </trkpt>
      <trkpt lat="49.7784" lon="2.16834">
        <ele>47.5</ele>
        <time>2023-02-08T15:35:32Z</time>
      </trkpt>
      <trkpt lat="49.77839" lon="2.16833">
        <ele>47.5</ele>
        <time>2023-02-08T15:35:33Z</time>
      </trkpt>
      <trkpt lat="49.77838" lon="2.16831">
        <ele>47.5</ele>
        <time>2023-02-08T15:35:35Z</time>
      </trkpt>
      <trkpt lat="49.77838" lon="2.1683">
        <ele>47.5</ele>
        <time>2023-02-08T15:35:36Z</time>
      </trkpt>
      <trkpt lat="49.77837" lon="2.16829">
        <ele>47.5</ele>
        <time>2023-02-08T15:35:37Z</time>
      </trkpt>
      <trkpt lat="49.77835" lon="2.16827">
        <ele>47.5</ele>
        <time>2023-02-08T15:35:38Z</time>
      </trkpt>
      <trkpt lat="49.77835" lon="2.16827">
        <ele>47.5</ele>
        <time>2023-02-08T15:35:39Z</time>
      </trkpt>
      <trkpt lat="49.77834" lon="2.16826">
        <ele>47.5</ele>
        <time>2023-02-08T15:35:40Z</time>
      </trkpt>
      <trkpt lat="49.77833" lon="2.16825">
        <ele>47.5</ele>
        <time>2023-02-08T15:35:41Z</time>
      </trkpt>
      <trkpt lat="49.77832" lon="2.16824">
        <ele>47.5</ele>
        <time>2023-02-08T15:35:42Z</time>
      </trkpt>
      <trkpt lat="49.77831" lon="2.16823">
        <ele>47.5</ele>
        <time>2023-02-08T15:35:44Z</time>
      </trkpt>
      <trkpt lat="49.7783" lon="2.16822">
        <ele>47.5</ele>
        <time>2023-02-08T15:35:45Z</time>
      </trkpt>
      <trkpt lat="49.77829" lon="2.16821">
        <ele>47.5</ele>
        <time>2023-02-08T15:35:46Z</time>
      </trkpt>
      <trkpt lat="49.77828" lon="2.1682">
        <ele>47.5</ele>
        <time>2023-02-08T15:35:47Z</time>
      </trkpt>
      <trkpt lat="49.77827" lon="2.16818">
        <ele>47.5</ele>
        <time>2023-02-08T15:35:48Z</time>
      </trkpt>
      <trkpt lat="49.77826" lon="2.16817">
        <ele>47.5</ele>
        <time>2023-02-08T15:35:49Z</time>
      </trkpt>
      <trkpt lat="49.77825" lon="2.16816">
        <ele>47.5</ele>
        <time>2023-02-08T15:35:50Z</time>
      </trkpt>
      <trkpt lat="49.77825" lon="2.16815">
        <ele>47.5</ele>
        <time>2023-02-08T15:35:51Z</time>
      </trkpt>
      <trkpt lat="49.77824" lon="2.16814">
        <ele>47.5</ele>
        <time>2023-02-08T15:35:53Z</time>
      </trkpt>
      <trkpt lat="49.77824" lon="2.16813">
        <ele>47.5</ele>
        <time>2023-02-08T15:35:54Z</time>
      </trkpt>
      <trkpt lat="49.77823" lon="2.16812">
        <ele>47.5</ele>
        <time>2023-02-08T15:35:55Z</time>
      </trkpt>
      <trkpt lat="49.77822" lon="2.1681">
        <ele>47.5</ele>
        <time>2023-02-08T15:35:56Z</time>
      </trkpt>
      <trkpt lat="49.77821" lon="2.16809">
        <ele>47.5</ele>
        <time>2023-02-08T15:35:57Z</time>
      </trkpt>
      <trkpt lat="49.7782" lon="2.16808">
        <ele>47.5</ele>
        <time>2023-02-08T15:35:58Z</time>
      </trkpt>
      <trkpt lat="49.7782" lon="2.16807">
        <ele>47.5</ele>
        <time>2023-02-08T15:35:59Z</time>
      </trkpt>
      <trkpt lat="49.77818" lon="2.16805">
        <ele>47.5</ele>
        <time>2023-02-08T15:36:00Z</time>
      </trkpt>
      <trkpt lat="49.77818" lon="2.16804">
        <ele>47.5</ele>
        <time>2023-02-08T15:36:01Z</time>
      </trkpt>
      <trkpt lat="49.77817" lon="2.16803">
        <ele>47.5</ele>
        <time>2023-02-08T15:36:02Z</time>
      </trkpt>
      <trkpt lat="49.77816" lon="2.16801">
        <ele>47.5</ele>
        <time>2023-02-08T15:36:04Z</time>
      </trkpt>
      <trkpt lat="49.77815" lon="2.168">
        <ele>47.5</ele>
        <time>2023-02-08T15:36:05Z</time>
      </trkpt>
      <trkpt lat="49.77814" lon="2.16799">
        <ele>47.5</ele>
        <time>2023-02-08T15:36:06Z</time>
      </trkpt>
      <trkpt lat="49.77813" lon="2.16797">
        <ele>47.5</ele>
        <time>2023-02-08T15:36:07Z</time>
      </trkpt>
      <trkpt lat="49.77812" lon="2.16796">
        <ele>47.5</ele>
        <time>2023-02-08T15:36:08Z</time>
      </trkpt>
      <trkpt lat="49.77811" lon="2.16795">
        <ele>47.5</ele>
        <time>2023-02-08T15:36:10Z</time>
      </trkpt>
      <trkpt lat="49.7781" lon="2.16793">
        <ele>47.6</ele>
        <time>2023-02-08T15:36:11Z</time>
      </trkpt>
      <trkpt lat="49.77809" lon="2.16792">
        <ele>47.6</ele>
        <time>2023-02-08T15:36:12Z</time>
      </trkpt>
      <trkpt lat="49.77808" lon="2.16789">
        <ele>47.6</ele>
        <time>2023-02-08T15:36:13Z</time>
      </trkpt>
      <trkpt lat="49.77807" lon="2.16789">
        <ele>47.6</ele>
        <time>2023-02-08T15:36:14Z</time>
      </trkpt>
      <trkpt lat="49.77806" lon="2.16788">
        <ele>47.6</ele>
        <time>2023-02-08T15:36:15Z</time>
      </trkpt>
      <trkpt lat="49.77805" lon="2.16787">
        <ele>47.6</ele>
        <time>2023-02-08T15:36:16Z</time>
      </trkpt>
      <trkpt lat="49.77804" lon="2.16786">
        <ele>47.6</ele>
        <time>2023-02-08T15:36:17Z</time>
      </trkpt>
      <trkpt lat="49.77803" lon="2.16785">
        <ele>47.6</ele>
        <time>2023-02-08T15:36:19Z</time>
      </trkpt>
      <trkpt lat="49.77802" lon="2.16784">
        <ele>47.7</ele>
        <time>2023-02-08T15:36:20Z</time>
      </trkpt>
      <trkpt lat="49.778" lon="2.16783">
        <ele>47.7</ele>
        <time>2023-02-08T15:36:21Z</time>
      </trkpt>
      <trkpt lat="49.77799" lon="2.16782">
        <ele>47.7</ele>
        <time>2023-02-08T15:36:22Z</time>
      </trkpt>
      <trkpt lat="49.77798" lon="2.16781">
        <ele>47.7</ele>
        <time>2023-02-08T15:36:23Z</time>
      </trkpt>
      <trkpt lat="49.77797" lon="2.1678">
        <ele>47.7</ele>
        <time>2023-02-08T15:36:24Z</time>
      </trkpt>
      <trkpt lat="49.77795" lon="2.16779">
        <ele>47.8</ele>
        <time>2023-02-08T15:36:25Z</time>
      </trkpt>
      <trkpt lat="49.77795" lon="2.16778">
        <ele>47.8</ele>
        <time>2023-02-08T15:36:26Z</time>
      </trkpt>
      <trkpt lat="49.77794" lon="2.16777">
        <ele>47.8</ele>
        <time>2023-02-08T15:36:27Z</time>
      </trkpt>
      <trkpt lat="49.77792" lon="2.16775">
        <ele>47.8</ele>
        <time>2023-02-08T15:36:29Z</time>
      </trkpt>
      <trkpt lat="49.77791" lon="2.16775">
        <ele>47.8</ele>
        <time>2023-02-08T15:36:30Z</time>
      </trkpt>
      <trkpt lat="49.7779" lon="2.16772">
        <ele>47.9</ele>
        <time>2023-02-08T15:36:31Z</time>
      </trkpt>
      <trkpt lat="49.77789" lon="2.16772">
        <ele>47.9</ele>
        <time>2023-02-08T15:36:32Z</time>
      </trkpt>
      <trkpt lat="49.77789" lon="2.16771">
        <ele>47.9</ele>
        <time>2023-02-08T15:36:33Z</time>
      </trkpt>
      <trkpt lat="49.77787" lon="2.16769">
        <ele>47.9</ele>
        <time>2023-02-08T15:36:34Z</time>
      </trkpt>
      <trkpt lat="49.77787" lon="2.16768">
        <ele>48</ele>
        <time>2023-02-08T15:36:35Z</time>
      </trkpt>
      <trkpt lat="49.77786" lon="2.16767">
        <ele>48</ele>
        <time>2023-02-08T15:36:37Z</time>
      </trkpt>
      <trkpt lat="49.77784" lon="2.16766">
        <ele>48</ele>
        <time>2023-02-08T15:36:38Z</time>
      </trkpt>
      <trkpt lat="49.77783" lon="2.16764">
        <ele>48</ele>
        <time>2023-02-08T15:36:39Z</time>
      </trkpt>
      <trkpt lat="49.77783" lon="2.16764">
        <ele>48.1</ele>
        <time>2023-02-08T15:36:40Z</time>
      </trkpt>
      <trkpt lat="49.77782" lon="2.16762">
        <ele>48.1</ele>
        <time>2023-02-08T15:36:42Z</time>
      </trkpt>
      <trkpt lat="49.7778" lon="2.16761">
        <ele>48.1</ele>
        <time>2023-02-08T15:36:44Z</time>
      </trkpt>
      <trkpt lat="49.7778" lon="2.16761">
        <ele>48.1</ele>
        <time>2023-02-08T15:36:45Z</time>
      </trkpt>
      <trkpt lat="49.77779" lon="2.1676">
        <ele>48.1</ele>
        <time>2023-02-08T15:36:46Z</time>
      </trkpt>
      <trkpt lat="49.77778" lon="2.1676">
        <ele>48.1</ele>
        <time>2023-02-08T15:36:47Z</time>
      </trkpt>
      <trkpt lat="49.77777" lon="2.1676">
        <ele>48.2</ele>
        <time>2023-02-08T15:36:49Z</time>
      </trkpt>
      <trkpt lat="49.77776" lon="2.1676">
        <ele>48.2</ele>
        <time>2023-02-08T15:36:50Z</time>
      </trkpt>
      <trkpt lat="49.77775" lon="2.1676">
        <ele>48.2</ele>
        <time>2023-02-08T15:36:51Z</time>
      </trkpt>
      <trkpt lat="49.77774" lon="2.16759">
        <ele>48.2</ele>
        <time>2023-02-08T15:36:53Z</time>
      </trkpt>
      <trkpt lat="49.77773" lon="2.16759">
        <ele>48.2</ele>
        <time>2023-02-08T15:36:54Z</time>
      </trkpt>
      <trkpt lat="49.77773" lon="2.16758">
        <ele>48.2</ele>
        <time>2023-02-08T15:36:55Z</time>
      </trkpt>
      <trkpt lat="49.77772" lon="2.16757">
        <ele>48.2</ele>
        <time>2023-02-08T15:36:56Z</time>
      </trkpt>
      <trkpt lat="49.77773" lon="2.16757">
        <ele>48.1</ele>
        <time>2023-02-08T15:36:57Z</time>
      </trkpt>
      <trkpt lat="49.77772" lon="2.16756">
        <ele>48.1</ele>
        <time>2023-02-08T15:36:59Z</time>
      </trkpt>
      <trkpt lat="49.77772" lon="2.16755">
        <ele>48.1</ele>
        <time>2023-02-08T15:37:00Z</time>
      </trkpt>
      <trkpt lat="49.77773" lon="2.16754">
        <ele>48.1</ele>
        <time>2023-02-08T15:37:01Z</time>
      </trkpt>
      <trkpt lat="49.77773" lon="2.16754">
        <ele>48.1</ele>
        <time>2023-02-08T15:37:02Z</time>
      </trkpt>
      <trkpt lat="49.77773" lon="2.16753">
        <ele>48.1</ele>
        <time>2023-02-08T15:37:04Z</time>
      </trkpt>
      <trkpt lat="49.77773" lon="2.16754">
        <ele>48.1</ele>
        <time>2023-02-08T15:37:05Z</time>
      </trkpt>
      <trkpt lat="49.77773" lon="2.16754">
        <ele>48.1</ele>
        <time>2023-02-08T15:37:07Z</time>
      </trkpt>
      <trkpt lat="49.77773" lon="2.16754">
        <ele>48.1</ele>
        <time>2023-02-08T15:37:08Z</time>
      </trkpt>
      <trkpt lat="49.77774" lon="2.16754">
        <ele>48.1</ele>
        <time>2023-02-08T15:37:10Z</time>
      </trkpt>
      <trkpt lat="49.77774" lon="2.16754">
        <ele>48.1</ele>
        <time>2023-02-08T15:37:11Z</time>
      </trkpt>
      <trkpt lat="49.77774" lon="2.16754">
        <ele>48.1</ele>
        <time>2023-02-08T15:37:12Z</time>
      </trkpt>
      <trkpt lat="49.77774" lon="2.16754">
        <ele>48.1</ele>
        <time>2023-02-08T15:37:13Z</time>
      </trkpt>
      <trkpt lat="49.77774" lon="2.16754">
        <ele>48.1</ele>
        <time>2023-02-08T15:37:15Z</time>
      </trkpt>
      <trkpt lat="49.77774" lon="2.16754">
        <ele>48.1</ele>
        <time>2023-02-08T15:37:16Z</time>
      </trkpt>
      <trkpt lat="49.77774" lon="2.16755">
        <ele>48.1</ele>
        <time>2023-02-08T15:37:17Z</time>
      </trkpt>
      <trkpt lat="49.77774" lon="2.16755">
        <ele>48.1</ele>
        <time>2023-02-08T15:37:18Z</time>
      </trkpt>
      <trkpt lat="49.77774" lon="2.16755">
        <ele>48.1</ele>
        <time>2023-02-08T15:37:19Z</time>
      </trkpt>
      <trkpt lat="49.77774" lon="2.16755">
        <ele>48.1</ele>
        <time>2023-02-08T15:37:20Z</time>
      </trkpt>
      <trkpt lat="49.77774" lon="2.16755">
        <ele>48.1</ele>
        <time>2023-02-08T15:37:21Z</time>
      </trkpt>
      <trkpt lat="49.77774" lon="2.16755">
        <ele>48.1</ele>
        <time>2023-02-08T15:37:22Z</time>
      </trkpt>
      <trkpt lat="49.77774" lon="2.16755">
        <ele>48.1</ele>
        <time>2023-02-08T15:37:23Z</time>
      </trkpt>
      <trkpt lat="49.77774" lon="2.16755">
        <ele>48.1</ele>
        <time>2023-02-08T15:37:24Z</time>
      </trkpt>
      <trkpt lat="49.77774" lon="2.16755">
        <ele>48.1</ele>
        <time>2023-02-08T15:37:25Z</time>
      </trkpt>
      <trkpt lat="49.77774" lon="2.16755">
        <ele>48.1</ele>
        <time>2023-02-08T15:37:26Z</time>
      </trkpt>
      <trkpt lat="49.77774" lon="2.16755">
        <ele>48.1</ele>
        <time>2023-02-08T15:37:27Z</time>
      </trkpt>
      <trkpt lat="49.77774" lon="2.16755">
        <ele>48.1</ele>
        <time>2023-02-08T15:37:28Z</time>
      </trkpt>
      <trkpt lat="49.77774" lon="2.16755">
        <ele>48.1</ele>
        <time>2023-02-08T15:37:29Z</time>
      </trkpt>
      <trkpt lat="49.77775" lon="2.16758">
        <ele>48.1</ele>
        <time>2023-02-08T15:37:30Z</time>
      </trkpt>
      <trkpt lat="49.77776" lon="2.16762">
        <ele>48.1</ele>
        <time>2023-02-08T15:37:31Z</time>
      </trkpt>
      <trkpt lat="49.77775" lon="2.16761">
        <ele>48.1</ele>
        <time>2023-02-08T15:37:32Z</time>
      </trkpt>
      <trkpt lat="49.77774" lon="2.16761">
        <ele>48.1</ele>
        <time>2023-02-08T15:37:33Z</time>
      </trkpt>
      <trkpt lat="49.77774" lon="2.16761">
        <ele>48.1</ele>
        <time>2023-02-08T15:37:34Z</time>
      </trkpt>
      <trkpt lat="49.77773" lon="2.16761">
        <ele>48.1</ele>
        <time>2023-02-08T15:37:35Z</time>
      </trkpt>
      <trkpt lat="49.77772" lon="2.1676">
        <ele>48</ele>
        <time>2023-02-08T15:37:36Z</time>
      </trkpt>
      <trkpt lat="49.7777" lon="2.16759">
        <ele>48</ele>
        <time>2023-02-08T15:37:37Z</time>
      </trkpt>
      <trkpt lat="49.77769" lon="2.16758">
        <ele>48</ele>
        <time>2023-02-08T15:37:39Z</time>
      </trkpt>
      <trkpt lat="49.77769" lon="2.16757">
        <ele>48</ele>
        <time>2023-02-08T15:37:40Z</time>
      </trkpt>
      <trkpt lat="49.77766" lon="2.16757">
        <ele>48</ele>
        <time>2023-02-08T15:37:41Z</time>
      </trkpt>
      <trkpt lat="49.77765" lon="2.16757">
        <ele>48</ele>
        <time>2023-02-08T15:37:43Z</time>
      </trkpt>
      <trkpt lat="49.77764" lon="2.16753">
        <ele>48</ele>
        <time>2023-02-08T15:37:44Z</time>
      </trkpt>
      <trkpt lat="49.77763" lon="2.16752">
        <ele>48</ele>
        <time>2023-02-08T15:37:45Z</time>
      </trkpt>
      <trkpt lat="49.77763" lon="2.1675">
        <ele>48</ele>
        <time>2023-02-08T15:37:46Z</time>
      </trkpt>
      <trkpt lat="49.77762" lon="2.16748">
        <ele>48</ele>
        <time>2023-02-08T15:37:47Z</time>
      </trkpt>
      <trkpt lat="49.77762" lon="2.16746">
        <ele>47.9</ele>
        <time>2023-02-08T15:37:48Z</time>
      </trkpt>
      <trkpt lat="49.77761" lon="2.16744">
        <ele>47.9</ele>
        <time>2023-02-08T15:37:50Z</time>
      </trkpt>
      <trkpt lat="49.7776" lon="2.16742">
        <ele>47.9</ele>
        <time>2023-02-08T15:37:51Z</time>
      </trkpt>
      <trkpt lat="49.77759" lon="2.16741">
        <ele>47.9</ele>
        <time>2023-02-08T15:37:52Z</time>
      </trkpt>
      <trkpt lat="49.77757" lon="2.16738">
        <ele>47.9</ele>
        <time>2023-02-08T15:37:53Z</time>
      </trkpt>
      <trkpt lat="49.77757" lon="2.16736">
        <ele>47.9</ele>
        <time>2023-02-08T15:37:54Z</time>
      </trkpt>
      <trkpt lat="49.77756" lon="2.16735">
        <ele>47.9</ele>
        <time>2023-02-08T15:37:55Z</time>
      </trkpt>
      <trkpt lat="49.77755" lon="2.16734">
        <ele>47.9</ele>
        <time>2023-02-08T15:37:56Z</time>
      </trkpt>
      <trkpt lat="49.77755" lon="2.16733">
        <ele>47.9</ele>
        <time>2023-02-08T15:37:57Z</time>
      </trkpt>
      <trkpt lat="49.77753" lon="2.16732">
        <ele>47.9</ele>
        <time>2023-02-08T15:37:58Z</time>
      </trkpt>
      <trkpt lat="49.77752" lon="2.16731">
        <ele>47.9</ele>
        <time>2023-02-08T15:38:00Z</time>
      </trkpt>
      <trkpt lat="49.77751" lon="2.16731">
        <ele>47.9</ele>
        <time>2023-02-08T15:38:01Z</time>
      </trkpt>
      <trkpt lat="49.7775" lon="2.1673">
        <ele>47.9</ele>
        <time>2023-02-08T15:38:02Z</time>
      </trkpt>
      <trkpt lat="49.77749" lon="2.16729">
        <ele>47.9</ele>
        <time>2023-02-08T15:38:03Z</time>
      </trkpt>
      <trkpt lat="49.77747" lon="2.16728">
        <ele>47.9</ele>
        <time>2023-02-08T15:38:04Z</time>
      </trkpt>
      <trkpt lat="49.77746" lon="2.16727">
        <ele>47.9</ele>
        <time>2023-02-08T15:38:05Z</time>
      </trkpt>
      <trkpt lat="49.77745" lon="2.16726">
        <ele>47.9</ele>
        <time>2023-02-08T15:38:06Z</time>
      </trkpt>
      <trkpt lat="49.77745" lon="2.16725">
        <ele>47.8</ele>
        <time>2023-02-08T15:38:07Z</time>
      </trkpt>
      <trkpt lat="49.77744" lon="2.16724">
        <ele>47.8</ele>
        <time>2023-02-08T15:38:09Z</time>
      </trkpt>
      <trkpt lat="49.77743" lon="2.16723">
        <ele>47.8</ele>
        <time>2023-02-08T15:38:10Z</time>
      </trkpt>
      <trkpt lat="49.77742" lon="2.16722">
        <ele>47.8</ele>
        <time>2023-02-08T15:38:11Z</time>
      </trkpt>
      <trkpt lat="49.7774" lon="2.16721">
        <ele>47.8</ele>
        <time>2023-02-08T15:38:12Z</time>
      </trkpt>
      <trkpt lat="49.7774" lon="2.1672">
        <ele>47.8</ele>
        <time>2023-02-08T15:38:13Z</time>
      </trkpt>
      <trkpt lat="49.77739" lon="2.16719">
        <ele>47.8</ele>
        <time>2023-02-08T15:38:14Z</time>
      </trkpt>
      <trkpt lat="49.77738" lon="2.16718">
        <ele>47.8</ele>
        <time>2023-02-08T15:38:16Z</time>
      </trkpt>
      <trkpt lat="49.77737" lon="2.16716">
        <ele>47.8</ele>
        <time>2023-02-08T15:38:17Z</time>
      </trkpt>
      <trkpt lat="49.77736" lon="2.16715">
        <ele>47.8</ele>
        <time>2023-02-08T15:38:18Z</time>
      </trkpt>
      <trkpt lat="49.77736" lon="2.16714">
        <ele>47.8</ele>
        <time>2023-02-08T15:38:19Z</time>
      </trkpt>
      <trkpt lat="49.77735" lon="2.16713">
        <ele>47.9</ele>
        <time>2023-02-08T15:38:20Z</time>
      </trkpt>
      <trkpt lat="49.77735" lon="2.16712">
        <ele>47.9</ele>
        <time>2023-02-08T15:38:21Z</time>
      </trkpt>
      <trkpt lat="49.77734" lon="2.16711">
        <ele>47.9</ele>
        <time>2023-02-08T15:38:22Z</time>
      </trkpt>
      <trkpt lat="49.77734" lon="2.1671">
        <ele>47.9</ele>
        <time>2023-02-08T15:38:24Z</time>
      </trkpt>
      <trkpt lat="49.77733" lon="2.16709">
        <ele>47.9</ele>
        <time>2023-02-08T15:38:25Z</time>
      </trkpt>
      <trkpt lat="49.77732" lon="2.16708">
        <ele>47.9</ele>
        <time>2023-02-08T15:38:26Z</time>
      </trkpt>
      <trkpt lat="49.77731" lon="2.16706">
        <ele>47.9</ele>
        <time>2023-02-08T15:38:27Z</time>
      </trkpt>
      <trkpt lat="49.77731" lon="2.16706">
        <ele>47.9</ele>
        <time>2023-02-08T15:38:28Z</time>
      </trkpt>
      <trkpt lat="49.7773" lon="2.16705">
        <ele>47.9</ele>
        <time>2023-02-08T15:38:29Z</time>
      </trkpt>
      <trkpt lat="49.77729" lon="2.16705">
        <ele>47.9</ele>
        <time>2023-02-08T15:38:31Z</time>
      </trkpt>
      <trkpt lat="49.77728" lon="2.16704">
        <ele>47.9</ele>
        <time>2023-02-08T15:38:32Z</time>
      </trkpt>
      <trkpt lat="49.77727" lon="2.16704">
        <ele>47.9</ele>
        <time>2023-02-08T15:38:33Z</time>
      </trkpt>
      <trkpt lat="49.77726" lon="2.16703">
        <ele>47.9</ele>
        <time>2023-02-08T15:38:34Z</time>
      </trkpt>
      <trkpt lat="49.77725" lon="2.16702">
        <ele>47.9</ele>
        <time>2023-02-08T15:38:35Z</time>
      </trkpt>
      <trkpt lat="49.77724" lon="2.16701">
        <ele>47.9</ele>
        <time>2023-02-08T15:38:36Z</time>
      </trkpt>
      <trkpt lat="49.77723" lon="2.16701">
        <ele>47.9</ele>
        <time>2023-02-08T15:38:37Z</time>
      </trkpt>
      <trkpt lat="49.77722" lon="2.167">
        <ele>47.9</ele>
        <time>2023-02-08T15:38:38Z</time>
      </trkpt>
      <trkpt lat="49.77721" lon="2.16699">
        <ele>47.9</ele>
        <time>2023-02-08T15:38:40Z</time>
      </trkpt>
      <trkpt lat="49.77719" lon="2.16699">
        <ele>48</ele>
        <time>2023-02-08T15:38:41Z</time>
      </trkpt>
      <trkpt lat="49.77718" lon="2.16698">
        <ele>48</ele>
        <time>2023-02-08T15:38:42Z</time>
      </trkpt>
      <trkpt lat="49.77717" lon="2.16698">
        <ele>48</ele>
        <time>2023-02-08T15:38:43Z</time>
      </trkpt>
      <trkpt lat="49.77716" lon="2.16697">
        <ele>48</ele>
        <time>2023-02-08T15:38:44Z</time>
      </trkpt>
      <trkpt lat="49.77715" lon="2.16697">
        <ele>48</ele>
        <time>2023-02-08T15:38:45Z</time>
      </trkpt>
      <trkpt lat="49.77714" lon="2.16696">
        <ele>48</ele>
        <time>2023-02-08T15:38:46Z</time>
      </trkpt>
      <trkpt lat="49.77713" lon="2.16695">
        <ele>48</ele>
        <time>2023-02-08T15:38:47Z</time>
      </trkpt>
      <trkpt lat="49.77712" lon="2.16695">
        <ele>48</ele>
        <time>2023-02-08T15:38:48Z</time>
      </trkpt>
      <trkpt lat="49.77711" lon="2.16694">
        <ele>48</ele>
        <time>2023-02-08T15:38:50Z</time>
      </trkpt>
      <trkpt lat="49.7771" lon="2.16693">
        <ele>48</ele>
        <time>2023-02-08T15:38:51Z</time>
      </trkpt>
      <trkpt lat="49.77709" lon="2.16692">
        <ele>48</ele>
        <time>2023-02-08T15:38:52Z</time>
      </trkpt>
      <trkpt lat="49.77708" lon="2.16692">
        <ele>48</ele>
        <time>2023-02-08T15:38:53Z</time>
      </trkpt>
      <trkpt lat="49.77707" lon="2.16691">
        <ele>48</ele>
        <time>2023-02-08T15:38:54Z</time>
      </trkpt>
      <trkpt lat="49.77706" lon="2.16691">
        <ele>48</ele>
        <time>2023-02-08T15:38:55Z</time>
      </trkpt>
      <trkpt lat="49.77705" lon="2.1669">
        <ele>48</ele>
        <time>2023-02-08T15:38:56Z</time>
      </trkpt>
      <trkpt lat="49.77704" lon="2.1669">
        <ele>48</ele>
        <time>2023-02-08T15:38:57Z</time>
      </trkpt>
      <trkpt lat="49.77703" lon="2.16689">
        <ele>48</ele>
        <time>2023-02-08T15:38:59Z</time>
      </trkpt>
      <trkpt lat="49.77703" lon="2.16689">
        <ele>48</ele>
        <time>2023-02-08T15:39:00Z</time>
      </trkpt>
      <trkpt lat="49.77702" lon="2.16688">
        <ele>48</ele>
        <time>2023-02-08T15:39:01Z</time>
      </trkpt>
      <trkpt lat="49.77701" lon="2.16687">
        <ele>48</ele>
        <time>2023-02-08T15:39:02Z</time>
      </trkpt>
      <trkpt lat="49.777" lon="2.16687">
        <ele>48</ele>
        <time>2023-02-08T15:39:03Z</time>
      </trkpt>
      <trkpt lat="49.77699" lon="2.16687">
        <ele>48</ele>
        <time>2023-02-08T15:39:04Z</time>
      </trkpt>
      <trkpt lat="49.77698" lon="2.16686">
        <ele>48</ele>
        <time>2023-02-08T15:39:05Z</time>
      </trkpt>
      <trkpt lat="49.77697" lon="2.16686">
        <ele>48</ele>
        <time>2023-02-08T15:39:06Z</time>
      </trkpt>
      <trkpt lat="49.77695" lon="2.16684">
        <ele>48</ele>
        <time>2023-02-08T15:39:07Z</time>
      </trkpt>
      <trkpt lat="49.77694" lon="2.16684">
        <ele>48</ele>
        <time>2023-02-08T15:39:08Z</time>
      </trkpt>
      <trkpt lat="49.77694" lon="2.16683">
        <ele>48</ele>
        <time>2023-02-08T15:39:09Z</time>
      </trkpt>
      <trkpt lat="49.77692" lon="2.16681">
        <ele>48</ele>
        <time>2023-02-08T15:39:11Z</time>
      </trkpt>
      <trkpt lat="49.77691" lon="2.16681">
        <ele>48</ele>
        <time>2023-02-08T15:39:12Z</time>
      </trkpt>
      <trkpt lat="49.7769" lon="2.1668">
        <ele>48</ele>
        <time>2023-02-08T15:39:13Z</time>
      </trkpt>
      <trkpt lat="49.77689" lon="2.16679">
        <ele>48</ele>
        <time>2023-02-08T15:39:14Z</time>
      </trkpt>
      <trkpt lat="49.77688" lon="2.16679">
        <ele>48</ele>
        <time>2023-02-08T15:39:15Z</time>
      </trkpt>
      <trkpt lat="49.77687" lon="2.16678">
        <ele>48</ele>
        <time>2023-02-08T15:39:16Z</time>
      </trkpt>
      <trkpt lat="49.77686" lon="2.16677">
        <ele>48</ele>
        <time>2023-02-08T15:39:17Z</time>
      </trkpt>
      <trkpt lat="49.77685" lon="2.16676">
        <ele>48</ele>
        <time>2023-02-08T15:39:18Z</time>
      </trkpt>
      <trkpt lat="49.77684" lon="2.16676">
        <ele>48</ele>
        <time>2023-02-08T15:39:19Z</time>
      </trkpt>
      <trkpt lat="49.77682" lon="2.16674">
        <ele>48</ele>
        <time>2023-02-08T15:39:21Z</time>
      </trkpt>
      <trkpt lat="49.77681" lon="2.16674">
        <ele>48.1</ele>
        <time>2023-02-08T15:39:22Z</time>
      </trkpt>
      <trkpt lat="49.7768" lon="2.16673">
        <ele>48.1</ele>
        <time>2023-02-08T15:39:23Z</time>
      </trkpt>
      <trkpt lat="49.77679" lon="2.16673">
        <ele>48.1</ele>
        <time>2023-02-08T15:39:24Z</time>
      </trkpt>
      <trkpt lat="49.77679" lon="2.16673">
        <ele>48.1</ele>
        <time>2023-02-08T15:39:25Z</time>
      </trkpt>
      <trkpt lat="49.77678" lon="2.16672">
        <ele>48.1</ele>
        <time>2023-02-08T15:39:26Z</time>
      </trkpt>
      <trkpt lat="49.77676" lon="2.16672">
        <ele>48.1</ele>
        <time>2023-02-08T15:39:28Z</time>
      </trkpt>
      <trkpt lat="49.77676" lon="2.16671">
        <ele>48.1</ele>
        <time>2023-02-08T15:39:29Z</time>
      </trkpt>
      <trkpt lat="49.77675" lon="2.16671">
        <ele>48.1</ele>
        <time>2023-02-08T15:39:30Z</time>
      </trkpt>
      <trkpt lat="49.77674" lon="2.1667">
        <ele>48.1</ele>
        <time>2023-02-08T15:39:31Z</time>
      </trkpt>
      <trkpt lat="49.77672" lon="2.1667">
        <ele>48.1</ele>
        <time>2023-02-08T15:39:32Z</time>
      </trkpt>
      <trkpt lat="49.77671" lon="2.16669">
        <ele>48.1</ele>
        <time>2023-02-08T15:39:34Z</time>
      </trkpt>
      <trkpt lat="49.7767" lon="2.16668">
        <ele>48.1</ele>
        <time>2023-02-08T15:39:36Z</time>
      </trkpt>
      <trkpt lat="49.77669" lon="2.16667">
        <ele>48.1</ele>
        <time>2023-02-08T15:39:37Z</time>
      </trkpt>
      <trkpt lat="49.77668" lon="2.16666">
        <ele>48.1</ele>
        <time>2023-02-08T15:39:38Z</time>
      </trkpt>
      <trkpt lat="49.77667" lon="2.16666">
        <ele>48.1</ele>
        <time>2023-02-08T15:39:39Z</time>
      </trkpt>
      <trkpt lat="49.77666" lon="2.16666">
        <ele>48.1</ele>
        <time>2023-02-08T15:39:40Z</time>
      </trkpt>
      <trkpt lat="49.77665" lon="2.16666">
        <ele>48.1</ele>
        <time>2023-02-08T15:39:41Z</time>
      </trkpt>
      <trkpt lat="49.77664" lon="2.16665">
        <ele>48.1</ele>
        <time>2023-02-08T15:39:43Z</time>
      </trkpt>
      <trkpt lat="49.77663" lon="2.16665">
        <ele>48.1</ele>
        <time>2023-02-08T15:39:44Z</time>
      </trkpt>
      <trkpt lat="49.77663" lon="2.16664">
        <ele>48.1</ele>
        <time>2023-02-08T15:39:45Z</time>
      </trkpt>
      <trkpt lat="49.77662" lon="2.16664">
        <ele>48.1</ele>
        <time>2023-02-08T15:39:46Z</time>
      </trkpt>
      <trkpt lat="49.77661" lon="2.16663">
        <ele>48.2</ele>
        <time>2023-02-08T15:39:47Z</time>
      </trkpt>
      <trkpt lat="49.7766" lon="2.16662">
        <ele>48.2</ele>
        <time>2023-02-08T15:39:48Z</time>
      </trkpt>
      <trkpt lat="49.77659" lon="2.16662">
        <ele>48.2</ele>
        <time>2023-02-08T15:39:49Z</time>
      </trkpt>
      <trkpt lat="49.77658" lon="2.16662">
        <ele>48.2</ele>
        <time>2023-02-08T15:39:50Z</time>
      </trkpt>
      <trkpt lat="49.77656" lon="2.16661">
        <ele>48.2</ele>
        <time>2023-02-08T15:39:52Z</time>
      </trkpt>
      <trkpt lat="49.77655" lon="2.16661">
        <ele>48.2</ele>
        <time>2023-02-08T15:39:53Z</time>
      </trkpt>
      <trkpt lat="49.77654" lon="2.16661">
        <ele>48.2</ele>
        <time>2023-02-08T15:39:54Z</time>
      </trkpt>
      <trkpt lat="49.77652" lon="2.16661">
        <ele>48.2</ele>
        <time>2023-02-08T15:39:56Z</time>
      </trkpt>
      <trkpt lat="49.77651" lon="2.16661">
        <ele>48.2</ele>
        <time>2023-02-08T15:39:57Z</time>
      </trkpt>
      <trkpt lat="49.77649" lon="2.1666">
        <ele>48.2</ele>
        <time>2023-02-08T15:39:58Z</time>
      </trkpt>
      <trkpt lat="49.77647" lon="2.1666">
        <ele>48.2</ele>
        <time>2023-02-08T15:39:59Z</time>
      </trkpt>
      <trkpt lat="49.77646" lon="2.16659">
        <ele>48.2</ele>
        <time>2023-02-08T15:40:00Z</time>
      </trkpt>
      <trkpt lat="49.77644" lon="2.16658">
        <ele>48.2</ele>
        <time>2023-02-08T15:40:01Z</time>
      </trkpt>
      <trkpt lat="49.77643" lon="2.16657">
        <ele>48.2</ele>
        <time>2023-02-08T15:40:02Z</time>
      </trkpt>
      <trkpt lat="49.77642" lon="2.16656">
        <ele>48.3</ele>
        <time>2023-02-08T15:40:03Z</time>
      </trkpt>
      <trkpt lat="49.7764" lon="2.16655">
        <ele>48.3</ele>
        <time>2023-02-08T15:40:04Z</time>
      </trkpt>
      <trkpt lat="49.77639" lon="2.16655">
        <ele>48.3</ele>
        <time>2023-02-08T15:40:06Z</time>
      </trkpt>
      <trkpt lat="49.77637" lon="2.16654">
        <ele>48.3</ele>
        <time>2023-02-08T15:40:07Z</time>
      </trkpt>
      <trkpt lat="49.77634" lon="2.16653">
        <ele>48.3</ele>
        <time>2023-02-08T15:40:08Z</time>
      </trkpt>
      <trkpt lat="49.77633" lon="2.16652">
        <ele>48.3</ele>
        <time>2023-02-08T15:40:09Z</time>
      </trkpt>
      <trkpt lat="49.77633" lon="2.16652">
        <ele>48.3</ele>
        <time>2023-02-08T15:40:10Z</time>
      </trkpt>
      <trkpt lat="49.77632" lon="2.16651">
        <ele>48.3</ele>
        <time>2023-02-08T15:40:11Z</time>
      </trkpt>
      <trkpt lat="49.7763" lon="2.1665">
        <ele>48.3</ele>
        <time>2023-02-08T15:40:13Z</time>
      </trkpt>
      <trkpt lat="49.77629" lon="2.1665">
        <ele>48.4</ele>
        <time>2023-02-08T15:40:14Z</time>
      </trkpt>
      <trkpt lat="49.77628" lon="2.16649">
        <ele>48.4</ele>
        <time>2023-02-08T15:40:15Z</time>
      </trkpt>
      <trkpt lat="49.77626" lon="2.16648">
        <ele>48.4</ele>
        <time>2023-02-08T15:40:16Z</time>
      </trkpt>
      <trkpt lat="49.77625" lon="2.16647">
        <ele>48.4</ele>
        <time>2023-02-08T15:40:17Z</time>
      </trkpt>
      <trkpt lat="49.77624" lon="2.16647">
        <ele>48.4</ele>
        <time>2023-02-08T15:40:19Z</time>
      </trkpt>
      <trkpt lat="49.77623" lon="2.16646">
        <ele>48.4</ele>
        <time>2023-02-08T15:40:20Z</time>
      </trkpt>
      <trkpt lat="49.77622" lon="2.16646">
        <ele>48.4</ele>
        <time>2023-02-08T15:40:21Z</time>
      </trkpt>
      <trkpt lat="49.77621" lon="2.16646">
        <ele>48.4</ele>
        <time>2023-02-08T15:40:22Z</time>
      </trkpt>
      <trkpt lat="49.77618" lon="2.16645">
        <ele>48.4</ele>
        <time>2023-02-08T15:40:23Z</time>
      </trkpt>
      <trkpt lat="49.77617" lon="2.16645">
        <ele>48.4</ele>
        <time>2023-02-08T15:40:24Z</time>
      </trkpt>
      <trkpt lat="49.77616" lon="2.16644">
        <ele>48.4</ele>
        <time>2023-02-08T15:40:25Z</time>
      </trkpt>
      <trkpt lat="49.77614" lon="2.16644">
        <ele>48.4</ele>
        <time>2023-02-08T15:40:26Z</time>
      </trkpt>
      <trkpt lat="49.77614" lon="2.16643">
        <ele>48.4</ele>
        <time>2023-02-08T15:40:27Z</time>
      </trkpt>
      <trkpt lat="49.77613" lon="2.16643">
        <ele>48.4</ele>
        <time>2023-02-08T15:40:28Z</time>
      </trkpt>
      <trkpt lat="49.77611" lon="2.16641">
        <ele>48.5</ele>
        <time>2023-02-08T15:40:30Z</time>
      </trkpt>
      <trkpt lat="49.7761" lon="2.16641">
        <ele>48.5</ele>
        <time>2023-02-08T15:40:31Z</time>
      </trkpt>
      <trkpt lat="49.77609" lon="2.1664">
        <ele>48.5</ele>
        <time>2023-02-08T15:40:32Z</time>
      </trkpt>
      <trkpt lat="49.77607" lon="2.16639">
        <ele>48.5</ele>
        <time>2023-02-08T15:40:33Z</time>
      </trkpt>
      <trkpt lat="49.77606" lon="2.16639">
        <ele>48.5</ele>
        <time>2023-02-08T15:40:34Z</time>
      </trkpt>
      <trkpt lat="49.77604" lon="2.16638">
        <ele>48.5</ele>
        <time>2023-02-08T15:40:36Z</time>
      </trkpt>
      <trkpt lat="49.77603" lon="2.16637">
        <ele>48.5</ele>
        <time>2023-02-08T15:40:37Z</time>
      </trkpt>
      <trkpt lat="49.77602" lon="2.16637">
        <ele>48.5</ele>
        <time>2023-02-08T15:40:38Z</time>
      </trkpt>
      <trkpt lat="49.776" lon="2.16636">
        <ele>48.5</ele>
        <time>2023-02-08T15:40:39Z</time>
      </trkpt>
      <trkpt lat="49.77599" lon="2.16635">
        <ele>48.5</ele>
        <time>2023-02-08T15:40:40Z</time>
      </trkpt>
      <trkpt lat="49.77598" lon="2.16635">
        <ele>48.5</ele>
        <time>2023-02-08T15:40:41Z</time>
      </trkpt>
      <trkpt lat="49.77597" lon="2.16634">
        <ele>48.5</ele>
        <time>2023-02-08T15:40:42Z</time>
      </trkpt>
      <trkpt lat="49.77595" lon="2.16634">
        <ele>48.5</ele>
        <time>2023-02-08T15:40:44Z</time>
      </trkpt>
      <trkpt lat="49.77594" lon="2.16633">
        <ele>48.5</ele>
        <time>2023-02-08T15:40:45Z</time>
      </trkpt>
      <trkpt lat="49.77593" lon="2.16633">
        <ele>48.5</ele>
        <time>2023-02-08T15:40:46Z</time>
      </trkpt>
      <trkpt lat="49.77592" lon="2.16632">
        <ele>48.5</ele>
        <time>2023-02-08T15:40:47Z</time>
      </trkpt>
      <trkpt lat="49.7759" lon="2.16632">
        <ele>48.5</ele>
        <time>2023-02-08T15:40:48Z</time>
      </trkpt>
      <trkpt lat="49.77589" lon="2.16631">
        <ele>48.5</ele>
        <time>2023-02-08T15:40:49Z</time>
      </trkpt>
      <trkpt lat="49.77588" lon="2.16631">
        <ele>48.5</ele>
        <time>2023-02-08T15:40:50Z</time>
      </trkpt>
      <trkpt lat="49.77586" lon="2.16631">
        <ele>48.5</ele>
        <time>2023-02-08T15:40:51Z</time>
      </trkpt>
      <trkpt lat="49.77585" lon="2.1663">
        <ele>48.5</ele>
        <time>2023-02-08T15:40:52Z</time>
      </trkpt>
      <trkpt lat="49.77585" lon="2.1663">
        <ele>48.5</ele>
        <time>2023-02-08T15:40:53Z</time>
      </trkpt>
      <trkpt lat="49.77583" lon="2.16631">
        <ele>48.5</ele>
        <time>2023-02-08T15:40:55Z</time>
      </trkpt>
      <trkpt lat="49.77582" lon="2.16631">
        <ele>48.5</ele>
        <time>2023-02-08T15:40:56Z</time>
      </trkpt>
      <trkpt lat="49.77581" lon="2.16631">
        <ele>48.5</ele>
        <time>2023-02-08T15:40:57Z</time>
      </trkpt>
      <trkpt lat="49.77579" lon="2.16631">
        <ele>48.5</ele>
        <time>2023-02-08T15:40:58Z</time>
      </trkpt>
      <trkpt lat="49.77579" lon="2.1663">
        <ele>48.5</ele>
        <time>2023-02-08T15:40:59Z</time>
      </trkpt>
      <trkpt lat="49.77578" lon="2.1663">
        <ele>48.5</ele>
        <time>2023-02-08T15:41:00Z</time>
      </trkpt>
      <trkpt lat="49.77577" lon="2.1663">
        <ele>48.5</ele>
        <time>2023-02-08T15:41:01Z</time>
      </trkpt>
      <trkpt lat="49.77576" lon="2.1663">
        <ele>48.6</ele>
        <time>2023-02-08T15:41:02Z</time>
      </trkpt>
      <trkpt lat="49.77575" lon="2.1663">
        <ele>48.6</ele>
        <time>2023-02-08T15:41:04Z</time>
      </trkpt>
      <trkpt lat="49.77574" lon="2.16629">
        <ele>48.6</ele>
        <time>2023-02-08T15:41:05Z</time>
      </trkpt>
      <trkpt lat="49.77573" lon="2.16629">
        <ele>48.6</ele>
        <time>2023-02-08T15:41:06Z</time>
      </trkpt>
      <trkpt lat="49.77572" lon="2.16629">
        <ele>48.6</ele>
        <time>2023-02-08T15:41:07Z</time>
      </trkpt>
      <trkpt lat="49.7757" lon="2.16628">
        <ele>48.6</ele>
        <time>2023-02-08T15:41:08Z</time>
      </trkpt>
      <trkpt lat="49.77569" lon="2.16628">
        <ele>48.6</ele>
        <time>2023-02-08T15:41:09Z</time>
      </trkpt>
      <trkpt lat="49.77568" lon="2.16628">
        <ele>48.6</ele>
        <time>2023-02-08T15:41:10Z</time>
      </trkpt>
      <trkpt lat="49.77566" lon="2.16627">
        <ele>48.6</ele>
        <time>2023-02-08T15:41:11Z</time>
      </trkpt>
      <trkpt lat="49.77564" lon="2.16627">
        <ele>48.7</ele>
        <time>2023-02-08T15:41:13Z</time>
      </trkpt>
      <trkpt lat="49.77563" lon="2.16627">
        <ele>48.7</ele>
        <time>2023-02-08T15:41:14Z</time>
      </trkpt>
      <trkpt lat="49.77562" lon="2.16627">
        <ele>48.7</ele>
        <time>2023-02-08T15:41:15Z</time>
      </trkpt>
      <trkpt lat="49.77561" lon="2.16627">
        <ele>48.7</ele>
        <time>2023-02-08T15:41:16Z</time>
      </trkpt>
      <trkpt lat="49.7756" lon="2.16627">
        <ele>48.7</ele>
        <time>2023-02-08T15:41:17Z</time>
      </trkpt>
      <trkpt lat="49.77558" lon="2.16627">
        <ele>48.7</ele>
        <time>2023-02-08T15:41:19Z</time>
      </trkpt>
      <trkpt lat="49.77557" lon="2.16627">
        <ele>48.7</ele>
        <time>2023-02-08T15:41:20Z</time>
      </trkpt>
      <trkpt lat="49.77555" lon="2.16628">
        <ele>48.7</ele>
        <time>2023-02-08T15:41:21Z</time>
      </trkpt>
      <trkpt lat="49.77554" lon="2.16628">
        <ele>48.8</ele>
        <time>2023-02-08T15:41:22Z</time>
      </trkpt>
      <trkpt lat="49.77553" lon="2.16628">
        <ele>48.8</ele>
        <time>2023-02-08T15:41:23Z</time>
      </trkpt>
      <trkpt lat="49.77552" lon="2.16627">
        <ele>48.8</ele>
        <time>2023-02-08T15:41:24Z</time>
      </trkpt>
      <trkpt lat="49.77551" lon="2.16627">
        <ele>48.8</ele>
        <time>2023-02-08T15:41:25Z</time>
      </trkpt>
      <trkpt lat="49.7755" lon="2.16627">
        <ele>48.8</ele>
        <time>2023-02-08T15:41:26Z</time>
      </trkpt>
      <trkpt lat="49.77548" lon="2.16627">
        <ele>48.8</ele>
        <time>2023-02-08T15:41:27Z</time>
      </trkpt>
      <trkpt lat="49.77547" lon="2.16626">
        <ele>48.8</ele>
        <time>2023-02-08T15:41:28Z</time>
      </trkpt>
      <trkpt lat="49.77546" lon="2.16626">
        <ele>48.8</ele>
        <time>2023-02-08T15:41:29Z</time>
      </trkpt>
      <trkpt lat="49.77544" lon="2.16625">
        <ele>48.8</ele>
        <time>2023-02-08T15:41:30Z</time>
      </trkpt>
      <trkpt lat="49.77543" lon="2.16625">
        <ele>48.8</ele>
        <time>2023-02-08T15:41:32Z</time>
      </trkpt>
      <trkpt lat="49.77542" lon="2.16624">
        <ele>48.8</ele>
        <time>2023-02-08T15:41:33Z</time>
      </trkpt>
      <trkpt lat="49.7754" lon="2.16624">
        <ele>48.8</ele>
        <time>2023-02-08T15:41:34Z</time>
      </trkpt>
      <trkpt lat="49.77539" lon="2.16624">
        <ele>48.9</ele>
        <time>2023-02-08T15:41:35Z</time>
      </trkpt>
      <trkpt lat="49.77537" lon="2.16623">
        <ele>48.9</ele>
        <time>2023-02-08T15:41:36Z</time>
      </trkpt>
      <trkpt lat="49.77535" lon="2.16622">
        <ele>48.9</ele>
        <time>2023-02-08T15:41:37Z</time>
      </trkpt>
      <trkpt lat="49.77534" lon="2.16622">
        <ele>48.9</ele>
        <time>2023-02-08T15:41:38Z</time>
      </trkpt>
      <trkpt lat="49.77533" lon="2.16622">
        <ele>48.9</ele>
        <time>2023-02-08T15:41:39Z</time>
      </trkpt>
      <trkpt lat="49.77532" lon="2.16621">
        <ele>48.9</ele>
        <time>2023-02-08T15:41:41Z</time>
      </trkpt>
      <trkpt lat="49.7753" lon="2.1662">
        <ele>48.9</ele>
        <time>2023-02-08T15:41:42Z</time>
      </trkpt>
      <trkpt lat="49.77528" lon="2.16619">
        <ele>48.9</ele>
        <time>2023-02-08T15:41:43Z</time>
      </trkpt>
      <trkpt lat="49.77528" lon="2.16619">
        <ele>48.9</ele>
        <time>2023-02-08T15:41:44Z</time>
      </trkpt>
      <trkpt lat="49.77526" lon="2.16618">
        <ele>48.9</ele>
        <time>2023-02-08T15:41:45Z</time>
      </trkpt>
      <trkpt lat="49.77525" lon="2.16618">
        <ele>48.9</ele>
        <time>2023-02-08T15:41:46Z</time>
      </trkpt>
      <trkpt lat="49.77524" lon="2.16617">
        <ele>48.9</ele>
        <time>2023-02-08T15:41:47Z</time>
      </trkpt>
      <trkpt lat="49.77522" lon="2.16616">
        <ele>48.9</ele>
        <time>2023-02-08T15:41:48Z</time>
      </trkpt>
      <trkpt lat="49.77521" lon="2.16616">
        <ele>48.9</ele>
        <time>2023-02-08T15:41:49Z</time>
      </trkpt>
      <trkpt lat="49.7752" lon="2.16616">
        <ele>48.9</ele>
        <time>2023-02-08T15:41:50Z</time>
      </trkpt>
      <trkpt lat="49.77518" lon="2.16615">
        <ele>48.9</ele>
        <time>2023-02-08T15:41:51Z</time>
      </trkpt>
      <trkpt lat="49.77517" lon="2.16615">
        <ele>48.9</ele>
        <time>2023-02-08T15:41:53Z</time>
      </trkpt>
      <trkpt lat="49.77516" lon="2.16615">
        <ele>48.9</ele>
        <time>2023-02-08T15:41:54Z</time>
      </trkpt>
      <trkpt lat="49.77514" lon="2.16615">
        <ele>48.9</ele>
        <time>2023-02-08T15:41:55Z</time>
      </trkpt>
      <trkpt lat="49.77513" lon="2.16614">
        <ele>48.9</ele>
        <time>2023-02-08T15:41:56Z</time>
      </trkpt>
      <trkpt lat="49.77512" lon="2.16614">
        <ele>48.9</ele>
        <time>2023-02-08T15:41:57Z</time>
      </trkpt>
      <trkpt lat="49.7751" lon="2.16613">
        <ele>48.9</ele>
        <time>2023-02-08T15:41:58Z</time>
      </trkpt>
      <trkpt lat="49.77509" lon="2.16613">
        <ele>48.9</ele>
        <time>2023-02-08T15:41:59Z</time>
      </trkpt>
      <trkpt lat="49.77508" lon="2.16613">
        <ele>48.9</ele>
        <time>2023-02-08T15:42:01Z</time>
      </trkpt>
      <trkpt lat="49.77506" lon="2.16612">
        <ele>48.9</ele>
        <time>2023-02-08T15:42:02Z</time>
      </trkpt>
      <trkpt lat="49.77505" lon="2.16612">
        <ele>48.9</ele>
        <time>2023-02-08T15:42:03Z</time>
      </trkpt>
      <trkpt lat="49.77503" lon="2.16612">
        <ele>48.9</ele>
        <time>2023-02-08T15:42:04Z</time>
      </trkpt>
      <trkpt lat="49.77501" lon="2.16611">
        <ele>48.9</ele>
        <time>2023-02-08T15:42:05Z</time>
      </trkpt>
      <trkpt lat="49.775" lon="2.16611">
        <ele>48.9</ele>
        <time>2023-02-08T15:42:06Z</time>
      </trkpt>
      <trkpt lat="49.77499" lon="2.16611">
        <ele>48.9</ele>
        <time>2023-02-08T15:42:07Z</time>
      </trkpt>
      <trkpt lat="49.77497" lon="2.16611">
        <ele>49</ele>
        <time>2023-02-08T15:42:09Z</time>
      </trkpt>
      <trkpt lat="49.77496" lon="2.16611">
        <ele>49</ele>
        <time>2023-02-08T15:42:10Z</time>
      </trkpt>
      <trkpt lat="49.77495" lon="2.16611">
        <ele>49</ele>
        <time>2023-02-08T15:42:11Z</time>
      </trkpt>
      <trkpt lat="49.77494" lon="2.16611">
        <ele>49</ele>
        <time>2023-02-08T15:42:12Z</time>
      </trkpt>
      <trkpt lat="49.77492" lon="2.1661">
        <ele>49</ele>
        <time>2023-02-08T15:42:13Z</time>
      </trkpt>
      <trkpt lat="49.7749" lon="2.16609">
        <ele>49</ele>
        <time>2023-02-08T15:42:14Z</time>
      </trkpt>
      <trkpt lat="49.77489" lon="2.16609">
        <ele>49</ele>
        <time>2023-02-08T15:42:15Z</time>
      </trkpt>
      <trkpt lat="49.77488" lon="2.16609">
        <ele>49</ele>
        <time>2023-02-08T15:42:17Z</time>
      </trkpt>
      <trkpt lat="49.77487" lon="2.16608">
        <ele>49</ele>
        <time>2023-02-08T15:42:18Z</time>
      </trkpt>
      <trkpt lat="49.77486" lon="2.16608">
        <ele>49</ele>
        <time>2023-02-08T15:42:19Z</time>
      </trkpt>
      <trkpt lat="49.77485" lon="2.16608">
        <ele>49</ele>
        <time>2023-02-08T15:42:20Z</time>
      </trkpt>
      <trkpt lat="49.77484" lon="2.16608">
        <ele>49</ele>
        <time>2023-02-08T15:42:21Z</time>
      </trkpt>
      <trkpt lat="49.77483" lon="2.16607">
        <ele>49</ele>
        <time>2023-02-08T15:42:22Z</time>
      </trkpt>
      <trkpt lat="49.77482" lon="2.16607">
        <ele>49</ele>
        <time>2023-02-08T15:42:23Z</time>
      </trkpt>
      <trkpt lat="49.77481" lon="2.16607">
        <ele>49</ele>
        <time>2023-02-08T15:42:25Z</time>
      </trkpt>
      <trkpt lat="49.7748" lon="2.16607">
        <ele>49</ele>
        <time>2023-02-08T15:42:26Z</time>
      </trkpt>
      <trkpt lat="49.77478" lon="2.16607">
        <ele>49</ele>
        <time>2023-02-08T15:42:27Z</time>
      </trkpt>
      <trkpt lat="49.77477" lon="2.16606">
        <ele>49</ele>
        <time>2023-02-08T15:42:28Z</time>
      </trkpt>
      <trkpt lat="49.77476" lon="2.16606">
        <ele>49</ele>
        <time>2023-02-08T15:42:29Z</time>
      </trkpt>
      <trkpt lat="49.77475" lon="2.16605">
        <ele>49</ele>
        <time>2023-02-08T15:42:30Z</time>
      </trkpt>
      <trkpt lat="49.77474" lon="2.16604">
        <ele>49</ele>
        <time>2023-02-08T15:42:31Z</time>
      </trkpt>
      <trkpt lat="49.77473" lon="2.16604">
        <ele>49</ele>
        <time>2023-02-08T15:42:33Z</time>
      </trkpt>
      <trkpt lat="49.77472" lon="2.16604">
        <ele>49</ele>
        <time>2023-02-08T15:42:34Z</time>
      </trkpt>
      <trkpt lat="49.77471" lon="2.16603">
        <ele>49</ele>
        <time>2023-02-08T15:42:35Z</time>
      </trkpt>
      <trkpt lat="49.7747" lon="2.16603">
        <ele>49</ele>
        <time>2023-02-08T15:42:36Z</time>
      </trkpt>
      <trkpt lat="49.7747" lon="2.16603">
        <ele>49</ele>
        <time>2023-02-08T15:42:37Z</time>
      </trkpt>
      <trkpt lat="49.77469" lon="2.16602">
        <ele>49</ele>
        <time>2023-02-08T15:42:38Z</time>
      </trkpt>
      <trkpt lat="49.77467" lon="2.16601">
        <ele>49</ele>
        <time>2023-02-08T15:42:40Z</time>
      </trkpt>
      <trkpt lat="49.77466" lon="2.16601">
        <ele>49</ele>
        <time>2023-02-08T15:42:41Z</time>
      </trkpt>
      <trkpt lat="49.77465" lon="2.166">
        <ele>49</ele>
        <time>2023-02-08T15:42:42Z</time>
      </trkpt>
      <trkpt lat="49.77464" lon="2.166">
        <ele>49</ele>
        <time>2023-02-08T15:42:44Z</time>
      </trkpt>
      <trkpt lat="49.77463" lon="2.16599">
        <ele>49</ele>
        <time>2023-02-08T15:42:45Z</time>
      </trkpt>
      <trkpt lat="49.77463" lon="2.16599">
        <ele>49</ele>
        <time>2023-02-08T15:42:46Z</time>
      </trkpt>
      <trkpt lat="49.77462" lon="2.16598">
        <ele>49</ele>
        <time>2023-02-08T15:42:47Z</time>
      </trkpt>
      <trkpt lat="49.77461" lon="2.16598">
        <ele>49</ele>
        <time>2023-02-08T15:42:48Z</time>
      </trkpt>
      <trkpt lat="49.7746" lon="2.16598">
        <ele>49</ele>
        <time>2023-02-08T15:42:49Z</time>
      </trkpt>
      <trkpt lat="49.77459" lon="2.16597">
        <ele>49</ele>
        <time>2023-02-08T15:42:50Z</time>
      </trkpt>
      <trkpt lat="49.77458" lon="2.16597">
        <ele>49</ele>
        <time>2023-02-08T15:42:52Z</time>
      </trkpt>
      <trkpt lat="49.77457" lon="2.16596">
        <ele>49</ele>
        <time>2023-02-08T15:42:53Z</time>
      </trkpt>
      <trkpt lat="49.77455" lon="2.16595">
        <ele>49</ele>
        <time>2023-02-08T15:42:54Z</time>
      </trkpt>
      <trkpt lat="49.77454" lon="2.16594">
        <ele>49</ele>
        <time>2023-02-08T15:42:55Z</time>
      </trkpt>
      <trkpt lat="49.77453" lon="2.16594">
        <ele>49</ele>
        <time>2023-02-08T15:42:56Z</time>
      </trkpt>
      <trkpt lat="49.77451" lon="2.16593">
        <ele>49</ele>
        <time>2023-02-08T15:42:57Z</time>
      </trkpt>
      <trkpt lat="49.7745" lon="2.16592">
        <ele>49</ele>
        <time>2023-02-08T15:42:58Z</time>
      </trkpt>
      <trkpt lat="49.77449" lon="2.16592">
        <ele>49</ele>
        <time>2023-02-08T15:42:59Z</time>
      </trkpt>
      <trkpt lat="49.77447" lon="2.16591">
        <ele>49</ele>
        <time>2023-02-08T15:43:00Z</time>
      </trkpt>
      <trkpt lat="49.77446" lon="2.16591">
        <ele>49</ele>
        <time>2023-02-08T15:43:01Z</time>
      </trkpt>
      <trkpt lat="49.77444" lon="2.1659">
        <ele>49</ele>
        <time>2023-02-08T15:43:03Z</time>
      </trkpt>
      <trkpt lat="49.77443" lon="2.16589">
        <ele>49</ele>
        <time>2023-02-08T15:43:04Z</time>
      </trkpt>
      <trkpt lat="49.77441" lon="2.16589">
        <ele>49</ele>
        <time>2023-02-08T15:43:05Z</time>
      </trkpt>
      <trkpt lat="49.77439" lon="2.16588">
        <ele>49.1</ele>
        <time>2023-02-08T15:43:06Z</time>
      </trkpt>
      <trkpt lat="49.77438" lon="2.16588">
        <ele>49.1</ele>
        <time>2023-02-08T15:43:07Z</time>
      </trkpt>
      <trkpt lat="49.77436" lon="2.16587">
        <ele>49.1</ele>
        <time>2023-02-08T15:43:08Z</time>
      </trkpt>
      <trkpt lat="49.77434" lon="2.16587">
        <ele>49.1</ele>
        <time>2023-02-08T15:43:09Z</time>
      </trkpt>
      <trkpt lat="49.77433" lon="2.16587">
        <ele>49.1</ele>
        <time>2023-02-08T15:43:10Z</time>
      </trkpt>
      <trkpt lat="49.77432" lon="2.16587">
        <ele>49.1</ele>
        <time>2023-02-08T15:43:11Z</time>
      </trkpt>
      <trkpt lat="49.77431" lon="2.16586">
        <ele>49.1</ele>
        <time>2023-02-08T15:43:12Z</time>
      </trkpt>
      <trkpt lat="49.7743" lon="2.16586">
        <ele>49.1</ele>
        <time>2023-02-08T15:43:13Z</time>
      </trkpt>
      <trkpt lat="49.77427" lon="2.16586">
        <ele>49.1</ele>
        <time>2023-02-08T15:43:15Z</time>
      </trkpt>
      <trkpt lat="49.77427" lon="2.16586">
        <ele>49.1</ele>
        <time>2023-02-08T15:43:16Z</time>
      </trkpt>
      <trkpt lat="49.77426" lon="2.16586">
        <ele>49.1</ele>
        <time>2023-02-08T15:43:17Z</time>
      </trkpt>
      <trkpt lat="49.77424" lon="2.16586">
        <ele>49.2</ele>
        <time>2023-02-08T15:43:18Z</time>
      </trkpt>
      <trkpt lat="49.77423" lon="2.16585">
        <ele>49.2</ele>
        <time>2023-02-08T15:43:19Z</time>
      </trkpt>
      <trkpt lat="49.77422" lon="2.16585">
        <ele>49.2</ele>
        <time>2023-02-08T15:43:20Z</time>
      </trkpt>
      <trkpt lat="49.7742" lon="2.16585">
        <ele>49.2</ele>
        <time>2023-02-08T15:43:22Z</time>
      </trkpt>
      <trkpt lat="49.77419" lon="2.16584">
        <ele>49.2</ele>
        <time>2023-02-08T15:43:23Z</time>
      </trkpt>
      <trkpt lat="49.77418" lon="2.16583">
        <ele>49.2</ele>
        <time>2023-02-08T15:43:24Z</time>
      </trkpt>
      <trkpt lat="49.77417" lon="2.16583">
        <ele>49.2</ele>
        <time>2023-02-08T15:43:25Z</time>
      </trkpt>
      <trkpt lat="49.77416" lon="2.16582">
        <ele>49.2</ele>
        <time>2023-02-08T15:43:26Z</time>
      </trkpt>
      <trkpt lat="49.77414" lon="2.16581">
        <ele>49.2</ele>
        <time>2023-02-08T15:43:27Z</time>
      </trkpt>
      <trkpt lat="49.77413" lon="2.1658">
        <ele>49.2</ele>
        <time>2023-02-08T15:43:28Z</time>
      </trkpt>
      <trkpt lat="49.77412" lon="2.1658">
        <ele>49.2</ele>
        <time>2023-02-08T15:43:29Z</time>
      </trkpt>
      <trkpt lat="49.77411" lon="2.16579">
        <ele>49.2</ele>
        <time>2023-02-08T15:43:30Z</time>
      </trkpt>
      <trkpt lat="49.7741" lon="2.16579">
        <ele>49.3</ele>
        <time>2023-02-08T15:43:32Z</time>
      </trkpt>
      <trkpt lat="49.77409" lon="2.16578">
        <ele>49.3</ele>
        <time>2023-02-08T15:43:33Z</time>
      </trkpt>
      <trkpt lat="49.77408" lon="2.16577">
        <ele>49.3</ele>
        <time>2023-02-08T15:43:34Z</time>
      </trkpt>
      <trkpt lat="49.77406" lon="2.16576">
        <ele>49.3</ele>
        <time>2023-02-08T15:43:35Z</time>
      </trkpt>
      <trkpt lat="49.77405" lon="2.16575">
        <ele>49.3</ele>
        <time>2023-02-08T15:43:37Z</time>
      </trkpt>
      <trkpt lat="49.77404" lon="2.16575">
        <ele>49.3</ele>
        <time>2023-02-08T15:43:38Z</time>
      </trkpt>
      <trkpt lat="49.77403" lon="2.16574">
        <ele>49.3</ele>
        <time>2023-02-08T15:43:39Z</time>
      </trkpt>
      <trkpt lat="49.77402" lon="2.16574">
        <ele>49.3</ele>
        <time>2023-02-08T15:43:40Z</time>
      </trkpt>
      <trkpt lat="49.77402" lon="2.16573">
        <ele>49.3</ele>
        <time>2023-02-08T15:43:41Z</time>
      </trkpt>
      <trkpt lat="49.77401" lon="2.16573">
        <ele>49.3</ele>
        <time>2023-02-08T15:43:42Z</time>
      </trkpt>
      <trkpt lat="49.774" lon="2.16572">
        <ele>49.3</ele>
        <time>2023-02-08T15:43:43Z</time>
      </trkpt>
      <trkpt lat="49.774" lon="2.16572">
        <ele>49.3</ele>
        <time>2023-02-08T15:43:44Z</time>
      </trkpt>
      <trkpt lat="49.77399" lon="2.16572">
        <ele>49.3</ele>
        <time>2023-02-08T15:43:45Z</time>
      </trkpt>
      <trkpt lat="49.77399" lon="2.16572">
        <ele>49.3</ele>
        <time>2023-02-08T15:43:46Z</time>
      </trkpt>
      <trkpt lat="49.77397" lon="2.16571">
        <ele>49.3</ele>
        <time>2023-02-08T15:43:48Z</time>
      </trkpt>
      <trkpt lat="49.77397" lon="2.16571">
        <ele>49.3</ele>
        <time>2023-02-08T15:43:49Z</time>
      </trkpt>
      <trkpt lat="49.77397" lon="2.16571">
        <ele>49.3</ele>
        <time>2023-02-08T15:43:50Z</time>
      </trkpt>
      <trkpt lat="49.77396" lon="2.16571">
        <ele>49.3</ele>
        <time>2023-02-08T15:43:51Z</time>
      </trkpt>
      <trkpt lat="49.77394" lon="2.16571">
        <ele>49.3</ele>
        <time>2023-02-08T15:43:52Z</time>
      </trkpt>
      <trkpt lat="49.77393" lon="2.16571">
        <ele>49.3</ele>
        <time>2023-02-08T15:43:53Z</time>
      </trkpt>
      <trkpt lat="49.77391" lon="2.16571">
        <ele>49.3</ele>
        <time>2023-02-08T15:43:54Z</time>
      </trkpt>
      <trkpt lat="49.7739" lon="2.16571">
        <ele>49.3</ele>
        <time>2023-02-08T15:43:55Z</time>
      </trkpt>
      <trkpt lat="49.7739" lon="2.16571">
        <ele>49.3</ele>
        <time>2023-02-08T15:43:56Z</time>
      </trkpt>
      <trkpt lat="49.77387" lon="2.16571">
        <ele>49.3</ele>
        <time>2023-02-08T15:43:57Z</time>
      </trkpt>
      <trkpt lat="49.77387" lon="2.1657">
        <ele>49.3</ele>
        <time>2023-02-08T15:43:59Z</time>
      </trkpt>
      <trkpt lat="49.77386" lon="2.1657">
        <ele>49.3</ele>
        <time>2023-02-08T15:44:00Z</time>
      </trkpt>
      <trkpt lat="49.77384" lon="2.16569">
        <ele>49.4</ele>
        <time>2023-02-08T15:44:01Z</time>
      </trkpt>
      <trkpt lat="49.77383" lon="2.16569">
        <ele>49.4</ele>
        <time>2023-02-08T15:44:02Z</time>
      </trkpt>
      <trkpt lat="49.77382" lon="2.16569">
        <ele>49.4</ele>
        <time>2023-02-08T15:44:03Z</time>
      </trkpt>
      <trkpt lat="49.77381" lon="2.16569">
        <ele>49.4</ele>
        <time>2023-02-08T15:44:04Z</time>
      </trkpt>
      <trkpt lat="49.7738" lon="2.16569">
        <ele>49.4</ele>
        <time>2023-02-08T15:44:05Z</time>
      </trkpt>
      <trkpt lat="49.77379" lon="2.16568">
        <ele>49.4</ele>
        <time>2023-02-08T15:44:06Z</time>
      </trkpt>
      <trkpt lat="49.77378" lon="2.16568">
        <ele>49.4</ele>
        <time>2023-02-08T15:44:07Z</time>
      </trkpt>
      <trkpt lat="49.77377" lon="2.16568">
        <ele>49.4</ele>
        <time>2023-02-08T15:44:08Z</time>
      </trkpt>
      <trkpt lat="49.77376" lon="2.16568">
        <ele>49.4</ele>
        <time>2023-02-08T15:44:09Z</time>
      </trkpt>
      <trkpt lat="49.77375" lon="2.16567">
        <ele>49.4</ele>
        <time>2023-02-08T15:44:11Z</time>
      </trkpt>
      <trkpt lat="49.77374" lon="2.16567">
        <ele>49.4</ele>
        <time>2023-02-08T15:44:12Z</time>
      </trkpt>
      <trkpt lat="49.77373" lon="2.16567">
        <ele>49.4</ele>
        <time>2023-02-08T15:44:13Z</time>
      </trkpt>
      <trkpt lat="49.77372" lon="2.16566">
        <ele>49.4</ele>
        <time>2023-02-08T15:44:14Z</time>
      </trkpt>
      <trkpt lat="49.77371" lon="2.16566">
        <ele>49.4</ele>
        <time>2023-02-08T15:44:15Z</time>
      </trkpt>
      <trkpt lat="49.7737" lon="2.16566">
        <ele>49.4</ele>
        <time>2023-02-08T15:44:16Z</time>
      </trkpt>
      <trkpt lat="49.77369" lon="2.16567">
        <ele>49.4</ele>
        <time>2023-02-08T15:44:17Z</time>
      </trkpt>
      <trkpt lat="49.77368" lon="2.16567">
        <ele>49.4</ele>
        <time>2023-02-08T15:44:18Z</time>
      </trkpt>
      <trkpt lat="49.77367" lon="2.16567">
        <ele>49.4</ele>
        <time>2023-02-08T15:44:19Z</time>
      </trkpt>
      <trkpt lat="49.77366" lon="2.16566">
        <ele>49.4</ele>
        <time>2023-02-08T15:44:21Z</time>
      </trkpt>
      <trkpt lat="49.77365" lon="2.16566">
        <ele>49.4</ele>
        <time>2023-02-08T15:44:22Z</time>
      </trkpt>
      <trkpt lat="49.77364" lon="2.16565">
        <ele>49.4</ele>
        <time>2023-02-08T15:44:23Z</time>
      </trkpt>
      <trkpt lat="49.77363" lon="2.16565">
        <ele>49.4</ele>
        <time>2023-02-08T15:44:24Z</time>
      </trkpt>
      <trkpt lat="49.77362" lon="2.16564">
        <ele>49.4</ele>
        <time>2023-02-08T15:44:25Z</time>
      </trkpt>
      <trkpt lat="49.77361" lon="2.16564">
        <ele>49.4</ele>
        <time>2023-02-08T15:44:26Z</time>
      </trkpt>
      <trkpt lat="49.7736" lon="2.16564">
        <ele>49.4</ele>
        <time>2023-02-08T15:44:27Z</time>
      </trkpt>
      <trkpt lat="49.77359" lon="2.16564">
        <ele>49.4</ele>
        <time>2023-02-08T15:44:28Z</time>
      </trkpt>
      <trkpt lat="49.77357" lon="2.16565">
        <ele>49.4</ele>
        <time>2023-02-08T15:44:30Z</time>
      </trkpt>
      <trkpt lat="49.77356" lon="2.16566">
        <ele>49.4</ele>
        <time>2023-02-08T15:44:31Z</time>
      </trkpt>
      <trkpt lat="49.77355" lon="2.16567">
        <ele>49.4</ele>
        <time>2023-02-08T15:44:32Z</time>
      </trkpt>
      <trkpt lat="49.77354" lon="2.16568">
        <ele>49.4</ele>
        <time>2023-02-08T15:44:33Z</time>
      </trkpt>
      <trkpt lat="49.77354" lon="2.1657">
        <ele>49.4</ele>
        <time>2023-02-08T15:44:34Z</time>
      </trkpt>
      <trkpt lat="49.77352" lon="2.16572">
        <ele>49.5</ele>
        <time>2023-02-08T15:44:35Z</time>
      </trkpt>
      <trkpt lat="49.77351" lon="2.16573">
        <ele>49.5</ele>
        <time>2023-02-08T15:44:37Z</time>
      </trkpt>
      <trkpt lat="49.7735" lon="2.16574">
        <ele>49.5</ele>
        <time>2023-02-08T15:44:38Z</time>
      </trkpt>
      <trkpt lat="49.77349" lon="2.16575">
        <ele>49.5</ele>
        <time>2023-02-08T15:44:39Z</time>
      </trkpt>
      <trkpt lat="49.77348" lon="2.16577">
        <ele>49.5</ele>
        <time>2023-02-08T15:44:40Z</time>
      </trkpt>
      <trkpt lat="49.77347" lon="2.16578">
        <ele>49.5</ele>
        <time>2023-02-08T15:44:41Z</time>
      </trkpt>
      <trkpt lat="49.77345" lon="2.16579">
        <ele>49.5</ele>
        <time>2023-02-08T15:44:42Z</time>
      </trkpt>
      <trkpt lat="49.77343" lon="2.16579">
        <ele>49.5</ele>
        <time>2023-02-08T15:44:44Z</time>
      </trkpt>
      <trkpt lat="49.77343" lon="2.1658">
        <ele>49.5</ele>
        <time>2023-02-08T15:44:45Z</time>
      </trkpt>
      <trkpt lat="49.77342" lon="2.1658">
        <ele>49.5</ele>
        <time>2023-02-08T15:44:46Z</time>
      </trkpt>
      <trkpt lat="49.77339" lon="2.16582">
        <ele>49.5</ele>
        <time>2023-02-08T15:44:48Z</time>
      </trkpt>
      <trkpt lat="49.77338" lon="2.16582">
        <ele>49.5</ele>
        <time>2023-02-08T15:44:49Z</time>
      </trkpt>
      <trkpt lat="49.77338" lon="2.16583">
        <ele>49.5</ele>
        <time>2023-02-08T15:44:50Z</time>
      </trkpt>
      <trkpt lat="49.77337" lon="2.16584">
        <ele>49.5</ele>
        <time>2023-02-08T15:44:52Z</time>
      </trkpt>
      <trkpt lat="49.77336" lon="2.16584">
        <ele>49.5</ele>
        <time>2023-02-08T15:44:53Z</time>
      </trkpt>
      <trkpt lat="49.77335" lon="2.16585">
        <ele>49.5</ele>
        <time>2023-02-08T15:44:54Z</time>
      </trkpt>
      <trkpt lat="49.77333" lon="2.16587">
        <ele>49.5</ele>
        <time>2023-02-08T15:44:56Z</time>
      </trkpt>
      <trkpt lat="49.77333" lon="2.16589">
        <ele>49.5</ele>
        <time>2023-02-08T15:44:57Z</time>
      </trkpt>
      <trkpt lat="49.77332" lon="2.1659">
        <ele>49.5</ele>
        <time>2023-02-08T15:44:59Z</time>
      </trkpt>
      <trkpt lat="49.77333" lon="2.1659">
        <ele>49.5</ele>
        <time>2023-02-08T15:45:00Z</time>
      </trkpt>
      <trkpt lat="49.77333" lon="2.1659">
        <ele>49.5</ele>
        <time>2023-02-08T15:45:02Z</time>
      </trkpt>
      <trkpt lat="49.77333" lon="2.1659">
        <ele>49.5</ele>
        <time>2023-02-08T15:45:03Z</time>
      </trkpt>
      <trkpt lat="49.77333" lon="2.1659">
        <ele>49.5</ele>
        <time>2023-02-08T15:45:04Z</time>
      </trkpt>
      <trkpt lat="49.77333" lon="2.1659">
        <ele>49.5</ele>
        <time>2023-02-08T15:45:06Z</time>
      </trkpt>
      <trkpt lat="49.77333" lon="2.1659">
        <ele>49.5</ele>
        <time>2023-02-08T15:45:07Z</time>
      </trkpt>
      <trkpt lat="49.77333" lon="2.1659">
        <ele>49.5</ele>
        <time>2023-02-08T15:45:09Z</time>
      </trkpt>
      <trkpt lat="49.77333" lon="2.1659">
        <ele>49.5</ele>
        <time>2023-02-08T15:45:10Z</time>
      </trkpt>
      <trkpt lat="49.77333" lon="2.16589">
        <ele>49.5</ele>
        <time>2023-02-08T15:45:12Z</time>
      </trkpt>
      <trkpt lat="49.77333" lon="2.16589">
        <ele>49.5</ele>
        <time>2023-02-08T15:45:13Z</time>
      </trkpt>
      <trkpt lat="49.77333" lon="2.16589">
        <ele>49.5</ele>
        <time>2023-02-08T15:45:14Z</time>
      </trkpt>
      <trkpt lat="49.77333" lon="2.16589">
        <ele>49.5</ele>
        <time>2023-02-08T15:45:15Z</time>
      </trkpt>
      <trkpt lat="49.77333" lon="2.16589">
        <ele>49.5</ele>
        <time>2023-02-08T15:45:16Z</time>
      </trkpt>
      <trkpt lat="49.77333" lon="2.16589">
        <ele>49.5</ele>
        <time>2023-02-08T15:45:17Z</time>
      </trkpt>
      <trkpt lat="49.77334" lon="2.16589">
        <ele>49.5</ele>
        <time>2023-02-08T15:45:18Z</time>
      </trkpt>
      <trkpt lat="49.77334" lon="2.16589">
        <ele>49.5</ele>
        <time>2023-02-08T15:45:19Z</time>
      </trkpt>
      <trkpt lat="49.77334" lon="2.16589">
        <ele>49.5</ele>
        <time>2023-02-08T15:45:20Z</time>
      </trkpt>
      <trkpt lat="49.77334" lon="2.16589">
        <ele>49.4</ele>
        <time>2023-02-08T15:45:21Z</time>
      </trkpt>
      <trkpt lat="49.77334" lon="2.16588">
        <ele>49.4</ele>
        <time>2023-02-08T15:45:22Z</time>
      </trkpt>
      <trkpt lat="49.77334" lon="2.16588">
        <ele>49.4</ele>
        <time>2023-02-08T15:45:23Z</time>
      </trkpt>
      <trkpt lat="49.77334" lon="2.16588">
        <ele>49.4</ele>
        <time>2023-02-08T15:45:24Z</time>
      </trkpt>
      <trkpt lat="49.77334" lon="2.16588">
        <ele>49.4</ele>
        <time>2023-02-08T15:45:25Z</time>
      </trkpt>
      <trkpt lat="49.77334" lon="2.16588">
        <ele>49.4</ele>
        <time>2023-02-08T15:45:26Z</time>
      </trkpt>
      <trkpt lat="49.77334" lon="2.16588">
        <ele>49.4</ele>
        <time>2023-02-08T15:45:27Z</time>
      </trkpt>
      <trkpt lat="49.77334" lon="2.16588">
        <ele>49.4</ele>
        <time>2023-02-08T15:45:28Z</time>
      </trkpt>
      <trkpt lat="49.77334" lon="2.16588">
        <ele>49.4</ele>
        <time>2023-02-08T15:45:29Z</time>
      </trkpt>
      <trkpt lat="49.77334" lon="2.16588">
        <ele>49.4</ele>
        <time>2023-02-08T15:45:30Z</time>
      </trkpt>
      <trkpt lat="49.77335" lon="2.16588">
        <ele>49.4</ele>
        <time>2023-02-08T15:45:31Z</time>
      </trkpt>
      <trkpt lat="49.77335" lon="2.16588">
        <ele>49.4</ele>
        <time>2023-02-08T15:45:32Z</time>
      </trkpt>
      <trkpt lat="49.77335" lon="2.16587">
        <ele>49.4</ele>
        <time>2023-02-08T15:45:33Z</time>
      </trkpt>
      <trkpt lat="49.77335" lon="2.16587">
        <ele>49.4</ele>
        <time>2023-02-08T15:45:34Z</time>
      </trkpt>
      <trkpt lat="49.77335" lon="2.16587">
        <ele>49.4</ele>
        <time>2023-02-08T15:45:35Z</time>
      </trkpt>
      <trkpt lat="49.77335" lon="2.16587">
        <ele>49.4</ele>
        <time>2023-02-08T15:45:36Z</time>
      </trkpt>
      <trkpt lat="49.77335" lon="2.16587">
        <ele>49.4</ele>
        <time>2023-02-08T15:45:37Z</time>
      </trkpt>
      <trkpt lat="49.77335" lon="2.16587">
        <ele>49.4</ele>
        <time>2023-02-08T15:45:38Z</time>
      </trkpt>
      <trkpt lat="49.77335" lon="2.16587">
        <ele>49.4</ele>
        <time>2023-02-08T15:45:39Z</time>
      </trkpt>
      <trkpt lat="49.77335" lon="2.16587">
        <ele>49.4</ele>
        <time>2023-02-08T15:45:40Z</time>
      </trkpt>
      <trkpt lat="49.77335" lon="2.16587">
        <ele>49.4</ele>
        <time>2023-02-08T15:45:41Z</time>
      </trkpt>
      <trkpt lat="49.77335" lon="2.16587">
        <ele>49.4</ele>
        <time>2023-02-08T15:45:42Z</time>
      </trkpt>
      <trkpt lat="49.77335" lon="2.16586">
        <ele>49.4</ele>
        <time>2023-02-08T15:45:43Z</time>
      </trkpt>
      <trkpt lat="49.77335" lon="2.16586">
        <ele>49.4</ele>
        <time>2023-02-08T15:45:44Z</time>
      </trkpt>
      <trkpt lat="49.77336" lon="2.16586">
        <ele>49.4</ele>
        <time>2023-02-08T15:45:45Z</time>
      </trkpt>
      <trkpt lat="49.77336" lon="2.16586">
        <ele>49.4</ele>
        <time>2023-02-08T15:45:46Z</time>
      </trkpt>
      <trkpt lat="49.77336" lon="2.16586">
        <ele>49.4</ele>
        <time>2023-02-08T15:45:47Z</time>
      </trkpt>
      <trkpt lat="49.77336" lon="2.16586">
        <ele>49.4</ele>
        <time>2023-02-08T15:45:48Z</time>
      </trkpt>
      <trkpt lat="49.77336" lon="2.16586">
        <ele>49.4</ele>
        <time>2023-02-08T15:45:49Z</time>
      </trkpt>
      <trkpt lat="49.77336" lon="2.16586">
        <ele>49.4</ele>
        <time>2023-02-08T15:45:50Z</time>
      </trkpt>
      <trkpt lat="49.77336" lon="2.16586">
        <ele>49.4</ele>
        <time>2023-02-08T15:45:51Z</time>
      </trkpt>
      <trkpt lat="49.77336" lon="2.16586">
        <ele>49.4</ele>
        <time>2023-02-08T15:45:52Z</time>
      </trkpt>
      <trkpt lat="49.77336" lon="2.16586">
        <ele>49.4</ele>
        <time>2023-02-08T15:45:53Z</time>
      </trkpt>
      <trkpt lat="49.77336" lon="2.16585">
        <ele>49.4</ele>
        <time>2023-02-08T15:45:54Z</time>
      </trkpt>
      <trkpt lat="49.77336" lon="2.16585">
        <ele>49.4</ele>
        <time>2023-02-08T15:45:55Z</time>
      </trkpt>
      <trkpt lat="49.77336" lon="2.16585">
        <ele>49.4</ele>
        <time>2023-02-08T15:45:56Z</time>
      </trkpt>
      <trkpt lat="49.77336" lon="2.16585">
        <ele>49.4</ele>
        <time>2023-02-08T15:45:57Z</time>
      </trkpt>
      <trkpt lat="49.77336" lon="2.16585">
        <ele>49.4</ele>
        <time>2023-02-08T15:45:58Z</time>
      </trkpt>
      <trkpt lat="49.77337" lon="2.16585">
        <ele>49.4</ele>
        <time>2023-02-08T15:45:59Z</time>
      </trkpt>
      <trkpt lat="49.77337" lon="2.16585">
        <ele>49.4</ele>
        <time>2023-02-08T15:46:00Z</time>
      </trkpt>
      <trkpt lat="49.77338" lon="2.16582">
        <ele>49.4</ele>
        <time>2023-02-08T15:46:01Z</time>
      </trkpt>
      <trkpt lat="49.77338" lon="2.16582">
        <ele>49.4</ele>
        <time>2023-02-08T15:46:02Z</time>
      </trkpt>
      <trkpt lat="49.77338" lon="2.16583">
        <ele>49.4</ele>
        <time>2023-02-08T15:46:03Z</time>
      </trkpt>
      <trkpt lat="49.77338" lon="2.16584">
        <ele>49.4</ele>
        <time>2023-02-08T15:46:04Z</time>
      </trkpt>
      <trkpt lat="49.77337" lon="2.16585">
        <ele>49.4</ele>
        <time>2023-02-08T15:46:05Z</time>
      </trkpt>
      <trkpt lat="49.77337" lon="2.16586">
        <ele>49.4</ele>
        <time>2023-02-08T15:46:06Z</time>
      </trkpt>
      <trkpt lat="49.77337" lon="2.16585">
        <ele>49.4</ele>
        <time>2023-02-08T15:46:07Z</time>
      </trkpt>
      <trkpt lat="49.77337" lon="2.16585">
        <ele>49.4</ele>
        <time>2023-02-08T15:46:08Z</time>
      </trkpt>
      <trkpt lat="49.77336" lon="2.16587">
        <ele>49.4</ele>
        <time>2023-02-08T15:46:10Z</time>
      </trkpt>
      <trkpt lat="49.77336" lon="2.16588">
        <ele>49.4</ele>
        <time>2023-02-08T15:46:11Z</time>
      </trkpt>
      <trkpt lat="49.77335" lon="2.16589">
        <ele>49.4</ele>
        <time>2023-02-08T15:46:12Z</time>
      </trkpt>
      <trkpt lat="49.77335" lon="2.1659">
        <ele>49.4</ele>
        <time>2023-02-08T15:46:13Z</time>
      </trkpt>
      <trkpt lat="49.77334" lon="2.16591">
        <ele>49.4</ele>
        <time>2023-02-08T15:46:15Z</time>
      </trkpt>
      <trkpt lat="49.77334" lon="2.16592">
        <ele>49.4</ele>
        <time>2023-02-08T15:46:16Z</time>
      </trkpt>
      <trkpt lat="49.77333" lon="2.16592">
        <ele>49.4</ele>
        <time>2023-02-08T15:46:17Z</time>
      </trkpt>
      <trkpt lat="49.77333" lon="2.16591">
        <ele>49.4</ele>
        <time>2023-02-08T15:46:18Z</time>
      </trkpt>
      <trkpt lat="49.77333" lon="2.16591">
        <ele>49.4</ele>
        <time>2023-02-08T15:46:20Z</time>
      </trkpt>
      <trkpt lat="49.77333" lon="2.16591">
        <ele>49.4</ele>
        <time>2023-02-08T15:46:21Z</time>
      </trkpt>
      <trkpt lat="49.77333" lon="2.16591">
        <ele>49.4</ele>
        <time>2023-02-08T15:46:22Z</time>
      </trkpt>
      <trkpt lat="49.77333" lon="2.16592">
        <ele>49.4</ele>
        <time>2023-02-08T15:46:24Z</time>
      </trkpt>
      <trkpt lat="49.77333" lon="2.16592">
        <ele>49.4</ele>
        <time>2023-02-08T15:46:25Z</time>
      </trkpt>
      <trkpt lat="49.77333" lon="2.16592">
        <ele>49.4</ele>
        <time>2023-02-08T15:46:26Z</time>
      </trkpt>
      <trkpt lat="49.77333" lon="2.16592">
        <ele>49.4</ele>
        <time>2023-02-08T15:46:27Z</time>
      </trkpt>
      <trkpt lat="49.77333" lon="2.16592">
        <ele>49.4</ele>
        <time>2023-02-08T15:46:29Z</time>
      </trkpt>
      <trkpt lat="49.77333" lon="2.16592">
        <ele>49.4</ele>
        <time>2023-02-08T15:46:30Z</time>
      </trkpt>
      <trkpt lat="49.77332" lon="2.16592">
        <ele>49.4</ele>
        <time>2023-02-08T15:46:32Z</time>
      </trkpt>
      <trkpt lat="49.77335" lon="2.16591">
        <ele>49.4</ele>
        <time>2023-02-08T15:46:33Z</time>
      </trkpt>
      <trkpt lat="49.77335" lon="2.16591">
        <ele>49.4</ele>
        <time>2023-02-08T15:46:34Z</time>
      </trkpt>
      <trkpt lat="49.77333" lon="2.16591">
        <ele>49.4</ele>
        <time>2023-02-08T15:46:35Z</time>
      </trkpt>
      <trkpt lat="49.77332" lon="2.16591">
        <ele>49.4</ele>
        <time>2023-02-08T15:46:36Z</time>
      </trkpt>
      <trkpt lat="49.77331" lon="2.1659">
        <ele>49.4</ele>
        <time>2023-02-08T15:46:37Z</time>
      </trkpt>
      <trkpt lat="49.77331" lon="2.16589">
        <ele>49.4</ele>
        <time>2023-02-08T15:46:38Z</time>
      </trkpt>
      <trkpt lat="49.7733" lon="2.16589">
        <ele>49.4</ele>
        <time>2023-02-08T15:46:39Z</time>
      </trkpt>
      <trkpt lat="49.77329" lon="2.16589">
        <ele>49.4</ele>
        <time>2023-02-08T15:46:41Z</time>
      </trkpt>
      <trkpt lat="49.77329" lon="2.16589">
        <ele>49.4</ele>
        <time>2023-02-08T15:46:42Z</time>
      </trkpt>
      <trkpt lat="49.77328" lon="2.16589">
        <ele>49.4</ele>
        <time>2023-02-08T15:46:43Z</time>
      </trkpt>
      <trkpt lat="49.77327" lon="2.1659">
        <ele>49.4</ele>
        <time>2023-02-08T15:46:44Z</time>
      </trkpt>
      <trkpt lat="49.77326" lon="2.16591">
        <ele>49.3</ele>
        <time>2023-02-08T15:46:45Z</time>
      </trkpt>
      <trkpt lat="49.77325" lon="2.16592">
        <ele>49.3</ele>
        <time>2023-02-08T15:46:46Z</time>
      </trkpt>
      <trkpt lat="49.77323" lon="2.16596">
        <ele>49.3</ele>
        <time>2023-02-08T15:46:47Z</time>
      </trkpt>
      <trkpt lat="49.77323" lon="2.16597">
        <ele>49.3</ele>
        <time>2023-02-08T15:46:49Z</time>
      </trkpt>
      <trkpt lat="49.77322" lon="2.16598">
        <ele>49.3</ele>
        <time>2023-02-08T15:46:50Z</time>
      </trkpt>
      <trkpt lat="49.77322" lon="2.166">
        <ele>49.3</ele>
        <time>2023-02-08T15:46:51Z</time>
      </trkpt>
      <trkpt lat="49.77322" lon="2.16601">
        <ele>49.3</ele>
        <time>2023-02-08T15:46:52Z</time>
      </trkpt>
      <trkpt lat="49.77321" lon="2.16604">
        <ele>49.3</ele>
        <time>2023-02-08T15:46:54Z</time>
      </trkpt>
      <trkpt lat="49.77321" lon="2.16605">
        <ele>49.3</ele>
        <time>2023-02-08T15:46:55Z</time>
      </trkpt>
      <trkpt lat="49.77321" lon="2.16606">
        <ele>49.3</ele>
        <time>2023-02-08T15:46:56Z</time>
      </trkpt>
      <trkpt lat="49.77319" lon="2.1661">
        <ele>49.3</ele>
        <time>2023-02-08T15:46:57Z</time>
      </trkpt>
      <trkpt lat="49.77319" lon="2.16611">
        <ele>49.3</ele>
        <time>2023-02-08T15:46:58Z</time>
      </trkpt>
      <trkpt lat="49.77318" lon="2.16612">
        <ele>49.3</ele>
        <time>2023-02-08T15:46:59Z</time>
      </trkpt>
      <trkpt lat="49.77317" lon="2.16614">
        <ele>49.3</ele>
        <time>2023-02-08T15:47:01Z</time>
      </trkpt>
      <trkpt lat="49.77317" lon="2.16615">
        <ele>49.3</ele>
        <time>2023-02-08T15:47:02Z</time>
      </trkpt>
      <trkpt lat="49.77315" lon="2.16618">
        <ele>49.3</ele>
        <time>2023-02-08T15:47:03Z</time>
      </trkpt>
      <trkpt lat="49.77315" lon="2.16619">
        <ele>49.3</ele>
        <time>2023-02-08T15:47:04Z</time>
      </trkpt>
      <trkpt lat="49.77314" lon="2.16621">
        <ele>49.3</ele>
        <time>2023-02-08T15:47:05Z</time>
      </trkpt>
      <trkpt lat="49.77314" lon="2.16622">
        <ele>49.3</ele>
        <time>2023-02-08T15:47:07Z</time>
      </trkpt>
      <trkpt lat="49.77313" lon="2.16624">
        <ele>49.3</ele>
        <time>2023-02-08T15:47:08Z</time>
      </trkpt>
      <trkpt lat="49.77312" lon="2.16626">
        <ele>49.3</ele>
        <time>2023-02-08T15:47:09Z</time>
      </trkpt>
      <trkpt lat="49.77311" lon="2.16628">
        <ele>49.3</ele>
        <time>2023-02-08T15:47:10Z</time>
      </trkpt>
      <trkpt lat="49.77311" lon="2.16629">
        <ele>49.3</ele>
        <time>2023-02-08T15:47:11Z</time>
      </trkpt>
      <trkpt lat="49.7731" lon="2.16631">
        <ele>49.3</ele>
        <time>2023-02-08T15:47:12Z</time>
      </trkpt>
      <trkpt lat="49.7731" lon="2.16633">
        <ele>49.3</ele>
        <time>2023-02-08T15:47:14Z</time>
      </trkpt>
      <trkpt lat="49.7731" lon="2.16634">
        <ele>49.4</ele>
        <time>2023-02-08T15:47:15Z</time>
      </trkpt>
      <trkpt lat="49.77309" lon="2.16635">
        <ele>49.4</ele>
        <time>2023-02-08T15:47:16Z</time>
      </trkpt>
      <trkpt lat="49.77309" lon="2.16637">
        <ele>49.4</ele>
        <time>2023-02-08T15:47:17Z</time>
      </trkpt>
      <trkpt lat="49.77308" lon="2.16639">
        <ele>49.4</ele>
        <time>2023-02-08T15:47:18Z</time>
      </trkpt>
      <trkpt lat="49.77307" lon="2.16641">
        <ele>49.4</ele>
        <time>2023-02-08T15:47:19Z</time>
      </trkpt>
      <trkpt lat="49.77307" lon="2.16642">
        <ele>49.4</ele>
        <time>2023-02-08T15:47:20Z</time>
      </trkpt>
      <trkpt lat="49.77306" lon="2.16645">
        <ele>49.4</ele>
        <time>2023-02-08T15:47:22Z</time>
      </trkpt>
      <trkpt lat="49.77305" lon="2.16646">
        <ele>49.4</ele>
        <time>2023-02-08T15:47:23Z</time>
      </trkpt>
      <trkpt lat="49.77305" lon="2.16647">
        <ele>49.4</ele>
        <time>2023-02-08T15:47:24Z</time>
      </trkpt>
      <trkpt lat="49.77304" lon="2.16649">
        <ele>49.4</ele>
        <time>2023-02-08T15:47:25Z</time>
      </trkpt>
      <trkpt lat="49.77303" lon="2.16651">
        <ele>49.4</ele>
        <time>2023-02-08T15:47:26Z</time>
      </trkpt>
      <trkpt lat="49.77302" lon="2.16653">
        <ele>49.4</ele>
        <time>2023-02-08T15:47:27Z</time>
      </trkpt>
      <trkpt lat="49.77301" lon="2.16656">
        <ele>49.4</ele>
        <time>2023-02-08T15:47:28Z</time>
      </trkpt>
      <trkpt lat="49.77301" lon="2.16657">
        <ele>49.4</ele>
        <time>2023-02-08T15:47:29Z</time>
      </trkpt>
      <trkpt lat="49.773" lon="2.16659">
        <ele>49.4</ele>
        <time>2023-02-08T15:47:31Z</time>
      </trkpt>
      <trkpt lat="49.773" lon="2.1666">
        <ele>49.5</ele>
        <time>2023-02-08T15:47:32Z</time>
      </trkpt>
      <trkpt lat="49.77299" lon="2.16662">
        <ele>49.5</ele>
        <time>2023-02-08T15:47:33Z</time>
      </trkpt>
      <trkpt lat="49.77298" lon="2.16664">
        <ele>49.5</ele>
        <time>2023-02-08T15:47:34Z</time>
      </trkpt>
      <trkpt lat="49.77297" lon="2.16665">
        <ele>49.5</ele>
        <time>2023-02-08T15:47:35Z</time>
      </trkpt>
      <trkpt lat="49.77296" lon="2.16667">
        <ele>49.5</ele>
        <time>2023-02-08T15:47:36Z</time>
      </trkpt>
      <trkpt lat="49.77296" lon="2.16669">
        <ele>49.5</ele>
        <time>2023-02-08T15:47:37Z</time>
      </trkpt>
      <trkpt lat="49.77295" lon="2.16671">
        <ele>49.5</ele>
        <time>2023-02-08T15:47:38Z</time>
      </trkpt>
      <trkpt lat="49.77294" lon="2.16672">
        <ele>49.5</ele>
        <time>2023-02-08T15:47:40Z</time>
      </trkpt>
      <trkpt lat="49.77294" lon="2.16673">
        <ele>49.6</ele>
        <time>2023-02-08T15:47:41Z</time>
      </trkpt>
      <trkpt lat="49.77293" lon="2.16675">
        <ele>49.6</ele>
        <time>2023-02-08T15:47:42Z</time>
      </trkpt>
      <trkpt lat="49.77292" lon="2.16676">
        <ele>49.6</ele>
        <time>2023-02-08T15:47:43Z</time>
      </trkpt>
      <trkpt lat="49.77291" lon="2.16679">
        <ele>49.6</ele>
        <time>2023-02-08T15:47:44Z</time>
      </trkpt>
      <trkpt lat="49.77291" lon="2.1668">
        <ele>49.6</ele>
        <time>2023-02-08T15:47:45Z</time>
      </trkpt>
      <trkpt lat="49.7729" lon="2.16681">
        <ele>49.6</ele>
        <time>2023-02-08T15:47:46Z</time>
      </trkpt>
      <trkpt lat="49.7729" lon="2.16683">
        <ele>49.6</ele>
        <time>2023-02-08T15:47:47Z</time>
      </trkpt>
      <trkpt lat="49.77289" lon="2.16684">
        <ele>49.7</ele>
        <time>2023-02-08T15:47:49Z</time>
      </trkpt>
      <trkpt lat="49.77288" lon="2.16686">
        <ele>49.7</ele>
        <time>2023-02-08T15:47:50Z</time>
      </trkpt>
      <trkpt lat="49.77288" lon="2.16687">
        <ele>49.7</ele>
        <time>2023-02-08T15:47:51Z</time>
      </trkpt>
      <trkpt lat="49.77287" lon="2.16689">
        <ele>49.7</ele>
        <time>2023-02-08T15:47:52Z</time>
      </trkpt>
      <trkpt lat="49.77286" lon="2.16691">
        <ele>49.7</ele>
        <time>2023-02-08T15:47:53Z</time>
      </trkpt>
      <trkpt lat="49.77285" lon="2.16693">
        <ele>49.7</ele>
        <time>2023-02-08T15:47:54Z</time>
      </trkpt>
      <trkpt lat="49.77284" lon="2.16695">
        <ele>49.8</ele>
        <time>2023-02-08T15:47:55Z</time>
      </trkpt>
      <trkpt lat="49.77283" lon="2.16696">
        <ele>49.8</ele>
        <time>2023-02-08T15:47:56Z</time>
      </trkpt>
      <trkpt lat="49.77283" lon="2.16697">
        <ele>49.8</ele>
        <time>2023-02-08T15:47:57Z</time>
      </trkpt>
      <trkpt lat="49.77282" lon="2.16699">
        <ele>49.8</ele>
        <time>2023-02-08T15:47:59Z</time>
      </trkpt>
      <trkpt lat="49.77281" lon="2.167">
        <ele>49.8</ele>
        <time>2023-02-08T15:48:00Z</time>
      </trkpt>
      <trkpt lat="49.77281" lon="2.16701">
        <ele>49.8</ele>
        <time>2023-02-08T15:48:01Z</time>
      </trkpt>
      <trkpt lat="49.7728" lon="2.16701">
        <ele>49.8</ele>
        <time>2023-02-08T15:48:02Z</time>
      </trkpt>
      <trkpt lat="49.7728" lon="2.16701">
        <ele>49.8</ele>
        <time>2023-02-08T15:48:03Z</time>
      </trkpt>
      <trkpt lat="49.77279" lon="2.16702">
        <ele>49.8</ele>
        <time>2023-02-08T15:48:04Z</time>
      </trkpt>
      <trkpt lat="49.77279" lon="2.16703">
        <ele>49.8</ele>
        <time>2023-02-08T15:48:05Z</time>
      </trkpt>
      <trkpt lat="49.77278" lon="2.16705">
        <ele>49.9</ele>
        <time>2023-02-08T15:48:07Z</time>
      </trkpt>
      <trkpt lat="49.77278" lon="2.16705">
        <ele>49.9</ele>
        <time>2023-02-08T15:48:08Z</time>
      </trkpt>
      <trkpt lat="49.77277" lon="2.16706">
        <ele>49.9</ele>
        <time>2023-02-08T15:48:09Z</time>
      </trkpt>
      <trkpt lat="49.77277" lon="2.16708">
        <ele>49.9</ele>
        <time>2023-02-08T15:48:10Z</time>
      </trkpt>
      <trkpt lat="49.77276" lon="2.16709">
        <ele>49.9</ele>
        <time>2023-02-08T15:48:11Z</time>
      </trkpt>
      <trkpt lat="49.77275" lon="2.16711">
        <ele>49.9</ele>
        <time>2023-02-08T15:48:12Z</time>
      </trkpt>
      <trkpt lat="49.77275" lon="2.16712">
        <ele>49.9</ele>
        <time>2023-02-08T15:48:13Z</time>
      </trkpt>
      <trkpt lat="49.77275" lon="2.16714">
        <ele>49.9</ele>
        <time>2023-02-08T15:48:14Z</time>
      </trkpt>
      <trkpt lat="49.77275" lon="2.16716">
        <ele>49.9</ele>
        <time>2023-02-08T15:48:15Z</time>
      </trkpt>
      <trkpt lat="49.77275" lon="2.16717">
        <ele>49.9</ele>
        <time>2023-02-08T15:48:17Z</time>
      </trkpt>
      <trkpt lat="49.77275" lon="2.16719">
        <ele>49.9</ele>
        <time>2023-02-08T15:48:18Z</time>
      </trkpt>
      <trkpt lat="49.77275" lon="2.1672">
        <ele>49.9</ele>
        <time>2023-02-08T15:48:19Z</time>
      </trkpt>
      <trkpt lat="49.77275" lon="2.16722">
        <ele>49.9</ele>
        <time>2023-02-08T15:48:20Z</time>
      </trkpt>
      <trkpt lat="49.77275" lon="2.16725">
        <ele>49.9</ele>
        <time>2023-02-08T15:48:21Z</time>
      </trkpt>
      <trkpt lat="49.77274" lon="2.16727">
        <ele>49.9</ele>
        <time>2023-02-08T15:48:22Z</time>
      </trkpt>
      <trkpt lat="49.77274" lon="2.16728">
        <ele>49.9</ele>
        <time>2023-02-08T15:48:23Z</time>
      </trkpt>
      <trkpt lat="49.77274" lon="2.1673">
        <ele>49.9</ele>
        <time>2023-02-08T15:48:24Z</time>
      </trkpt>
      <trkpt lat="49.77274" lon="2.16732">
        <ele>49.9</ele>
        <time>2023-02-08T15:48:26Z</time>
      </trkpt>
      <trkpt lat="49.77274" lon="2.16733">
        <ele>49.9</ele>
        <time>2023-02-08T15:48:27Z</time>
      </trkpt>
      <trkpt lat="49.77274" lon="2.16736">
        <ele>49.9</ele>
        <time>2023-02-08T15:48:28Z</time>
      </trkpt>
      <trkpt lat="49.77274" lon="2.16737">
        <ele>49.9</ele>
        <time>2023-02-08T15:48:29Z</time>
      </trkpt>
      <trkpt lat="49.77274" lon="2.16739">
        <ele>49.9</ele>
        <time>2023-02-08T15:48:30Z</time>
      </trkpt>
      <trkpt lat="49.77273" lon="2.16741">
        <ele>49.9</ele>
        <time>2023-02-08T15:48:31Z</time>
      </trkpt>
      <trkpt lat="49.77273" lon="2.16743">
        <ele>49.9</ele>
        <time>2023-02-08T15:48:32Z</time>
      </trkpt>
      <trkpt lat="49.77273" lon="2.16745">
        <ele>49.9</ele>
        <time>2023-02-08T15:48:34Z</time>
      </trkpt>
      <trkpt lat="49.77273" lon="2.16747">
        <ele>49.9</ele>
        <time>2023-02-08T15:48:35Z</time>
      </trkpt>
      <trkpt lat="49.77272" lon="2.16749">
        <ele>49.9</ele>
        <time>2023-02-08T15:48:36Z</time>
      </trkpt>
      <trkpt lat="49.77272" lon="2.1675">
        <ele>49.9</ele>
        <time>2023-02-08T15:48:37Z</time>
      </trkpt>
      <trkpt lat="49.77271" lon="2.16752">
        <ele>49.9</ele>
        <time>2023-02-08T15:48:38Z</time>
      </trkpt>
      <trkpt lat="49.77271" lon="2.16755">
        <ele>49.9</ele>
        <time>2023-02-08T15:48:39Z</time>
      </trkpt>
      <trkpt lat="49.7727" lon="2.16758">
        <ele>49.9</ele>
        <time>2023-02-08T15:48:40Z</time>
      </trkpt>
      <trkpt lat="49.77269" lon="2.16759">
        <ele>49.9</ele>
        <time>2023-02-08T15:48:42Z</time>
      </trkpt>
      <trkpt lat="49.77269" lon="2.1676">
        <ele>49.9</ele>
        <time>2023-02-08T15:48:43Z</time>
      </trkpt>
      <trkpt lat="49.77268" lon="2.16763">
        <ele>49.9</ele>
        <time>2023-02-08T15:48:44Z</time>
      </trkpt>
      <trkpt lat="49.77268" lon="2.16764">
        <ele>49.9</ele>
        <time>2023-02-08T15:48:45Z</time>
      </trkpt>
      <trkpt lat="49.77268" lon="2.16765">
        <ele>49.9</ele>
        <time>2023-02-08T15:48:46Z</time>
      </trkpt>
      <trkpt lat="49.77267" lon="2.16767">
        <ele>49.9</ele>
        <time>2023-02-08T15:48:47Z</time>
      </trkpt>
      <trkpt lat="49.77266" lon="2.16768">
        <ele>49.9</ele>
        <time>2023-02-08T15:48:48Z</time>
      </trkpt>
      <trkpt lat="49.77265" lon="2.16769">
        <ele>49.9</ele>
        <time>2023-02-08T15:48:49Z</time>
      </trkpt>
      <trkpt lat="49.77264" lon="2.16772">
        <ele>49.9</ele>
        <time>2023-02-08T15:48:51Z</time>
      </trkpt>
      <trkpt lat="49.77263" lon="2.16773">
        <ele>49.9</ele>
        <time>2023-02-08T15:48:52Z</time>
      </trkpt>
      <trkpt lat="49.77263" lon="2.16773">
        <ele>49.8</ele>
        <time>2023-02-08T15:48:53Z</time>
      </trkpt>
      <trkpt lat="49.77261" lon="2.16776">
        <ele>49.8</ele>
        <time>2023-02-08T15:48:54Z</time>
      </trkpt>
      <trkpt lat="49.7726" lon="2.16776">
        <ele>49.8</ele>
        <time>2023-02-08T15:48:55Z</time>
      </trkpt>
      <trkpt lat="49.7726" lon="2.16777">
        <ele>49.8</ele>
        <time>2023-02-08T15:48:56Z</time>
      </trkpt>
      <trkpt lat="49.77259" lon="2.16778">
        <ele>49.8</ele>
        <time>2023-02-08T15:48:58Z</time>
      </trkpt>
      <trkpt lat="49.77258" lon="2.1678">
        <ele>49.8</ele>
        <time>2023-02-08T15:48:59Z</time>
      </trkpt>
      <trkpt lat="49.77257" lon="2.1678">
        <ele>49.8</ele>
        <time>2023-02-08T15:49:00Z</time>
      </trkpt>
      <trkpt lat="49.77256" lon="2.16783">
        <ele>49.8</ele>
        <time>2023-02-08T15:49:01Z</time>
      </trkpt>
      <trkpt lat="49.77256" lon="2.16784">
        <ele>49.8</ele>
        <time>2023-02-08T15:49:02Z</time>
      </trkpt>
      <trkpt lat="49.77255" lon="2.16785">
        <ele>49.8</ele>
        <time>2023-02-08T15:49:03Z</time>
      </trkpt>
      <trkpt lat="49.77253" lon="2.16787">
        <ele>49.8</ele>
        <time>2023-02-08T15:49:04Z</time>
      </trkpt>
      <trkpt lat="49.77253" lon="2.16788">
        <ele>49.8</ele>
        <time>2023-02-08T15:49:05Z</time>
      </trkpt>
      <trkpt lat="49.77252" lon="2.16789">
        <ele>49.8</ele>
        <time>2023-02-08T15:49:06Z</time>
      </trkpt>
      <trkpt lat="49.7725" lon="2.16791">
        <ele>49.8</ele>
        <time>2023-02-08T15:49:07Z</time>
      </trkpt>
      <trkpt lat="49.7725" lon="2.16792">
        <ele>49.8</ele>
        <time>2023-02-08T15:49:09Z</time>
      </trkpt>
      <trkpt lat="49.77249" lon="2.16792">
        <ele>49.8</ele>
        <time>2023-02-08T15:49:10Z</time>
      </trkpt>
      <trkpt lat="49.77248" lon="2.16794">
        <ele>49.8</ele>
        <time>2023-02-08T15:49:11Z</time>
      </trkpt>
      <trkpt lat="49.77247" lon="2.16796">
        <ele>49.8</ele>
        <time>2023-02-08T15:49:12Z</time>
      </trkpt>
      <trkpt lat="49.77246" lon="2.16798">
        <ele>49.8</ele>
        <time>2023-02-08T15:49:13Z</time>
      </trkpt>
      <trkpt lat="49.77245" lon="2.168">
        <ele>49.8</ele>
        <time>2023-02-08T15:49:15Z</time>
      </trkpt>
      <trkpt lat="49.77244" lon="2.16801">
        <ele>49.8</ele>
        <time>2023-02-08T15:49:16Z</time>
      </trkpt>
      <trkpt lat="49.77243" lon="2.16803">
        <ele>49.8</ele>
        <time>2023-02-08T15:49:17Z</time>
      </trkpt>
      <trkpt lat="49.77241" lon="2.16805">
        <ele>49.8</ele>
        <time>2023-02-08T15:49:18Z</time>
      </trkpt>
      <trkpt lat="49.7724" lon="2.16806">
        <ele>49.8</ele>
        <time>2023-02-08T15:49:19Z</time>
      </trkpt>
      <trkpt lat="49.7724" lon="2.16807">
        <ele>49.8</ele>
        <time>2023-02-08T15:49:20Z</time>
      </trkpt>
      <trkpt lat="49.77238" lon="2.16809">
        <ele>49.8</ele>
        <time>2023-02-08T15:49:22Z</time>
      </trkpt>
      <trkpt lat="49.77238" lon="2.1681">
        <ele>49.8</ele>
        <time>2023-02-08T15:49:23Z</time>
      </trkpt>
      <trkpt lat="49.77238" lon="2.16812">
        <ele>49.8</ele>
        <time>2023-02-08T15:49:24Z</time>
      </trkpt>
      <trkpt lat="49.77237" lon="2.16814">
        <ele>49.8</ele>
        <time>2023-02-08T15:49:25Z</time>
      </trkpt>
      <trkpt lat="49.77236" lon="2.16817">
        <ele>49.8</ele>
        <time>2023-02-08T15:49:26Z</time>
      </trkpt>
      <trkpt lat="49.77235" lon="2.16818">
        <ele>49.8</ele>
        <time>2023-02-08T15:49:27Z</time>
      </trkpt>
      <trkpt lat="49.77235" lon="2.16819">
        <ele>49.8</ele>
        <time>2023-02-08T15:49:28Z</time>
      </trkpt>
      <trkpt lat="49.77234" lon="2.1682">
        <ele>49.8</ele>
        <time>2023-02-08T15:49:29Z</time>
      </trkpt>
      <trkpt lat="49.77233" lon="2.16822">
        <ele>49.8</ele>
        <time>2023-02-08T15:49:30Z</time>
      </trkpt>
      <trkpt lat="49.77232" lon="2.16823">
        <ele>49.8</ele>
        <time>2023-02-08T15:49:32Z</time>
      </trkpt>
      <trkpt lat="49.77231" lon="2.16824">
        <ele>49.8</ele>
        <time>2023-02-08T15:49:33Z</time>
      </trkpt>
      <trkpt lat="49.7723" lon="2.16824">
        <ele>49.8</ele>
        <time>2023-02-08T15:49:34Z</time>
      </trkpt>
      <trkpt lat="49.77229" lon="2.16825">
        <ele>49.8</ele>
        <time>2023-02-08T15:49:35Z</time>
      </trkpt>
      <trkpt lat="49.77228" lon="2.16827">
        <ele>49.8</ele>
        <time>2023-02-08T15:49:36Z</time>
      </trkpt>
      <trkpt lat="49.77227" lon="2.16828">
        <ele>49.8</ele>
        <time>2023-02-08T15:49:37Z</time>
      </trkpt>
      <trkpt lat="49.77226" lon="2.16829">
        <ele>49.8</ele>
        <time>2023-02-08T15:49:38Z</time>
      </trkpt>
      <trkpt lat="49.77225" lon="2.1683">
        <ele>49.8</ele>
        <time>2023-02-08T15:49:39Z</time>
      </trkpt>
      <trkpt lat="49.77225" lon="2.16832">
        <ele>49.8</ele>
        <time>2023-02-08T15:49:40Z</time>
      </trkpt>
      <trkpt lat="49.77224" lon="2.16833">
        <ele>49.8</ele>
        <time>2023-02-08T15:49:42Z</time>
      </trkpt>
      <trkpt lat="49.77224" lon="2.16835">
        <ele>49.8</ele>
        <time>2023-02-08T15:49:43Z</time>
      </trkpt>
      <trkpt lat="49.77223" lon="2.16837">
        <ele>49.8</ele>
        <time>2023-02-08T15:49:44Z</time>
      </trkpt>
      <trkpt lat="49.77222" lon="2.16838">
        <ele>49.8</ele>
        <time>2023-02-08T15:49:45Z</time>
      </trkpt>
      <trkpt lat="49.77221" lon="2.16839">
        <ele>49.8</ele>
        <time>2023-02-08T15:49:46Z</time>
      </trkpt>
      <trkpt lat="49.77221" lon="2.1684">
        <ele>49.8</ele>
        <time>2023-02-08T15:49:47Z</time>
      </trkpt>
      <trkpt lat="49.77221" lon="2.16842">
        <ele>49.8</ele>
        <time>2023-02-08T15:49:48Z</time>
      </trkpt>
      <trkpt lat="49.7722" lon="2.16844">
        <ele>49.8</ele>
        <time>2023-02-08T15:49:50Z</time>
      </trkpt>
      <trkpt lat="49.7722" lon="2.16845">
        <ele>49.7</ele>
        <time>2023-02-08T15:49:51Z</time>
      </trkpt>
      <trkpt lat="49.7722" lon="2.16848">
        <ele>49.7</ele>
        <time>2023-02-08T15:49:52Z</time>
      </trkpt>
      <trkpt lat="49.7722" lon="2.1685">
        <ele>49.7</ele>
        <time>2023-02-08T15:49:53Z</time>
      </trkpt>
      <trkpt lat="49.7722" lon="2.16851">
        <ele>49.7</ele>
        <time>2023-02-08T15:49:54Z</time>
      </trkpt>
      <trkpt lat="49.77221" lon="2.16854">
        <ele>49.7</ele>
        <time>2023-02-08T15:49:55Z</time>
      </trkpt>
      <trkpt lat="49.77221" lon="2.16856">
        <ele>49.7</ele>
        <time>2023-02-08T15:49:56Z</time>
      </trkpt>
      <trkpt lat="49.77221" lon="2.16858">
        <ele>49.7</ele>
        <time>2023-02-08T15:49:58Z</time>
      </trkpt>
      <trkpt lat="49.77221" lon="2.16859">
        <ele>49.7</ele>
        <time>2023-02-08T15:49:59Z</time>
      </trkpt>
      <trkpt lat="49.77221" lon="2.16861">
        <ele>49.7</ele>
        <time>2023-02-08T15:50:00Z</time>
      </trkpt>
      <trkpt lat="49.77222" lon="2.16862">
        <ele>49.7</ele>
        <time>2023-02-08T15:50:01Z</time>
      </trkpt>
      <trkpt lat="49.77222" lon="2.16864">
        <ele>49.7</ele>
        <time>2023-02-08T15:50:02Z</time>
      </trkpt>
      <trkpt lat="49.77222" lon="2.16866">
        <ele>49.7</ele>
        <time>2023-02-08T15:50:03Z</time>
      </trkpt>
      <trkpt lat="49.77223" lon="2.16868">
        <ele>49.7</ele>
        <time>2023-02-08T15:50:04Z</time>
      </trkpt>
      <trkpt lat="49.77223" lon="2.1687">
        <ele>49.7</ele>
        <time>2023-02-08T15:50:05Z</time>
      </trkpt>
      <trkpt lat="49.77224" lon="2.16872">
        <ele>49.7</ele>
        <time>2023-02-08T15:50:07Z</time>
      </trkpt>
      <trkpt lat="49.77225" lon="2.16875">
        <ele>49.7</ele>
        <time>2023-02-08T15:50:08Z</time>
      </trkpt>
      <trkpt lat="49.77225" lon="2.16876">
        <ele>49.7</ele>
        <time>2023-02-08T15:50:09Z</time>
      </trkpt>
      <trkpt lat="49.77225" lon="2.16877">
        <ele>49.7</ele>
        <time>2023-02-08T15:50:10Z</time>
      </trkpt>
      <trkpt lat="49.77225" lon="2.16879">
        <ele>49.7</ele>
        <time>2023-02-08T15:50:11Z</time>
      </trkpt>
      <trkpt lat="49.77226" lon="2.1688">
        <ele>49.7</ele>
        <time>2023-02-08T15:50:12Z</time>
      </trkpt>
      <trkpt lat="49.77226" lon="2.16882">
        <ele>49.7</ele>
        <time>2023-02-08T15:50:13Z</time>
      </trkpt>
      <trkpt lat="49.77226" lon="2.16884">
        <ele>49.7</ele>
        <time>2023-02-08T15:50:15Z</time>
      </trkpt>
      <trkpt lat="49.77226" lon="2.16885">
        <ele>49.7</ele>
        <time>2023-02-08T15:50:16Z</time>
      </trkpt>
      <trkpt lat="49.77226" lon="2.16887">
        <ele>49.7</ele>
        <time>2023-02-08T15:50:17Z</time>
      </trkpt>
      <trkpt lat="49.77226" lon="2.16889">
        <ele>49.7</ele>
        <time>2023-02-08T15:50:18Z</time>
      </trkpt>
      <trkpt lat="49.77226" lon="2.1689">
        <ele>49.7</ele>
        <time>2023-02-08T15:50:19Z</time>
      </trkpt>
      <trkpt lat="49.77226" lon="2.16892">
        <ele>49.7</ele>
        <time>2023-02-08T15:50:20Z</time>
      </trkpt>
      <trkpt lat="49.77226" lon="2.16894">
        <ele>49.7</ele>
        <time>2023-02-08T15:50:22Z</time>
      </trkpt>
      <trkpt lat="49.77226" lon="2.16895">
        <ele>49.7</ele>
        <time>2023-02-08T15:50:23Z</time>
      </trkpt>
      <trkpt lat="49.77225" lon="2.16897">
        <ele>49.7</ele>
        <time>2023-02-08T15:50:24Z</time>
      </trkpt>
      <trkpt lat="49.77225" lon="2.16898">
        <ele>49.7</ele>
        <time>2023-02-08T15:50:25Z</time>
      </trkpt>
      <trkpt lat="49.77225" lon="2.169">
        <ele>49.7</ele>
        <time>2023-02-08T15:50:26Z</time>
      </trkpt>
      <trkpt lat="49.77225" lon="2.16901">
        <ele>49.7</ele>
        <time>2023-02-08T15:50:27Z</time>
      </trkpt>
      <trkpt lat="49.77225" lon="2.16902">
        <ele>49.7</ele>
        <time>2023-02-08T15:50:29Z</time>
      </trkpt>
      <trkpt lat="49.77225" lon="2.16903">
        <ele>49.7</ele>
        <time>2023-02-08T15:50:30Z</time>
      </trkpt>
      <trkpt lat="49.77225" lon="2.16905">
        <ele>49.7</ele>
        <time>2023-02-08T15:50:31Z</time>
      </trkpt>
      <trkpt lat="49.77225" lon="2.16906">
        <ele>49.7</ele>
        <time>2023-02-08T15:50:32Z</time>
      </trkpt>
      <trkpt lat="49.77223" lon="2.16907">
        <ele>49.7</ele>
        <time>2023-02-08T15:50:33Z</time>
      </trkpt>
      <trkpt lat="49.77221" lon="2.16906">
        <ele>49.7</ele>
        <time>2023-02-08T15:50:35Z</time>
      </trkpt>
      <trkpt lat="49.7722" lon="2.16906">
        <ele>49.7</ele>
        <time>2023-02-08T15:50:36Z</time>
      </trkpt>
      <trkpt lat="49.77219" lon="2.16906">
        <ele>49.7</ele>
        <time>2023-02-08T15:50:37Z</time>
      </trkpt>
      <trkpt lat="49.77217" lon="2.16907">
        <ele>49.7</ele>
        <time>2023-02-08T15:50:39Z</time>
      </trkpt>
      <trkpt lat="49.77216" lon="2.16907">
        <ele>49.7</ele>
        <time>2023-02-08T15:50:40Z</time>
      </trkpt>
      <trkpt lat="49.77215" lon="2.16908">
        <ele>49.7</ele>
        <time>2023-02-08T15:50:41Z</time>
      </trkpt>
      <trkpt lat="49.77214" lon="2.16908">
        <ele>49.7</ele>
        <time>2023-02-08T15:50:42Z</time>
      </trkpt>
      <trkpt lat="49.77213" lon="2.16909">
        <ele>49.7</ele>
        <time>2023-02-08T15:50:43Z</time>
      </trkpt>
      <trkpt lat="49.77212" lon="2.1691">
        <ele>49.7</ele>
        <time>2023-02-08T15:50:44Z</time>
      </trkpt>
      <trkpt lat="49.77212" lon="2.16911">
        <ele>49.7</ele>
        <time>2023-02-08T15:50:46Z</time>
      </trkpt>
      <trkpt lat="49.77211" lon="2.16912">
        <ele>49.7</ele>
        <time>2023-02-08T15:50:47Z</time>
      </trkpt>
      <trkpt lat="49.77209" lon="2.16913">
        <ele>49.7</ele>
        <time>2023-02-08T15:50:48Z</time>
      </trkpt>
      <trkpt lat="49.77209" lon="2.16913">
        <ele>49.7</ele>
        <time>2023-02-08T15:50:50Z</time>
      </trkpt>
      <trkpt lat="49.77208" lon="2.16913">
        <ele>49.7</ele>
        <time>2023-02-08T15:50:51Z</time>
      </trkpt>
      <trkpt lat="49.77207" lon="2.16913">
        <ele>49.7</ele>
        <time>2023-02-08T15:50:52Z</time>
      </trkpt>
      <trkpt lat="49.77207" lon="2.16914">
        <ele>49.7</ele>
        <time>2023-02-08T15:50:53Z</time>
      </trkpt>
      <trkpt lat="49.77206" lon="2.16914">
        <ele>49.7</ele>
        <time>2023-02-08T15:50:55Z</time>
      </trkpt>
      <trkpt lat="49.77205" lon="2.16916">
        <ele>49.7</ele>
        <time>2023-02-08T15:50:56Z</time>
      </trkpt>
      <trkpt lat="49.77205" lon="2.16916">
        <ele>49.7</ele>
        <time>2023-02-08T15:50:58Z</time>
      </trkpt>
      <trkpt lat="49.77205" lon="2.16916">
        <ele>49.7</ele>
        <time>2023-02-08T15:50:59Z</time>
      </trkpt>
      <trkpt lat="49.77205" lon="2.16916">
        <ele>49.7</ele>
        <time>2023-02-08T15:51:01Z</time>
      </trkpt>
      <trkpt lat="49.77205" lon="2.16915">
        <ele>49.7</ele>
        <time>2023-02-08T15:51:02Z</time>
      </trkpt>
      <trkpt lat="49.77205" lon="2.16915">
        <ele>49.7</ele>
        <time>2023-02-08T15:51:03Z</time>
      </trkpt>
      <trkpt lat="49.77206" lon="2.16914">
        <ele>49.7</ele>
        <time>2023-02-08T15:51:04Z</time>
      </trkpt>
      <trkpt lat="49.77206" lon="2.16914">
        <ele>49.7</ele>
        <time>2023-02-08T15:51:06Z</time>
      </trkpt>
      <trkpt lat="49.77206" lon="2.16914">
        <ele>49.7</ele>
        <time>2023-02-08T15:51:07Z</time>
      </trkpt>
      <trkpt lat="49.77206" lon="2.16913">
        <ele>49.7</ele>
        <time>2023-02-08T15:51:08Z</time>
      </trkpt>
      <trkpt lat="49.77206" lon="2.16912">
        <ele>49.7</ele>
        <time>2023-02-08T15:51:10Z</time>
      </trkpt>
      <trkpt lat="49.77207" lon="2.16911">
        <ele>49.7</ele>
        <time>2023-02-08T15:51:11Z</time>
      </trkpt>
      <trkpt lat="49.77208" lon="2.1691">
        <ele>49.7</ele>
        <time>2023-02-08T15:51:13Z</time>
      </trkpt>
      <trkpt lat="49.77208" lon="2.1691">
        <ele>49.7</ele>
        <time>2023-02-08T15:51:14Z</time>
      </trkpt>
      <trkpt lat="49.77209" lon="2.1691">
        <ele>49.7</ele>
        <time>2023-02-08T15:51:16Z</time>
      </trkpt>
      <trkpt lat="49.77209" lon="2.1691">
        <ele>49.7</ele>
        <time>2023-02-08T15:51:17Z</time>
      </trkpt>
      <trkpt lat="49.77209" lon="2.1691">
        <ele>49.7</ele>
        <time>2023-02-08T15:51:18Z</time>
      </trkpt>
      <trkpt lat="49.77209" lon="2.1691">
        <ele>49.7</ele>
        <time>2023-02-08T15:51:19Z</time>
      </trkpt>
      <trkpt lat="49.7721" lon="2.1691">
        <ele>49.7</ele>
        <time>2023-02-08T15:51:21Z</time>
      </trkpt>
      <trkpt lat="49.7721" lon="2.1691">
        <ele>49.7</ele>
        <time>2023-02-08T15:51:23Z</time>
      </trkpt>
      <trkpt lat="49.7721" lon="2.1691">
        <ele>49.7</ele>
        <time>2023-02-08T15:51:24Z</time>
      </trkpt>
      <trkpt lat="49.7721" lon="2.1691">
        <ele>49.7</ele>
        <time>2023-02-08T15:51:26Z</time>
      </trkpt>
      <trkpt lat="49.7721" lon="2.1691">
        <ele>49.7</ele>
        <time>2023-02-08T15:51:28Z</time>
      </trkpt>
      <trkpt lat="49.7721" lon="2.1691">
        <ele>49.7</ele>
        <time>2023-02-08T15:51:29Z</time>
      </trkpt>
      <trkpt lat="49.7721" lon="2.1691">
        <ele>49.7</ele>
        <time>2023-02-08T15:51:30Z</time>
      </trkpt>
      <trkpt lat="49.7721" lon="2.1691">
        <ele>49.7</ele>
        <time>2023-02-08T15:51:31Z</time>
      </trkpt>
      <trkpt lat="49.7721" lon="2.1691">
        <ele>49.7</ele>
        <time>2023-02-08T15:51:32Z</time>
      </trkpt>
      <trkpt lat="49.7721" lon="2.1691">
        <ele>49.7</ele>
        <time>2023-02-08T15:51:33Z</time>
      </trkpt>
      <trkpt lat="49.7721" lon="2.1691">
        <ele>49.7</ele>
        <time>2023-02-08T15:51:34Z</time>
      </trkpt>
      <trkpt lat="49.7721" lon="2.1691">
        <ele>49.7</ele>
        <time>2023-02-08T15:51:35Z</time>
      </trkpt>
      <trkpt lat="49.7721" lon="2.1691">
        <ele>49.7</ele>
        <time>2023-02-08T15:51:36Z</time>
      </trkpt>
      <trkpt lat="49.7721" lon="2.1691">
        <ele>49.7</ele>
        <time>2023-02-08T15:51:37Z</time>
      </trkpt>
      <trkpt lat="49.7721" lon="2.1691">
        <ele>49.7</ele>
        <time>2023-02-08T15:51:38Z</time>
      </trkpt>
      <trkpt lat="49.7721" lon="2.1691">
        <ele>49.7</ele>
        <time>2023-02-08T15:51:39Z</time>
      </trkpt>
      <trkpt lat="49.7721" lon="2.1691">
        <ele>49.7</ele>
        <time>2023-02-08T15:51:40Z</time>
      </trkpt>
      <trkpt lat="49.7721" lon="2.1691">
        <ele>49.7</ele>
        <time>2023-02-08T15:51:41Z</time>
      </trkpt>
      <trkpt lat="49.7721" lon="2.1691">
        <ele>49.7</ele>
        <time>2023-02-08T15:51:42Z</time>
      </trkpt>
      <trkpt lat="49.7721" lon="2.1691">
        <ele>49.7</ele>
        <time>2023-02-08T15:51:43Z</time>
      </trkpt>
      <trkpt lat="49.7721" lon="2.1691">
        <ele>49.7</ele>
        <time>2023-02-08T15:51:44Z</time>
      </trkpt>
      <trkpt lat="49.7721" lon="2.1691">
        <ele>49.7</ele>
        <time>2023-02-08T15:51:45Z</time>
      </trkpt>
      <trkpt lat="49.7721" lon="2.1691">
        <ele>49.7</ele>
        <time>2023-02-08T15:51:46Z</time>
      </trkpt>
      <trkpt lat="49.7721" lon="2.1691">
        <ele>49.7</ele>
        <time>2023-02-08T15:51:47Z</time>
      </trkpt>
      <trkpt lat="49.7721" lon="2.1691">
        <ele>49.7</ele>
        <time>2023-02-08T15:51:48Z</time>
      </trkpt>
      <trkpt lat="49.7721" lon="2.1691">
        <ele>49.7</ele>
        <time>2023-02-08T15:51:49Z</time>
      </trkpt>
      <trkpt lat="49.7721" lon="2.1691">
        <ele>49.7</ele>
        <time>2023-02-08T15:51:50Z</time>
      </trkpt>
      <trkpt lat="49.7721" lon="2.1691">
        <ele>49.7</ele>
        <time>2023-02-08T15:51:51Z</time>
      </trkpt>
      <trkpt lat="49.7721" lon="2.1691">
        <ele>49.7</ele>
        <time>2023-02-08T15:51:52Z</time>
      </trkpt>
      <trkpt lat="49.7721" lon="2.1691">
        <ele>49.7</ele>
        <time>2023-02-08T15:51:53Z</time>
      </trkpt>
      <trkpt lat="49.7721" lon="2.1691">
        <ele>49.7</ele>
        <time>2023-02-08T15:51:54Z</time>
      </trkpt>
      <trkpt lat="49.7721" lon="2.1691">
        <ele>49.7</ele>
        <time>2023-02-08T15:51:55Z</time>
      </trkpt>
      <trkpt lat="49.7721" lon="2.1691">
        <ele>49.7</ele>
        <time>2023-02-08T15:51:56Z</time>
      </trkpt>
      <trkpt lat="49.7721" lon="2.1691">
        <ele>49.7</ele>
        <time>2023-02-08T15:51:57Z</time>
      </trkpt>
      <trkpt lat="49.7721" lon="2.1691">
        <ele>49.7</ele>
        <time>2023-02-08T15:51:58Z</time>
      </trkpt>
      <trkpt lat="49.7721" lon="2.1691">
        <ele>49.7</ele>
        <time>2023-02-08T15:51:59Z</time>
      </trkpt>
      <trkpt lat="49.7721" lon="2.1691">
        <ele>49.7</ele>
        <time>2023-02-08T15:52:00Z</time>
      </trkpt>
      <trkpt lat="49.7721" lon="2.1691">
        <ele>49.7</ele>
        <time>2023-02-08T15:52:01Z</time>
      </trkpt>
      <trkpt lat="49.7721" lon="2.1691">
        <ele>49.7</ele>
        <time>2023-02-08T15:52:02Z</time>
      </trkpt>
      <trkpt lat="49.7721" lon="2.1691">
        <ele>49.7</ele>
        <time>2023-02-08T15:52:03Z</time>
      </trkpt>
      <trkpt lat="49.7721" lon="2.1691">
        <ele>49.7</ele>
        <time>2023-02-08T15:52:04Z</time>
      </trkpt>
      <trkpt lat="49.7721" lon="2.1691">
        <ele>49.7</ele>
        <time>2023-02-08T15:52:05Z</time>
      </trkpt>
      <trkpt lat="49.7721" lon="2.1691">
        <ele>49.7</ele>
        <time>2023-02-08T15:52:06Z</time>
      </trkpt>
      <trkpt lat="49.7721" lon="2.1691">
        <ele>49.7</ele>
        <time>2023-02-08T15:52:07Z</time>
      </trkpt>
      <trkpt lat="49.7721" lon="2.1691">
        <ele>49.7</ele>
        <time>2023-02-08T15:52:08Z</time>
      </trkpt>
      <trkpt lat="49.7721" lon="2.1691">
        <ele>49.7</ele>
        <time>2023-02-08T15:52:09Z</time>
      </trkpt>
      <trkpt lat="49.7721" lon="2.1691">
        <ele>49.7</ele>
        <time>2023-02-08T15:52:10Z</time>
      </trkpt>
      <trkpt lat="49.7721" lon="2.1691">
        <ele>49.7</ele>
        <time>2023-02-08T15:52:11Z</time>
      </trkpt>
      <trkpt lat="49.7721" lon="2.1691">
        <ele>49.7</ele>
        <time>2023-02-08T15:52:12Z</time>
      </trkpt>
      <trkpt lat="49.7721" lon="2.1691">
        <ele>49.7</ele>
        <time>2023-02-08T15:52:13Z</time>
      </trkpt>
      <trkpt lat="49.7721" lon="2.1691">
        <ele>49.7</ele>
        <time>2023-02-08T15:52:14Z</time>
      </trkpt>
      <trkpt lat="49.7721" lon="2.1691">
        <ele>49.7</ele>
        <time>2023-02-08T15:52:15Z</time>
      </trkpt>
      <trkpt lat="49.7721" lon="2.1691">
        <ele>49.7</ele>
        <time>2023-02-08T15:52:16Z</time>
      </trkpt>
      <trkpt lat="49.7721" lon="2.1691">
        <ele>49.7</ele>
        <time>2023-02-08T15:52:17Z</time>
      </trkpt>
      <trkpt lat="49.7721" lon="2.1691">
        <ele>49.7</ele>
        <time>2023-02-08T15:52:18Z</time>
      </trkpt>
      <trkpt lat="49.77211" lon="2.16909">
        <ele>49.7</ele>
        <time>2023-02-08T15:52:19Z</time>
      </trkpt>
      <trkpt lat="49.77211" lon="2.16909">
        <ele>49.7</ele>
        <time>2023-02-08T15:52:20Z</time>
      </trkpt>
      <trkpt lat="49.77211" lon="2.16908">
        <ele>49.7</ele>
        <time>2023-02-08T15:52:21Z</time>
      </trkpt>
      <trkpt lat="49.7721" lon="2.16908">
        <ele>49.7</ele>
        <time>2023-02-08T15:52:22Z</time>
      </trkpt>
      <trkpt lat="49.7721" lon="2.16907">
        <ele>49.7</ele>
        <time>2023-02-08T15:52:23Z</time>
      </trkpt>
      <trkpt lat="49.7721" lon="2.16907">
        <ele>49.7</ele>
        <time>2023-02-08T15:52:24Z</time>
      </trkpt>
      <trkpt lat="49.77209" lon="2.16907">
        <ele>49.7</ele>
        <time>2023-02-08T15:52:26Z</time>
      </trkpt>
      <trkpt lat="49.77209" lon="2.16907">
        <ele>49.7</ele>
        <time>2023-02-08T15:52:28Z</time>
      </trkpt>
      <trkpt lat="49.77209" lon="2.16907">
        <ele>49.7</ele>
        <time>2023-02-08T15:52:29Z</time>
      </trkpt>
      <trkpt lat="49.77209" lon="2.16907">
        <ele>49.7</ele>
        <time>2023-02-08T15:52:30Z</time>
      </trkpt>
      <trkpt lat="49.77209" lon="2.16907">
        <ele>49.7</ele>
        <time>2023-02-08T15:52:31Z</time>
      </trkpt>
      <trkpt lat="49.77208" lon="2.16906">
        <ele>49.7</ele>
        <time>2023-02-08T15:52:32Z</time>
      </trkpt>
      <trkpt lat="49.77209" lon="2.16906">
        <ele>49.7</ele>
        <time>2023-02-08T15:52:34Z</time>
      </trkpt>
      <trkpt lat="49.77209" lon="2.16907">
        <ele>49.7</ele>
        <time>2023-02-08T15:52:35Z</time>
      </trkpt>
      <trkpt lat="49.77209" lon="2.16907">
        <ele>49.7</ele>
        <time>2023-02-08T15:52:37Z</time>
      </trkpt>
      <trkpt lat="49.77209" lon="2.16907">
        <ele>49.7</ele>
        <time>2023-02-08T15:52:38Z</time>
      </trkpt>
      <trkpt lat="49.77209" lon="2.16907">
        <ele>49.7</ele>
        <time>2023-02-08T15:52:40Z</time>
      </trkpt>
      <trkpt lat="49.77209" lon="2.16907">
        <ele>49.7</ele>
        <time>2023-02-08T15:52:41Z</time>
      </trkpt>
      <trkpt lat="49.77209" lon="2.16907">
        <ele>49.7</ele>
        <time>2023-02-08T15:52:42Z</time>
      </trkpt>
      <trkpt lat="49.77209" lon="2.16907">
        <ele>49.7</ele>
        <time>2023-02-08T15:52:43Z</time>
      </trkpt>
      <trkpt lat="49.77209" lon="2.16907">
        <ele>49.7</ele>
        <time>2023-02-08T15:52:44Z</time>
      </trkpt>
      <trkpt lat="49.77209" lon="2.16907">
        <ele>49.7</ele>
        <time>2023-02-08T15:52:45Z</time>
      </trkpt>
      <trkpt lat="49.7721" lon="2.16907">
        <ele>49.7</ele>
        <time>2023-02-08T15:52:46Z</time>
      </trkpt>
      <trkpt lat="49.7721" lon="2.16907">
        <ele>49.7</ele>
        <time>2023-02-08T15:52:47Z</time>
      </trkpt>
      <trkpt lat="49.7721" lon="2.16907">
        <ele>49.7</ele>
        <time>2023-02-08T15:52:48Z</time>
      </trkpt>
      <trkpt lat="49.7721" lon="2.16907">
        <ele>49.7</ele>
        <time>2023-02-08T15:52:49Z</time>
      </trkpt>
      <trkpt lat="49.7721" lon="2.16908">
        <ele>49.7</ele>
        <time>2023-02-08T15:52:50Z</time>
      </trkpt>
      <trkpt lat="49.7721" lon="2.16908">
        <ele>49.7</ele>
        <time>2023-02-08T15:52:51Z</time>
      </trkpt>
      <trkpt lat="49.7721" lon="2.16908">
        <ele>49.7</ele>
        <time>2023-02-08T15:52:52Z</time>
      </trkpt>
      <trkpt lat="49.7721" lon="2.16908">
        <ele>49.7</ele>
        <time>2023-02-08T15:52:53Z</time>
      </trkpt>
      <trkpt lat="49.7721" lon="2.16908">
        <ele>49.7</ele>
        <time>2023-02-08T15:52:54Z</time>
      </trkpt>
      <trkpt lat="49.7721" lon="2.16908">
        <ele>49.7</ele>
        <time>2023-02-08T15:52:55Z</time>
      </trkpt>
      <trkpt lat="49.77211" lon="2.16908">
        <ele>49.7</ele>
        <time>2023-02-08T15:52:56Z</time>
      </trkpt>
      <trkpt lat="49.77211" lon="2.16908">
        <ele>49.7</ele>
        <time>2023-02-08T15:52:57Z</time>
      </trkpt>
      <trkpt lat="49.77211" lon="2.16908">
        <ele>49.7</ele>
        <time>2023-02-08T15:52:58Z</time>
      </trkpt>
      <trkpt lat="49.77211" lon="2.16908">
        <ele>49.7</ele>
        <time>2023-02-08T15:52:59Z</time>
      </trkpt>
      <trkpt lat="49.77211" lon="2.16908">
        <ele>49.7</ele>
        <time>2023-02-08T15:53:00Z</time>
      </trkpt>
      <trkpt lat="49.77211" lon="2.16908">
        <ele>49.7</ele>
        <time>2023-02-08T15:53:01Z</time>
      </trkpt>
      <trkpt lat="49.77211" lon="2.16908">
        <ele>49.7</ele>
        <time>2023-02-08T15:53:02Z</time>
      </trkpt>
      <trkpt lat="49.77211" lon="2.16908">
        <ele>49.7</ele>
        <time>2023-02-08T15:53:03Z</time>
      </trkpt>
      <trkpt lat="49.77211" lon="2.16909">
        <ele>49.7</ele>
        <time>2023-02-08T15:53:04Z</time>
      </trkpt>
      <trkpt lat="49.77212" lon="2.16909">
        <ele>49.7</ele>
        <time>2023-02-08T15:53:05Z</time>
      </trkpt>
      <trkpt lat="49.77212" lon="2.16909">
        <ele>49.7</ele>
        <time>2023-02-08T15:53:06Z</time>
      </trkpt>
      <trkpt lat="49.77212" lon="2.16909">
        <ele>49.7</ele>
        <time>2023-02-08T15:53:07Z</time>
      </trkpt>
      <trkpt lat="49.77212" lon="2.16909">
        <ele>49.7</ele>
        <time>2023-02-08T15:53:08Z</time>
      </trkpt>
      <trkpt lat="49.77212" lon="2.16909">
        <ele>49.7</ele>
        <time>2023-02-08T15:53:09Z</time>
      </trkpt>
      <trkpt lat="49.77212" lon="2.16909">
        <ele>49.7</ele>
        <time>2023-02-08T15:53:10Z</time>
      </trkpt>
      <trkpt lat="49.77212" lon="2.16909">
        <ele>49.7</ele>
        <time>2023-02-08T15:53:11Z</time>
      </trkpt>
      <trkpt lat="49.77212" lon="2.16909">
        <ele>49.7</ele>
        <time>2023-02-08T15:53:12Z</time>
      </trkpt>
      <trkpt lat="49.77212" lon="2.16909">
        <ele>49.7</ele>
        <time>2023-02-08T15:53:13Z</time>
      </trkpt>
      <trkpt lat="49.77212" lon="2.16909">
        <ele>49.7</ele>
        <time>2023-02-08T15:53:14Z</time>
      </trkpt>
      <trkpt lat="49.77213" lon="2.16909">
        <ele>49.7</ele>
        <time>2023-02-08T15:53:15Z</time>
      </trkpt>
      <trkpt lat="49.77219" lon="2.16915">
        <ele>49.6</ele>
        <time>2023-02-08T15:53:16Z</time>
      </trkpt>
      <trkpt lat="49.77222" lon="2.16917">
        <ele>49.6</ele>
        <time>2023-02-08T15:53:17Z</time>
      </trkpt>
      <trkpt lat="49.77222" lon="2.16918">
        <ele>49.6</ele>
        <time>2023-02-08T15:53:18Z</time>
      </trkpt>
      <trkpt lat="49.77223" lon="2.16918">
        <ele>49.6</ele>
        <time>2023-02-08T15:53:19Z</time>
      </trkpt>
      <trkpt lat="49.77223" lon="2.16918">
        <ele>49.6</ele>
        <time>2023-02-08T15:53:20Z</time>
      </trkpt>
      <trkpt lat="49.77223" lon="2.16918">
        <ele>49.6</ele>
        <time>2023-02-08T15:53:21Z</time>
      </trkpt>
      <trkpt lat="49.77223" lon="2.16919">
        <ele>49.6</ele>
        <time>2023-02-08T15:53:22Z</time>
      </trkpt>
      <trkpt lat="49.77223" lon="2.16919">
        <ele>49.6</ele>
        <time>2023-02-08T15:53:23Z</time>
      </trkpt>
      <trkpt lat="49.77223" lon="2.16919">
        <ele>49.6</ele>
        <time>2023-02-08T15:53:24Z</time>
      </trkpt>
      <trkpt lat="49.77223" lon="2.16919">
        <ele>49.6</ele>
        <time>2023-02-08T15:53:25Z</time>
      </trkpt>
      <trkpt lat="49.77223" lon="2.16918">
        <ele>49.6</ele>
        <time>2023-02-08T15:53:26Z</time>
      </trkpt>
      <trkpt lat="49.77223" lon="2.16918">
        <ele>49.6</ele>
        <time>2023-02-08T15:53:27Z</time>
      </trkpt>
      <trkpt lat="49.77223" lon="2.16922">
        <ele>49.6</ele>
        <time>2023-02-08T15:53:28Z</time>
      </trkpt>
      <trkpt lat="49.77223" lon="2.16925">
        <ele>49.6</ele>
        <time>2023-02-08T15:53:29Z</time>
      </trkpt>
      <trkpt lat="49.77223" lon="2.16926">
        <ele>49.6</ele>
        <time>2023-02-08T15:53:30Z</time>
      </trkpt>
      <trkpt lat="49.77223" lon="2.16927">
        <ele>49.6</ele>
        <time>2023-02-08T15:53:31Z</time>
      </trkpt>
      <trkpt lat="49.77223" lon="2.16927">
        <ele>49.6</ele>
        <time>2023-02-08T15:53:32Z</time>
      </trkpt>
      <trkpt lat="49.77223" lon="2.16926">
        <ele>49.6</ele>
        <time>2023-02-08T15:53:33Z</time>
      </trkpt>
      <trkpt lat="49.77223" lon="2.16926">
        <ele>49.6</ele>
        <time>2023-02-08T15:53:34Z</time>
      </trkpt>
      <trkpt lat="49.77223" lon="2.16926">
        <ele>49.6</ele>
        <time>2023-02-08T15:53:35Z</time>
      </trkpt>
      <trkpt lat="49.77223" lon="2.16926">
        <ele>49.6</ele>
        <time>2023-02-08T15:53:37Z</time>
      </trkpt>
      <trkpt lat="49.77223" lon="2.16925">
        <ele>49.6</ele>
        <time>2023-02-08T15:53:38Z</time>
      </trkpt>
      <trkpt lat="49.77223" lon="2.16925">
        <ele>49.6</ele>
        <time>2023-02-08T15:53:39Z</time>
      </trkpt>
      <trkpt lat="49.77223" lon="2.16925">
        <ele>49.6</ele>
        <time>2023-02-08T15:53:41Z</time>
      </trkpt>
      <trkpt lat="49.77223" lon="2.16925">
        <ele>49.6</ele>
        <time>2023-02-08T15:53:42Z</time>
      </trkpt>
      <trkpt lat="49.77223" lon="2.16925">
        <ele>49.6</ele>
        <time>2023-02-08T15:53:44Z</time>
      </trkpt>
      <trkpt lat="49.77223" lon="2.16924">
        <ele>49.6</ele>
        <time>2023-02-08T15:53:45Z</time>
      </trkpt>
      <trkpt lat="49.77222" lon="2.16924">
        <ele>49.6</ele>
        <time>2023-02-08T15:53:46Z</time>
      </trkpt>
      <trkpt lat="49.77222" lon="2.16924">
        <ele>49.6</ele>
        <time>2023-02-08T15:53:48Z</time>
      </trkpt>
      <trkpt lat="49.77222" lon="2.16924">
        <ele>49.6</ele>
        <time>2023-02-08T15:53:49Z</time>
      </trkpt>
      <trkpt lat="49.77222" lon="2.16924">
        <ele>49.6</ele>
        <time>2023-02-08T15:53:50Z</time>
      </trkpt>
      <trkpt lat="49.77222" lon="2.16923">
        <ele>49.6</ele>
        <time>2023-02-08T15:53:52Z</time>
      </trkpt>
      <trkpt lat="49.77222" lon="2.16923">
        <ele>49.6</ele>
        <time>2023-02-08T15:53:53Z</time>
      </trkpt>
      <trkpt lat="49.77222" lon="2.16923">
        <ele>49.6</ele>
        <time>2023-02-08T15:53:54Z</time>
      </trkpt>
      <trkpt lat="49.77222" lon="2.16923">
        <ele>49.6</ele>
        <time>2023-02-08T15:53:55Z</time>
      </trkpt>
      <trkpt lat="49.77222" lon="2.16923">
        <ele>49.6</ele>
        <time>2023-02-08T15:53:56Z</time>
      </trkpt>
      <trkpt lat="49.77222" lon="2.16922">
        <ele>49.6</ele>
        <time>2023-02-08T15:53:57Z</time>
      </trkpt>
      <trkpt lat="49.77222" lon="2.16922">
        <ele>49.6</ele>
        <time>2023-02-08T15:53:58Z</time>
      </trkpt>
      <trkpt lat="49.77222" lon="2.16922">
        <ele>49.6</ele>
        <time>2023-02-08T15:53:59Z</time>
      </trkpt>
      <trkpt lat="49.77222" lon="2.16922">
        <ele>49.6</ele>
        <time>2023-02-08T15:54:01Z</time>
      </trkpt>
      <trkpt lat="49.77222" lon="2.16921">
        <ele>49.6</ele>
        <time>2023-02-08T15:54:02Z</time>
      </trkpt>
      <trkpt lat="49.77222" lon="2.16921">
        <ele>49.6</ele>
        <time>2023-02-08T15:54:03Z</time>
      </trkpt>
      <trkpt lat="49.7722" lon="2.16917">
        <ele>49.6</ele>
        <time>2023-02-08T15:54:05Z</time>
      </trkpt>
      <trkpt lat="49.77219" lon="2.16916">
        <ele>49.6</ele>
        <time>2023-02-08T15:54:07Z</time>
      </trkpt>
      <trkpt lat="49.77219" lon="2.16916">
        <ele>49.6</ele>
        <time>2023-02-08T15:54:08Z</time>
      </trkpt>
      <trkpt lat="49.77217" lon="2.16914">
        <ele>49.6</ele>
        <time>2023-02-08T15:54:10Z</time>
      </trkpt>
      <trkpt lat="49.77217" lon="2.16913">
        <ele>49.6</ele>
        <time>2023-02-08T15:54:12Z</time>
      </trkpt>
      <trkpt lat="49.77217" lon="2.16912">
        <ele>49.6</ele>
        <time>2023-02-08T15:54:13Z</time>
      </trkpt>
      <trkpt lat="49.77216" lon="2.1691">
        <ele>49.5</ele>
        <time>2023-02-08T15:54:14Z</time>
      </trkpt>
      <trkpt lat="49.77216" lon="2.16909">
        <ele>49.5</ele>
        <time>2023-02-08T15:54:15Z</time>
      </trkpt>
      <trkpt lat="49.77216" lon="2.16908">
        <ele>49.5</ele>
        <time>2023-02-08T15:54:17Z</time>
      </trkpt>
      <trkpt lat="49.77216" lon="2.16908">
        <ele>49.5</ele>
        <time>2023-02-08T15:54:18Z</time>
      </trkpt>
      <trkpt lat="49.77215" lon="2.16907">
        <ele>49.5</ele>
        <time>2023-02-08T15:54:19Z</time>
      </trkpt>
      <trkpt lat="49.77215" lon="2.16906">
        <ele>49.5</ele>
        <time>2023-02-08T15:54:21Z</time>
      </trkpt>
      <trkpt lat="49.77214" lon="2.16906">
        <ele>49.5</ele>
        <time>2023-02-08T15:54:23Z</time>
      </trkpt>
      <trkpt lat="49.77214" lon="2.16905">
        <ele>49.5</ele>
        <time>2023-02-08T15:54:24Z</time>
      </trkpt>
      <trkpt lat="49.77214" lon="2.16906">
        <ele>49.5</ele>
        <time>2023-02-08T15:54:25Z</time>
      </trkpt>
      <trkpt lat="49.77213" lon="2.16907">
        <ele>49.5</ele>
        <time>2023-02-08T15:54:27Z</time>
      </trkpt>
      <trkpt lat="49.77213" lon="2.16907">
        <ele>49.5</ele>
        <time>2023-02-08T15:54:28Z</time>
      </trkpt>
      <trkpt lat="49.77213" lon="2.16907">
        <ele>49.5</ele>
        <time>2023-02-08T15:54:29Z</time>
      </trkpt>
      <trkpt lat="49.77213" lon="2.16908">
        <ele>49.5</ele>
        <time>2023-02-08T15:54:31Z</time>
      </trkpt>
      <trkpt lat="49.77213" lon="2.16908">
        <ele>49.5</ele>
        <time>2023-02-08T15:54:32Z</time>
      </trkpt>
      <trkpt lat="49.77213" lon="2.16908">
        <ele>49.5</ele>
        <time>2023-02-08T15:54:33Z</time>
      </trkpt>
      <trkpt lat="49.77213" lon="2.16908">
        <ele>49.5</ele>
        <time>2023-02-08T15:54:35Z</time>
      </trkpt>
      <trkpt lat="49.77212" lon="2.16908">
        <ele>49.5</ele>
        <time>2023-02-08T15:54:36Z</time>
      </trkpt>
      <trkpt lat="49.77212" lon="2.16908">
        <ele>49.5</ele>
        <time>2023-02-08T15:54:37Z</time>
      </trkpt>
      <trkpt lat="49.77211" lon="2.16908">
        <ele>49.5</ele>
        <time>2023-02-08T15:54:38Z</time>
      </trkpt>
      <trkpt lat="49.7721" lon="2.16908">
        <ele>49.5</ele>
        <time>2023-02-08T15:54:40Z</time>
      </trkpt>
      <trkpt lat="49.7721" lon="2.16908">
        <ele>49.5</ele>
        <time>2023-02-08T15:54:41Z</time>
      </trkpt>
      <trkpt lat="49.77208" lon="2.16908">
        <ele>49.5</ele>
        <time>2023-02-08T15:54:42Z</time>
      </trkpt>
      <trkpt lat="49.77208" lon="2.16908">
        <ele>49.5</ele>
        <time>2023-02-08T15:54:44Z</time>
      </trkpt>
      <trkpt lat="49.77207" lon="2.16908">
        <ele>49.5</ele>
        <time>2023-02-08T15:54:45Z</time>
      </trkpt>
      <trkpt lat="49.77206" lon="2.16908">
        <ele>49.5</ele>
        <time>2023-02-08T15:54:46Z</time>
      </trkpt>
      <trkpt lat="49.77205" lon="2.16908">
        <ele>49.5</ele>
        <time>2023-02-08T15:54:48Z</time>
      </trkpt>
      <trkpt lat="49.77205" lon="2.16907">
        <ele>49.5</ele>
        <time>2023-02-08T15:54:49Z</time>
      </trkpt>
      <trkpt lat="49.77204" lon="2.16907">
        <ele>49.5</ele>
        <time>2023-02-08T15:54:50Z</time>
      </trkpt>
      <trkpt lat="49.77204" lon="2.16907">
        <ele>49.5</ele>
        <time>2023-02-08T15:54:51Z</time>
      </trkpt>
      <trkpt lat="49.77203" lon="2.16907">
        <ele>49.5</ele>
        <time>2023-02-08T15:54:52Z</time>
      </trkpt>
      <trkpt lat="49.77203" lon="2.16908">
        <ele>49.5</ele>
        <time>2023-02-08T15:54:53Z</time>
      </trkpt>
      <trkpt lat="49.77203" lon="2.16909">
        <ele>49.5</ele>
        <time>2023-02-08T15:54:55Z</time>
      </trkpt>
      <trkpt lat="49.77202" lon="2.1691">
        <ele>49.5</ele>
        <time>2023-02-08T15:54:56Z</time>
      </trkpt>
      <trkpt lat="49.77202" lon="2.1691">
        <ele>49.5</ele>
        <time>2023-02-08T15:54:57Z</time>
      </trkpt>
      <trkpt lat="49.77202" lon="2.16911">
        <ele>49.5</ele>
        <time>2023-02-08T15:54:58Z</time>
      </trkpt>
      <trkpt lat="49.77202" lon="2.16912">
        <ele>49.5</ele>
        <time>2023-02-08T15:55:00Z</time>
      </trkpt>
      <trkpt lat="49.77201" lon="2.16912">
        <ele>49.5</ele>
        <time>2023-02-08T15:55:02Z</time>
      </trkpt>
      <trkpt lat="49.77201" lon="2.16911">
        <ele>49.5</ele>
        <time>2023-02-08T15:55:03Z</time>
      </trkpt>
      <trkpt lat="49.77201" lon="2.1691">
        <ele>49.5</ele>
        <time>2023-02-08T15:55:05Z</time>
      </trkpt>
      <trkpt lat="49.77201" lon="2.1691">
        <ele>49.5</ele>
        <time>2023-02-08T15:55:06Z</time>
      </trkpt>
      <trkpt lat="49.77202" lon="2.1691">
        <ele>49.5</ele>
        <time>2023-02-08T15:55:07Z</time>
      </trkpt>
      <trkpt lat="49.77202" lon="2.1691">
        <ele>49.5</ele>
        <time>2023-02-08T15:55:09Z</time>
      </trkpt>
      <trkpt lat="49.77202" lon="2.1691">
        <ele>49.5</ele>
        <time>2023-02-08T15:55:10Z</time>
      </trkpt>
      <trkpt lat="49.77202" lon="2.1691">
        <ele>49.5</ele>
        <time>2023-02-08T15:55:11Z</time>
      </trkpt>
      <trkpt lat="49.77201" lon="2.1691">
        <ele>49.5</ele>
        <time>2023-02-08T15:55:12Z</time>
      </trkpt>
      <trkpt lat="49.77201" lon="2.16911">
        <ele>49.5</ele>
        <time>2023-02-08T15:55:14Z</time>
      </trkpt>
      <trkpt lat="49.77201" lon="2.16911">
        <ele>49.5</ele>
        <time>2023-02-08T15:55:15Z</time>
      </trkpt>
      <trkpt lat="49.77201" lon="2.16911">
        <ele>49.5</ele>
        <time>2023-02-08T15:55:16Z</time>
      </trkpt>
      <trkpt lat="49.77201" lon="2.16911">
        <ele>49.5</ele>
        <time>2023-02-08T15:55:17Z</time>
      </trkpt>
      <trkpt lat="49.77201" lon="2.16911">
        <ele>49.5</ele>
        <time>2023-02-08T15:55:18Z</time>
      </trkpt>
      <trkpt lat="49.77201" lon="2.16911">
        <ele>49.5</ele>
        <time>2023-02-08T15:55:19Z</time>
      </trkpt>
      <trkpt lat="49.77201" lon="2.16911">
        <ele>49.5</ele>
        <time>2023-02-08T15:55:20Z</time>
      </trkpt>
      <trkpt lat="49.77201" lon="2.16911">
        <ele>49.5</ele>
        <time>2023-02-08T15:55:21Z</time>
      </trkpt>
      <trkpt lat="49.77201" lon="2.16911">
        <ele>49.5</ele>
        <time>2023-02-08T15:55:22Z</time>
      </trkpt>
      <trkpt lat="49.77201" lon="2.16911">
        <ele>49.5</ele>
        <time>2023-02-08T15:55:23Z</time>
      </trkpt>
      <trkpt lat="49.77201" lon="2.16911">
        <ele>49.5</ele>
        <time>2023-02-08T15:55:24Z</time>
      </trkpt>
      <trkpt lat="49.77201" lon="2.1691">
        <ele>49.5</ele>
        <time>2023-02-08T15:55:25Z</time>
      </trkpt>
      <trkpt lat="49.77201" lon="2.1691">
        <ele>49.5</ele>
        <time>2023-02-08T15:55:26Z</time>
      </trkpt>
      <trkpt lat="49.77201" lon="2.1691">
        <ele>49.5</ele>
        <time>2023-02-08T15:55:27Z</time>
      </trkpt>
      <trkpt lat="49.77201" lon="2.1691">
        <ele>49.5</ele>
        <time>2023-02-08T15:55:28Z</time>
      </trkpt>
      <trkpt lat="49.77201" lon="2.16911">
        <ele>49.5</ele>
        <time>2023-02-08T15:55:29Z</time>
      </trkpt>
      <trkpt lat="49.77202" lon="2.16911">
        <ele>49.5</ele>
        <time>2023-02-08T15:55:30Z</time>
      </trkpt>
      <trkpt lat="49.77202" lon="2.16911">
        <ele>49.5</ele>
        <time>2023-02-08T15:55:31Z</time>
      </trkpt>
      <trkpt lat="49.77202" lon="2.16912">
        <ele>49.5</ele>
        <time>2023-02-08T15:55:32Z</time>
      </trkpt>
      <trkpt lat="49.77202" lon="2.16912">
        <ele>49.5</ele>
        <time>2023-02-08T15:55:33Z</time>
      </trkpt>
      <trkpt lat="49.77201" lon="2.16912">
        <ele>49.5</ele>
        <time>2023-02-08T15:55:34Z</time>
      </trkpt>
      <trkpt lat="49.77201" lon="2.16911">
        <ele>49.5</ele>
        <time>2023-02-08T15:55:35Z</time>
      </trkpt>
      <trkpt lat="49.77201" lon="2.16911">
        <ele>49.5</ele>
        <time>2023-02-08T15:55:36Z</time>
      </trkpt>
      <trkpt lat="49.77201" lon="2.16911">
        <ele>49.5</ele>
        <time>2023-02-08T15:55:37Z</time>
      </trkpt>
      <trkpt lat="49.77201" lon="2.16911">
        <ele>49.5</ele>
        <time>2023-02-08T15:55:38Z</time>
      </trkpt>
      <trkpt lat="49.77201" lon="2.16911">
        <ele>49.5</ele>
        <time>2023-02-08T15:55:39Z</time>
      </trkpt>
      <trkpt lat="49.77201" lon="2.16911">
        <ele>49.5</ele>
        <time>2023-02-08T15:55:40Z</time>
      </trkpt>
      <trkpt lat="49.77201" lon="2.16911">
        <ele>49.5</ele>
        <time>2023-02-08T15:55:41Z</time>
      </trkpt>
      <trkpt lat="49.77201" lon="2.16911">
        <ele>49.5</ele>
        <time>2023-02-08T15:55:42Z</time>
      </trkpt>
      <trkpt lat="49.77201" lon="2.16911">
        <ele>49.5</ele>
        <time>2023-02-08T15:55:43Z</time>
      </trkpt>
      <trkpt lat="49.77201" lon="2.16911">
        <ele>49.5</ele>
        <time>2023-02-08T15:55:44Z</time>
      </trkpt>
      <trkpt lat="49.77201" lon="2.16911">
        <ele>49.5</ele>
        <time>2023-02-08T15:55:45Z</time>
      </trkpt>
      <trkpt lat="49.77201" lon="2.16911">
        <ele>49.5</ele>
        <time>2023-02-08T15:55:46Z</time>
      </trkpt>
      <trkpt lat="49.77201" lon="2.16911">
        <ele>49.5</ele>
        <time>2023-02-08T15:55:47Z</time>
      </trkpt>
      <trkpt lat="49.77201" lon="2.16911">
        <ele>49.5</ele>
        <time>2023-02-08T15:55:48Z</time>
      </trkpt>
      <trkpt lat="49.77201" lon="2.16911">
        <ele>49.5</ele>
        <time>2023-02-08T15:55:49Z</time>
      </trkpt>
      <trkpt lat="49.77201" lon="2.16911">
        <ele>49.5</ele>
        <time>2023-02-08T15:55:50Z</time>
      </trkpt>
      <trkpt lat="49.77201" lon="2.16911">
        <ele>49.5</ele>
        <time>2023-02-08T15:55:51Z</time>
      </trkpt>
      <trkpt lat="49.77201" lon="2.16911">
        <ele>49.5</ele>
        <time>2023-02-08T15:55:52Z</time>
      </trkpt>
      <trkpt lat="49.77201" lon="2.16911">
        <ele>49.5</ele>
        <time>2023-02-08T15:55:53Z</time>
      </trkpt>
      <trkpt lat="49.77201" lon="2.16911">
        <ele>49.5</ele>
        <time>2023-02-08T15:55:54Z</time>
      </trkpt>
      <trkpt lat="49.77201" lon="2.16911">
        <ele>49.5</ele>
        <time>2023-02-08T15:55:55Z</time>
      </trkpt>
      <trkpt lat="49.77201" lon="2.16911">
        <ele>49.5</ele>
        <time>2023-02-08T15:55:56Z</time>
      </trkpt>
      <trkpt lat="49.77201" lon="2.16911">
        <ele>49.5</ele>
        <time>2023-02-08T15:55:57Z</time>
      </trkpt>
      <trkpt lat="49.77201" lon="2.16911">
        <ele>49.5</ele>
        <time>2023-02-08T15:55:58Z</time>
      </trkpt>
      <trkpt lat="49.77201" lon="2.16911">
        <ele>49.5</ele>
        <time>2023-02-08T15:55:59Z</time>
      </trkpt>
      <trkpt lat="49.77201" lon="2.16911">
        <ele>49.5</ele>
        <time>2023-02-08T15:56:00Z</time>
      </trkpt>
      <trkpt lat="49.77201" lon="2.16911">
        <ele>49.5</ele>
        <time>2023-02-08T15:56:01Z</time>
      </trkpt>
      <trkpt lat="49.77201" lon="2.16911">
        <ele>49.5</ele>
        <time>2023-02-08T15:56:02Z</time>
      </trkpt>
      <trkpt lat="49.77201" lon="2.16911">
        <ele>49.5</ele>
        <time>2023-02-08T15:56:03Z</time>
      </trkpt>
      <trkpt lat="49.77201" lon="2.16911">
        <ele>49.5</ele>
        <time>2023-02-08T15:56:04Z</time>
      </trkpt>
      <trkpt lat="49.77201" lon="2.16911">
        <ele>49.5</ele>
        <time>2023-02-08T15:56:05Z</time>
      </trkpt>
      <trkpt lat="49.77201" lon="2.16911">
        <ele>49.5</ele>
        <time>2023-02-08T15:56:06Z</time>
      </trkpt>
      <trkpt lat="49.77201" lon="2.16911">
        <ele>49.5</ele>
        <time>2023-02-08T15:56:07Z</time>
      </trkpt>
      <trkpt lat="49.77201" lon="2.16911">
        <ele>49.5</ele>
        <time>2023-02-08T15:56:08Z</time>
      </trkpt>
      <trkpt lat="49.77201" lon="2.16911">
        <ele>49.5</ele>
        <time>2023-02-08T15:56:09Z</time>
      </trkpt>
      <trkpt lat="49.77201" lon="2.16911">
        <ele>49.5</ele>
        <time>2023-02-08T15:56:10Z</time>
      </trkpt>
      <trkpt lat="49.77201" lon="2.16911">
        <ele>49.5</ele>
        <time>2023-02-08T15:56:11Z</time>
      </trkpt>
      <trkpt lat="49.77201" lon="2.16911">
        <ele>49.5</ele>
        <time>2023-02-08T15:56:12Z</time>
      </trkpt>
      <trkpt lat="49.77201" lon="2.16911">
        <ele>49.5</ele>
        <time>2023-02-08T15:56:13Z</time>
      </trkpt>
      <trkpt lat="49.77201" lon="2.16911">
        <ele>49.5</ele>
        <time>2023-02-08T15:56:14Z</time>
      </trkpt>
      <trkpt lat="49.77201" lon="2.16911">
        <ele>49.5</ele>
        <time>2023-02-08T15:56:15Z</time>
      </trkpt>
      <trkpt lat="49.77201" lon="2.16911">
        <ele>49.5</ele>
        <time>2023-02-08T15:56:16Z</time>
      </trkpt>
      <trkpt lat="49.77201" lon="2.16911">
        <ele>49.5</ele>
        <time>2023-02-08T15:56:17Z</time>
      </trkpt>
      <trkpt lat="49.77201" lon="2.16911">
        <ele>49.5</ele>
        <time>2023-02-08T15:56:18Z</time>
      </trkpt>
      <trkpt lat="49.77201" lon="2.16911">
        <ele>49.5</ele>
        <time>2023-02-08T15:56:19Z</time>
      </trkpt>
      <trkpt lat="49.77201" lon="2.16911">
        <ele>49.5</ele>
        <time>2023-02-08T15:56:20Z</time>
      </trkpt>
      <trkpt lat="49.77201" lon="2.16911">
        <ele>49.5</ele>
        <time>2023-02-08T15:56:21Z</time>
      </trkpt>
      <trkpt lat="49.77201" lon="2.16911">
        <ele>49.5</ele>
        <time>2023-02-08T15:56:22Z</time>
      </trkpt>
      <trkpt lat="49.77201" lon="2.16911">
        <ele>49.5</ele>
        <time>2023-02-08T15:56:23Z</time>
      </trkpt>
      <trkpt lat="49.77201" lon="2.16911">
        <ele>49.5</ele>
        <time>2023-02-08T15:56:24Z</time>
      </trkpt>
      <trkpt lat="49.77201" lon="2.16911">
        <ele>49.5</ele>
        <time>2023-02-08T15:56:25Z</time>
      </trkpt>
      <trkpt lat="49.77201" lon="2.16911">
        <ele>49.5</ele>
        <time>2023-02-08T15:56:26Z</time>
      </trkpt>
      <trkpt lat="49.77201" lon="2.16911">
        <ele>49.5</ele>
        <time>2023-02-08T15:56:27Z</time>
      </trkpt>
      <trkpt lat="49.77201" lon="2.16911">
        <ele>49.5</ele>
        <time>2023-02-08T15:56:28Z</time>
      </trkpt>
      <trkpt lat="49.77201" lon="2.16911">
        <ele>49.5</ele>
        <time>2023-02-08T15:56:29Z</time>
      </trkpt>
      <trkpt lat="49.77201" lon="2.16911">
        <ele>49.5</ele>
        <time>2023-02-08T15:56:30Z</time>
      </trkpt>
      <trkpt lat="49.77201" lon="2.16911">
        <ele>49.5</ele>
        <time>2023-02-08T15:56:31Z</time>
      </trkpt>
      <trkpt lat="49.77201" lon="2.16911">
        <ele>49.5</ele>
        <time>2023-02-08T15:56:32Z</time>
      </trkpt>
      <trkpt lat="49.77201" lon="2.16911">
        <ele>49.5</ele>
        <time>2023-02-08T15:56:33Z</time>
      </trkpt>
      <trkpt lat="49.77201" lon="2.16911">
        <ele>49.5</ele>
        <time>2023-02-08T15:56:34Z</time>
      </trkpt>
      <trkpt lat="49.77201" lon="2.16911">
        <ele>49.5</ele>
        <time>2023-02-08T15:56:35Z</time>
      </trkpt>
      <trkpt lat="49.77201" lon="2.16911">
        <ele>49.5</ele>
        <time>2023-02-08T15:56:36Z</time>
      </trkpt>
      <trkpt lat="49.77201" lon="2.16911">
        <ele>49.5</ele>
        <time>2023-02-08T15:56:37Z</time>
      </trkpt>
      <trkpt lat="49.77201" lon="2.16911">
        <ele>49.5</ele>
        <time>2023-02-08T15:56:38Z</time>
      </trkpt>
      <trkpt lat="49.77201" lon="2.16911">
        <ele>49.5</ele>
        <time>2023-02-08T15:56:39Z</time>
      </trkpt>
      <trkpt lat="49.77201" lon="2.16911">
        <ele>49.5</ele>
        <time>2023-02-08T15:56:40Z</time>
      </trkpt>
      <trkpt lat="49.77201" lon="2.16911">
        <ele>49.5</ele>
        <time>2023-02-08T15:56:41Z</time>
      </trkpt>
      <trkpt lat="49.77201" lon="2.16911">
        <ele>49.5</ele>
        <time>2023-02-08T15:56:42Z</time>
      </trkpt>
      <trkpt lat="49.77201" lon="2.16911">
        <ele>49.5</ele>
        <time>2023-02-08T15:56:43Z</time>
      </trkpt>
      <trkpt lat="49.77201" lon="2.16911">
        <ele>49.5</ele>
        <time>2023-02-08T15:56:44Z</time>
      </trkpt>
      <trkpt lat="49.77201" lon="2.16911">
        <ele>49.5</ele>
        <time>2023-02-08T15:56:45Z</time>
      </trkpt>
      <trkpt lat="49.77201" lon="2.16911">
        <ele>49.5</ele>
        <time>2023-02-08T15:56:46Z</time>
      </trkpt>
      <trkpt lat="49.77201" lon="2.16911">
        <ele>49.5</ele>
        <time>2023-02-08T15:56:47Z</time>
      </trkpt>
      <trkpt lat="49.77201" lon="2.16911">
        <ele>49.5</ele>
        <time>2023-02-08T15:56:48Z</time>
      </trkpt>
      <trkpt lat="49.77201" lon="2.16911">
        <ele>49.5</ele>
        <time>2023-02-08T15:56:49Z</time>
      </trkpt>
      <trkpt lat="49.77201" lon="2.16911">
        <ele>49.5</ele>
        <time>2023-02-08T15:56:50Z</time>
      </trkpt>
      <trkpt lat="49.77201" lon="2.16911">
        <ele>49.5</ele>
        <time>2023-02-08T15:56:51Z</time>
      </trkpt>
      <trkpt lat="49.77201" lon="2.16911">
        <ele>49.5</ele>
        <time>2023-02-08T15:56:52Z</time>
      </trkpt>
      <trkpt lat="49.77201" lon="2.16911">
        <ele>49.5</ele>
        <time>2023-02-08T15:56:53Z</time>
      </trkpt>
      <trkpt lat="49.77201" lon="2.16911">
        <ele>49.5</ele>
        <time>2023-02-08T15:56:54Z</time>
      </trkpt>
      <trkpt lat="49.77201" lon="2.16911">
        <ele>49.5</ele>
        <time>2023-02-08T15:56:55Z</time>
      </trkpt>
      <trkpt lat="49.77201" lon="2.16911">
        <ele>49.5</ele>
        <time>2023-02-08T15:56:56Z</time>
      </trkpt>
      <trkpt lat="49.77201" lon="2.16911">
        <ele>49.5</ele>
        <time>2023-02-08T15:56:57Z</time>
      </trkpt>
      <trkpt lat="49.77201" lon="2.16911">
        <ele>49.5</ele>
        <time>2023-02-08T15:56:58Z</time>
      </trkpt>
      <trkpt lat="49.77201" lon="2.16911">
        <ele>49.5</ele>
        <time>2023-02-08T15:56:59Z</time>
      </trkpt>
      <trkpt lat="49.77201" lon="2.16911">
        <ele>49.5</ele>
        <time>2023-02-08T15:57:00Z</time>
      </trkpt>
      <trkpt lat="49.77201" lon="2.16911">
        <ele>49.5</ele>
        <time>2023-02-08T15:57:01Z</time>
      </trkpt>
      <trkpt lat="49.77201" lon="2.16911">
        <ele>49.5</ele>
        <time>2023-02-08T15:57:02Z</time>
      </trkpt>
      <trkpt lat="49.77201" lon="2.16911">
        <ele>49.5</ele>
        <time>2023-02-08T15:57:03Z</time>
      </trkpt>
      <trkpt lat="49.77201" lon="2.16911">
        <ele>49.5</ele>
        <time>2023-02-08T15:57:04Z</time>
      </trkpt>
      <trkpt lat="49.77201" lon="2.16911">
        <ele>49.5</ele>
        <time>2023-02-08T15:57:05Z</time>
      </trkpt>
      <trkpt lat="49.77201" lon="2.16911">
        <ele>49.5</ele>
        <time>2023-02-08T15:57:06Z</time>
      </trkpt>
      <trkpt lat="49.77201" lon="2.16911">
        <ele>49.5</ele>
        <time>2023-02-08T15:57:07Z</time>
      </trkpt>
      <trkpt lat="49.77201" lon="2.16911">
        <ele>49.5</ele>
        <time>2023-02-08T15:57:08Z</time>
      </trkpt>
      <trkpt lat="49.77201" lon="2.16911">
        <ele>49.5</ele>
        <time>2023-02-08T15:57:09Z</time>
      </trkpt>
      <trkpt lat="49.77201" lon="2.16911">
        <ele>49.5</ele>
        <time>2023-02-08T15:57:10Z</time>
      </trkpt>
      <trkpt lat="49.77201" lon="2.16911">
        <ele>49.5</ele>
        <time>2023-02-08T15:57:11Z</time>
      </trkpt>
      <trkpt lat="49.77201" lon="2.16911">
        <ele>49.5</ele>
        <time>2023-02-08T15:57:12Z</time>
      </trkpt>
      <trkpt lat="49.77201" lon="2.16911">
        <ele>49.5</ele>
        <time>2023-02-08T15:57:13Z</time>
      </trkpt>
      <trkpt lat="49.77201" lon="2.16911">
        <ele>49.5</ele>
        <time>2023-02-08T15:57:14Z</time>
      </trkpt>
      <trkpt lat="49.77201" lon="2.16911">
        <ele>49.5</ele>
        <time>2023-02-08T15:57:15Z</time>
      </trkpt>
      <trkpt lat="49.77201" lon="2.16911">
        <ele>49.5</ele>
        <time>2023-02-08T15:57:16Z</time>
      </trkpt>
      <trkpt lat="49.77201" lon="2.16911">
        <ele>49.5</ele>
        <time>2023-02-08T15:57:17Z</time>
      </trkpt>
      <trkpt lat="49.77201" lon="2.16911">
        <ele>49.5</ele>
        <time>2023-02-08T15:57:18Z</time>
      </trkpt>
      <trkpt lat="49.77201" lon="2.16911">
        <ele>49.5</ele>
        <time>2023-02-08T15:57:19Z</time>
      </trkpt>
      <trkpt lat="49.77201" lon="2.16911">
        <ele>49.5</ele>
        <time>2023-02-08T15:57:20Z</time>
      </trkpt>
      <trkpt lat="49.77201" lon="2.16911">
        <ele>49.5</ele>
        <time>2023-02-08T15:57:21Z</time>
      </trkpt>
      <trkpt lat="49.77201" lon="2.16911">
        <ele>49.5</ele>
        <time>2023-02-08T15:57:22Z</time>
      </trkpt>
      <trkpt lat="49.77201" lon="2.16911">
        <ele>49.5</ele>
        <time>2023-02-08T15:57:23Z</time>
      </trkpt>
      <trkpt lat="49.77201" lon="2.16911">
        <ele>49.5</ele>
        <time>2023-02-08T15:57:24Z</time>
      </trkpt>
      <trkpt lat="49.77201" lon="2.16911">
        <ele>49.5</ele>
        <time>2023-02-08T15:57:25Z</time>
      </trkpt>
      <trkpt lat="49.77201" lon="2.16911">
        <ele>49.5</ele>
        <time>2023-02-08T15:57:26Z</time>
      </trkpt>
      <trkpt lat="49.77201" lon="2.1691">
        <ele>49.5</ele>
        <time>2023-02-08T15:57:28Z</time>
      </trkpt>
      <trkpt lat="49.77201" lon="2.16911">
        <ele>49.5</ele>
        <time>2023-02-08T15:57:29Z</time>
      </trkpt>
      <trkpt lat="49.77201" lon="2.16911">
        <ele>49.5</ele>
        <time>2023-02-08T15:57:30Z</time>
      </trkpt>
      <trkpt lat="49.77201" lon="2.16911">
        <ele>49.5</ele>
        <time>2023-02-08T15:57:31Z</time>
      </trkpt>
      <trkpt lat="49.77201" lon="2.16911">
        <ele>49.5</ele>
        <time>2023-02-08T15:57:33Z</time>
      </trkpt>
      <trkpt lat="49.77201" lon="2.16911">
        <ele>49.5</ele>
        <time>2023-02-08T15:57:34Z</time>
      </trkpt>
      <trkpt lat="49.77201" lon="2.16912">
        <ele>49.5</ele>
        <time>2023-02-08T15:57:36Z</time>
      </trkpt>
      <trkpt lat="49.77201" lon="2.16912">
        <ele>49.5</ele>
        <time>2023-02-08T15:57:37Z</time>
      </trkpt>
      <trkpt lat="49.77201" lon="2.16911">
        <ele>49.5</ele>
        <time>2023-02-08T15:57:38Z</time>
      </trkpt>
      <trkpt lat="49.77201" lon="2.16911">
        <ele>49.5</ele>
        <time>2023-02-08T15:57:39Z</time>
      </trkpt>
      <trkpt lat="49.77201" lon="2.16911">
        <ele>49.5</ele>
        <time>2023-02-08T15:57:41Z</time>
      </trkpt>
      <trkpt lat="49.77201" lon="2.16911">
        <ele>49.5</ele>
        <time>2023-02-08T15:57:42Z</time>
      </trkpt>
      <trkpt lat="49.77201" lon="2.16911">
        <ele>49.5</ele>
        <time>2023-02-08T15:57:43Z</time>
      </trkpt>
      <trkpt lat="49.77201" lon="2.16911">
        <ele>49.5</ele>
        <time>2023-02-08T15:57:44Z</time>
      </trkpt>
      <trkpt lat="49.77201" lon="2.16911">
        <ele>49.5</ele>
        <time>2023-02-08T15:57:45Z</time>
      </trkpt>
      <trkpt lat="49.77201" lon="2.16911">
        <ele>49.5</ele>
        <time>2023-02-08T15:57:46Z</time>
      </trkpt>
      <trkpt lat="49.77201" lon="2.16911">
        <ele>49.5</ele>
        <time>2023-02-08T15:57:47Z</time>
      </trkpt>
      <trkpt lat="49.77201" lon="2.16911">
        <ele>49.5</ele>
        <time>2023-02-08T15:57:48Z</time>
      </trkpt>
      <trkpt lat="49.77201" lon="2.16911">
        <ele>49.5</ele>
        <time>2023-02-08T15:57:49Z</time>
      </trkpt>
      <trkpt lat="49.77201" lon="2.16911">
        <ele>49.5</ele>
        <time>2023-02-08T15:57:50Z</time>
      </trkpt>
      <trkpt lat="49.77201" lon="2.16911">
        <ele>49.5</ele>
        <time>2023-02-08T15:57:51Z</time>
      </trkpt>
      <trkpt lat="49.77201" lon="2.16911">
        <ele>49.5</ele>
        <time>2023-02-08T15:57:52Z</time>
      </trkpt>
      <trkpt lat="49.77201" lon="2.16911">
        <ele>49.5</ele>
        <time>2023-02-08T15:57:53Z</time>
      </trkpt>
      <trkpt lat="49.77201" lon="2.16911">
        <ele>49.5</ele>
        <time>2023-02-08T15:57:54Z</time>
      </trkpt>
      <trkpt lat="49.77201" lon="2.16911">
        <ele>49.5</ele>
        <time>2023-02-08T15:57:55Z</time>
      </trkpt>
      <trkpt lat="49.77201" lon="2.16911">
        <ele>49.5</ele>
        <time>2023-02-08T15:57:56Z</time>
      </trkpt>
      <trkpt lat="49.77201" lon="2.16911">
        <ele>49.5</ele>
        <time>2023-02-08T15:57:57Z</time>
      </trkpt>
      <trkpt lat="49.77201" lon="2.16911">
        <ele>49.5</ele>
        <time>2023-02-08T15:57:58Z</time>
      </trkpt>
      <trkpt lat="49.77201" lon="2.16911">
        <ele>49.5</ele>
        <time>2023-02-08T15:57:59Z</time>
      </trkpt>
      <trkpt lat="49.77201" lon="2.16911">
        <ele>49.5</ele>
        <time>2023-02-08T15:58:00Z</time>
      </trkpt>
      <trkpt lat="49.77201" lon="2.16911">
        <ele>49.5</ele>
        <time>2023-02-08T15:58:01Z</time>
      </trkpt>
      <trkpt lat="49.77201" lon="2.16911">
        <ele>49.5</ele>
        <time>2023-02-08T15:58:02Z</time>
      </trkpt>
      <trkpt lat="49.77201" lon="2.16911">
        <ele>49.5</ele>
        <time>2023-02-08T15:58:03Z</time>
      </trkpt>
      <trkpt lat="49.77201" lon="2.16911">
        <ele>49.5</ele>
        <time>2023-02-08T15:58:04Z</time>
      </trkpt>
      <trkpt lat="49.77201" lon="2.16911">
        <ele>49.5</ele>
        <time>2023-02-08T15:58:05Z</time>
      </trkpt>
      <trkpt lat="49.77201" lon="2.16911">
        <ele>49.5</ele>
        <time>2023-02-08T15:58:06Z</time>
      </trkpt>
      <trkpt lat="49.77201" lon="2.16911">
        <ele>49.5</ele>
        <time>2023-02-08T15:58:07Z</time>
      </trkpt>
      <trkpt lat="49.77201" lon="2.16911">
        <ele>49.5</ele>
        <time>2023-02-08T15:58:08Z</time>
      </trkpt>
      <trkpt lat="49.77201" lon="2.16911">
        <ele>49.5</ele>
        <time>2023-02-08T15:58:09Z</time>
      </trkpt>
      <trkpt lat="49.77201" lon="2.16911">
        <ele>49.5</ele>
        <time>2023-02-08T15:58:10Z</time>
      </trkpt>
      <trkpt lat="49.77201" lon="2.16911">
        <ele>49.5</ele>
        <time>2023-02-08T15:58:11Z</time>
      </trkpt>
      <trkpt lat="49.77201" lon="2.16911">
        <ele>49.5</ele>
        <time>2023-02-08T15:58:12Z</time>
      </trkpt>
      <trkpt lat="49.77201" lon="2.16911">
        <ele>49.5</ele>
        <time>2023-02-08T15:58:13Z</time>
      </trkpt>
      <trkpt lat="49.77201" lon="2.16911">
        <ele>49.5</ele>
        <time>2023-02-08T15:58:14Z</time>
      </trkpt>
      <trkpt lat="49.77201" lon="2.16911">
        <ele>49.5</ele>
        <time>2023-02-08T15:58:15Z</time>
      </trkpt>
      <trkpt lat="49.77201" lon="2.16911">
        <ele>49.5</ele>
        <time>2023-02-08T15:58:16Z</time>
      </trkpt>
      <trkpt lat="49.77201" lon="2.16911">
        <ele>49.5</ele>
        <time>2023-02-08T15:58:17Z</time>
      </trkpt>
      <trkpt lat="49.77201" lon="2.16911">
        <ele>49.5</ele>
        <time>2023-02-08T15:58:18Z</time>
      </trkpt>
      <trkpt lat="49.77201" lon="2.16911">
        <ele>49.5</ele>
        <time>2023-02-08T15:58:19Z</time>
      </trkpt>
      <trkpt lat="49.77201" lon="2.16911">
        <ele>49.5</ele>
        <time>2023-02-08T15:58:20Z</time>
      </trkpt>
      <trkpt lat="49.77201" lon="2.16911">
        <ele>49.5</ele>
        <time>2023-02-08T15:58:21Z</time>
      </trkpt>
      <trkpt lat="49.77202" lon="2.16911">
        <ele>49.5</ele>
        <time>2023-02-08T15:58:22Z</time>
      </trkpt>
      <trkpt lat="49.77202" lon="2.16911">
        <ele>49.5</ele>
        <time>2023-02-08T15:58:23Z</time>
      </trkpt>
      <trkpt lat="49.77201" lon="2.16911">
        <ele>49.5</ele>
        <time>2023-02-08T15:58:24Z</time>
      </trkpt>
      <trkpt lat="49.77201" lon="2.16911">
        <ele>49.5</ele>
        <time>2023-02-08T15:58:25Z</time>
      </trkpt>
      <trkpt lat="49.77201" lon="2.16911">
        <ele>49.5</ele>
        <time>2023-02-08T15:58:26Z</time>
      </trkpt>
      <trkpt lat="49.77201" lon="2.16911">
        <ele>49.5</ele>
        <time>2023-02-08T15:58:27Z</time>
      </trkpt>
      <trkpt lat="49.77201" lon="2.16911">
        <ele>49.5</ele>
        <time>2023-02-08T15:58:28Z</time>
      </trkpt>
      <trkpt lat="49.77201" lon="2.16911">
        <ele>49.5</ele>
        <time>2023-02-08T15:58:29Z</time>
      </trkpt>
      <trkpt lat="49.77201" lon="2.16911">
        <ele>49.5</ele>
        <time>2023-02-08T15:58:30Z</time>
      </trkpt>
      <trkpt lat="49.77201" lon="2.16911">
        <ele>49.5</ele>
        <time>2023-02-08T15:58:31Z</time>
      </trkpt>
      <trkpt lat="49.77201" lon="2.16911">
        <ele>49.5</ele>
        <time>2023-02-08T15:58:32Z</time>
      </trkpt>
      <trkpt lat="49.77201" lon="2.16911">
        <ele>49.5</ele>
        <time>2023-02-08T15:58:33Z</time>
      </trkpt>
      <trkpt lat="49.77201" lon="2.16911">
        <ele>49.5</ele>
        <time>2023-02-08T15:58:34Z</time>
      </trkpt>
      <trkpt lat="49.77201" lon="2.16911">
        <ele>49.5</ele>
        <time>2023-02-08T15:58:35Z</time>
      </trkpt>
      <trkpt lat="49.77201" lon="2.16911">
        <ele>49.5</ele>
        <time>2023-02-08T15:58:36Z</time>
      </trkpt>
      <trkpt lat="49.77201" lon="2.16911">
        <ele>49.5</ele>
        <time>2023-02-08T15:58:37Z</time>
      </trkpt>
      <trkpt lat="49.77201" lon="2.16911">
        <ele>49.5</ele>
        <time>2023-02-08T15:58:38Z</time>
      </trkpt>
      <trkpt lat="49.77201" lon="2.16911">
        <ele>49.5</ele>
        <time>2023-02-08T15:58:39Z</time>
      </trkpt>
      <trkpt lat="49.77201" lon="2.16911">
        <ele>49.5</ele>
        <time>2023-02-08T15:58:40Z</time>
      </trkpt>
      <trkpt lat="49.77201" lon="2.16911">
        <ele>49.5</ele>
        <time>2023-02-08T15:58:41Z</time>
      </trkpt>
      <trkpt lat="49.77201" lon="2.16911">
        <ele>49.5</ele>
        <time>2023-02-08T15:58:42Z</time>
      </trkpt>
      <trkpt lat="49.77201" lon="2.16911">
        <ele>49.5</ele>
        <time>2023-02-08T15:58:43Z</time>
      </trkpt>
      <trkpt lat="49.77201" lon="2.16911">
        <ele>49.5</ele>
        <time>2023-02-08T15:58:45Z</time>
      </trkpt>
      <trkpt lat="49.77201" lon="2.16911">
        <ele>49.5</ele>
        <time>2023-02-08T15:58:46Z</time>
      </trkpt>
      <trkpt lat="49.77201" lon="2.16911">
        <ele>49.5</ele>
        <time>2023-02-08T15:58:47Z</time>
      </trkpt>
      <trkpt lat="49.77201" lon="2.16911">
        <ele>49.5</ele>
        <time>2023-02-08T15:58:48Z</time>
      </trkpt>
      <trkpt lat="49.77201" lon="2.16911">
        <ele>49.5</ele>
        <time>2023-02-08T15:58:49Z</time>
      </trkpt>
      <trkpt lat="49.77201" lon="2.16911">
        <ele>49.5</ele>
        <time>2023-02-08T15:58:50Z</time>
      </trkpt>
      <trkpt lat="49.77201" lon="2.16911">
        <ele>49.5</ele>
        <time>2023-02-08T15:58:51Z</time>
      </trkpt>
      <trkpt lat="49.77201" lon="2.16911">
        <ele>49.5</ele>
        <time>2023-02-08T15:58:52Z</time>
      </trkpt>
      <trkpt lat="49.77201" lon="2.16911">
        <ele>49.5</ele>
        <time>2023-02-08T15:58:53Z</time>
      </trkpt>
      <trkpt lat="49.77201" lon="2.16911">
        <ele>49.5</ele>
        <time>2023-02-08T15:58:54Z</time>
      </trkpt>
      <trkpt lat="49.77201" lon="2.16911">
        <ele>49.5</ele>
        <time>2023-02-08T15:58:55Z</time>
      </trkpt>
      <trkpt lat="49.77201" lon="2.16911">
        <ele>49.5</ele>
        <time>2023-02-08T15:58:56Z</time>
      </trkpt>
      <trkpt lat="49.77201" lon="2.16911">
        <ele>49.5</ele>
        <time>2023-02-08T15:58:57Z</time>
      </trkpt>
      <trkpt lat="49.77201" lon="2.16911">
        <ele>49.5</ele>
        <time>2023-02-08T15:58:58Z</time>
      </trkpt>
      <trkpt lat="49.77201" lon="2.16911">
        <ele>49.5</ele>
        <time>2023-02-08T15:58:59Z</time>
      </trkpt>
      <trkpt lat="49.77201" lon="2.16911">
        <ele>49.5</ele>
        <time>2023-02-08T15:59:00Z</time>
      </trkpt>
      <trkpt lat="49.77201" lon="2.16911">
        <ele>49.5</ele>
        <time>2023-02-08T15:59:01Z</time>
      </trkpt>
      <trkpt lat="49.77201" lon="2.16911">
        <ele>49.5</ele>
        <time>2023-02-08T15:59:02Z</time>
      </trkpt>
      <trkpt lat="49.77201" lon="2.16911">
        <ele>49.5</ele>
        <time>2023-02-08T15:59:03Z</time>
      </trkpt>
      <trkpt lat="49.77201" lon="2.16911">
        <ele>49.5</ele>
        <time>2023-02-08T15:59:04Z</time>
      </trkpt>
      <trkpt lat="49.77201" lon="2.16911">
        <ele>49.5</ele>
        <time>2023-02-08T15:59:05Z</time>
      </trkpt>
      <trkpt lat="49.77201" lon="2.16911">
        <ele>49.5</ele>
        <time>2023-02-08T15:59:06Z</time>
      </trkpt>
      <trkpt lat="49.77201" lon="2.16911">
        <ele>49.5</ele>
        <time>2023-02-08T15:59:07Z</time>
      </trkpt>
      <trkpt lat="49.77201" lon="2.16911">
        <ele>49.5</ele>
        <time>2023-02-08T15:59:08Z</time>
      </trkpt>
      <trkpt lat="49.77201" lon="2.16911">
        <ele>49.5</ele>
        <time>2023-02-08T15:59:10Z</time>
      </trkpt>
      <trkpt lat="49.77201" lon="2.16911">
        <ele>49.5</ele>
        <time>2023-02-08T15:59:11Z</time>
      </trkpt>
    </trkseg>
  </trk>
</gpx>